<?xml version='1.0' encoding='UTF-8'?><gpx version="1.1" creator="JPX - https://github.com/jenetics/jpx" xmlns="http://www.topografix.com/GPX/1/1"><trk><trkseg><trkpt lat="44.37588917224219" lon="8.140607595866344"><ele>733.0</ele><time>2026-05-02T14:45:01.999Z</time></trkpt><trkpt lat="44.37597447308999" lon="8.140681411151448"><ele>733.0</ele><time>2026-05-02T14:45:03.999Z</time></trkpt><trkpt lat="44.37607541591494" lon="8.140803209648729"><ele>733.0</ele><time>2026-05-02T14:45:05.999Z</time></trkpt><trkpt lat="44.37614638730522" lon="8.140868335103901"><ele>733.0</ele><time>2026-05-02T14:45:06.999Z</time></trkpt><trkpt lat="44.376229168686" lon="8.140936900554042"><ele>733.0</ele><time>2026-05-02T14:45:07.999Z</time></trkpt><trkpt lat="44.376309902755544" lon="8.140994541532944"><ele>733.2</ele><time>2026-05-02T14:45:08.999Z</time></trkpt><trkpt lat="44.37639192764453" lon="8.141046101056247"><ele>733.4</ele><time>2026-05-02T14:45:09.999Z</time></trkpt><trkpt lat="44.37647774989999" lon="8.141096569431857"><ele>733.6</ele><time>2026-05-02T14:45:10.999Z</time></trkpt><trkpt lat="44.37657076005131" lon="8.141123677008776"><ele>733.8000000000001</ele><time>2026-05-02T14:45:11.999Z</time></trkpt><trkpt lat="44.37665851601921" lon="8.141173527312809"><ele>734.0</ele><time>2026-05-02T14:45:12.999Z</time></trkpt><trkpt lat="44.37674562037858" lon="8.141222662262502"><ele>734.0</ele><time>2026-05-02T14:45:13.999Z</time></trkpt><trkpt lat="44.376832571832004" lon="8.14126825033061"><ele>734.0</ele><time>2026-05-02T14:45:14.999Z</time></trkpt><trkpt lat="44.37692072382578" lon="8.141312327901725"><ele>734.0</ele><time>2026-05-02T14:45:15.999Z</time></trkpt><trkpt lat="44.377007185105306" lon="8.141362818101603"><ele>734.0</ele><time>2026-05-02T14:45:16.999Z</time></trkpt><trkpt lat="44.37709142557909" lon="8.141409152015004"><ele>734.0</ele><time>2026-05-02T14:45:17.999Z</time></trkpt><trkpt lat="44.37717388082917" lon="8.141452926609226"><ele>733.8333333333333</ele><time>2026-05-02T14:45:18.999Z</time></trkpt><trkpt lat="44.37725263441017" lon="8.141489194556803"><ele>733.6666666666666</ele><time>2026-05-02T14:45:19.999Z</time></trkpt><trkpt lat="44.377332313934716" lon="8.14151810576319"><ele>733.5</ele><time>2026-05-02T14:45:20.999Z</time></trkpt><trkpt lat="44.37741324446862" lon="8.141532690145539"><ele>733.3333333333334</ele><time>2026-05-02T14:45:21.999Z</time></trkpt><trkpt lat="44.37749811054997" lon="8.141531451803315"><ele>733.1666666666667</ele><time>2026-05-02T14:45:22.999Z</time></trkpt><trkpt lat="44.37758594144388" lon="8.141519241896754"><ele>733.0</ele><time>2026-05-02T14:45:23.999Z</time></trkpt><trkpt lat="44.37767877666492" lon="8.141504773684789"><ele>733.0</ele><time>2026-05-02T14:45:24.999Z</time></trkpt><trkpt lat="44.37777259136398" lon="8.141485039484243"><ele>733.0</ele><time>2026-05-02T14:45:25.999Z</time></trkpt><trkpt lat="44.37786066645319" lon="8.141471399186871"><ele>733.0</ele><time>2026-05-02T14:45:26.999Z</time></trkpt><trkpt lat="44.37794940079551" lon="8.141480317767341"><ele>733.0</ele><time>2026-05-02T14:45:27.999Z</time></trkpt><trkpt lat="44.3781162818985" lon="8.141450897547076"><ele>733.0</ele><time>2026-05-02T14:45:29.999Z</time></trkpt><trkpt lat="44.37819296664026" lon="8.141420132465075"><ele>734.2</ele><time>2026-05-02T14:45:30.999Z</time></trkpt><trkpt lat="44.378249913429315" lon="8.141322196129558"><ele>735.4</ele><time>2026-05-02T14:45:31.999Z</time></trkpt><trkpt lat="44.37830421497927" lon="8.141222857951503"><ele>736.6</ele><time>2026-05-02T14:45:32.999Z</time></trkpt><trkpt lat="44.378360234339695" lon="8.141118367134982"><ele>737.8000000000001</ele><time>2026-05-02T14:45:33.999Z</time></trkpt><trkpt lat="44.37841726210922" lon="8.14099940674662"><ele>739.0</ele><time>2026-05-02T14:45:34.999Z</time></trkpt><trkpt lat="44.37847778086829" lon="8.140885296400944"><ele>739.0</ele><time>2026-05-02T14:45:35.999Z</time></trkpt><trkpt lat="44.37853283419045" lon="8.140761182018808"><ele>739.0</ele><time>2026-05-02T14:45:36.999Z</time></trkpt><trkpt lat="44.37858588463223" lon="8.140632806867252"><ele>739.0</ele><time>2026-05-02T14:45:37.999Z</time></trkpt><trkpt lat="44.37862814856169" lon="8.140503191728076"><ele>739.0</ele><time>2026-05-02T14:45:38.999Z</time></trkpt><trkpt lat="44.37865245302371" lon="8.140359693292073"><ele>739.0</ele><time>2026-05-02T14:45:39.999Z</time></trkpt><trkpt lat="44.37866974674875" lon="8.140214033571603"><ele>737.2</ele><time>2026-05-02T14:45:40.999Z</time></trkpt><trkpt lat="44.37869289337166" lon="8.140070921330652"><ele>735.4000000000001</ele><time>2026-05-02T14:45:41.999Z</time></trkpt><trkpt lat="44.378719001348436" lon="8.139924722598941"><ele>733.6</ele><time>2026-05-02T14:45:42.999Z</time></trkpt><trkpt lat="44.37874772393714" lon="8.139780898192715"><ele>731.8</ele><time>2026-05-02T14:45:43.999Z</time></trkpt><trkpt lat="44.37877590693387" lon="8.139641489549936"><ele>730.0</ele><time>2026-05-02T14:45:44.999Z</time></trkpt><trkpt lat="44.378811369507545" lon="8.139502396719509"><ele>730.0</ele><time>2026-05-02T14:45:45.999Z</time></trkpt><trkpt lat="44.37885315113864" lon="8.139363718955767"><ele>730.0</ele><time>2026-05-02T14:45:46.999Z</time></trkpt><trkpt lat="44.37890156339066" lon="8.139229280404567"><ele>730.0</ele><time>2026-05-02T14:45:47.999Z</time></trkpt><trkpt lat="44.37895673545866" lon="8.13910082644106"><ele>730.0</ele><time>2026-05-02T14:45:48.999Z</time></trkpt><trkpt lat="44.379017074638625" lon="8.138977827126002"><ele>730.0</ele><time>2026-05-02T14:45:49.999Z</time></trkpt><trkpt lat="44.37908352454044" lon="8.13886075818543"><ele>730.0</ele><time>2026-05-02T14:45:50.999Z</time></trkpt><trkpt lat="44.379159192248466" lon="8.138754748094193"><ele>730.0</ele><time>2026-05-02T14:45:51.999Z</time></trkpt><trkpt lat="44.379248886234514" lon="8.13867427390757"><ele>730.0</ele><time>2026-05-02T14:45:52.999Z</time></trkpt><trkpt lat="44.37934779804119" lon="8.138621101363446"><ele>730.0</ele><time>2026-05-02T14:45:53.999Z</time></trkpt><trkpt lat="44.37945766815646" lon="8.138578411774542"><ele>730.0</ele><time>2026-05-02T14:45:54.999Z</time></trkpt><trkpt lat="44.37957802911724" lon="8.1385253950135"><ele>730.5</ele><time>2026-05-02T14:45:55.999Z</time></trkpt><trkpt lat="44.37970443973762" lon="8.138466160573172"><ele>731.0</ele><time>2026-05-02T14:45:56.999Z</time></trkpt><trkpt lat="44.37982174760935" lon="8.138398433976507"><ele>731.5</ele><time>2026-05-02T14:45:57.999Z</time></trkpt><trkpt lat="44.379926568532255" lon="8.138288917701967"><ele>732.0</ele><time>2026-05-02T14:45:58.999Z</time></trkpt><trkpt lat="44.38002546640692" lon="8.138161983089288"><ele>732.0</ele><time>2026-05-02T14:45:59.999Z</time></trkpt><trkpt lat="44.38010902669723" lon="8.137999761945876"><ele>732.0</ele><time>2026-05-02T14:46:00.999Z</time></trkpt><trkpt lat="44.380180111242645" lon="8.137814278784012"><ele>732.0</ele><time>2026-05-02T14:46:01.999Z</time></trkpt><trkpt lat="44.380235602798166" lon="8.137611553474969"><ele>732.0</ele><time>2026-05-02T14:46:02.999Z</time></trkpt><trkpt lat="44.38028291383951" lon="8.137400395495984"><ele>728.3333333333334</ele><time>2026-05-02T14:46:03.999Z</time></trkpt><trkpt lat="44.38033956916705" lon="8.137202992411586"><ele>724.6666666666667</ele><time>2026-05-02T14:46:04.999Z</time></trkpt><trkpt lat="44.38041621870063" lon="8.137016056450264"><ele>721.0</ele><time>2026-05-02T14:46:05.999Z</time></trkpt><trkpt lat="44.38051310625269" lon="8.136826812714732"><ele>727.6666666666667</ele><time>2026-05-02T14:46:06.999Z</time></trkpt><trkpt lat="44.38058378752675" lon="8.136640760653979"><ele>734.3333333333334</ele><time>2026-05-02T14:46:07.999Z</time></trkpt><trkpt lat="44.380620584417755" lon="8.136425183968601"><ele>741.0</ele><time>2026-05-02T14:46:08.999Z</time></trkpt><trkpt lat="44.38063753360769" lon="8.136206301457182"><ele>741.0</ele><time>2026-05-02T14:46:09.999Z</time></trkpt><trkpt lat="44.38064897691569" lon="8.136002166144648"><ele>741.0</ele><time>2026-05-02T14:46:10.999Z</time></trkpt><trkpt lat="44.380660694368835" lon="8.135807150099412"><ele>741.0</ele><time>2026-05-02T14:46:11.999Z</time></trkpt><trkpt lat="44.38067120108575" lon="8.135617174656419"><ele>741.0</ele><time>2026-05-02T14:46:12.999Z</time></trkpt><trkpt lat="44.38068403885635" lon="8.13543813199521"><ele>739.4</ele><time>2026-05-02T14:46:13.999Z</time></trkpt><trkpt lat="44.3807039967463" lon="8.13527066543611"><ele>737.8</ele><time>2026-05-02T14:46:14.999Z</time></trkpt><trkpt lat="44.38073729094068" lon="8.135111585167216"><ele>736.1999999999999</ele><time>2026-05-02T14:46:15.999Z</time></trkpt><trkpt lat="44.38077768277443" lon="8.134978115316045"><ele>734.5999999999999</ele><time>2026-05-02T14:46:16.999Z</time></trkpt><trkpt lat="44.38082112910358" lon="8.134858671219181"><ele>733.0</ele><time>2026-05-02T14:46:17.999Z</time></trkpt><trkpt lat="44.38087013995432" lon="8.134755961352608"><ele>730.5</ele><time>2026-05-02T14:46:18.999Z</time></trkpt><trkpt lat="44.380924607350046" lon="8.134671990027627"><ele>728.0</ele><time>2026-05-02T14:46:19.999Z</time></trkpt><trkpt lat="44.38104680416265" lon="8.134511105957786"><ele>725.5</ele><time>2026-05-02T14:46:20.999Z</time></trkpt><trkpt lat="44.38113703320086" lon="8.134405781678824"><ele>723.0</ele><time>2026-05-02T14:46:21.999Z</time></trkpt><trkpt lat="44.38122599880878" lon="8.134314556797133"><ele>723.0</ele><time>2026-05-02T14:46:22.999Z</time></trkpt><trkpt lat="44.381321569941456" lon="8.134224883354891"><ele>723.0</ele><time>2026-05-02T14:46:23.999Z</time></trkpt><trkpt lat="44.38142086909547" lon="8.134134542357945"><ele>723.0</ele><time>2026-05-02T14:46:24.999Z</time></trkpt><trkpt lat="44.38151925996041" lon="8.134046686204716"><ele>723.0</ele><time>2026-05-02T14:46:25.999Z</time></trkpt><trkpt lat="44.381614712775566" lon="8.133960402609345"><ele>723.2</ele><time>2026-05-02T14:46:26.999Z</time></trkpt><trkpt lat="44.381703214828" lon="8.133869695911518"><ele>723.4</ele><time>2026-05-02T14:46:27.999Z</time></trkpt><trkpt lat="44.38178039999491" lon="8.133768855654013"><ele>723.6</ele><time>2026-05-02T14:46:28.999Z</time></trkpt><trkpt lat="44.38185208672132" lon="8.133653894855446"><ele>723.8000000000001</ele><time>2026-05-02T14:46:29.999Z</time></trkpt><trkpt lat="44.38192441917318" lon="8.133541612130374"><ele>724.0</ele><time>2026-05-02T14:46:30.999Z</time></trkpt><trkpt lat="44.38200047700297" lon="8.133434776534877"><ele>724.0</ele><time>2026-05-02T14:46:31.999Z</time></trkpt><trkpt lat="44.38207697906126" lon="8.133327115713932"><ele>724.0</ele><time>2026-05-02T14:46:32.999Z</time></trkpt><trkpt lat="44.38215205173569" lon="8.13322389116648"><ele>724.0</ele><time>2026-05-02T14:46:33.999Z</time></trkpt><trkpt lat="44.382226707517965" lon="8.133120605852719"><ele>724.0</ele><time>2026-05-02T14:46:34.999Z</time></trkpt><trkpt lat="44.38229491318364" lon="8.133011726416303"><ele>724.0</ele><time>2026-05-02T14:46:35.999Z</time></trkpt><trkpt lat="44.38235433451014" lon="8.132907377808678"><ele>725.0</ele><time>2026-05-02T14:46:36.999Z</time></trkpt><trkpt lat="44.38241241893565" lon="8.132796985597237"><ele>726.0</ele><time>2026-05-02T14:46:37.999Z</time></trkpt><trkpt lat="44.38247147995473" lon="8.132684428242193"><ele>727.0</ele><time>2026-05-02T14:46:38.999Z</time></trkpt><trkpt lat="44.38253703419553" lon="8.132578123717247"><ele>728.0</ele><time>2026-05-02T14:46:39.999Z</time></trkpt><trkpt lat="44.3826065921677" lon="8.132487915915078"><ele>729.0</ele><time>2026-05-02T14:46:40.999Z</time></trkpt><trkpt lat="44.382673924341766" lon="8.13240324983726"><ele>729.0</ele><time>2026-05-02T14:46:41.999Z</time></trkpt><trkpt lat="44.382743697540334" lon="8.132330701409277"><ele>729.0</ele><time>2026-05-02T14:46:42.999Z</time></trkpt><trkpt lat="44.382821542803725" lon="8.132258803330613"><ele>729.0</ele><time>2026-05-02T14:46:43.999Z</time></trkpt><trkpt lat="44.38290317409078" lon="8.132183033472698"><ele>729.0</ele><time>2026-05-02T14:46:44.999Z</time></trkpt><trkpt lat="44.38298868997112" lon="8.13210856155373"><ele>729.0</ele><time>2026-05-02T14:46:45.999Z</time></trkpt><trkpt lat="44.38307719244423" lon="8.13203731029226"><ele>729.0</ele><time>2026-05-02T14:46:46.999Z</time></trkpt><trkpt lat="44.38316268689786" lon="8.131983478025136"><ele>729.0</ele><time>2026-05-02T14:46:47.999Z</time></trkpt><trkpt lat="44.38325467763973" lon="8.131949557476588"><ele>729.0</ele><time>2026-05-02T14:46:48.999Z</time></trkpt><trkpt lat="44.38335361633522" lon="8.131917812356903"><ele>729.0</ele><time>2026-05-02T14:46:49.999Z</time></trkpt><trkpt lat="44.38345796218868" lon="8.131878679886677"><ele>729.0</ele><time>2026-05-02T14:46:50.999Z</time></trkpt><trkpt lat="44.38368354986288" lon="8.131758287477927"><ele>729.0</ele><time>2026-05-02T14:46:52.999Z</time></trkpt><trkpt lat="44.38380104520619" lon="8.131692994458426"><ele>729.0</ele><time>2026-05-02T14:46:53.999Z</time></trkpt><trkpt lat="44.3839229260583" lon="8.13162780650146"><ele>729.0</ele><time>2026-05-02T14:46:54.999Z</time></trkpt><trkpt lat="44.384054927621804" lon="8.131575752013891"><ele>729.0</ele><time>2026-05-02T14:46:55.999Z</time></trkpt><trkpt lat="44.38418591978942" lon="8.131527598848493"><ele>729.5</ele><time>2026-05-02T14:46:56.999Z</time></trkpt><trkpt lat="44.38431623938636" lon="8.131514248046095"><ele>730.0</ele><time>2026-05-02T14:46:57.999Z</time></trkpt><trkpt lat="44.38444052411754" lon="8.13148827403056"><ele>730.5</ele><time>2026-05-02T14:46:58.999Z</time></trkpt><trkpt lat="44.38461455543579" lon="8.131435871643381"><ele>731.0</ele><time>2026-05-02T14:46:59.999Z</time></trkpt><trkpt lat="44.38475452522582" lon="8.131411905844788"><ele>731.0</ele><time>2026-05-02T14:47:00.999Z</time></trkpt><trkpt lat="44.3848917754824" lon="8.131381401723191"><ele>731.0</ele><time>2026-05-02T14:47:01.999Z</time></trkpt><trkpt lat="44.385023946077354" lon="8.131355051866702"><ele>731.0</ele><time>2026-05-02T14:47:02.999Z</time></trkpt><trkpt lat="44.385154213950365" lon="8.131327607905638"><ele>731.0</ele><time>2026-05-02T14:47:03.999Z</time></trkpt><trkpt lat="44.38528706101765" lon="8.131311124690507"><ele>731.0</ele><time>2026-05-02T14:47:04.999Z</time></trkpt><trkpt lat="44.385426326770826" lon="8.131296175180214"><ele>731.0</ele><time>2026-05-02T14:47:05.999Z</time></trkpt><trkpt lat="44.38555993964549" lon="8.131286207777594"><ele>731.0</ele><time>2026-05-02T14:47:06.999Z</time></trkpt><trkpt lat="44.38568844818814" lon="8.131281217726789"><ele>731.0</ele><time>2026-05-02T14:47:07.999Z</time></trkpt><trkpt lat="44.38581097983981" lon="8.131277215157041"><ele>729.0</ele><time>2026-05-02T14:47:08.999Z</time></trkpt><trkpt lat="44.38592825738509" lon="8.131271762955494"><ele>727.0</ele><time>2026-05-02T14:47:09.999Z</time></trkpt><trkpt lat="44.38603540498777" lon="8.131275091918484"><ele>725.0</ele><time>2026-05-02T14:47:10.999Z</time></trkpt><trkpt lat="44.386138143733405" lon="8.131291983122697"><ele>723.0</ele><time>2026-05-02T14:47:11.999Z</time></trkpt><trkpt lat="44.386236689703864" lon="8.131323541902972"><ele>721.0</ele><time>2026-05-02T14:47:12.999Z</time></trkpt><trkpt lat="44.38633528853381" lon="8.131376960108978"><ele>720.1999999999999</ele><time>2026-05-02T14:47:13.999Z</time></trkpt><trkpt lat="44.38642918065565" lon="8.131450616259666"><ele>719.4</ele><time>2026-05-02T14:47:14.999Z</time></trkpt><trkpt lat="44.386512845241796" lon="8.13153240400092"><ele>718.6</ele><time>2026-05-02T14:47:15.999Z</time></trkpt><trkpt lat="44.386592225784185" lon="8.131617783941197"><ele>717.8</ele><time>2026-05-02T14:47:16.999Z</time></trkpt><trkpt lat="44.386683971518636" lon="8.131701291911824"><ele>717.0</ele><time>2026-05-02T14:47:17.999Z</time></trkpt><trkpt lat="44.386788671591326" lon="8.131760423006632"><ele>717.0</ele><time>2026-05-02T14:47:18.999Z</time></trkpt><trkpt lat="44.386899254397676" lon="8.13180186472301"><ele>717.0</ele><time>2026-05-02T14:47:19.999Z</time></trkpt><trkpt lat="44.387019762527515" lon="8.13183458826459"><ele>717.0</ele><time>2026-05-02T14:47:20.999Z</time></trkpt><trkpt lat="44.38713269418418" lon="8.131859213871738"><ele>717.0</ele><time>2026-05-02T14:47:21.999Z</time></trkpt><trkpt lat="44.38725157259663" lon="8.131864536875574"><ele>717.75</ele><time>2026-05-02T14:47:22.999Z</time></trkpt><trkpt lat="44.387369025315536" lon="8.131888737243852"><ele>718.5</ele><time>2026-05-02T14:47:23.999Z</time></trkpt><trkpt lat="44.38748645720762" lon="8.131917104923506"><ele>719.25</ele><time>2026-05-02T14:47:24.999Z</time></trkpt><trkpt lat="44.387605053908345" lon="8.13194993060688"><ele>720.0</ele><time>2026-05-02T14:47:25.999Z</time></trkpt><trkpt lat="44.38772377036605" lon="8.131993466045971"><ele>720.0</ele><time>2026-05-02T14:47:26.999Z</time></trkpt><trkpt lat="44.387836552803115" lon="8.132046262022277"><ele>720.0</ele><time>2026-05-02T14:47:27.999Z</time></trkpt><trkpt lat="44.38795960853917" lon="8.132100798552846"><ele>720.0</ele><time>2026-05-02T14:47:28.999Z</time></trkpt><trkpt lat="44.38808139930215" lon="8.132156884764862"><ele>720.0</ele><time>2026-05-02T14:47:29.999Z</time></trkpt><trkpt lat="44.38821148763616" lon="8.132206224005177"><ele>719.25</ele><time>2026-05-02T14:47:30.999Z</time></trkpt><trkpt lat="44.38834467338039" lon="8.132235280568386"><ele>718.5</ele><time>2026-05-02T14:47:31.999Z</time></trkpt><trkpt lat="44.3884817857724" lon="8.13223630907554"><ele>717.75</ele><time>2026-05-02T14:47:32.999Z</time></trkpt><trkpt lat="44.38863194299883" lon="8.132187412166955"><ele>717.0</ele><time>2026-05-02T14:47:33.999Z</time></trkpt><trkpt lat="44.38880881746909" lon="8.132081595687852"><ele>712.5</ele><time>2026-05-02T14:47:34.999Z</time></trkpt><trkpt lat="44.38902521396817" lon="8.131983451923919"><ele>708.0</ele><time>2026-05-02T14:47:35.999Z</time></trkpt><trkpt lat="44.38925682573475" lon="8.131861550215216"><ele>708.0</ele><time>2026-05-02T14:47:36.999Z</time></trkpt><trkpt lat="44.389475327705576" lon="8.131736241567237"><ele>708.0</ele><time>2026-05-02T14:47:37.999Z</time></trkpt><trkpt lat="44.38967621680634" lon="8.131631702116675"><ele>705.6666666666666</ele><time>2026-05-02T14:47:38.999Z</time></trkpt><trkpt lat="44.38987130346363" lon="8.131509404711968"><ele>703.3333333333333</ele><time>2026-05-02T14:47:39.999Z</time></trkpt><trkpt lat="44.39006218510267" lon="8.131341357174213"><ele>701.0</ele><time>2026-05-02T14:47:40.999Z</time></trkpt><trkpt lat="44.39025276009669" lon="8.131130354541991"><ele>701.0</ele><time>2026-05-02T14:47:41.999Z</time></trkpt><trkpt lat="44.390432908232484" lon="8.130916180969669"><ele>701.0</ele><time>2026-05-02T14:47:42.999Z</time></trkpt><trkpt lat="44.39058517492192" lon="8.130702823065354"><ele>699.6666666666666</ele><time>2026-05-02T14:47:43.999Z</time></trkpt><trkpt lat="44.39069836765027" lon="8.130465977179359"><ele>698.3333333333334</ele><time>2026-05-02T14:47:44.999Z</time></trkpt><trkpt lat="44.390779513873696" lon="8.130259481321062"><ele>697.0</ele><time>2026-05-02T14:47:45.999Z</time></trkpt><trkpt lat="44.390858662978275" lon="8.130122252205728"><ele>697.0</ele><time>2026-05-02T14:47:46.999Z</time></trkpt><trkpt lat="44.39098964628499" lon="8.13006781924647"><ele>697.0</ele><time>2026-05-02T14:47:47.999Z</time></trkpt><trkpt lat="44.39114165731392" lon="8.13000542334946"><ele>697.0</ele><time>2026-05-02T14:47:48.999Z</time></trkpt><trkpt lat="44.39132508644229" lon="8.130080569457485"><ele>695.6666666666667</ele><time>2026-05-02T14:47:49.999Z</time></trkpt><trkpt lat="44.391499036098125" lon="8.13022892654597"><ele>694.3333333333334</ele><time>2026-05-02T14:47:50.999Z</time></trkpt><trkpt lat="44.3916979626238" lon="8.130405343026379"><ele>693.0</ele><time>2026-05-02T14:47:51.999Z</time></trkpt><trkpt lat="44.39188897970783" lon="8.130491490012943"><ele>693.0</ele><time>2026-05-02T14:47:52.999Z</time></trkpt><trkpt lat="44.392087816855" lon="8.130501259150694"><ele>693.0</ele><time>2026-05-02T14:47:53.999Z</time></trkpt><trkpt lat="44.39230846840573" lon="8.130444214184937"><ele>693.0</ele><time>2026-05-02T14:47:54.999Z</time></trkpt><trkpt lat="44.39253478983802" lon="8.130275908953418"><ele>689.5</ele><time>2026-05-02T14:47:55.999Z</time></trkpt><trkpt lat="44.39277618228685" lon="8.130035190930736"><ele>686.0</ele><time>2026-05-02T14:47:56.999Z</time></trkpt><trkpt lat="44.392994906168916" lon="8.129809654185916"><ele>681.0</ele><time>2026-05-02T14:47:57.999Z</time></trkpt><trkpt lat="44.39319134669102" lon="8.129567752586409"><ele>676.0</ele><time>2026-05-02T14:47:58.999Z</time></trkpt><trkpt lat="44.3933506028869" lon="8.129321946781518"><ele>676.0</ele><time>2026-05-02T14:47:59.999Z</time></trkpt><trkpt lat="44.39351791198684" lon="8.129133543440332"><ele>676.0</ele><time>2026-05-02T14:48:00.999Z</time></trkpt><trkpt lat="44.39368851981123" lon="8.128988487373412"><ele>676.0</ele><time>2026-05-02T14:48:01.999Z</time></trkpt><trkpt lat="44.39389589379254" lon="8.12883782681135"><ele>674.0</ele><time>2026-05-02T14:48:02.999Z</time></trkpt><trkpt lat="44.39409603318966" lon="8.128758799778202"><ele>672.0</ele><time>2026-05-02T14:48:03.999Z</time></trkpt><trkpt lat="44.39431611962299" lon="8.128723587651027"><ele>670.0</ele><time>2026-05-02T14:48:04.999Z</time></trkpt><trkpt lat="44.394561192684556" lon="8.128676033302108"><ele>668.5</ele><time>2026-05-02T14:48:05.999Z</time></trkpt><trkpt lat="44.39479717533349" lon="8.12863614666869"><ele>667.0</ele><time>2026-05-02T14:48:06.999Z</time></trkpt><trkpt lat="44.39502654658817" lon="8.128540969832105"><ele>667.0</ele><time>2026-05-02T14:48:07.999Z</time></trkpt><trkpt lat="44.39526857433208" lon="8.128384573264963"><ele>667.0</ele><time>2026-05-02T14:48:08.999Z</time></trkpt><trkpt lat="44.395502482145375" lon="8.128223767248413"><ele>672.5</ele><time>2026-05-02T14:48:09.999Z</time></trkpt><trkpt lat="44.39570769203185" lon="8.12805313764159"><ele>678.0</ele><time>2026-05-02T14:48:10.999Z</time></trkpt><trkpt lat="44.39589973236943" lon="8.12782581352804"><ele>678.0</ele><time>2026-05-02T14:48:11.999Z</time></trkpt><trkpt lat="44.396059508863296" lon="8.127567993697197"><ele>678.0</ele><time>2026-05-02T14:48:12.999Z</time></trkpt><trkpt lat="44.396179170890164" lon="8.12730042842586"><ele>679.5</ele><time>2026-05-02T14:48:13.999Z</time></trkpt><trkpt lat="44.39626084267622" lon="8.127001374535038"><ele>681.0</ele><time>2026-05-02T14:48:14.999Z</time></trkpt><trkpt lat="44.396315888855646" lon="8.126653536493967"><ele>680.0</ele><time>2026-05-02T14:48:15.999Z</time></trkpt><trkpt lat="44.39634559760536" lon="8.12631550018781"><ele>679.0</ele><time>2026-05-02T14:48:16.999Z</time></trkpt><trkpt lat="44.39640543142776" lon="8.126016192422282"><ele>679.0</ele><time>2026-05-02T14:48:17.999Z</time></trkpt><trkpt lat="44.39648066956812" lon="8.125789676247264"><ele>679.0</ele><time>2026-05-02T14:48:18.999Z</time></trkpt><trkpt lat="44.39660608494631" lon="8.125569081414572"><ele>679.0</ele><time>2026-05-02T14:48:19.999Z</time></trkpt><trkpt lat="44.396769000765445" lon="8.125382985820307"><ele>680.5</ele><time>2026-05-02T14:48:20.999Z</time></trkpt><trkpt lat="44.39696729505468" lon="8.125209579436202"><ele>682.0</ele><time>2026-05-02T14:48:21.999Z</time></trkpt><trkpt lat="44.397164225721845" lon="8.125031885252655"><ele>684.0</ele><time>2026-05-02T14:48:22.999Z</time></trkpt><trkpt lat="44.397351594940474" lon="8.12487393029412"><ele>686.0</ele><time>2026-05-02T14:48:23.999Z</time></trkpt><trkpt lat="44.39750627753525" lon="8.124725400393823"><ele>688.0</ele><time>2026-05-02T14:48:24.999Z</time></trkpt><trkpt lat="44.39762858946424" lon="8.124550266390463"><ele>688.0</ele><time>2026-05-02T14:48:25.999Z</time></trkpt><trkpt lat="44.39771828577237" lon="8.124339744459029"><ele>688.0</ele><time>2026-05-02T14:48:26.999Z</time></trkpt><trkpt lat="44.39775663921367" lon="8.124072293324517"><ele>688.0</ele><time>2026-05-02T14:48:27.999Z</time></trkpt><trkpt lat="44.39773212186276" lon="8.123785852745398"><ele>689.0</ele><time>2026-05-02T14:48:28.999Z</time></trkpt><trkpt lat="44.39772879173977" lon="8.12353144072215"><ele>690.0</ele><time>2026-05-02T14:48:29.999Z</time></trkpt><trkpt lat="44.39777023162595" lon="8.123341517341627"><ele>691.0</ele><time>2026-05-02T14:48:30.999Z</time></trkpt><trkpt lat="44.39784342815482" lon="8.123158886826774"><ele>688.3333333333334</ele><time>2026-05-02T14:48:31.999Z</time></trkpt><trkpt lat="44.397985134778516" lon="8.123011416640534"><ele>685.6666666666666</ele><time>2026-05-02T14:48:32.999Z</time></trkpt><trkpt lat="44.39815598184802" lon="8.122849124813275"><ele>683.0</ele><time>2026-05-02T14:48:33.999Z</time></trkpt><trkpt lat="44.39834155874769" lon="8.122658331883391"><ele>687.0</ele><time>2026-05-02T14:48:34.999Z</time></trkpt><trkpt lat="44.39854025162101" lon="8.122483047925087"><ele>691.0</ele><time>2026-05-02T14:48:35.999Z</time></trkpt><trkpt lat="44.39874831522257" lon="8.122292984718197"><ele>696.6666666666667</ele><time>2026-05-02T14:48:36.999Z</time></trkpt><trkpt lat="44.39893964090166" lon="8.122113705365157"><ele>702.3333333333334</ele><time>2026-05-02T14:48:37.999Z</time></trkpt><trkpt lat="44.39911269316742" lon="8.121953641820518"><ele>708.0</ele><time>2026-05-02T14:48:38.999Z</time></trkpt><trkpt lat="44.39926686519028" lon="8.121798552739516"><ele>708.0</ele><time>2026-05-02T14:48:39.999Z</time></trkpt><trkpt lat="44.39941345197929" lon="8.121611940644925"><ele>708.0</ele><time>2026-05-02T14:48:40.999Z</time></trkpt><trkpt lat="44.399554390368266" lon="8.12140249300881"><ele>708.0</ele><time>2026-05-02T14:48:41.999Z</time></trkpt><trkpt lat="44.399691427181736" lon="8.12119588794926"><ele>706.6666666666666</ele><time>2026-05-02T14:48:42.999Z</time></trkpt><trkpt lat="44.399822471768914" lon="8.121013958931597"><ele>705.3333333333333</ele><time>2026-05-02T14:48:43.999Z</time></trkpt><trkpt lat="44.399938912143554" lon="8.120845335120592"><ele>704.0</ele><time>2026-05-02T14:48:44.999Z</time></trkpt><trkpt lat="44.400033865968545" lon="8.120664487223186"><ele>706.6666666666666</ele><time>2026-05-02T14:48:45.999Z</time></trkpt><trkpt lat="44.40010125217563" lon="8.120442824273017"><ele>709.3333333333334</ele><time>2026-05-02T14:48:46.999Z</time></trkpt><trkpt lat="44.400144439041874" lon="8.120189577886102"><ele>712.0</ele><time>2026-05-02T14:48:47.999Z</time></trkpt><trkpt lat="44.400190134465156" lon="8.119950262485709"><ele>713.3333333333334</ele><time>2026-05-02T14:48:48.999Z</time></trkpt><trkpt lat="44.40023676326895" lon="8.11972882819189"><ele>714.6666666666666</ele><time>2026-05-02T14:48:49.999Z</time></trkpt><trkpt lat="44.40028423192197" lon="8.119520647518936"><ele>716.0</ele><time>2026-05-02T14:48:50.999Z</time></trkpt><trkpt lat="44.40033087855362" lon="8.119329174400962"><ele>716.0</ele><time>2026-05-02T14:48:51.999Z</time></trkpt><trkpt lat="44.4003768740894" lon="8.119146848082039"><ele>716.0</ele><time>2026-05-02T14:48:52.999Z</time></trkpt><trkpt lat="44.40042974756571" lon="8.118972821649145"><ele>716.0</ele><time>2026-05-02T14:48:53.999Z</time></trkpt><trkpt lat="44.40048873243883" lon="8.118806988866922"><ele>716.0</ele><time>2026-05-02T14:48:54.999Z</time></trkpt><trkpt lat="44.400554694342745" lon="8.118640353117645"><ele>713.75</ele><time>2026-05-02T14:48:55.999Z</time></trkpt><trkpt lat="44.40063191017701" lon="8.118478748581225"><ele>711.5</ele><time>2026-05-02T14:48:56.999Z</time></trkpt><trkpt lat="44.40071928478323" lon="8.118328468655948"><ele>709.25</ele><time>2026-05-02T14:48:57.999Z</time></trkpt><trkpt lat="44.400811507492016" lon="8.118192048540665"><ele>707.0</ele><time>2026-05-02T14:48:58.999Z</time></trkpt><trkpt lat="44.400907729035694" lon="8.118071570440982"><ele>707.0</ele><time>2026-05-02T14:48:59.999Z</time></trkpt><trkpt lat="44.40100315392876" lon="8.11796385394809"><ele>707.0</ele><time>2026-05-02T14:49:00.999Z</time></trkpt><trkpt lat="44.40109603341017" lon="8.117874969675306"><ele>707.0</ele><time>2026-05-02T14:49:01.999Z</time></trkpt><trkpt lat="44.40118393158285" lon="8.117805814217947"><ele>707.0</ele><time>2026-05-02T14:49:02.999Z</time></trkpt><trkpt lat="44.401270455503315" lon="8.117752949409626"><ele>707.0</ele><time>2026-05-02T14:49:03.999Z</time></trkpt><trkpt lat="44.40135216199366" lon="8.117706515764993"><ele>706.0</ele><time>2026-05-02T14:49:04.999Z</time></trkpt><trkpt lat="44.40143088203266" lon="8.117669715901858"><ele>705.0</ele><time>2026-05-02T14:49:05.999Z</time></trkpt><trkpt lat="44.401512151180434" lon="8.117650346434333"><ele>704.0</ele><time>2026-05-02T14:49:06.999Z</time></trkpt><trkpt lat="44.40159832494477" lon="8.117636371497435"><ele>703.0</ele><time>2026-05-02T14:49:07.999Z</time></trkpt><trkpt lat="44.40168007161432" lon="8.117586329504434"><ele>702.0</ele><time>2026-05-02T14:49:08.999Z</time></trkpt><trkpt lat="44.401750102772425" lon="8.117449925979223"><ele>699.6666666666666</ele><time>2026-05-02T14:49:09.999Z</time></trkpt><trkpt lat="44.401831755109065" lon="8.117272030917853"><ele>697.3333333333333</ele><time>2026-05-02T14:49:10.999Z</time></trkpt><trkpt lat="44.40197464176036" lon="8.117098650833706"><ele>695.0</ele><time>2026-05-02T14:49:11.999Z</time></trkpt><trkpt lat="44.402141490503894" lon="8.116899082706565"><ele>696.0</ele><time>2026-05-02T14:49:12.999Z</time></trkpt><trkpt lat="44.402300952805184" lon="8.116671135354325"><ele>697.0</ele><time>2026-05-02T14:49:13.999Z</time></trkpt><trkpt lat="44.40246633258924" lon="8.116422260224907"><ele>697.0</ele><time>2026-05-02T14:49:14.999Z</time></trkpt><trkpt lat="44.402599965442924" lon="8.116140228509307"><ele>697.0</ele><time>2026-05-02T14:49:15.999Z</time></trkpt><trkpt lat="44.40272232570929" lon="8.115891500087812"><ele>697.6666666666667</ele><time>2026-05-02T14:49:16.999Z</time></trkpt><trkpt lat="44.402875046199114" lon="8.115695269318778"><ele>698.3333333333334</ele><time>2026-05-02T14:49:17.999Z</time></trkpt><trkpt lat="44.403035228454804" lon="8.115526433906464"><ele>699.0</ele><time>2026-05-02T14:49:18.999Z</time></trkpt><trkpt lat="44.403175590787775" lon="8.115370613678165"><ele>699.0</ele><time>2026-05-02T14:49:19.999Z</time></trkpt><trkpt lat="44.40329051110787" lon="8.115184273742031"><ele>699.0</ele><time>2026-05-02T14:49:20.999Z</time></trkpt><trkpt lat="44.40336444155512" lon="8.11492814388545"><ele>699.0</ele><time>2026-05-02T14:49:21.999Z</time></trkpt><trkpt lat="44.40339419042793" lon="8.11460924459584"><ele>699.0</ele><time>2026-05-02T14:49:22.999Z</time></trkpt><trkpt lat="44.4034048684294" lon="8.114243976372668"><ele>699.0</ele><time>2026-05-02T14:49:23.999Z</time></trkpt><trkpt lat="44.40344167867639" lon="8.113869882853544"><ele>700.0</ele><time>2026-05-02T14:49:24.999Z</time></trkpt><trkpt lat="44.40350330151791" lon="8.113495522629643"><ele>701.0</ele><time>2026-05-02T14:49:25.999Z</time></trkpt><trkpt lat="44.40356734498055" lon="8.113149606410285"><ele>699.0</ele><time>2026-05-02T14:49:26.999Z</time></trkpt><trkpt lat="44.403611688133914" lon="8.112900151415197"><ele>697.0</ele><time>2026-05-02T14:49:27.999Z</time></trkpt><trkpt lat="44.40368843329164" lon="8.112663496288457"><ele>695.0</ele><time>2026-05-02T14:49:28.999Z</time></trkpt><trkpt lat="44.40382531814541" lon="8.112440621830556"><ele>699.0</ele><time>2026-05-02T14:49:29.999Z</time></trkpt><trkpt lat="44.40400062794615" lon="8.11222048981144"><ele>703.0</ele><time>2026-05-02T14:49:30.999Z</time></trkpt><trkpt lat="44.40418058663641" lon="8.111993354075768"><ele>703.0</ele><time>2026-05-02T14:49:31.999Z</time></trkpt><trkpt lat="44.40434159663363" lon="8.11172257781621"><ele>703.0</ele><time>2026-05-02T14:49:32.999Z</time></trkpt><trkpt lat="44.404489530747654" lon="8.111446449712588"><ele>698.5</ele><time>2026-05-02T14:49:33.999Z</time></trkpt><trkpt lat="44.40464254783278" lon="8.11117131219824"><ele>694.0</ele><time>2026-05-02T14:49:34.999Z</time></trkpt><trkpt lat="44.40479257301776" lon="8.110908195032268"><ele>701.0</ele><time>2026-05-02T14:49:35.999Z</time></trkpt><trkpt lat="44.404920751716865" lon="8.110621521183289"><ele>708.0</ele><time>2026-05-02T14:49:36.999Z</time></trkpt><trkpt lat="44.40502563713198" lon="8.1103188212339"><ele>708.0</ele><time>2026-05-02T14:49:37.999Z</time></trkpt><trkpt lat="44.40512425620082" lon="8.110062744443168"><ele>708.0</ele><time>2026-05-02T14:49:38.999Z</time></trkpt><trkpt lat="44.405240024165316" lon="8.109840999181676"><ele>708.0</ele><time>2026-05-02T14:49:39.999Z</time></trkpt><trkpt lat="44.405407164420765" lon="8.10962491499732"><ele>710.0</ele><time>2026-05-02T14:49:40.999Z</time></trkpt><trkpt lat="44.40561011878992" lon="8.10941691476148"><ele>712.0</ele><time>2026-05-02T14:49:41.999Z</time></trkpt><trkpt lat="44.40581082908266" lon="8.1091939596834"><ele>706.5</ele><time>2026-05-02T14:49:42.999Z</time></trkpt><trkpt lat="44.405999603403785" lon="8.1089441926997"><ele>701.0</ele><time>2026-05-02T14:49:43.999Z</time></trkpt><trkpt lat="44.40618090374917" lon="8.108672948698935"><ele>706.0</ele><time>2026-05-02T14:49:44.999Z</time></trkpt><trkpt lat="44.4063598356676" lon="8.108388214036665"><ele>711.0</ele><time>2026-05-02T14:49:45.999Z</time></trkpt><trkpt lat="44.40652699511132" lon="8.108106973941174"><ele>711.0</ele><time>2026-05-02T14:49:46.999Z</time></trkpt><trkpt lat="44.4066752095523" lon="8.107846234529521"><ele>711.0</ele><time>2026-05-02T14:49:47.999Z</time></trkpt><trkpt lat="44.40680849622058" lon="8.107618610331901"><ele>711.0</ele><time>2026-05-02T14:49:48.999Z</time></trkpt><trkpt lat="44.40695853510531" lon="8.10742527918966"><ele>710.6666666666666</ele><time>2026-05-02T14:49:49.999Z</time></trkpt><trkpt lat="44.40713073835661" lon="8.107253283295652"><ele>710.3333333333333</ele><time>2026-05-02T14:49:50.999Z</time></trkpt><trkpt lat="44.40733397622937" lon="8.107102694386045"><ele>710.0</ele><time>2026-05-02T14:49:51.999Z</time></trkpt><trkpt lat="44.40755166704925" lon="8.10696342125382"><ele>710.0</ele><time>2026-05-02T14:49:52.999Z</time></trkpt><trkpt lat="44.407738995557025" lon="8.106821565963704"><ele>710.0</ele><time>2026-05-02T14:49:53.999Z</time></trkpt><trkpt lat="44.40791612404982" lon="8.106693029947602"><ele>710.0</ele><time>2026-05-02T14:49:54.999Z</time></trkpt><trkpt lat="44.40807857329436" lon="8.106490876662969"><ele>711.0</ele><time>2026-05-02T14:49:55.999Z</time></trkpt><trkpt lat="44.40821316037752" lon="8.106250136707986"><ele>712.0</ele><time>2026-05-02T14:49:56.999Z</time></trkpt><trkpt lat="44.408354638148566" lon="8.106127706239464"><ele>713.0</ele><time>2026-05-02T14:49:57.999Z</time></trkpt><trkpt lat="44.40850506432769" lon="8.106049497034654"><ele>713.0</ele><time>2026-05-02T14:49:58.999Z</time></trkpt><trkpt lat="44.40867242970817" lon="8.105987382099899"><ele>713.0</ele><time>2026-05-02T14:49:59.999Z</time></trkpt><trkpt lat="44.408814674919974" lon="8.105909993961673"><ele>713.0</ele><time>2026-05-02T14:50:00.999Z</time></trkpt><trkpt lat="44.408930093582576" lon="8.10577809988342"><ele>715.3333333333333</ele><time>2026-05-02T14:50:01.999Z</time></trkpt><trkpt lat="44.40902204372757" lon="8.105604463272018"><ele>717.6666666666666</ele><time>2026-05-02T14:50:02.999Z</time></trkpt><trkpt lat="44.40909282028651" lon="8.105410434621193"><ele>720.0</ele><time>2026-05-02T14:50:03.999Z</time></trkpt><trkpt lat="44.40915158785443" lon="8.105227775890643"><ele>720.0</ele><time>2026-05-02T14:50:04.999Z</time></trkpt><trkpt lat="44.40925153451585" lon="8.10508905105634"><ele>720.0</ele><time>2026-05-02T14:50:05.999Z</time></trkpt><trkpt lat="44.40932793695218" lon="8.104910499658164"><ele>720.0</ele><time>2026-05-02T14:50:06.999Z</time></trkpt><trkpt lat="44.40938764670796" lon="8.104714794320577"><ele>720.0</ele><time>2026-05-02T14:50:07.999Z</time></trkpt><trkpt lat="44.40942119829762" lon="8.104510735846533"><ele>718.6666666666666</ele><time>2026-05-02T14:50:08.999Z</time></trkpt><trkpt lat="44.409448941371714" lon="8.104291113654092"><ele>717.3333333333333</ele><time>2026-05-02T14:50:09.999Z</time></trkpt><trkpt lat="44.40945699220221" lon="8.104073525312327"><ele>716.0</ele><time>2026-05-02T14:50:10.999Z</time></trkpt><trkpt lat="44.409459315146904" lon="8.103837956781453"><ele>714.3333333333333</ele><time>2026-05-02T14:50:11.999Z</time></trkpt><trkpt lat="44.4094861178494" lon="8.103598219965729"><ele>712.6666666666666</ele><time>2026-05-02T14:50:12.999Z</time></trkpt><trkpt lat="44.40954096020913" lon="8.103349330067838"><ele>711.0</ele><time>2026-05-02T14:50:13.999Z</time></trkpt><trkpt lat="44.40954829357827" lon="8.103092312902225"><ele>710.0</ele><time>2026-05-02T14:50:14.999Z</time></trkpt><trkpt lat="44.40961432163241" lon="8.102821624277954"><ele>709.0</ele><time>2026-05-02T14:50:15.999Z</time></trkpt><trkpt lat="44.40964520379356" lon="8.102538371563242"><ele>708.0</ele><time>2026-05-02T14:50:16.999Z</time></trkpt><trkpt lat="44.40969161986525" lon="8.102249181714635"><ele>712.6666666666666</ele><time>2026-05-02T14:50:17.999Z</time></trkpt><trkpt lat="44.409742603878186" lon="8.101955419774011"><ele>717.3333333333333</ele><time>2026-05-02T14:50:18.999Z</time></trkpt><trkpt lat="44.40980513122443" lon="8.10166495640754"><ele>722.0</ele><time>2026-05-02T14:50:19.999Z</time></trkpt><trkpt lat="44.40988627941963" lon="8.101386427705584"><ele>722.0</ele><time>2026-05-02T14:50:20.999Z</time></trkpt><trkpt lat="44.40999923717078" lon="8.101125942842359"><ele>722.0</ele><time>2026-05-02T14:50:21.999Z</time></trkpt><trkpt lat="44.41014637471174" lon="8.10088243848892"><ele>722.0</ele><time>2026-05-02T14:50:22.999Z</time></trkpt><trkpt lat="44.41027283953842" lon="8.100590778764898"><ele>716.5</ele><time>2026-05-02T14:50:23.999Z</time></trkpt><trkpt lat="44.41038136083984" lon="8.100262172348653"><ele>711.0</ele><time>2026-05-02T14:50:24.999Z</time></trkpt><trkpt lat="44.41048664298418" lon="8.099924127257971"><ele>716.3333333333334</ele><time>2026-05-02T14:50:25.999Z</time></trkpt><trkpt lat="44.410592672119456" lon="8.099631339659192"><ele>721.6666666666667</ele><time>2026-05-02T14:50:26.999Z</time></trkpt><trkpt lat="44.41066691563174" lon="8.099395162728984"><ele>727.0</ele><time>2026-05-02T14:50:27.999Z</time></trkpt><trkpt lat="44.41069237383683" lon="8.099174608934728"><ele>727.0</ele><time>2026-05-02T14:50:28.999Z</time></trkpt><trkpt lat="44.41065512078602" lon="8.098910125067079"><ele>727.0</ele><time>2026-05-02T14:50:29.999Z</time></trkpt><trkpt lat="44.41054854648173" lon="8.098627933681279"><ele>727.0</ele><time>2026-05-02T14:50:30.999Z</time></trkpt><trkpt lat="44.410390104068114" lon="8.098337772615018"><ele>726.0</ele><time>2026-05-02T14:50:31.999Z</time></trkpt><trkpt lat="44.41023599062728" lon="8.09800969558683"><ele>725.0</ele><time>2026-05-02T14:50:32.999Z</time></trkpt><trkpt lat="44.41010731939961" lon="8.097660597106247"><ele>723.0</ele><time>2026-05-02T14:50:33.999Z</time></trkpt><trkpt lat="44.41001322016972" lon="8.09734550807306"><ele>721.0</ele><time>2026-05-02T14:50:34.999Z</time></trkpt><trkpt lat="44.40996394128188" lon="8.097048574774115"><ele>721.0</ele><time>2026-05-02T14:50:35.999Z</time></trkpt><trkpt lat="44.40994780663012" lon="8.096756022785687"><ele>721.0</ele><time>2026-05-02T14:50:36.999Z</time></trkpt><trkpt lat="44.409993224696635" lon="8.096470296204114"><ele>721.0</ele><time>2026-05-02T14:50:37.999Z</time></trkpt><trkpt lat="44.41006616417426" lon="8.096184820595374"><ele>717.0</ele><time>2026-05-02T14:50:38.999Z</time></trkpt><trkpt lat="44.41015705032556" lon="8.095871766003045"><ele>713.0</ele><time>2026-05-02T14:50:39.999Z</time></trkpt><trkpt lat="44.41027535024865" lon="8.095549342834628"><ele>707.5</ele><time>2026-05-02T14:50:40.999Z</time></trkpt><trkpt lat="44.410431188855206" lon="8.09522883756385"><ele>702.0</ele><time>2026-05-02T14:50:41.999Z</time></trkpt><trkpt lat="44.410598649166694" lon="8.094899425836113"><ele>701.0</ele><time>2026-05-02T14:50:42.999Z</time></trkpt><trkpt lat="44.41077052141249" lon="8.09456584494859"><ele>700.0</ele><time>2026-05-02T14:50:43.999Z</time></trkpt><trkpt lat="44.4109345726988" lon="8.09422678244538"><ele>696.0</ele><time>2026-05-02T14:50:44.999Z</time></trkpt><trkpt lat="44.411105822892395" lon="8.093888171547338"><ele>692.0</ele><time>2026-05-02T14:50:45.999Z</time></trkpt><trkpt lat="44.411277228475434" lon="8.093547964516882"><ele>699.0</ele><time>2026-05-02T14:50:46.999Z</time></trkpt><trkpt lat="44.411447286353" lon="8.093213857928454"><ele>706.0</ele><time>2026-05-02T14:50:47.999Z</time></trkpt><trkpt lat="44.41158824666445" lon="8.09286625702807"><ele>706.0</ele><time>2026-05-02T14:50:48.999Z</time></trkpt><trkpt lat="44.41166564851117" lon="8.092536552212746"><ele>706.0</ele><time>2026-05-02T14:50:49.999Z</time></trkpt><trkpt lat="44.411707129394365" lon="8.0922825415454"><ele>706.0</ele><time>2026-05-02T14:50:50.999Z</time></trkpt><trkpt lat="44.41181660451357" lon="8.092135071283755"><ele>707.3333333333334</ele><time>2026-05-02T14:50:51.999Z</time></trkpt><trkpt lat="44.41195406896124" lon="8.092013108877836"><ele>708.6666666666666</ele><time>2026-05-02T14:50:52.999Z</time></trkpt><trkpt lat="44.412143529787876" lon="8.091884473847777"><ele>710.0</ele><time>2026-05-02T14:50:53.999Z</time></trkpt><trkpt lat="44.4123793585428" lon="8.091778912079645"><ele>710.0</ele><time>2026-05-02T14:50:54.999Z</time></trkpt><trkpt lat="44.41263948997163" lon="8.091687543368353"><ele>710.0</ele><time>2026-05-02T14:50:55.999Z</time></trkpt><trkpt lat="44.41288437720087" lon="8.091578296985471"><ele>710.5</ele><time>2026-05-02T14:50:56.999Z</time></trkpt><trkpt lat="44.41309320482026" lon="8.091457181786163"><ele>711.0</ele><time>2026-05-02T14:50:57.999Z</time></trkpt><trkpt lat="44.4132847800952" lon="8.091237148890155"><ele>711.0</ele><time>2026-05-02T14:50:58.999Z</time></trkpt><trkpt lat="44.413451537184976" lon="8.090960737616637"><ele>711.0</ele><time>2026-05-02T14:50:59.999Z</time></trkpt><trkpt lat="44.4136282103035" lon="8.09080451710871"><ele>708.5</ele><time>2026-05-02T14:51:00.999Z</time></trkpt><trkpt lat="44.413840117521595" lon="8.090683158219175"><ele>706.0</ele><time>2026-05-02T14:51:01.999Z</time></trkpt><trkpt lat="44.414079620220114" lon="8.090554560629673"><ele>706.0</ele><time>2026-05-02T14:51:02.999Z</time></trkpt><trkpt lat="44.41429584664442" lon="8.090405095462263"><ele>706.0</ele><time>2026-05-02T14:51:03.999Z</time></trkpt><trkpt lat="44.41447870210938" lon="8.090219450196875"><ele>706.0</ele><time>2026-05-02T14:51:04.999Z</time></trkpt><trkpt lat="44.414625471878836" lon="8.089976634578962"><ele>706.0</ele><time>2026-05-02T14:51:05.999Z</time></trkpt><trkpt lat="44.41476903727484" lon="8.089809123506662"><ele>706.0</ele><time>2026-05-02T14:51:06.999Z</time></trkpt><trkpt lat="44.41493307873107" lon="8.089774387142933"><ele>703.0</ele><time>2026-05-02T14:51:07.999Z</time></trkpt><trkpt lat="44.41515281513484" lon="8.089728766502601"><ele>700.0</ele><time>2026-05-02T14:51:08.999Z</time></trkpt><trkpt lat="44.41539185181538" lon="8.089646654683154"><ele>708.0</ele><time>2026-05-02T14:51:09.999Z</time></trkpt><trkpt lat="44.41563064961712" lon="8.089547278241655"><ele>716.0</ele><time>2026-05-02T14:51:10.999Z</time></trkpt><trkpt lat="44.415826530851255" lon="8.08945103344737"><ele>716.0</ele><time>2026-05-02T14:51:11.999Z</time></trkpt><trkpt lat="44.41598397071148" lon="8.089279281888416"><ele>716.0</ele><time>2026-05-02T14:51:12.999Z</time></trkpt><trkpt lat="44.41613735167775" lon="8.08903338226831"><ele>716.0</ele><time>2026-05-02T14:51:13.999Z</time></trkpt><trkpt lat="44.4163055389868" lon="8.088863219695376"><ele>716.0</ele><time>2026-05-02T14:51:14.999Z</time></trkpt><trkpt lat="44.416460711647666" lon="8.088730068218313"><ele>716.0</ele><time>2026-05-02T14:51:15.999Z</time></trkpt><trkpt lat="44.41660067736832" lon="8.088571530018928"><ele>716.0</ele><time>2026-05-02T14:51:16.999Z</time></trkpt><trkpt lat="44.416735059424724" lon="8.08845565974407"><ele>716.0</ele><time>2026-05-02T14:51:17.999Z</time></trkpt><trkpt lat="44.416844428163294" lon="8.08837935944546"><ele>716.0</ele><time>2026-05-02T14:51:18.999Z</time></trkpt><trkpt lat="44.41695442906217" lon="8.088363314119498"><ele>716.0</ele><time>2026-05-02T14:51:19.999Z</time></trkpt><trkpt lat="44.417091151292524" lon="8.088399286250336"><ele>716.0</ele><time>2026-05-02T14:51:20.999Z</time></trkpt><trkpt lat="44.41721698005852" lon="8.088545726621732"><ele>715.0</ele><time>2026-05-02T14:51:21.999Z</time></trkpt><trkpt lat="44.417372198071774" lon="8.088760683637798"><ele>714.0</ele><time>2026-05-02T14:51:22.999Z</time></trkpt><trkpt lat="44.417540598754925" lon="8.089010256699133"><ele>721.5</ele><time>2026-05-02T14:51:23.999Z</time></trkpt><trkpt lat="44.41772806009492" lon="8.089224197095545"><ele>729.0</ele><time>2026-05-02T14:51:24.999Z</time></trkpt><trkpt lat="44.41790929365172" lon="8.089381829956928"><ele>725.6666666666666</ele><time>2026-05-02T14:51:25.999Z</time></trkpt><trkpt lat="44.418023456235005" lon="8.089548726494424"><ele>722.3333333333333</ele><time>2026-05-02T14:51:26.999Z</time></trkpt><trkpt lat="44.41809533730313" lon="8.089726405528822"><ele>719.0</ele><time>2026-05-02T14:51:27.999Z</time></trkpt><trkpt lat="44.41810924158039" lon="8.089956440043274"><ele>719.0</ele><time>2026-05-02T14:51:28.999Z</time></trkpt><trkpt lat="44.418104726381536" lon="8.09026944201981"><ele>719.0</ele><time>2026-05-02T14:51:29.999Z</time></trkpt><trkpt lat="44.418090965592256" lon="8.090581823023383"><ele>719.0</ele><time>2026-05-02T14:51:30.999Z</time></trkpt><trkpt lat="44.41810998084568" lon="8.09083045108947"><ele>720.3333333333333</ele><time>2026-05-02T14:51:31.999Z</time></trkpt><trkpt lat="44.418188358800805" lon="8.09107754511496"><ele>721.6666666666666</ele><time>2026-05-02T14:51:32.999Z</time></trkpt><trkpt lat="44.41831995973668" lon="8.09131831665899"><ele>723.0</ele><time>2026-05-02T14:51:33.999Z</time></trkpt><trkpt lat="44.41847556694968" lon="8.091567914879965"><ele>721.6666666666666</ele><time>2026-05-02T14:51:34.999Z</time></trkpt><trkpt lat="44.41861575989359" lon="8.091791712751808"><ele>720.3333333333333</ele><time>2026-05-02T14:51:35.999Z</time></trkpt><trkpt lat="44.418794553648084" lon="8.091978228938142"><ele>719.0</ele><time>2026-05-02T14:51:36.999Z</time></trkpt><trkpt lat="44.41901548554538" lon="8.092123147714405"><ele>719.0</ele><time>2026-05-02T14:51:37.999Z</time></trkpt><trkpt lat="44.4192607256811" lon="8.09223138394594"><ele>719.0</ele><time>2026-05-02T14:51:38.999Z</time></trkpt><trkpt lat="44.419479031859574" lon="8.092301327552686"><ele>719.0</ele><time>2026-05-02T14:51:39.999Z</time></trkpt><trkpt lat="44.41970149377115" lon="8.092281323892186"><ele>719.0</ele><time>2026-05-02T14:51:40.999Z</time></trkpt><trkpt lat="44.41995039933518" lon="8.092191486926561"><ele>719.0</ele><time>2026-05-02T14:51:42Z</time></trkpt><trkpt lat="44.42021435472243" lon="8.09203781857697"><ele>719.0</ele><time>2026-05-02T14:51:43Z</time></trkpt><trkpt lat="44.42047455282419" lon="8.091922285862086"><ele>721.6666666666666</ele><time>2026-05-02T14:51:44Z</time></trkpt><trkpt lat="44.42067199247661" lon="8.091818441717784"><ele>724.3333333333334</ele><time>2026-05-02T14:51:45Z</time></trkpt><trkpt lat="44.42081570524817" lon="8.091799117051528"><ele>727.0</ele><time>2026-05-02T14:51:46Z</time></trkpt><trkpt lat="44.42094912017171" lon="8.091826940987959"><ele>727.0</ele><time>2026-05-02T14:51:47Z</time></trkpt><trkpt lat="44.4210751966215" lon="8.091935624989295"><ele>727.0</ele><time>2026-05-02T14:51:48Z</time></trkpt><trkpt lat="44.4211596946984" lon="8.09212561673098"><ele>727.0</ele><time>2026-05-02T14:51:49Z</time></trkpt><trkpt lat="44.42121106082597" lon="8.092388283319634"><ele>726.0</ele><time>2026-05-02T14:51:50Z</time></trkpt><trkpt lat="44.42127635719833" lon="8.092684932001216"><ele>725.0</ele><time>2026-05-02T14:51:51Z</time></trkpt><trkpt lat="44.42134235932724" lon="8.092953509007222"><ele>724.0</ele><time>2026-05-02T14:51:52Z</time></trkpt><trkpt lat="44.42145859564165" lon="8.093159433947278"><ele>726.3333333333334</ele><time>2026-05-02T14:51:53Z</time></trkpt><trkpt lat="44.421622323423506" lon="8.093306989200752"><ele>728.6666666666666</ele><time>2026-05-02T14:51:54Z</time></trkpt><trkpt lat="44.42185754873012" lon="8.093434256447235"><ele>731.0</ele><time>2026-05-02T14:51:55Z</time></trkpt><trkpt lat="44.42208903875788" lon="8.09348659477776"><ele>729.3333333333333</ele><time>2026-05-02T14:51:56Z</time></trkpt><trkpt lat="44.4222974742302" lon="8.093544762392554"><ele>727.6666666666666</ele><time>2026-05-02T14:51:57Z</time></trkpt><trkpt lat="44.42248056077136" lon="8.093617043144722"><ele>726.0</ele><time>2026-05-02T14:51:58Z</time></trkpt><trkpt lat="44.42267120938474" lon="8.093679514388587"><ele>726.0</ele><time>2026-05-02T14:51:59Z</time></trkpt><trkpt lat="44.4228237972705" lon="8.093833273271784"><ele>726.0</ele><time>2026-05-02T14:52:00Z</time></trkpt><trkpt lat="44.42295689358777" lon="8.094069068804007"><ele>726.0</ele><time>2026-05-02T14:52:01Z</time></trkpt><trkpt lat="44.42310706943225" lon="8.09431074691369"><ele>726.3333333333334</ele><time>2026-05-02T14:52:02Z</time></trkpt><trkpt lat="44.423251803044" lon="8.094555215463327"><ele>726.6666666666667</ele><time>2026-05-02T14:52:03Z</time></trkpt><trkpt lat="44.42340088728748" lon="8.094770497845442"><ele>727.0</ele><time>2026-05-02T14:52:04Z</time></trkpt><trkpt lat="44.42355506922745" lon="8.094961692811514"><ele>727.3333333333334</ele><time>2026-05-02T14:52:05Z</time></trkpt><trkpt lat="44.4237160083079" lon="8.095115006787843"><ele>727.6666666666666</ele><time>2026-05-02T14:52:06Z</time></trkpt><trkpt lat="44.42389224197328" lon="8.095237574762274"><ele>728.0</ele><time>2026-05-02T14:52:07Z</time></trkpt><trkpt lat="44.42406887945273" lon="8.095372349412187"><ele>728.0</ele><time>2026-05-02T14:52:08Z</time></trkpt><trkpt lat="44.424247296128115" lon="8.09551395900225"><ele>728.0</ele><time>2026-05-02T14:52:09Z</time></trkpt><trkpt lat="44.42441412395462" lon="8.095630503652888"><ele>728.0</ele><time>2026-05-02T14:52:10Z</time></trkpt><trkpt lat="44.42457628579467" lon="8.095714500197094"><ele>729.25</ele><time>2026-05-02T14:52:11Z</time></trkpt><trkpt lat="44.424727573156936" lon="8.095776599599919"><ele>730.5</ele><time>2026-05-02T14:52:12Z</time></trkpt><trkpt lat="44.42486533113252" lon="8.095859603534848"><ele>731.75</ele><time>2026-05-02T14:52:13Z</time></trkpt><trkpt lat="44.42500226717201" lon="8.095903943652008"><ele>733.0</ele><time>2026-05-02T14:52:14Z</time></trkpt><trkpt lat="44.42511818015283" lon="8.09597376913178"><ele>733.0</ele><time>2026-05-02T14:52:15Z</time></trkpt><trkpt lat="44.425220011002544" lon="8.096052912684659"><ele>733.0</ele><time>2026-05-02T14:52:16Z</time></trkpt><trkpt lat="44.42532283620967" lon="8.096161245805362"><ele>733.0</ele><time>2026-05-02T14:52:17Z</time></trkpt><trkpt lat="44.42543425391105" lon="8.09628502730494"><ele>733.0</ele><time>2026-05-02T14:52:18Z</time></trkpt><trkpt lat="44.42557321133944" lon="8.096394233484018"><ele>733.3333333333334</ele><time>2026-05-02T14:52:19Z</time></trkpt><trkpt lat="44.4257296552774" lon="8.096514085754567"><ele>733.6666666666666</ele><time>2026-05-02T14:52:20Z</time></trkpt><trkpt lat="44.42589655766793" lon="8.09665436532584"><ele>734.0</ele><time>2026-05-02T14:52:21Z</time></trkpt><trkpt lat="44.42607722035625" lon="8.096800907539945"><ele>734.0</ele><time>2026-05-02T14:52:22Z</time></trkpt><trkpt lat="44.426276089941915" lon="8.096935692943651"><ele>734.0</ele><time>2026-05-02T14:52:23Z</time></trkpt><trkpt lat="44.4264959999318" lon="8.097040472451011"><ele>733.0</ele><time>2026-05-02T14:52:24Z</time></trkpt><trkpt lat="44.426731624831156" lon="8.097096551448908"><ele>732.0</ele><time>2026-05-02T14:52:25Z</time></trkpt><trkpt lat="44.426977224296635" lon="8.097121426198607"><ele>730.0</ele><time>2026-05-02T14:52:26Z</time></trkpt><trkpt lat="44.42721435795434" lon="8.09715292742603"><ele>728.0</ele><time>2026-05-02T14:52:27Z</time></trkpt><trkpt lat="44.42742938212675" lon="8.097195998736085"><ele>728.0</ele><time>2026-05-02T14:52:28Z</time></trkpt><trkpt lat="44.427619684591264" lon="8.097276023280827"><ele>728.0</ele><time>2026-05-02T14:52:29Z</time></trkpt><trkpt lat="44.427802139117766" lon="8.097376218953839"><ele>728.0</ele><time>2026-05-02T14:52:30Z</time></trkpt><trkpt lat="44.42798066848365" lon="8.097531109702164"><ele>728.0</ele><time>2026-05-02T14:52:31Z</time></trkpt><trkpt lat="44.42816133474459" lon="8.097744958199653"><ele>728.0</ele><time>2026-05-02T14:52:32Z</time></trkpt><trkpt lat="44.428363695247675" lon="8.097972313752035"><ele>728.0</ele><time>2026-05-02T14:52:33Z</time></trkpt><trkpt lat="44.42855770105726" lon="8.09822888357922"><ele>728.0</ele><time>2026-05-02T14:52:34Z</time></trkpt><trkpt lat="44.428773309307424" lon="8.09845344355267"><ele>727.6666666666666</ele><time>2026-05-02T14:52:35Z</time></trkpt><trkpt lat="44.42898606002969" lon="8.098637266628426"><ele>727.3333333333334</ele><time>2026-05-02T14:52:36Z</time></trkpt><trkpt lat="44.42916014317018" lon="8.098761229745582"><ele>727.0</ele><time>2026-05-02T14:52:37Z</time></trkpt><trkpt lat="44.42931955658679" lon="8.098852387573316"><ele>727.0</ele><time>2026-05-02T14:52:38Z</time></trkpt><trkpt lat="44.42950604218945" lon="8.09888064028187"><ele>727.0</ele><time>2026-05-02T14:52:39Z</time></trkpt><trkpt lat="44.429734594407776" lon="8.098818801423743"><ele>727.0</ele><time>2026-05-02T14:52:40Z</time></trkpt><trkpt lat="44.4299666049198" lon="8.098722778355649"><ele>727.5</ele><time>2026-05-02T14:52:41Z</time></trkpt><trkpt lat="44.43021035986999" lon="8.098742367455293"><ele>728.0</ele><time>2026-05-02T14:52:42Z</time></trkpt><trkpt lat="44.430461073111736" lon="8.098795500633361"><ele>726.6666666666666</ele><time>2026-05-02T14:52:43Z</time></trkpt><trkpt lat="44.43071211181047" lon="8.098834551664547"><ele>725.3333333333334</ele><time>2026-05-02T14:52:44Z</time></trkpt><trkpt lat="44.430905200291974" lon="8.098870235442659"><ele>724.0</ele><time>2026-05-02T14:52:45Z</time></trkpt><trkpt lat="44.431091468500924" lon="8.098803485266927"><ele>724.0</ele><time>2026-05-02T14:52:46Z</time></trkpt><trkpt lat="44.43130576966601" lon="8.098622457854573"><ele>724.0</ele><time>2026-05-02T14:52:47Z</time></trkpt><trkpt lat="44.43154859836601" lon="8.098384483649221"><ele>717.5</ele><time>2026-05-02T14:52:48Z</time></trkpt><trkpt lat="44.431795339704145" lon="8.09814167848252"><ele>711.0</ele><time>2026-05-02T14:52:49Z</time></trkpt><trkpt lat="44.432021934187354" lon="8.09797837816695"><ele>714.6666666666666</ele><time>2026-05-02T14:52:50Z</time></trkpt><trkpt lat="44.432199939744535" lon="8.097849568867941"><ele>718.3333333333333</ele><time>2026-05-02T14:52:51Z</time></trkpt><trkpt lat="44.432389507485475" lon="8.097789077831525"><ele>722.0</ele><time>2026-05-02T14:52:52Z</time></trkpt><trkpt lat="44.432610749403764" lon="8.097823474330916"><ele>722.0</ele><time>2026-05-02T14:52:53Z</time></trkpt><trkpt lat="44.43284839802678" lon="8.097899741020045"><ele>722.0</ele><time>2026-05-02T14:52:54Z</time></trkpt><trkpt lat="44.43306390782751" lon="8.097914217479001"><ele>723.5</ele><time>2026-05-02T14:52:55Z</time></trkpt><trkpt lat="44.43330462397636" lon="8.097851176053053"><ele>725.0</ele><time>2026-05-02T14:52:56Z</time></trkpt><trkpt lat="44.43352552676312" lon="8.0977479976386"><ele>725.0</ele><time>2026-05-02T14:52:57Z</time></trkpt><trkpt lat="44.43370819534575" lon="8.097631544201924"><ele>725.0</ele><time>2026-05-02T14:52:58Z</time></trkpt><trkpt lat="44.433880473906136" lon="8.09743889288631"><ele>725.0</ele><time>2026-05-02T14:52:59Z</time></trkpt><trkpt lat="44.43405093240254" lon="8.097154453056874"><ele>722.5</ele><time>2026-05-02T14:53:00Z</time></trkpt><trkpt lat="44.43424928056372" lon="8.096867278871368"><ele>720.0</ele><time>2026-05-02T14:53:01Z</time></trkpt><trkpt lat="44.43436379577344" lon="8.096425727845642"><ele>720.0</ele><time>2026-05-02T14:53:02Z</time></trkpt><trkpt lat="44.43452639763053" lon="8.096158837265314"><ele>720.0</ele><time>2026-05-02T14:53:03Z</time></trkpt><trkpt lat="44.43465058683786" lon="8.095953637798075"><ele>720.0</ele><time>2026-05-02T14:53:04Z</time></trkpt><trkpt lat="44.434785324431886" lon="8.095794429112942"><ele>720.0</ele><time>2026-05-02T14:53:05Z</time></trkpt><trkpt lat="44.43497420838387" lon="8.095686605810483"><ele>720.0</ele><time>2026-05-02T14:53:06Z</time></trkpt><trkpt lat="44.435220441903176" lon="8.095633872022425"><ele>720.0</ele><time>2026-05-02T14:53:07Z</time></trkpt><trkpt lat="44.435441424059185" lon="8.095551190811802"><ele>720.0</ele><time>2026-05-02T14:53:08Z</time></trkpt><trkpt lat="44.435635225144665" lon="8.095384472638244"><ele>723.0</ele><time>2026-05-02T14:53:09Z</time></trkpt><trkpt lat="44.4357790001559" lon="8.095107890628114"><ele>726.0</ele><time>2026-05-02T14:53:10Z</time></trkpt><trkpt lat="44.435876115467565" lon="8.094833271320967"><ele>726.0</ele><time>2026-05-02T14:53:11Z</time></trkpt><trkpt lat="44.43596038487875" lon="8.094631492521968"><ele>726.0</ele><time>2026-05-02T14:53:12Z</time></trkpt><trkpt lat="44.436072870695654" lon="8.094480874458252"><ele>726.0</ele><time>2026-05-02T14:53:13Z</time></trkpt><trkpt lat="44.43622522470204" lon="8.094381978145481"><ele>727.3333333333334</ele><time>2026-05-02T14:53:14Z</time></trkpt><trkpt lat="44.4364106816603" lon="8.094364728627857"><ele>728.6666666666667</ele><time>2026-05-02T14:53:15Z</time></trkpt><trkpt lat="44.436611216168934" lon="8.094446943495267"><ele>730.0</ele><time>2026-05-02T14:53:16Z</time></trkpt><trkpt lat="44.436828811348" lon="8.094547502068496"><ele>730.0</ele><time>2026-05-02T14:53:17Z</time></trkpt><trkpt lat="44.43705103166438" lon="8.094618267560362"><ele>730.0</ele><time>2026-05-02T14:53:18Z</time></trkpt><trkpt lat="44.43724801122856" lon="8.094618869305272"><ele>730.0</ele><time>2026-05-02T14:53:19Z</time></trkpt><trkpt lat="44.437457045291566" lon="8.094622614677508"><ele>730.3333333333334</ele><time>2026-05-02T14:53:20Z</time></trkpt><trkpt lat="44.43766502807267" lon="8.094638046138773"><ele>730.6666666666666</ele><time>2026-05-02T14:53:20.999Z</time></trkpt><trkpt lat="44.437871835426165" lon="8.094653448790176"><ele>731.0</ele><time>2026-05-02T14:53:21.999Z</time></trkpt><trkpt lat="44.43807087914522" lon="8.094664376349128"><ele>733.3333333333333</ele><time>2026-05-02T14:53:22.999Z</time></trkpt><trkpt lat="44.43828128725091" lon="8.094613534095906"><ele>735.6666666666666</ele><time>2026-05-02T14:53:23.999Z</time></trkpt><trkpt lat="44.43849253003792" lon="8.09447728634251"><ele>738.0</ele><time>2026-05-02T14:53:24.999Z</time></trkpt><trkpt lat="44.43868434911855" lon="8.094268596894269"><ele>737.5</ele><time>2026-05-02T14:53:25.999Z</time></trkpt><trkpt lat="44.43885803384442" lon="8.094041304221426"><ele>737.0</ele><time>2026-05-02T14:53:26.999Z</time></trkpt><trkpt lat="44.43902130641358" lon="8.093847056446464"><ele>737.0</ele><time>2026-05-02T14:53:27.999Z</time></trkpt><trkpt lat="44.439170013951404" lon="8.093686511179179"><ele>737.0</ele><time>2026-05-02T14:53:28.999Z</time></trkpt><trkpt lat="44.43930507242433" lon="8.093545543017381"><ele>737.0</ele><time>2026-05-02T14:53:29.999Z</time></trkpt><trkpt lat="44.43942684888654" lon="8.093402765198467"><ele>740.0</ele><time>2026-05-02T14:53:30.999Z</time></trkpt><trkpt lat="44.43953667963868" lon="8.093233995614634"><ele>743.0</ele><time>2026-05-02T14:53:31.999Z</time></trkpt><trkpt lat="44.439642791838786" lon="8.093029197467445"><ele>746.0</ele><time>2026-05-02T14:53:32.999Z</time></trkpt><trkpt lat="44.439746808714865" lon="8.092800467464563"><ele>746.0</ele><time>2026-05-02T14:53:33.999Z</time></trkpt><trkpt lat="44.43985812061162" lon="8.092571466595045"><ele>746.0</ele><time>2026-05-02T14:53:34.999Z</time></trkpt><trkpt lat="44.439945260832424" lon="8.092337799068375"><ele>746.0</ele><time>2026-05-02T14:53:35.999Z</time></trkpt><trkpt lat="44.43998195000665" lon="8.092067648560358"><ele>746.6666666666666</ele><time>2026-05-02T14:53:36.999Z</time></trkpt><trkpt lat="44.439987034388885" lon="8.091761296028361"><ele>747.3333333333334</ele><time>2026-05-02T14:53:37.999Z</time></trkpt><trkpt lat="44.43998351435779" lon="8.091459302150728"><ele>748.0</ele><time>2026-05-02T14:53:38.999Z</time></trkpt><trkpt lat="44.43998835798463" lon="8.091191416141664"><ele>749.6666666666667</ele><time>2026-05-02T14:53:39.999Z</time></trkpt><trkpt lat="44.44000390314223" lon="8.090958193313234"><ele>751.3333333333334</ele><time>2026-05-02T14:53:41Z</time></trkpt><trkpt lat="44.440038406114624" lon="8.0907491124558"><ele>753.0</ele><time>2026-05-02T14:53:42Z</time></trkpt><trkpt lat="44.440111148384155" lon="8.090562213007447"><ele>749.6666666666666</ele><time>2026-05-02T14:53:43Z</time></trkpt><trkpt lat="44.44021089296086" lon="8.090386994194004"><ele>746.3333333333333</ele><time>2026-05-02T14:53:44Z</time></trkpt><trkpt lat="44.440325941555116" lon="8.09021359801584"><ele>743.0</ele><time>2026-05-02T14:53:45Z</time></trkpt><trkpt lat="44.440435016431906" lon="8.09003477884067"><ele>747.3333333333333</ele><time>2026-05-02T14:53:46Z</time></trkpt><trkpt lat="44.440524431112586" lon="8.089837050023535"><ele>751.6666666666666</ele><time>2026-05-02T14:53:47Z</time></trkpt><trkpt lat="44.44058972969879" lon="8.089623375964726"><ele>756.0</ele><time>2026-05-02T14:53:48.001Z</time></trkpt><trkpt lat="44.44067041956111" lon="8.089411588382253"><ele>756.0</ele><time>2026-05-02T14:53:49.001Z</time></trkpt><trkpt lat="44.44072649030723" lon="8.089188419709831"><ele>756.0</ele><time>2026-05-02T14:53:50.001Z</time></trkpt><trkpt lat="44.440801679065224" lon="8.088968941166828"><ele>756.0</ele><time>2026-05-02T14:53:51.001Z</time></trkpt><trkpt lat="44.44087097921172" lon="8.088748297182486"><ele>754.6666666666666</ele><time>2026-05-02T14:53:52.001Z</time></trkpt><trkpt lat="44.44093303708188" lon="8.0885408497509"><ele>753.3333333333333</ele><time>2026-05-02T14:53:53.001Z</time></trkpt><trkpt lat="44.4409860146196" lon="8.08833681949009"><ele>752.0</ele><time>2026-05-02T14:53:54.001Z</time></trkpt><trkpt lat="44.441034194156444" lon="8.088132490036955"><ele>750.0</ele><time>2026-05-02T14:53:55.001Z</time></trkpt><trkpt lat="44.44108953152037" lon="8.087930269851242"><ele>748.0</ele><time>2026-05-02T14:53:56.001Z</time></trkpt><trkpt lat="44.44116329772841" lon="8.087722883244627"><ele>746.0</ele><time>2026-05-02T14:53:57.001Z</time></trkpt><trkpt lat="44.4412447228701" lon="8.087512628165054"><ele>753.0</ele><time>2026-05-02T14:53:58.001Z</time></trkpt><trkpt lat="44.44132289599262" lon="8.08729500173184"><ele>760.0</ele><time>2026-05-02T14:53:59.001Z</time></trkpt><trkpt lat="44.44139683077763" lon="8.08707476492592"><ele>767.0</ele><time>2026-05-02T14:54:00.001Z</time></trkpt><trkpt lat="44.44147596136653" lon="8.086854965135664"><ele>767.0</ele><time>2026-05-02T14:54:01.001Z</time></trkpt><trkpt lat="44.44156137480488" lon="8.086637296864296"><ele>767.0</ele><time>2026-05-02T14:54:02.001Z</time></trkpt><trkpt lat="44.44164673996346" lon="8.086423764949487"><ele>767.0</ele><time>2026-05-02T14:54:03.001Z</time></trkpt><trkpt lat="44.441720549160166" lon="8.08623952762286"><ele>763.6666666666666</ele><time>2026-05-02T14:54:04.001Z</time></trkpt><trkpt lat="44.44179358444903" lon="8.086088983792113"><ele>760.3333333333334</ele><time>2026-05-02T14:54:05.001Z</time></trkpt><trkpt lat="44.44192688374149" lon="8.08597356033308"><ele>757.0</ele><time>2026-05-02T14:54:06.001Z</time></trkpt><trkpt lat="44.44208293857368" lon="8.085862848382677"><ele>755.3333333333334</ele><time>2026-05-02T14:54:07.001Z</time></trkpt><trkpt lat="44.442273475922256" lon="8.085784335209539"><ele>753.6666666666666</ele><time>2026-05-02T14:54:08.001Z</time></trkpt><trkpt lat="44.44248347913498" lon="8.08570681745713"><ele>752.0</ele><time>2026-05-02T14:54:09.001Z</time></trkpt><trkpt lat="44.44268382885242" lon="8.085603875011325"><ele>752.0</ele><time>2026-05-02T14:54:10.001Z</time></trkpt><trkpt lat="44.44285960180391" lon="8.0855008884768"><ele>752.0</ele><time>2026-05-02T14:54:11.001Z</time></trkpt><trkpt lat="44.4430495730667" lon="8.085477251594407"><ele>752.0</ele><time>2026-05-02T14:54:12.001Z</time></trkpt><trkpt lat="44.44324581256053" lon="8.085453930640735"><ele>754.6666666666666</ele><time>2026-05-02T14:54:13.001Z</time></trkpt><trkpt lat="44.44343468715712" lon="8.085416219499145"><ele>757.3333333333334</ele><time>2026-05-02T14:54:14.001Z</time></trkpt><trkpt lat="44.44360531867228" lon="8.085403100017226"><ele>760.0</ele><time>2026-05-02T14:54:15.001Z</time></trkpt><trkpt lat="44.44376385732633" lon="8.085378641248534"><ele>765.0</ele><time>2026-05-02T14:54:16.001Z</time></trkpt><trkpt lat="44.443905374028404" lon="8.085310973080407"><ele>770.0</ele><time>2026-05-02T14:54:17.001Z</time></trkpt><trkpt lat="44.44404374648206" lon="8.085190348683463"><ele>775.0</ele><time>2026-05-02T14:54:18.001Z</time></trkpt><trkpt lat="44.44416355894097" lon="8.08500585341406"><ele>770.3333333333333</ele><time>2026-05-02T14:54:19.001Z</time></trkpt><trkpt lat="44.444280401754845" lon="8.084822952719687"><ele>765.6666666666666</ele><time>2026-05-02T14:54:20.001Z</time></trkpt><trkpt lat="44.44439357780672" lon="8.08467611764954"><ele>761.0</ele><time>2026-05-02T14:54:21.001Z</time></trkpt><trkpt lat="44.44451181547436" lon="8.08454424333305"><ele>765.0</ele><time>2026-05-02T14:54:22.001Z</time></trkpt><trkpt lat="44.4446347797733" lon="8.084419586842085"><ele>769.0</ele><time>2026-05-02T14:54:23.001Z</time></trkpt><trkpt lat="44.444744203050064" lon="8.084311663093894"><ele>773.0</ele><time>2026-05-02T14:54:24.001Z</time></trkpt><trkpt lat="44.44484083845414" lon="8.084189047218361"><ele>777.0</ele><time>2026-05-02T14:54:25.001Z</time></trkpt><trkpt lat="44.44492082808588" lon="8.084030530527073"><ele>777.0</ele><time>2026-05-02T14:54:26.001Z</time></trkpt><trkpt lat="44.44497804302568" lon="8.083839685706414"><ele>777.0</ele><time>2026-05-02T14:54:27.001Z</time></trkpt><trkpt lat="44.445005246088606" lon="8.083616230212742"><ele>777.0</ele><time>2026-05-02T14:54:28.001Z</time></trkpt><trkpt lat="44.445023023103126" lon="8.083380769921387"><ele>776.0</ele><time>2026-05-02T14:54:29.001Z</time></trkpt><trkpt lat="44.44503774975003" lon="8.083146622294686"><ele>775.0</ele><time>2026-05-02T14:54:30.001Z</time></trkpt><trkpt lat="44.44505880550841" lon="8.082908354020317"><ele>774.0</ele><time>2026-05-02T14:54:31.001Z</time></trkpt><trkpt lat="44.4450831689774" lon="8.08267824066354"><ele>774.0</ele><time>2026-05-02T14:54:32.001Z</time></trkpt><trkpt lat="44.445106280310036" lon="8.082445378543085"><ele>774.0</ele><time>2026-05-02T14:54:33.001Z</time></trkpt><trkpt lat="44.445130010820264" lon="8.082202172394126"><ele>774.0</ele><time>2026-05-02T14:54:34.001Z</time></trkpt><trkpt lat="44.445152635615315" lon="8.081965204562414"><ele>772.3333333333333</ele><time>2026-05-02T14:54:35.001Z</time></trkpt><trkpt lat="44.44518386932379" lon="8.081749396892835"><ele>770.6666666666666</ele><time>2026-05-02T14:54:36.001Z</time></trkpt><trkpt lat="44.44523915123111" lon="8.081531192565738"><ele>769.0</ele><time>2026-05-02T14:54:37.001Z</time></trkpt><trkpt lat="44.44533608410425" lon="8.081330303866665"><ele>766.3333333333333</ele><time>2026-05-02T14:54:38.001Z</time></trkpt><trkpt lat="44.445415128600125" lon="8.081108790353424"><ele>763.6666666666666</ele><time>2026-05-02T14:54:39.001Z</time></trkpt><trkpt lat="44.44551042267142" lon="8.080893559344519"><ele>761.0</ele><time>2026-05-02T14:54:40.001Z</time></trkpt><trkpt lat="44.44560305811385" lon="8.080677203952499"><ele>766.6666666666666</ele><time>2026-05-02T14:54:41.001Z</time></trkpt><trkpt lat="44.44569738700242" lon="8.080456698202758"><ele>772.3333333333333</ele><time>2026-05-02T14:54:42.001Z</time></trkpt><trkpt lat="44.44579300666461" lon="8.080235711844013"><ele>778.0</ele><time>2026-05-02T14:54:43.001Z</time></trkpt><trkpt lat="44.445886632521265" lon="8.080016856871044"><ele>774.6666666666666</ele><time>2026-05-02T14:54:44.001Z</time></trkpt><trkpt lat="44.44597693236098" lon="8.079798257690927"><ele>771.3333333333333</ele><time>2026-05-02T14:54:45.001Z</time></trkpt><trkpt lat="44.446064361033" lon="8.07958168497871"><ele>768.0</ele><time>2026-05-02T14:54:46.001Z</time></trkpt><trkpt lat="44.44614555163019" lon="8.079378042079902"><ele>768.0</ele><time>2026-05-02T14:54:47.001Z</time></trkpt><trkpt lat="44.446223180763205" lon="8.07918437786269"><ele>768.0</ele><time>2026-05-02T14:54:48.001Z</time></trkpt><trkpt lat="44.4462981826763" lon="8.07898396335882"><ele>768.0</ele><time>2026-05-02T14:54:49.001Z</time></trkpt><trkpt lat="44.44635345918409" lon="8.078759368049823"><ele>776.0</ele><time>2026-05-02T14:54:50.001Z</time></trkpt><trkpt lat="44.44637738326296" lon="8.078512666213546"><ele>784.0</ele><time>2026-05-02T14:54:51.001Z</time></trkpt><trkpt lat="44.44638807975305" lon="8.078254790505376"><ele>792.0</ele><time>2026-05-02T14:54:52.001Z</time></trkpt><trkpt lat="44.44640214881472" lon="8.07799298478508"><ele>792.0</ele><time>2026-05-02T14:54:53.001Z</time></trkpt><trkpt lat="44.446422556335406" lon="8.077733575748434"><ele>792.0</ele><time>2026-05-02T14:54:54.001Z</time></trkpt><trkpt lat="44.44644373176109" lon="8.07748672004137"><ele>792.0</ele><time>2026-05-02T14:54:55.001Z</time></trkpt><trkpt lat="44.446471062809636" lon="8.077254293855042"><ele>789.0</ele><time>2026-05-02T14:54:56.001Z</time></trkpt><trkpt lat="44.446509818899635" lon="8.07701889810015"><ele>786.0</ele><time>2026-05-02T14:54:57.001Z</time></trkpt><trkpt lat="44.446552204142876" lon="8.076785135813239"><ele>783.0</ele><time>2026-05-02T14:54:58.001Z</time></trkpt><trkpt lat="44.44657630596309" lon="8.076560873166043"><ele>780.3333333333333</ele><time>2026-05-02T14:54:59.001Z</time></trkpt><trkpt lat="44.446592800089945" lon="8.07634638001425"><ele>777.6666666666666</ele><time>2026-05-02T14:55:00.001Z</time></trkpt><trkpt lat="44.446632505063484" lon="8.076132070887917"><ele>775.0</ele><time>2026-05-02T14:55:01.001Z</time></trkpt><trkpt lat="44.446700997589545" lon="8.075928066784948"><ele>772.0</ele><time>2026-05-02T14:55:02.001Z</time></trkpt><trkpt lat="44.44678719510099" lon="8.075731566171857"><ele>769.0</ele><time>2026-05-02T14:55:03.001Z</time></trkpt><trkpt lat="44.446884179077706" lon="8.075540108360654"><ele>766.0</ele><time>2026-05-02T14:55:04.001Z</time></trkpt><trkpt lat="44.44697457731692" lon="8.075347534715403"><ele>766.0</ele><time>2026-05-02T14:55:05.001Z</time></trkpt><trkpt lat="44.447050600453295" lon="8.075151583152353"><ele>766.0</ele><time>2026-05-02T14:55:06.001Z</time></trkpt><trkpt lat="44.447096052805215" lon="8.07492693321678"><ele>766.0</ele><time>2026-05-02T14:55:07.001Z</time></trkpt><trkpt lat="44.44710744861304" lon="8.074684867078322"><ele>765.3333333333334</ele><time>2026-05-02T14:55:08.001Z</time></trkpt><trkpt lat="44.44707847942034" lon="8.074438565144789"><ele>764.6666666666666</ele><time>2026-05-02T14:55:09.001Z</time></trkpt><trkpt lat="44.44704459797336" lon="8.074191715202408"><ele>764.0</ele><time>2026-05-02T14:55:10.001Z</time></trkpt><trkpt lat="44.447018988346365" lon="8.073946268611975"><ele>765.3333333333333</ele><time>2026-05-02T14:55:11.001Z</time></trkpt><trkpt lat="44.44698756669354" lon="8.07370472887515"><ele>766.6666666666666</ele><time>2026-05-02T14:55:12.001Z</time></trkpt><trkpt lat="44.44695609539317" lon="8.073459867411874"><ele>768.0</ele><time>2026-05-02T14:55:13.001Z</time></trkpt><trkpt lat="44.44692913229727" lon="8.073223516206623"><ele>770.3333333333333</ele><time>2026-05-02T14:55:14.001Z</time></trkpt><trkpt lat="44.44690027415933" lon="8.072992752250087"><ele>772.6666666666666</ele><time>2026-05-02T14:55:15.001Z</time></trkpt><trkpt lat="44.44686250974117" lon="8.072769503200284"><ele>775.0</ele><time>2026-05-02T14:55:16.001Z</time></trkpt><trkpt lat="44.44682285718961" lon="8.072559588263926"><ele>776.0</ele><time>2026-05-02T14:55:17.001Z</time></trkpt><trkpt lat="44.44677076361451" lon="8.07234781407874"><ele>777.0</ele><time>2026-05-02T14:55:18.001Z</time></trkpt><trkpt lat="44.4467160716188" lon="8.072134961974347"><ele>778.0</ele><time>2026-05-02T14:55:19.001Z</time></trkpt><trkpt lat="44.4466648484259" lon="8.07191768013926"><ele>778.0</ele><time>2026-05-02T14:55:20.001Z</time></trkpt><trkpt lat="44.4466186445398" lon="8.071695968219277"><ele>778.0</ele><time>2026-05-02T14:55:21.001Z</time></trkpt><trkpt lat="44.44657550658854" lon="8.071468691020419"><ele>778.0</ele><time>2026-05-02T14:55:22.001Z</time></trkpt><trkpt lat="44.44653687492276" lon="8.071234847382604"><ele>779.3333333333333</ele><time>2026-05-02T14:55:23.001Z</time></trkpt><trkpt lat="44.44650305817047" lon="8.070995914126705"><ele>780.6666666666667</ele><time>2026-05-02T14:55:24.001Z</time></trkpt><trkpt lat="44.44647168440557" lon="8.070752510789605"><ele>782.0</ele><time>2026-05-02T14:55:25.001Z</time></trkpt><trkpt lat="44.44643948316234" lon="8.070508015170917"><ele>782.0</ele><time>2026-05-02T14:55:26.001Z</time></trkpt><trkpt lat="44.44640634817675" lon="8.070273819985943"><ele>782.0</ele><time>2026-05-02T14:55:27.001Z</time></trkpt><trkpt lat="44.44637642159009" lon="8.07005873938228"><ele>782.0</ele><time>2026-05-02T14:55:28.001Z</time></trkpt><trkpt lat="44.44634924635531" lon="8.06985372504983"><ele>782.2</ele><time>2026-05-02T14:55:29.001Z</time></trkpt><trkpt lat="44.446325771823076" lon="8.069670389780413"><ele>782.4000000000001</ele><time>2026-05-02T14:55:30.001Z</time></trkpt><trkpt lat="44.44630209602633" lon="8.069514628542763"><ele>782.5999999999999</ele><time>2026-05-02T14:55:31.001Z</time></trkpt><trkpt lat="44.446276178329214" lon="8.069395582123855"><ele>782.8</ele><time>2026-05-02T14:55:32.001Z</time></trkpt><trkpt lat="44.446274262768995" lon="8.06927843270996"><ele>783.0</ele><time>2026-05-02T14:55:33.001Z</time></trkpt><trkpt lat="44.44626487536071" lon="8.069189809792064"><ele>783.0</ele><time>2026-05-02T14:55:34.001Z</time></trkpt><trkpt lat="44.44627530892905" lon="8.069323779241959"><ele>783.0</ele><time>2026-05-02T14:55:57.001Z</time></trkpt><trkpt lat="44.44627777132694" lon="8.069552245271954"><ele>783.0</ele><time>2026-05-02T14:55:59.001Z</time></trkpt><trkpt lat="44.44630123309096" lon="8.0697078359033"><ele>783.0</ele><time>2026-05-02T14:56:00.001Z</time></trkpt><trkpt lat="44.446327042719766" lon="8.069882509868622"><ele>782.6666666666667</ele><time>2026-05-02T14:56:01.001Z</time></trkpt><trkpt lat="44.44635259948604" lon="8.070074551759392"><ele>782.3333333333334</ele><time>2026-05-02T14:56:02.001Z</time></trkpt><trkpt lat="44.44638371718702" lon="8.070292217496947"><ele>782.0</ele><time>2026-05-02T14:56:03.001Z</time></trkpt><trkpt lat="44.4464207084714" lon="8.070533652172701"><ele>782.0</ele><time>2026-05-02T14:56:04.001Z</time></trkpt><trkpt lat="44.44645706684343" lon="8.07079643221443"><ele>782.0</ele><time>2026-05-02T14:56:05.001Z</time></trkpt><trkpt lat="44.446494000819456" lon="8.071077624350648"><ele>782.0</ele><time>2026-05-02T14:56:06.001Z</time></trkpt><trkpt lat="44.44654246343697" lon="8.071372641120915"><ele>780.6666666666667</ele><time>2026-05-02T14:56:07.001Z</time></trkpt><trkpt lat="44.446583253706486" lon="8.07165744007787"><ele>779.3333333333333</ele><time>2026-05-02T14:56:08.001Z</time></trkpt><trkpt lat="44.4466530824346" lon="8.071979654131793"><ele>778.0</ele><time>2026-05-02T14:56:09.001Z</time></trkpt><trkpt lat="44.44674109912691" lon="8.072318346089741"><ele>776.5</ele><time>2026-05-02T14:56:10.001Z</time></trkpt><trkpt lat="44.446818388448534" lon="8.072686176711509"><ele>775.0</ele><time>2026-05-02T14:56:11.001Z</time></trkpt><trkpt lat="44.44688002881884" lon="8.073082123054926"><ele>771.5</ele><time>2026-05-02T14:56:12.001Z</time></trkpt><trkpt lat="44.44693238425718" lon="8.073508420591624"><ele>768.0</ele><time>2026-05-02T14:56:13.001Z</time></trkpt><trkpt lat="44.44698897078377" lon="8.073946732799518"><ele>766.0</ele><time>2026-05-02T14:56:14.001Z</time></trkpt><trkpt lat="44.447038118460426" lon="8.074316996855002"><ele>764.0</ele><time>2026-05-02T14:56:15.001Z</time></trkpt><trkpt lat="44.44706955294025" lon="8.074604705813933"><ele>764.0</ele><time>2026-05-02T14:56:16.001Z</time></trkpt><trkpt lat="44.44707842706821" lon="8.074847377223879"><ele>764.0</ele><time>2026-05-02T14:56:17.001Z</time></trkpt><trkpt lat="44.4470467698578" lon="8.075096452248482"><ele>764.0</ele><time>2026-05-02T14:56:18.001Z</time></trkpt><trkpt lat="44.446958981825" lon="8.075321138476443"><ele>765.0</ele><time>2026-05-02T14:56:19.001Z</time></trkpt><trkpt lat="44.44683532955932" lon="8.075580991909721"><ele>766.0</ele><time>2026-05-02T14:56:20.001Z</time></trkpt><trkpt lat="44.44669898069757" lon="8.075868168088133"><ele>769.0</ele><time>2026-05-02T14:56:21.001Z</time></trkpt><trkpt lat="44.44660355474825" lon="8.076130328118309"><ele>772.0</ele><time>2026-05-02T14:56:22.001Z</time></trkpt><trkpt lat="44.44653737934198" lon="8.076384597672778"><ele>775.0</ele><time>2026-05-02T14:56:23.001Z</time></trkpt><trkpt lat="44.44651891461634" lon="8.076721372032367"><ele>779.0</ele><time>2026-05-02T14:56:24.001Z</time></trkpt><trkpt lat="44.446473618575055" lon="8.07707822996213"><ele>783.0</ele><time>2026-05-02T14:56:25.001Z</time></trkpt><trkpt lat="44.4464218991688" lon="8.077448239653323"><ele>787.5</ele><time>2026-05-02T14:56:26.001Z</time></trkpt><trkpt lat="44.44639221078139" lon="8.077845567172279"><ele>792.0</ele><time>2026-05-02T14:56:27.001Z</time></trkpt><trkpt lat="44.446378391302176" lon="8.078245039527035"><ele>792.3333333333333</ele><time>2026-05-02T14:56:28.001Z</time></trkpt><trkpt lat="44.446343869267004" lon="8.078579241991779"><ele>792.6666666666666</ele><time>2026-05-02T14:56:29.001Z</time></trkpt><trkpt lat="44.44631035362758" lon="8.078837923084741"><ele>793.0</ele><time>2026-05-02T14:56:30.001Z</time></trkpt><trkpt lat="44.446257515523904" lon="8.07901880058886"><ele>784.6666666666666</ele><time>2026-05-02T14:56:31.001Z</time></trkpt><trkpt lat="44.44617422279625" lon="8.079233302377078"><ele>776.3333333333333</ele><time>2026-05-02T14:56:32.001Z</time></trkpt><trkpt lat="44.44608913192442" lon="8.079485732999569"><ele>768.0</ele><time>2026-05-02T14:56:33.001Z</time></trkpt><trkpt lat="44.445968590188066" lon="8.079738587315475"><ele>771.3333333333333</ele><time>2026-05-02T14:56:34.001Z</time></trkpt><trkpt lat="44.44587697678892" lon="8.080011730514908"><ele>774.6666666666666</ele><time>2026-05-02T14:56:35.001Z</time></trkpt><trkpt lat="44.44576384155764" lon="8.080241401971957"><ele>778.0</ele><time>2026-05-02T14:56:36.001Z</time></trkpt><trkpt lat="44.44567504335598" lon="8.080477088850332"><ele>778.0</ele><time>2026-05-02T14:56:37.001Z</time></trkpt><trkpt lat="44.445578652011825" lon="8.080710886563773"><ele>778.0</ele><time>2026-05-02T14:56:38.001Z</time></trkpt><trkpt lat="44.44548806618822" lon="8.080921377455892"><ele>778.0</ele><time>2026-05-02T14:56:39.001Z</time></trkpt><trkpt lat="44.44538957663647" lon="8.081108892517888"><ele>775.0</ele><time>2026-05-02T14:56:40.001Z</time></trkpt><trkpt lat="44.44532101378421" lon="8.08131782500131"><ele>772.0</ele><time>2026-05-02T14:56:41.001Z</time></trkpt><trkpt lat="44.44523419006886" lon="8.081522570145468"><ele>769.0</ele><time>2026-05-02T14:56:42.001Z</time></trkpt><trkpt lat="44.445162129571365" lon="8.081745154354792"><ele>769.0</ele><time>2026-05-02T14:56:43.001Z</time></trkpt><trkpt lat="44.44512820454965" lon="8.082006215325633"><ele>769.0</ele><time>2026-05-02T14:56:44.001Z</time></trkpt><trkpt lat="44.445107573361675" lon="8.082291678955986"><ele>769.0</ele><time>2026-05-02T14:56:45.001Z</time></trkpt><trkpt lat="44.445064882185804" lon="8.082580495683807"><ele>770.6666666666666</ele><time>2026-05-02T14:56:46.001Z</time></trkpt><trkpt lat="44.44503970630832" lon="8.082881716152219"><ele>772.3333333333333</ele><time>2026-05-02T14:56:47.001Z</time></trkpt><trkpt lat="44.44503023329354" lon="8.083188910512193"><ele>774.0</ele><time>2026-05-02T14:56:48.001Z</time></trkpt><trkpt lat="44.44499100761891" lon="8.083472041396675"><ele>775.0</ele><time>2026-05-02T14:56:49.001Z</time></trkpt><trkpt lat="44.44496720446491" lon="8.08370756727121"><ele>776.0</ele><time>2026-05-02T14:56:50.001Z</time></trkpt><trkpt lat="44.44493285034468" lon="8.083909176400894"><ele>777.0</ele><time>2026-05-02T14:56:51.001Z</time></trkpt><trkpt lat="44.44487389345954" lon="8.084095853505737"><ele>779.0</ele><time>2026-05-02T14:56:52.001Z</time></trkpt><trkpt lat="44.4447585502305" lon="8.084247527875274"><ele>781.0</ele><time>2026-05-02T14:56:53.001Z</time></trkpt><trkpt lat="44.444598259634176" lon="8.08440510106837"><ele>783.0</ele><time>2026-05-02T14:56:54.001Z</time></trkpt><trkpt lat="44.444429393199236" lon="8.08458577614472"><ele>780.3333333333333</ele><time>2026-05-02T14:56:55.001Z</time></trkpt><trkpt lat="44.444274462788755" lon="8.084804424225483"><ele>777.6666666666666</ele><time>2026-05-02T14:56:56.001Z</time></trkpt><trkpt lat="44.44412764778461" lon="8.085029186347475"><ele>775.0</ele><time>2026-05-02T14:56:57.001Z</time></trkpt><trkpt lat="44.44398783859982" lon="8.085194421534332"><ele>775.0</ele><time>2026-05-02T14:56:58.001Z</time></trkpt><trkpt lat="44.44385887578279" lon="8.085317541842885"><ele>775.0</ele><time>2026-05-02T14:56:59.001Z</time></trkpt><trkpt lat="44.443695488062914" lon="8.085368280586724"><ele>775.0</ele><time>2026-05-02T14:57:00.001Z</time></trkpt><trkpt lat="44.44348531522185" lon="8.085384081764603"><ele>767.5</ele><time>2026-05-02T14:57:01.001Z</time></trkpt><trkpt lat="44.44325702139185" lon="8.085426552420504"><ele>760.0</ele><time>2026-05-02T14:57:02.001Z</time></trkpt><trkpt lat="44.44302761868279" lon="8.085447497159517"><ele>756.0</ele><time>2026-05-02T14:57:03.001Z</time></trkpt><trkpt lat="44.44279459226506" lon="8.085499747653241"><ele>752.0</ele><time>2026-05-02T14:57:04.001Z</time></trkpt><trkpt lat="44.44255774381477" lon="8.08560791290345"><ele>752.0</ele><time>2026-05-02T14:57:05.001Z</time></trkpt><trkpt lat="44.442342924681896" lon="8.085734328969231"><ele>752.0</ele><time>2026-05-02T14:57:06.001Z</time></trkpt><trkpt lat="44.442151482471104" lon="8.08582618614745"><ele>752.0</ele><time>2026-05-02T14:57:07.001Z</time></trkpt><trkpt lat="44.44198060423698" lon="8.085899099641402"><ele>753.6666666666666</ele><time>2026-05-02T14:57:08.001Z</time></trkpt><trkpt lat="44.441832209964446" lon="8.085987072237463"><ele>755.3333333333334</ele><time>2026-05-02T14:57:09.001Z</time></trkpt><trkpt lat="44.44170471296795" lon="8.086163989363836"><ele>757.0</ele><time>2026-05-02T14:57:10.001Z</time></trkpt><trkpt lat="44.44160553266995" lon="8.086440317587552"><ele>762.0</ele><time>2026-05-02T14:57:11.001Z</time></trkpt><trkpt lat="44.44150890779257" lon="8.086758606546761"><ele>767.0</ele><time>2026-05-02T14:57:12.001Z</time></trkpt><trkpt lat="44.441380734626776" lon="8.087052102528308"><ele>756.5</ele><time>2026-05-02T14:57:13.001Z</time></trkpt><trkpt lat="44.44126872351176" lon="8.087377141962756"><ele>746.0</ele><time>2026-05-02T14:57:14.001Z</time></trkpt><trkpt lat="44.44114609506654" lon="8.087692578548408"><ele>746.0</ele><time>2026-05-02T14:57:15.001Z</time></trkpt><trkpt lat="44.44103718782231" lon="8.088008062979139"><ele>746.0</ele><time>2026-05-02T14:57:16.001Z</time></trkpt><trkpt lat="44.440965502332766" lon="8.088345207470152"><ele>749.0</ele><time>2026-05-02T14:57:17.001Z</time></trkpt><trkpt lat="44.44086885973029" lon="8.088672056025965"><ele>752.0</ele><time>2026-05-02T14:57:18.001Z</time></trkpt><trkpt lat="44.44077067822398" lon="8.088982863288729"><ele>753.3333333333333</ele><time>2026-05-02T14:57:19.001Z</time></trkpt><trkpt lat="44.44067644398541" lon="8.089272900036534"><ele>754.6666666666666</ele><time>2026-05-02T14:57:20.001Z</time></trkpt><trkpt lat="44.440593510038504" lon="8.089545487513478"><ele>756.0</ele><time>2026-05-02T14:57:21.001Z</time></trkpt><trkpt lat="44.440508625732974" lon="8.089805772222778"><ele>751.6666666666666</ele><time>2026-05-02T14:57:22.001Z</time></trkpt><trkpt lat="44.44041079001199" lon="8.090031884301593"><ele>747.3333333333333</ele><time>2026-05-02T14:57:23.001Z</time></trkpt><trkpt lat="44.44029133307194" lon="8.090237110417"><ele>743.0</ele><time>2026-05-02T14:57:24.001Z</time></trkpt><trkpt lat="44.44015539896355" lon="8.090448322170493"><ele>743.0</ele><time>2026-05-02T14:57:25.001Z</time></trkpt><trkpt lat="44.440049347890515" lon="8.09065403291066"><ele>743.0</ele><time>2026-05-02T14:57:26.001Z</time></trkpt><trkpt lat="44.43997250515413" lon="8.090869286705967"><ele>743.0</ele><time>2026-05-02T14:57:27.001Z</time></trkpt><trkpt lat="44.43994846404804" lon="8.091146133328458"><ele>745.5</ele><time>2026-05-02T14:57:28.001Z</time></trkpt><trkpt lat="44.43996040831987" lon="8.091463074575087"><ele>748.0</ele><time>2026-05-02T14:57:29.001Z</time></trkpt><trkpt lat="44.43995595476195" lon="8.09177995231618"><ele>748.0</ele><time>2026-05-02T14:57:30.001Z</time></trkpt><trkpt lat="44.43995335918582" lon="8.092048303751868"><ele>748.0</ele><time>2026-05-02T14:57:31.001Z</time></trkpt><trkpt lat="44.439909350184024" lon="8.092295188505865"><ele>748.0</ele><time>2026-05-02T14:57:32.001Z</time></trkpt><trkpt lat="44.4398532368003" lon="8.092526783810285"><ele>747.3333333333334</ele><time>2026-05-02T14:57:33.001Z</time></trkpt><trkpt lat="44.43974643750556" lon="8.092749551460248"><ele>746.6666666666666</ele><time>2026-05-02T14:57:34.001Z</time></trkpt><trkpt lat="44.43963066549079" lon="8.092980445716071"><ele>746.0</ele><time>2026-05-02T14:57:35.001Z</time></trkpt><trkpt lat="44.43953555429419" lon="8.093201038503766"><ele>743.0</ele><time>2026-05-02T14:57:36.001Z</time></trkpt><trkpt lat="44.43942226065758" lon="8.093379635002384"><ele>740.0</ele><time>2026-05-02T14:57:37.001Z</time></trkpt><trkpt lat="44.439287941628386" lon="8.09354826596493"><ele>737.0</ele><time>2026-05-02T14:57:38.001Z</time></trkpt><trkpt lat="44.439146875558045" lon="8.093702993286328"><ele>737.0</ele><time>2026-05-02T14:57:39.001Z</time></trkpt><trkpt lat="44.43901443015911" lon="8.093846593029701"><ele>737.0</ele><time>2026-05-02T14:57:40.001Z</time></trkpt><trkpt lat="44.438894332295696" lon="8.093979457943773"><ele>737.0</ele><time>2026-05-02T14:57:41.001Z</time></trkpt><trkpt lat="44.43877692819377" lon="8.094111112858469"><ele>737.25</ele><time>2026-05-02T14:57:42.001Z</time></trkpt><trkpt lat="44.43866508134034" lon="8.09423792929281"><ele>737.5</ele><time>2026-05-02T14:57:43.001Z</time></trkpt><trkpt lat="44.43854193115609" lon="8.094340460629429"><ele>737.75</ele><time>2026-05-02T14:57:44.001Z</time></trkpt><trkpt lat="44.43843401058361" lon="8.094443006373496"><ele>738.0</ele><time>2026-05-02T14:57:45.001Z</time></trkpt><trkpt lat="44.43832452176974" lon="8.094524188866215"><ele>738.0</ele><time>2026-05-02T14:57:46.001Z</time></trkpt><trkpt lat="44.43821101395781" lon="8.094576380516848"><ele>738.0</ele><time>2026-05-02T14:57:47Z</time></trkpt><trkpt lat="44.438094442215714" lon="8.094631263834541"><ele>738.0</ele><time>2026-05-02T14:57:48Z</time></trkpt><trkpt lat="44.43796578699861" lon="8.094644421444999"><ele>738.0</ele><time>2026-05-02T14:57:49Z</time></trkpt><trkpt lat="44.437834138764686" lon="8.094618897166459"><ele>736.5999999999999</ele><time>2026-05-02T14:57:50Z</time></trkpt><trkpt lat="44.437702497309665" lon="8.094632583616404"><ele>735.1999999999999</ele><time>2026-05-02T14:57:51Z</time></trkpt><trkpt lat="44.4375864482262" lon="8.094624017119344"><ele>733.8</ele><time>2026-05-02T14:57:52Z</time></trkpt><trkpt lat="44.43747917224007" lon="8.09461942008012"><ele>732.4</ele><time>2026-05-02T14:57:53Z</time></trkpt><trkpt lat="44.43739161461081" lon="8.094598357001276"><ele>731.0</ele><time>2026-05-02T14:57:54Z</time></trkpt><trkpt lat="44.43731878694022" lon="8.094784143615644"><ele>732.5</ele><time>2026-05-02T14:57:56Z</time></trkpt><trkpt lat="44.43738236935587" lon="8.094960853155765"><ele>734.0</ele><time>2026-05-02T14:57:58Z</time></trkpt><trkpt lat="44.43748160893201" lon="8.095041639532203"><ele>735.5</ele><time>2026-05-02T14:57:59Z</time></trkpt><trkpt lat="44.437603987486504" lon="8.095103287409051"><ele>737.0</ele><time>2026-05-02T14:58:00.001Z</time></trkpt><trkpt lat="44.437751434780765" lon="8.095170249916231"><ele>737.0</ele><time>2026-05-02T14:58:01.001Z</time></trkpt><trkpt lat="44.43789988249476" lon="8.095255866940605"><ele>737.0</ele><time>2026-05-02T14:58:02.001Z</time></trkpt><trkpt lat="44.43805305544145" lon="8.09535710042625"><ele>737.0</ele><time>2026-05-02T14:58:03.001Z</time></trkpt><trkpt lat="44.438214803482296" lon="8.095450491998013"><ele>738.3333333333333</ele><time>2026-05-02T14:58:04.001Z</time></trkpt><trkpt lat="44.438398116813104" lon="8.095499335059191"><ele>739.6666666666666</ele><time>2026-05-02T14:58:05.001Z</time></trkpt><trkpt lat="44.438598639719686" lon="8.09551008609432"><ele>741.0</ele><time>2026-05-02T14:58:06.001Z</time></trkpt><trkpt lat="44.438814510002864" lon="8.095495992915655"><ele>741.6666666666666</ele><time>2026-05-02T14:58:07.001Z</time></trkpt><trkpt lat="44.43901292191199" lon="8.09548849573985"><ele>742.3333333333333</ele><time>2026-05-02T14:58:08.001Z</time></trkpt><trkpt lat="44.43919499606286" lon="8.095514945034276"><ele>743.0</ele><time>2026-05-02T14:58:09.001Z</time></trkpt><trkpt lat="44.43937580184669" lon="8.095601113262925"><ele>743.0</ele><time>2026-05-02T14:58:10.001Z</time></trkpt><trkpt lat="44.439556442494" lon="8.095738722196895"><ele>743.0</ele><time>2026-05-02T14:58:11.001Z</time></trkpt><trkpt lat="44.43973245342856" lon="8.095927140399692"><ele>743.0</ele><time>2026-05-02T14:58:12.001Z</time></trkpt><trkpt lat="44.43989813987869" lon="8.096147709625125"><ele>739.6666666666666</ele><time>2026-05-02T14:58:13.001Z</time></trkpt><trkpt lat="44.440055988977385" lon="8.096362163240217"><ele>736.3333333333334</ele><time>2026-05-02T14:58:14.001Z</time></trkpt><trkpt lat="44.440206512372576" lon="8.096550968720434"><ele>733.0</ele><time>2026-05-02T14:58:15.001Z</time></trkpt><trkpt lat="44.440349818923025" lon="8.096719361851601"><ele>730.6666666666667</ele><time>2026-05-02T14:58:16.001Z</time></trkpt><trkpt lat="44.4404807606973" lon="8.096876088049088"><ele>728.3333333333334</ele><time>2026-05-02T14:58:17.001Z</time></trkpt><trkpt lat="44.44060637723845" lon="8.097005101230527"><ele>726.0</ele><time>2026-05-02T14:58:18.001Z</time></trkpt><trkpt lat="44.440751643342345" lon="8.097077707417844"><ele>726.0</ele><time>2026-05-02T14:58:19.001Z</time></trkpt><trkpt lat="44.44091789817727" lon="8.097049012841943"><ele>726.0</ele><time>2026-05-02T14:58:20.001Z</time></trkpt><trkpt lat="44.44108298957092" lon="8.096950449143998"><ele>726.0</ele><time>2026-05-02T14:58:21.001Z</time></trkpt><trkpt lat="44.44122107618753" lon="8.096762040933584"><ele>722.5</ele><time>2026-05-02T14:58:22.001Z</time></trkpt><trkpt lat="44.441327190988616" lon="8.096562956248043"><ele>719.0</ele><time>2026-05-02T14:58:23.001Z</time></trkpt><trkpt lat="44.441437163727414" lon="8.096504425950943"><ele>715.5</ele><time>2026-05-02T14:58:24.001Z</time></trkpt><trkpt lat="44.441537061847235" lon="8.096509619972998"><ele>712.0</ele><time>2026-05-02T14:58:25.001Z</time></trkpt><trkpt lat="44.44166803275743" lon="8.096581461319952"><ele>712.5</ele><time>2026-05-02T14:58:26.001Z</time></trkpt><trkpt lat="44.44182319578322" lon="8.096681831402378"><ele>713.0</ele><time>2026-05-02T14:58:27.001Z</time></trkpt><trkpt lat="44.4419133473477" lon="8.096819119305032"><ele>713.5</ele><time>2026-05-02T14:58:28.001Z</time></trkpt><trkpt lat="44.441948569277756" lon="8.096985762646765"><ele>714.0</ele><time>2026-05-02T14:58:29.001Z</time></trkpt><trkpt lat="44.441903780218276" lon="8.09716529569012"><ele>714.0</ele><time>2026-05-02T14:58:30.001Z</time></trkpt><trkpt lat="44.441867528543035" lon="8.09740628495369"><ele>714.0</ele><time>2026-05-02T14:58:31.001Z</time></trkpt><trkpt lat="44.44182944620003" lon="8.097682365127367"><ele>714.0</ele><time>2026-05-02T14:58:32.001Z</time></trkpt><trkpt lat="44.44173542597603" lon="8.097958552190851"><ele>711.0</ele><time>2026-05-02T14:58:33.001Z</time></trkpt><trkpt lat="44.44165802439413" lon="8.098270096446388"><ele>708.0</ele><time>2026-05-02T14:58:34.001Z</time></trkpt><trkpt lat="44.441577898680265" lon="8.098585664123712"><ele>708.0</ele><time>2026-05-02T14:58:35.001Z</time></trkpt><trkpt lat="44.44150997929837" lon="8.098909366272487"><ele>708.0</ele><time>2026-05-02T14:58:36.001Z</time></trkpt><trkpt lat="44.44143966393379" lon="8.099196364212997"><ele>704.6666666666666</ele><time>2026-05-02T14:58:37.001Z</time></trkpt><trkpt lat="44.44140713819482" lon="8.099479392573674"><ele>701.3333333333333</ele><time>2026-05-02T14:58:38.001Z</time></trkpt><trkpt lat="44.44134977607018" lon="8.099716583459546"><ele>698.0</ele><time>2026-05-02T14:58:39.001Z</time></trkpt><trkpt lat="44.44130930312588" lon="8.099903033200048"><ele>696.8</ele><time>2026-05-02T14:58:40.001Z</time></trkpt><trkpt lat="44.44127973893751" lon="8.100033108240389"><ele>695.5999999999999</ele><time>2026-05-02T14:58:41.001Z</time></trkpt><trkpt lat="44.441219555339174" lon="8.100108315017177"><ele>694.4000000000001</ele><time>2026-05-02T14:58:42.001Z</time></trkpt><trkpt lat="44.441112890231096" lon="8.100153322087857"><ele>693.2</ele><time>2026-05-02T14:58:43.001Z</time></trkpt><trkpt lat="44.44097383607577" lon="8.100121245973558"><ele>692.0</ele><time>2026-05-02T14:58:44.001Z</time></trkpt><trkpt lat="44.44082812583111" lon="8.100039879088248"><ele>692.0</ele><time>2026-05-02T14:58:45.001Z</time></trkpt><trkpt lat="44.44068266175226" lon="8.099955198721458"><ele>692.0</ele><time>2026-05-02T14:58:46.001Z</time></trkpt><trkpt lat="44.44054088095135" lon="8.099914365994849"><ele>692.0</ele><time>2026-05-02T14:58:47.001Z</time></trkpt><trkpt lat="44.44039125718861" lon="8.099924623417847"><ele>689.6666666666666</ele><time>2026-05-02T14:58:48.001Z</time></trkpt><trkpt lat="44.44024471809994" lon="8.100017677835911"><ele>687.3333333333334</ele><time>2026-05-02T14:58:49.001Z</time></trkpt><trkpt lat="44.440096450616146" lon="8.100162179111955"><ele>685.0</ele><time>2026-05-02T14:58:50.001Z</time></trkpt><trkpt lat="44.43996042184366" lon="8.100335469617706"><ele>685.0</ele><time>2026-05-02T14:58:51.001Z</time></trkpt><trkpt lat="44.43984253961918" lon="8.100560186202271"><ele>685.0</ele><time>2026-05-02T14:58:52.001Z</time></trkpt><trkpt lat="44.439730386001216" lon="8.10080749537881"><ele>685.0</ele><time>2026-05-02T14:58:53.001Z</time></trkpt><trkpt lat="44.43963821586515" lon="8.101088198480559"><ele>678.3333333333334</ele><time>2026-05-02T14:58:54.001Z</time></trkpt><trkpt lat="44.43955470784958" lon="8.101351099444788"><ele>671.6666666666666</ele><time>2026-05-02T14:58:55.001Z</time></trkpt><trkpt lat="44.439472313262534" lon="8.101610443730305"><ele>665.0</ele><time>2026-05-02T14:58:56.001Z</time></trkpt><trkpt lat="44.43939271754563" lon="8.101856887745692"><ele>664.3333333333333</ele><time>2026-05-02T14:58:57.001Z</time></trkpt><trkpt lat="44.43933380365544" lon="8.102114365854625"><ele>663.6666666666666</ele><time>2026-05-02T14:58:58.001Z</time></trkpt><trkpt lat="44.439251045620665" lon="8.102337884148772"><ele>663.0</ele><time>2026-05-02T14:58:59.001Z</time></trkpt><trkpt lat="44.439188410129454" lon="8.102552465863102"><ele>660.6666666666666</ele><time>2026-05-02T14:59:00.001Z</time></trkpt><trkpt lat="44.439143054512435" lon="8.102804663668927"><ele>658.3333333333333</ele><time>2026-05-02T14:59:01.001Z</time></trkpt><trkpt lat="44.43912929002476" lon="8.103091143827394"><ele>656.0</ele><time>2026-05-02T14:59:02.001Z</time></trkpt><trkpt lat="44.439159290176825" lon="8.103412526416601"><ele>652.0</ele><time>2026-05-02T14:59:03.001Z</time></trkpt><trkpt lat="44.43919270923834" lon="8.103744794627385"><ele>648.0</ele><time>2026-05-02T14:59:04.001Z</time></trkpt><trkpt lat="44.439264376066646" lon="8.104041937899757"><ele>645.5</ele><time>2026-05-02T14:59:05.001Z</time></trkpt><trkpt lat="44.43934341397928" lon="8.104338190438586"><ele>643.0</ele><time>2026-05-02T14:59:06.001Z</time></trkpt><trkpt lat="44.439460987175536" lon="8.10464495729868"><ele>640.5</ele><time>2026-05-02T14:59:07.001Z</time></trkpt><trkpt lat="44.43958508841378" lon="8.10492869256984"><ele>638.0</ele><time>2026-05-02T14:59:08.001Z</time></trkpt><trkpt lat="44.43970309248945" lon="8.10519909530508"><ele>638.0</ele><time>2026-05-02T14:59:09.001Z</time></trkpt><trkpt lat="44.439824087766226" lon="8.105463003101352"><ele>638.0</ele><time>2026-05-02T14:59:10.001Z</time></trkpt><trkpt lat="44.44000743846919" lon="8.10570877437488"><ele>636.0</ele><time>2026-05-02T14:59:11.001Z</time></trkpt><trkpt lat="44.44021935711856" lon="8.105949467990685"><ele>634.0</ele><time>2026-05-02T14:59:12.001Z</time></trkpt><trkpt lat="44.44045849118131" lon="8.10615916790823"><ele>632.5</ele><time>2026-05-02T14:59:13.001Z</time></trkpt><trkpt lat="44.4406906037213" lon="8.106343174809309"><ele>631.0</ele><time>2026-05-02T14:59:14.001Z</time></trkpt><trkpt lat="44.44089046767358" lon="8.106522579341581"><ele>629.3333333333334</ele><time>2026-05-02T14:59:15.001Z</time></trkpt><trkpt lat="44.44104961766448" lon="8.106671681826896"><ele>627.6666666666666</ele><time>2026-05-02T14:59:16.001Z</time></trkpt><trkpt lat="44.44119054066525" lon="8.106794279965689"><ele>626.0</ele><time>2026-05-02T14:59:17.001Z</time></trkpt><trkpt lat="44.441328791657696" lon="8.106892799642182"><ele>625.0</ele><time>2026-05-02T14:59:18.001Z</time></trkpt><trkpt lat="44.44147766264151" lon="8.106933014066191"><ele>624.0</ele><time>2026-05-02T14:59:19.001Z</time></trkpt><trkpt lat="44.44163937388317" lon="8.106867773692038"><ele>623.0</ele><time>2026-05-02T14:59:20.001Z</time></trkpt><trkpt lat="44.44177730084821" lon="8.10675491892322"><ele>623.0</ele><time>2026-05-02T14:59:21.001Z</time></trkpt><trkpt lat="44.44190970786812" lon="8.106571023835228"><ele>623.0</ele><time>2026-05-02T14:59:22.001Z</time></trkpt><trkpt lat="44.44204236461533" lon="8.106398961122354"><ele>623.0</ele><time>2026-05-02T14:59:23.001Z</time></trkpt><trkpt lat="44.44213850618166" lon="8.106267068941166"><ele>621.25</ele><time>2026-05-02T14:59:24.001Z</time></trkpt><trkpt lat="44.44226217949058" lon="8.106256989407717"><ele>619.5</ele><time>2026-05-02T14:59:25.001Z</time></trkpt><trkpt lat="44.44238632240251" lon="8.106286768481747"><ele>617.75</ele><time>2026-05-02T14:59:26.001Z</time></trkpt><trkpt lat="44.442488893422166" lon="8.106391197033199"><ele>616.0</ele><time>2026-05-02T14:59:27.001Z</time></trkpt><trkpt lat="44.44257601502659" lon="8.106539617315292"><ele>615.6666666666667</ele><time>2026-05-02T14:59:28.001Z</time></trkpt><trkpt lat="44.442596615657656" lon="8.106723247263645"><ele>615.3333333333334</ele><time>2026-05-02T14:59:29.001Z</time></trkpt><trkpt lat="44.44258138994579" lon="8.106918638161805"><ele>615.0</ele><time>2026-05-02T14:59:30.001Z</time></trkpt><trkpt lat="44.44256126519891" lon="8.107168520381625"><ele>614.0</ele><time>2026-05-02T14:59:31.001Z</time></trkpt><trkpt lat="44.442548970668696" lon="8.107449843831207"><ele>613.0</ele><time>2026-05-02T14:59:32.001Z</time></trkpt><trkpt lat="44.442527223489336" lon="8.107701899920034"><ele>612.0</ele><time>2026-05-02T14:59:33Z</time></trkpt><trkpt lat="44.442509301507606" lon="8.107960751223295"><ele>612.0</ele><time>2026-05-02T14:59:34Z</time></trkpt><trkpt lat="44.442476425052575" lon="8.108239402584253"><ele>612.0</ele><time>2026-05-02T14:59:35Z</time></trkpt><trkpt lat="44.442455202492404" lon="8.108514121642315"><ele>612.0</ele><time>2026-05-02T14:59:36Z</time></trkpt><trkpt lat="44.44243369139547" lon="8.108765249265042"><ele>611.5</ele><time>2026-05-02T14:59:37Z</time></trkpt><trkpt lat="44.442427686879874" lon="8.108982669743897"><ele>611.0</ele><time>2026-05-02T14:59:38Z</time></trkpt><trkpt lat="44.44236651814475" lon="8.109147428742007"><ele>610.5</ele><time>2026-05-02T14:59:39Z</time></trkpt><trkpt lat="44.442285248203895" lon="8.109302737689125"><ele>610.0</ele><time>2026-05-02T14:59:40Z</time></trkpt><trkpt lat="44.442159431422795" lon="8.109441043231175"><ele>612.0</ele><time>2026-05-02T14:59:41Z</time></trkpt><trkpt lat="44.44200103934201" lon="8.109521848643471"><ele>614.0</ele><time>2026-05-02T14:59:42Z</time></trkpt><trkpt lat="44.441820024546224" lon="8.109568673678217"><ele>616.0</ele><time>2026-05-02T14:59:43Z</time></trkpt><trkpt lat="44.441647983987544" lon="8.109586865483763"><ele>616.0</ele><time>2026-05-02T14:59:44Z</time></trkpt><trkpt lat="44.441516922157604" lon="8.109620581623023"><ele>616.0</ele><time>2026-05-02T14:59:45Z</time></trkpt><trkpt lat="44.44142918964201" lon="8.109655988900677"><ele>616.0</ele><time>2026-05-02T14:59:46Z</time></trkpt><trkpt lat="44.44138598527437" lon="8.109779709909372"><ele>616.0</ele><time>2026-05-02T14:59:48Z</time></trkpt><trkpt lat="44.441391153093875" lon="8.109894343148785"><ele>616.0</ele><time>2026-05-02T14:59:49Z</time></trkpt><trkpt lat="44.44155905595011" lon="8.109987104417531"><ele>622.0</ele><time>2026-05-02T14:59:50Z</time></trkpt><trkpt lat="44.44172101468293" lon="8.110019010779622"><ele>628.0</ele><time>2026-05-02T14:59:51Z</time></trkpt><trkpt lat="44.441858707736436" lon="8.110002060178099"><ele>634.0</ele><time>2026-05-02T14:59:52Z</time></trkpt><trkpt lat="44.442038548218925" lon="8.110048440990836"><ele>634.3333333333334</ele><time>2026-05-02T14:59:53Z</time></trkpt><trkpt lat="44.442242704006155" lon="8.110070996840186"><ele>634.6666666666666</ele><time>2026-05-02T14:59:54Z</time></trkpt><trkpt lat="44.44245710831581" lon="8.110116022023346"><ele>635.0</ele><time>2026-05-02T14:59:55Z</time></trkpt><trkpt lat="44.44269106534288" lon="8.110131380291634"><ele>635.0</ele><time>2026-05-02T14:59:56Z</time></trkpt><trkpt lat="44.442938349146466" lon="8.110108155861637"><ele>635.0</ele><time>2026-05-02T14:59:57Z</time></trkpt><trkpt lat="44.44318313685795" lon="8.110066975748303"><ele>639.0</ele><time>2026-05-02T14:59:58Z</time></trkpt><trkpt lat="44.44342088033634" lon="8.110024819634107"><ele>643.0</ele><time>2026-05-02T14:59:59Z</time></trkpt><trkpt lat="44.44365841413167" lon="8.110005357823432"><ele>646.3333333333334</ele><time>2026-05-02T15:00:00Z</time></trkpt><trkpt lat="44.44388710636764" lon="8.10998490355687"><ele>649.6666666666666</ele><time>2026-05-02T15:00:01Z</time></trkpt><trkpt lat="44.44409287134452" lon="8.109957410461696"><ele>653.0</ele><time>2026-05-02T15:00:02Z</time></trkpt><trkpt lat="44.44427559072211" lon="8.109916513819005"><ele>652.6666666666666</ele><time>2026-05-02T15:00:03Z</time></trkpt><trkpt lat="44.444452771055225" lon="8.109852886572986"><ele>652.3333333333334</ele><time>2026-05-02T15:00:04Z</time></trkpt><trkpt lat="44.444633000488764" lon="8.10976407181116"><ele>652.0</ele><time>2026-05-02T15:00:05Z</time></trkpt><trkpt lat="44.444799425495034" lon="8.109683720416422"><ele>652.0</ele><time>2026-05-02T15:00:06.001Z</time></trkpt><trkpt lat="44.44494735728454" lon="8.109620558616706"><ele>652.0</ele><time>2026-05-02T15:00:07.001Z</time></trkpt><trkpt lat="44.445080403019" lon="8.109560437357436"><ele>652.0</ele><time>2026-05-02T15:00:08.001Z</time></trkpt><trkpt lat="44.445200188172194" lon="8.109502590214673"><ele>652.0</ele><time>2026-05-02T15:00:09.001Z</time></trkpt><trkpt lat="44.445306531033154" lon="8.109448777373352"><ele>652.0</ele><time>2026-05-02T15:00:10.001Z</time></trkpt><trkpt lat="44.44540396766577" lon="8.109402555695478"><ele>652.0</ele><time>2026-05-02T15:00:11.001Z</time></trkpt><trkpt lat="44.445471153259724" lon="8.109373135691987"><ele>652.0</ele><time>2026-05-02T15:00:12.001Z</time></trkpt><trkpt lat="44.445569452735946" lon="8.10931670554749"><ele>652.0</ele><time>2026-05-02T15:00:14.001Z</time></trkpt><trkpt lat="44.44561453666668" lon="8.109137084970694"><ele>652.0</ele><time>2026-05-02T15:00:16.001Z</time></trkpt><trkpt lat="44.44559728560478" lon="8.10900367429717"><ele>656.8</ele><time>2026-05-02T15:00:17.001Z</time></trkpt><trkpt lat="44.44557482043364" lon="8.108861138796614"><ele>661.6</ele><time>2026-05-02T15:00:18.001Z</time></trkpt><trkpt lat="44.44556041880008" lon="8.10871673672734"><ele>666.4</ele><time>2026-05-02T15:00:19.001Z</time></trkpt><trkpt lat="44.44556421647913" lon="8.108573258266716"><ele>671.1999999999999</ele><time>2026-05-02T15:00:20.001Z</time></trkpt><trkpt lat="44.445565643191635" lon="8.108431180519057"><ele>676.0</ele><time>2026-05-02T15:00:21.001Z</time></trkpt><trkpt lat="44.44557184638345" lon="8.10828232053782"><ele>673.3333333333334</ele><time>2026-05-02T15:00:22.001Z</time></trkpt><trkpt lat="44.44563602943879" lon="8.108130047195562"><ele>670.6666666666666</ele><time>2026-05-02T15:00:23.001Z</time></trkpt><trkpt lat="44.445722459446806" lon="8.10793484550692"><ele>668.0</ele><time>2026-05-02T15:00:24.001Z</time></trkpt><trkpt lat="44.44582927199404" lon="8.107711215142272"><ele>668.0</ele><time>2026-05-02T15:00:25.001Z</time></trkpt><trkpt lat="44.445941574386026" lon="8.107470482082316"><ele>668.0</ele><time>2026-05-02T15:00:26.001Z</time></trkpt><trkpt lat="44.44606068804223" lon="8.107223388146963"><ele>668.0</ele><time>2026-05-02T15:00:27.001Z</time></trkpt><trkpt lat="44.446172950558854" lon="8.106976025431424"><ele>668.6666666666666</ele><time>2026-05-02T15:00:28.001Z</time></trkpt><trkpt lat="44.44627045345418" lon="8.1067686085387"><ele>669.3333333333334</ele><time>2026-05-02T15:00:29.001Z</time></trkpt><trkpt lat="44.446421190496125" lon="8.106618936657444"><ele>670.0</ele><time>2026-05-02T15:00:30.001Z</time></trkpt><trkpt lat="44.44659267079797" lon="8.106451571423868"><ele>670.0</ele><time>2026-05-02T15:00:31.001Z</time></trkpt><trkpt lat="44.446772067330755" lon="8.106270996046447"><ele>670.0</ele><time>2026-05-02T15:00:32.001Z</time></trkpt><trkpt lat="44.446946329335525" lon="8.106113405592744"><ele>670.0</ele><time>2026-05-02T15:00:33.001Z</time></trkpt><trkpt lat="44.44712587149399" lon="8.106013259049648"><ele>673.6666666666667</ele><time>2026-05-02T15:00:34.001Z</time></trkpt><trkpt lat="44.44732473053052" lon="8.105961146162524"><ele>677.3333333333334</ele><time>2026-05-02T15:00:35.001Z</time></trkpt><trkpt lat="44.44754900614756" lon="8.1059121699504"><ele>681.0</ele><time>2026-05-02T15:00:36.001Z</time></trkpt><trkpt lat="44.44777913363169" lon="8.10584724182596"><ele>683.0</ele><time>2026-05-02T15:00:37.001Z</time></trkpt><trkpt lat="44.4480141059057" lon="8.10579051248264"><ele>685.0</ele><time>2026-05-02T15:00:38.001Z</time></trkpt><trkpt lat="44.44825223606205" lon="8.105736480217534"><ele>682.0</ele><time>2026-05-02T15:00:39.001Z</time></trkpt><trkpt lat="44.4484715484183" lon="8.105707371856266"><ele>679.0</ele><time>2026-05-02T15:00:40.001Z</time></trkpt><trkpt lat="44.448669778380776" lon="8.105639599548061"><ele>676.0</ele><time>2026-05-02T15:00:41.001Z</time></trkpt><trkpt lat="44.44885521174369" lon="8.105619830283786"><ele>676.0</ele><time>2026-05-02T15:00:42.001Z</time></trkpt><trkpt lat="44.44904040754938" lon="8.105557236800006"><ele>676.0</ele><time>2026-05-02T15:00:43.001Z</time></trkpt><trkpt lat="44.44923535114645" lon="8.105509435518817"><ele>676.0</ele><time>2026-05-02T15:00:44.001Z</time></trkpt><trkpt lat="44.44944137969505" lon="8.105448581736274"><ele>678.6666666666667</ele><time>2026-05-02T15:00:45.001Z</time></trkpt><trkpt lat="44.44964556491658" lon="8.105374736065132"><ele>681.3333333333334</ele><time>2026-05-02T15:00:46.001Z</time></trkpt><trkpt lat="44.44984724630745" lon="8.105282300739566"><ele>684.0</ele><time>2026-05-02T15:00:47.001Z</time></trkpt><trkpt lat="44.45004493826001" lon="8.105176037596713"><ele>684.0</ele><time>2026-05-02T15:00:48.001Z</time></trkpt><trkpt lat="44.450244438551834" lon="8.105062384709651"><ele>684.0</ele><time>2026-05-02T15:00:49.001Z</time></trkpt><trkpt lat="44.45043572251575" lon="8.104943542399797"><ele>684.0</ele><time>2026-05-02T15:00:50.001Z</time></trkpt><trkpt lat="44.45062893641281" lon="8.104801970435634"><ele>683.3333333333334</ele><time>2026-05-02T15:00:51.001Z</time></trkpt><trkpt lat="44.45080862021751" lon="8.104660749725719"><ele>682.6666666666667</ele><time>2026-05-02T15:00:52.001Z</time></trkpt><trkpt lat="44.450981738652175" lon="8.104560124321345"><ele>682.0</ele><time>2026-05-02T15:00:53.001Z</time></trkpt><trkpt lat="44.451117596002355" lon="8.104438937735258"><ele>682.0</ele><time>2026-05-02T15:00:54.001Z</time></trkpt><trkpt lat="44.45125122926027" lon="8.104397415541586"><ele>682.0</ele><time>2026-05-02T15:00:55.001Z</time></trkpt><trkpt lat="44.451376182252204" lon="8.1043805275234"><ele>682.0</ele><time>2026-05-02T15:00:56.001Z</time></trkpt><trkpt lat="44.451497805954865" lon="8.104425678718227"><ele>682.0</ele><time>2026-05-02T15:00:57.001Z</time></trkpt><trkpt lat="44.451632175478714" lon="8.104526927905045"><ele>683.3333333333334</ele><time>2026-05-02T15:00:58.001Z</time></trkpt><trkpt lat="44.451798327760955" lon="8.104639704402734"><ele>684.6666666666666</ele><time>2026-05-02T15:00:59.001Z</time></trkpt><trkpt lat="44.451964166225586" lon="8.104795944847725"><ele>686.0</ele><time>2026-05-02T15:01:00.001Z</time></trkpt><trkpt lat="44.4521457273106" lon="8.104954668969027"><ele>687.0</ele><time>2026-05-02T15:01:01Z</time></trkpt><trkpt lat="44.452319562055884" lon="8.105084976361471"><ele>688.0</ele><time>2026-05-02T15:01:02Z</time></trkpt><trkpt lat="44.452478433310745" lon="8.105179044732989"><ele>689.0</ele><time>2026-05-02T15:01:03Z</time></trkpt><trkpt lat="44.45263014392099" lon="8.105203246610712"><ele>689.0</ele><time>2026-05-02T15:01:04Z</time></trkpt><trkpt lat="44.45279855775244" lon="8.105162966857216"><ele>689.0</ele><time>2026-05-02T15:01:05Z</time></trkpt><trkpt lat="44.45298527279843" lon="8.105064017115309"><ele>689.0</ele><time>2026-05-02T15:01:06Z</time></trkpt><trkpt lat="44.453183790166875" lon="8.10494134330274"><ele>690.0</ele><time>2026-05-02T15:01:07Z</time></trkpt><trkpt lat="44.453379815326365" lon="8.104780782642417"><ele>691.0</ele><time>2026-05-02T15:01:08Z</time></trkpt><trkpt lat="44.45357068458513" lon="8.10458454646682"><ele>691.0</ele><time>2026-05-02T15:01:09Z</time></trkpt><trkpt lat="44.453759412386376" lon="8.104393779518203"><ele>691.0</ele><time>2026-05-02T15:01:10Z</time></trkpt><trkpt lat="44.453916373293666" lon="8.104222195392257"><ele>691.0</ele><time>2026-05-02T15:01:11Z</time></trkpt><trkpt lat="44.45404790375114" lon="8.10400523113681"><ele>697.0</ele><time>2026-05-02T15:01:12Z</time></trkpt><trkpt lat="44.454150252077746" lon="8.10371626188324"><ele>703.0</ele><time>2026-05-02T15:01:13Z</time></trkpt><trkpt lat="44.45426082796214" lon="8.103399956724584"><ele>702.0</ele><time>2026-05-02T15:01:14Z</time></trkpt><trkpt lat="44.45437134393024" lon="8.103079842281863"><ele>701.0</ele><time>2026-05-02T15:01:15Z</time></trkpt><trkpt lat="44.454460616813925" lon="8.102784725787098"><ele>701.0</ele><time>2026-05-02T15:01:16Z</time></trkpt><trkpt lat="44.45455804926669" lon="8.102551924538782"><ele>701.0</ele><time>2026-05-02T15:01:17Z</time></trkpt><trkpt lat="44.45468454055713" lon="8.102385192924602"><ele>701.0</ele><time>2026-05-02T15:01:18Z</time></trkpt><trkpt lat="44.454811513077566" lon="8.102229138297924"><ele>703.6666666666666</ele><time>2026-05-02T15:01:19Z</time></trkpt><trkpt lat="44.454970540648766" lon="8.102085770961917"><ele>706.3333333333334</ele><time>2026-05-02T15:01:20Z</time></trkpt><trkpt lat="44.455180112596956" lon="8.101994672464333"><ele>709.0</ele><time>2026-05-02T15:01:21Z</time></trkpt><trkpt lat="44.45539617264715" lon="8.101902198577077"><ele>713.0</ele><time>2026-05-02T15:01:22Z</time></trkpt><trkpt lat="44.45561217570799" lon="8.101809387587597"><ele>717.0</ele><time>2026-05-02T15:01:23Z</time></trkpt><trkpt lat="44.45581787751846" lon="8.101704397969932"><ele>721.0</ele><time>2026-05-02T15:01:24Z</time></trkpt><trkpt lat="44.45600640853255" lon="8.101630992670126"><ele>719.3333333333334</ele><time>2026-05-02T15:01:25Z</time></trkpt><trkpt lat="44.45617045695776" lon="8.101562451417918"><ele>717.6666666666666</ele><time>2026-05-02T15:01:26Z</time></trkpt><trkpt lat="44.456339834407196" lon="8.101505974901189"><ele>716.0</ele><time>2026-05-02T15:01:27Z</time></trkpt><trkpt lat="44.456520090576" lon="8.101534891182116"><ele>719.6666666666666</ele><time>2026-05-02T15:01:28Z</time></trkpt><trkpt lat="44.45670658247809" lon="8.101539238463292"><ele>723.3333333333334</ele><time>2026-05-02T15:01:29Z</time></trkpt><trkpt lat="44.456891599090056" lon="8.10157183377755"><ele>727.0</ele><time>2026-05-02T15:01:30Z</time></trkpt><trkpt lat="44.45707832912394" lon="8.10158707075895"><ele>728.3333333333334</ele><time>2026-05-02T15:01:31Z</time></trkpt><trkpt lat="44.457269406941336" lon="8.101578541789594"><ele>729.6666666666666</ele><time>2026-05-02T15:01:32Z</time></trkpt><trkpt lat="44.45746251371042" lon="8.101524709625272"><ele>731.0</ele><time>2026-05-02T15:01:33Z</time></trkpt><trkpt lat="44.45765512253702" lon="8.101412157725697"><ele>731.0</ele><time>2026-05-02T15:01:34Z</time></trkpt><trkpt lat="44.457860342604576" lon="8.101287717630965"><ele>731.0</ele><time>2026-05-02T15:01:35Z</time></trkpt><trkpt lat="44.458069129661865" lon="8.10117187372947"><ele>731.0</ele><time>2026-05-02T15:01:36Z</time></trkpt><trkpt lat="44.4582719535068" lon="8.101054421399333"><ele>730.0</ele><time>2026-05-02T15:01:37Z</time></trkpt><trkpt lat="44.45846601661438" lon="8.10090344660411"><ele>729.0</ele><time>2026-05-02T15:01:38Z</time></trkpt><trkpt lat="44.458653521712854" lon="8.1007149554984"><ele>729.5</ele><time>2026-05-02T15:01:39Z</time></trkpt><trkpt lat="44.45884509574329" lon="8.100515839337756"><ele>730.0</ele><time>2026-05-02T15:01:40Z</time></trkpt><trkpt lat="44.45903319881052" lon="8.1003165999703"><ele>730.0</ele><time>2026-05-02T15:01:41Z</time></trkpt><trkpt lat="44.45922921513477" lon="8.100114597602637"><ele>730.0</ele><time>2026-05-02T15:01:42Z</time></trkpt><trkpt lat="44.459408778597854" lon="8.099930747786273"><ele>730.6666666666667</ele><time>2026-05-02T15:01:43Z</time></trkpt><trkpt lat="44.45958202965257" lon="8.09976000732917"><ele>731.3333333333334</ele><time>2026-05-02T15:01:44Z</time></trkpt><trkpt lat="44.459744540602834" lon="8.09960158569257"><ele>732.0</ele><time>2026-05-02T15:01:45Z</time></trkpt><trkpt lat="44.45989523989469" lon="8.099445693396444"><ele>732.0</ele><time>2026-05-02T15:01:46Z</time></trkpt><trkpt lat="44.4600405798447" lon="8.099301304000962"><ele>732.0</ele><time>2026-05-02T15:01:47Z</time></trkpt><trkpt lat="44.46017777016155" lon="8.099161795068948"><ele>732.0</ele><time>2026-05-02T15:01:48Z</time></trkpt><trkpt lat="44.460305595723476" lon="8.099044255299892"><ele>732.25</ele><time>2026-05-02T15:01:49Z</time></trkpt><trkpt lat="44.46042251477072" lon="8.098937461423757"><ele>732.5</ele><time>2026-05-02T15:01:50Z</time></trkpt><trkpt lat="44.46053280494296" lon="8.098841593546918"><ele>732.75</ele><time>2026-05-02T15:01:51Z</time></trkpt><trkpt lat="44.46063730932148" lon="8.098711641955578"><ele>733.0</ele><time>2026-05-02T15:01:52Z</time></trkpt><trkpt lat="44.460723934910526" lon="8.098518520020226"><ele>733.0</ele><time>2026-05-02T15:01:53Z</time></trkpt><trkpt lat="44.46080722967843" lon="8.098319931247064"><ele>733.0</ele><time>2026-05-02T15:01:54Z</time></trkpt><trkpt lat="44.46089420294299" lon="8.09810338122025"><ele>733.0</ele><time>2026-05-02T15:01:55Z</time></trkpt><trkpt lat="44.460977374010206" lon="8.097895099454966"><ele>735.0</ele><time>2026-05-02T15:01:56Z</time></trkpt><trkpt lat="44.46103774186443" lon="8.097691000081314"><ele>737.0</ele><time>2026-05-02T15:01:57Z</time></trkpt><trkpt lat="44.46106988526813" lon="8.097453777003961"><ele>739.0</ele><time>2026-05-02T15:01:58Z</time></trkpt><trkpt lat="44.46105600217577" lon="8.097199777051015"><ele>741.3333333333334</ele><time>2026-05-02T15:01:59Z</time></trkpt><trkpt lat="44.46103090638031" lon="8.096932100439915"><ele>743.6666666666666</ele><time>2026-05-02T15:02:00Z</time></trkpt><trkpt lat="44.46101731717858" lon="8.096658239971193"><ele>746.0</ele><time>2026-05-02T15:02:01Z</time></trkpt><trkpt lat="44.46101403025592" lon="8.096387193705695"><ele>748.0</ele><time>2026-05-02T15:02:02Z</time></trkpt><trkpt lat="44.461009470058535" lon="8.096112454768368"><ele>750.0</ele><time>2026-05-02T15:02:03Z</time></trkpt><trkpt lat="44.46100926861214" lon="8.095842117579846"><ele>752.0</ele><time>2026-05-02T15:02:04Z</time></trkpt><trkpt lat="44.461012883466395" lon="8.095555203415978"><ele>751.6666666666666</ele><time>2026-05-02T15:02:05Z</time></trkpt><trkpt lat="44.461020181914996" lon="8.095273193486285"><ele>751.3333333333334</ele><time>2026-05-02T15:02:06Z</time></trkpt><trkpt lat="44.46103067299242" lon="8.095020179428374"><ele>751.0</ele><time>2026-05-02T15:02:07Z</time></trkpt><trkpt lat="44.46105023373654" lon="8.094798415783341"><ele>751.0</ele><time>2026-05-02T15:02:08Z</time></trkpt><trkpt lat="44.46110191900174" lon="8.094590372546698"><ele>751.0</ele><time>2026-05-02T15:02:09Z</time></trkpt><trkpt lat="44.46118597938383" lon="8.094398608908014"><ele>751.0</ele><time>2026-05-02T15:02:10Z</time></trkpt><trkpt lat="44.46130872225173" lon="8.094237863792824"><ele>752.0</ele><time>2026-05-02T15:02:11Z</time></trkpt><trkpt lat="44.46146505626038" lon="8.094115586196796"><ele>753.0</ele><time>2026-05-02T15:02:12.001Z</time></trkpt><trkpt lat="44.46163999293316" lon="8.094026960599162"><ele>754.0</ele><time>2026-05-02T15:02:13.001Z</time></trkpt><trkpt lat="44.46184447724613" lon="8.09393549091674"><ele>754.0</ele><time>2026-05-02T15:02:14.001Z</time></trkpt><trkpt lat="44.46204620982224" lon="8.093842072174885"><ele>754.0</ele><time>2026-05-02T15:02:15.001Z</time></trkpt><trkpt lat="44.46224564686336" lon="8.093762785581859"><ele>754.0</ele><time>2026-05-02T15:02:16.001Z</time></trkpt><trkpt lat="44.46242665269161" lon="8.093717439512849"><ele>759.3333333333334</ele><time>2026-05-02T15:02:17.001Z</time></trkpt><trkpt lat="44.46260356785276" lon="8.093702543419687"><ele>764.6666666666667</ele><time>2026-05-02T15:02:18.001Z</time></trkpt><trkpt lat="44.46276038984719" lon="8.093727950281204"><ele>770.0</ele><time>2026-05-02T15:02:19.001Z</time></trkpt><trkpt lat="44.462950852945035" lon="8.093780676206036"><ele>773.3333333333334</ele><time>2026-05-02T15:02:20.001Z</time></trkpt><trkpt lat="44.46315079905144" lon="8.093847447337948"><ele>776.6666666666667</ele><time>2026-05-02T15:02:21.001Z</time></trkpt><trkpt lat="44.46335933422814" lon="8.093907967785055"><ele>780.0</ele><time>2026-05-02T15:02:22.001Z</time></trkpt><trkpt lat="44.463572124340715" lon="8.093924831157214"><ele>786.0</ele><time>2026-05-02T15:02:23.001Z</time></trkpt><trkpt lat="44.46379550056692" lon="8.093887059580279"><ele>792.0</ele><time>2026-05-02T15:02:24.001Z</time></trkpt><trkpt lat="44.46403312220514" lon="8.09376930400939"><ele>792.0</ele><time>2026-05-02T15:02:25.001Z</time></trkpt><trkpt lat="44.46429010954525" lon="8.0936492790935"><ele>792.0</ele><time>2026-05-02T15:02:26.001Z</time></trkpt><trkpt lat="44.46451525953778" lon="8.093558582235625"><ele>795.3333333333333</ele><time>2026-05-02T15:02:27.001Z</time></trkpt><trkpt lat="44.464683329151846" lon="8.09348153585414"><ele>798.6666666666666</ele><time>2026-05-02T15:02:28.001Z</time></trkpt><trkpt lat="44.46480676549968" lon="8.093370073514706"><ele>802.0</ele><time>2026-05-02T15:02:29.001Z</time></trkpt><trkpt lat="44.464873607160186" lon="8.093166330300733"><ele>806.0</ele><time>2026-05-02T15:02:30.001Z</time></trkpt><trkpt lat="44.46488523310496" lon="8.092923226018973"><ele>810.0</ele><time>2026-05-02T15:02:31.001Z</time></trkpt><trkpt lat="44.46488354688787" lon="8.092541495097612"><ele>814.0</ele><time>2026-05-02T15:02:32.001Z</time></trkpt><trkpt lat="44.464860021245826" lon="8.092186720727804"><ele>817.5</ele><time>2026-05-02T15:02:33.001Z</time></trkpt><trkpt lat="44.46483841742444" lon="8.091835006004615"><ele>821.0</ele><time>2026-05-02T15:02:34.001Z</time></trkpt><trkpt lat="44.4648163285433" lon="8.091535261591053"><ele>821.5</ele><time>2026-05-02T15:02:35.001Z</time></trkpt><trkpt lat="44.4648047625503" lon="8.0913137619718"><ele>822.0</ele><time>2026-05-02T15:02:36.001Z</time></trkpt><trkpt lat="44.464829474342096" lon="8.091123159239718"><ele>822.5</ele><time>2026-05-02T15:02:37.001Z</time></trkpt><trkpt lat="44.464885880102216" lon="8.090936080302562"><ele>823.0</ele><time>2026-05-02T15:02:38.001Z</time></trkpt><trkpt lat="44.464992580784596" lon="8.09081451425766"><ele>820.3333333333333</ele><time>2026-05-02T15:02:39.001Z</time></trkpt><trkpt lat="44.46512866059747" lon="8.090712372636164"><ele>817.6666666666667</ele><time>2026-05-02T15:02:40.001Z</time></trkpt><trkpt lat="44.46527913776018" lon="8.090629710924038"><ele>815.0</ele><time>2026-05-02T15:02:41.001Z</time></trkpt><trkpt lat="44.465424295885015" lon="8.090520446252672"><ele>820.3333333333334</ele><time>2026-05-02T15:02:42.001Z</time></trkpt><trkpt lat="44.46558246823538" lon="8.090447452077886"><ele>825.6666666666667</ele><time>2026-05-02T15:02:43.001Z</time></trkpt><trkpt lat="44.46573972564283" lon="8.090342614205209"><ele>831.0</ele><time>2026-05-02T15:02:44.001Z</time></trkpt><trkpt lat="44.465877723507084" lon="8.090178670468672"><ele>831.0</ele><time>2026-05-02T15:02:45.001Z</time></trkpt><trkpt lat="44.46600141363313" lon="8.08998742392973"><ele>831.0</ele><time>2026-05-02T15:02:46.001Z</time></trkpt><trkpt lat="44.4661163964543" lon="8.089777544311318"><ele>831.0</ele><time>2026-05-02T15:02:47.001Z</time></trkpt><trkpt lat="44.46622413935538" lon="8.089558825446167"><ele>835.0</ele><time>2026-05-02T15:02:48Z</time></trkpt><trkpt lat="44.46632007057786" lon="8.089326981050604"><ele>839.0</ele><time>2026-05-02T15:02:49Z</time></trkpt><trkpt lat="44.4664147329068" lon="8.089090052300188"><ele>843.0</ele><time>2026-05-02T15:02:50Z</time></trkpt><trkpt lat="44.46652159336599" lon="8.088862628600488"><ele>843.0</ele><time>2026-05-02T15:02:51Z</time></trkpt><trkpt lat="44.46664403440392" lon="8.08864918930284"><ele>843.0</ele><time>2026-05-02T15:02:52Z</time></trkpt><trkpt lat="44.46678038753829" lon="8.088445170913275"><ele>843.0</ele><time>2026-05-02T15:02:53Z</time></trkpt><trkpt lat="44.46691784816411" lon="8.088240694436644"><ele>839.3333333333333</ele><time>2026-05-02T15:02:54Z</time></trkpt><trkpt lat="44.46704602332941" lon="8.088028803098178"><ele>835.6666666666666</ele><time>2026-05-02T15:02:55Z</time></trkpt><trkpt lat="44.46715569258647" lon="8.087815755998353"><ele>832.0</ele><time>2026-05-02T15:02:56Z</time></trkpt><trkpt lat="44.46723726672452" lon="8.087599677445342"><ele>845.3333333333333</ele><time>2026-05-02T15:02:57Z</time></trkpt><trkpt lat="44.46727932956927" lon="8.08736368137365"><ele>858.6666666666667</ele><time>2026-05-02T15:02:58Z</time></trkpt><trkpt lat="44.46728653426408" lon="8.087106402429109"><ele>872.0</ele><time>2026-05-02T15:02:59Z</time></trkpt><trkpt lat="44.46726550469446" lon="8.086834985800849"><ele>871.6666666666667</ele><time>2026-05-02T15:03:00Z</time></trkpt><trkpt lat="44.46724668852652" lon="8.086564313961427"><ele>871.3333333333333</ele><time>2026-05-02T15:03:01Z</time></trkpt><trkpt lat="44.46727212766097" lon="8.08629517204563"><ele>871.0</ele><time>2026-05-02T15:03:02Z</time></trkpt><trkpt lat="44.46731313488361" lon="8.08603485031104"><ele>871.0</ele><time>2026-05-02T15:03:03Z</time></trkpt><trkpt lat="44.46735184934025" lon="8.085763203826737"><ele>871.0</ele><time>2026-05-02T15:03:04Z</time></trkpt><trkpt lat="44.46742272441719" lon="8.085491575002958"><ele>871.0</ele><time>2026-05-02T15:03:05Z</time></trkpt><trkpt lat="44.4674686919875" lon="8.085224241591844"><ele>871.3333333333333</ele><time>2026-05-02T15:03:06Z</time></trkpt><trkpt lat="44.46751472052204" lon="8.084983782122805"><ele>871.6666666666667</ele><time>2026-05-02T15:03:07Z</time></trkpt><trkpt lat="44.46753176034182" lon="8.084736711879403"><ele>872.0</ele><time>2026-05-02T15:03:08Z</time></trkpt><trkpt lat="44.4674201933018" lon="8.084514999726304"><ele>872.0</ele><time>2026-05-02T15:03:09Z</time></trkpt><trkpt lat="44.46739387676293" lon="8.084303809011997"><ele>872.0</ele><time>2026-05-02T15:03:10Z</time></trkpt><trkpt lat="44.46737247239551" lon="8.084097709665453"><ele>872.0</ele><time>2026-05-02T15:03:11Z</time></trkpt><trkpt lat="44.467355844348795" lon="8.083911561146921"><ele>872.0</ele><time>2026-05-02T15:03:12Z</time></trkpt><trkpt lat="44.46735530759845" lon="8.083752710433629"><ele>870.0</ele><time>2026-05-02T15:03:13Z</time></trkpt><trkpt lat="44.467383088769516" lon="8.08359433959517"><ele>868.0</ele><time>2026-05-02T15:03:14Z</time></trkpt><trkpt lat="44.46745486375007" lon="8.083415645481889"><ele>866.0</ele><time>2026-05-02T15:03:15Z</time></trkpt><trkpt lat="44.46754588259983" lon="8.083243325999677"><ele>864.0</ele><time>2026-05-02T15:03:16Z</time></trkpt><trkpt lat="44.46765172989492" lon="8.083079677981798"><ele>863.0</ele><time>2026-05-02T15:03:17Z</time></trkpt><trkpt lat="44.46776630615638" lon="8.082939613127639"><ele>862.0</ele><time>2026-05-02T15:03:18Z</time></trkpt><trkpt lat="44.467892434072596" lon="8.0828412303292"><ele>861.0</ele><time>2026-05-02T15:03:19Z</time></trkpt><trkpt lat="44.468026984783556" lon="8.08279688971941"><ele>860.0</ele><time>2026-05-02T15:03:20Z</time></trkpt><trkpt lat="44.46815267868628" lon="8.08273225979203"><ele>860.0</ele><time>2026-05-02T15:03:21Z</time></trkpt><trkpt lat="44.46828426094181" lon="8.082717693540186"><ele>860.0</ele><time>2026-05-02T15:03:22Z</time></trkpt><trkpt lat="44.46841758047385" lon="8.082724087102735"><ele>860.0</ele><time>2026-05-02T15:03:23Z</time></trkpt><trkpt lat="44.46854830475945" lon="8.082792481816577"><ele>860.0</ele><time>2026-05-02T15:03:24Z</time></trkpt><trkpt lat="44.46868591504147" lon="8.082836339226441"><ele>855.0</ele><time>2026-05-02T15:03:25Z</time></trkpt><trkpt lat="44.468821869229885" lon="8.08291357039818"><ele>850.0</ele><time>2026-05-02T15:03:26Z</time></trkpt><trkpt lat="44.46910692016038" lon="8.083076434102203"><ele>850.0</ele><time>2026-05-02T15:03:28Z</time></trkpt><trkpt lat="44.46924920139737" lon="8.083186737446457"><ele>850.0</ele><time>2026-05-02T15:03:29Z</time></trkpt><trkpt lat="44.46940158125169" lon="8.083279917180286"><ele>850.0</ele><time>2026-05-02T15:03:30Z</time></trkpt><trkpt lat="44.46956752163369" lon="8.083378535448665"><ele>849.0</ele><time>2026-05-02T15:03:31Z</time></trkpt><trkpt lat="44.46974361842013" lon="8.083454210358235"><ele>848.0</ele><time>2026-05-02T15:03:32Z</time></trkpt><trkpt lat="44.46992669195671" lon="8.083547012664228"><ele>847.0</ele><time>2026-05-02T15:03:33Z</time></trkpt><trkpt lat="44.47012856508185" lon="8.0836242599834"><ele>847.0</ele><time>2026-05-02T15:03:34Z</time></trkpt><trkpt lat="44.47034032156082" lon="8.083687649731758"><ele>847.0</ele><time>2026-05-02T15:03:35Z</time></trkpt><trkpt lat="44.47056001868594" lon="8.083745481707345"><ele>847.0</ele><time>2026-05-02T15:03:36Z</time></trkpt><trkpt lat="44.47078022530171" lon="8.083820618609916"><ele>840.5</ele><time>2026-05-02T15:03:37Z</time></trkpt><trkpt lat="44.471010470924405" lon="8.083876473847603"><ele>834.0</ele><time>2026-05-02T15:03:38Z</time></trkpt><trkpt lat="44.471244285552594" lon="8.083934171447934"><ele>828.5</ele><time>2026-05-02T15:03:39Z</time></trkpt><trkpt lat="44.471482839460464" lon="8.083994740108546"><ele>823.0</ele><time>2026-05-02T15:03:40Z</time></trkpt><trkpt lat="44.47172373318345" lon="8.084056017492491"><ele>826.5</ele><time>2026-05-02T15:03:41Z</time></trkpt><trkpt lat="44.47196622168832" lon="8.084117700537151"><ele>830.0</ele><time>2026-05-02T15:03:42Z</time></trkpt><trkpt lat="44.47221227488414" lon="8.084180290365131"><ele>830.0</ele><time>2026-05-02T15:03:43Z</time></trkpt><trkpt lat="44.47245709383743" lon="8.084242566221217"><ele>830.0</ele><time>2026-05-02T15:03:44Z</time></trkpt><trkpt lat="44.47270232260217" lon="8.084304946359616"><ele>826.0</ele><time>2026-05-02T15:03:45Z</time></trkpt><trkpt lat="44.47294176868949" lon="8.084365855549095"><ele>822.0</ele><time>2026-05-02T15:03:46Z</time></trkpt><trkpt lat="44.47318415797574" lon="8.084426643326866"><ele>822.0</ele><time>2026-05-02T15:03:47Z</time></trkpt><trkpt lat="44.47343896819485" lon="8.084490328650352"><ele>822.0</ele><time>2026-05-02T15:03:48Z</time></trkpt><trkpt lat="44.47368671691581" lon="8.084549159131859"><ele>822.5</ele><time>2026-05-02T15:03:49Z</time></trkpt><trkpt lat="44.4739451231704" lon="8.084612035009398"><ele>823.0</ele><time>2026-05-02T15:03:50Z</time></trkpt><trkpt lat="44.474204813283244" lon="8.084677541368805"><ele>823.0</ele><time>2026-05-02T15:03:51Z</time></trkpt><trkpt lat="44.47446539683038" lon="8.084744179747135"><ele>823.0</ele><time>2026-05-02T15:03:52Z</time></trkpt><trkpt lat="44.474730801300176" lon="8.084812050968196"><ele>824.5</ele><time>2026-05-02T15:03:53Z</time></trkpt><trkpt lat="44.474992904224614" lon="8.084878909410941"><ele>826.0</ele><time>2026-05-02T15:03:54Z</time></trkpt><trkpt lat="44.47525940028172" lon="8.084944035755077"><ele>826.0</ele><time>2026-05-02T15:03:55Z</time></trkpt><trkpt lat="44.47551789381293" lon="8.085009336180098"><ele>826.0</ele><time>2026-05-02T15:03:56Z</time></trkpt><trkpt lat="44.475774946410546" lon="8.085082170070285"><ele>826.0</ele><time>2026-05-02T15:03:57Z</time></trkpt><trkpt lat="44.47602207079762" lon="8.085163998294183"><ele>826.0</ele><time>2026-05-02T15:03:58Z</time></trkpt><trkpt lat="44.4762519951712" lon="8.085259622262171"><ele>826.0</ele><time>2026-05-02T15:03:59Z</time></trkpt><trkpt lat="44.4764836423545" lon="8.085359464119426"><ele>826.0</ele><time>2026-05-02T15:04:00Z</time></trkpt><trkpt lat="44.4767207386505" lon="8.0854350900406"><ele>826.0</ele><time>2026-05-02T15:04:01Z</time></trkpt><trkpt lat="44.476960416156246" lon="8.085484720868504"><ele>826.0</ele><time>2026-05-02T15:04:02Z</time></trkpt><trkpt lat="44.477198585532435" lon="8.085519943724663"><ele>824.5</ele><time>2026-05-02T15:04:03Z</time></trkpt><trkpt lat="44.47745109598234" lon="8.085546338588086"><ele>823.0</ele><time>2026-05-02T15:04:04Z</time></trkpt><trkpt lat="44.47769762825725" lon="8.085564259861723"><ele>822.0</ele><time>2026-05-02T15:04:05Z</time></trkpt><trkpt lat="44.4779500062552" lon="8.085570449046571"><ele>821.0</ele><time>2026-05-02T15:04:06Z</time></trkpt><trkpt lat="44.47819904413888" lon="8.085554157347799"><ele>821.0</ele><time>2026-05-02T15:04:07Z</time></trkpt><trkpt lat="44.47844656515014" lon="8.085488354625134"><ele>821.0</ele><time>2026-05-02T15:04:08Z</time></trkpt><trkpt lat="44.47869915724886" lon="8.085454013349901"><ele>824.0</ele><time>2026-05-02T15:04:09Z</time></trkpt><trkpt lat="44.47894676314076" lon="8.08540154170496"><ele>827.0</ele><time>2026-05-02T15:04:10Z</time></trkpt><trkpt lat="44.479188126745996" lon="8.085350393901518"><ele>827.0</ele><time>2026-05-02T15:04:11Z</time></trkpt><trkpt lat="44.479409596409056" lon="8.085303462547554"><ele>827.0</ele><time>2026-05-02T15:04:12Z</time></trkpt><trkpt lat="44.4796209963922" lon="8.085258665046275"><ele>827.0</ele><time>2026-05-02T15:04:13Z</time></trkpt><trkpt lat="44.47983335009184" lon="8.085133394632027"><ele>827.5</ele><time>2026-05-02T15:04:14Z</time></trkpt><trkpt lat="44.48005731134373" lon="8.085038472964948"><ele>828.0</ele><time>2026-05-02T15:04:15Z</time></trkpt><trkpt lat="44.48027096979852" lon="8.084944463472446"><ele>829.0</ele><time>2026-05-02T15:04:16Z</time></trkpt><trkpt lat="44.48046746769536" lon="8.084855616811375"><ele>830.0</ele><time>2026-05-02T15:04:17Z</time></trkpt><trkpt lat="44.480659031713216" lon="8.08476103643221"><ele>831.0</ele><time>2026-05-02T15:04:18Z</time></trkpt><trkpt lat="44.48082856443857" lon="8.084646517681426"><ele>831.0</ele><time>2026-05-02T15:04:19Z</time></trkpt><trkpt lat="44.48099229448091" lon="8.08456647979098"><ele>831.0</ele><time>2026-05-02T15:04:20Z</time></trkpt><trkpt lat="44.48115504928297" lon="8.084518203763647"><ele>831.0</ele><time>2026-05-02T15:04:21Z</time></trkpt><trkpt lat="44.481313301154856" lon="8.084519078971105"><ele>828.25</ele><time>2026-05-02T15:04:22Z</time></trkpt><trkpt lat="44.48145407205436" lon="8.084570732935225"><ele>825.5</ele><time>2026-05-02T15:04:23Z</time></trkpt><trkpt lat="44.481584547292925" lon="8.084627929209875"><ele>822.75</ele><time>2026-05-02T15:04:24Z</time></trkpt><trkpt lat="44.48170188820881" lon="8.084683355101165"><ele>820.0</ele><time>2026-05-02T15:04:25Z</time></trkpt><trkpt lat="44.48181985310017" lon="8.084699765312061"><ele>820.0</ele><time>2026-05-02T15:04:26Z</time></trkpt><trkpt lat="44.481952369946086" lon="8.084668356850216"><ele>820.0</ele><time>2026-05-02T15:04:27Z</time></trkpt><trkpt lat="44.482096292668146" lon="8.084596025090454"><ele>820.0</ele><time>2026-05-02T15:04:28Z</time></trkpt><trkpt lat="44.48222816756011" lon="8.08450851749037"><ele>820.0</ele><time>2026-05-02T15:04:29Z</time></trkpt><trkpt lat="44.48234905228617" lon="8.084415572389775"><ele>815.3333333333333</ele><time>2026-05-02T15:04:30Z</time></trkpt><trkpt lat="44.4824719156733" lon="8.08432051847282"><ele>810.6666666666667</ele><time>2026-05-02T15:04:31Z</time></trkpt><trkpt lat="44.482615091395814" lon="8.084226437490319"><ele>806.0</ele><time>2026-05-02T15:04:32Z</time></trkpt><trkpt lat="44.48277550612438" lon="8.08415265446816"><ele>803.6666666666667</ele><time>2026-05-02T15:04:33Z</time></trkpt><trkpt lat="44.482943744908745" lon="8.084103701602203"><ele>801.3333333333333</ele><time>2026-05-02T15:04:34Z</time></trkpt><trkpt lat="44.48311591875741" lon="8.084076966143444"><ele>799.0</ele><time>2026-05-02T15:04:35Z</time></trkpt><trkpt lat="44.48329154164234" lon="8.08408553331864"><ele>798.6666666666666</ele><time>2026-05-02T15:04:36Z</time></trkpt><trkpt lat="44.48349231862054" lon="8.084114681113967"><ele>798.3333333333333</ele><time>2026-05-02T15:04:37Z</time></trkpt><trkpt lat="44.48372114741853" lon="8.08415451620642"><ele>798.0</ele><time>2026-05-02T15:04:38Z</time></trkpt><trkpt lat="44.48395674095598" lon="8.084206652257558"><ele>797.5</ele><time>2026-05-02T15:04:39Z</time></trkpt><trkpt lat="44.48419473425862" lon="8.084265591957625"><ele>797.0</ele><time>2026-05-02T15:04:40Z</time></trkpt><trkpt lat="44.484430988859714" lon="8.08431797018762"><ele>797.5</ele><time>2026-05-02T15:04:41Z</time></trkpt><trkpt lat="44.48466447343189" lon="8.084383995296943"><ele>798.0</ele><time>2026-05-02T15:04:42Z</time></trkpt><trkpt lat="44.48489413146605" lon="8.084491649722022"><ele>798.0</ele><time>2026-05-02T15:04:43Z</time></trkpt><trkpt lat="44.485114614762274" lon="8.084614297614273"><ele>798.0</ele><time>2026-05-02T15:04:44Z</time></trkpt><trkpt lat="44.48532453176841" lon="8.084733315306151"><ele>797.6666666666667</ele><time>2026-05-02T15:04:45Z</time></trkpt><trkpt lat="44.48552326900465" lon="8.084842475052676"><ele>797.3333333333334</ele><time>2026-05-02T15:04:46Z</time></trkpt><trkpt lat="44.485709928426566" lon="8.08494705262238"><ele>797.0</ele><time>2026-05-02T15:04:47Z</time></trkpt><trkpt lat="44.48590689873096" lon="8.085052010118494"><ele>797.0</ele><time>2026-05-02T15:04:48Z</time></trkpt><trkpt lat="44.48611249292116" lon="8.085143202080795"><ele>797.0</ele><time>2026-05-02T15:04:49Z</time></trkpt><trkpt lat="44.486325828846056" lon="8.08520717569118"><ele>797.0</ele><time>2026-05-02T15:04:50Z</time></trkpt><trkpt lat="44.486545502489705" lon="8.08522067654717"><ele>797.0</ele><time>2026-05-02T15:04:51Z</time></trkpt><trkpt lat="44.486765629544564" lon="8.085185049427167"><ele>797.0</ele><time>2026-05-02T15:04:52Z</time></trkpt><trkpt lat="44.48698093387595" lon="8.085113155854991"><ele>797.0</ele><time>2026-05-02T15:04:53Z</time></trkpt><trkpt lat="44.487170629539904" lon="8.08501038006137"><ele>796.3333333333334</ele><time>2026-05-02T15:04:54Z</time></trkpt><trkpt lat="44.48734391326289" lon="8.084895643201378"><ele>795.6666666666667</ele><time>2026-05-02T15:04:55Z</time></trkpt><trkpt lat="44.48749238275709" lon="8.084753798916635"><ele>795.0</ele><time>2026-05-02T15:04:56Z</time></trkpt><trkpt lat="44.487625242018694" lon="8.084585614291804"><ele>795.0</ele><time>2026-05-02T15:04:57Z</time></trkpt><trkpt lat="44.48775041449607" lon="8.084369115406385"><ele>795.0</ele><time>2026-05-02T15:04:58Z</time></trkpt><trkpt lat="44.48788409666349" lon="8.084105882632821"><ele>795.0</ele><time>2026-05-02T15:04:59Z</time></trkpt><trkpt lat="44.488005937156515" lon="8.08382286334068"><ele>794.5</ele><time>2026-05-02T15:05:00Z</time></trkpt><trkpt lat="44.488116454324036" lon="8.083520764874422"><ele>794.0</ele><time>2026-05-02T15:05:01Z</time></trkpt><trkpt lat="44.488215977079626" lon="8.083234505545715"><ele>794.0</ele><time>2026-05-02T15:05:02Z</time></trkpt><trkpt lat="44.48830665588527" lon="8.082982290100999"><ele>794.0</ele><time>2026-05-02T15:05:03Z</time></trkpt><trkpt lat="44.488400613208206" lon="8.082783668079268"><ele>794.0</ele><time>2026-05-02T15:05:04Z</time></trkpt><trkpt lat="44.488527266069084" lon="8.082639990970183"><ele>794.0</ele><time>2026-05-02T15:05:05Z</time></trkpt><trkpt lat="44.48868227142592" lon="8.082555267563311"><ele>794.0</ele><time>2026-05-02T15:05:06Z</time></trkpt><trkpt lat="44.48885117903213" lon="8.082591887690317"><ele>794.0</ele><time>2026-05-02T15:05:07Z</time></trkpt><trkpt lat="44.48902667970698" lon="8.082638364547147"><ele>795.6666666666667</ele><time>2026-05-02T15:05:08Z</time></trkpt><trkpt lat="44.48922470916437" lon="8.08268678065707"><ele>797.3333333333333</ele><time>2026-05-02T15:05:09Z</time></trkpt><trkpt lat="44.48943158667257" lon="8.082755799103028"><ele>799.0</ele><time>2026-05-02T15:05:10Z</time></trkpt><trkpt lat="44.48963867409897" lon="8.082826997926155"><ele>799.0</ele><time>2026-05-02T15:05:11Z</time></trkpt><trkpt lat="44.489856690149274" lon="8.082902362891078"><ele>799.0</ele><time>2026-05-02T15:05:12Z</time></trkpt><trkpt lat="44.490064912027464" lon="8.082973802449473"><ele>799.0</ele><time>2026-05-02T15:05:13Z</time></trkpt><trkpt lat="44.49024713443656" lon="8.083034686286073"><ele>799.0</ele><time>2026-05-02T15:05:14Z</time></trkpt><trkpt lat="44.49041410044479" lon="8.083039648644693"><ele>799.0</ele><time>2026-05-02T15:05:15Z</time></trkpt><trkpt lat="44.490565641045485" lon="8.082968136329292"><ele>799.0</ele><time>2026-05-02T15:05:16Z</time></trkpt><trkpt lat="44.49068972874642" lon="8.08281270859036"><ele>804.6666666666666</ele><time>2026-05-02T15:05:17Z</time></trkpt><trkpt lat="44.49076318795395" lon="8.082603178780547"><ele>810.3333333333333</ele><time>2026-05-02T15:05:18Z</time></trkpt><trkpt lat="44.49077643562883" lon="8.082362595541937"><ele>816.0</ele><time>2026-05-02T15:05:19Z</time></trkpt><trkpt lat="44.49072234147524" lon="8.082130812254277"><ele>818.3333333333333</ele><time>2026-05-02T15:05:20Z</time></trkpt><trkpt lat="44.490602297588524" lon="8.081897912580315"><ele>820.6666666666666</ele><time>2026-05-02T15:05:21Z</time></trkpt><trkpt lat="44.49047327459692" lon="8.081648303863206"><ele>823.0</ele><time>2026-05-02T15:05:22Z</time></trkpt><trkpt lat="44.490370801714846" lon="8.081378444800492"><ele>814.0</ele><time>2026-05-02T15:05:23Z</time></trkpt><trkpt lat="44.490279000382145" lon="8.081113471482757"><ele>805.0</ele><time>2026-05-02T15:05:24Z</time></trkpt><trkpt lat="44.49021173799222" lon="8.080857699792947"><ele>796.0</ele><time>2026-05-02T15:05:25Z</time></trkpt><trkpt lat="44.49016973288564" lon="8.08064630952207"><ele>795.75</ele><time>2026-05-02T15:05:26Z</time></trkpt><trkpt lat="44.49017136338496" lon="8.08045636253283"><ele>795.5</ele><time>2026-05-02T15:05:27Z</time></trkpt><trkpt lat="44.490230975354166" lon="8.080271006285145"><ele>795.25</ele><time>2026-05-02T15:05:28Z</time></trkpt><trkpt lat="44.49033806647799" lon="8.08011272050538"><ele>795.0</ele><time>2026-05-02T15:05:29Z</time></trkpt><trkpt lat="44.490497795564536" lon="8.079991373314858"><ele>798.0</ele><time>2026-05-02T15:05:30Z</time></trkpt><trkpt lat="44.49066738159339" lon="8.079866585931718"><ele>801.0</ele><time>2026-05-02T15:05:31Z</time></trkpt><trkpt lat="44.49081485367888" lon="8.07968267974632"><ele>804.0</ele><time>2026-05-02T15:05:32Z</time></trkpt><trkpt lat="44.49092687142115" lon="8.079424290536865"><ele>804.0</ele><time>2026-05-02T15:05:33Z</time></trkpt><trkpt lat="44.49099869731446" lon="8.079123482368006"><ele>804.0</ele><time>2026-05-02T15:05:34Z</time></trkpt><trkpt lat="44.49102879443723" lon="8.07882969097043"><ele>804.0</ele><time>2026-05-02T15:05:35Z</time></trkpt><trkpt lat="44.491088513925824" lon="8.078543703936624"><ele>804.0</ele><time>2026-05-02T15:05:36Z</time></trkpt><trkpt lat="44.491152882430384" lon="8.078348081914319"><ele>804.0</ele><time>2026-05-02T15:05:37Z</time></trkpt><trkpt lat="44.49126776178266" lon="8.07818066391247"><ele>804.0</ele><time>2026-05-02T15:05:38Z</time></trkpt><trkpt lat="44.49141605052876" lon="8.078056170298968"><ele>801.3333333333333</ele><time>2026-05-02T15:05:39Z</time></trkpt><trkpt lat="44.49158281589472" lon="8.077927264339827"><ele>798.6666666666666</ele><time>2026-05-02T15:05:40Z</time></trkpt><trkpt lat="44.491803674206515" lon="8.077862843652584"><ele>796.0</ele><time>2026-05-02T15:05:41Z</time></trkpt><trkpt lat="44.49204465168707" lon="8.077778174199533"><ele>795.6666666666666</ele><time>2026-05-02T15:05:42Z</time></trkpt><trkpt lat="44.49225224642755" lon="8.077655122294091"><ele>795.3333333333333</ele><time>2026-05-02T15:05:43Z</time></trkpt><trkpt lat="44.49241566361131" lon="8.077451065561814"><ele>795.0</ele><time>2026-05-02T15:05:44Z</time></trkpt><trkpt lat="44.492527793794295" lon="8.077194308093677"><ele>795.0</ele><time>2026-05-02T15:05:45Z</time></trkpt><trkpt lat="44.49262226995034" lon="8.076950736454293"><ele>795.0</ele><time>2026-05-02T15:05:46Z</time></trkpt><trkpt lat="44.49276940395254" lon="8.076730289855762"><ele>795.0</ele><time>2026-05-02T15:05:47Z</time></trkpt><trkpt lat="44.49294946642499" lon="8.076505692963229"><ele>798.5</ele><time>2026-05-02T15:05:48Z</time></trkpt><trkpt lat="44.49313089661552" lon="8.076284593147198"><ele>802.0</ele><time>2026-05-02T15:05:49Z</time></trkpt><trkpt lat="44.49331213783361" lon="8.0760620376656"><ele>802.0</ele><time>2026-05-02T15:05:50Z</time></trkpt><trkpt lat="44.49348815648159" lon="8.075851557494055"><ele>802.0</ele><time>2026-05-02T15:05:51Z</time></trkpt><trkpt lat="44.493652032106475" lon="8.075696921535656"><ele>802.0</ele><time>2026-05-02T15:05:52Z</time></trkpt><trkpt lat="44.49385257198378" lon="8.075569039133581"><ele>801.0</ele><time>2026-05-02T15:05:53Z</time></trkpt><trkpt lat="44.4940752027889" lon="8.075465927569873"><ele>800.0</ele><time>2026-05-02T15:05:54Z</time></trkpt><trkpt lat="44.49430992634843" lon="8.075367407702373"><ele>800.0</ele><time>2026-05-02T15:05:55Z</time></trkpt><trkpt lat="44.49452504247414" lon="8.075229834223872"><ele>800.0</ele><time>2026-05-02T15:05:56Z</time></trkpt><trkpt lat="44.49471174516" lon="8.075042090428393"><ele>801.5</ele><time>2026-05-02T15:05:57Z</time></trkpt><trkpt lat="44.494895498508" lon="8.074805344339467"><ele>803.0</ele><time>2026-05-02T15:05:58Z</time></trkpt><trkpt lat="44.495050052043304" lon="8.07454497289878"><ele>803.0</ele><time>2026-05-02T15:05:59Z</time></trkpt><trkpt lat="44.49517670298813" lon="8.074366983065838"><ele>803.0</ele><time>2026-05-02T15:06:00Z</time></trkpt><trkpt lat="44.49531557575174" lon="8.074285945047976"><ele>803.0</ele><time>2026-05-02T15:06:01Z</time></trkpt><trkpt lat="44.49544989585744" lon="8.07429161369392"><ele>804.6666666666667</ele><time>2026-05-02T15:06:02Z</time></trkpt><trkpt lat="44.49558538767478" lon="8.074353740730718"><ele>806.3333333333333</ele><time>2026-05-02T15:06:03Z</time></trkpt><trkpt lat="44.495707666494255" lon="8.074463092557378"><ele>808.0</ele><time>2026-05-02T15:06:04Z</time></trkpt><trkpt lat="44.49580379073848" lon="8.07470317964674"><ele>811.3333333333333</ele><time>2026-05-02T15:06:05Z</time></trkpt><trkpt lat="44.49589173410828" lon="8.074942731601146"><ele>814.6666666666667</ele><time>2026-05-02T15:06:06Z</time></trkpt><trkpt lat="44.49600394931761" lon="8.075213380199306"><ele>818.0</ele><time>2026-05-02T15:06:07Z</time></trkpt><trkpt lat="44.49609864076986" lon="8.075485768692396"><ele>818.0</ele><time>2026-05-02T15:06:08Z</time></trkpt><trkpt lat="44.49615940744572" lon="8.07576106009927"><ele>818.0</ele><time>2026-05-02T15:06:09Z</time></trkpt><trkpt lat="44.496186005263816" lon="8.076043721889896"><ele>818.0</ele><time>2026-05-02T15:06:10Z</time></trkpt><trkpt lat="44.49620074778992" lon="8.076350717760015"><ele>820.0</ele><time>2026-05-02T15:06:11Z</time></trkpt><trkpt lat="44.49619533284918" lon="8.076670617662373"><ele>822.0</ele><time>2026-05-02T15:06:12Z</time></trkpt><trkpt lat="44.496215803604095" lon="8.076993569244594"><ele>822.0</ele><time>2026-05-02T15:06:13Z</time></trkpt><trkpt lat="44.49624632501393" lon="8.077279621536592"><ele>822.0</ele><time>2026-05-02T15:06:14Z</time></trkpt><trkpt lat="44.49630618363196" lon="8.077557075673102"><ele>822.0</ele><time>2026-05-02T15:06:15Z</time></trkpt><trkpt lat="44.496401412249575" lon="8.07784024088171"><ele>816.0</ele><time>2026-05-02T15:06:16Z</time></trkpt><trkpt lat="44.49653207358775" lon="8.078119102300652"><ele>810.0</ele><time>2026-05-02T15:06:17Z</time></trkpt><trkpt lat="44.49668075929815" lon="8.078402033722552"><ele>810.0</ele><time>2026-05-02T15:06:18Z</time></trkpt><trkpt lat="44.49680521041284" lon="8.078703215688234"><ele>810.0</ele><time>2026-05-02T15:06:19Z</time></trkpt><trkpt lat="44.49693198376664" lon="8.0789781961659"><ele>809.6666666666667</ele><time>2026-05-02T15:06:20Z</time></trkpt><trkpt lat="44.49704577305929" lon="8.079225040411249"><ele>809.3333333333334</ele><time>2026-05-02T15:06:21Z</time></trkpt><trkpt lat="44.49717715572558" lon="8.079433432312404"><ele>809.0</ele><time>2026-05-02T15:06:22Z</time></trkpt><trkpt lat="44.49732451228662" lon="8.079613154598341"><ele>809.0</ele><time>2026-05-02T15:06:23Z</time></trkpt><trkpt lat="44.49752142147664" lon="8.079754750892326"><ele>809.0</ele><time>2026-05-02T15:06:24Z</time></trkpt><trkpt lat="44.49773971180098" lon="8.079834337516496"><ele>809.0</ele><time>2026-05-02T15:06:25Z</time></trkpt><trkpt lat="44.497971511237346" lon="8.079861206825717"><ele>807.0</ele><time>2026-05-02T15:06:26Z</time></trkpt><trkpt lat="44.49820309486941" lon="8.079893483391336"><ele>805.0</ele><time>2026-05-02T15:06:27Z</time></trkpt><trkpt lat="44.498437070575115" lon="8.07992604844866"><ele>807.0</ele><time>2026-05-02T15:06:28Z</time></trkpt><trkpt lat="44.49867139204919" lon="8.079962060226473"><ele>809.0</ele><time>2026-05-02T15:06:29Z</time></trkpt><trkpt lat="44.4988975577467" lon="8.079975986119425"><ele>809.6666666666667</ele><time>2026-05-02T15:06:30Z</time></trkpt><trkpt lat="44.49911205447663" lon="8.080015719994032"><ele>810.3333333333333</ele><time>2026-05-02T15:06:31Z</time></trkpt><trkpt lat="44.499319071151106" lon="8.08005012351896"><ele>811.0</ele><time>2026-05-02T15:06:32Z</time></trkpt><trkpt lat="44.49952817229118" lon="8.08007364386156"><ele>815.6666666666666</ele><time>2026-05-02T15:06:33Z</time></trkpt><trkpt lat="44.49973147482598" lon="8.080101256986987"><ele>820.3333333333333</ele><time>2026-05-02T15:06:34Z</time></trkpt><trkpt lat="44.499930163825105" lon="8.080135282804664"><ele>825.0</ele><time>2026-05-02T15:06:35Z</time></trkpt><trkpt lat="44.50013150949644" lon="8.0801699083555"><ele>825.0</ele><time>2026-05-02T15:06:36Z</time></trkpt><trkpt lat="44.50033774366311" lon="8.08019474565813"><ele>825.0</ele><time>2026-05-02T15:06:37Z</time></trkpt><trkpt lat="44.500546540477046" lon="8.080245217468258"><ele>825.0</ele><time>2026-05-02T15:06:38Z</time></trkpt><trkpt lat="44.50075652853161" lon="8.080261085605652"><ele>829.3333333333333</ele><time>2026-05-02T15:06:39Z</time></trkpt><trkpt lat="44.500967176664716" lon="8.080305362359706"><ele>833.6666666666666</ele><time>2026-05-02T15:06:40Z</time></trkpt><trkpt lat="44.50117296852008" lon="8.080384671890558"><ele>838.0</ele><time>2026-05-02T15:06:41Z</time></trkpt><trkpt lat="44.50137385033766" lon="8.08047907501622"><ele>838.6666666666666</ele><time>2026-05-02T15:06:42Z</time></trkpt><trkpt lat="44.50157105011487" lon="8.080594274056413"><ele>839.3333333333333</ele><time>2026-05-02T15:06:43Z</time></trkpt><trkpt lat="44.501761413812254" lon="8.080709716054763"><ele>840.0</ele><time>2026-05-02T15:06:44Z</time></trkpt><trkpt lat="44.50195213912261" lon="8.080825377404059"><ele>837.3333333333333</ele><time>2026-05-02T15:06:45Z</time></trkpt><trkpt lat="44.50212698958749" lon="8.08093141171911"><ele>834.6666666666666</ele><time>2026-05-02T15:06:46Z</time></trkpt><trkpt lat="44.50229385931457" lon="8.081009426879389"><ele>832.0</ele><time>2026-05-02T15:06:47Z</time></trkpt><trkpt lat="44.50243613574902" lon="8.0810972038214"><ele>832.0</ele><time>2026-05-02T15:06:48Z</time></trkpt><trkpt lat="44.50256108977578" lon="8.081169616321079"><ele>832.0</ele><time>2026-05-02T15:06:49Z</time></trkpt><trkpt lat="44.50266381865408" lon="8.081185070178035"><ele>832.0</ele><time>2026-05-02T15:06:50Z</time></trkpt><trkpt lat="44.50276429845861" lon="8.081180458066054"><ele>832.0</ele><time>2026-05-02T15:06:51Z</time></trkpt><trkpt lat="44.50286093890903" lon="8.081180458065456"><ele>832.0</ele><time>2026-05-02T15:06:52Z</time></trkpt><trkpt lat="44.50297818421382" lon="8.081180458066148"><ele>829.6666666666666</ele><time>2026-05-02T15:06:53Z</time></trkpt><trkpt lat="44.50311071068419" lon="8.080934726626408"><ele>827.3333333333333</ele><time>2026-05-02T15:06:54Z</time></trkpt><trkpt lat="44.50325749491207" lon="8.080970831764803"><ele>825.0</ele><time>2026-05-02T15:06:55Z</time></trkpt><trkpt lat="44.503414299977315" lon="8.081053519408668"><ele>825.0</ele><time>2026-05-02T15:06:56Z</time></trkpt><trkpt lat="44.503573235554704" lon="8.081170665398208"><ele>825.0</ele><time>2026-05-02T15:06:57Z</time></trkpt><trkpt lat="44.50374000813396" lon="8.081275688373273"><ele>825.0</ele><time>2026-05-02T15:06:58Z</time></trkpt><trkpt lat="44.50391217862712" lon="8.081368650737767"><ele>825.0</ele><time>2026-05-02T15:06:59Z</time></trkpt><trkpt lat="44.50407867763732" lon="8.081465579582245"><ele>825.0</ele><time>2026-05-02T15:07:00Z</time></trkpt><trkpt lat="44.504251110425244" lon="8.081571643413234"><ele>825.0</ele><time>2026-05-02T15:07:01Z</time></trkpt><trkpt lat="44.50442610409999" lon="8.08167918253393"><ele>822.0</ele><time>2026-05-02T15:07:02Z</time></trkpt><trkpt lat="44.50460103255932" lon="8.081784432001433"><ele>819.0</ele><time>2026-05-02T15:07:03Z</time></trkpt><trkpt lat="44.504785617033384" lon="8.081896934257147"><ele>816.0</ele><time>2026-05-02T15:07:04Z</time></trkpt><trkpt lat="44.50496697199018" lon="8.082014587053393"><ele>816.0</ele><time>2026-05-02T15:07:05Z</time></trkpt><trkpt lat="44.50515418982785" lon="8.082120280967406"><ele>816.0</ele><time>2026-05-02T15:07:06Z</time></trkpt><trkpt lat="44.505348273442365" lon="8.082182945183007"><ele>816.0</ele><time>2026-05-02T15:07:07Z</time></trkpt><trkpt lat="44.50555570552925" lon="8.082172242179233"><ele>815.0</ele><time>2026-05-02T15:07:08Z</time></trkpt><trkpt lat="44.505768248502434" lon="8.082119886295484"><ele>814.0</ele><time>2026-05-02T15:07:09Z</time></trkpt><trkpt lat="44.50598239811376" lon="8.08207239533208"><ele>813.0</ele><time>2026-05-02T15:07:10Z</time></trkpt><trkpt lat="44.50617948122186" lon="8.08204852544296"><ele>818.0</ele><time>2026-05-02T15:07:11Z</time></trkpt><trkpt lat="44.50634476016682" lon="8.082030306428413"><ele>823.0</ele><time>2026-05-02T15:07:12Z</time></trkpt><trkpt lat="44.506481326386634" lon="8.081975991597155"><ele>828.0</ele><time>2026-05-02T15:07:13Z</time></trkpt><trkpt lat="44.50659551052465" lon="8.08184639592456"><ele>828.0</ele><time>2026-05-02T15:07:14Z</time></trkpt><trkpt lat="44.5066671005236" lon="8.081632932492026"><ele>828.0</ele><time>2026-05-02T15:07:15Z</time></trkpt><trkpt lat="44.50669795910323" lon="8.081375926287334"><ele>828.0</ele><time>2026-05-02T15:07:16Z</time></trkpt><trkpt lat="44.506730010966756" lon="8.08109868853247"><ele>824.6666666666667</ele><time>2026-05-02T15:07:17Z</time></trkpt><trkpt lat="44.50677746445825" lon="8.08080790939179"><ele>821.3333333333334</ele><time>2026-05-02T15:07:18Z</time></trkpt><trkpt lat="44.50683654843331" lon="8.080523463706967"><ele>818.0</ele><time>2026-05-02T15:07:19Z</time></trkpt><trkpt lat="44.50689175123469" lon="8.080241104590609"><ele>812.6666666666667</ele><time>2026-05-02T15:07:20Z</time></trkpt><trkpt lat="44.506947735221175" lon="8.079950025079032"><ele>807.3333333333333</ele><time>2026-05-02T15:07:21Z</time></trkpt><trkpt lat="44.50700398327722" lon="8.079658984109496"><ele>802.0</ele><time>2026-05-02T15:07:22Z</time></trkpt><trkpt lat="44.50706418177412" lon="8.079396070514079"><ele>804.3333333333333</ele><time>2026-05-02T15:07:23Z</time></trkpt><trkpt lat="44.50711496645978" lon="8.079179227363468"><ele>806.6666666666667</ele><time>2026-05-02T15:07:24Z</time></trkpt><trkpt lat="44.507206454803985" lon="8.078974390777738"><ele>809.0</ele><time>2026-05-02T15:07:25Z</time></trkpt><trkpt lat="44.50734632360846" lon="8.078829488842945"><ele>802.3333333333334</ele><time>2026-05-02T15:07:26Z</time></trkpt><trkpt lat="44.50753066531541" lon="8.078715729333519"><ele>795.6666666666667</ele><time>2026-05-02T15:07:27Z</time></trkpt><trkpt lat="44.507711966476094" lon="8.078569513844556"><ele>789.0</ele><time>2026-05-02T15:07:28Z</time></trkpt><trkpt lat="44.5078663771576" lon="8.078398390386283"><ele>787.3333333333333</ele><time>2026-05-02T15:07:29Z</time></trkpt><trkpt lat="44.50800151124365" lon="8.078231959985162"><ele>785.6666666666666</ele><time>2026-05-02T15:07:30Z</time></trkpt><trkpt lat="44.50813819156836" lon="8.078109241987287"><ele>784.0</ele><time>2026-05-02T15:07:31Z</time></trkpt><trkpt lat="44.508285544747515" lon="8.078067152312439"><ele>784.0</ele><time>2026-05-02T15:07:32Z</time></trkpt><trkpt lat="44.50844495958034" lon="8.078095540426899"><ele>784.0</ele><time>2026-05-02T15:07:33Z</time></trkpt><trkpt lat="44.508593474347634" lon="8.07816477274987"><ele>784.0</ele><time>2026-05-02T15:07:34Z</time></trkpt><trkpt lat="44.50872292558896" lon="8.078210162132647"><ele>783.6666666666666</ele><time>2026-05-02T15:07:35Z</time></trkpt><trkpt lat="44.50883288310354" lon="8.07822191387376"><ele>783.3333333333333</ele><time>2026-05-02T15:07:36Z</time></trkpt><trkpt lat="44.5089205678797" lon="8.078197597224259"><ele>783.0</ele><time>2026-05-02T15:07:37Z</time></trkpt><trkpt lat="44.50899444526083" lon="8.078172942262308"><ele>782.6666666666667</ele><time>2026-05-02T15:07:38Z</time></trkpt><trkpt lat="44.50907337881894" lon="8.078190936965457"><ele>782.3333333333334</ele><time>2026-05-02T15:07:39Z</time></trkpt><trkpt lat="44.50915335733778" lon="8.0782200577621"><ele>782.0</ele><time>2026-05-02T15:07:40Z</time></trkpt><trkpt lat="44.50923746352182" lon="8.07825332163694"><ele>782.2</ele><time>2026-05-02T15:07:41Z</time></trkpt><trkpt lat="44.50933697725216" lon="8.078289371750712"><ele>782.4000000000001</ele><time>2026-05-02T15:07:42Z</time></trkpt><trkpt lat="44.50943542309717" lon="8.078334015324394"><ele>782.5999999999999</ele><time>2026-05-02T15:07:43Z</time></trkpt><trkpt lat="44.509540586951864" lon="8.078368575651556"><ele>782.8</ele><time>2026-05-02T15:07:44Z</time></trkpt><trkpt lat="44.509652667452706" lon="8.07840532692968"><ele>783.0</ele><time>2026-05-02T15:07:45Z</time></trkpt><trkpt lat="44.50975854327906" lon="8.078456352715003"><ele>783.0</ele><time>2026-05-02T15:07:46Z</time></trkpt><trkpt lat="44.50987258745326" lon="8.07850518808614"><ele>783.0</ele><time>2026-05-02T15:07:47Z</time></trkpt><trkpt lat="44.50999217305906" lon="8.078551173788783"><ele>783.0</ele><time>2026-05-02T15:07:48Z</time></trkpt><trkpt lat="44.510112821972676" lon="8.07859950653286"><ele>783.0</ele><time>2026-05-02T15:07:49Z</time></trkpt><trkpt lat="44.51023409468675" lon="8.078653566551301"><ele>783.0</ele><time>2026-05-02T15:07:50Z</time></trkpt><trkpt lat="44.51035711680014" lon="8.078705619718649"><ele>783.0</ele><time>2026-05-02T15:07:51Z</time></trkpt><trkpt lat="44.51048100357518" lon="8.078755131683959"><ele>783.0</ele><time>2026-05-02T15:07:52Z</time></trkpt><trkpt lat="44.5106051653895" lon="8.07880907134459"><ele>783.0</ele><time>2026-05-02T15:07:53Z</time></trkpt><trkpt lat="44.5107297067719" lon="8.078856848076752"><ele>781.25</ele><time>2026-05-02T15:07:54Z</time></trkpt><trkpt lat="44.51085471566082" lon="8.078908308680129"><ele>779.5</ele><time>2026-05-02T15:07:55Z</time></trkpt><trkpt lat="44.510977498805566" lon="8.078957164833842"><ele>777.75</ele><time>2026-05-02T15:07:56Z</time></trkpt><trkpt lat="44.51110216875707" lon="8.079004629898064"><ele>776.0</ele><time>2026-05-02T15:07:57Z</time></trkpt><trkpt lat="44.51122427590106" lon="8.079053458932027"><ele>777.5</ele><time>2026-05-02T15:07:58Z</time></trkpt><trkpt lat="44.511344741352424" lon="8.079108145736093"><ele>779.0</ele><time>2026-05-02T15:07:59Z</time></trkpt><trkpt lat="44.51146837875394" lon="8.07915040214144"><ele>780.5</ele><time>2026-05-02T15:08:00Z</time></trkpt><trkpt lat="44.511589645462486" lon="8.079203731812752"><ele>782.0</ele><time>2026-05-02T15:08:01Z</time></trkpt><trkpt lat="44.5117069750725" lon="8.079249222919646"><ele>782.0</ele><time>2026-05-02T15:08:02Z</time></trkpt><trkpt lat="44.51181609322021" lon="8.07929202184694"><ele>782.0</ele><time>2026-05-02T15:08:03Z</time></trkpt><trkpt lat="44.51191521583881" lon="8.079331501937542"><ele>782.0</ele><time>2026-05-02T15:08:04Z</time></trkpt><trkpt lat="44.512013524440604" lon="8.079370638371586"><ele>782.0</ele><time>2026-05-02T15:08:05Z</time></trkpt><trkpt lat="44.51211405809936" lon="8.079407510638617"><ele>782.0</ele><time>2026-05-02T15:08:06Z</time></trkpt><trkpt lat="44.51221149136774" lon="8.079469316445214"><ele>781.8</ele><time>2026-05-02T15:08:07Z</time></trkpt><trkpt lat="44.51231145380611" lon="8.07950930756723"><ele>781.6</ele><time>2026-05-02T15:08:08Z</time></trkpt><trkpt lat="44.51241738967831" lon="8.079528610433645"><ele>781.4</ele><time>2026-05-02T15:08:09Z</time></trkpt><trkpt lat="44.51251537809227" lon="8.079572361442072"><ele>781.1999999999999</ele><time>2026-05-02T15:08:10Z</time></trkpt><trkpt lat="44.51261569866463" lon="8.079615395930563"><ele>781.0</ele><time>2026-05-02T15:08:11Z</time></trkpt><trkpt lat="44.51271509534933" lon="8.079651622845512"><ele>781.0</ele><time>2026-05-02T15:08:12Z</time></trkpt><trkpt lat="44.51280907406521" lon="8.079691053963245"><ele>781.0</ele><time>2026-05-02T15:08:13Z</time></trkpt><trkpt lat="44.512899283941074" lon="8.079734642389072"><ele>781.0</ele><time>2026-05-02T15:08:14Z</time></trkpt><trkpt lat="44.51297828609471" lon="8.079805598342881"><ele>781.0</ele><time>2026-05-02T15:08:15Z</time></trkpt><trkpt lat="44.51305029266474" lon="8.079901772347231"><ele>781.0</ele><time>2026-05-02T15:08:16Z</time></trkpt><trkpt lat="44.513109887991604" lon="8.080016707712787"><ele>781.25</ele><time>2026-05-02T15:08:17Z</time></trkpt><trkpt lat="44.51316427732387" lon="8.080148020979395"><ele>781.5</ele><time>2026-05-02T15:08:18Z</time></trkpt><trkpt lat="44.513217292458386" lon="8.080297239910523"><ele>781.75</ele><time>2026-05-02T15:08:19Z</time></trkpt><trkpt lat="44.513271581650876" lon="8.08045043154669"><ele>782.0</ele><time>2026-05-02T15:08:20Z</time></trkpt><trkpt lat="44.51332946729158" lon="8.08061086136193"><ele>782.0</ele><time>2026-05-02T15:08:21Z</time></trkpt><trkpt lat="44.51338631682854" lon="8.080769547639674"><ele>782.0</ele><time>2026-05-02T15:08:22Z</time></trkpt><trkpt lat="44.51344434513213" lon="8.080932346082369"><ele>782.0</ele><time>2026-05-02T15:08:23Z</time></trkpt><trkpt lat="44.513503541397355" lon="8.08109399730218"><ele>782.0</ele><time>2026-05-02T15:08:24Z</time></trkpt><trkpt lat="44.51356287856432" lon="8.081258068369827"><ele>782.0</ele><time>2026-05-02T15:08:25Z</time></trkpt><trkpt lat="44.51361675531825" lon="8.08142194774055"><ele>782.0</ele><time>2026-05-02T15:08:26Z</time></trkpt><trkpt lat="44.513674627688125" lon="8.081582151552304"><ele>782.0</ele><time>2026-05-02T15:08:27Z</time></trkpt><trkpt lat="44.51373669663214" lon="8.081742650585502"><ele>782.0</ele><time>2026-05-02T15:08:28Z</time></trkpt><trkpt lat="44.513797507544204" lon="8.081906155485852"><ele>780.5</ele><time>2026-05-02T15:08:29Z</time></trkpt><trkpt lat="44.5138576898236" lon="8.082070366016294"><ele>779.0</ele><time>2026-05-02T15:08:30Z</time></trkpt><trkpt lat="44.5139084205358" lon="8.082221837842726"><ele>777.5</ele><time>2026-05-02T15:08:31Z</time></trkpt><trkpt lat="44.51395677941578" lon="8.082361366239521"><ele>776.0</ele><time>2026-05-02T15:08:32Z</time></trkpt><trkpt lat="44.51400312389743" lon="8.082490908777471"><ele>776.0000000000001</ele><time>2026-05-02T15:08:33Z</time></trkpt><trkpt lat="44.5140405938205" lon="8.08261388829577"><ele>776.0</ele><time>2026-05-02T15:08:34Z</time></trkpt><trkpt lat="44.51407805859139" lon="8.082725662865213"><ele>776.0</ele><time>2026-05-02T15:08:35Z</time></trkpt><trkpt lat="44.514112194640425" lon="8.082834291851656"><ele>776.0</ele><time>2026-05-02T15:08:36Z</time></trkpt><trkpt lat="44.51414156185502" lon="8.082929357445778"><ele>776.0000000000001</ele><time>2026-05-02T15:08:37Z</time></trkpt><trkpt lat="44.5141661293631" lon="8.083011757358488"><ele>776.0</ele><time>2026-05-02T15:08:38Z</time></trkpt><trkpt lat="44.514229034546865" lon="8.083178531107666"><ele>777.0</ele><time>2026-05-02T15:08:40Z</time></trkpt><trkpt lat="44.5142677761077" lon="8.083290024153742"><ele>778.0</ele><time>2026-05-02T15:08:41Z</time></trkpt><trkpt lat="44.514306928536534" lon="8.083402098164207"><ele>779.0</ele><time>2026-05-02T15:08:42Z</time></trkpt><trkpt lat="44.51435474814569" lon="8.083506808842062"><ele>780.0</ele><time>2026-05-02T15:08:43Z</time></trkpt><trkpt lat="44.51440592179758" lon="8.083606003629546"><ele>781.0</ele><time>2026-05-02T15:08:44Z</time></trkpt><trkpt lat="44.51448459656284" lon="8.083715678002136"><ele>782.0</ele><time>2026-05-02T15:08:45Z</time></trkpt><trkpt lat="44.51459671638932" lon="8.083805522791838"><ele>783.0</ele><time>2026-05-02T15:08:46Z</time></trkpt><trkpt lat="44.51472702146916" lon="8.083886989520478"><ele>784.0</ele><time>2026-05-02T15:08:47Z</time></trkpt><trkpt lat="44.514864070891875" lon="8.084004794388493"><ele>785.0</ele><time>2026-05-02T15:08:48Z</time></trkpt><trkpt lat="44.51502129226364" lon="8.084103236222818"><ele>785.0</ele><time>2026-05-02T15:08:49Z</time></trkpt><trkpt lat="44.51519419610833" lon="8.084229365134686"><ele>785.0</ele><time>2026-05-02T15:08:50Z</time></trkpt><trkpt lat="44.5153799079657" lon="8.084363763768867"><ele>785.0</ele><time>2026-05-02T15:08:51Z</time></trkpt><trkpt lat="44.515549724138964" lon="8.084492658583535"><ele>783.0</ele><time>2026-05-02T15:08:52Z</time></trkpt><trkpt lat="44.515713591715254" lon="8.084639200038826"><ele>781.0</ele><time>2026-05-02T15:08:53Z</time></trkpt><trkpt lat="44.515921755661736" lon="8.084798021395482"><ele>779.0</ele><time>2026-05-02T15:08:54Z</time></trkpt><trkpt lat="44.51616639515107" lon="8.084984520756269"><ele>782.5</ele><time>2026-05-02T15:08:55Z</time></trkpt><trkpt lat="44.51641899529163" lon="8.085177088900464"><ele>786.0</ele><time>2026-05-02T15:08:56Z</time></trkpt><trkpt lat="44.516691719400505" lon="8.08536516135506"><ele>786.0</ele><time>2026-05-02T15:08:57Z</time></trkpt><trkpt lat="44.5169488686435" lon="8.08556053040116"><ele>786.0</ele><time>2026-05-02T15:08:58Z</time></trkpt><trkpt lat="44.51716893688733" lon="8.08572438623497"><ele>789.5</ele><time>2026-05-02T15:08:59Z</time></trkpt><trkpt lat="44.5173731288801" lon="8.085883327389281"><ele>793.0</ele><time>2026-05-02T15:09:00Z</time></trkpt><trkpt lat="44.51756050341702" lon="8.086035191517757"><ele>793.0</ele><time>2026-05-02T15:09:01Z</time></trkpt><trkpt lat="44.517732122350644" lon="8.086222982939322"><ele>793.0</ele><time>2026-05-02T15:09:02Z</time></trkpt><trkpt lat="44.51790447038622" lon="8.086421754659415"><ele>793.0</ele><time>2026-05-02T15:09:03Z</time></trkpt><trkpt lat="44.51808307431683" lon="8.086642209678123"><ele>795.0</ele><time>2026-05-02T15:09:04Z</time></trkpt><trkpt lat="44.51826967603915" lon="8.086877500079838"><ele>797.0</ele><time>2026-05-02T15:09:05Z</time></trkpt><trkpt lat="44.5184640604947" lon="8.087121421382461"><ele>797.0</ele><time>2026-05-02T15:09:06Z</time></trkpt><trkpt lat="44.518681068324696" lon="8.087360775129595"><ele>797.0</ele><time>2026-05-02T15:09:07Z</time></trkpt><trkpt lat="44.51888446991855" lon="8.087613238636674"><ele>794.5</ele><time>2026-05-02T15:09:08Z</time></trkpt><trkpt lat="44.51907848366857" lon="8.087852903545729"><ele>792.0</ele><time>2026-05-02T15:09:09Z</time></trkpt><trkpt lat="44.519247705849395" lon="8.08807003302403"><ele>792.0</ele><time>2026-05-02T15:09:10Z</time></trkpt><trkpt lat="44.51938657116952" lon="8.088239630651541"><ele>792.0</ele><time>2026-05-02T15:09:11Z</time></trkpt><trkpt lat="44.5195035364719" lon="8.088412501673172"><ele>792.0</ele><time>2026-05-02T15:09:12Z</time></trkpt><trkpt lat="44.519601848607046" lon="8.088580058202698"><ele>790.3333333333333</ele><time>2026-05-02T15:09:13Z</time></trkpt><trkpt lat="44.51967122921858" lon="8.088764336455329"><ele>788.6666666666666</ele><time>2026-05-02T15:09:14Z</time></trkpt><trkpt lat="44.51964095962057" lon="8.088987471689013"><ele>787.0</ele><time>2026-05-02T15:09:15Z</time></trkpt><trkpt lat="44.51955972173772" lon="8.08921621499031"><ele>794.6666666666666</ele><time>2026-05-02T15:09:16Z</time></trkpt><trkpt lat="44.51945195080367" lon="8.0894570460696"><ele>802.3333333333333</ele><time>2026-05-02T15:09:17Z</time></trkpt><trkpt lat="44.519349957477516" lon="8.089730083199676"><ele>810.0</ele><time>2026-05-02T15:09:18Z</time></trkpt><trkpt lat="44.51925954940025" lon="8.090023590309317"><ele>810.0</ele><time>2026-05-02T15:09:19Z</time></trkpt><trkpt lat="44.519163084471415" lon="8.090319077709527"><ele>810.0</ele><time>2026-05-02T15:09:20Z</time></trkpt><trkpt lat="44.51906630733697" lon="8.09061733294768"><ele>806.5</ele><time>2026-05-02T15:09:21Z</time></trkpt><trkpt lat="44.51897810543576" lon="8.09091513187119"><ele>803.0</ele><time>2026-05-02T15:09:22Z</time></trkpt><trkpt lat="44.518912069932476" lon="8.091223292001608"><ele>803.0</ele><time>2026-05-02T15:09:23Z</time></trkpt><trkpt lat="44.518883700032525" lon="8.091558914500258"><ele>803.0</ele><time>2026-05-02T15:09:24Z</time></trkpt><trkpt lat="44.51887601328013" lon="8.091914322900411"><ele>800.5</ele><time>2026-05-02T15:09:25Z</time></trkpt><trkpt lat="44.51889896667096" lon="8.092278792687651"><ele>798.0</ele><time>2026-05-02T15:09:26Z</time></trkpt><trkpt lat="44.51895810153635" lon="8.092640652632113"><ele>796.0</ele><time>2026-05-02T15:09:27Z</time></trkpt><trkpt lat="44.519021932886616" lon="8.092977170645531"><ele>794.0</ele><time>2026-05-02T15:09:28Z</time></trkpt><trkpt lat="44.519071966069504" lon="8.093300570174035"><ele>794.0</ele><time>2026-05-02T15:09:29Z</time></trkpt><trkpt lat="44.51911414473983" lon="8.093604563822462"><ele>794.0</ele><time>2026-05-02T15:09:30Z</time></trkpt><trkpt lat="44.51915457685684" lon="8.093887486018717"><ele>794.0</ele><time>2026-05-02T15:09:31Z</time></trkpt><trkpt lat="44.51919228396931" lon="8.094138605850059"><ele>795.3333333333334</ele><time>2026-05-02T15:09:32Z</time></trkpt><trkpt lat="44.519225630787616" lon="8.094370458328433"><ele>796.6666666666667</ele><time>2026-05-02T15:09:33Z</time></trkpt><trkpt lat="44.519253259393416" lon="8.0945750080455"><ele>798.0</ele><time>2026-05-02T15:09:34Z</time></trkpt><trkpt lat="44.51927873258595" lon="8.094763852669322"><ele>800.0</ele><time>2026-05-02T15:09:35Z</time></trkpt><trkpt lat="44.51930161950746" lon="8.09492703382634"><ele>802.0</ele><time>2026-05-02T15:09:36Z</time></trkpt><trkpt lat="44.519321902096046" lon="8.095083494627689"><ele>804.0</ele><time>2026-05-02T15:09:37Z</time></trkpt><trkpt lat="44.5193492238015" lon="8.095234418877814"><ele>806.0</ele><time>2026-05-02T15:09:38Z</time></trkpt><trkpt lat="44.519394264000816" lon="8.095376895158902"><ele>806.0</ele><time>2026-05-02T15:09:39Z</time></trkpt><trkpt lat="44.519460835386006" lon="8.095505428547357"><ele>806.0</ele><time>2026-05-02T15:09:40Z</time></trkpt><trkpt lat="44.51955410303138" lon="8.095623585459562"><ele>806.0</ele><time>2026-05-02T15:09:41Z</time></trkpt><trkpt lat="44.51966849187432" lon="8.09572676266101"><ele>806.0</ele><time>2026-05-02T15:09:42Z</time></trkpt><trkpt lat="44.51977145599336" lon="8.09584936507973"><ele>804.75</ele><time>2026-05-02T15:09:43Z</time></trkpt><trkpt lat="44.519886794762975" lon="8.09596133752313"><ele>803.5</ele><time>2026-05-02T15:09:44Z</time></trkpt><trkpt lat="44.52000191695893" lon="8.096073099715051"><ele>802.25</ele><time>2026-05-02T15:09:45Z</time></trkpt><trkpt lat="44.520126541696456" lon="8.09613853053042"><ele>801.0</ele><time>2026-05-02T15:09:46Z</time></trkpt><trkpt lat="44.52022317003384" lon="8.09622854442931"><ele>801.0</ele><time>2026-05-02T15:09:47Z</time></trkpt><trkpt lat="44.520303251928674" lon="8.096318043658437"><ele>801.0</ele><time>2026-05-02T15:09:48Z</time></trkpt><trkpt lat="44.520352678583684" lon="8.096420939363451"><ele>801.0</ele><time>2026-05-02T15:09:49Z</time></trkpt><trkpt lat="44.520369495165625" lon="8.09653895051934"><ele>801.0</ele><time>2026-05-02T15:09:50Z</time></trkpt><trkpt lat="44.52035020997118" lon="8.096686241903626"><ele>801.0</ele><time>2026-05-02T15:09:51Z</time></trkpt><trkpt lat="44.52030295616622" lon="8.096869687735689"><ele>803.6666666666667</ele><time>2026-05-02T15:09:52Z</time></trkpt><trkpt lat="44.520209331858325" lon="8.097092968064924"><ele>806.3333333333334</ele><time>2026-05-02T15:09:53Z</time></trkpt><trkpt lat="44.520096353941724" lon="8.097327470991596"><ele>809.0</ele><time>2026-05-02T15:09:54Z</time></trkpt><trkpt lat="44.51999529634832" lon="8.097571786373747"><ele>809.0</ele><time>2026-05-02T15:09:55Z</time></trkpt><trkpt lat="44.51994585701846" lon="8.09780919022015"><ele>809.0</ele><time>2026-05-02T15:09:56Z</time></trkpt><trkpt lat="44.51995646724716" lon="8.098060859726067"><ele>809.0</ele><time>2026-05-02T15:09:57Z</time></trkpt><trkpt lat="44.52003635564374" lon="8.098342207786255"><ele>807.5</ele><time>2026-05-02T15:09:58Z</time></trkpt><trkpt lat="44.52015693090045" lon="8.098662380834675"><ele>806.0</ele><time>2026-05-02T15:09:59Z</time></trkpt><trkpt lat="44.52026158400328" lon="8.098979465407767"><ele>807.3333333333334</ele><time>2026-05-02T15:10:00Z</time></trkpt><trkpt lat="44.520345498666494" lon="8.099252063037632"><ele>808.6666666666667</ele><time>2026-05-02T15:10:01Z</time></trkpt><trkpt lat="44.520437006346015" lon="8.099474353139863"><ele>810.0</ele><time>2026-05-02T15:10:02Z</time></trkpt><trkpt lat="44.52049296118217" lon="8.099729121060436"><ele>807.0</ele><time>2026-05-02T15:10:03Z</time></trkpt><trkpt lat="44.52078429762582" lon="8.099797160261174"><ele>804.0</ele><time>2026-05-02T15:10:04Z</time></trkpt><trkpt lat="44.5210276126316" lon="8.099928272817333"><ele>799.0</ele><time>2026-05-02T15:10:05Z</time></trkpt><trkpt lat="44.521282990896054" lon="8.100050286385523"><ele>794.0</ele><time>2026-05-02T15:10:06Z</time></trkpt><trkpt lat="44.52150322765371" lon="8.100192035257498"><ele>794.0</ele><time>2026-05-02T15:10:07Z</time></trkpt><trkpt lat="44.521755556810355" lon="8.100354598932"><ele>794.0</ele><time>2026-05-02T15:10:08Z</time></trkpt><trkpt lat="44.52200171244773" lon="8.100503379496473"><ele>792.0</ele><time>2026-05-02T15:10:09Z</time></trkpt><trkpt lat="44.52225805743401" lon="8.100661164000504"><ele>790.0</ele><time>2026-05-02T15:10:10Z</time></trkpt><trkpt lat="44.522499812123584" lon="8.100823717766174"><ele>791.0</ele><time>2026-05-02T15:10:11Z</time></trkpt><trkpt lat="44.522740629502096" lon="8.10098031681244"><ele>792.0</ele><time>2026-05-02T15:10:12Z</time></trkpt><trkpt lat="44.52298614300388" lon="8.10114072381999"><ele>792.0</ele><time>2026-05-02T15:10:13Z</time></trkpt><trkpt lat="44.52323988955418" lon="8.101300376080964"><ele>792.0</ele><time>2026-05-02T15:10:14Z</time></trkpt><trkpt lat="44.523501014732545" lon="8.101465361285259"><ele>790.5</ele><time>2026-05-02T15:10:15Z</time></trkpt><trkpt lat="44.52376344784926" lon="8.101631412115731"><ele>789.0</ele><time>2026-05-02T15:10:16Z</time></trkpt><trkpt lat="44.52403293705633" lon="8.101798296427082"><ele>789.0</ele><time>2026-05-02T15:10:17Z</time></trkpt><trkpt lat="44.52429112350767" lon="8.101992172273144"><ele>789.0</ele><time>2026-05-02T15:10:18Z</time></trkpt><trkpt lat="44.524552134948905" lon="8.102159954256134"><ele>789.0</ele><time>2026-05-02T15:10:19Z</time></trkpt><trkpt lat="44.52479383905294" lon="8.102314097648298"><ele>789.0</ele><time>2026-05-02T15:10:20Z</time></trkpt><trkpt lat="44.525024930379914" lon="8.102435088944818"><ele>789.0</ele><time>2026-05-02T15:10:21Z</time></trkpt><trkpt lat="44.52522636562012" lon="8.102562657629743"><ele>789.0</ele><time>2026-05-02T15:10:22Z</time></trkpt><trkpt lat="44.525402969161135" lon="8.1026589164325"><ele>789.0</ele><time>2026-05-02T15:10:23Z</time></trkpt><trkpt lat="44.52557328237497" lon="8.10269591782318"><ele>788.6666666666667</ele><time>2026-05-02T15:10:24Z</time></trkpt><trkpt lat="44.525763691251726" lon="8.102656039526668"><ele>788.3333333333334</ele><time>2026-05-02T15:10:25Z</time></trkpt><trkpt lat="44.52597658060795" lon="8.102546721777182"><ele>788.0</ele><time>2026-05-02T15:10:26Z</time></trkpt><trkpt lat="44.526191929213894" lon="8.10238833648577"><ele>788.3333333333334</ele><time>2026-05-02T15:10:27Z</time></trkpt><trkpt lat="44.526380957617576" lon="8.102240588052515"><ele>788.6666666666667</ele><time>2026-05-02T15:10:28Z</time></trkpt><trkpt lat="44.5265380875917" lon="8.102054541784874"><ele>789.0</ele><time>2026-05-02T15:10:29Z</time></trkpt><trkpt lat="44.52665848296727" lon="8.101819149405351"><ele>789.0</ele><time>2026-05-02T15:10:30Z</time></trkpt><trkpt lat="44.526749048288075" lon="8.10160848223048"><ele>789.0</ele><time>2026-05-02T15:10:31Z</time></trkpt><trkpt lat="44.52687828314409" lon="8.101499795563923"><ele>789.0</ele><time>2026-05-02T15:10:32Z</time></trkpt><trkpt lat="44.527027708149326" lon="8.101437344629081"><ele>783.3333333333333</ele><time>2026-05-02T15:10:33Z</time></trkpt><trkpt lat="44.527215313003985" lon="8.101414507842271"><ele>777.6666666666666</ele><time>2026-05-02T15:10:34Z</time></trkpt><trkpt lat="44.527425496178616" lon="8.101372563000997"><ele>772.0</ele><time>2026-05-02T15:10:35Z</time></trkpt><trkpt lat="44.52764003906099" lon="8.10131759256985"><ele>772.0</ele><time>2026-05-02T15:10:36Z</time></trkpt><trkpt lat="44.52786901826381" lon="8.101229294473127"><ele>772.0</ele><time>2026-05-02T15:10:37Z</time></trkpt><trkpt lat="44.52809110692038" lon="8.101167014272924"><ele>772.5</ele><time>2026-05-02T15:10:38Z</time></trkpt><trkpt lat="44.52832661070572" lon="8.101146162557074"><ele>773.0</ele><time>2026-05-02T15:10:39Z</time></trkpt><trkpt lat="44.52857084649061" lon="8.101153592008504"><ele>772.0</ele><time>2026-05-02T15:10:40Z</time></trkpt><trkpt lat="44.52876004996938" lon="8.101105650724318"><ele>771.0</ele><time>2026-05-02T15:10:41Z</time></trkpt><trkpt lat="44.528890048415334" lon="8.101118468871736"><ele>770.0</ele><time>2026-05-02T15:10:42Z</time></trkpt><trkpt lat="44.52898309945352" lon="8.101139629132755"><ele>769.0</ele><time>2026-05-02T15:10:43Z</time></trkpt><trkpt lat="44.529033486575294" lon="8.1012493335049"><ele>769.0</ele><time>2026-05-02T15:10:44Z</time></trkpt><trkpt lat="44.52904546401608" lon="8.101430185612456"><ele>769.0</ele><time>2026-05-02T15:10:45Z</time></trkpt><trkpt lat="44.529012995416615" lon="8.101652185114022"><ele>769.0</ele><time>2026-05-02T15:10:46Z</time></trkpt><trkpt lat="44.52898770702254" lon="8.101907115861547"><ele>771.0</ele><time>2026-05-02T15:10:47Z</time></trkpt><trkpt lat="44.52899559327553" lon="8.10216729921344"><ele>773.0</ele><time>2026-05-02T15:10:48Z</time></trkpt><trkpt lat="44.52903462404007" lon="8.10244892427194"><ele>775.0</ele><time>2026-05-02T15:10:49Z</time></trkpt><trkpt lat="44.529102815368056" lon="8.102732220007537"><ele>775.0</ele><time>2026-05-02T15:10:50Z</time></trkpt><trkpt lat="44.529218503420296" lon="8.103010720832282"><ele>775.0</ele><time>2026-05-02T15:10:51Z</time></trkpt><trkpt lat="44.52936473946928" lon="8.103260606900367"><ele>771.0</ele><time>2026-05-02T15:10:52Z</time></trkpt><trkpt lat="44.52953973271924" lon="8.103486819754755"><ele>767.0</ele><time>2026-05-02T15:10:53Z</time></trkpt><trkpt lat="44.52973323233003" lon="8.103705213839383"><ele>767.0</ele><time>2026-05-02T15:10:54Z</time></trkpt><trkpt lat="44.52993208203481" lon="8.103911409444155"><ele>767.0</ele><time>2026-05-02T15:10:55Z</time></trkpt><trkpt lat="44.53012028645121" lon="8.104124216531874"><ele>762.0</ele><time>2026-05-02T15:10:56Z</time></trkpt><trkpt lat="44.5303037284445" lon="8.104325944570439"><ele>757.0</ele><time>2026-05-02T15:10:57Z</time></trkpt><trkpt lat="44.53047782655484" lon="8.104519113294009"><ele>757.0</ele><time>2026-05-02T15:10:58Z</time></trkpt><trkpt lat="44.53063604610188" lon="8.104705643346794"><ele>757.0</ele><time>2026-05-02T15:10:59Z</time></trkpt><trkpt lat="44.53078865876657" lon="8.104873760424706"><ele>757.0</ele><time>2026-05-02T15:11:00Z</time></trkpt><trkpt lat="44.530944696686596" lon="8.105023580378342"><ele>759.0</ele><time>2026-05-02T15:11:01Z</time></trkpt><trkpt lat="44.531114702739764" lon="8.105158743045605"><ele>761.0</ele><time>2026-05-02T15:11:02Z</time></trkpt><trkpt lat="44.53130053228036" lon="8.105272173962044"><ele>763.0</ele><time>2026-05-02T15:11:03Z</time></trkpt><trkpt lat="44.5315029968096" lon="8.105360849637005"><ele>763.0</ele><time>2026-05-02T15:11:04Z</time></trkpt><trkpt lat="44.53171302582375" lon="8.105424729605078"><ele>763.0</ele><time>2026-05-02T15:11:05Z</time></trkpt><trkpt lat="44.53192924254465" lon="8.105473316737054"><ele>763.0</ele><time>2026-05-02T15:11:06Z</time></trkpt><trkpt lat="44.532134894998805" lon="8.105540218109029"><ele>761.0</ele><time>2026-05-02T15:11:07Z</time></trkpt><trkpt lat="44.532323150554106" lon="8.105550914174687"><ele>759.0</ele><time>2026-05-02T15:11:08Z</time></trkpt><trkpt lat="44.532512401671035" lon="8.105589541419475"><ele>757.0</ele><time>2026-05-02T15:11:09Z</time></trkpt><trkpt lat="44.53268956285893" lon="8.105565181955189"><ele>757.0</ele><time>2026-05-02T15:11:10Z</time></trkpt><trkpt lat="44.532872790285175" lon="8.10547526890275"><ele>757.0</ele><time>2026-05-02T15:11:11Z</time></trkpt><trkpt lat="44.533072205552315" lon="8.105403947132833"><ele>757.0</ele><time>2026-05-02T15:11:12Z</time></trkpt><trkpt lat="44.53328409540116" lon="8.105383670899798"><ele>756.3333333333334</ele><time>2026-05-02T15:11:13Z</time></trkpt><trkpt lat="44.53350530593013" lon="8.10540054235045"><ele>755.6666666666666</ele><time>2026-05-02T15:11:14Z</time></trkpt><trkpt lat="44.53370235152012" lon="8.105424447322031"><ele>755.0</ele><time>2026-05-02T15:11:15Z</time></trkpt><trkpt lat="44.53387553516381" lon="8.105396480040417"><ele>755.0</ele><time>2026-05-02T15:11:16Z</time></trkpt><trkpt lat="44.534039414581336" lon="8.105326880835054"><ele>755.0</ele><time>2026-05-02T15:11:17Z</time></trkpt><trkpt lat="44.534199201403794" lon="8.10517503624112"><ele>755.0</ele><time>2026-05-02T15:11:18Z</time></trkpt><trkpt lat="44.53434190415189" lon="8.105063395012891"><ele>755.0</ele><time>2026-05-02T15:11:19Z</time></trkpt><trkpt lat="44.53445683919154" lon="8.104968742973345"><ele>755.0</ele><time>2026-05-02T15:11:20Z</time></trkpt><trkpt lat="44.5345370008124" lon="8.104824827298565"><ele>755.0</ele><time>2026-05-02T15:11:21Z</time></trkpt><trkpt lat="44.53454914152234" lon="8.104598829483383"><ele>755.0</ele><time>2026-05-02T15:11:22Z</time></trkpt><trkpt lat="44.53454867526385" lon="8.104393585552437"><ele>755.5</ele><time>2026-05-02T15:11:23Z</time></trkpt><trkpt lat="44.53460662247851" lon="8.104253092141736"><ele>756.0</ele><time>2026-05-02T15:11:24Z</time></trkpt><trkpt lat="44.53470249796461" lon="8.104178352012454"><ele>756.5</ele><time>2026-05-02T15:11:25Z</time></trkpt><trkpt lat="44.53484118931403" lon="8.104172727473127"><ele>757.0</ele><time>2026-05-02T15:11:26Z</time></trkpt><trkpt lat="44.534969311007345" lon="8.104151606153389"><ele>754.75</ele><time>2026-05-02T15:11:27Z</time></trkpt><trkpt lat="44.53505998725305" lon="8.104015197766335"><ele>752.5</ele><time>2026-05-02T15:11:28Z</time></trkpt><trkpt lat="44.535114025343994" lon="8.103796512334885"><ele>750.25</ele><time>2026-05-02T15:11:29Z</time></trkpt><trkpt lat="44.5351443417469" lon="8.10362750038786"><ele>748.0</ele><time>2026-05-02T15:11:30Z</time></trkpt><trkpt lat="44.535169017025176" lon="8.103198771064775"><ele>747.6666666666667</ele><time>2026-05-02T15:11:31Z</time></trkpt><trkpt lat="44.535194146423564" lon="8.102986422031591"><ele>747.3333333333334</ele><time>2026-05-02T15:11:32Z</time></trkpt><trkpt lat="44.53512130621496" lon="8.102805182127609"><ele>747.0</ele><time>2026-05-02T15:11:33Z</time></trkpt><trkpt lat="44.535015422387076" lon="8.102634612232745"><ele>747.0</ele><time>2026-05-02T15:11:34Z</time></trkpt><trkpt lat="44.53494807319069" lon="8.10243269352748"><ele>747.0</ele><time>2026-05-02T15:11:35Z</time></trkpt><trkpt lat="44.53494938522964" lon="8.10215409473601"><ele>747.0</ele><time>2026-05-02T15:11:36Z</time></trkpt><trkpt lat="44.53496547655626" lon="8.10186023723006"><ele>745.3333333333334</ele><time>2026-05-02T15:11:37Z</time></trkpt><trkpt lat="44.5350212242873" lon="8.101584331452754"><ele>743.6666666666667</ele><time>2026-05-02T15:11:38Z</time></trkpt><trkpt lat="44.53511948588673" lon="8.101358864553559"><ele>742.0</ele><time>2026-05-02T15:11:39Z</time></trkpt><trkpt lat="44.53519543718155" lon="8.101167430281558"><ele>739.0</ele><time>2026-05-02T15:11:40Z</time></trkpt><trkpt lat="44.535219142815215" lon="8.100941275287092"><ele>736.0</ele><time>2026-05-02T15:11:41Z</time></trkpt><trkpt lat="44.535186617193304" lon="8.100679921760578"><ele>733.0</ele><time>2026-05-02T15:11:42Z</time></trkpt><trkpt lat="44.535252660378376" lon="8.100452501660785"><ele>733.3333333333334</ele><time>2026-05-02T15:11:43Z</time></trkpt><trkpt lat="44.53534743921295" lon="8.100263646931403"><ele>733.6666666666666</ele><time>2026-05-02T15:11:44Z</time></trkpt><trkpt lat="44.53546941441547" lon="8.100162972370464"><ele>734.0</ele><time>2026-05-02T15:11:45Z</time></trkpt><trkpt lat="44.53565743374125" lon="8.100118243599576"><ele>734.0</ele><time>2026-05-02T15:11:46Z</time></trkpt><trkpt lat="44.53584024281217" lon="8.100047771606823"><ele>734.0</ele><time>2026-05-02T15:11:47Z</time></trkpt><trkpt lat="44.536045169440534" lon="8.099970302282566"><ele>734.0</ele><time>2026-05-02T15:11:48Z</time></trkpt><trkpt lat="44.536247869506546" lon="8.09990648906247"><ele>729.0</ele><time>2026-05-02T15:11:49Z</time></trkpt><trkpt lat="44.53642111355186" lon="8.099841365826027"><ele>724.0</ele><time>2026-05-02T15:11:50Z</time></trkpt><trkpt lat="44.536594894413184" lon="8.099769961162428"><ele>719.0</ele><time>2026-05-02T15:11:51Z</time></trkpt><trkpt lat="44.53674790029379" lon="8.09964637924833"><ele>719.0</ele><time>2026-05-02T15:11:52Z</time></trkpt><trkpt lat="44.53689503588363" lon="8.099505178142365"><ele>719.0</ele><time>2026-05-02T15:11:53Z</time></trkpt><trkpt lat="44.53702530101541" lon="8.099314874677592"><ele>719.0</ele><time>2026-05-02T15:11:54Z</time></trkpt><trkpt lat="44.53715079416709" lon="8.099121909294597"><ele>717.5</ele><time>2026-05-02T15:11:55Z</time></trkpt><trkpt lat="44.53728825753936" lon="8.098976520849956"><ele>716.0</ele><time>2026-05-02T15:11:56Z</time></trkpt><trkpt lat="44.53737950651556" lon="8.098833840828664"><ele>714.5</ele><time>2026-05-02T15:11:57Z</time></trkpt><trkpt lat="44.53748180455231" lon="8.098796299390973"><ele>713.0</ele><time>2026-05-02T15:11:58Z</time></trkpt><trkpt lat="44.537583235485926" lon="8.098844297507323"><ele>713.0</ele><time>2026-05-02T15:11:59Z</time></trkpt><trkpt lat="44.537706998728204" lon="8.0989157372086"><ele>713.0</ele><time>2026-05-02T15:12:00Z</time></trkpt><trkpt lat="44.53786272513115" lon="8.099024728080028"><ele>713.0</ele><time>2026-05-02T15:12:01Z</time></trkpt><trkpt lat="44.53803435168318" lon="8.099141028276332"><ele>716.0</ele><time>2026-05-02T15:12:02Z</time></trkpt><trkpt lat="44.53821508940107" lon="8.099228118772043"><ele>719.0</ele><time>2026-05-02T15:12:03Z</time></trkpt><trkpt lat="44.53838375989672" lon="8.099324607234127"><ele>722.0</ele><time>2026-05-02T15:12:04Z</time></trkpt><trkpt lat="44.5385379760476" lon="8.09941233811688"><ele>722.0</ele><time>2026-05-02T15:12:05Z</time></trkpt><trkpt lat="44.538680956927145" lon="8.099563165174382"><ele>722.0</ele><time>2026-05-02T15:12:06Z</time></trkpt><trkpt lat="44.53882617209847" lon="8.099726519429241"><ele>722.0</ele><time>2026-05-02T15:12:07Z</time></trkpt><trkpt lat="44.53898482550333" lon="8.099898056432414"><ele>719.6666666666666</ele><time>2026-05-02T15:12:08Z</time></trkpt><trkpt lat="44.53913282799798" lon="8.100086455305194"><ele>717.3333333333334</ele><time>2026-05-02T15:12:09Z</time></trkpt><trkpt lat="44.539277802334006" lon="8.100266032338798"><ele>715.0</ele><time>2026-05-02T15:12:10Z</time></trkpt><trkpt lat="44.539425962440994" lon="8.100444003865341"><ele>712.6666666666667</ele><time>2026-05-02T15:12:11Z</time></trkpt><trkpt lat="44.53957025057814" lon="8.100624062557085"><ele>710.3333333333334</ele><time>2026-05-02T15:12:12Z</time></trkpt><trkpt lat="44.53971697056864" lon="8.100805528213742"><ele>708.0</ele><time>2026-05-02T15:12:13Z</time></trkpt><trkpt lat="44.53985506470548" lon="8.100993024762024"><ele>708.0</ele><time>2026-05-02T15:12:14Z</time></trkpt><trkpt lat="44.53999771026478" lon="8.101178417196612"><ele>708.0</ele><time>2026-05-02T15:12:15Z</time></trkpt><trkpt lat="44.54013561830186" lon="8.10135742042187"><ele>708.0</ele><time>2026-05-02T15:12:16Z</time></trkpt><trkpt lat="44.540262370708895" lon="8.10151811451056"><ele>709.75</ele><time>2026-05-02T15:12:17Z</time></trkpt><trkpt lat="44.54037805423653" lon="8.10166670315497"><ele>711.5</ele><time>2026-05-02T15:12:18Z</time></trkpt><trkpt lat="44.54046450137915" lon="8.101813828530538"><ele>713.25</ele><time>2026-05-02T15:12:19Z</time></trkpt><trkpt lat="44.540520604374116" lon="8.101950109632027"><ele>715.0</ele><time>2026-05-02T15:12:20Z</time></trkpt><trkpt lat="44.54055115378146" lon="8.102088765834804"><ele>710.6666666666667</ele><time>2026-05-02T15:12:21Z</time></trkpt><trkpt lat="44.54056838218805" lon="8.102294560539653"><ele>706.3333333333334</ele><time>2026-05-02T15:12:22Z</time></trkpt><trkpt lat="44.54058129576498" lon="8.102522640499107"><ele>702.0</ele><time>2026-05-02T15:12:23Z</time></trkpt><trkpt lat="44.54061669542521" lon="8.102740500222135"><ele>702.0</ele><time>2026-05-02T15:12:24Z</time></trkpt><trkpt lat="44.54065508653423" lon="8.102945420363026"><ele>702.0</ele><time>2026-05-02T15:12:25Z</time></trkpt><trkpt lat="44.540733724658985" lon="8.103137847747297"><ele>702.0</ele><time>2026-05-02T15:12:26Z</time></trkpt><trkpt lat="44.54083545317621" lon="8.103323551700015"><ele>704.75</ele><time>2026-05-02T15:12:27Z</time></trkpt><trkpt lat="44.54094528145663" lon="8.103480471183904"><ele>707.5</ele><time>2026-05-02T15:12:28Z</time></trkpt><trkpt lat="44.541052292625345" lon="8.103616927045953"><ele>710.25</ele><time>2026-05-02T15:12:29Z</time></trkpt><trkpt lat="44.54114428949098" lon="8.103748058064301"><ele>713.0</ele><time>2026-05-02T15:12:30Z</time></trkpt><trkpt lat="44.54122576971842" lon="8.103875152418485"><ele>709.0</ele><time>2026-05-02T15:12:31Z</time></trkpt><trkpt lat="44.54129800879561" lon="8.10400682762388"><ele>705.0</ele><time>2026-05-02T15:12:32Z</time></trkpt><trkpt lat="44.54134800525421" lon="8.104149437304885"><ele>701.0</ele><time>2026-05-02T15:12:33Z</time></trkpt><trkpt lat="44.541370830695584" lon="8.104316368672569"><ele>697.0</ele><time>2026-05-02T15:12:34Z</time></trkpt><trkpt lat="44.54142325653672" lon="8.104471643129742"><ele>697.0</ele><time>2026-05-02T15:12:35Z</time></trkpt><trkpt lat="44.541457245808765" lon="8.1046397769201"><ele>697.0</ele><time>2026-05-02T15:12:36Z</time></trkpt><trkpt lat="44.54151328770114" lon="8.104795566785338"><ele>697.0</ele><time>2026-05-02T15:12:37Z</time></trkpt><trkpt lat="44.54160629231588" lon="8.10492533087066"><ele>697.0</ele><time>2026-05-02T15:12:38Z</time></trkpt><trkpt lat="44.54172129379024" lon="8.105025846756266"><ele>697.0</ele><time>2026-05-02T15:12:39Z</time></trkpt><trkpt lat="44.54184423697104" lon="8.105115825153277"><ele>697.0</ele><time>2026-05-02T15:12:40Z</time></trkpt><trkpt lat="44.54196561903135" lon="8.105212969809838"><ele>697.0</ele><time>2026-05-02T15:12:41Z</time></trkpt><trkpt lat="44.54207148454751" lon="8.105332979447141"><ele>697.0</ele><time>2026-05-02T15:12:42Z</time></trkpt><trkpt lat="44.5421900699159" lon="8.105411675292922"><ele>697.0</ele><time>2026-05-02T15:12:43Z</time></trkpt><trkpt lat="44.54229780701261" lon="8.1055108064484"><ele>697.0</ele><time>2026-05-02T15:12:44Z</time></trkpt><trkpt lat="44.54239995375165" lon="8.10562617147276"><ele>697.0</ele><time>2026-05-02T15:12:45Z</time></trkpt><trkpt lat="44.542506482116444" lon="8.10571916269268"><ele>697.0</ele><time>2026-05-02T15:12:46Z</time></trkpt><trkpt lat="44.54262477693993" lon="8.105793833341975"><ele>697.5</ele><time>2026-05-02T15:12:47Z</time></trkpt><trkpt lat="44.54273998173378" lon="8.105894263726778"><ele>698.0</ele><time>2026-05-02T15:12:48Z</time></trkpt><trkpt lat="44.54285175359174" lon="8.106002701372157"><ele>698.5</ele><time>2026-05-02T15:12:49Z</time></trkpt><trkpt lat="44.54296790462102" lon="8.106099323930946"><ele>699.0</ele><time>2026-05-02T15:12:50Z</time></trkpt><trkpt lat="44.54309040536507" lon="8.106179518002048"><ele>699.0</ele><time>2026-05-02T15:12:51Z</time></trkpt><trkpt lat="44.543225636934686" lon="8.106224746294746"><ele>699.0</ele><time>2026-05-02T15:12:52Z</time></trkpt><trkpt lat="44.54336457674133" lon="8.106234911324746"><ele>699.0</ele><time>2026-05-02T15:12:53Z</time></trkpt><trkpt lat="44.543506101881235" lon="8.106211598343322"><ele>699.0</ele><time>2026-05-02T15:12:54Z</time></trkpt><trkpt lat="44.54364579469084" lon="8.106153568439927"><ele>699.5</ele><time>2026-05-02T15:12:55Z</time></trkpt><trkpt lat="44.54377323382502" lon="8.106047474661825"><ele>700.0</ele><time>2026-05-02T15:12:56Z</time></trkpt><trkpt lat="44.543877674645785" lon="8.105907003608896"><ele>700.5</ele><time>2026-05-02T15:12:57Z</time></trkpt><trkpt lat="44.54397750211989" lon="8.105769918240206"><ele>701.0</ele><time>2026-05-02T15:12:58Z</time></trkpt><trkpt lat="44.544083822390554" lon="8.105658211622272"><ele>701.0</ele><time>2026-05-02T15:12:59Z</time></trkpt><trkpt lat="44.544206717846734" lon="8.105573130747883"><ele>701.0</ele><time>2026-05-02T15:13:00Z</time></trkpt><trkpt lat="44.54434859211362" lon="8.10551874341837"><ele>701.0</ele><time>2026-05-02T15:13:01Z</time></trkpt><trkpt lat="44.54449780366491" lon="8.10553387692385"><ele>701.0</ele><time>2026-05-02T15:13:02Z</time></trkpt><trkpt lat="44.54464423839187" lon="8.105556898333035"><ele>701.5</ele><time>2026-05-02T15:13:03Z</time></trkpt><trkpt lat="44.544791690333284" lon="8.105574348053825"><ele>702.0</ele><time>2026-05-02T15:13:04Z</time></trkpt><trkpt lat="44.54493183121254" lon="8.105643012382789"><ele>702.5</ele><time>2026-05-02T15:13:05Z</time></trkpt><trkpt lat="44.54508215404394" lon="8.105679064399837"><ele>703.0</ele><time>2026-05-02T15:13:06Z</time></trkpt><trkpt lat="44.545232018229136" lon="8.105729426281643"><ele>703.25</ele><time>2026-05-02T15:13:07Z</time></trkpt><trkpt lat="44.545376336248374" lon="8.105775942193306"><ele>703.5</ele><time>2026-05-02T15:13:08Z</time></trkpt><trkpt lat="44.54551794972409" lon="8.105818593610188"><ele>703.75</ele><time>2026-05-02T15:13:09Z</time></trkpt><trkpt lat="44.545659573969544" lon="8.105854291941233"><ele>704.0</ele><time>2026-05-02T15:13:10Z</time></trkpt><trkpt lat="44.5458024412403" lon="8.105898923588896"><ele>704.0</ele><time>2026-05-02T15:13:11Z</time></trkpt><trkpt lat="44.54594938119692" lon="8.105951208807078"><ele>704.0</ele><time>2026-05-02T15:13:12Z</time></trkpt><trkpt lat="44.546096039896" lon="8.105992295843787"><ele>704.0</ele><time>2026-05-02T15:13:13Z</time></trkpt><trkpt lat="44.546246231778944" lon="8.10603603878767"><ele>701.6666666666666</ele><time>2026-05-02T15:13:14Z</time></trkpt><trkpt lat="44.54639751988595" lon="8.106082408815443"><ele>699.3333333333334</ele><time>2026-05-02T15:13:15Z</time></trkpt><trkpt lat="44.54654978562499" lon="8.106125828093571"><ele>697.0</ele><time>2026-05-02T15:13:16Z</time></trkpt><trkpt lat="44.546694997664794" lon="8.106169658364056"><ele>697.0</ele><time>2026-05-02T15:13:17Z</time></trkpt><trkpt lat="44.54683640829482" lon="8.1062168582626"><ele>697.0</ele><time>2026-05-02T15:13:18Z</time></trkpt><trkpt lat="44.54697187937574" lon="8.106266477555133"><ele>697.0</ele><time>2026-05-02T15:13:19Z</time></trkpt><trkpt lat="44.547104395088276" lon="8.1063182130915"><ele>697.0</ele><time>2026-05-02T15:13:20Z</time></trkpt><trkpt lat="44.547231265286165" lon="8.10637367573349"><ele>695.75</ele><time>2026-05-02T15:13:21Z</time></trkpt><trkpt lat="44.547346165324626" lon="8.106429393976098"><ele>694.5</ele><time>2026-05-02T15:13:22Z</time></trkpt><trkpt lat="44.54745360429609" lon="8.10648619730765"><ele>693.25</ele><time>2026-05-02T15:13:23Z</time></trkpt><trkpt lat="44.5475571462571" lon="8.106570301312681"><ele>692.0</ele><time>2026-05-02T15:13:24Z</time></trkpt><trkpt lat="44.54766439852333" lon="8.106676491996067"><ele>692.0</ele><time>2026-05-02T15:13:25Z</time></trkpt><trkpt lat="44.54778717344283" lon="8.106762495021378"><ele>692.0</ele><time>2026-05-02T15:13:26Z</time></trkpt><trkpt lat="44.54792036071435" lon="8.106856826937909"><ele>692.0</ele><time>2026-05-02T15:13:27Z</time></trkpt><trkpt lat="44.54804580594914" lon="8.10699505096232"><ele>692.0</ele><time>2026-05-02T15:13:28Z</time></trkpt><trkpt lat="44.54818341937581" lon="8.107122034638433"><ele>690.0</ele><time>2026-05-02T15:13:29Z</time></trkpt><trkpt lat="44.54833183512065" lon="8.10725704539666"><ele>688.0</ele><time>2026-05-02T15:13:30Z</time></trkpt><trkpt lat="44.548494385788196" lon="8.107379739311963"><ele>686.0</ele><time>2026-05-02T15:13:31Z</time></trkpt><trkpt lat="44.54864706365032" lon="8.107524841322814"><ele>683.0</ele><time>2026-05-02T15:13:32Z</time></trkpt><trkpt lat="44.54880123012191" lon="8.107666014459268"><ele>680.0</ele><time>2026-05-02T15:13:33Z</time></trkpt><trkpt lat="44.54894897421312" lon="8.10782932147787"><ele>677.0</ele><time>2026-05-02T15:13:34Z</time></trkpt><trkpt lat="44.54910671065941" lon="8.10797806654287"><ele>677.0</ele><time>2026-05-02T15:13:35Z</time></trkpt><trkpt lat="44.54927972483276" lon="8.10811235622609"><ele>677.0</ele><time>2026-05-02T15:13:36Z</time></trkpt><trkpt lat="44.54944504568926" lon="8.108270581917147"><ele>677.0</ele><time>2026-05-02T15:13:37Z</time></trkpt><trkpt lat="44.54961464388109" lon="8.108415703915089"><ele>675.0</ele><time>2026-05-02T15:13:38Z</time></trkpt><trkpt lat="44.54977669945813" lon="8.10859205122994"><ele>673.0</ele><time>2026-05-02T15:13:39Z</time></trkpt><trkpt lat="44.549942969606796" lon="8.108746345822725"><ele>671.0</ele><time>2026-05-02T15:13:40Z</time></trkpt><trkpt lat="44.55011236731916" lon="8.108903862753445"><ele>671.0</ele><time>2026-05-02T15:13:41Z</time></trkpt><trkpt lat="44.550292134395015" lon="8.109043401932437"><ele>671.0</ele><time>2026-05-02T15:13:42Z</time></trkpt><trkpt lat="44.550466617604116" lon="8.109208897883528"><ele>671.0</ele><time>2026-05-02T15:13:43Z</time></trkpt><trkpt lat="44.55064416492586" lon="8.109372454850995"><ele>669.0</ele><time>2026-05-02T15:13:44Z</time></trkpt><trkpt lat="44.55082523673632" lon="8.109533658492996"><ele>667.0</ele><time>2026-05-02T15:13:45Z</time></trkpt><trkpt lat="44.551004170688415" lon="8.109698508525208"><ele>665.0</ele><time>2026-05-02T15:13:46Z</time></trkpt><trkpt lat="44.551186144877924" lon="8.109866682288338"><ele>664.6666666666666</ele><time>2026-05-02T15:13:47Z</time></trkpt><trkpt lat="44.55135325296493" lon="8.110052451177921"><ele>664.3333333333334</ele><time>2026-05-02T15:13:48Z</time></trkpt><trkpt lat="44.55152137499286" lon="8.110249088180959"><ele>664.0</ele><time>2026-05-02T15:13:49Z</time></trkpt><trkpt lat="44.551675504194655" lon="8.110470404402985"><ele>664.0</ele><time>2026-05-02T15:13:50Z</time></trkpt><trkpt lat="44.55182077697785" lon="8.110696874318798"><ele>664.0</ele><time>2026-05-02T15:13:51Z</time></trkpt><trkpt lat="44.551999686259556" lon="8.110882144297758"><ele>664.0</ele><time>2026-05-02T15:13:52Z</time></trkpt><trkpt lat="44.55220381163938" lon="8.111035086941987"><ele>664.0</ele><time>2026-05-02T15:13:53Z</time></trkpt><trkpt lat="44.552422058570606" lon="8.11117106911213"><ele>664.0</ele><time>2026-05-02T15:13:54Z</time></trkpt><trkpt lat="44.552621145841734" lon="8.11131744515645"><ele>664.0</ele><time>2026-05-02T15:13:55Z</time></trkpt><trkpt lat="44.55280558652225" lon="8.111441982588493"><ele>664.0</ele><time>2026-05-02T15:13:56Z</time></trkpt><trkpt lat="44.55296715235882" lon="8.111556841425575"><ele>664.0</ele><time>2026-05-02T15:13:57Z</time></trkpt><trkpt lat="44.55307503232071" lon="8.11175236441056"><ele>665.3333333333334</ele><time>2026-05-02T15:13:58Z</time></trkpt><trkpt lat="44.55317713128971" lon="8.111986610679757"><ele>666.6666666666666</ele><time>2026-05-02T15:13:59Z</time></trkpt><trkpt lat="44.553286579078716" lon="8.112249486126267"><ele>668.0</ele><time>2026-05-02T15:14:00Z</time></trkpt><trkpt lat="44.55342732269795" lon="8.112484047301418"><ele>670.0</ele><time>2026-05-02T15:14:01Z</time></trkpt><trkpt lat="44.55360238486915" lon="8.112687898436409"><ele>672.0</ele><time>2026-05-02T15:14:02Z</time></trkpt><trkpt lat="44.55381260413013" lon="8.112840738792235"><ele>667.0</ele><time>2026-05-02T15:14:03Z</time></trkpt><trkpt lat="44.55402529428654" lon="8.112992834736156"><ele>662.0</ele><time>2026-05-02T15:14:04Z</time></trkpt><trkpt lat="44.55421054144911" lon="8.113175768152367"><ele>662.6666666666666</ele><time>2026-05-02T15:14:05Z</time></trkpt><trkpt lat="44.554399332674755" lon="8.11331096524598"><ele>663.3333333333334</ele><time>2026-05-02T15:14:06Z</time></trkpt><trkpt lat="44.55456471572896" lon="8.11345600776228"><ele>664.0</ele><time>2026-05-02T15:14:07Z</time></trkpt><trkpt lat="44.554716282897566" lon="8.113591956910184"><ele>664.0</ele><time>2026-05-02T15:14:08Z</time></trkpt><trkpt lat="44.55485992814609" lon="8.113722250843278"><ele>664.0</ele><time>2026-05-02T15:14:09Z</time></trkpt><trkpt lat="44.5550037495559" lon="8.113850019523776"><ele>664.0</ele><time>2026-05-02T15:14:10Z</time></trkpt><trkpt lat="44.55516055347122" lon="8.113978218815756"><ele>662.6666666666667</ele><time>2026-05-02T15:14:11Z</time></trkpt><trkpt lat="44.55531859361671" lon="8.114111651481755"><ele>661.3333333333334</ele><time>2026-05-02T15:14:12Z</time></trkpt><trkpt lat="44.55547920950256" lon="8.114245549144144"><ele>660.0</ele><time>2026-05-02T15:14:13Z</time></trkpt><trkpt lat="44.55564101466044" lon="8.114378305707527"><ele>660.0</ele><time>2026-05-02T15:14:14Z</time></trkpt><trkpt lat="44.555800283556486" lon="8.114511442872635"><ele>660.0</ele><time>2026-05-02T15:14:15Z</time></trkpt><trkpt lat="44.55596094367453" lon="8.114644860487456"><ele>660.0</ele><time>2026-05-02T15:14:16Z</time></trkpt><trkpt lat="44.55612151116755" lon="8.114778666421879"><ele>660.0</ele><time>2026-05-02T15:14:17Z</time></trkpt><trkpt lat="44.55627817103756" lon="8.114910373972595"><ele>660.0</ele><time>2026-05-02T15:14:18Z</time></trkpt><trkpt lat="44.5564270049601" lon="8.115036710578291"><ele>660.0</ele><time>2026-05-02T15:14:19Z</time></trkpt><trkpt lat="44.556568485227366" lon="8.115160527332069"><ele>660.0</ele><time>2026-05-02T15:14:20Z</time></trkpt><trkpt lat="44.556710880498756" lon="8.115296215771226"><ele>660.0</ele><time>2026-05-02T15:14:21Z</time></trkpt><trkpt lat="44.55684486886405" lon="8.115443626905353"><ele>660.0</ele><time>2026-05-02T15:14:22Z</time></trkpt><trkpt lat="44.55699063853717" lon="8.1155849774227"><ele>658.0</ele><time>2026-05-02T15:14:23Z</time></trkpt><trkpt lat="44.557128775149735" lon="8.115739295694675"><ele>656.0</ele><time>2026-05-02T15:14:24Z</time></trkpt><trkpt lat="44.557271764302044" lon="8.115897212856845"><ele>654.0</ele><time>2026-05-02T15:14:25Z</time></trkpt><trkpt lat="44.55741915677344" lon="8.116056121833813"><ele>654.0</ele><time>2026-05-02T15:14:26Z</time></trkpt><trkpt lat="44.55756911588425" lon="8.116220738867382"><ele>654.0</ele><time>2026-05-02T15:14:27Z</time></trkpt><trkpt lat="44.55771568062246" lon="8.116386997466163"><ele>654.0</ele><time>2026-05-02T15:14:28Z</time></trkpt><trkpt lat="44.557859008688645" lon="8.116551645861216"><ele>652.0</ele><time>2026-05-02T15:14:29Z</time></trkpt><trkpt lat="44.557999113436416" lon="8.116708794867206"><ele>650.0</ele><time>2026-05-02T15:14:30Z</time></trkpt><trkpt lat="44.55812790957026" lon="8.116843330154085"><ele>648.0</ele><time>2026-05-02T15:14:31Z</time></trkpt><trkpt lat="44.55825091396699" lon="8.116942083268041"><ele>648.0</ele><time>2026-05-02T15:14:32Z</time></trkpt><trkpt lat="44.5583987331753" lon="8.116972717048986"><ele>648.0</ele><time>2026-05-02T15:14:33Z</time></trkpt><trkpt lat="44.55857044699479" lon="8.116939284620939"><ele>648.0</ele><time>2026-05-02T15:14:34Z</time></trkpt><trkpt lat="44.55874330529935" lon="8.116871831008622"><ele>646.5</ele><time>2026-05-02T15:14:35Z</time></trkpt><trkpt lat="44.55888657306337" lon="8.116818688248248"><ele>645.0</ele><time>2026-05-02T15:14:36Z</time></trkpt><trkpt lat="44.55900757494882" lon="8.116793783082613"><ele>643.5</ele><time>2026-05-02T15:14:37Z</time></trkpt><trkpt lat="44.55912764202643" lon="8.116828182127625"><ele>642.0</ele><time>2026-05-02T15:14:38Z</time></trkpt><trkpt lat="44.55922570665232" lon="8.11693018496313"><ele>642.0</ele><time>2026-05-02T15:14:39Z</time></trkpt><trkpt lat="44.55931404800302" lon="8.117100297181947"><ele>642.0</ele><time>2026-05-02T15:14:40Z</time></trkpt><trkpt lat="44.55939901643223" lon="8.117293738526335"><ele>642.0</ele><time>2026-05-02T15:14:41Z</time></trkpt><trkpt lat="44.55948781845131" lon="8.117450912429302"><ele>642.0</ele><time>2026-05-02T15:14:42Z</time></trkpt><trkpt lat="44.55959420129658" lon="8.11754366057806"><ele>642.0</ele><time>2026-05-02T15:14:43Z</time></trkpt><trkpt lat="44.559739527126226" lon="8.117568888474944"><ele>642.0</ele><time>2026-05-02T15:14:44Z</time></trkpt><trkpt lat="44.55990774671962" lon="8.11752622342572"><ele>642.0</ele><time>2026-05-02T15:14:45Z</time></trkpt><trkpt lat="44.5600842482306" lon="8.117459496411374"><ele>642.0</ele><time>2026-05-02T15:14:46Z</time></trkpt><trkpt lat="44.56024558252593" lon="8.11742001736991"><ele>642.0</ele><time>2026-05-02T15:14:47Z</time></trkpt><trkpt lat="44.560400006069706" lon="8.117430070299003"><ele>642.0</ele><time>2026-05-02T15:14:48Z</time></trkpt><trkpt lat="44.56055631597646" lon="8.117496299049728"><ele>638.3333333333334</ele><time>2026-05-02T15:14:49Z</time></trkpt><trkpt lat="44.56071395836024" lon="8.117604314971476"><ele>634.6666666666667</ele><time>2026-05-02T15:14:50Z</time></trkpt><trkpt lat="44.56088066053773" lon="8.117736716118456"><ele>631.0</ele><time>2026-05-02T15:14:51Z</time></trkpt><trkpt lat="44.56104702388467" lon="8.117872028868925"><ele>631.0</ele><time>2026-05-02T15:14:52Z</time></trkpt><trkpt lat="44.561187337998064" lon="8.117988049263575"><ele>631.0</ele><time>2026-05-02T15:14:53.001Z</time></trkpt><trkpt lat="44.5613026835206" lon="8.118072213811386"><ele>631.0</ele><time>2026-05-02T15:14:54.001Z</time></trkpt><trkpt lat="44.56141812585504" lon="8.118096693950124"><ele>631.0</ele><time>2026-05-02T15:14:55.001Z</time></trkpt><trkpt lat="44.56154034062869" lon="8.118040861794915"><ele>629.0</ele><time>2026-05-02T15:14:56.001Z</time></trkpt><trkpt lat="44.56165305507834" lon="8.117902773693473"><ele>627.0</ele><time>2026-05-02T15:14:57.001Z</time></trkpt><trkpt lat="44.56174964279409" lon="8.117750979904915"><ele>625.0</ele><time>2026-05-02T15:14:58.001Z</time></trkpt><trkpt lat="44.561859220783724" lon="8.117673928688447"><ele>623.0</ele><time>2026-05-02T15:14:59.001Z</time></trkpt><trkpt lat="44.56196707202343" lon="8.117667214990679"><ele>620.75</ele><time>2026-05-02T15:15:00.001Z</time></trkpt><trkpt lat="44.56207163930145" lon="8.117751195591719"><ele>618.5</ele><time>2026-05-02T15:15:01.001Z</time></trkpt><trkpt lat="44.56219019764653" lon="8.117871493936462"><ele>616.25</ele><time>2026-05-02T15:15:02.001Z</time></trkpt><trkpt lat="44.56232179986567" lon="8.118006382966371"><ele>614.0</ele><time>2026-05-02T15:15:03.001Z</time></trkpt><trkpt lat="44.56242817443993" lon="8.118180817117478"><ele>617.6666666666666</ele><time>2026-05-02T15:15:04.001Z</time></trkpt><trkpt lat="44.562514697964204" lon="8.11839705614263"><ele>621.3333333333334</ele><time>2026-05-02T15:15:05.001Z</time></trkpt><trkpt lat="44.56257450670355" lon="8.118623781867388"><ele>625.0</ele><time>2026-05-02T15:15:06.001Z</time></trkpt><trkpt lat="44.56261922866473" lon="8.118825441122821"><ele>625.0</ele><time>2026-05-02T15:15:07.001Z</time></trkpt><trkpt lat="44.56268689979401" lon="8.118986381262218"><ele>625.0</ele><time>2026-05-02T15:15:08.001Z</time></trkpt><trkpt lat="44.56281398590228" lon="8.119096309889883"><ele>625.0</ele><time>2026-05-02T15:15:09.001Z</time></trkpt><trkpt lat="44.562983005530064" lon="8.119158798512718"><ele>623.0</ele><time>2026-05-02T15:15:10.001Z</time></trkpt><trkpt lat="44.56315781436271" lon="8.119229245480637"><ele>621.0</ele><time>2026-05-02T15:15:11.001Z</time></trkpt><trkpt lat="44.56334168182745" lon="8.119290876073615"><ele>619.0</ele><time>2026-05-02T15:15:12.001Z</time></trkpt><trkpt lat="44.56353478615846" lon="8.11935709438137"><ele>615.0</ele><time>2026-05-02T15:15:13.001Z</time></trkpt><trkpt lat="44.56372123541598" lon="8.119418934287896"><ele>611.0</ele><time>2026-05-02T15:15:14.001Z</time></trkpt><trkpt lat="44.56391372422853" lon="8.119459160541417"><ele>607.0</ele><time>2026-05-02T15:15:15.001Z</time></trkpt><trkpt lat="44.56410683696462" lon="8.119549612010982"><ele>607.0</ele><time>2026-05-02T15:15:16.001Z</time></trkpt><trkpt lat="44.56430100124438" lon="8.119612706532589"><ele>607.0</ele><time>2026-05-02T15:15:17.001Z</time></trkpt><trkpt lat="44.56450231694537" lon="8.119660537126705"><ele>607.0</ele><time>2026-05-02T15:15:18.001Z</time></trkpt><trkpt lat="44.56469614671823" lon="8.119728242024529"><ele>608.6666666666667</ele><time>2026-05-02T15:15:19.001Z</time></trkpt><trkpt lat="44.5648893311618" lon="8.119795531225801"><ele>610.3333333333334</ele><time>2026-05-02T15:15:20.001Z</time></trkpt><trkpt lat="44.56507947785832" lon="8.11987622085985"><ele>612.0</ele><time>2026-05-02T15:15:21.001Z</time></trkpt><trkpt lat="44.56527844320978" lon="8.119930712691737"><ele>609.0</ele><time>2026-05-02T15:15:22.001Z</time></trkpt><trkpt lat="44.565476982560504" lon="8.119964644528602"><ele>606.0</ele><time>2026-05-02T15:15:23.001Z</time></trkpt><trkpt lat="44.56567573462017" lon="8.119992806467788"><ele>603.0</ele><time>2026-05-02T15:15:24.001Z</time></trkpt><trkpt lat="44.565880248031654" lon="8.12001917491183"><ele>603.0</ele><time>2026-05-02T15:15:25.001Z</time></trkpt><trkpt lat="44.56608637756544" lon="8.120046410432668"><ele>603.0</ele><time>2026-05-02T15:15:26.001Z</time></trkpt><trkpt lat="44.56629390494082" lon="8.12007150108409"><ele>603.0</ele><time>2026-05-02T15:15:27.001Z</time></trkpt><trkpt lat="44.56649652026105" lon="8.120058250855577"><ele>599.3333333333334</ele><time>2026-05-02T15:15:28.001Z</time></trkpt><trkpt lat="44.5666970483993" lon="8.120042115204734"><ele>595.6666666666667</ele><time>2026-05-02T15:15:29.001Z</time></trkpt><trkpt lat="44.56690202010462" lon="8.120021016113817"><ele>592.0</ele><time>2026-05-02T15:15:30.001Z</time></trkpt><trkpt lat="44.56710942771863" lon="8.119993717953268"><ele>590.6666666666667</ele><time>2026-05-02T15:15:31.001Z</time></trkpt><trkpt lat="44.56730076603327" lon="8.119988476657294"><ele>589.3333333333334</ele><time>2026-05-02T15:15:32.001Z</time></trkpt><trkpt lat="44.56744875464738" lon="8.119952106353177"><ele>588.0</ele><time>2026-05-02T15:15:33.001Z</time></trkpt><trkpt lat="44.5675816738342" lon="8.119960727448184"><ele>588.0</ele><time>2026-05-02T15:15:34.001Z</time></trkpt><trkpt lat="44.56770801487082" lon="8.120024205391893"><ele>588.0</ele><time>2026-05-02T15:15:35.001Z</time></trkpt><trkpt lat="44.56781951517669" lon="8.12016813170098"><ele>588.0</ele><time>2026-05-02T15:15:36.001Z</time></trkpt><trkpt lat="44.56789359183104" lon="8.120345992461063"><ele>588.0</ele><time>2026-05-02T15:15:37.001Z</time></trkpt><trkpt lat="44.567964352216286" lon="8.12051066973731"><ele>587.5</ele><time>2026-05-02T15:15:38.001Z</time></trkpt><trkpt lat="44.568060883690976" lon="8.120628227391794"><ele>587.0</ele><time>2026-05-02T15:15:39.001Z</time></trkpt><trkpt lat="44.56818432908635" lon="8.120690982659754"><ele>586.5</ele><time>2026-05-02T15:15:40.001Z</time></trkpt><trkpt lat="44.56832184239481" lon="8.120661445308201"><ele>586.0</ele><time>2026-05-02T15:15:41.001Z</time></trkpt><trkpt lat="44.56843405436981" lon="8.120541802038739"><ele>586.0</ele><time>2026-05-02T15:15:42.001Z</time></trkpt><trkpt lat="44.56851274040015" lon="8.120344834055137"><ele>586.0</ele><time>2026-05-02T15:15:43.001Z</time></trkpt><trkpt lat="44.568566006295946" lon="8.120104177600792"><ele>586.0</ele><time>2026-05-02T15:15:44.001Z</time></trkpt><trkpt lat="44.56861433167263" lon="8.119887298999613"><ele>583.75</ele><time>2026-05-02T15:15:45.001Z</time></trkpt><trkpt lat="44.56865959214459" lon="8.119700351814714"><ele>581.5</ele><time>2026-05-02T15:15:46.001Z</time></trkpt><trkpt lat="44.56872756929924" lon="8.11954798573319"><ele>579.25</ele><time>2026-05-02T15:15:47.001Z</time></trkpt><trkpt lat="44.56879261285558" lon="8.119401054755095"><ele>577.0</ele><time>2026-05-02T15:15:48.001Z</time></trkpt><trkpt lat="44.56890011279611" lon="8.119313074279326"><ele>576.25</ele><time>2026-05-02T15:15:49.001Z</time></trkpt><trkpt lat="44.56902937558273" lon="8.119315487170404"><ele>575.5</ele><time>2026-05-02T15:15:50.001Z</time></trkpt><trkpt lat="44.56916395755142" lon="8.119362936289527"><ele>574.75</ele><time>2026-05-02T15:15:51.001Z</time></trkpt><trkpt lat="44.56931201171817" lon="8.119436753321416"><ele>574.0</ele><time>2026-05-02T15:15:52.001Z</time></trkpt><trkpt lat="44.56946751062837" lon="8.11951693664"><ele>570.0</ele><time>2026-05-02T15:15:53.001Z</time></trkpt><trkpt lat="44.56962410821264" lon="8.119573130137455"><ele>566.0</ele><time>2026-05-02T15:15:54.001Z</time></trkpt><trkpt lat="44.569758715473206" lon="8.119644260620221"><ele>562.0</ele><time>2026-05-02T15:15:55.001Z</time></trkpt><trkpt lat="44.56986745851241" lon="8.119709285686012"><ele>558.0</ele><time>2026-05-02T15:15:56.001Z</time></trkpt><trkpt lat="44.56994062774314" lon="8.119818518459905"><ele>561.0</ele><time>2026-05-02T15:15:57.001Z</time></trkpt><trkpt lat="44.56997114986554" lon="8.119975366412108"><ele>564.0</ele><time>2026-05-02T15:15:58.001Z</time></trkpt><trkpt lat="44.569964076825" lon="8.120174710118734"><ele>567.0</ele><time>2026-05-02T15:15:59.001Z</time></trkpt><trkpt lat="44.56994406177593" lon="8.120394435552535"><ele>570.0</ele><time>2026-05-02T15:16:00Z</time></trkpt><trkpt lat="44.56995256607893" lon="8.120597121408148"><ele>571.3333333333334</ele><time>2026-05-02T15:16:01Z</time></trkpt><trkpt lat="44.57001697420996" lon="8.120799959728096"><ele>572.6666666666667</ele><time>2026-05-02T15:16:02Z</time></trkpt><trkpt lat="44.5701621730454" lon="8.12095163390591"><ele>574.0</ele><time>2026-05-02T15:16:03Z</time></trkpt><trkpt lat="44.57030895680486" lon="8.121101965772036"><ele>570.6666666666667</ele><time>2026-05-02T15:16:04Z</time></trkpt><trkpt lat="44.57046141283664" lon="8.12126745545461"><ele>567.3333333333334</ele><time>2026-05-02T15:16:05Z</time></trkpt><trkpt lat="44.570621936243086" lon="8.121430134756597"><ele>564.0</ele><time>2026-05-02T15:16:06Z</time></trkpt><trkpt lat="44.57079612846215" lon="8.12157223240443"><ele>564.0</ele><time>2026-05-02T15:16:07Z</time></trkpt><trkpt lat="44.57094657766685" lon="8.121726081090761"><ele>564.0</ele><time>2026-05-02T15:16:08Z</time></trkpt><trkpt lat="44.57109239458157" lon="8.121870550631119"><ele>564.0</ele><time>2026-05-02T15:16:09Z</time></trkpt><trkpt lat="44.571233855591366" lon="8.122010584182531"><ele>563.3333333333334</ele><time>2026-05-02T15:16:10Z</time></trkpt><trkpt lat="44.571359365448565" lon="8.122161601579942"><ele>562.6666666666667</ele><time>2026-05-02T15:16:11Z</time></trkpt><trkpt lat="44.57149795643167" lon="8.122272924686426"><ele>562.0</ele><time>2026-05-02T15:16:12Z</time></trkpt><trkpt lat="44.5716212994773" lon="8.1224003505573"><ele>562.0</ele><time>2026-05-02T15:16:13Z</time></trkpt><trkpt lat="44.571740932678566" lon="8.12252189575755"><ele>562.0</ele><time>2026-05-02T15:16:14Z</time></trkpt><trkpt lat="44.57185770330418" lon="8.122638790906779"><ele>562.0</ele><time>2026-05-02T15:16:15Z</time></trkpt><trkpt lat="44.57197549397152" lon="8.122753369781563"><ele>562.0</ele><time>2026-05-02T15:16:16Z</time></trkpt><trkpt lat="44.572089554490425" lon="8.122865668919758"><ele>560.0</ele><time>2026-05-02T15:16:17Z</time></trkpt><trkpt lat="44.572198512673225" lon="8.122979948361436"><ele>558.0</ele><time>2026-05-02T15:16:18Z</time></trkpt><trkpt lat="44.57229509171378" lon="8.123105554451804"><ele>556.0</ele><time>2026-05-02T15:16:19Z</time></trkpt><trkpt lat="44.57236421047932" lon="8.123266372325288"><ele>554.0</ele><time>2026-05-02T15:16:20Z</time></trkpt><trkpt lat="44.572394361005685" lon="8.123473160875074"><ele>554.0</ele><time>2026-05-02T15:16:21Z</time></trkpt><trkpt lat="44.572429060886826" lon="8.123692221950279"><ele>554.0</ele><time>2026-05-02T15:16:22Z</time></trkpt><trkpt lat="44.57244239775468" lon="8.123923285879188"><ele>554.0</ele><time>2026-05-02T15:16:23Z</time></trkpt><trkpt lat="44.57243308436062" lon="8.124169942203228"><ele>554.0</ele><time>2026-05-02T15:16:24Z</time></trkpt><trkpt lat="44.572407366486814" lon="8.12443376418222"><ele>554.0</ele><time>2026-05-02T15:16:25Z</time></trkpt><trkpt lat="44.572377090792294" lon="8.12470569119796"><ele>554.0</ele><time>2026-05-02T15:16:26Z</time></trkpt><trkpt lat="44.572345699299305" lon="8.124989001910555"><ele>553.3333333333333</ele><time>2026-05-02T15:16:27Z</time></trkpt><trkpt lat="44.57233046081851" lon="8.125269084498624"><ele>552.6666666666666</ele><time>2026-05-02T15:16:28Z</time></trkpt><trkpt lat="44.57230179151098" lon="8.1255277073491"><ele>552.0</ele><time>2026-05-02T15:16:29Z</time></trkpt><trkpt lat="44.57228314235595" lon="8.12577731034151"><ele>551.0</ele><time>2026-05-02T15:16:30Z</time></trkpt><trkpt lat="44.57227283990906" lon="8.126015376935776"><ele>550.0</ele><time>2026-05-02T15:16:31Z</time></trkpt><trkpt lat="44.57227073137803" lon="8.126241405880279"><ele>549.0</ele><time>2026-05-02T15:16:32Z</time></trkpt><trkpt lat="44.5722651452295" lon="8.126454610042765"><ele>548.25</ele><time>2026-05-02T15:16:33Z</time></trkpt><trkpt lat="44.57232045622101" lon="8.126641951875305"><ele>547.5</ele><time>2026-05-02T15:16:34Z</time></trkpt><trkpt lat="44.57238548045273" lon="8.126819276865515"><ele>546.75</ele><time>2026-05-02T15:16:35Z</time></trkpt><trkpt lat="44.57248058565106" lon="8.12697572968236"><ele>546.0</ele><time>2026-05-02T15:16:36Z</time></trkpt><trkpt lat="44.57259038767951" lon="8.127109054006056"><ele>546.0</ele><time>2026-05-02T15:16:37Z</time></trkpt><trkpt lat="44.57271241208733" lon="8.127220794396436"><ele>546.0</ele><time>2026-05-02T15:16:38Z</time></trkpt><trkpt lat="44.572839418163575" lon="8.127323796132934"><ele>546.0</ele><time>2026-05-02T15:16:39Z</time></trkpt><trkpt lat="44.57296732541485" lon="8.127434227964581"><ele>546.0</ele><time>2026-05-02T15:16:40Z</time></trkpt><trkpt lat="44.57308999026918" lon="8.127543224261306"><ele>546.75</ele><time>2026-05-02T15:16:41Z</time></trkpt><trkpt lat="44.57320296887536" lon="8.127637522731646"><ele>547.5</ele><time>2026-05-02T15:16:42Z</time></trkpt><trkpt lat="44.573312821836446" lon="8.127727171670902"><ele>548.25</ele><time>2026-05-02T15:16:43Z</time></trkpt><trkpt lat="44.57342697911868" lon="8.127820730236666"><ele>549.0</ele><time>2026-05-02T15:16:44Z</time></trkpt><trkpt lat="44.573552165690515" lon="8.127907919189495"><ele>549.0</ele><time>2026-05-02T15:16:45Z</time></trkpt><trkpt lat="44.57363762042025" lon="8.127997747667294"><ele>549.0</ele><time>2026-05-02T15:16:46Z</time></trkpt><trkpt lat="44.573741464868405" lon="8.12808962406087"><ele>549.0</ele><time>2026-05-02T15:16:47Z</time></trkpt><trkpt lat="44.57382883030561" lon="8.128190638515099"><ele>549.0</ele><time>2026-05-02T15:16:48Z</time></trkpt><trkpt lat="44.57393190655794" lon="8.128278823020388"><ele>549.25</ele><time>2026-05-02T15:16:49Z</time></trkpt><trkpt lat="44.57403310181594" lon="8.128365398228759"><ele>549.5</ele><time>2026-05-02T15:16:50Z</time></trkpt><trkpt lat="44.57413501052056" lon="8.128452583917964"><ele>549.75</ele><time>2026-05-02T15:16:51.001Z</time></trkpt><trkpt lat="44.5742514704518" lon="8.12852508353202"><ele>550.0</ele><time>2026-05-02T15:16:52.001Z</time></trkpt><trkpt lat="44.574352409178275" lon="8.1286389371379"><ele>550.0</ele><time>2026-05-02T15:16:53.001Z</time></trkpt><trkpt lat="44.57446295978863" lon="8.128734382168041"><ele>550.0</ele><time>2026-05-02T15:16:54.001Z</time></trkpt><trkpt lat="44.57457284685543" lon="8.128829254295812"><ele>550.0</ele><time>2026-05-02T15:16:55.001Z</time></trkpt><trkpt lat="44.57468540984254" lon="8.128926436712735"><ele>550.0</ele><time>2026-05-02T15:16:56.001Z</time></trkpt><trkpt lat="44.574798666956276" lon="8.12902321245024"><ele>549.5</ele><time>2026-05-02T15:16:57.001Z</time></trkpt><trkpt lat="44.5749142915548" lon="8.129126325927233"><ele>549.0</ele><time>2026-05-02T15:16:58.001Z</time></trkpt><trkpt lat="44.575035593684085" lon="8.12922628681988"><ele>548.5</ele><time>2026-05-02T15:16:59.001Z</time></trkpt><trkpt lat="44.5751568556772" lon="8.129323709119"><ele>548.0</ele><time>2026-05-02T15:17:00.001Z</time></trkpt><trkpt lat="44.57527995100216" lon="8.12943062815922"><ele>548.75</ele><time>2026-05-02T15:17:01.001Z</time></trkpt><trkpt lat="44.57539303801715" lon="8.129550543198222"><ele>549.5</ele><time>2026-05-02T15:17:02.001Z</time></trkpt><trkpt lat="44.57549478752214" lon="8.129692424729045"><ele>550.25</ele><time>2026-05-02T15:17:03.001Z</time></trkpt><trkpt lat="44.575576480112574" lon="8.12984855338976"><ele>551.0</ele><time>2026-05-02T15:17:04.001Z</time></trkpt><trkpt lat="44.575653287253424" lon="8.13001940932911"><ele>551.0</ele><time>2026-05-02T15:17:05.001Z</time></trkpt><trkpt lat="44.57573107568127" lon="8.130192013041132"><ele>551.0</ele><time>2026-05-02T15:17:06.001Z</time></trkpt><trkpt lat="44.57581001647807" lon="8.130361400735273"><ele>551.0</ele><time>2026-05-02T15:17:07.001Z</time></trkpt><trkpt lat="44.5758884801568" lon="8.130529942824797"><ele>551.0</ele><time>2026-05-02T15:17:08.001Z</time></trkpt><trkpt lat="44.57596078212478" lon="8.13069689024044"><ele>549.75</ele><time>2026-05-02T15:17:09.001Z</time></trkpt><trkpt lat="44.57603773433101" lon="8.130867086274053"><ele>548.5</ele><time>2026-05-02T15:17:10.001Z</time></trkpt><trkpt lat="44.57613151379683" lon="8.131024077880797"><ele>547.25</ele><time>2026-05-02T15:17:11.001Z</time></trkpt><trkpt lat="44.57625728702954" lon="8.131141639114029"><ele>546.0</ele><time>2026-05-02T15:17:12.001Z</time></trkpt><trkpt lat="44.57640479569242" lon="8.131229984389583"><ele>552.6666666666666</ele><time>2026-05-02T15:17:13.001Z</time></trkpt><trkpt lat="44.57656906254058" lon="8.131290013355933"><ele>559.3333333333333</ele><time>2026-05-02T15:17:14.001Z</time></trkpt><trkpt lat="44.57674040373388" lon="8.131347509367982"><ele>566.0</ele><time>2026-05-02T15:17:15.001Z</time></trkpt><trkpt lat="44.5769080461157" lon="8.131426833781482"><ele>564.0</ele><time>2026-05-02T15:17:16.001Z</time></trkpt><trkpt lat="44.57708801515757" lon="8.13148989148573"><ele>562.0</ele><time>2026-05-02T15:17:17.001Z</time></trkpt><trkpt lat="44.57726675807199" lon="8.131529138944037"><ele>560.0</ele><time>2026-05-02T15:17:18.001Z</time></trkpt><trkpt lat="44.577420749430964" lon="8.1316044011872"><ele>560.0</ele><time>2026-05-02T15:17:19.001Z</time></trkpt><trkpt lat="44.57756187949235" lon="8.131657640981956"><ele>560.0</ele><time>2026-05-02T15:17:20.001Z</time></trkpt><trkpt lat="44.577681280293206" lon="8.13173092910539"><ele>560.0</ele><time>2026-05-02T15:17:21.001Z</time></trkpt><trkpt lat="44.5777821434094" lon="8.131843147134123"><ele>560.0</ele><time>2026-05-02T15:17:22.001Z</time></trkpt><trkpt lat="44.577877386023715" lon="8.132006558312243"><ele>560.0</ele><time>2026-05-02T15:17:23.001Z</time></trkpt><trkpt lat="44.57797070657563" lon="8.132204028962324"><ele>560.0</ele><time>2026-05-02T15:17:24.001Z</time></trkpt><trkpt lat="44.578068120098784" lon="8.132385735451662"><ele>560.0</ele><time>2026-05-02T15:17:25.001Z</time></trkpt><trkpt lat="44.57817844721979" lon="8.1325217899893"><ele>560.0</ele><time>2026-05-02T15:17:26.001Z</time></trkpt><trkpt lat="44.57830702830152" lon="8.132647887894395"><ele>560.0</ele><time>2026-05-02T15:17:27.001Z</time></trkpt><trkpt lat="44.57847296942216" lon="8.13272877369201"><ele>560.0</ele><time>2026-05-02T15:17:28.001Z</time></trkpt><trkpt lat="44.57864806537353" lon="8.132771217736567"><ele>560.3333333333333</ele><time>2026-05-02T15:17:29Z</time></trkpt><trkpt lat="44.57882981055667" lon="8.132786575723255"><ele>560.6666666666666</ele><time>2026-05-02T15:17:30Z</time></trkpt><trkpt lat="44.579020948764956" lon="8.132802171714438"><ele>561.0</ele><time>2026-05-02T15:17:31Z</time></trkpt><trkpt lat="44.579208631367194" lon="8.132833409881407"><ele>561.0</ele><time>2026-05-02T15:17:32Z</time></trkpt><trkpt lat="44.57938284357325" lon="8.132902580325794"><ele>561.0</ele><time>2026-05-02T15:17:33Z</time></trkpt><trkpt lat="44.57954445675424" lon="8.132934633210631"><ele>561.0</ele><time>2026-05-02T15:17:34Z</time></trkpt><trkpt lat="44.57969009925796" lon="8.133043357638114"><ele>559.3333333333334</ele><time>2026-05-02T15:17:35.001Z</time></trkpt><trkpt lat="44.57985103798667" lon="8.133147581767105"><ele>557.6666666666667</ele><time>2026-05-02T15:17:36Z</time></trkpt><trkpt lat="44.580026513452744" lon="8.133270026249637"><ele>556.0</ele><time>2026-05-02T15:17:37Z</time></trkpt><trkpt lat="44.58021322181031" lon="8.133377908439135"><ele>553.3333333333334</ele><time>2026-05-02T15:17:38Z</time></trkpt><trkpt lat="44.580390890163045" lon="8.13350256324129"><ele>550.6666666666666</ele><time>2026-05-02T15:17:39Z</time></trkpt><trkpt lat="44.58057501172992" lon="8.133628871504648"><ele>548.0</ele><time>2026-05-02T15:17:40Z</time></trkpt><trkpt lat="44.58076495227173" lon="8.133755881672585"><ele>548.0</ele><time>2026-05-02T15:17:41Z</time></trkpt><trkpt lat="44.580954060138666" lon="8.133884063441586"><ele>548.0</ele><time>2026-05-02T15:17:42Z</time></trkpt><trkpt lat="44.58114402252195" lon="8.134013368337293"><ele>548.0</ele><time>2026-05-02T15:17:43Z</time></trkpt><trkpt lat="44.58133144400478" lon="8.134140111858391"><ele>547.6666666666666</ele><time>2026-05-02T15:17:44Z</time></trkpt><trkpt lat="44.58151541654331" lon="8.13427101761858"><ele>547.3333333333334</ele><time>2026-05-02T15:17:45Z</time></trkpt><trkpt lat="44.58169227926897" lon="8.13439366903781"><ele>547.0</ele><time>2026-05-02T15:17:46Z</time></trkpt><trkpt lat="44.58186196646183" lon="8.134507254858711"><ele>545.6666666666667</ele><time>2026-05-02T15:17:47Z</time></trkpt><trkpt lat="44.5820272420641" lon="8.134617510899565"><ele>544.3333333333334</ele><time>2026-05-02T15:17:48Z</time></trkpt><trkpt lat="44.582195257257204" lon="8.134735553444143"><ele>543.0</ele><time>2026-05-02T15:17:49Z</time></trkpt><trkpt lat="44.58235890729716" lon="8.134863981055974"><ele>543.6666666666666</ele><time>2026-05-02T15:17:50Z</time></trkpt><trkpt lat="44.58251783505731" lon="8.135005924790478"><ele>544.3333333333333</ele><time>2026-05-02T15:17:51Z</time></trkpt><trkpt lat="44.582669703420144" lon="8.135152711947036"><ele>545.0</ele><time>2026-05-02T15:17:52Z</time></trkpt><trkpt lat="44.58282032684324" lon="8.135310042525333"><ele>545.3333333333333</ele><time>2026-05-02T15:17:53Z</time></trkpt><trkpt lat="44.58296512263809" lon="8.13549268611696"><ele>545.6666666666666</ele><time>2026-05-02T15:17:54Z</time></trkpt><trkpt lat="44.58309537392774" lon="8.135679519235365"><ele>546.0</ele><time>2026-05-02T15:17:55Z</time></trkpt><trkpt lat="44.58321112307361" lon="8.135886529724006"><ele>546.0</ele><time>2026-05-02T15:17:56Z</time></trkpt><trkpt lat="44.583330613731015" lon="8.136084923857863"><ele>546.0</ele><time>2026-05-02T15:17:57Z</time></trkpt><trkpt lat="44.58345587597647" lon="8.13629804472266"><ele>546.0</ele><time>2026-05-02T15:17:58Z</time></trkpt><trkpt lat="44.58358664169658" lon="8.136509724973706"><ele>547.0</ele><time>2026-05-02T15:17:59Z</time></trkpt><trkpt lat="44.58372505142008" lon="8.136732491840485"><ele>548.0</ele><time>2026-05-02T15:18:00Z</time></trkpt><trkpt lat="44.583864220310474" lon="8.136958297794465"><ele>549.0</ele><time>2026-05-02T15:18:01Z</time></trkpt><trkpt lat="44.58401615194937" lon="8.137177196795234"><ele>549.0</ele><time>2026-05-02T15:18:02Z</time></trkpt><trkpt lat="44.5841567199321" lon="8.137412216155694"><ele>549.0</ele><time>2026-05-02T15:18:03Z</time></trkpt><trkpt lat="44.58429273669911" lon="8.137647217350334"><ele>549.0</ele><time>2026-05-02T15:18:04Z</time></trkpt><trkpt lat="44.58442595865407" lon="8.137877160360585"><ele>549.6666666666666</ele><time>2026-05-02T15:18:05Z</time></trkpt><trkpt lat="44.58454522027718" lon="8.138109691591554"><ele>550.3333333333333</ele><time>2026-05-02T15:18:06Z</time></trkpt><trkpt lat="44.584693966141394" lon="8.138291283307893"><ele>551.0</ele><time>2026-05-02T15:18:07Z</time></trkpt><trkpt lat="44.58483537594127" lon="8.138479977139651"><ele>551.0</ele><time>2026-05-02T15:18:08Z</time></trkpt><trkpt lat="44.58498255100431" lon="8.138665451875022"><ele>551.0</ele><time>2026-05-02T15:18:09Z</time></trkpt><trkpt lat="44.5851158573925" lon="8.138861624366747"><ele>551.0</ele><time>2026-05-02T15:18:10Z</time></trkpt><trkpt lat="44.58526744113023" lon="8.139029607337063"><ele>550.0</ele><time>2026-05-02T15:18:11Z</time></trkpt><trkpt lat="44.58540721319347" lon="8.139211093099556"><ele>549.0</ele><time>2026-05-02T15:18:12Z</time></trkpt><trkpt lat="44.58555299626218" lon="8.139389501426425"><ele>548.0</ele><time>2026-05-02T15:18:13Z</time></trkpt><trkpt lat="44.58570240681851" lon="8.139571720402902"><ele>548.0</ele><time>2026-05-02T15:18:14Z</time></trkpt><trkpt lat="44.58585858822881" lon="8.139737728703482"><ele>548.0</ele><time>2026-05-02T15:18:15Z</time></trkpt><trkpt lat="44.5860358736864" lon="8.139895770798494"><ele>548.0</ele><time>2026-05-02T15:18:16Z</time></trkpt><trkpt lat="44.586215094288534" lon="8.14006257868223"><ele>547.0</ele><time>2026-05-02T15:18:17Z</time></trkpt><trkpt lat="44.58642420969726" lon="8.140175513986618"><ele>546.0</ele><time>2026-05-02T15:18:18Z</time></trkpt><trkpt lat="44.586633114786686" lon="8.140290494571264"><ele>545.0</ele><time>2026-05-02T15:18:19Z</time></trkpt><trkpt lat="44.58684658811055" lon="8.140416348469213"><ele>539.5</ele><time>2026-05-02T15:18:20Z</time></trkpt><trkpt lat="44.587068912063074" lon="8.140530038035594"><ele>534.0</ele><time>2026-05-02T15:18:21Z</time></trkpt><trkpt lat="44.587291564735146" lon="8.1406420309468"><ele>536.5</ele><time>2026-05-02T15:18:22Z</time></trkpt><trkpt lat="44.587508726516816" lon="8.140746276980131"><ele>539.0</ele><time>2026-05-02T15:18:23Z</time></trkpt><trkpt lat="44.58772391173417" lon="8.14085011378434"><ele>538.3333333333333</ele><time>2026-05-02T15:18:24Z</time></trkpt><trkpt lat="44.58792546486517" lon="8.140950192929072"><ele>537.6666666666666</ele><time>2026-05-02T15:18:25Z</time></trkpt><trkpt lat="44.58810767151163" lon="8.141043606289344"><ele>537.0</ele><time>2026-05-02T15:18:26Z</time></trkpt><trkpt lat="44.588272905920434" lon="8.141134360874535"><ele>537.0</ele><time>2026-05-02T15:18:27Z</time></trkpt><trkpt lat="44.58841311186743" lon="8.141236639619345"><ele>537.0</ele><time>2026-05-02T15:18:28Z</time></trkpt><trkpt lat="44.588521388179615" lon="8.141381406432629"><ele>537.0</ele><time>2026-05-02T15:18:29Z</time></trkpt><trkpt lat="44.588609466658625" lon="8.141572509501616"><ele>534.0</ele><time>2026-05-02T15:18:30Z</time></trkpt><trkpt lat="44.58869143615149" lon="8.141781866353877"><ele>531.0</ele><time>2026-05-02T15:18:31Z</time></trkpt><trkpt lat="44.588741037021435" lon="8.14196537492055"><ele>528.0</ele><time>2026-05-02T15:18:32Z</time></trkpt><trkpt lat="44.58875480146214" lon="8.142126795073139"><ele>525.0</ele><time>2026-05-02T15:18:33Z</time></trkpt><trkpt lat="44.588732273651495" lon="8.142278608590011"><ele>525.8</ele><time>2026-05-02T15:18:34Z</time></trkpt><trkpt lat="44.58867537697278" lon="8.142440534512577"><ele>526.6</ele><time>2026-05-02T15:18:35Z</time></trkpt><trkpt lat="44.58867689028161" lon="8.14257779854282"><ele>527.4</ele><time>2026-05-02T15:18:36Z</time></trkpt><trkpt lat="44.58870166547202" lon="8.14266823694286"><ele>528.2</ele><time>2026-05-02T15:18:37Z</time></trkpt><trkpt lat="44.58877282187975" lon="8.14275307580272"><ele>529.0</ele><time>2026-05-02T15:18:38Z</time></trkpt><trkpt lat="44.58887356011965" lon="8.14282070576745"><ele>529.0</ele><time>2026-05-02T15:18:39Z</time></trkpt><trkpt lat="44.58901266502256" lon="8.142833324101726"><ele>529.0</ele><time>2026-05-02T15:18:40Z</time></trkpt><trkpt lat="44.58915710734086" lon="8.142825211335602"><ele>529.0</ele><time>2026-05-02T15:18:41Z</time></trkpt><trkpt lat="44.589296888042554" lon="8.142885170692317"><ele>529.0</ele><time>2026-05-02T15:18:42Z</time></trkpt><trkpt lat="44.589446049638276" lon="8.142955298794414"><ele>522.6666666666667</ele><time>2026-05-02T15:18:43Z</time></trkpt><trkpt lat="44.58961388624737" lon="8.143000777233132"><ele>516.3333333333334</ele><time>2026-05-02T15:18:44Z</time></trkpt><trkpt lat="44.589799483522484" lon="8.143058728250772"><ele>510.0</ele><time>2026-05-02T15:18:45Z</time></trkpt><trkpt lat="44.58998024057612" lon="8.143169301369317"><ele>511.66666666666663</ele><time>2026-05-02T15:18:46Z</time></trkpt><trkpt lat="44.59016053993962" lon="8.143277594074172"><ele>513.3333333333333</ele><time>2026-05-02T15:18:47Z</time></trkpt><trkpt lat="44.59036207063109" lon="8.143333248939427"><ele>515.0</ele><time>2026-05-02T15:18:48Z</time></trkpt><trkpt lat="44.590580588921355" lon="8.143371946242436"><ele>515.0</ele><time>2026-05-02T15:18:49Z</time></trkpt><trkpt lat="44.590809159585184" lon="8.143403326899193"><ele>515.0</ele><time>2026-05-02T15:18:50Z</time></trkpt><trkpt lat="44.59102204305159" lon="8.143424167685342"><ele>515.0</ele><time>2026-05-02T15:18:51Z</time></trkpt><trkpt lat="44.59120237839517" lon="8.143439786021855"><ele>512.0</ele><time>2026-05-02T15:18:52Z</time></trkpt><trkpt lat="44.59136527497942" lon="8.143319591595061"><ele>509.0</ele><time>2026-05-02T15:18:53Z</time></trkpt><trkpt lat="44.591453769285366" lon="8.143506311144877"><ele>506.0</ele><time>2026-05-02T15:18:54Z</time></trkpt><trkpt lat="44.5915493758782" lon="8.143666786314869"><ele>506.0</ele><time>2026-05-02T15:18:55Z</time></trkpt><trkpt lat="44.5916235608645" lon="8.14386777574085"><ele>506.0</ele><time>2026-05-02T15:18:56Z</time></trkpt><trkpt lat="44.59173338950327" lon="8.144014276557273"><ele>506.0</ele><time>2026-05-02T15:18:57.001Z</time></trkpt><trkpt lat="44.59188020065814" lon="8.144107246157688"><ele>507.0</ele><time>2026-05-02T15:18:58.001Z</time></trkpt><trkpt lat="44.592053416114695" lon="8.144147345548397"><ele>508.0</ele><time>2026-05-02T15:18:59.001Z</time></trkpt><trkpt lat="44.592197077246205" lon="8.144127641562337"><ele>509.0</ele><time>2026-05-02T15:19:00.001Z</time></trkpt><trkpt lat="44.59231247946797" lon="8.1440592680567"><ele>510.0</ele><time>2026-05-02T15:19:01.001Z</time></trkpt><trkpt lat="44.59239964239387" lon="8.143920893065449"><ele>508.0</ele><time>2026-05-02T15:19:02.001Z</time></trkpt><trkpt lat="44.59248769426971" lon="8.143792085143499"><ele>506.0</ele><time>2026-05-02T15:19:03.001Z</time></trkpt><trkpt lat="44.592590675406136" lon="8.14374461029743"><ele>504.0</ele><time>2026-05-02T15:19:04.001Z</time></trkpt><trkpt lat="44.592700711028954" lon="8.143816888328656"><ele>502.0</ele><time>2026-05-02T15:19:05.001Z</time></trkpt><trkpt lat="44.592806089105636" lon="8.143891438750572"><ele>501.33333333333337</ele><time>2026-05-02T15:19:06.001Z</time></trkpt><trkpt lat="44.592944045445435" lon="8.143960124607744"><ele>500.66666666666663</ele><time>2026-05-02T15:19:07Z</time></trkpt><trkpt lat="44.593084817327636" lon="8.144046820860716"><ele>500.0</ele><time>2026-05-02T15:19:08Z</time></trkpt><trkpt lat="44.59324078501243" lon="8.14413880795113"><ele>500.0</ele><time>2026-05-02T15:19:09Z</time></trkpt><trkpt lat="44.593402097868" lon="8.144239996446984"><ele>500.0</ele><time>2026-05-02T15:19:10Z</time></trkpt><trkpt lat="44.59355988266176" lon="8.144328239385262"><ele>500.0</ele><time>2026-05-02T15:19:11Z</time></trkpt><trkpt lat="44.59371191144158" lon="8.14439181349325"><ele>496.0</ele><time>2026-05-02T15:19:12Z</time></trkpt><trkpt lat="44.593883883923205" lon="8.144400805551967"><ele>492.0</ele><time>2026-05-02T15:19:13Z</time></trkpt><trkpt lat="44.59407994754819" lon="8.14437508732304"><ele>488.0</ele><time>2026-05-02T15:19:14Z</time></trkpt><trkpt lat="44.594270149552756" lon="8.144404650737982"><ele>488.0</ele><time>2026-05-02T15:19:15Z</time></trkpt><trkpt lat="44.594439417952344" lon="8.14439342476943"><ele>488.0</ele><time>2026-05-02T15:19:16Z</time></trkpt><trkpt lat="44.594585567123694" lon="8.144351622332001"><ele>488.0</ele><time>2026-05-02T15:19:17Z</time></trkpt><trkpt lat="44.59470559304984" lon="8.144242827856651"><ele>487.25</ele><time>2026-05-02T15:19:18Z</time></trkpt><trkpt lat="44.59481195982874" lon="8.144103378451108"><ele>486.5</ele><time>2026-05-02T15:19:19Z</time></trkpt><trkpt lat="44.59495444126872" lon="8.144041387409013"><ele>485.75</ele><time>2026-05-02T15:19:20Z</time></trkpt><trkpt lat="44.59509684223852" lon="8.144034038289588"><ele>485.0</ele><time>2026-05-02T15:19:21Z</time></trkpt><trkpt lat="44.595238461868995" lon="8.144080269290187"><ele>482.0</ele><time>2026-05-02T15:19:22Z</time></trkpt><trkpt lat="44.595383449826265" lon="8.14419321306047"><ele>479.0</ele><time>2026-05-02T15:19:23Z</time></trkpt><trkpt lat="44.5955500167059" lon="8.14428117106361"><ele>476.0</ele><time>2026-05-02T15:19:24Z</time></trkpt><trkpt lat="44.595724457254406" lon="8.14438760096241"><ele>476.0</ele><time>2026-05-02T15:19:25Z</time></trkpt><trkpt lat="44.595900853522664" lon="8.144493980708802"><ele>476.0</ele><time>2026-05-02T15:19:26Z</time></trkpt><trkpt lat="44.59607586174632" lon="8.144598780077063"><ele>476.0</ele><time>2026-05-02T15:19:27Z</time></trkpt><trkpt lat="44.596248859061035" lon="8.144701051320432"><ele>475.66666666666663</ele><time>2026-05-02T15:19:28Z</time></trkpt><trkpt lat="44.59642414671441" lon="8.144804796534439"><ele>475.33333333333337</ele><time>2026-05-02T15:19:29Z</time></trkpt><trkpt lat="44.5965904404798" lon="8.144909317597172"><ele>475.0</ele><time>2026-05-02T15:19:30Z</time></trkpt><trkpt lat="44.59674540431027" lon="8.145004234703146"><ele>475.0</ele><time>2026-05-02T15:19:31Z</time></trkpt><trkpt lat="44.596898942049144" lon="8.145073347646395"><ele>475.0</ele><time>2026-05-02T15:19:32Z</time></trkpt><trkpt lat="44.597065296834394" lon="8.145087917829294"><ele>475.0</ele><time>2026-05-02T15:19:33Z</time></trkpt><trkpt lat="44.597245236142555" lon="8.145036550628117"><ele>473.6666666666667</ele><time>2026-05-02T15:19:34Z</time></trkpt><trkpt lat="44.59743544518038" lon="8.144974812546629"><ele>472.33333333333337</ele><time>2026-05-02T15:19:35Z</time></trkpt><trkpt lat="44.59761551162548" lon="8.14492054783011"><ele>471.0</ele><time>2026-05-02T15:19:36Z</time></trkpt><trkpt lat="44.597774532148385" lon="8.144869170471637"><ele>468.5</ele><time>2026-05-02T15:19:37Z</time></trkpt><trkpt lat="44.59792001295483" lon="8.144843511739744"><ele>466.0</ele><time>2026-05-02T15:19:38Z</time></trkpt><trkpt lat="44.59806560075059" lon="8.144852669293687"><ele>463.5</ele><time>2026-05-02T15:19:39Z</time></trkpt><trkpt lat="44.59819997194708" lon="8.144910038295007"><ele>461.0</ele><time>2026-05-02T15:19:40Z</time></trkpt><trkpt lat="44.59833351290752" lon="8.145020022236988"><ele>461.0</ele><time>2026-05-02T15:19:41Z</time></trkpt><trkpt lat="44.59847107907434" lon="8.145147161277098"><ele>461.0</ele><time>2026-05-02T15:19:42Z</time></trkpt><trkpt lat="44.59861106139572" lon="8.145288057813122"><ele>461.0</ele><time>2026-05-02T15:19:43Z</time></trkpt><trkpt lat="44.59875312425444" lon="8.145418725996265"><ele>457.66666666666663</ele><time>2026-05-02T15:19:44Z</time></trkpt><trkpt lat="44.598915011306595" lon="8.145518002673098"><ele>454.33333333333337</ele><time>2026-05-02T15:19:45Z</time></trkpt><trkpt lat="44.5990772566805" lon="8.145622402335022"><ele>451.0</ele><time>2026-05-02T15:19:46Z</time></trkpt><trkpt lat="44.599230577103974" lon="8.14570133207036"><ele>450.20000000000005</ele><time>2026-05-02T15:19:47Z</time></trkpt><trkpt lat="44.59936027615994" lon="8.145741025724066"><ele>449.40000000000003</ele><time>2026-05-02T15:19:48Z</time></trkpt><trkpt lat="44.599451535419995" lon="8.145786939305012"><ele>448.6</ele><time>2026-05-02T15:19:49Z</time></trkpt><trkpt lat="44.599518803835814" lon="8.14581565859572"><ele>447.8</ele><time>2026-05-02T15:19:50Z</time></trkpt><trkpt lat="44.59964610868913" lon="8.145776307297053"><ele>447.0</ele><time>2026-05-02T15:19:52Z</time></trkpt><trkpt lat="44.59964960570588" lon="8.145646953637126"><ele>448.0</ele><time>2026-05-02T15:19:53Z</time></trkpt><trkpt lat="44.59959570501845" lon="8.145502727941082"><ele>449.0</ele><time>2026-05-02T15:19:54Z</time></trkpt><trkpt lat="44.59949956282783" lon="8.145382519719758"><ele>450.0</ele><time>2026-05-02T15:19:55Z</time></trkpt><trkpt lat="44.599406644091076" lon="8.145254953389736"><ele>451.0</ele><time>2026-05-02T15:19:56Z</time></trkpt><trkpt lat="44.59932878122383" lon="8.145089457242088"><ele>451.0</ele><time>2026-05-02T15:19:57Z</time></trkpt><trkpt lat="44.59923076022925" lon="8.144925111441049"><ele>451.0</ele><time>2026-05-02T15:19:58Z</time></trkpt><trkpt lat="44.599125760501096" lon="8.144766946753164"><ele>451.0</ele><time>2026-05-02T15:19:59Z</time></trkpt><trkpt lat="44.59898717257086" lon="8.144640862390371"><ele>451.25</ele><time>2026-05-02T15:20:00Z</time></trkpt><trkpt lat="44.59885786878241" lon="8.14450470066805"><ele>451.5</ele><time>2026-05-02T15:20:01Z</time></trkpt><trkpt lat="44.59874874851117" lon="8.144368105809205"><ele>451.75</ele><time>2026-05-02T15:20:02Z</time></trkpt><trkpt lat="44.59867299611346" lon="8.14420631783344"><ele>452.0</ele><time>2026-05-02T15:20:03Z</time></trkpt><trkpt lat="44.59861615375944" lon="8.144068497136798"><ele>449.0</ele><time>2026-05-02T15:20:04Z</time></trkpt><trkpt lat="44.59859917490671" lon="8.143953764428343"><ele>446.00000000000006</ele><time>2026-05-02T15:20:05Z</time></trkpt><trkpt lat="44.59861247606687" lon="8.143831562040953"><ele>443.00000000000006</ele><time>2026-05-02T15:20:06Z</time></trkpt><trkpt lat="44.598685967290535" lon="8.143724662700283"><ele>440.0</ele><time>2026-05-02T15:20:07Z</time></trkpt><trkpt lat="44.59880872199176" lon="8.143738171345387"><ele>437.0</ele><time>2026-05-02T15:20:08Z</time></trkpt><trkpt lat="44.598948466401" lon="8.143708495692344"><ele>435.0</ele><time>2026-05-02T15:20:09Z</time></trkpt><trkpt lat="44.59911054405867" lon="8.143674622496443"><ele>433.0</ele><time>2026-05-02T15:20:10Z</time></trkpt><trkpt lat="44.59928321416044" lon="8.143644222227396"><ele>431.0</ele><time>2026-05-02T15:20:11Z</time></trkpt><trkpt lat="44.59943016354508" lon="8.143623513905462"><ele>428.75</ele><time>2026-05-02T15:20:12Z</time></trkpt><trkpt lat="44.59956686609442" lon="8.143619133260978"><ele>426.5</ele><time>2026-05-02T15:20:13Z</time></trkpt><trkpt lat="44.599687971950104" lon="8.14364665986081"><ele>424.25</ele><time>2026-05-02T15:20:14Z</time></trkpt><trkpt lat="44.59978560267404" lon="8.143756092137597"><ele>422.0</ele><time>2026-05-02T15:20:15Z</time></trkpt><trkpt lat="44.599876427454895" lon="8.14390300982683"><ele>424.66666666666663</ele><time>2026-05-02T15:20:16Z</time></trkpt><trkpt lat="44.599956888530464" lon="8.144088472044665"><ele>427.33333333333337</ele><time>2026-05-02T15:20:17Z</time></trkpt><trkpt lat="44.60004295361577" lon="8.144286597779221"><ele>430.0</ele><time>2026-05-02T15:20:18Z</time></trkpt><trkpt lat="44.60007637128791" lon="8.144511073957903"><ele>430.0</ele><time>2026-05-02T15:20:19Z</time></trkpt><trkpt lat="44.60010912243319" lon="8.144720446715713"><ele>430.0</ele><time>2026-05-02T15:20:20Z</time></trkpt><trkpt lat="44.60015965837955" lon="8.144898442291536"><ele>430.0</ele><time>2026-05-02T15:20:21Z</time></trkpt><trkpt lat="44.6001977950479" lon="8.145068461897491"><ele>430.0</ele><time>2026-05-02T15:20:22Z</time></trkpt><trkpt lat="44.60031850291789" lon="8.14517949033398"><ele>428.6666666666667</ele><time>2026-05-02T15:20:23Z</time></trkpt><trkpt lat="44.60045878769458" lon="8.145261346017547"><ele>427.33333333333337</ele><time>2026-05-02T15:20:24Z</time></trkpt><trkpt lat="44.60061551195613" lon="8.145286690263577"><ele>426.0</ele><time>2026-05-02T15:20:25Z</time></trkpt><trkpt lat="44.60076595527077" lon="8.145236386551431"><ele>426.0</ele><time>2026-05-02T15:20:26Z</time></trkpt><trkpt lat="44.60088883854392" lon="8.145131390547014"><ele>426.0</ele><time>2026-05-02T15:20:27Z</time></trkpt><trkpt lat="44.60098156556873" lon="8.144962029726408"><ele>426.0</ele><time>2026-05-02T15:20:28Z</time></trkpt><trkpt lat="44.60105633888994" lon="8.144751345010746"><ele>423.75</ele><time>2026-05-02T15:20:29Z</time></trkpt><trkpt lat="44.601145843255495" lon="8.144572948618716"><ele>421.5</ele><time>2026-05-02T15:20:30Z</time></trkpt><trkpt lat="44.601264485209725" lon="8.144470411132026"><ele>419.25</ele><time>2026-05-02T15:20:31Z</time></trkpt><trkpt lat="44.60141034989323" lon="8.144482863954524"><ele>417.0</ele><time>2026-05-02T15:20:32Z</time></trkpt><trkpt lat="44.60155727114337" lon="8.144447682844627"><ele>416.5</ele><time>2026-05-02T15:20:33Z</time></trkpt><trkpt lat="44.601688968672754" lon="8.144407334814312"><ele>416.0</ele><time>2026-05-02T15:20:34Z</time></trkpt><trkpt lat="44.60178078667235" lon="8.144287785251116"><ele>415.5</ele><time>2026-05-02T15:20:35Z</time></trkpt><trkpt lat="44.601847199572994" lon="8.144124666221217"><ele>415.0</ele><time>2026-05-02T15:20:36Z</time></trkpt><trkpt lat="44.601916841807906" lon="8.14392880197808"><ele>414.0</ele><time>2026-05-02T15:20:37Z</time></trkpt><trkpt lat="44.60199875419989" lon="8.143767321415842"><ele>413.0</ele><time>2026-05-02T15:20:38Z</time></trkpt><trkpt lat="44.60212260681344" lon="8.143682696577654"><ele>412.0</ele><time>2026-05-02T15:20:39Z</time></trkpt><trkpt lat="44.60225545092943" lon="8.143599442958825"><ele>411.0</ele><time>2026-05-02T15:20:40Z</time></trkpt><trkpt lat="44.60238384948845" lon="8.143558260070325"><ele>411.0</ele><time>2026-05-02T15:20:41Z</time></trkpt><trkpt lat="44.6025145094925" lon="8.143551482109936"><ele>411.0</ele><time>2026-05-02T15:20:42Z</time></trkpt><trkpt lat="44.60266073211883" lon="8.143563164682405"><ele>411.0</ele><time>2026-05-02T15:20:43Z</time></trkpt><trkpt lat="44.60282471280853" lon="8.143582022148268"><ele>411.0</ele><time>2026-05-02T15:20:44Z</time></trkpt><trkpt lat="44.602982844319094" lon="8.143607700866768"><ele>407.66666666666663</ele><time>2026-05-02T15:20:45Z</time></trkpt><trkpt lat="44.6031449575775" lon="8.143655979141105"><ele>404.3333333333333</ele><time>2026-05-02T15:20:46Z</time></trkpt><trkpt lat="44.60331047758792" lon="8.143702190760306"><ele>401.0</ele><time>2026-05-02T15:20:47Z</time></trkpt><trkpt lat="44.60347122602093" lon="8.143732238509456"><ele>401.0</ele><time>2026-05-02T15:20:48Z</time></trkpt><trkpt lat="44.603624728531145" lon="8.143753329252652"><ele>401.0</ele><time>2026-05-02T15:20:49Z</time></trkpt><trkpt lat="44.60377134857754" lon="8.143770485527316"><ele>401.0</ele><time>2026-05-02T15:20:50Z</time></trkpt><trkpt lat="44.60391116410239" lon="8.143822364349244"><ele>401.0</ele><time>2026-05-02T15:20:51Z</time></trkpt><trkpt lat="44.604055936240364" lon="8.143901593747904"><ele>400.66666666666663</ele><time>2026-05-02T15:20:52Z</time></trkpt><trkpt lat="44.604203530164995" lon="8.143997698601918"><ele>400.33333333333337</ele><time>2026-05-02T15:20:53Z</time></trkpt><trkpt lat="44.60434296019439" lon="8.144105592820228"><ele>400.0</ele><time>2026-05-02T15:20:54Z</time></trkpt><trkpt lat="44.60448454280754" lon="8.144216976983458"><ele>397.6666666666667</ele><time>2026-05-02T15:20:55Z</time></trkpt><trkpt lat="44.604627810335096" lon="8.144326586297943"><ele>395.33333333333337</ele><time>2026-05-02T15:20:56Z</time></trkpt><trkpt lat="44.60477857828894" lon="8.144406255672463"><ele>393.0</ele><time>2026-05-02T15:20:57Z</time></trkpt><trkpt lat="44.6049172131279" lon="8.144481013211994"><ele>393.0</ele><time>2026-05-02T15:20:58Z</time></trkpt><trkpt lat="44.605048907846836" lon="8.144491357585492"><ele>393.0</ele><time>2026-05-02T15:20:59Z</time></trkpt><trkpt lat="44.60517866564392" lon="8.144425064678497"><ele>393.0</ele><time>2026-05-02T15:21:00Z</time></trkpt><trkpt lat="44.605311717659724" lon="8.144261705793756"><ele>393.0</ele><time>2026-05-02T15:21:01Z</time></trkpt><trkpt lat="44.60544543933982" lon="8.144092736461628"><ele>386.6666666666667</ele><time>2026-05-02T15:21:02Z</time></trkpt><trkpt lat="44.60558358063327" lon="8.143945658939638"><ele>380.33333333333337</ele><time>2026-05-02T15:21:03Z</time></trkpt><trkpt lat="44.60571373214576" lon="8.14381939684427"><ele>374.0</ele><time>2026-05-02T15:21:04Z</time></trkpt><trkpt lat="44.605845750389896" lon="8.14374959058944"><ele>374.0</ele><time>2026-05-02T15:21:05Z</time></trkpt><trkpt lat="44.60597402365987" lon="8.143731189169864"><ele>374.0</ele><time>2026-05-02T15:21:06Z</time></trkpt><trkpt lat="44.60610562574833" lon="8.143773339990187"><ele>374.0</ele><time>2026-05-02T15:21:07Z</time></trkpt><trkpt lat="44.606230962579055" lon="8.143872769311118"><ele>374.0</ele><time>2026-05-02T15:21:08Z</time></trkpt><trkpt lat="44.6063559802443" lon="8.144020157807386"><ele>375.33333333333337</ele><time>2026-05-02T15:21:09Z</time></trkpt><trkpt lat="44.60650089839177" lon="8.144138108274799"><ele>376.6666666666667</ele><time>2026-05-02T15:21:10Z</time></trkpt><trkpt lat="44.60663685915077" lon="8.144235516557735"><ele>378.0</ele><time>2026-05-02T15:21:11Z</time></trkpt><trkpt lat="44.606792410065225" lon="8.14430486955663"><ele>378.0</ele><time>2026-05-02T15:21:12Z</time></trkpt><trkpt lat="44.606947506775235" lon="8.144370959020113"><ele>378.0</ele><time>2026-05-02T15:21:13Z</time></trkpt><trkpt lat="44.60709127975612" lon="8.144452539975807"><ele>378.0</ele><time>2026-05-02T15:21:14Z</time></trkpt><trkpt lat="44.6072223460731" lon="8.144537842833273"><ele>375.0</ele><time>2026-05-02T15:21:15Z</time></trkpt><trkpt lat="44.6073586489382" lon="8.14459852676573"><ele>372.0</ele><time>2026-05-02T15:21:16Z</time></trkpt><trkpt lat="44.60749766470491" lon="8.144632125904252"><ele>369.0</ele><time>2026-05-02T15:21:17Z</time></trkpt><trkpt lat="44.60762919224836" lon="8.144709828906311"><ele>366.0</ele><time>2026-05-02T15:21:18Z</time></trkpt><trkpt lat="44.607773783754006" lon="8.144785340285022"><ele>366.6666666666667</ele><time>2026-05-02T15:21:19Z</time></trkpt><trkpt lat="44.607905242676" lon="8.144893784193854"><ele>367.33333333333337</ele><time>2026-05-02T15:21:20Z</time></trkpt><trkpt lat="44.6080411695927" lon="8.144987172466823"><ele>368.0</ele><time>2026-05-02T15:21:21Z</time></trkpt><trkpt lat="44.60817797872354" lon="8.145065996574582"><ele>368.0</ele><time>2026-05-02T15:21:22Z</time></trkpt><trkpt lat="44.60829383673623" lon="8.145133178728313"><ele>368.0</ele><time>2026-05-02T15:21:23Z</time></trkpt><trkpt lat="44.60838847029105" lon="8.145206591682506"><ele>368.0</ele><time>2026-05-02T15:21:24Z</time></trkpt><trkpt lat="44.60846613729857" lon="8.145277216735956"><ele>368.0</ele><time>2026-05-02T15:21:25Z</time></trkpt><trkpt lat="44.6085444823188" lon="8.145327524395341"><ele>368.0</ele><time>2026-05-02T15:21:26Z</time></trkpt><trkpt lat="44.60863101706299" lon="8.14530122927204"><ele>367.6666666666667</ele><time>2026-05-02T15:21:27Z</time></trkpt><trkpt lat="44.60869834797548" lon="8.145215319133536"><ele>367.33333333333337</ele><time>2026-05-02T15:21:28Z</time></trkpt><trkpt lat="44.60874048313879" lon="8.145106518352021"><ele>367.0</ele><time>2026-05-02T15:21:29Z</time></trkpt><trkpt lat="44.608759075100096" lon="8.144994321094307"><ele>366.6666666666667</ele><time>2026-05-02T15:21:30Z</time></trkpt><trkpt lat="44.608774212237314" lon="8.14489034362904"><ele>366.3333333333333</ele><time>2026-05-02T15:21:31Z</time></trkpt><trkpt lat="44.60880276321735" lon="8.144797628841138"><ele>366.0</ele><time>2026-05-02T15:21:32Z</time></trkpt><trkpt lat="44.60885403454065" lon="8.144714691471854"><ele>361.20000000000005</ele><time>2026-05-02T15:21:33Z</time></trkpt><trkpt lat="44.60892252997699" lon="8.144624955807634"><ele>356.40000000000003</ele><time>2026-05-02T15:21:34Z</time></trkpt><trkpt lat="44.60901822860902" lon="8.144576123980015"><ele>351.6</ele><time>2026-05-02T15:21:35Z</time></trkpt><trkpt lat="44.609102927864974" lon="8.14452054149071"><ele>346.8</ele><time>2026-05-02T15:21:36Z</time></trkpt><trkpt lat="44.60919581851264" lon="8.144537037849078"><ele>342.0</ele><time>2026-05-02T15:21:37Z</time></trkpt><trkpt lat="44.60928174085059" lon="8.144609975492747"><ele>342.0</ele><time>2026-05-02T15:21:38Z</time></trkpt><trkpt lat="44.60933145477455" lon="8.144757971843084"><ele>342.0</ele><time>2026-05-02T15:21:39Z</time></trkpt><trkpt lat="44.609401248461516" lon="8.144927734631482"><ele>342.0</ele><time>2026-05-02T15:21:40Z</time></trkpt><trkpt lat="44.609498932467964" lon="8.145107253939143"><ele>342.0</ele><time>2026-05-02T15:21:41Z</time></trkpt><trkpt lat="44.609621741701595" lon="8.145274421799968"><ele>343.0</ele><time>2026-05-02T15:21:42Z</time></trkpt><trkpt lat="44.609769931261475" lon="8.145457405251193"><ele>344.0</ele><time>2026-05-02T15:21:43Z</time></trkpt><trkpt lat="44.609930614644604" lon="8.145656752335553"><ele>345.0</ele><time>2026-05-02T15:21:44Z</time></trkpt><trkpt lat="44.61009275738394" lon="8.145860890467763"><ele>342.3333333333333</ele><time>2026-05-02T15:21:45Z</time></trkpt><trkpt lat="44.61024609311279" lon="8.146054181571603"><ele>339.66666666666663</ele><time>2026-05-02T15:21:46Z</time></trkpt><trkpt lat="44.61038053719595" lon="8.146236425497387"><ele>337.0</ele><time>2026-05-02T15:21:47Z</time></trkpt><trkpt lat="44.61052488361868" lon="8.14642038494664"><ele>342.66666666666663</ele><time>2026-05-02T15:21:48Z</time></trkpt><trkpt lat="44.610677048132274" lon="8.146616236886373"><ele>348.3333333333333</ele><time>2026-05-02T15:21:49Z</time></trkpt><trkpt lat="44.61085378215256" lon="8.14678142561536"><ele>354.0</ele><time>2026-05-02T15:21:50Z</time></trkpt><trkpt lat="44.611034810919186" lon="8.146889640343163"><ele>348.0</ele><time>2026-05-02T15:21:51Z</time></trkpt><trkpt lat="44.61121361893503" lon="8.146948522381688"><ele>342.0</ele><time>2026-05-02T15:21:52Z</time></trkpt><trkpt lat="44.61138568992849" lon="8.14699970724876"><ele>336.0</ele><time>2026-05-02T15:21:53Z</time></trkpt><trkpt lat="44.61154750079095" lon="8.14704305986689"><ele>336.0</ele><time>2026-05-02T15:21:54Z</time></trkpt><trkpt lat="44.611696540720445" lon="8.147093683182868"><ele>336.0</ele><time>2026-05-02T15:21:55Z</time></trkpt><trkpt lat="44.61184091018845" lon="8.147134402301235"><ele>336.0</ele><time>2026-05-02T15:21:56Z</time></trkpt><trkpt lat="44.61197153447371" lon="8.147178645612964"><ele>336.0</ele><time>2026-05-02T15:21:57Z</time></trkpt><trkpt lat="44.612075653963515" lon="8.147206374248213"><ele>334.6</ele><time>2026-05-02T15:21:58Z</time></trkpt><trkpt lat="44.61214614236291" lon="8.147219799547242"><ele>333.20000000000005</ele><time>2026-05-02T15:21:59Z</time></trkpt><trkpt lat="44.61222984482222" lon="8.147244841279935"><ele>331.79999999999995</ele><time>2026-05-02T15:22:05Z</time></trkpt><trkpt lat="44.61227296919147" lon="8.14703156242156"><ele>330.4</ele><time>2026-05-02T15:22:06Z</time></trkpt><trkpt lat="44.61228134767786" lon="8.14688362027539"><ele>329.0</ele><time>2026-05-02T15:22:07Z</time></trkpt><trkpt lat="44.612281313559755" lon="8.146731066667183"><ele>329.0</ele><time>2026-05-02T15:22:08Z</time></trkpt><trkpt lat="44.61228141914532" lon="8.146566882200734"><ele>329.0</ele><time>2026-05-02T15:22:09Z</time></trkpt><trkpt lat="44.61229092129872" lon="8.14638659434575"><ele>329.0</ele><time>2026-05-02T15:22:10Z</time></trkpt><trkpt lat="44.61230493091468" lon="8.146180164761665"><ele>329.0</ele><time>2026-05-02T15:22:11Z</time></trkpt><trkpt lat="44.61231572142002" lon="8.145945319033892"><ele>326.33333333333337</ele><time>2026-05-02T15:22:12Z</time></trkpt><trkpt lat="44.612323979907465" lon="8.145701200402707"><ele>323.6666666666667</ele><time>2026-05-02T15:22:13Z</time></trkpt><trkpt lat="44.61233609683747" lon="8.145438883862816"><ele>321.0</ele><time>2026-05-02T15:22:14Z</time></trkpt><trkpt lat="44.61235520224541" lon="8.145164432178642"><ele>324.3333333333333</ele><time>2026-05-02T15:22:15Z</time></trkpt><trkpt lat="44.61236918757901" lon="8.14487429128095"><ele>327.66666666666663</ele><time>2026-05-02T15:22:16Z</time></trkpt><trkpt lat="44.61238353539828" lon="8.14457488601377"><ele>331.0</ele><time>2026-05-02T15:22:17Z</time></trkpt><trkpt lat="44.61239770282187" lon="8.14430344979938"><ele>331.0</ele><time>2026-05-02T15:22:18Z</time></trkpt><trkpt lat="44.612411290202104" lon="8.144077343982199"><ele>331.0</ele><time>2026-05-02T15:22:19Z</time></trkpt><trkpt lat="44.61239530177036" lon="8.143889356043031"><ele>331.0</ele><time>2026-05-02T15:22:20Z</time></trkpt><trkpt lat="44.61233688805164" lon="8.143726944837963"><ele>331.0</ele><time>2026-05-02T15:22:21Z</time></trkpt><trkpt lat="44.61225038441458" lon="8.143597800385008"><ele>333.0</ele><time>2026-05-02T15:22:22Z</time></trkpt><trkpt lat="44.612189294784955" lon="8.143502758527251"><ele>335.0</ele><time>2026-05-02T15:22:23Z</time></trkpt><trkpt lat="44.612191739125194" lon="8.14338750503989"><ele>337.0</ele><time>2026-05-02T15:22:24Z</time></trkpt><trkpt lat="44.61227590020094" lon="8.143328981960382"><ele>339.0</ele><time>2026-05-02T15:22:25Z</time></trkpt><trkpt lat="44.612366305872506" lon="8.14334391420305"><ele>341.0</ele><time>2026-05-02T15:22:26Z</time></trkpt><trkpt lat="44.61244916808906" lon="8.143452622679606"><ele>341.0</ele><time>2026-05-02T15:22:27Z</time></trkpt><trkpt lat="44.61255234748212" lon="8.14356225583724"><ele>341.0</ele><time>2026-05-02T15:22:28Z</time></trkpt><trkpt lat="44.61267887725661" lon="8.143685591036055"><ele>341.0</ele><time>2026-05-02T15:22:29Z</time></trkpt><trkpt lat="44.61280846193251" lon="8.14383796875909"><ele>345.0</ele><time>2026-05-02T15:22:30Z</time></trkpt><trkpt lat="44.612967551351026" lon="8.143989130022351"><ele>349.0</ele><time>2026-05-02T15:22:31Z</time></trkpt><trkpt lat="44.613139534411644" lon="8.144151497554216"><ele>353.0</ele><time>2026-05-02T15:22:32Z</time></trkpt><trkpt lat="44.61332929345619" lon="8.144336193444834"><ele>353.0</ele><time>2026-05-02T15:22:33Z</time></trkpt><trkpt lat="44.613522627937336" lon="8.144524549866752"><ele>353.0</ele><time>2026-05-02T15:22:34Z</time></trkpt><trkpt lat="44.61368535630967" lon="8.144682985627739"><ele>353.0</ele><time>2026-05-02T15:22:35Z</time></trkpt><trkpt lat="44.61381411396194" lon="8.144807757018249"><ele>353.59999999999997</ele><time>2026-05-02T15:22:36Z</time></trkpt><trkpt lat="44.613916860548755" lon="8.144905039035926"><ele>354.2</ele><time>2026-05-02T15:22:37Z</time></trkpt><trkpt lat="44.61400055857181" lon="8.144950091276417"><ele>354.8</ele><time>2026-05-02T15:22:38Z</time></trkpt><trkpt lat="44.614063271816235" lon="8.145002853559689"><ele>355.4</ele><time>2026-05-02T15:22:39Z</time></trkpt><trkpt lat="44.61413950064649" lon="8.144929252935732"><ele>356.0</ele><time>2026-05-02T15:22:40Z</time></trkpt><trkpt lat="44.614152314906086" lon="8.144789213487853"><ele>363.0</ele><time>2026-05-02T15:22:41Z</time></trkpt><trkpt lat="44.61408784406357" lon="8.144677084164604"><ele>370.0</ele><time>2026-05-02T15:22:42Z</time></trkpt><trkpt lat="44.61399011822541" lon="8.144612789314964"><ele>377.0</ele><time>2026-05-02T15:22:43Z</time></trkpt><trkpt lat="44.613868406166446" lon="8.144556470140746"><ele>384.0</ele><time>2026-05-02T15:22:44Z</time></trkpt><trkpt lat="44.61375110181834" lon="8.14446519541061"><ele>380.3333333333333</ele><time>2026-05-02T15:22:45Z</time></trkpt><trkpt lat="44.61364304381265" lon="8.144327825909034"><ele>376.66666666666663</ele><time>2026-05-02T15:22:46Z</time></trkpt><trkpt lat="44.6135497311988" lon="8.144143328392213"><ele>373.0</ele><time>2026-05-02T15:22:47Z</time></trkpt><trkpt lat="44.61346387344625" lon="8.14393477551703"><ele>373.0</ele><time>2026-05-02T15:22:48Z</time></trkpt><trkpt lat="44.61336394515586" lon="8.143718549335377"><ele>373.0</ele><time>2026-05-02T15:22:49Z</time></trkpt><trkpt lat="44.61325898281836" lon="8.14350671447992"><ele>373.0</ele><time>2026-05-02T15:22:50Z</time></trkpt><trkpt lat="44.613173248906214" lon="8.143318787000185"><ele>372.25</ele><time>2026-05-02T15:22:51Z</time></trkpt><trkpt lat="44.613097137842836" lon="8.143148851311135"><ele>371.5</ele><time>2026-05-02T15:22:52Z</time></trkpt><trkpt lat="44.61304433396931" lon="8.142984042891689"><ele>370.75</ele><time>2026-05-02T15:22:53Z</time></trkpt><trkpt lat="44.61302763311524" lon="8.142801861732242"><ele>370.0</ele><time>2026-05-02T15:22:54Z</time></trkpt><trkpt lat="44.61306794958799" lon="8.14261619674438"><ele>370.0</ele><time>2026-05-02T15:22:55Z</time></trkpt><trkpt lat="44.6131701494472" lon="8.142471409188204"><ele>370.0</ele><time>2026-05-02T15:22:56Z</time></trkpt><trkpt lat="44.613306119084704" lon="8.142328980296675"><ele>370.0</ele><time>2026-05-02T15:22:57Z</time></trkpt><trkpt lat="44.61345698917958" lon="8.14214979447544"><ele>373.3333333333333</ele><time>2026-05-02T15:22:58Z</time></trkpt><trkpt lat="44.613622054597066" lon="8.141954319926791"><ele>376.6666666666667</ele><time>2026-05-02T15:22:59Z</time></trkpt><trkpt lat="44.61381246397399" lon="8.141771462403865"><ele>380.0</ele><time>2026-05-02T15:23:00Z</time></trkpt><trkpt lat="44.61400051772486" lon="8.141562927465968"><ele>368.0</ele><time>2026-05-02T15:23:01Z</time></trkpt><trkpt lat="44.61418537098599" lon="8.141358064969582"><ele>356.0</ele><time>2026-05-02T15:23:02Z</time></trkpt><trkpt lat="44.61438705386556" lon="8.141133356813123"><ele>361.5</ele><time>2026-05-02T15:23:03Z</time></trkpt><trkpt lat="44.61459479744682" lon="8.140901896068153"><ele>367.0</ele><time>2026-05-02T15:23:04Z</time></trkpt><trkpt lat="44.614802830644855" lon="8.14067288379805"><ele>367.0</ele><time>2026-05-02T15:23:05Z</time></trkpt><trkpt lat="44.61501148549799" lon="8.140443373155804"><ele>367.0</ele><time>2026-05-02T15:23:06Z</time></trkpt><trkpt lat="44.61520892267582" lon="8.140229513496543"><ele>373.66666666666663</ele><time>2026-05-02T15:23:07Z</time></trkpt><trkpt lat="44.615380251593194" lon="8.140055942478302"><ele>380.3333333333333</ele><time>2026-05-02T15:23:08Z</time></trkpt><trkpt lat="44.615543545589055" lon="8.139946719140797"><ele>387.0</ele><time>2026-05-02T15:23:09Z</time></trkpt><trkpt lat="44.61565635761392" lon="8.139819452236308"><ele>387.0</ele><time>2026-05-02T15:23:10Z</time></trkpt><trkpt lat="44.61573579934265" lon="8.139719628078922"><ele>387.0</ele><time>2026-05-02T15:23:11Z</time></trkpt><trkpt lat="44.615777006646226" lon="8.139526642368308"><ele>387.0</ele><time>2026-05-02T15:23:12Z</time></trkpt><trkpt lat="44.61579009564359" lon="8.13930162174642"><ele>387.0</ele><time>2026-05-02T15:23:13Z</time></trkpt><trkpt lat="44.61590502864996" lon="8.139118195343102"><ele>393.0</ele><time>2026-05-02T15:23:14Z</time></trkpt><trkpt lat="44.61603653580558" lon="8.138883506767366"><ele>399.0</ele><time>2026-05-02T15:23:15Z</time></trkpt><trkpt lat="44.61615353881344" lon="8.138735217881697"><ele>405.0</ele><time>2026-05-02T15:23:16Z</time></trkpt><trkpt lat="44.61625428166164" lon="8.138663175453642"><ele>405.0</ele><time>2026-05-02T15:23:17Z</time></trkpt><trkpt lat="44.61636460846205" lon="8.138681961452523"><ele>405.0</ele><time>2026-05-02T15:23:18Z</time></trkpt><trkpt lat="44.61654403496362" lon="8.138652540568913"><ele>405.0</ele><time>2026-05-02T15:23:19Z</time></trkpt><trkpt lat="44.61667391969582" lon="8.138594566916552"><ele>405.0</ele><time>2026-05-02T15:23:20Z</time></trkpt><trkpt lat="44.616749426710314" lon="8.138505213415193"><ele>405.0</ele><time>2026-05-02T15:23:21Z</time></trkpt><trkpt lat="44.61674420752722" lon="8.138321731932203"><ele>405.0</ele><time>2026-05-02T15:23:22Z</time></trkpt><trkpt lat="44.616695568339445" lon="8.13817035348461"><ele>405.0</ele><time>2026-05-02T15:23:23Z</time></trkpt><trkpt lat="44.61661255946471" lon="8.138003621502728"><ele>405.0</ele><time>2026-05-02T15:23:24Z</time></trkpt><trkpt lat="44.61660945096314" lon="8.137820428962126"><ele>401.66666666666663</ele><time>2026-05-02T15:23:25Z</time></trkpt><trkpt lat="44.61668114553591" lon="8.137627119878426"><ele>398.3333333333333</ele><time>2026-05-02T15:23:26Z</time></trkpt><trkpt lat="44.61675423364281" lon="8.137389278897066"><ele>395.0</ele><time>2026-05-02T15:23:27Z</time></trkpt><trkpt lat="44.616845948983354" lon="8.13717035352942"><ele>387.3333333333333</ele><time>2026-05-02T15:23:28Z</time></trkpt><trkpt lat="44.61693465323266" lon="8.136956795936715"><ele>379.66666666666663</ele><time>2026-05-02T15:23:29Z</time></trkpt><trkpt lat="44.61705003685549" lon="8.136755389783326"><ele>372.0</ele><time>2026-05-02T15:23:30Z</time></trkpt><trkpt lat="44.61719728552774" lon="8.1365635529801"><ele>380.0</ele><time>2026-05-02T15:23:31Z</time></trkpt><trkpt lat="44.61733822637874" lon="8.136384000682956"><ele>388.0</ele><time>2026-05-02T15:23:32Z</time></trkpt><trkpt lat="44.617483537613495" lon="8.136250542859493"><ele>396.0</ele><time>2026-05-02T15:23:33Z</time></trkpt><trkpt lat="44.61765163095652" lon="8.136163045900082"><ele>396.0</ele><time>2026-05-02T15:23:34Z</time></trkpt><trkpt lat="44.617793501776184" lon="8.136014780909287"><ele>396.0</ele><time>2026-05-02T15:23:35Z</time></trkpt><trkpt lat="44.61791775476075" lon="8.135818400939883"><ele>396.0</ele><time>2026-05-02T15:23:36Z</time></trkpt><trkpt lat="44.61800641392288" lon="8.135575030045755"><ele>397.33333333333337</ele><time>2026-05-02T15:23:37Z</time></trkpt><trkpt lat="44.61805442898692" lon="8.13531046442015"><ele>398.6666666666667</ele><time>2026-05-02T15:23:38Z</time></trkpt><trkpt lat="44.61807529822972" lon="8.135058672700332"><ele>400.0</ele><time>2026-05-02T15:23:39Z</time></trkpt><trkpt lat="44.61809751098076" lon="8.134858311292938"><ele>400.0</ele><time>2026-05-02T15:23:40Z</time></trkpt><trkpt lat="44.61815890613331" lon="8.134711494065128"><ele>400.0</ele><time>2026-05-02T15:23:41Z</time></trkpt><trkpt lat="44.6182593321034" lon="8.134613559088354"><ele>400.0</ele><time>2026-05-02T15:23:42Z</time></trkpt><trkpt lat="44.61839494622422" lon="8.134625263876192"><ele>400.0</ele><time>2026-05-02T15:23:43Z</time></trkpt><trkpt lat="44.61854822228437" lon="8.134631610535454"><ele>407.0</ele><time>2026-05-02T15:23:44Z</time></trkpt><trkpt lat="44.61872649394815" lon="8.134665424029132"><ele>414.0</ele><time>2026-05-02T15:23:45Z</time></trkpt><trkpt lat="44.61886686421196" lon="8.134665784423083"><ele>421.0</ele><time>2026-05-02T15:23:46Z</time></trkpt><trkpt lat="44.61899681534519" lon="8.134718158428427"><ele>421.0</ele><time>2026-05-02T15:23:47Z</time></trkpt><trkpt lat="44.619131759452166" lon="8.134839769562475"><ele>421.0</ele><time>2026-05-02T15:23:48Z</time></trkpt><trkpt lat="44.61925823791201" lon="8.134934260907567"><ele>421.0</ele><time>2026-05-02T15:23:49Z</time></trkpt><trkpt lat="44.619360776453966" lon="8.135005083855155"><ele>421.0</ele><time>2026-05-02T15:23:50Z</time></trkpt><trkpt lat="44.61945498935586" lon="8.134981571760557"><ele>424.5</ele><time>2026-05-02T15:23:51Z</time></trkpt><trkpt lat="44.619535222911786" lon="8.134843240387372"><ele>428.0</ele><time>2026-05-02T15:23:52Z</time></trkpt><trkpt lat="44.61959546048854" lon="8.134680139341572"><ele>431.5</ele><time>2026-05-02T15:23:53Z</time></trkpt><trkpt lat="44.6197019695653" lon="8.13456327528923"><ele>435.0</ele><time>2026-05-02T15:23:54Z</time></trkpt><trkpt lat="44.61985041100033" lon="8.134473765732254"><ele>435.0</ele><time>2026-05-02T15:23:55Z</time></trkpt><trkpt lat="44.62000178096687" lon="8.134365013649708"><ele>435.0</ele><time>2026-05-02T15:23:56Z</time></trkpt><trkpt lat="44.62016915075544" lon="8.134286542945215"><ele>435.0</ele><time>2026-05-02T15:23:57Z</time></trkpt><trkpt lat="44.62032561933714" lon="8.13420376281535"><ele>439.0</ele><time>2026-05-02T15:23:58Z</time></trkpt><trkpt lat="44.620479519515314" lon="8.134126311387504"><ele>443.0</ele><time>2026-05-02T15:23:59Z</time></trkpt><trkpt lat="44.62063272117948" lon="8.134048489286917"><ele>447.0</ele><time>2026-05-02T15:24:00Z</time></trkpt><trkpt lat="44.620784498237455" lon="8.13395289205694"><ele>447.0</ele><time>2026-05-02T15:24:01Z</time></trkpt><trkpt lat="44.62091154098515" lon="8.133862785799563"><ele>447.0</ele><time>2026-05-02T15:24:02Z</time></trkpt><trkpt lat="44.62100918921998" lon="8.133753321135925"><ele>447.0</ele><time>2026-05-02T15:24:03Z</time></trkpt><trkpt lat="44.621100702411255" lon="8.133619327917126"><ele>447.0</ele><time>2026-05-02T15:24:04Z</time></trkpt><trkpt lat="44.621203181742686" lon="8.133484911797146"><ele>449.5</ele><time>2026-05-02T15:24:05Z</time></trkpt><trkpt lat="44.62131982227277" lon="8.13336126896291"><ele>452.0</ele><time>2026-05-02T15:24:06Z</time></trkpt><trkpt lat="44.621417840203755" lon="8.133246733680847"><ele>454.5</ele><time>2026-05-02T15:24:07Z</time></trkpt><trkpt lat="44.621500774178095" lon="8.133151589815032"><ele>457.0</ele><time>2026-05-02T15:24:08Z</time></trkpt><trkpt lat="44.621590555474114" lon="8.133106328905626"><ele>459.20000000000005</ele><time>2026-05-02T15:24:09Z</time></trkpt><trkpt lat="44.62169083722462" lon="8.133129246505465"><ele>461.40000000000003</ele><time>2026-05-02T15:24:10Z</time></trkpt><trkpt lat="44.62178790588371" lon="8.133164054558952"><ele>463.59999999999997</ele><time>2026-05-02T15:24:11Z</time></trkpt><trkpt lat="44.62189969006575" lon="8.133180533251751"><ele>465.79999999999995</ele><time>2026-05-02T15:24:12Z</time></trkpt><trkpt lat="44.622001198691045" lon="8.133216465765383"><ele>468.0</ele><time>2026-05-02T15:24:13Z</time></trkpt><trkpt lat="44.62209428561882" lon="8.133196252060795"><ele>471.4</ele><time>2026-05-02T15:24:14Z</time></trkpt><trkpt lat="44.62217761082148" lon="8.133145171682601"><ele>474.79999999999995</ele><time>2026-05-02T15:24:15Z</time></trkpt><trkpt lat="44.622201061319934" lon="8.132962085978319"><ele>478.2</ele><time>2026-05-02T15:24:16Z</time></trkpt><trkpt lat="44.62217133114793" lon="8.132816385264347"><ele>481.6</ele><time>2026-05-02T15:24:17Z</time></trkpt><trkpt lat="44.62209169842952" lon="8.132720034529514"><ele>485.0</ele><time>2026-05-02T15:24:18Z</time></trkpt><trkpt lat="44.62199555825721" lon="8.132662280560755"><ele>482.66666666666663</ele><time>2026-05-02T15:24:19Z</time></trkpt><trkpt lat="44.62190655863246" lon="8.132619425544862"><ele>480.3333333333333</ele><time>2026-05-02T15:24:20Z</time></trkpt><trkpt lat="44.62182960882441" lon="8.132571036415463"><ele>478.0</ele><time>2026-05-02T15:24:21Z</time></trkpt><trkpt lat="44.62176330820347" lon="8.132518576193664"><ele>475.66666666666663</ele><time>2026-05-02T15:24:22Z</time></trkpt><trkpt lat="44.62169412098471" lon="8.132468904774731"><ele>473.3333333333333</ele><time>2026-05-02T15:24:23Z</time></trkpt><trkpt lat="44.62161981064603" lon="8.13241528994786"><ele>471.0</ele><time>2026-05-02T15:24:24Z</time></trkpt><trkpt lat="44.621544566230995" lon="8.132362644318349"><ele>471.0</ele><time>2026-05-02T15:24:25Z</time></trkpt><trkpt lat="44.62147525528618" lon="8.132312213736336"><ele>471.0</ele><time>2026-05-02T15:24:26Z</time></trkpt><trkpt lat="44.62140675509842" lon="8.132258213327516"><ele>471.0</ele><time>2026-05-02T15:24:27Z</time></trkpt><trkpt lat="44.621338160295316" lon="8.132196416623838"><ele>471.0</ele><time>2026-05-02T15:24:28Z</time></trkpt><trkpt lat="44.62127723318594" lon="8.13211758400513"><ele>471.0</ele><time>2026-05-02T15:24:29Z</time></trkpt><trkpt lat="44.62125746188165" lon="8.132005361214205"><ele>471.0</ele><time>2026-05-02T15:24:30Z</time></trkpt><trkpt lat="44.62128841143492" lon="8.13189271388045"><ele>471.0</ele><time>2026-05-02T15:24:31Z</time></trkpt><trkpt lat="44.6213725830178" lon="8.131798253727366"><ele>471.0</ele><time>2026-05-02T15:24:32Z</time></trkpt><trkpt lat="44.621482784819804" lon="8.13175161428948"><ele>471.0</ele><time>2026-05-02T15:24:33Z</time></trkpt><trkpt lat="44.6216207649769" lon="8.131649447457448"><ele>471.0</ele><time>2026-05-02T15:24:34Z</time></trkpt><trkpt lat="44.6217772476178" lon="8.131533947751112"><ele>468.0</ele><time>2026-05-02T15:24:35Z</time></trkpt><trkpt lat="44.6219380734962" lon="8.131417176640776"><ele>465.0</ele><time>2026-05-02T15:24:36Z</time></trkpt><trkpt lat="44.622081124772144" lon="8.131299060926684"><ele>462.0</ele><time>2026-05-02T15:24:37Z</time></trkpt><trkpt lat="44.622194987401826" lon="8.131214762515274"><ele>468.75</ele><time>2026-05-02T15:24:38Z</time></trkpt><trkpt lat="44.62225770148887" lon="8.131088830032407"><ele>475.5</ele><time>2026-05-02T15:24:39Z</time></trkpt><trkpt lat="44.62226463503861" lon="8.130908473254975"><ele>482.25</ele><time>2026-05-02T15:24:40Z</time></trkpt><trkpt lat="44.62222274692139" lon="8.130699849999859"><ele>489.0</ele><time>2026-05-02T15:24:41Z</time></trkpt><trkpt lat="44.62214921427077" lon="8.130469683345652"><ele>489.0</ele><time>2026-05-02T15:24:42Z</time></trkpt><trkpt lat="44.622123430244095" lon="8.130251322512533"><ele>489.0</ele><time>2026-05-02T15:24:43Z</time></trkpt><trkpt lat="44.62216611800471" lon="8.130036872504824"><ele>489.0</ele><time>2026-05-02T15:24:44Z</time></trkpt><trkpt lat="44.622234197732276" lon="8.129844935309734"><ele>482.0</ele><time>2026-05-02T15:24:45Z</time></trkpt><trkpt lat="44.62233459955571" lon="8.129678003932986"><ele>475.0</ele><time>2026-05-02T15:24:46Z</time></trkpt><trkpt lat="44.62247389283058" lon="8.129595373391485"><ele>468.0</ele><time>2026-05-02T15:24:47Z</time></trkpt><trkpt lat="44.62263955318763" lon="8.12951102979276"><ele>472.0</ele><time>2026-05-02T15:24:48Z</time></trkpt><trkpt lat="44.62282174428688" lon="8.12942569053375"><ele>476.0</ele><time>2026-05-02T15:24:49Z</time></trkpt><trkpt lat="44.62299229459921" lon="8.129375712829674"><ele>480.0</ele><time>2026-05-02T15:24:50Z</time></trkpt><trkpt lat="44.62315701925815" lon="8.129395373099825"><ele>480.0</ele><time>2026-05-02T15:24:51Z</time></trkpt><trkpt lat="44.623342973927095" lon="8.129468880327693"><ele>480.0</ele><time>2026-05-02T15:24:52Z</time></trkpt><trkpt lat="44.623539831103095" lon="8.1295563092162"><ele>480.0</ele><time>2026-05-02T15:24:53Z</time></trkpt><trkpt lat="44.62373495084695" lon="8.129613363199846"><ele>482.33333333333337</ele><time>2026-05-02T15:24:54Z</time></trkpt><trkpt lat="44.62390274553575" lon="8.129626080416603"><ele>484.6666666666667</ele><time>2026-05-02T15:24:55Z</time></trkpt><trkpt lat="44.624084572060454" lon="8.129546527390483"><ele>487.0</ele><time>2026-05-02T15:24:56Z</time></trkpt><trkpt lat="44.62429136273718" lon="8.129460655199743"><ele>495.5</ele><time>2026-05-02T15:24:57Z</time></trkpt><trkpt lat="44.62451384999339" lon="8.12938032451553"><ele>504.0</ele><time>2026-05-02T15:24:58Z</time></trkpt><trkpt lat="44.624729104754465" lon="8.129279278422652"><ele>504.0</ele><time>2026-05-02T15:24:59Z</time></trkpt><trkpt lat="44.62495307481614" lon="8.129197938019203"><ele>504.0</ele><time>2026-05-02T15:25:00Z</time></trkpt><trkpt lat="44.62517974275456" lon="8.129114542621805"><ele>500.33333333333337</ele><time>2026-05-02T15:25:01Z</time></trkpt><trkpt lat="44.62539656509008" lon="8.129030588288854"><ele>496.6666666666667</ele><time>2026-05-02T15:25:02Z</time></trkpt><trkpt lat="44.62558726868087" lon="8.128954769471978"><ele>493.0</ele><time>2026-05-02T15:25:03Z</time></trkpt><trkpt lat="44.62575423147123" lon="8.128890498181223"><ele>493.0</ele><time>2026-05-02T15:25:04Z</time></trkpt><trkpt lat="44.62588553789057" lon="8.12887296094148"><ele>492.99999999999994</ele><time>2026-05-02T15:25:05Z</time></trkpt><trkpt lat="44.625966080956744" lon="8.128869611456366"><ele>492.99999999999994</ele><time>2026-05-02T15:25:06Z</time></trkpt><trkpt lat="44.626050802041256" lon="8.129008660187539"><ele>493.0</ele><time>2026-05-02T15:25:08Z</time></trkpt><trkpt lat="44.62602882083858" lon="8.129143618801464"><ele>493.0</ele><time>2026-05-02T15:25:09Z</time></trkpt><trkpt lat="44.62590948522408" lon="8.129220058714603"><ele>500.6666666666667</ele><time>2026-05-02T15:25:10Z</time></trkpt><trkpt lat="44.62577923944028" lon="8.129285634973266"><ele>508.33333333333337</ele><time>2026-05-02T15:25:11Z</time></trkpt><trkpt lat="44.62561513700182" lon="8.12938762520508"><ele>516.0</ele><time>2026-05-02T15:25:12Z</time></trkpt><trkpt lat="44.62543540230346" lon="8.129488311701905"><ele>512.0</ele><time>2026-05-02T15:25:13Z</time></trkpt><trkpt lat="44.625236141413964" lon="8.12960640129205"><ele>508.0</ele><time>2026-05-02T15:25:14Z</time></trkpt><trkpt lat="44.62502387147269" lon="8.12973348675861"><ele>504.0</ele><time>2026-05-02T15:25:15Z</time></trkpt><trkpt lat="44.624792302949146" lon="8.12986762512254"><ele>509.0</ele><time>2026-05-02T15:25:16Z</time></trkpt><trkpt lat="44.62455330993974" lon="8.13000939011064"><ele>514.0</ele><time>2026-05-02T15:25:17Z</time></trkpt><trkpt lat="44.62433359608006" lon="8.130138902622264"><ele>514.0</ele><time>2026-05-02T15:25:18Z</time></trkpt><trkpt lat="44.624152665713844" lon="8.130248189315141"><ele>514.0</ele><time>2026-05-02T15:25:19Z</time></trkpt><trkpt lat="44.6240042273191" lon="8.130327313599977"><ele>514.0</ele><time>2026-05-02T15:25:20Z</time></trkpt><trkpt lat="44.62389698539797" lon="8.130383833342206"><ele>514.0</ele><time>2026-05-02T15:25:21Z</time></trkpt><trkpt lat="44.623828996765305" lon="8.130434837817868"><ele>514.0</ele><time>2026-05-02T15:25:22Z</time></trkpt><trkpt lat="44.62379299136122" lon="8.130612007775039"><ele>514.0</ele><time>2026-05-02T15:25:24Z</time></trkpt><trkpt lat="44.62390135311513" lon="8.130717412851663"><ele>514.0</ele><time>2026-05-02T15:25:25Z</time></trkpt><trkpt lat="44.62403737731407" lon="8.130710616981524"><ele>514.0</ele><time>2026-05-02T15:25:26Z</time></trkpt><trkpt lat="44.62418483819179" lon="8.13067503915779"><ele>514.0</ele><time>2026-05-02T15:25:27Z</time></trkpt><trkpt lat="44.62433920908491" lon="8.13064788558237"><ele>514.0</ele><time>2026-05-02T15:25:28Z</time></trkpt><trkpt lat="44.62450433494129" lon="8.130642887108486"><ele>518.6666666666667</ele><time>2026-05-02T15:25:29Z</time></trkpt><trkpt lat="44.62468462070253" lon="8.130607535711311"><ele>523.3333333333334</ele><time>2026-05-02T15:25:30Z</time></trkpt><trkpt lat="44.62488760238921" lon="8.130514915097235"><ele>528.0</ele><time>2026-05-02T15:25:31Z</time></trkpt><trkpt lat="44.62508785213039" lon="8.13036483957318"><ele>528.0</ele><time>2026-05-02T15:25:32Z</time></trkpt><trkpt lat="44.62529097430294" lon="8.13018181536716"><ele>528.0</ele><time>2026-05-02T15:25:33Z</time></trkpt><trkpt lat="44.625487556283396" lon="8.130016470700708"><ele>532.0</ele><time>2026-05-02T15:25:34Z</time></trkpt><trkpt lat="44.625643069296714" lon="8.129892724316795"><ele>536.0</ele><time>2026-05-02T15:25:35Z</time></trkpt><trkpt lat="44.62577680687766" lon="8.129809478957702"><ele>540.0</ele><time>2026-05-02T15:25:36Z</time></trkpt><trkpt lat="44.625908791569" lon="8.129785216467166"><ele>542.3333333333334</ele><time>2026-05-02T15:25:37Z</time></trkpt><trkpt lat="44.626058971651986" lon="8.129821734431625"><ele>544.6666666666667</ele><time>2026-05-02T15:25:38Z</time></trkpt><trkpt lat="44.6262258617219" lon="8.129894759963529"><ele>547.0</ele><time>2026-05-02T15:25:39Z</time></trkpt><trkpt lat="44.62640793384857" lon="8.129917335256508"><ele>543.0</ele><time>2026-05-02T15:25:40Z</time></trkpt><trkpt lat="44.62660239160322" lon="8.129886763499101"><ele>539.0</ele><time>2026-05-02T15:25:41Z</time></trkpt><trkpt lat="44.62680500916743" lon="8.129827713854471"><ele>535.0</ele><time>2026-05-02T15:25:42Z</time></trkpt><trkpt lat="44.62701443778615" lon="8.129771456789076"><ele>535.0</ele><time>2026-05-02T15:25:43Z</time></trkpt><trkpt lat="44.627232986360475" lon="8.129732645350016"><ele>535.0</ele><time>2026-05-02T15:25:44Z</time></trkpt><trkpt lat="44.62745300630215" lon="8.12970941726416"><ele>535.0</ele><time>2026-05-02T15:25:45Z</time></trkpt><trkpt lat="44.627671566111715" lon="8.129697088339695"><ele>538.0</ele><time>2026-05-02T15:25:46Z</time></trkpt><trkpt lat="44.62787612705136" lon="8.129679504380272"><ele>541.0</ele><time>2026-05-02T15:25:47Z</time></trkpt><trkpt lat="44.62805898506593" lon="8.129658130012263"><ele>544.0</ele><time>2026-05-02T15:25:48Z</time></trkpt><trkpt lat="44.628228284773066" lon="8.129647433173844"><ele>544.0</ele><time>2026-05-02T15:25:49Z</time></trkpt><trkpt lat="44.628388259605785" lon="8.129644009310951"><ele>544.0</ele><time>2026-05-02T15:25:50Z</time></trkpt><trkpt lat="44.628548820181436" lon="8.129537472132245"><ele>544.0</ele><time>2026-05-02T15:25:51Z</time></trkpt><trkpt lat="44.62871225541798" lon="8.12943255254912"><ele>546.6666666666667</ele><time>2026-05-02T15:25:52Z</time></trkpt><trkpt lat="44.628868017789785" lon="8.129298356348535"><ele>549.3333333333334</ele><time>2026-05-02T15:25:53Z</time></trkpt><trkpt lat="44.629010107538086" lon="8.129129611742147"><ele>552.0</ele><time>2026-05-02T15:25:54Z</time></trkpt><trkpt lat="44.629147301063846" lon="8.128934695784686"><ele>552.0</ele><time>2026-05-02T15:25:55Z</time></trkpt><trkpt lat="44.62926788358647" lon="8.12870406295857"><ele>552.0</ele><time>2026-05-02T15:25:56Z</time></trkpt><trkpt lat="44.629365162700836" lon="8.128454544058197"><ele>552.0</ele><time>2026-05-02T15:25:57Z</time></trkpt><trkpt lat="44.62947442463936" lon="8.128224881361033"><ele>556.0</ele><time>2026-05-02T15:25:58Z</time></trkpt><trkpt lat="44.62960630374603" lon="8.128020685351052"><ele>560.0</ele><time>2026-05-02T15:25:59Z</time></trkpt><trkpt lat="44.62976520401075" lon="8.127840871428578"><ele>564.0</ele><time>2026-05-02T15:26:00Z</time></trkpt><trkpt lat="44.6299435079194" lon="8.12767659178934"><ele>564.0</ele><time>2026-05-02T15:26:01Z</time></trkpt><trkpt lat="44.630124368174386" lon="8.127516342264379"><ele>564.0</ele><time>2026-05-02T15:26:02Z</time></trkpt><trkpt lat="44.63028373095404" lon="8.127363976102533"><ele>564.0</ele><time>2026-05-02T15:26:03Z</time></trkpt><trkpt lat="44.630413277860946" lon="8.127218531096545"><ele>572.0</ele><time>2026-05-02T15:26:04Z</time></trkpt><trkpt lat="44.630506816059416" lon="8.127052419406967"><ele>580.0</ele><time>2026-05-02T15:26:05Z</time></trkpt><trkpt lat="44.6305566265945" lon="8.12684360626067"><ele>588.0</ele><time>2026-05-02T15:26:06Z</time></trkpt><trkpt lat="44.63055605762196" lon="8.126596114582721"><ele>593.3333333333334</ele><time>2026-05-02T15:26:07Z</time></trkpt><trkpt lat="44.63051618069536" lon="8.126328361924514"><ele>598.6666666666667</ele><time>2026-05-02T15:26:08Z</time></trkpt><trkpt lat="44.630473401765826" lon="8.126048144603699"><ele>604.0</ele><time>2026-05-02T15:26:09Z</time></trkpt><trkpt lat="44.63043630529443" lon="8.125808695714317"><ele>603.5</ele><time>2026-05-02T15:26:10Z</time></trkpt><trkpt lat="44.63037009415609" lon="8.125630148230115"><ele>603.0</ele><time>2026-05-02T15:26:11Z</time></trkpt><trkpt lat="44.63025735772625" lon="8.125508662347391"><ele>602.5</ele><time>2026-05-02T15:26:12Z</time></trkpt><trkpt lat="44.63011522222678" lon="8.125451474851051"><ele>602.0</ele><time>2026-05-02T15:26:13Z</time></trkpt><trkpt lat="44.62993092983915" lon="8.1254480690252"><ele>602.0</ele><time>2026-05-02T15:26:14Z</time></trkpt><trkpt lat="44.62973612024147" lon="8.125426013915854"><ele>602.0</ele><time>2026-05-02T15:26:15Z</time></trkpt><trkpt lat="44.62955196030021" lon="8.125402424712371"><ele>602.0</ele><time>2026-05-02T15:26:16Z</time></trkpt><trkpt lat="44.629408640019214" lon="8.125377883695862"><ele>602.5</ele><time>2026-05-02T15:26:17Z</time></trkpt><trkpt lat="44.6293034626624" lon="8.125322358099991"><ele>603.0</ele><time>2026-05-02T15:26:18Z</time></trkpt><trkpt lat="44.62921319315854" lon="8.125189297026536"><ele>603.5</ele><time>2026-05-02T15:26:19Z</time></trkpt><trkpt lat="44.62914284497867" lon="8.12499792594282"><ele>604.0</ele><time>2026-05-02T15:26:20Z</time></trkpt><trkpt lat="44.62907251039964" lon="8.12478811292196"><ele>604.0</ele><time>2026-05-02T15:26:21Z</time></trkpt><trkpt lat="44.62898683553633" lon="8.124585678733858"><ele>604.0</ele><time>2026-05-02T15:26:22Z</time></trkpt><trkpt lat="44.62888956105638" lon="8.124376411438485"><ele>604.0</ele><time>2026-05-02T15:26:23Z</time></trkpt><trkpt lat="44.628798524805966" lon="8.124173205399785"><ele>603.5</ele><time>2026-05-02T15:26:24Z</time></trkpt><trkpt lat="44.628730608452614" lon="8.123985860923277"><ele>603.0</ele><time>2026-05-02T15:26:25Z</time></trkpt><trkpt lat="44.628713112201766" lon="8.123805580614636"><ele>602.5</ele><time>2026-05-02T15:26:26Z</time></trkpt><trkpt lat="44.62873506529632" lon="8.123629998884175"><ele>602.0</ele><time>2026-05-02T15:26:27Z</time></trkpt><trkpt lat="44.62879709034153" lon="8.123472142645483"><ele>602.0</ele><time>2026-05-02T15:26:28Z</time></trkpt><trkpt lat="44.62889938166401" lon="8.12336363644341"><ele>602.0</ele><time>2026-05-02T15:26:29Z</time></trkpt><trkpt lat="44.62902224380099" lon="8.12327827873199"><ele>602.0</ele><time>2026-05-02T15:26:30Z</time></trkpt><trkpt lat="44.629146298315554" lon="8.123186915035836"><ele>602.0</ele><time>2026-05-02T15:26:31Z</time></trkpt><trkpt lat="44.62928398062277" lon="8.12303269636194"><ele>598.6666666666666</ele><time>2026-05-02T15:26:32Z</time></trkpt><trkpt lat="44.62941273463737" lon="8.122852507014859"><ele>595.3333333333334</ele><time>2026-05-02T15:26:33Z</time></trkpt><trkpt lat="44.629520581903265" lon="8.122644426755695"><ele>592.0</ele><time>2026-05-02T15:26:34Z</time></trkpt><trkpt lat="44.62960968257053" lon="8.122407505275588"><ele>593.75</ele><time>2026-05-02T15:26:35Z</time></trkpt><trkpt lat="44.62966939427073" lon="8.122186872604885"><ele>595.5</ele><time>2026-05-02T15:26:36Z</time></trkpt><trkpt lat="44.629750363825025" lon="8.122034375244805"><ele>597.25</ele><time>2026-05-02T15:26:37Z</time></trkpt><trkpt lat="44.629858086636574" lon="8.121944883284955"><ele>599.0</ele><time>2026-05-02T15:26:38Z</time></trkpt><trkpt lat="44.630004906025555" lon="8.121920141732618"><ele>599.0</ele><time>2026-05-02T15:26:39Z</time></trkpt><trkpt lat="44.63019956960606" lon="8.12187297675186"><ele>599.0</ele><time>2026-05-02T15:26:40Z</time></trkpt><trkpt lat="44.63039898674083" lon="8.121823690342"><ele>599.0</ele><time>2026-05-02T15:26:41Z</time></trkpt><trkpt lat="44.63060385218008" lon="8.121750661649992"><ele>601.3333333333333</ele><time>2026-05-02T15:26:42Z</time></trkpt><trkpt lat="44.63082332389118" lon="8.121718979717599"><ele>603.6666666666666</ele><time>2026-05-02T15:26:43Z</time></trkpt><trkpt lat="44.631037776394635" lon="8.121646804759862"><ele>606.0</ele><time>2026-05-02T15:26:44Z</time></trkpt><trkpt lat="44.6312515310117" lon="8.12160442522959"><ele>604.0</ele><time>2026-05-02T15:26:45Z</time></trkpt><trkpt lat="44.63146913987743" lon="8.12155562806338"><ele>602.0</ele><time>2026-05-02T15:26:46Z</time></trkpt><trkpt lat="44.63167865020187" lon="8.12150007786317"><ele>600.0</ele><time>2026-05-02T15:26:47Z</time></trkpt><trkpt lat="44.63187522071656" lon="8.121421179788182"><ele>606.6666666666666</ele><time>2026-05-02T15:26:48Z</time></trkpt><trkpt lat="44.632065318372" lon="8.121289679484152"><ele>613.3333333333333</ele><time>2026-05-02T15:26:49Z</time></trkpt><trkpt lat="44.632248447806646" lon="8.12113538039681"><ele>620.0</ele><time>2026-05-02T15:26:50Z</time></trkpt><trkpt lat="44.632418709654374" lon="8.120955640640563"><ele>620.0</ele><time>2026-05-02T15:26:51Z</time></trkpt><trkpt lat="44.63256674341871" lon="8.120748079374868"><ele>620.0</ele><time>2026-05-02T15:26:52Z</time></trkpt><trkpt lat="44.63268432596114" lon="8.120505987493875"><ele>620.0</ele><time>2026-05-02T15:26:53Z</time></trkpt><trkpt lat="44.63276718617656" lon="8.120221658230912"><ele>620.5</ele><time>2026-05-02T15:26:54Z</time></trkpt><trkpt lat="44.63279274302731" lon="8.11991293959477"><ele>621.0</ele><time>2026-05-02T15:26:55Z</time></trkpt><trkpt lat="44.632768466426576" lon="8.119583596745013"><ele>621.0</ele><time>2026-05-02T15:26:56Z</time></trkpt><trkpt lat="44.63270942091078" lon="8.119247818596445"><ele>621.0</ele><time>2026-05-02T15:26:57Z</time></trkpt><trkpt lat="44.632617631611595" lon="8.118919403905126"><ele>625.5</ele><time>2026-05-02T15:26:58Z</time></trkpt><trkpt lat="44.63249863365079" lon="8.118605479559028"><ele>630.0</ele><time>2026-05-02T15:26:59Z</time></trkpt><trkpt lat="44.632358705466956" lon="8.118328793876511"><ele>632.6666666666666</ele><time>2026-05-02T15:27:00Z</time></trkpt><trkpt lat="44.632180223766305" lon="8.11814285928789"><ele>635.3333333333333</ele><time>2026-05-02T15:27:01Z</time></trkpt><trkpt lat="44.632009248820545" lon="8.118007104102087"><ele>638.0</ele><time>2026-05-02T15:27:02Z</time></trkpt><trkpt lat="44.63182343756696" lon="8.117929704764517"><ele>638.0</ele><time>2026-05-02T15:27:03Z</time></trkpt><trkpt lat="44.631620675462955" lon="8.117856279954252"><ele>638.0</ele><time>2026-05-02T15:27:04Z</time></trkpt><trkpt lat="44.631413383936284" lon="8.117768197007889"><ele>638.0</ele><time>2026-05-02T15:27:05Z</time></trkpt><trkpt lat="44.63120148499439" lon="8.117677173574577"><ele>633.6666666666666</ele><time>2026-05-02T15:27:06Z</time></trkpt><trkpt lat="44.63099818200289" lon="8.11758266312804"><ele>629.3333333333334</ele><time>2026-05-02T15:27:07Z</time></trkpt><trkpt lat="44.63080680492506" lon="8.117499064326557"><ele>625.0</ele><time>2026-05-02T15:27:08Z</time></trkpt><trkpt lat="44.63066002192525" lon="8.117428063082835"><ele>626.2</ele><time>2026-05-02T15:27:09Z</time></trkpt><trkpt lat="44.63056442204725" lon="8.11735836760186"><ele>627.4</ele><time>2026-05-02T15:27:10Z</time></trkpt><trkpt lat="44.6305138847431" lon="8.117240672984922"><ele>628.6</ele><time>2026-05-02T15:27:11Z</time></trkpt><trkpt lat="44.630513073512844" lon="8.117101384591253"><ele>629.8</ele><time>2026-05-02T15:27:12Z</time></trkpt><trkpt lat="44.630585256473196" lon="8.116976056580734"><ele>631.0</ele><time>2026-05-02T15:27:13Z</time></trkpt><trkpt lat="44.6306384053636" lon="8.116816303596156"><ele>631.0</ele><time>2026-05-02T15:27:14Z</time></trkpt><trkpt lat="44.63068620222756" lon="8.116629931558483"><ele>631.0</ele><time>2026-05-02T15:27:15Z</time></trkpt><trkpt lat="44.63068329006002" lon="8.116401442205111"><ele>631.0</ele><time>2026-05-02T15:27:16Z</time></trkpt><trkpt lat="44.63063679984646" lon="8.116179096751535"><ele>631.0</ele><time>2026-05-02T15:27:17Z</time></trkpt><trkpt lat="44.630585111151696" lon="8.115972191138468"><ele>631.0</ele><time>2026-05-02T15:27:18Z</time></trkpt><trkpt lat="44.63059294388636" lon="8.11576336891113"><ele>631.0</ele><time>2026-05-02T15:27:19Z</time></trkpt><trkpt lat="44.63064806908208" lon="8.115546306608381"><ele>625.6666666666667</ele><time>2026-05-02T15:27:20Z</time></trkpt><trkpt lat="44.63077766649639" lon="8.115362567610278"><ele>620.3333333333334</ele><time>2026-05-02T15:27:21Z</time></trkpt><trkpt lat="44.63091470002678" lon="8.11515566692443"><ele>615.0</ele><time>2026-05-02T15:27:22Z</time></trkpt><trkpt lat="44.63105183340797" lon="8.114946773854738"><ele>613.0</ele><time>2026-05-02T15:27:23Z</time></trkpt><trkpt lat="44.6311791713745" lon="8.114763209323606"><ele>611.0</ele><time>2026-05-02T15:27:24Z</time></trkpt><trkpt lat="44.631331280445195" lon="8.11461990437832"><ele>609.0</ele><time>2026-05-02T15:27:25Z</time></trkpt><trkpt lat="44.63152531376122" lon="8.114498893439874"><ele>609.0</ele><time>2026-05-02T15:27:26Z</time></trkpt><trkpt lat="44.63173114810423" lon="8.1143844291687"><ele>609.0</ele><time>2026-05-02T15:27:27Z</time></trkpt><trkpt lat="44.63192876150705" lon="8.114289215489064"><ele>609.0</ele><time>2026-05-02T15:27:28Z</time></trkpt><trkpt lat="44.63213421675641" lon="8.114246868631943"><ele>610.6666666666666</ele><time>2026-05-02T15:27:29Z</time></trkpt><trkpt lat="44.63233717724692" lon="8.114252692747288"><ele>612.3333333333333</ele><time>2026-05-02T15:27:30Z</time></trkpt><trkpt lat="44.632520039196365" lon="8.114224905480501"><ele>614.0</ele><time>2026-05-02T15:27:31Z</time></trkpt><trkpt lat="44.63268570913485" lon="8.114115411676133"><ele>614.6666666666666</ele><time>2026-05-02T15:27:32Z</time></trkpt><trkpt lat="44.63284230227749" lon="8.113922761353164"><ele>615.3333333333334</ele><time>2026-05-02T15:27:33Z</time></trkpt><trkpt lat="44.632975002351756" lon="8.113672536504783"><ele>616.0</ele><time>2026-05-02T15:27:34Z</time></trkpt><trkpt lat="44.63306276479284" lon="8.113386118062033"><ele>613.3333333333334</ele><time>2026-05-02T15:27:35Z</time></trkpt><trkpt lat="44.633083556999686" lon="8.113096011036816"><ele>610.6666666666666</ele><time>2026-05-02T15:27:36Z</time></trkpt><trkpt lat="44.6330783711912" lon="8.112842124801045"><ele>608.0</ele><time>2026-05-02T15:27:37Z</time></trkpt><trkpt lat="44.633086255651016" lon="8.112613233238958"><ele>606.0</ele><time>2026-05-02T15:27:38Z</time></trkpt><trkpt lat="44.63310177452554" lon="8.11238669959031"><ele>604.0</ele><time>2026-05-02T15:27:39Z</time></trkpt><trkpt lat="44.63312294847904" lon="8.112168079572319"><ele>602.0</ele><time>2026-05-02T15:27:40Z</time></trkpt><trkpt lat="44.63314951497677" lon="8.111961603127412"><ele>602.0</ele><time>2026-05-02T15:27:41Z</time></trkpt><trkpt lat="44.63316775895078" lon="8.111760854595136"><ele>602.0</ele><time>2026-05-02T15:27:42Z</time></trkpt><trkpt lat="44.633178163220244" lon="8.111572567792544"><ele>602.0</ele><time>2026-05-02T15:27:43Z</time></trkpt><trkpt lat="44.63319785454397" lon="8.111398976596359"><ele>602.0</ele><time>2026-05-02T15:27:44Z</time></trkpt><trkpt lat="44.63324672775351" lon="8.111244370232187"><ele>601.0</ele><time>2026-05-02T15:27:45Z</time></trkpt><trkpt lat="44.63332949196748" lon="8.11112256102558"><ele>600.0</ele><time>2026-05-02T15:27:46Z</time></trkpt><trkpt lat="44.63344325561503" lon="8.11105821471012"><ele>599.0</ele><time>2026-05-02T15:27:47Z</time></trkpt><trkpt lat="44.63358228305727" lon="8.111048394231616"><ele>598.0</ele><time>2026-05-02T15:27:48Z</time></trkpt><trkpt lat="44.63372828176179" lon="8.11109802163994"><ele>596.6666666666667</ele><time>2026-05-02T15:27:49Z</time></trkpt><trkpt lat="44.63387632972867" lon="8.111192228611998"><ele>595.3333333333334</ele><time>2026-05-02T15:27:50Z</time></trkpt><trkpt lat="44.6340453730605" lon="8.111228461214539"><ele>594.0</ele><time>2026-05-02T15:27:51Z</time></trkpt><trkpt lat="44.63421942386238" lon="8.111280428657835"><ele>594.0</ele><time>2026-05-02T15:27:52Z</time></trkpt><trkpt lat="44.63439841594286" lon="8.111337449837704"><ele>594.0</ele><time>2026-05-02T15:27:53Z</time></trkpt><trkpt lat="44.634561350546775" lon="8.111396414669183"><ele>594.0</ele><time>2026-05-02T15:27:54Z</time></trkpt><trkpt lat="44.634717529910894" lon="8.111447766765709"><ele>590.0</ele><time>2026-05-02T15:27:55Z</time></trkpt><trkpt lat="44.63486782779828" lon="8.111495274387481"><ele>586.0</ele><time>2026-05-02T15:27:56Z</time></trkpt><trkpt lat="44.63501728743441" lon="8.111539418250917"><ele>582.0</ele><time>2026-05-02T15:27:57Z</time></trkpt><trkpt lat="44.63517960446154" lon="8.111544425006915"><ele>580.0</ele><time>2026-05-02T15:27:58Z</time></trkpt><trkpt lat="44.63536761126593" lon="8.111499174962315"><ele>578.0</ele><time>2026-05-02T15:27:59Z</time></trkpt><trkpt lat="44.635553338025105" lon="8.111402965303949"><ele>576.0</ele><time>2026-05-02T15:28:00Z</time></trkpt><trkpt lat="44.63572910201087" lon="8.111264950255018"><ele>576.0</ele><time>2026-05-02T15:28:01Z</time></trkpt><trkpt lat="44.63589308308173" lon="8.111066192585646"><ele>576.0</ele><time>2026-05-02T15:28:02Z</time></trkpt><trkpt lat="44.63603850568735" lon="8.110830028971927"><ele>576.0</ele><time>2026-05-02T15:28:03Z</time></trkpt><trkpt lat="44.63618111394841" lon="8.110629870491737"><ele>574.0</ele><time>2026-05-02T15:28:04Z</time></trkpt><trkpt lat="44.63633494364553" lon="8.110470737130793"><ele>572.0</ele><time>2026-05-02T15:28:05Z</time></trkpt><trkpt lat="44.63651526765355" lon="8.110360789147487"><ele>570.0</ele><time>2026-05-02T15:28:06Z</time></trkpt><trkpt lat="44.63670989509519" lon="8.110253458159688"><ele>570.0</ele><time>2026-05-02T15:28:07Z</time></trkpt><trkpt lat="44.63692568033056" lon="8.110155699028605"><ele>570.0</ele><time>2026-05-02T15:28:08Z</time></trkpt><trkpt lat="44.63714468897219" lon="8.11004030736957"><ele>571.0</ele><time>2026-05-02T15:28:09Z</time></trkpt><trkpt lat="44.63736767392634" lon="8.109950920775358"><ele>572.0</ele><time>2026-05-02T15:28:10Z</time></trkpt><trkpt lat="44.63758074997717" lon="8.10984481964554"><ele>571.0</ele><time>2026-05-02T15:28:11Z</time></trkpt><trkpt lat="44.63777006006409" lon="8.109717338219834"><ele>570.0</ele><time>2026-05-02T15:28:12Z</time></trkpt><trkpt lat="44.63794699985823" lon="8.10955098961272"><ele>569.0</ele><time>2026-05-02T15:28:13Z</time></trkpt><trkpt lat="44.6381049066693" lon="8.109317588624299"><ele>564.0</ele><time>2026-05-02T15:28:14Z</time></trkpt><trkpt lat="44.63823592266849" lon="8.109028474893147"><ele>559.0</ele><time>2026-05-02T15:28:15Z</time></trkpt><trkpt lat="44.6383348212664" lon="8.108688240090883"><ele>559.0</ele><time>2026-05-02T15:28:16Z</time></trkpt><trkpt lat="44.6384272941256" lon="8.108347706362922"><ele>559.0</ele><time>2026-05-02T15:28:17Z</time></trkpt><trkpt lat="44.63852561297781" lon="8.108008669063791"><ele>560.3333333333334</ele><time>2026-05-02T15:28:18Z</time></trkpt><trkpt lat="44.63862297805306" lon="8.107725557745384"><ele>561.6666666666666</ele><time>2026-05-02T15:28:19Z</time></trkpt><trkpt lat="44.63870444008629" lon="8.107500426145373"><ele>563.0</ele><time>2026-05-02T15:28:20Z</time></trkpt><trkpt lat="44.63879423522122" lon="8.107297663472536"><ele>559.0</ele><time>2026-05-02T15:28:21Z</time></trkpt><trkpt lat="44.63893679551512" lon="8.10713644884262"><ele>555.0</ele><time>2026-05-02T15:28:22Z</time></trkpt><trkpt lat="44.639113780679025" lon="8.106972470390144"><ele>551.0</ele><time>2026-05-02T15:28:23Z</time></trkpt><trkpt lat="44.63930043765103" lon="8.10677638463713"><ele>553.5</ele><time>2026-05-02T15:28:24Z</time></trkpt><trkpt lat="44.639508893512456" lon="8.106593894081987"><ele>556.0</ele><time>2026-05-02T15:28:25Z</time></trkpt><trkpt lat="44.63972365170054" lon="8.106402483726592"><ele>547.5</ele><time>2026-05-02T15:28:26Z</time></trkpt><trkpt lat="44.63994394858188" lon="8.106201220452188"><ele>539.0</ele><time>2026-05-02T15:28:27Z</time></trkpt><trkpt lat="44.64015852344737" lon="8.10600845372873"><ele>541.0</ele><time>2026-05-02T15:28:28Z</time></trkpt><trkpt lat="44.64035933826662" lon="8.105823531625502"><ele>543.0</ele><time>2026-05-02T15:28:29Z</time></trkpt><trkpt lat="44.640547050018014" lon="8.105647964861685"><ele>538.0</ele><time>2026-05-02T15:28:30Z</time></trkpt><trkpt lat="44.64072263140202" lon="8.105482863846897"><ele>533.0</ele><time>2026-05-02T15:28:31Z</time></trkpt><trkpt lat="44.64088579909718" lon="8.10529774565886"><ele>528.0</ele><time>2026-05-02T15:28:32Z</time></trkpt><trkpt lat="44.641032440567294" lon="8.105052776321044"><ele>523.5</ele><time>2026-05-02T15:28:33Z</time></trkpt><trkpt lat="44.6411630277422" lon="8.104769166383557"><ele>519.0</ele><time>2026-05-02T15:28:34Z</time></trkpt><trkpt lat="44.64130409361123" lon="8.104517120802457"><ele>519.0</ele><time>2026-05-02T15:28:35Z</time></trkpt><trkpt lat="44.64141653159578" lon="8.104304205997167"><ele>519.0</ele><time>2026-05-02T15:28:36Z</time></trkpt><trkpt lat="44.64150597955246" lon="8.104143089889067"><ele>519.0</ele><time>2026-05-02T15:28:37Z</time></trkpt><trkpt lat="44.64159780390364" lon="8.104020926867216"><ele>517.25</ele><time>2026-05-02T15:28:38Z</time></trkpt><trkpt lat="44.6417034907371" lon="8.103969457424927"><ele>515.5</ele><time>2026-05-02T15:28:39Z</time></trkpt><trkpt lat="44.64184066802181" lon="8.10396731653043"><ele>513.75</ele><time>2026-05-02T15:28:40Z</time></trkpt><trkpt lat="44.64200014004911" lon="8.104048451084727"><ele>512.0</ele><time>2026-05-02T15:28:41Z</time></trkpt><trkpt lat="44.642191450820405" lon="8.10411544411411"><ele>512.0</ele><time>2026-05-02T15:28:42Z</time></trkpt><trkpt lat="44.64240346409516" lon="8.10421378554348"><ele>512.0</ele><time>2026-05-02T15:28:43Z</time></trkpt><trkpt lat="44.64261083552975" lon="8.104326891527652"><ele>512.0</ele><time>2026-05-02T15:28:44Z</time></trkpt><trkpt lat="44.64282601747003" lon="8.104425920424713"><ele>509.0</ele><time>2026-05-02T15:28:45Z</time></trkpt><trkpt lat="44.64302703371129" lon="8.104499951783646"><ele>506.0</ele><time>2026-05-02T15:28:46Z</time></trkpt><trkpt lat="44.64318191459898" lon="8.10457384316254"><ele>503.0</ele><time>2026-05-02T15:28:47Z</time></trkpt><trkpt lat="44.64332086156776" lon="8.104642420256493"><ele>503.0</ele><time>2026-05-02T15:28:48Z</time></trkpt><trkpt lat="44.64345495701927" lon="8.104705444357638"><ele>503.0</ele><time>2026-05-02T15:28:49Z</time></trkpt><trkpt lat="44.6435785930283" lon="8.104755417734502"><ele>503.0</ele><time>2026-05-02T15:28:50Z</time></trkpt><trkpt lat="44.643699099020395" lon="8.104741679661668"><ele>503.0</ele><time>2026-05-02T15:28:51Z</time></trkpt><trkpt lat="44.643812103484805" lon="8.10467956112858"><ele>502.66666666666663</ele><time>2026-05-02T15:28:52Z</time></trkpt><trkpt lat="44.643919514870355" lon="8.104547873018507"><ele>502.33333333333337</ele><time>2026-05-02T15:28:53Z</time></trkpt><trkpt lat="44.644021068097345" lon="8.104387303012984"><ele>502.0</ele><time>2026-05-02T15:28:54Z</time></trkpt><trkpt lat="44.64412927006497" lon="8.104182408829129"><ele>502.33333333333337</ele><time>2026-05-02T15:28:55Z</time></trkpt><trkpt lat="44.644273220521846" lon="8.103996035786878"><ele>502.66666666666663</ele><time>2026-05-02T15:28:56Z</time></trkpt><trkpt lat="44.644401340967825" lon="8.10376963970464"><ele>503.0</ele><time>2026-05-02T15:28:57Z</time></trkpt><trkpt lat="44.644556611796595" lon="8.103560397268666"><ele>503.0</ele><time>2026-05-02T15:28:58Z</time></trkpt><trkpt lat="44.644709853982505" lon="8.103332238758197"><ele>503.0</ele><time>2026-05-02T15:28:59Z</time></trkpt><trkpt lat="44.64484609921712" lon="8.10308426250538"><ele>503.0</ele><time>2026-05-02T15:29:00Z</time></trkpt><trkpt lat="44.64495448933853" lon="8.10280963599124"><ele>498.66666666666663</ele><time>2026-05-02T15:29:01Z</time></trkpt><trkpt lat="44.64504260700408" lon="8.102517644130115"><ele>494.33333333333337</ele><time>2026-05-02T15:29:02Z</time></trkpt><trkpt lat="44.645120601539205" lon="8.102225034794893"><ele>490.0</ele><time>2026-05-02T15:29:03Z</time></trkpt><trkpt lat="44.645205585384254" lon="8.10193175513433"><ele>490.6666666666667</ele><time>2026-05-02T15:29:04Z</time></trkpt><trkpt lat="44.64529080354655" lon="8.101651872323893"><ele>491.33333333333337</ele><time>2026-05-02T15:29:05Z</time></trkpt><trkpt lat="44.645369101738" lon="8.101390515083038"><ele>492.0</ele><time>2026-05-02T15:29:06Z</time></trkpt><trkpt lat="44.64544772123407" lon="8.10112640628732"><ele>492.0</ele><time>2026-05-02T15:29:07Z</time></trkpt><trkpt lat="44.64552318670423" lon="8.100874243194395"><ele>492.0</ele><time>2026-05-02T15:29:08Z</time></trkpt><trkpt lat="44.645582410384016" lon="8.100617650514968"><ele>492.0</ele><time>2026-05-02T15:29:09Z</time></trkpt><trkpt lat="44.645608583107425" lon="8.100347921312588"><ele>490.0</ele><time>2026-05-02T15:29:10Z</time></trkpt><trkpt lat="44.645576474068555" lon="8.100047369940603"><ele>488.0</ele><time>2026-05-02T15:29:11Z</time></trkpt><trkpt lat="44.645566137662925" lon="8.099773019016698"><ele>486.0</ele><time>2026-05-02T15:29:12Z</time></trkpt><trkpt lat="44.64557646768627" lon="8.099509047971122"><ele>482.66666666666663</ele><time>2026-05-02T15:29:13Z</time></trkpt><trkpt lat="44.64561040475228" lon="8.099253675645048"><ele>479.3333333333333</ele><time>2026-05-02T15:29:14Z</time></trkpt><trkpt lat="44.64567456098866" lon="8.098987290578041"><ele>476.0</ele><time>2026-05-02T15:29:15Z</time></trkpt><trkpt lat="44.64575989708624" lon="8.09871401287603"><ele>473.3333333333333</ele><time>2026-05-02T15:29:16Z</time></trkpt><trkpt lat="44.645861881519416" lon="8.098445582219572"><ele>470.66666666666663</ele><time>2026-05-02T15:29:17Z</time></trkpt><trkpt lat="44.645985783931536" lon="8.098193193770355"><ele>468.0</ele><time>2026-05-02T15:29:18Z</time></trkpt><trkpt lat="44.6461362896651" lon="8.097950702923681"><ele>465.5</ele><time>2026-05-02T15:29:19Z</time></trkpt><trkpt lat="44.6463033351575" lon="8.09771198907722"><ele>463.0</ele><time>2026-05-02T15:29:20Z</time></trkpt><trkpt lat="44.646487230522055" lon="8.097469324535467"><ele>456.5</ele><time>2026-05-02T15:29:21Z</time></trkpt><trkpt lat="44.64667313092255" lon="8.097220943153328"><ele>450.0</ele><time>2026-05-02T15:29:22Z</time></trkpt><trkpt lat="44.6468631239419" lon="8.096969306717574"><ele>452.0</ele><time>2026-05-02T15:29:23Z</time></trkpt><trkpt lat="44.64704548522456" lon="8.096726905776329"><ele>454.0</ele><time>2026-05-02T15:29:24Z</time></trkpt><trkpt lat="44.64722242082387" lon="8.096487818915678"><ele>448.5</ele><time>2026-05-02T15:29:25Z</time></trkpt><trkpt lat="44.647390636518146" lon="8.096259734070939"><ele>443.0</ele><time>2026-05-02T15:29:26Z</time></trkpt><trkpt lat="44.64755616644422" lon="8.09604769268041"><ele>443.0</ele><time>2026-05-02T15:29:27Z</time></trkpt><trkpt lat="44.647705024801745" lon="8.095853396622623"><ele>443.0</ele><time>2026-05-02T15:29:28Z</time></trkpt><trkpt lat="44.647837215306424" lon="8.095675944507375"><ele>443.0</ele><time>2026-05-02T15:29:29Z</time></trkpt><trkpt lat="44.647948216105945" lon="8.095529710173576"><ele>441.5</ele><time>2026-05-02T15:29:30Z</time></trkpt><trkpt lat="44.648056401909436" lon="8.095423597510877"><ele>440.0</ele><time>2026-05-02T15:29:31Z</time></trkpt><trkpt lat="44.64817203436862" lon="8.095383851245202"><ele>438.5</ele><time>2026-05-02T15:29:32Z</time></trkpt><trkpt lat="44.64828803691344" lon="8.09534931234961"><ele>437.0</ele><time>2026-05-02T15:29:33Z</time></trkpt><trkpt lat="44.648413145197246" lon="8.095442204126991"><ele>437.0</ele><time>2026-05-02T15:29:34Z</time></trkpt><trkpt lat="44.64855310558778" lon="8.095506981025235"><ele>437.0</ele><time>2026-05-02T15:29:35Z</time></trkpt><trkpt lat="44.648682696287764" lon="8.09548124164948"><ele>437.0</ele><time>2026-05-02T15:29:36Z</time></trkpt><trkpt lat="44.64878112976101" lon="8.095374383792386"><ele>437.0</ele><time>2026-05-02T15:29:37Z</time></trkpt><trkpt lat="44.648839452419836" lon="8.095203072494181"><ele>434.0</ele><time>2026-05-02T15:29:38Z</time></trkpt><trkpt lat="44.648843225392504" lon="8.094985052515655"><ele>431.0</ele><time>2026-05-02T15:29:39Z</time></trkpt><trkpt lat="44.64880069300408" lon="8.094739371415082"><ele>428.0</ele><time>2026-05-02T15:29:40Z</time></trkpt><trkpt lat="44.6487583636077" lon="8.094471425442324"><ele>424.66666666666663</ele><time>2026-05-02T15:29:41Z</time></trkpt><trkpt lat="44.648723015542394" lon="8.094209645900573"><ele>421.33333333333337</ele><time>2026-05-02T15:29:42Z</time></trkpt><trkpt lat="44.64867302973813" lon="8.093960770379695"><ele>418.0</ele><time>2026-05-02T15:29:43Z</time></trkpt><trkpt lat="44.648624116036245" lon="8.093736812818191"><ele>417.25</ele><time>2026-05-02T15:29:44Z</time></trkpt><trkpt lat="44.648566204157426" lon="8.093563399161765"><ele>416.5</ele><time>2026-05-02T15:29:45Z</time></trkpt><trkpt lat="44.64848711215894" lon="8.093467445735897"><ele>415.75</ele><time>2026-05-02T15:29:46Z</time></trkpt><trkpt lat="44.64838985352494" lon="8.093463271819791"><ele>415.0</ele><time>2026-05-02T15:29:47Z</time></trkpt><trkpt lat="44.64828344804604" lon="8.093538681171799"><ele>415.0</ele><time>2026-05-02T15:29:48Z</time></trkpt><trkpt lat="44.64818962644148" lon="8.09367852269502"><ele>415.0</ele><time>2026-05-02T15:29:49Z</time></trkpt><trkpt lat="44.648129072017646" lon="8.093869386343373"><ele>415.0</ele><time>2026-05-02T15:29:50Z</time></trkpt><trkpt lat="44.64809985903184" lon="8.094011641930795"><ele>415.0</ele><time>2026-05-02T15:29:51Z</time></trkpt><trkpt lat="44.647993629115895" lon="8.094076723163147"><ele>415.0</ele><time>2026-05-02T15:29:53Z</time></trkpt><trkpt lat="44.64793474473915" lon="8.094016672571739"><ele>415.0</ele><time>2026-05-02T15:29:54Z</time></trkpt><trkpt lat="44.64789037936747" lon="8.093874640096042"><ele>415.0</ele><time>2026-05-02T15:29:55Z</time></trkpt><trkpt lat="44.64796459465335" lon="8.093735497544502"><ele>415.0</ele><time>2026-05-02T15:29:56Z</time></trkpt><trkpt lat="44.64803421604731" lon="8.093586056742694"><ele>415.0</ele><time>2026-05-02T15:29:57Z</time></trkpt><trkpt lat="44.648083051737444" lon="8.093425526882498"><ele>415.0</ele><time>2026-05-02T15:29:58Z</time></trkpt><trkpt lat="44.64814079495494" lon="8.093276781545976"><ele>415.0</ele><time>2026-05-02T15:29:59Z</time></trkpt><trkpt lat="44.64819527051634" lon="8.093120443742835"><ele>415.0</ele><time>2026-05-02T15:30:00Z</time></trkpt><trkpt lat="44.648251114715784" lon="8.092970172338445"><ele>415.0</ele><time>2026-05-02T15:30:01Z</time></trkpt><trkpt lat="44.64829933230744" lon="8.092839272517342"><ele>412.4</ele><time>2026-05-02T15:30:02Z</time></trkpt><trkpt lat="44.64835409062774" lon="8.092706861833955"><ele>409.8</ele><time>2026-05-02T15:30:03Z</time></trkpt><trkpt lat="44.64841207002316" lon="8.09257657230877"><ele>407.20000000000005</ele><time>2026-05-02T15:30:04Z</time></trkpt><trkpt lat="44.64848289571768" lon="8.092457194402938"><ele>404.6</ele><time>2026-05-02T15:30:05Z</time></trkpt><trkpt lat="44.64857089475738" lon="8.092347647745115"><ele>402.0</ele><time>2026-05-02T15:30:06Z</time></trkpt><trkpt lat="44.648672228469856" lon="8.092250647657135"><ele>400.0</ele><time>2026-05-02T15:30:07Z</time></trkpt><trkpt lat="44.64878310494554" lon="8.092164495360777"><ele>398.0</ele><time>2026-05-02T15:30:08Z</time></trkpt><trkpt lat="44.64890425390081" lon="8.092092073171573"><ele>396.0</ele><time>2026-05-02T15:30:09Z</time></trkpt><trkpt lat="44.64903424772714" lon="8.092092543147889"><ele>394.0</ele><time>2026-05-02T15:30:10Z</time></trkpt><trkpt lat="44.64915184238228" lon="8.092137809987017"><ele>394.0</ele><time>2026-05-02T15:30:11Z</time></trkpt><trkpt lat="44.649255799737325" lon="8.092191346525246"><ele>394.0</ele><time>2026-05-02T15:30:12Z</time></trkpt><trkpt lat="44.649342238459575" lon="8.092204359329584"><ele>394.0</ele><time>2026-05-02T15:30:13Z</time></trkpt><trkpt lat="44.64940750880517" lon="8.092179976733545"><ele>394.0</ele><time>2026-05-02T15:30:14Z</time></trkpt><trkpt lat="44.64946383415101" lon="8.092079762745659"><ele>394.0</ele><time>2026-05-02T15:30:15Z</time></trkpt><trkpt lat="44.649491346576504" lon="8.091934447804716"><ele>394.0</ele><time>2026-05-02T15:30:16Z</time></trkpt><trkpt lat="44.64946981399943" lon="8.091767983670408"><ele>394.0</ele><time>2026-05-02T15:30:17Z</time></trkpt><trkpt lat="44.649401448768586" lon="8.091607326755112"><ele>394.0</ele><time>2026-05-02T15:30:18Z</time></trkpt><trkpt lat="44.649316673068796" lon="8.091450950566077"><ele>394.0</ele><time>2026-05-02T15:30:19Z</time></trkpt><trkpt lat="44.649201541649354" lon="8.091327257068391"><ele>390.0</ele><time>2026-05-02T15:30:20Z</time></trkpt><trkpt lat="44.64906274011998" lon="8.09127519706787"><ele>386.0</ele><time>2026-05-02T15:30:21Z</time></trkpt><trkpt lat="44.64890783012919" lon="8.091305466985032"><ele>382.0</ele><time>2026-05-02T15:30:22Z</time></trkpt><trkpt lat="44.64876645074754" lon="8.091371289035617"><ele>378.0</ele><time>2026-05-02T15:30:23Z</time></trkpt><trkpt lat="44.64864505515522" lon="8.091429541586807"><ele>380.0</ele><time>2026-05-02T15:30:24Z</time></trkpt><trkpt lat="44.64854475926466" lon="8.09151240313964"><ele>382.0</ele><time>2026-05-02T15:30:25Z</time></trkpt><trkpt lat="44.64846344916317" lon="8.09163374934958"><ele>384.0</ele><time>2026-05-02T15:30:26Z</time></trkpt><trkpt lat="44.6484032812867" lon="8.09178974747185"><ele>386.0</ele><time>2026-05-02T15:30:27Z</time></trkpt><trkpt lat="44.64833011371546" lon="8.091911946763329"><ele>385.99999999999994</ele><time>2026-05-02T15:30:28Z</time></trkpt><trkpt lat="44.648272143923585" lon="8.092030390452008"><ele>386.0</ele><time>2026-05-02T15:30:29Z</time></trkpt><trkpt lat="44.64822612311235" lon="8.09212278689333"><ele>386.0</ele><time>2026-05-02T15:30:30Z</time></trkpt><trkpt lat="44.64818269016835" lon="8.092190352942833"><ele>386.0</ele><time>2026-05-02T15:30:31Z</time></trkpt><trkpt lat="44.64812867471675" lon="8.092238275004167"><ele>385.99999999999994</ele><time>2026-05-02T15:30:32Z</time></trkpt><trkpt lat="44.64802692841962" lon="8.092228185101868"><ele>386.0</ele><time>2026-05-02T15:30:34Z</time></trkpt><trkpt lat="44.64798965545638" lon="8.092068153062405"><ele>386.0</ele><time>2026-05-02T15:30:36Z</time></trkpt><trkpt lat="44.6480168545735" lon="8.091972411086594"><ele>386.0</ele><time>2026-05-02T15:30:37Z</time></trkpt><trkpt lat="44.64807546360329" lon="8.09188501815204"><ele>386.0</ele><time>2026-05-02T15:30:38Z</time></trkpt><trkpt lat="44.648128690204445" lon="8.091767526997025"><ele>386.0</ele><time>2026-05-02T15:30:39Z</time></trkpt><trkpt lat="44.648193799863954" lon="8.091658861998313"><ele>386.0</ele><time>2026-05-02T15:30:40Z</time></trkpt><trkpt lat="44.648256173403134" lon="8.091539456988983"><ele>384.0</ele><time>2026-05-02T15:30:41Z</time></trkpt><trkpt lat="44.64832766722155" lon="8.091405463033356"><ele>382.0</ele><time>2026-05-02T15:30:42Z</time></trkpt><trkpt lat="44.64841480798926" lon="8.091269748440531"><ele>380.0</ele><time>2026-05-02T15:30:43Z</time></trkpt><trkpt lat="44.64853197023786" lon="8.091159966974825"><ele>378.0</ele><time>2026-05-02T15:30:44Z</time></trkpt><trkpt lat="44.64863705891484" lon="8.091022515733501"><ele>378.0</ele><time>2026-05-02T15:30:45Z</time></trkpt><trkpt lat="44.64874799252056" lon="8.090903886558596"><ele>378.0</ele><time>2026-05-02T15:30:46Z</time></trkpt><trkpt lat="44.64885353279873" lon="8.090790364921702"><ele>378.0</ele><time>2026-05-02T15:30:47Z</time></trkpt><trkpt lat="44.64896445280182" lon="8.090667390559501"><ele>378.0</ele><time>2026-05-02T15:30:48Z</time></trkpt><trkpt lat="44.64906886478901" lon="8.090548478589314"><ele>373.75</ele><time>2026-05-02T15:30:49Z</time></trkpt><trkpt lat="44.64917112014651" lon="8.090444099537752"><ele>369.5</ele><time>2026-05-02T15:30:50Z</time></trkpt><trkpt lat="44.649266714340406" lon="8.090349328582024"><ele>365.25</ele><time>2026-05-02T15:30:51Z</time></trkpt><trkpt lat="44.64936857844013" lon="8.090269887533559"><ele>361.0</ele><time>2026-05-02T15:30:52Z</time></trkpt><trkpt lat="44.64948240188416" lon="8.090246679548562"><ele>361.0</ele><time>2026-05-02T15:30:53Z</time></trkpt><trkpt lat="44.64959081108662" lon="8.090244819542201"><ele>361.0</ele><time>2026-05-02T15:30:54Z</time></trkpt><trkpt lat="44.64971421453685" lon="8.090268175941086"><ele>361.0</ele><time>2026-05-02T15:30:55Z</time></trkpt><trkpt lat="44.649856365813164" lon="8.090301860754035"><ele>361.0</ele><time>2026-05-02T15:30:56Z</time></trkpt><trkpt lat="44.650002018715554" lon="8.090336555607486"><ele>361.0</ele><time>2026-05-02T15:30:57Z</time></trkpt><trkpt lat="44.650152075304106" lon="8.090351751273358"><ele>361.0</ele><time>2026-05-02T15:30:58Z</time></trkpt><trkpt lat="44.65029181950987" lon="8.090394266749882"><ele>361.0</ele><time>2026-05-02T15:30:59Z</time></trkpt><trkpt lat="44.65042248934045" lon="8.090437190400637"><ele>361.0</ele><time>2026-05-02T15:31:00Z</time></trkpt><trkpt lat="44.65054355197071" lon="8.090495332686865"><ele>361.75</ele><time>2026-05-02T15:31:01Z</time></trkpt><trkpt lat="44.65065771397071" lon="8.090572291875409"><ele>362.5</ele><time>2026-05-02T15:31:02Z</time></trkpt><trkpt lat="44.650761075545475" lon="8.090661282807977"><ele>363.25</ele><time>2026-05-02T15:31:03Z</time></trkpt><trkpt lat="44.650853823533815" lon="8.090756233226035"><ele>364.0</ele><time>2026-05-02T15:31:04Z</time></trkpt><trkpt lat="44.650938695946984" lon="8.090839998901108"><ele>364.0</ele><time>2026-05-02T15:31:05Z</time></trkpt><trkpt lat="44.65102712677254" lon="8.090902173684688"><ele>364.0</ele><time>2026-05-02T15:31:06Z</time></trkpt><trkpt lat="44.65112034636689" lon="8.09092794078311"><ele>364.0</ele><time>2026-05-02T15:31:07Z</time></trkpt><trkpt lat="44.65121543875415" lon="8.090949669075872"><ele>364.0</ele><time>2026-05-02T15:31:08Z</time></trkpt><trkpt lat="44.6513129654507" lon="8.090892836038348"><ele>364.0</ele><time>2026-05-02T15:31:09Z</time></trkpt><trkpt lat="44.651402313509976" lon="8.090834927359882"><ele>364.79999999999995</ele><time>2026-05-02T15:31:10Z</time></trkpt><trkpt lat="44.65148506496997" lon="8.090738434079995"><ele>365.59999999999997</ele><time>2026-05-02T15:31:11Z</time></trkpt><trkpt lat="44.65154331357419" lon="8.090627367815548"><ele>366.4</ele><time>2026-05-02T15:31:12Z</time></trkpt><trkpt lat="44.65158665916838" lon="8.09050592718547"><ele>367.2</ele><time>2026-05-02T15:31:13Z</time></trkpt><trkpt lat="44.65160589564326" lon="8.090371560352358"><ele>368.0</ele><time>2026-05-02T15:31:14Z</time></trkpt><trkpt lat="44.65160707905393" lon="8.090210824412537"><ele>368.0</ele><time>2026-05-02T15:31:15Z</time></trkpt><trkpt lat="44.651575544573426" lon="8.090047325809069"><ele>368.0</ele><time>2026-05-02T15:31:16Z</time></trkpt><trkpt lat="44.6515193496913" lon="8.089887861014963"><ele>368.0</ele><time>2026-05-02T15:31:17Z</time></trkpt><trkpt lat="44.65144707878151" lon="8.089733915815392"><ele>368.0</ele><time>2026-05-02T15:31:18Z</time></trkpt><trkpt lat="44.65136702949906" lon="8.089582910880937"><ele>367.5</ele><time>2026-05-02T15:31:19Z</time></trkpt><trkpt lat="44.651280902386965" lon="8.08943669023777"><ele>367.0</ele><time>2026-05-02T15:31:20Z</time></trkpt><trkpt lat="44.6511838433835" lon="8.089294189114023"><ele>366.5</ele><time>2026-05-02T15:31:21Z</time></trkpt><trkpt lat="44.651081307296245" lon="8.089153459941073"><ele>366.0</ele><time>2026-05-02T15:31:22Z</time></trkpt><trkpt lat="44.65097602388982" lon="8.089037906886958"><ele>366.0</ele><time>2026-05-02T15:31:23Z</time></trkpt><trkpt lat="44.65087029131601" lon="8.088888474836974"><ele>366.0</ele><time>2026-05-02T15:31:24Z</time></trkpt><trkpt lat="44.65077243036072" lon="8.088755691995484"><ele>366.0</ele><time>2026-05-02T15:31:25Z</time></trkpt><trkpt lat="44.65067128587917" lon="8.08861734502434"><ele>366.0</ele><time>2026-05-02T15:31:26Z</time></trkpt><trkpt lat="44.6505693860507" lon="8.088479267367479"><ele>366.0</ele><time>2026-05-02T15:31:27Z</time></trkpt><trkpt lat="44.65046404611111" lon="8.08834268660062"><ele>366.0</ele><time>2026-05-02T15:31:28Z</time></trkpt><trkpt lat="44.65035982472962" lon="8.08820920252054"><ele>366.0</ele><time>2026-05-02T15:31:29Z</time></trkpt><trkpt lat="44.650256658014214" lon="8.08807045295771"><ele>366.0</ele><time>2026-05-02T15:31:30Z</time></trkpt><trkpt lat="44.650154370185945" lon="8.087929795705382"><ele>366.25</ele><time>2026-05-02T15:31:31Z</time></trkpt><trkpt lat="44.650054412674535" lon="8.087786926997085"><ele>366.5</ele><time>2026-05-02T15:31:32Z</time></trkpt><trkpt lat="44.649959626484765" lon="8.087636499081652"><ele>366.75</ele><time>2026-05-02T15:31:33Z</time></trkpt><trkpt lat="44.64987338730812" lon="8.087480269693902"><ele>367.0</ele><time>2026-05-02T15:31:34Z</time></trkpt><trkpt lat="44.64979074473543" lon="8.087314195756838"><ele>367.0</ele><time>2026-05-02T15:31:35Z</time></trkpt><trkpt lat="44.649716437638745" lon="8.087156708894819"><ele>367.0</ele><time>2026-05-02T15:31:36Z</time></trkpt><trkpt lat="44.64964737686954" lon="8.086990339151972"><ele>367.0</ele><time>2026-05-02T15:31:37Z</time></trkpt><trkpt lat="44.64958398116022" lon="8.08680275043275"><ele>367.0</ele><time>2026-05-02T15:31:38Z</time></trkpt><trkpt lat="44.64952274553688" lon="8.086603307259077"><ele>370.66666666666663</ele><time>2026-05-02T15:31:39Z</time></trkpt><trkpt lat="44.649480740354115" lon="8.086355232918347"><ele>374.3333333333333</ele><time>2026-05-02T15:31:40Z</time></trkpt><trkpt lat="44.64942763613444" lon="8.086079042288477"><ele>378.0</ele><time>2026-05-02T15:31:41Z</time></trkpt><trkpt lat="44.649372284326574" lon="8.085769986445248"><ele>361.0</ele><time>2026-05-02T15:31:42Z</time></trkpt><trkpt lat="44.649310092203635" lon="8.085431807536507"><ele>344.0</ele><time>2026-05-02T15:31:43Z</time></trkpt><trkpt lat="44.64923783243169" lon="8.085086387867332"><ele>343.6666666666667</ele><time>2026-05-02T15:31:44Z</time></trkpt><trkpt lat="44.64917826151532" lon="8.084772639194027"><ele>343.3333333333333</ele><time>2026-05-02T15:31:45Z</time></trkpt><trkpt lat="44.64914107616187" lon="8.084474665497005"><ele>343.0</ele><time>2026-05-02T15:31:46Z</time></trkpt><trkpt lat="44.64909213795187" lon="8.0841981729119"><ele>339.66666666666663</ele><time>2026-05-02T15:31:47Z</time></trkpt><trkpt lat="44.649104836233846" lon="8.083895962664378"><ele>336.3333333333333</ele><time>2026-05-02T15:31:48Z</time></trkpt><trkpt lat="44.649121099830325" lon="8.08358571102469"><ele>333.0</ele><time>2026-05-02T15:31:49Z</time></trkpt><trkpt lat="44.64916807248978" lon="8.083245851147522"><ele>330.0</ele><time>2026-05-02T15:31:50Z</time></trkpt><trkpt lat="44.64924989212722" lon="8.08289827422703"><ele>327.0</ele><time>2026-05-02T15:31:51Z</time></trkpt><trkpt lat="44.64932057136519" lon="8.082525875893953"><ele>325.0</ele><time>2026-05-02T15:31:52Z</time></trkpt><trkpt lat="44.649411723369916" lon="8.082150550669505"><ele>323.0</ele><time>2026-05-02T15:31:53Z</time></trkpt><trkpt lat="44.649498998985486" lon="8.081771229513361"><ele>326.0</ele><time>2026-05-02T15:31:54Z</time></trkpt><trkpt lat="44.64959643535105" lon="8.081425006404157"><ele>329.0</ele><time>2026-05-02T15:31:55Z</time></trkpt><trkpt lat="44.64967390259001" lon="8.0810953118531"><ele>321.5</ele><time>2026-05-02T15:31:56Z</time></trkpt><trkpt lat="44.649736343477386" lon="8.080755353464204"><ele>314.0</ele><time>2026-05-02T15:31:57Z</time></trkpt><trkpt lat="44.64981385142784" lon="8.080437766824199"><ele>314.0</ele><time>2026-05-02T15:31:58Z</time></trkpt><trkpt lat="44.64989519211709" lon="8.080147765802248"><ele>314.0</ele><time>2026-05-02T15:31:59Z</time></trkpt><trkpt lat="44.64999633661029" lon="8.079873427893876"><ele>314.0</ele><time>2026-05-02T15:32:00Z</time></trkpt><trkpt lat="44.65014153347431" lon="8.079618069338055"><ele>312.0</ele><time>2026-05-02T15:32:01Z</time></trkpt><trkpt lat="44.65029838427667" lon="8.079350700831247"><ele>310.0</ele><time>2026-05-02T15:32:02Z</time></trkpt><trkpt lat="44.65046834759894" lon="8.079072489019396"><ele>310.0</ele><time>2026-05-02T15:32:03Z</time></trkpt><trkpt lat="44.6506290730447" lon="8.078776680614205"><ele>310.0</ele><time>2026-05-02T15:32:04Z</time></trkpt><trkpt lat="44.650798399513626" lon="8.078501693343"><ele>309.5</ele><time>2026-05-02T15:32:05Z</time></trkpt><trkpt lat="44.65096497418898" lon="8.078233175188942"><ele>309.0</ele><time>2026-05-02T15:32:06Z</time></trkpt><trkpt lat="44.6511228641596" lon="8.077950195695204"><ele>309.0</ele><time>2026-05-02T15:32:07Z</time></trkpt><trkpt lat="44.651268149819074" lon="8.077640847239772"><ele>309.0</ele><time>2026-05-02T15:32:08Z</time></trkpt><trkpt lat="44.651395236775436" lon="8.077306951954938"><ele>309.0</ele><time>2026-05-02T15:32:09Z</time></trkpt><trkpt lat="44.651517567700964" lon="8.076952503218232"><ele>309.0</ele><time>2026-05-02T15:32:10Z</time></trkpt><trkpt lat="44.65165393087278" lon="8.076608218355355"><ele>306.0</ele><time>2026-05-02T15:32:11Z</time></trkpt><trkpt lat="44.65176390340261" lon="8.076256200010844"><ele>303.0</ele><time>2026-05-02T15:32:12Z</time></trkpt><trkpt lat="44.65188070644417" lon="8.075935172328286"><ele>308.0</ele><time>2026-05-02T15:32:13Z</time></trkpt><trkpt lat="44.65199174807845" lon="8.075632522887933"><ele>313.0</ele><time>2026-05-02T15:32:14Z</time></trkpt><trkpt lat="44.652103423462705" lon="8.075340905686472"><ele>313.0</ele><time>2026-05-02T15:32:15Z</time></trkpt><trkpt lat="44.65220713531781" lon="8.075061120263136"><ele>313.0</ele><time>2026-05-02T15:32:16Z</time></trkpt><trkpt lat="44.652308397329726" lon="8.074787629510926"><ele>313.0</ele><time>2026-05-02T15:32:17Z</time></trkpt><trkpt lat="44.652401874964234" lon="8.074521819752238"><ele>309.3333333333333</ele><time>2026-05-02T15:32:18Z</time></trkpt><trkpt lat="44.652488145700545" lon="8.074263545241404"><ele>305.6666666666667</ele><time>2026-05-02T15:32:19Z</time></trkpt><trkpt lat="44.652568728049324" lon="8.074008537051089"><ele>302.0</ele><time>2026-05-02T15:32:20Z</time></trkpt><trkpt lat="44.652636581825845" lon="8.073752700461599"><ele>299.6666666666667</ele><time>2026-05-02T15:32:21Z</time></trkpt><trkpt lat="44.6526860469794" lon="8.073494482354123"><ele>297.3333333333333</ele><time>2026-05-02T15:32:22Z</time></trkpt><trkpt lat="44.6527269254754" lon="8.073243196563178"><ele>295.0</ele><time>2026-05-02T15:32:23Z</time></trkpt><trkpt lat="44.652758809612415" lon="8.07300195205041"><ele>296.0</ele><time>2026-05-02T15:32:24Z</time></trkpt><trkpt lat="44.652780189964105" lon="8.072765145043586"><ele>297.0</ele><time>2026-05-02T15:32:25Z</time></trkpt><trkpt lat="44.652795076950675" lon="8.072524902917003"><ele>298.0</ele><time>2026-05-02T15:32:26Z</time></trkpt><trkpt lat="44.65279825534862" lon="8.072278315624423"><ele>299.3333333333333</ele><time>2026-05-02T15:32:27Z</time></trkpt><trkpt lat="44.652800599146175" lon="8.072034838637196"><ele>300.6666666666667</ele><time>2026-05-02T15:32:28Z</time></trkpt><trkpt lat="44.65279995668435" lon="8.071800682944202"><ele>302.0</ele><time>2026-05-02T15:32:29Z</time></trkpt><trkpt lat="44.65279637472843" lon="8.071567902070436"><ele>302.0</ele><time>2026-05-02T15:32:30Z</time></trkpt><trkpt lat="44.65279055918144" lon="8.071327124053779"><ele>302.0</ele><time>2026-05-02T15:32:31Z</time></trkpt><trkpt lat="44.65278598353549" lon="8.071088432375436"><ele>302.0</ele><time>2026-05-02T15:32:32Z</time></trkpt><trkpt lat="44.65278301488774" lon="8.07085361619445"><ele>296.0</ele><time>2026-05-02T15:32:33Z</time></trkpt><trkpt lat="44.65278079201981" lon="8.070624502007023"><ele>290.0</ele><time>2026-05-02T15:32:34Z</time></trkpt><trkpt lat="44.65277733070647" lon="8.070405127674995"><ele>284.0</ele><time>2026-05-02T15:32:35Z</time></trkpt><trkpt lat="44.65277325620486" lon="8.070183573045677"><ele>284.0</ele><time>2026-05-02T15:32:36Z</time></trkpt><trkpt lat="44.652766183421704" lon="8.069959641504646"><ele>284.0</ele><time>2026-05-02T15:32:37Z</time></trkpt><trkpt lat="44.65275716535892" lon="8.069735988541579"><ele>284.0</ele><time>2026-05-02T15:32:38Z</time></trkpt><trkpt lat="44.652771687156346" lon="8.069563899032016"><ele>284.0</ele><time>2026-05-02T15:32:39Z</time></trkpt><trkpt lat="44.65277009285561" lon="8.069377047176792"><ele>283.5</ele><time>2026-05-02T15:32:40Z</time></trkpt><trkpt lat="44.6527735670501" lon="8.069193588249398"><ele>283.0</ele><time>2026-05-02T15:32:41Z</time></trkpt><trkpt lat="44.65276792158883" lon="8.069008853990312"><ele>282.5</ele><time>2026-05-02T15:32:42Z</time></trkpt><trkpt lat="44.65276082477067" lon="8.068810140430317"><ele>282.0</ele><time>2026-05-02T15:32:43Z</time></trkpt><trkpt lat="44.6527579966738" lon="8.068610691680773"><ele>281.25</ele><time>2026-05-02T15:32:44Z</time></trkpt><trkpt lat="44.652750260748924" lon="8.068414547659938"><ele>280.5</ele><time>2026-05-02T15:32:45Z</time></trkpt><trkpt lat="44.65275126765433" lon="8.06821102542406"><ele>279.75</ele><time>2026-05-02T15:32:46Z</time></trkpt><trkpt lat="44.65275464436195" lon="8.068001899378931"><ele>279.0</ele><time>2026-05-02T15:32:47Z</time></trkpt><trkpt lat="44.652745586210266" lon="8.06778260414254"><ele>279.0</ele><time>2026-05-02T15:32:48Z</time></trkpt><trkpt lat="44.65274507049671" lon="8.067558882895703"><ele>279.0</ele><time>2026-05-02T15:32:49Z</time></trkpt><trkpt lat="44.652743180829226" lon="8.067328208167968"><ele>279.0</ele><time>2026-05-02T15:32:50Z</time></trkpt><trkpt lat="44.652734611454335" lon="8.06708876189137"><ele>279.0</ele><time>2026-05-02T15:32:51Z</time></trkpt><trkpt lat="44.65273188755945" lon="8.06684700200471"><ele>279.0</ele><time>2026-05-02T15:32:52Z</time></trkpt><trkpt lat="44.6527275563372" lon="8.066604806520738"><ele>279.0</ele><time>2026-05-02T15:32:53Z</time></trkpt><trkpt lat="44.652716412636785" lon="8.066355132351621"><ele>278.6666666666667</ele><time>2026-05-02T15:32:54Z</time></trkpt><trkpt lat="44.65269975972445" lon="8.066103935919733"><ele>278.33333333333337</ele><time>2026-05-02T15:32:55Z</time></trkpt><trkpt lat="44.652668635914864" lon="8.06585288589642"><ele>278.0</ele><time>2026-05-02T15:32:56Z</time></trkpt><trkpt lat="44.652625313067794" lon="8.065614286874027"><ele>279.33333333333337</ele><time>2026-05-02T15:32:57Z</time></trkpt><trkpt lat="44.652572049805556" lon="8.065371274534753"><ele>280.6666666666667</ele><time>2026-05-02T15:32:58Z</time></trkpt><trkpt lat="44.65250860836451" lon="8.065124253060324"><ele>282.0</ele><time>2026-05-02T15:32:59Z</time></trkpt><trkpt lat="44.6524298715463" lon="8.064886496538003"><ele>284.3333333333333</ele><time>2026-05-02T15:33:00Z</time></trkpt><trkpt lat="44.65234073950064" lon="8.064650714884074"><ele>286.66666666666663</ele><time>2026-05-02T15:33:01Z</time></trkpt><trkpt lat="44.65223545298417" lon="8.06441811578491"><ele>289.0</ele><time>2026-05-02T15:33:02Z</time></trkpt><trkpt lat="44.65212930583528" lon="8.06419214625952"><ele>291.3333333333333</ele><time>2026-05-02T15:33:03Z</time></trkpt><trkpt lat="44.65201964490398" lon="8.063966900042562"><ele>293.6666666666667</ele><time>2026-05-02T15:33:04Z</time></trkpt><trkpt lat="44.65190778418717" lon="8.063741132415077"><ele>296.0</ele><time>2026-05-02T15:33:05Z</time></trkpt><trkpt lat="44.651802266185214" lon="8.06352265946215"><ele>288.6666666666667</ele><time>2026-05-02T15:33:06Z</time></trkpt><trkpt lat="44.651703253485884" lon="8.063313586387535"><ele>281.3333333333333</ele><time>2026-05-02T15:33:07Z</time></trkpt><trkpt lat="44.65160923140205" lon="8.063120738126127"><ele>274.0</ele><time>2026-05-02T15:33:08Z</time></trkpt><trkpt lat="44.6515231930926" lon="8.06294430644334"><ele>274.0</ele><time>2026-05-02T15:33:09Z</time></trkpt><trkpt lat="44.651439847402365" lon="8.062781411739088"><ele>274.0</ele><time>2026-05-02T15:33:10Z</time></trkpt><trkpt lat="44.651350916453595" lon="8.062612257847231"><ele>274.0</ele><time>2026-05-02T15:33:11Z</time></trkpt><trkpt lat="44.651240217263926" lon="8.062394371826691"><ele>276.66666666666663</ele><time>2026-05-02T15:33:12Z</time></trkpt><trkpt lat="44.651134714542685" lon="8.062157510785047"><ele>279.3333333333333</ele><time>2026-05-02T15:33:13Z</time></trkpt><trkpt lat="44.65104668141291" lon="8.061923936240772"><ele>282.0</ele><time>2026-05-02T15:33:14Z</time></trkpt><trkpt lat="44.65094771773213" lon="8.06172112173283"><ele>277.3333333333333</ele><time>2026-05-02T15:33:15Z</time></trkpt><trkpt lat="44.650849087342856" lon="8.061526328267021"><ele>272.66666666666663</ele><time>2026-05-02T15:33:16Z</time></trkpt><trkpt lat="44.65075341036632" lon="8.061323043453477"><ele>268.0</ele><time>2026-05-02T15:33:17Z</time></trkpt><trkpt lat="44.65065388323653" lon="8.061110199552028"><ele>268.0</ele><time>2026-05-02T15:33:18Z</time></trkpt><trkpt lat="44.65055182970561" lon="8.060892951010917"><ele>268.0</ele><time>2026-05-02T15:33:19Z</time></trkpt><trkpt lat="44.65044761624931" lon="8.060669670100266"><ele>268.0</ele><time>2026-05-02T15:33:20Z</time></trkpt><trkpt lat="44.65034754467009" lon="8.060444372194954"><ele>268.3333333333333</ele><time>2026-05-02T15:33:21Z</time></trkpt><trkpt lat="44.65023542786048" lon="8.060226684340618"><ele>268.6666666666667</ele><time>2026-05-02T15:33:22Z</time></trkpt><trkpt lat="44.65012970099976" lon="8.060001437435615"><ele>269.0</ele><time>2026-05-02T15:33:23Z</time></trkpt><trkpt lat="44.65003047706068" lon="8.059778892157581"><ele>269.0</ele><time>2026-05-02T15:33:24Z</time></trkpt><trkpt lat="44.6499395644397" lon="8.05956448122771"><ele>269.0</ele><time>2026-05-02T15:33:25Z</time></trkpt><trkpt lat="44.64986173425546" lon="8.059354357805958"><ele>269.0</ele><time>2026-05-02T15:33:26Z</time></trkpt><trkpt lat="44.64979961558671" lon="8.059130594345884"><ele>270.33333333333337</ele><time>2026-05-02T15:33:27Z</time></trkpt><trkpt lat="44.649755819259724" lon="8.05888610822502"><ele>271.6666666666667</ele><time>2026-05-02T15:33:28Z</time></trkpt><trkpt lat="44.649738526748074" lon="8.058632409639106"><ele>273.0</ele><time>2026-05-02T15:33:29Z</time></trkpt><trkpt lat="44.649728833235244" lon="8.058389249721992"><ele>270.6666666666667</ele><time>2026-05-02T15:33:30Z</time></trkpt><trkpt lat="44.64974179816727" lon="8.058163943310223"><ele>268.33333333333337</ele><time>2026-05-02T15:33:31Z</time></trkpt><trkpt lat="44.64975765853532" lon="8.057939361274341"><ele>266.0</ele><time>2026-05-02T15:33:32Z</time></trkpt><trkpt lat="44.649771342542806" lon="8.057710242101768"><ele>266.0</ele><time>2026-05-02T15:33:33Z</time></trkpt><trkpt lat="44.64978090405305" lon="8.057477098636559"><ele>266.0</ele><time>2026-05-02T15:33:34Z</time></trkpt><trkpt lat="44.649794750030644" lon="8.057244965044449"><ele>266.0</ele><time>2026-05-02T15:33:35Z</time></trkpt><trkpt lat="44.649802079402" lon="8.057018236830162"><ele>263.0</ele><time>2026-05-02T15:33:36Z</time></trkpt><trkpt lat="44.649813007995576" lon="8.05679363404565"><ele>260.0</ele><time>2026-05-02T15:33:37Z</time></trkpt><trkpt lat="44.64982206552828" lon="8.056571265603546"><ele>257.0</ele><time>2026-05-02T15:33:38Z</time></trkpt><trkpt lat="44.649829370987014" lon="8.056361224831855"><ele>255.25</ele><time>2026-05-02T15:33:39Z</time></trkpt><trkpt lat="44.64984013530644" lon="8.05615348479977"><ele>253.5</ele><time>2026-05-02T15:33:40Z</time></trkpt><trkpt lat="44.64985548860395" lon="8.05594508778797"><ele>251.75</ele><time>2026-05-02T15:33:41Z</time></trkpt><trkpt lat="44.64987275064953" lon="8.055744907692272"><ele>250.0</ele><time>2026-05-02T15:33:42Z</time></trkpt><trkpt lat="44.64990239682873" lon="8.05553414576554"><ele>249.33333333333331</ele><time>2026-05-02T15:33:43Z</time></trkpt><trkpt lat="44.64994654420863" lon="8.05532405150197"><ele>248.66666666666669</ele><time>2026-05-02T15:33:44Z</time></trkpt><trkpt lat="44.65000504788221" lon="8.055114148831223"><ele>248.0</ele><time>2026-05-02T15:33:45Z</time></trkpt><trkpt lat="44.650073017409795" lon="8.054919811619227"><ele>247.66666666666669</ele><time>2026-05-02T15:33:46Z</time></trkpt><trkpt lat="44.65015735725856" lon="8.054734519982224"><ele>247.33333333333331</ele><time>2026-05-02T15:33:47Z</time></trkpt><trkpt lat="44.65025008247569" lon="8.05456642985237"><ele>247.0</ele><time>2026-05-02T15:33:48Z</time></trkpt><trkpt lat="44.650348817637386" lon="8.054409093817254"><ele>247.0</ele><time>2026-05-02T15:33:49Z</time></trkpt><trkpt lat="44.65045054872265" lon="8.05425866626383"><ele>247.0</ele><time>2026-05-02T15:33:50Z</time></trkpt><trkpt lat="44.65055349618942" lon="8.05411397450907"><ele>247.0</ele><time>2026-05-02T15:33:51Z</time></trkpt><trkpt lat="44.65065231523755" lon="8.053967514761743"><ele>247.0</ele><time>2026-05-02T15:33:52Z</time></trkpt><trkpt lat="44.65074859949075" lon="8.053826927130368"><ele>246.5</ele><time>2026-05-02T15:33:53Z</time></trkpt><trkpt lat="44.6508438562406" lon="8.053683154078215"><ele>246.0</ele><time>2026-05-02T15:33:54Z</time></trkpt><trkpt lat="44.65093651577351" lon="8.053539372397662"><ele>245.5</ele><time>2026-05-02T15:33:55Z</time></trkpt><trkpt lat="44.65103499392647" lon="8.053386167141653"><ele>245.0</ele><time>2026-05-02T15:33:56Z</time></trkpt><trkpt lat="44.651134884836594" lon="8.053239536992505"><ele>244.25</ele><time>2026-05-02T15:33:57Z</time></trkpt><trkpt lat="44.651231458342764" lon="8.053098213351563"><ele>243.5</ele><time>2026-05-02T15:33:58Z</time></trkpt><trkpt lat="44.651323126327554" lon="8.052959129964414"><ele>242.75</ele><time>2026-05-02T15:33:59Z</time></trkpt><trkpt lat="44.65141141784986" lon="8.052817017912728"><ele>242.0</ele><time>2026-05-02T15:34:00Z</time></trkpt><trkpt lat="44.65150695241676" lon="8.05268119261291"><ele>242.0</ele><time>2026-05-02T15:34:01Z</time></trkpt><trkpt lat="44.651601896594855" lon="8.05253996322264"><ele>242.0</ele><time>2026-05-02T15:34:02Z</time></trkpt><trkpt lat="44.65169795011088" lon="8.052394418042681"><ele>242.0</ele><time>2026-05-02T15:34:03Z</time></trkpt><trkpt lat="44.65179285205606" lon="8.052250407152437"><ele>242.0</ele><time>2026-05-02T15:34:04Z</time></trkpt><trkpt lat="44.6518898714688" lon="8.052105308775777"><ele>242.0</ele><time>2026-05-02T15:34:05Z</time></trkpt><trkpt lat="44.65198844117813" lon="8.05195630270286"><ele>242.0</ele><time>2026-05-02T15:34:06Z</time></trkpt><trkpt lat="44.65208232888909" lon="8.051808022501055"><ele>242.0</ele><time>2026-05-02T15:34:07Z</time></trkpt><trkpt lat="44.65218195685181" lon="8.051658799911298"><ele>242.0</ele><time>2026-05-02T15:34:08Z</time></trkpt><trkpt lat="44.6522805156689" lon="8.05151523182002"><ele>240.75</ele><time>2026-05-02T15:34:09Z</time></trkpt><trkpt lat="44.65236801841913" lon="8.051378414091612"><ele>239.5</ele><time>2026-05-02T15:34:10Z</time></trkpt><trkpt lat="44.6524536577062" lon="8.051249100830988"><ele>238.25</ele><time>2026-05-02T15:34:11Z</time></trkpt><trkpt lat="44.65253586647049" lon="8.051127214885168"><ele>237.0</ele><time>2026-05-02T15:34:12Z</time></trkpt><trkpt lat="44.652610761683185" lon="8.051007533268065"><ele>237.0</ele><time>2026-05-02T15:34:13Z</time></trkpt><trkpt lat="44.652684972311185" lon="8.050896094539562"><ele>237.0</ele><time>2026-05-02T15:34:14Z</time></trkpt><trkpt lat="44.65275519328141" lon="8.050792944762863"><ele>237.0</ele><time>2026-05-02T15:34:15Z</time></trkpt><trkpt lat="44.65282251884084" lon="8.050685441741726"><ele>237.0</ele><time>2026-05-02T15:34:16Z</time></trkpt><trkpt lat="44.65289064127259" lon="8.050597881679218"><ele>237.0</ele><time>2026-05-02T15:34:17Z</time></trkpt><trkpt lat="44.65296732081918" lon="8.050524122178986"><ele>236.8</ele><time>2026-05-02T15:34:18Z</time></trkpt><trkpt lat="44.65304632368398" lon="8.050446815752121"><ele>236.6</ele><time>2026-05-02T15:34:19Z</time></trkpt><trkpt lat="44.65311627626497" lon="8.050346732448723"><ele>236.40000000000003</ele><time>2026-05-02T15:34:20Z</time></trkpt><trkpt lat="44.65317036431851" lon="8.050210771675573"><ele>236.20000000000002</ele><time>2026-05-02T15:34:21Z</time></trkpt><trkpt lat="44.653255599040186" lon="8.05007387400184"><ele>236.0</ele><time>2026-05-02T15:34:22Z</time></trkpt><trkpt lat="44.65333450417618" lon="8.04992917325411"><ele>235.5</ele><time>2026-05-02T15:34:23Z</time></trkpt><trkpt lat="44.65343161181959" lon="8.049791779149169"><ele>235.0</ele><time>2026-05-02T15:34:24Z</time></trkpt><trkpt lat="44.65352677792055" lon="8.04965537824884"><ele>234.5</ele><time>2026-05-02T15:34:25Z</time></trkpt><trkpt lat="44.65362260805462" lon="8.049514004893268"><ele>234.0</ele><time>2026-05-02T15:34:26Z</time></trkpt><trkpt lat="44.65372034931612" lon="8.049371256797745"><ele>234.0</ele><time>2026-05-02T15:34:27Z</time></trkpt><trkpt lat="44.65381985035937" lon="8.049226010260606"><ele>234.0</ele><time>2026-05-02T15:34:28Z</time></trkpt><trkpt lat="44.65392137112016" lon="8.049084020535071"><ele>234.0</ele><time>2026-05-02T15:34:29Z</time></trkpt><trkpt lat="44.65402615572232" lon="8.048947239110385"><ele>234.0</ele><time>2026-05-02T15:34:30Z</time></trkpt><trkpt lat="44.654133140373254" lon="8.04881886860607"><ele>233.25</ele><time>2026-05-02T15:34:31Z</time></trkpt><trkpt lat="44.654239987502606" lon="8.048700663928296"><ele>232.5</ele><time>2026-05-02T15:34:32Z</time></trkpt><trkpt lat="44.65435426519724" lon="8.048594868776526"><ele>231.75</ele><time>2026-05-02T15:34:33Z</time></trkpt><trkpt lat="44.654485165071385" lon="8.048521193473903"><ele>231.0</ele><time>2026-05-02T15:34:34Z</time></trkpt><trkpt lat="44.65461475089884" lon="8.048438794648378"><ele>230.75</ele><time>2026-05-02T15:34:35Z</time></trkpt><trkpt lat="44.65474469743694" lon="8.048364775816204"><ele>230.5</ele><time>2026-05-02T15:34:36Z</time></trkpt><trkpt lat="44.654872143619876" lon="8.04830373576038"><ele>230.25</ele><time>2026-05-02T15:34:37Z</time></trkpt><trkpt lat="44.65499624714805" lon="8.048249028785127"><ele>230.0</ele><time>2026-05-02T15:34:38Z</time></trkpt><trkpt lat="44.65511218264173" lon="8.048168832735682"><ele>229.25</ele><time>2026-05-02T15:34:39Z</time></trkpt><trkpt lat="44.65523633391691" lon="8.048110619643051"><ele>228.5</ele><time>2026-05-02T15:34:40Z</time></trkpt><trkpt lat="44.65536193691938" lon="8.04805549653495"><ele>227.75</ele><time>2026-05-02T15:34:41Z</time></trkpt><trkpt lat="44.65548663793943" lon="8.048000055165113"><ele>227.0</ele><time>2026-05-02T15:34:42Z</time></trkpt><trkpt lat="44.6556203948272" lon="8.047971987331335"><ele>227.0</ele><time>2026-05-02T15:34:43Z</time></trkpt><trkpt lat="44.65574717826628" lon="8.047915355695118"><ele>227.0</ele><time>2026-05-02T15:34:44Z</time></trkpt><trkpt lat="44.65587054178157" lon="8.047832213244524"><ele>227.0</ele><time>2026-05-02T15:34:45Z</time></trkpt><trkpt lat="44.65600117475541" lon="8.047769733002033"><ele>227.0</ele><time>2026-05-02T15:34:46Z</time></trkpt><trkpt lat="44.65614393179973" lon="8.047702028585437"><ele>227.25</ele><time>2026-05-02T15:34:47Z</time></trkpt><trkpt lat="44.65628712507052" lon="8.047634542245646"><ele>227.5</ele><time>2026-05-02T15:34:48Z</time></trkpt><trkpt lat="44.65643067481848" lon="8.047610637160783"><ele>227.75</ele><time>2026-05-02T15:34:49Z</time></trkpt><trkpt lat="44.65654773289154" lon="8.047513525424206"><ele>228.0</ele><time>2026-05-02T15:34:50Z</time></trkpt><trkpt lat="44.65667094820092" lon="8.047459296758225"><ele>227.25</ele><time>2026-05-02T15:34:51Z</time></trkpt><trkpt lat="44.65679773514488" lon="8.047401337652305"><ele>226.5</ele><time>2026-05-02T15:34:52Z</time></trkpt><trkpt lat="44.65692484870609" lon="8.047343225863068"><ele>225.75</ele><time>2026-05-02T15:34:53Z</time></trkpt><trkpt lat="44.65703917174823" lon="8.047295397587796"><ele>225.0</ele><time>2026-05-02T15:34:54Z</time></trkpt><trkpt lat="44.65715152058521" lon="8.047248920357754"><ele>225.0</ele><time>2026-05-02T15:34:55Z</time></trkpt><trkpt lat="44.657256105663734" lon="8.047203062821412"><ele>225.0</ele><time>2026-05-02T15:34:56Z</time></trkpt><trkpt lat="44.657364414354674" lon="8.047155297622009"><ele>225.0</ele><time>2026-05-02T15:34:57Z</time></trkpt><trkpt lat="44.65747813005748" lon="8.047101396840839"><ele>225.0</ele><time>2026-05-02T15:34:58Z</time></trkpt><trkpt lat="44.65760974368682" lon="8.047083414933956"><ele>225.0</ele><time>2026-05-02T15:34:59Z</time></trkpt><trkpt lat="44.657738749755" lon="8.046983079297616"><ele>225.0</ele><time>2026-05-02T15:35:00Z</time></trkpt><trkpt lat="44.6578856996285" lon="8.046910457590197"><ele>225.0</ele><time>2026-05-02T15:35:01Z</time></trkpt><trkpt lat="44.658044865132005" lon="8.046841750230485"><ele>225.33333333333331</ele><time>2026-05-02T15:35:02Z</time></trkpt><trkpt lat="44.65821370324261" lon="8.046767376009274"><ele>225.66666666666666</ele><time>2026-05-02T15:35:03Z</time></trkpt><trkpt lat="44.658395027985165" lon="8.046731348656884"><ele>226.0</ele><time>2026-05-02T15:35:04Z</time></trkpt><trkpt lat="44.65857713346524" lon="8.046649298327166"><ele>224.33333333333331</ele><time>2026-05-02T15:35:05Z</time></trkpt><trkpt lat="44.65876124300185" lon="8.046566433741305"><ele>222.66666666666669</ele><time>2026-05-02T15:35:06Z</time></trkpt><trkpt lat="44.65894781107802" lon="8.046482462607283"><ele>221.0</ele><time>2026-05-02T15:35:07Z</time></trkpt><trkpt lat="44.659132237473784" lon="8.046399455402794"><ele>221.0</ele><time>2026-05-02T15:35:08Z</time></trkpt><trkpt lat="44.659308281532894" lon="8.046320220954584"><ele>221.0</ele><time>2026-05-02T15:35:09Z</time></trkpt><trkpt lat="44.659485124561506" lon="8.046240626899744"><ele>221.0</ele><time>2026-05-02T15:35:10Z</time></trkpt><trkpt lat="44.65965306254117" lon="8.046143320563596"><ele>221.0</ele><time>2026-05-02T15:35:11Z</time></trkpt><trkpt lat="44.65982822038111" lon="8.046064752089492"><ele>221.0</ele><time>2026-05-02T15:35:12Z</time></trkpt><trkpt lat="44.659999112227794" lon="8.045991777426796"><ele>221.0</ele><time>2026-05-02T15:35:13Z</time></trkpt><trkpt lat="44.660169794390924" lon="8.04591180928769"><ele>220.66666666666669</ele><time>2026-05-02T15:35:14Z</time></trkpt><trkpt lat="44.66034017321329" lon="8.045837585521593"><ele>220.33333333333331</ele><time>2026-05-02T15:35:15Z</time></trkpt><trkpt lat="44.660513321407834" lon="8.04575651510096"><ele>220.0</ele><time>2026-05-02T15:35:16Z</time></trkpt><trkpt lat="44.660691505897056" lon="8.045677383443715"><ele>219.0</ele><time>2026-05-02T15:35:17Z</time></trkpt><trkpt lat="44.66087099845295" lon="8.045595765517627"><ele>218.0</ele><time>2026-05-02T15:35:18Z</time></trkpt><trkpt lat="44.661056518319974" lon="8.045533932900698"><ele>217.0</ele><time>2026-05-02T15:35:19Z</time></trkpt><trkpt lat="44.6612294399882" lon="8.045437617159251"><ele>217.0</ele><time>2026-05-02T15:35:20Z</time></trkpt><trkpt lat="44.66139993130299" lon="8.045358680702167"><ele>217.0</ele><time>2026-05-02T15:35:21Z</time></trkpt><trkpt lat="44.66158356020464" lon="8.04529823747282"><ele>217.0</ele><time>2026-05-02T15:35:22Z</time></trkpt><trkpt lat="44.66176146236392" lon="8.045218730804418"><ele>217.0</ele><time>2026-05-02T15:35:23Z</time></trkpt><trkpt lat="44.661947487867856" lon="8.045134226722475"><ele>217.0</ele><time>2026-05-02T15:35:24Z</time></trkpt><trkpt lat="44.662129099492844" lon="8.045051499744066"><ele>217.0</ele><time>2026-05-02T15:35:25Z</time></trkpt><trkpt lat="44.662309810085205" lon="8.044970122483024"><ele>216.0</ele><time>2026-05-02T15:35:26Z</time></trkpt><trkpt lat="44.66249002683966" lon="8.044875121853735"><ele>215.0</ele><time>2026-05-02T15:35:27Z</time></trkpt><trkpt lat="44.66267813268729" lon="8.04479289095753"><ele>214.0</ele><time>2026-05-02T15:35:28Z</time></trkpt><trkpt lat="44.66286251583131" lon="8.044708381376008"><ele>213.0</ele><time>2026-05-02T15:35:29Z</time></trkpt><trkpt lat="44.66305016025065" lon="8.044620890423463"><ele>212.0</ele><time>2026-05-02T15:35:30Z</time></trkpt><trkpt lat="44.66324363566223" lon="8.044533671826388"><ele>211.0</ele><time>2026-05-02T15:35:31Z</time></trkpt><trkpt lat="44.663434179531" lon="8.044441836318898"><ele>210.33333333333331</ele><time>2026-05-02T15:35:32Z</time></trkpt><trkpt lat="44.66363019963071" lon="8.044377913361137"><ele>209.66666666666669</ele><time>2026-05-02T15:35:33Z</time></trkpt><trkpt lat="44.66381874516102" lon="8.044277151386215"><ele>209.0</ele><time>2026-05-02T15:35:34Z</time></trkpt><trkpt lat="44.664007011426214" lon="8.044198050854545"><ele>208.66666666666669</ele><time>2026-05-02T15:35:35Z</time></trkpt><trkpt lat="44.664191262493524" lon="8.044115966140952"><ele>208.33333333333331</ele><time>2026-05-02T15:35:36Z</time></trkpt><trkpt lat="44.66437684109149" lon="8.04403025960346"><ele>208.0</ele><time>2026-05-02T15:35:37Z</time></trkpt><trkpt lat="44.664563936082956" lon="8.043944466957168"><ele>208.0</ele><time>2026-05-02T15:35:38Z</time></trkpt><trkpt lat="44.664752360303176" lon="8.043860683820004"><ele>208.0</ele><time>2026-05-02T15:35:39Z</time></trkpt><trkpt lat="44.66494257130464" lon="8.043769570523121"><ele>208.0</ele><time>2026-05-02T15:35:40Z</time></trkpt><trkpt lat="44.6651324759602" lon="8.043680324149948"><ele>208.0</ele><time>2026-05-02T15:35:41Z</time></trkpt><trkpt lat="44.665327280592116" lon="8.043600493670171"><ele>208.0</ele><time>2026-05-02T15:35:42Z</time></trkpt><trkpt lat="44.665524007576046" lon="8.043516088881036"><ele>208.0</ele><time>2026-05-02T15:35:43Z</time></trkpt><trkpt lat="44.665720370924596" lon="8.043426257996677"><ele>208.0</ele><time>2026-05-02T15:35:44Z</time></trkpt><trkpt lat="44.66591297369104" lon="8.043345805076855"><ele>208.0</ele><time>2026-05-02T15:35:45Z</time></trkpt><trkpt lat="44.6660992160851" lon="8.043257469468266"><ele>208.0</ele><time>2026-05-02T15:35:46Z</time></trkpt><trkpt lat="44.66629275210926" lon="8.043169455976042"><ele>206.33333333333331</ele><time>2026-05-02T15:35:47Z</time></trkpt><trkpt lat="44.6664852288706" lon="8.043083477881162"><ele>204.66666666666669</ele><time>2026-05-02T15:35:48Z</time></trkpt><trkpt lat="44.6666742474248" lon="8.042996370424579"><ele>203.0</ele><time>2026-05-02T15:35:49Z</time></trkpt><trkpt lat="44.66686633111102" lon="8.042908315947855"><ele>202.66666666666669</ele><time>2026-05-02T15:35:50Z</time></trkpt><trkpt lat="44.667058572680126" lon="8.042821225171966"><ele>202.33333333333331</ele><time>2026-05-02T15:35:51Z</time></trkpt><trkpt lat="44.667251554173795" lon="8.042733518224974"><ele>202.0</ele><time>2026-05-02T15:35:52Z</time></trkpt><trkpt lat="44.66744418190329" lon="8.042648310287529"><ele>202.0</ele><time>2026-05-02T15:35:53Z</time></trkpt><trkpt lat="44.66763434478211" lon="8.04256295174004"><ele>202.0</ele><time>2026-05-02T15:35:54Z</time></trkpt><trkpt lat="44.66782634077412" lon="8.042476326954965"><ele>202.0</ele><time>2026-05-02T15:35:55Z</time></trkpt><trkpt lat="44.66801578341388" lon="8.04239691340284"><ele>201.33333333333331</ele><time>2026-05-02T15:35:56Z</time></trkpt><trkpt lat="44.668208182140724" lon="8.04231253911067"><ele>200.66666666666669</ele><time>2026-05-02T15:35:57Z</time></trkpt><trkpt lat="44.66839975647051" lon="8.042226007262071"><ele>200.0</ele><time>2026-05-02T15:35:58Z</time></trkpt><trkpt lat="44.66858839308787" lon="8.042132482913171"><ele>199.33333333333334</ele><time>2026-05-02T15:35:59Z</time></trkpt><trkpt lat="44.66877966395784" lon="8.042043503617167"><ele>198.66666666666669</ele><time>2026-05-02T15:36:00Z</time></trkpt><trkpt lat="44.66897068982647" lon="8.041965951581709"><ele>198.0</ele><time>2026-05-02T15:36:01Z</time></trkpt><trkpt lat="44.66916389011054" lon="8.041882208874776"><ele>198.0</ele><time>2026-05-02T15:36:02Z</time></trkpt><trkpt lat="44.66935494802893" lon="8.041793293750281"><ele>198.0</ele><time>2026-05-02T15:36:03Z</time></trkpt><trkpt lat="44.669545686940886" lon="8.041707430670725"><ele>198.0</ele><time>2026-05-02T15:36:04Z</time></trkpt><trkpt lat="44.669737075307566" lon="8.041622274044194"><ele>199.33333333333331</ele><time>2026-05-02T15:36:05Z</time></trkpt><trkpt lat="44.66992597679226" lon="8.041536891025315"><ele>200.66666666666666</ele><time>2026-05-02T15:36:06Z</time></trkpt><trkpt lat="44.670105705857935" lon="8.041460464612776"><ele>202.0</ele><time>2026-05-02T15:36:07Z</time></trkpt><trkpt lat="44.67027158969558" lon="8.041386776168462"><ele>201.33333333333331</ele><time>2026-05-02T15:36:08Z</time></trkpt><trkpt lat="44.67043165484617" lon="8.041313971346607"><ele>200.66666666666669</ele><time>2026-05-02T15:36:09Z</time></trkpt><trkpt lat="44.670594266262405" lon="8.041237274855053"><ele>200.0</ele><time>2026-05-02T15:36:10Z</time></trkpt><trkpt lat="44.67075358203964" lon="8.041166269675292"><ele>200.0</ele><time>2026-05-02T15:36:11Z</time></trkpt><trkpt lat="44.67091612309311" lon="8.04109444023344"><ele>200.0</ele><time>2026-05-02T15:36:12Z</time></trkpt><trkpt lat="44.671078259349265" lon="8.041020489414414"><ele>200.0</ele><time>2026-05-02T15:36:13Z</time></trkpt><trkpt lat="44.67123870025314" lon="8.040948153412627"><ele>199.33333333333334</ele><time>2026-05-02T15:36:14Z</time></trkpt><trkpt lat="44.67140299418332" lon="8.040873787007987"><ele>198.66666666666669</ele><time>2026-05-02T15:36:15Z</time></trkpt><trkpt lat="44.67156636295161" lon="8.0407956165237"><ele>198.0</ele><time>2026-05-02T15:36:16Z</time></trkpt><trkpt lat="44.67175018086036" lon="8.040736900552114"><ele>198.0</ele><time>2026-05-02T15:36:17Z</time></trkpt><trkpt lat="44.67193700388501" lon="8.040652198418488"><ele>198.0</ele><time>2026-05-02T15:36:18Z</time></trkpt><trkpt lat="44.67213395143258" lon="8.040562445840973"><ele>198.0</ele><time>2026-05-02T15:36:19Z</time></trkpt><trkpt lat="44.67233526825094" lon="8.040470594876986"><ele>196.66666666666669</ele><time>2026-05-02T15:36:20Z</time></trkpt><trkpt lat="44.67253167113564" lon="8.04038410448583"><ele>195.33333333333334</ele><time>2026-05-02T15:36:21Z</time></trkpt><trkpt lat="44.67271124246809" lon="8.040303546239853"><ele>194.0</ele><time>2026-05-02T15:36:22Z</time></trkpt><trkpt lat="44.67287816271869" lon="8.040207798343857"><ele>193.33333333333334</ele><time>2026-05-02T15:36:23Z</time></trkpt><trkpt lat="44.673049786086125" lon="8.040133507315126"><ele>192.66666666666669</ele><time>2026-05-02T15:36:24Z</time></trkpt><trkpt lat="44.67322596942915" lon="8.040054586585201"><ele>192.0</ele><time>2026-05-02T15:36:25Z</time></trkpt><trkpt lat="44.67340410913457" lon="8.039970843746762"><ele>192.0</ele><time>2026-05-02T15:36:26Z</time></trkpt><trkpt lat="44.67358154855599" lon="8.039890121077134"><ele>192.0</ele><time>2026-05-02T15:36:27Z</time></trkpt><trkpt lat="44.6737556530035" lon="8.0398327050609"><ele>192.0</ele><time>2026-05-02T15:36:28Z</time></trkpt><trkpt lat="44.67390948967472" lon="8.03976370782509"><ele>192.0</ele><time>2026-05-02T15:36:29Z</time></trkpt><trkpt lat="44.67405369031533" lon="8.039699242575852"><ele>192.0</ele><time>2026-05-02T15:36:30Z</time></trkpt><trkpt lat="44.6741929174527" lon="8.039637056089626"><ele>192.0</ele><time>2026-05-02T15:36:31Z</time></trkpt><trkpt lat="44.67434445257909" lon="8.039568793851243"><ele>191.66666666666666</ele><time>2026-05-02T15:36:32Z</time></trkpt><trkpt lat="44.674503859709695" lon="8.03949721865428"><ele>191.33333333333331</ele><time>2026-05-02T15:36:33Z</time></trkpt><trkpt lat="44.67465792363647" lon="8.03939459356768"><ele>191.0</ele><time>2026-05-02T15:36:34Z</time></trkpt><trkpt lat="44.674825042268765" lon="8.039330398103353"><ele>191.0</ele><time>2026-05-02T15:36:35Z</time></trkpt><trkpt lat="44.674991578073104" lon="8.039257124107147"><ele>191.0</ele><time>2026-05-02T15:36:36Z</time></trkpt><trkpt lat="44.67515861115677" lon="8.039179838259747"><ele>191.0</ele><time>2026-05-02T15:36:37Z</time></trkpt><trkpt lat="44.675331675373535" lon="8.0391290609752"><ele>191.33333333333331</ele><time>2026-05-02T15:36:38Z</time></trkpt><trkpt lat="44.6754989404834" lon="8.039052651882132"><ele>191.66666666666666</ele><time>2026-05-02T15:36:38.999Z</time></trkpt><trkpt lat="44.67566792329794" lon="8.038975870203807"><ele>192.0</ele><time>2026-05-02T15:36:39.999Z</time></trkpt><trkpt lat="44.67583470234909" lon="8.03889955742327"><ele>192.0</ele><time>2026-05-02T15:36:40.999Z</time></trkpt><trkpt lat="44.67600003928794" lon="8.038824579535056"><ele>192.0</ele><time>2026-05-02T15:36:41.999Z</time></trkpt><trkpt lat="44.676161376300556" lon="8.03873176383997"><ele>192.0</ele><time>2026-05-02T15:36:42.999Z</time></trkpt><trkpt lat="44.6763125883075" lon="8.03866711945297"><ele>191.25</ele><time>2026-05-02T15:36:43.999Z</time></trkpt><trkpt lat="44.67645346155457" lon="8.038601530189922"><ele>190.5</ele><time>2026-05-02T15:36:44.999Z</time></trkpt><trkpt lat="44.676598295971274" lon="8.038538799905421"><ele>189.75</ele><time>2026-05-02T15:36:45.999Z</time></trkpt><trkpt lat="44.6767400240513" lon="8.038474981224583"><ele>189.0</ele><time>2026-05-02T15:36:46.999Z</time></trkpt><trkpt lat="44.676880545313544" lon="8.03840794237361"><ele>189.0</ele><time>2026-05-02T15:36:47.999Z</time></trkpt><trkpt lat="44.67702254726955" lon="8.038343098382715"><ele>189.0</ele><time>2026-05-02T15:36:48.999Z</time></trkpt><trkpt lat="44.67716539185218" lon="8.038279496316717"><ele>189.0</ele><time>2026-05-02T15:36:49.999Z</time></trkpt><trkpt lat="44.677307198861925" lon="8.038219595663556"><ele>189.0</ele><time>2026-05-02T15:36:50.999Z</time></trkpt><trkpt lat="44.677445025789304" lon="8.03815297120539"><ele>189.75</ele><time>2026-05-02T15:36:51.999Z</time></trkpt><trkpt lat="44.67758554243571" lon="8.03811118313863"><ele>190.5</ele><time>2026-05-02T15:36:52.999Z</time></trkpt><trkpt lat="44.677708840741694" lon="8.038030743423972"><ele>191.25</ele><time>2026-05-02T15:36:53.999Z</time></trkpt><trkpt lat="44.67783205779961" lon="8.038000363227077"><ele>192.0</ele><time>2026-05-02T15:36:54.999Z</time></trkpt><trkpt lat="44.677937398909904" lon="8.0379305708534"><ele>192.0</ele><time>2026-05-02T15:36:55.999Z</time></trkpt><trkpt lat="44.678044267265804" lon="8.037886203148831"><ele>192.0</ele><time>2026-05-02T15:36:56.999Z</time></trkpt><trkpt lat="44.67814131196709" lon="8.037844489810213"><ele>192.0</ele><time>2026-05-02T15:36:57.999Z</time></trkpt><trkpt lat="44.67823240451659" lon="8.037807158049667"><ele>192.0</ele><time>2026-05-02T15:36:58.999Z</time></trkpt><trkpt lat="44.6783133219742" lon="8.037772648346069"><ele>192.0</ele><time>2026-05-02T15:36:59.999Z</time></trkpt><trkpt lat="44.67839259925652" lon="8.037753296361487"><ele>192.0</ele><time>2026-05-02T15:37:00.999Z</time></trkpt><trkpt lat="44.67846149389694" lon="8.037746461463627"><ele>192.0</ele><time>2026-05-02T15:37:01.999Z</time></trkpt><trkpt lat="44.67853049387434" lon="8.037739306596583"><ele>192.0</ele><time>2026-05-02T15:37:02.999Z</time></trkpt><trkpt lat="44.678612044784906" lon="8.037739635532683"><ele>192.0</ele><time>2026-05-02T15:37:03.999Z</time></trkpt><trkpt lat="44.67868786858753" lon="8.037627000467495"><ele>192.0</ele><time>2026-05-02T15:37:04.999Z</time></trkpt><trkpt lat="44.67878063724474" lon="8.03757932763286"><ele>192.0</ele><time>2026-05-02T15:37:05.999Z</time></trkpt><trkpt lat="44.67889319795522" lon="8.037526209409675"><ele>191.75</ele><time>2026-05-02T15:37:06.999Z</time></trkpt><trkpt lat="44.67901329248969" lon="8.037470129324229"><ele>191.5</ele><time>2026-05-02T15:37:07.999Z</time></trkpt><trkpt lat="44.67913441945374" lon="8.037413938895495"><ele>191.25</ele><time>2026-05-02T15:37:08.999Z</time></trkpt><trkpt lat="44.67925780557065" lon="8.037357978231688"><ele>191.0</ele><time>2026-05-02T15:37:09.999Z</time></trkpt><trkpt lat="44.6793719678049" lon="8.037306815798274"><ele>191.5</ele><time>2026-05-02T15:37:10.999Z</time></trkpt><trkpt lat="44.67947855125605" lon="8.03725894858758"><ele>192.0</ele><time>2026-05-02T15:37:11.999Z</time></trkpt><trkpt lat="44.67958742508295" lon="8.037209832599414"><ele>192.5</ele><time>2026-05-02T15:37:12.999Z</time></trkpt><trkpt lat="44.679699306137486" lon="8.0371593599691"><ele>193.0</ele><time>2026-05-02T15:37:13.999Z</time></trkpt><trkpt lat="44.67980073863521" lon="8.037113932723864"><ele>193.0</ele><time>2026-05-02T15:37:14.999Z</time></trkpt><trkpt lat="44.67989733082976" lon="8.037070666757009"><ele>193.0</ele><time>2026-05-02T15:37:15.999Z</time></trkpt><trkpt lat="44.67999614841465" lon="8.03702640399583"><ele>193.0</ele><time>2026-05-02T15:37:16.999Z</time></trkpt><trkpt lat="44.68009388359195" lon="8.03698262607221"><ele>193.0</ele><time>2026-05-02T15:37:17.999Z</time></trkpt><trkpt lat="44.68019197085902" lon="8.036938378806504"><ele>193.0</ele><time>2026-05-02T15:37:18.999Z</time></trkpt><trkpt lat="44.68029342379493" lon="8.036892439104456"><ele>192.4</ele><time>2026-05-02T15:37:19.999Z</time></trkpt><trkpt lat="44.680394302954646" lon="8.036846759225615"><ele>191.8</ele><time>2026-05-02T15:37:20.999Z</time></trkpt><trkpt lat="44.68049250564004" lon="8.036802291785555"><ele>191.2</ele><time>2026-05-02T15:37:21.999Z</time></trkpt><trkpt lat="44.68059673456269" lon="8.0367544691965"><ele>190.6</ele><time>2026-05-02T15:37:22.999Z</time></trkpt><trkpt lat="44.6807029534778" lon="8.03670606896325"><ele>190.0</ele><time>2026-05-02T15:37:23.999Z</time></trkpt><trkpt lat="44.68080671160062" lon="8.036658908901401"><ele>190.8</ele><time>2026-05-02T15:37:24.999Z</time></trkpt><trkpt lat="44.680911917326156" lon="8.036611090894247"><ele>191.6</ele><time>2026-05-02T15:37:25.999Z</time></trkpt><trkpt lat="44.68101814836222" lon="8.036562807025836"><ele>192.39999999999998</ele><time>2026-05-02T15:37:26.999Z</time></trkpt><trkpt lat="44.68112281906692" lon="8.036516198666732"><ele>193.2</ele><time>2026-05-02T15:37:27.999Z</time></trkpt><trkpt lat="44.68122733377978" lon="8.036469510635122"><ele>194.0</ele><time>2026-05-02T15:37:28.999Z</time></trkpt><trkpt lat="44.6813483641519" lon="8.036415444855045"><ele>194.0</ele><time>2026-05-02T15:37:29.999Z</time></trkpt><trkpt lat="44.6814830681364" lon="8.036355271050315"><ele>194.0</ele><time>2026-05-02T15:37:30.999Z</time></trkpt><trkpt lat="44.68162725042506" lon="8.036291146162307"><ele>194.0</ele><time>2026-05-02T15:37:31.999Z</time></trkpt><trkpt lat="44.681779275295796" lon="8.0362240546473"><ele>192.66666666666669</ele><time>2026-05-02T15:37:32.999Z</time></trkpt><trkpt lat="44.681938855702754" lon="8.036153626864651"><ele>191.33333333333334</ele><time>2026-05-02T15:37:33.999Z</time></trkpt><trkpt lat="44.682101722730636" lon="8.036081746752103"><ele>190.0</ele><time>2026-05-02T15:37:34.999Z</time></trkpt><trkpt lat="44.682261660772184" lon="8.03600942839737"><ele>190.0</ele><time>2026-05-02T15:37:35.999Z</time></trkpt><trkpt lat="44.68242071134176" lon="8.035937987821594"><ele>190.0</ele><time>2026-05-02T15:37:36.999Z</time></trkpt><trkpt lat="44.68257716892814" lon="8.035867498622233"><ele>190.0</ele><time>2026-05-02T15:37:37.999Z</time></trkpt><trkpt lat="44.682733416867336" lon="8.035797055699975"><ele>190.75</ele><time>2026-05-02T15:37:38.999Z</time></trkpt><trkpt lat="44.68288076125232" lon="8.035730615730643"><ele>191.5</ele><time>2026-05-02T15:37:39.999Z</time></trkpt><trkpt lat="44.68302043470696" lon="8.035667625645804"><ele>192.25</ele><time>2026-05-02T15:37:40.999Z</time></trkpt><trkpt lat="44.683152163555235" lon="8.03560814165957"><ele>193.0</ele><time>2026-05-02T15:37:41.999Z</time></trkpt><trkpt lat="44.68327554806986" lon="8.03555240433326"><ele>193.0</ele><time>2026-05-02T15:37:42.999Z</time></trkpt><trkpt lat="44.68339888855842" lon="8.035496687649976"><ele>193.0</ele><time>2026-05-02T15:37:43.999Z</time></trkpt><trkpt lat="44.68352645954003" lon="8.035438662509671"><ele>193.0</ele><time>2026-05-02T15:37:44.999Z</time></trkpt><trkpt lat="44.683654237971375" lon="8.035380956260537"><ele>193.0</ele><time>2026-05-02T15:37:45.999Z</time></trkpt><trkpt lat="44.68378459798041" lon="8.035322134452013"><ele>192.0</ele><time>2026-05-02T15:37:46.999Z</time></trkpt><trkpt lat="44.68391493800961" lon="8.03526332165873"><ele>191.0</ele><time>2026-05-02T15:37:47.999Z</time></trkpt><trkpt lat="44.68405043471905" lon="8.035202276806586"><ele>190.0</ele><time>2026-05-02T15:37:48.999Z</time></trkpt><trkpt lat="44.68418734220478" lon="8.035140607149062"><ele>189.0</ele><time>2026-05-02T15:37:49.999Z</time></trkpt><trkpt lat="44.684328165121784" lon="8.035076906066966"><ele>189.0</ele><time>2026-05-02T15:37:50.999Z</time></trkpt><trkpt lat="44.684466439309276" lon="8.035014511456888"><ele>189.0</ele><time>2026-05-02T15:37:51.999Z</time></trkpt><trkpt lat="44.68460715908137" lon="8.03495101334142"><ele>189.0</ele><time>2026-05-02T15:37:53Z</time></trkpt><trkpt lat="44.68474104162188" lon="8.034890773499523"><ele>189.0</ele><time>2026-05-02T15:37:54Z</time></trkpt><trkpt lat="44.68486644227326" lon="8.03483463523616"><ele>189.0</ele><time>2026-05-02T15:37:55Z</time></trkpt><trkpt lat="44.684983088346264" lon="8.034782651102429"><ele>189.0</ele><time>2026-05-02T15:37:56Z</time></trkpt><trkpt lat="44.68509447739105" lon="8.034732934901767"><ele>189.0</ele><time>2026-05-02T15:37:57Z</time></trkpt><trkpt lat="44.68521187540293" lon="8.034680510346025"><ele>189.0</ele><time>2026-05-02T15:37:58Z</time></trkpt><trkpt lat="44.68533350580916" lon="8.03462619584102"><ele>188.0</ele><time>2026-05-02T15:37:59Z</time></trkpt><trkpt lat="44.68545647575679" lon="8.034570981103885"><ele>187.0</ele><time>2026-05-02T15:38:00Z</time></trkpt><trkpt lat="44.6855780203517" lon="8.034516348837352"><ele>186.0</ele><time>2026-05-02T15:38:01Z</time></trkpt><trkpt lat="44.68569229357177" lon="8.034464984935324"><ele>185.0</ele><time>2026-05-02T15:38:02Z</time></trkpt><trkpt lat="44.685807892548695" lon="8.034413025171773"><ele>185.0</ele><time>2026-05-02T15:38:03Z</time></trkpt><trkpt lat="44.68591473107283" lon="8.034365003033482"><ele>185.0</ele><time>2026-05-02T15:38:04Z</time></trkpt><trkpt lat="44.68601228887828" lon="8.034319673171746"><ele>185.0</ele><time>2026-05-02T15:38:05Z</time></trkpt><trkpt lat="44.6860918264862" lon="8.034263335486"><ele>185.0</ele><time>2026-05-02T15:38:06Z</time></trkpt><trkpt lat="44.68616715356551" lon="8.034250936179864"><ele>185.0</ele><time>2026-05-02T15:38:07Z</time></trkpt><trkpt lat="44.68624022348428" lon="8.034257148363016"><ele>184.5</ele><time>2026-05-02T15:38:08Z</time></trkpt><trkpt lat="44.68631302037984" lon="8.034275404086157"><ele>184.0</ele><time>2026-05-02T15:38:09Z</time></trkpt><trkpt lat="44.686382949745386" lon="8.034293694142589"><ele>183.5</ele><time>2026-05-02T15:38:10Z</time></trkpt><trkpt lat="44.6864526815557" lon="8.034303956026642"><ele>183.0</ele><time>2026-05-02T15:38:11Z</time></trkpt><trkpt lat="44.686570454995156" lon="8.034298160488348"><ele>182.5</ele><time>2026-05-02T15:38:13Z</time></trkpt><trkpt lat="44.6866658131012" lon="8.034289420357698"><ele>182.0</ele><time>2026-05-02T15:38:15Z</time></trkpt><trkpt lat="44.68673890755763" lon="8.034285961979913"><ele>182.0</ele><time>2026-05-02T15:38:34Z</time></trkpt><trkpt lat="44.686830472873346" lon="8.034310785580923"><ele>182.0</ele><time>2026-05-02T15:38:36Z</time></trkpt><trkpt lat="44.686926842119405" lon="8.034297425310797"><ele>182.0</ele><time>2026-05-02T15:38:38Z</time></trkpt><trkpt lat="44.68702358924752" lon="8.034302668603537"><ele>182.0</ele><time>2026-05-02T15:38:45Z</time></trkpt><trkpt lat="44.687090644396186" lon="8.03418716084631"><ele>182.0</ele><time>2026-05-02T15:38:46Z</time></trkpt><trkpt lat="44.687184400536125" lon="8.034192473222571"><ele>182.0</ele><time>2026-05-02T15:38:47Z</time></trkpt><trkpt lat="44.687270987504355" lon="8.03420110540133"><ele>182.0</ele><time>2026-05-02T15:38:48Z</time></trkpt><trkpt lat="44.68734982412691" lon="8.034197921618027"><ele>182.0</ele><time>2026-05-02T15:38:49Z</time></trkpt><trkpt lat="44.687436676203646" lon="8.03420297469337"><ele>182.0</ele><time>2026-05-02T15:38:50Z</time></trkpt><trkpt lat="44.68752288160102" lon="8.034295564821532"><ele>182.0</ele><time>2026-05-02T15:38:51Z</time></trkpt><trkpt lat="44.68761595386523" lon="8.034195022327626"><ele>182.0</ele><time>2026-05-02T15:38:52Z</time></trkpt><trkpt lat="44.68771424547317" lon="8.034195714807234"><ele>182.0</ele><time>2026-05-02T15:38:53Z</time></trkpt><trkpt lat="44.687813353417624" lon="8.03419243292879"><ele>182.0</ele><time>2026-05-02T15:38:54Z</time></trkpt><trkpt lat="44.687905065624236" lon="8.034197433926954"><ele>182.0</ele><time>2026-05-02T15:38:55Z</time></trkpt><trkpt lat="44.687998819289405" lon="8.034194174763533"><ele>182.0</ele><time>2026-05-02T15:38:56Z</time></trkpt><trkpt lat="44.688089193711996" lon="8.034196662085064"><ele>182.0</ele><time>2026-05-02T15:38:57Z</time></trkpt><trkpt lat="44.68817373055747" lon="8.03419933668428"><ele>182.0</ele><time>2026-05-02T15:38:58Z</time></trkpt><trkpt lat="44.68825885478178" lon="8.0341974453125"><ele>182.0</ele><time>2026-05-02T15:38:59Z</time></trkpt><trkpt lat="44.68833218889565" lon="8.03419629298554"><ele>182.0</ele><time>2026-05-02T15:39:00Z</time></trkpt><trkpt lat="44.688398203445914" lon="8.034190629756578"><ele>182.0</ele><time>2026-05-02T15:39:01Z</time></trkpt><trkpt lat="44.68851218763057" lon="8.034188408526077"><ele>182.0</ele><time>2026-05-02T15:39:03Z</time></trkpt><trkpt lat="44.68859322743843" lon="8.034185057865479"><ele>182.0</ele><time>2026-05-02T15:39:05Z</time></trkpt><trkpt lat="44.68866665643145" lon="8.034186811118131"><ele>182.0</ele><time>2026-05-02T15:39:08Z</time></trkpt><trkpt lat="44.68873240011724" lon="8.034204553045454"><ele>182.0</ele><time>2026-05-02T15:39:11Z</time></trkpt><trkpt lat="44.68880171773984" lon="8.034213660136993"><ele>182.0</ele><time>2026-05-02T15:39:16Z</time></trkpt><trkpt lat="44.68889223861597" lon="8.034245281537364"><ele>182.0</ele><time>2026-05-02T15:39:18Z</time></trkpt><trkpt lat="44.68898818064094" lon="8.034221442094372"><ele>182.0</ele><time>2026-05-02T15:39:20Z</time></trkpt><trkpt lat="44.68911490251634" lon="8.034181052237557"><ele>182.0</ele><time>2026-05-02T15:39:22Z</time></trkpt><trkpt lat="44.68918090149646" lon="8.034171207587905"><ele>182.0</ele><time>2026-05-02T15:39:23Z</time></trkpt><trkpt lat="44.689318666160055" lon="8.03416081125468"><ele>182.0</ele><time>2026-05-02T15:39:25Z</time></trkpt><trkpt lat="44.6894092278486" lon="8.034153694986717"><ele>182.0</ele><time>2026-05-02T15:39:26Z</time></trkpt><trkpt lat="44.68952206776698" lon="8.034147778732395"><ele>182.0</ele><time>2026-05-02T15:39:27Z</time></trkpt><trkpt lat="44.68964801276493" lon="8.034144784677034"><ele>181.75</ele><time>2026-05-02T15:39:28Z</time></trkpt><trkpt lat="44.68978190802042" lon="8.034141091262224"><ele>181.5</ele><time>2026-05-02T15:39:29Z</time></trkpt><trkpt lat="44.689919493105656" lon="8.03417481460853"><ele>181.25</ele><time>2026-05-02T15:39:30Z</time></trkpt><trkpt lat="44.690054633034194" lon="8.034137790204658"><ele>181.0</ele><time>2026-05-02T15:39:31Z</time></trkpt><trkpt lat="44.69019303783695" lon="8.03413770635332"><ele>181.25</ele><time>2026-05-02T15:39:32Z</time></trkpt><trkpt lat="44.690330130405506" lon="8.034137852481603"><ele>181.5</ele><time>2026-05-02T15:39:33Z</time></trkpt><trkpt lat="44.69045903441713" lon="8.034135137395467"><ele>181.75</ele><time>2026-05-02T15:39:34Z</time></trkpt><trkpt lat="44.69057991764349" lon="8.0341351617024"><ele>182.0</ele><time>2026-05-02T15:39:35Z</time></trkpt><trkpt lat="44.69069587639483" lon="8.0341391189796"><ele>182.0</ele><time>2026-05-02T15:39:36Z</time></trkpt><trkpt lat="44.690810571950756" lon="8.03413729688326"><ele>182.0</ele><time>2026-05-02T15:39:37Z</time></trkpt><trkpt lat="44.69090418616625" lon="8.034134199879054"><ele>182.0</ele><time>2026-05-02T15:39:38Z</time></trkpt><trkpt lat="44.69098389821673" lon="8.034133162659472"><ele>182.0</ele><time>2026-05-02T15:39:39Z</time></trkpt><trkpt lat="44.69108273745376" lon="8.034161914882834"><ele>182.0</ele><time>2026-05-02T15:39:40Z</time></trkpt><trkpt lat="44.691196854242996" lon="8.034162435767998"><ele>182.0</ele><time>2026-05-02T15:39:41Z</time></trkpt><trkpt lat="44.69132711591096" lon="8.034132245997775"><ele>182.0</ele><time>2026-05-02T15:39:42Z</time></trkpt><trkpt lat="44.69146952403067" lon="8.034128729512036"><ele>182.0</ele><time>2026-05-02T15:39:43Z</time></trkpt><trkpt lat="44.691615692132245" lon="8.034119241264795"><ele>182.0</ele><time>2026-05-02T15:39:44Z</time></trkpt><trkpt lat="44.69175408959386" lon="8.03411613512565"><ele>182.0</ele><time>2026-05-02T15:39:45Z</time></trkpt><trkpt lat="44.691876033091894" lon="8.034119473381777"><ele>182.0</ele><time>2026-05-02T15:39:46Z</time></trkpt><trkpt lat="44.69198967556748" lon="8.034117599086144"><ele>182.0</ele><time>2026-05-02T15:39:47Z</time></trkpt><trkpt lat="44.692085405786806" lon="8.034122978206442"><ele>182.0</ele><time>2026-05-02T15:39:48Z</time></trkpt><trkpt lat="44.6921733828961" lon="8.0341232917722"><ele>182.0</ele><time>2026-05-02T15:39:49Z</time></trkpt><trkpt lat="44.692250785661194" lon="8.03413075112565"><ele>181.8</ele><time>2026-05-02T15:39:50Z</time></trkpt><trkpt lat="44.69231556159153" lon="8.034130270635986"><ele>181.6</ele><time>2026-05-02T15:39:51Z</time></trkpt><trkpt lat="44.69241342652019" lon="8.03413682418903"><ele>181.4</ele><time>2026-05-02T15:39:53Z</time></trkpt><trkpt lat="44.69254642931528" lon="8.034122538149362"><ele>181.20000000000002</ele><time>2026-05-02T15:39:55Z</time></trkpt><trkpt lat="44.69262690043524" lon="8.034122374923635"><ele>181.0</ele><time>2026-05-02T15:39:56Z</time></trkpt><trkpt lat="44.692711791972854" lon="8.034112649762083"><ele>180.4</ele><time>2026-05-02T15:39:57Z</time></trkpt><trkpt lat="44.692819497515394" lon="8.034106278553725"><ele>179.8</ele><time>2026-05-02T15:39:58Z</time></trkpt><trkpt lat="44.69293840152601" lon="8.034105074024666"><ele>179.20000000000002</ele><time>2026-05-02T15:39:59Z</time></trkpt><trkpt lat="44.69304138192597" lon="8.034101021247363"><ele>178.60000000000002</ele><time>2026-05-02T15:40:00Z</time></trkpt><trkpt lat="44.69313230679424" lon="8.034112985649154"><ele>178.0</ele><time>2026-05-02T15:40:01Z</time></trkpt><trkpt lat="44.69321081658512" lon="8.034111604715479"><ele>178.0</ele><time>2026-05-02T15:40:02Z</time></trkpt><trkpt lat="44.693276884708794" lon="8.03411804659471"><ele>178.0</ele><time>2026-05-02T15:40:03Z</time></trkpt><trkpt lat="44.69338672880576" lon="8.034117944345303"><ele>178.0</ele><time>2026-05-02T15:40:05Z</time></trkpt><trkpt lat="44.69348846668064" lon="8.03412363097653"><ele>178.0</ele><time>2026-05-02T15:40:07Z</time></trkpt><trkpt lat="44.69358371624261" lon="8.034153164314802"><ele>178.0</ele><time>2026-05-02T15:40:09Z</time></trkpt><trkpt lat="44.69368236821921" lon="8.034179101620374"><ele>177.66666666666669</ele><time>2026-05-02T15:40:11Z</time></trkpt><trkpt lat="44.69374694606168" lon="8.034206261373576"><ele>177.33333333333334</ele><time>2026-05-02T15:40:12Z</time></trkpt><trkpt lat="44.6938162713049" lon="8.034242731084955"><ele>177.0</ele><time>2026-05-02T15:40:13Z</time></trkpt><trkpt lat="44.69390114983808" lon="8.034137416388143"><ele>176.66666666666666</ele><time>2026-05-02T15:40:14Z</time></trkpt><trkpt lat="44.693975687016426" lon="8.034131252098334"><ele>176.33333333333331</ele><time>2026-05-02T15:40:15Z</time></trkpt><trkpt lat="44.69404074157076" lon="8.03413911855214"><ele>176.0</ele><time>2026-05-02T15:40:16Z</time></trkpt><trkpt lat="44.694124223701806" lon="8.03415344336419"><ele>176.0</ele><time>2026-05-02T15:40:17Z</time></trkpt><trkpt lat="44.69421779631965" lon="8.034160345388445"><ele>176.0</ele><time>2026-05-02T15:40:18Z</time></trkpt><trkpt lat="44.69432345916069" lon="8.034142608107722"><ele>176.0</ele><time>2026-05-02T15:40:19Z</time></trkpt><trkpt lat="44.69444577730893" lon="8.034127959228385"><ele>176.0</ele><time>2026-05-02T15:40:20Z</time></trkpt><trkpt lat="44.69457497718743" lon="8.034122803586225"><ele>175.60000000000002</ele><time>2026-05-02T15:40:21Z</time></trkpt><trkpt lat="44.694690708927084" lon="8.034121530188804"><ele>175.2</ele><time>2026-05-02T15:40:22Z</time></trkpt><trkpt lat="44.69478783257142" lon="8.034118260372521"><ele>174.8</ele><time>2026-05-02T15:40:23Z</time></trkpt><trkpt lat="44.69488046559185" lon="8.034120723730906"><ele>174.39999999999998</ele><time>2026-05-02T15:40:24Z</time></trkpt><trkpt lat="44.69498237045777" lon="8.034120250837644"><ele>174.0</ele><time>2026-05-02T15:40:25Z</time></trkpt><trkpt lat="44.695084174062934" lon="8.034121411135818"><ele>174.0</ele><time>2026-05-02T15:40:26Z</time></trkpt><trkpt lat="44.695177201442824" lon="8.034120624004004"><ele>174.0</ele><time>2026-05-02T15:40:27Z</time></trkpt><trkpt lat="44.695261226426645" lon="8.034118695193637"><ele>174.0</ele><time>2026-05-02T15:40:28Z</time></trkpt><trkpt lat="44.69534560328009" lon="8.03411326659223"><ele>174.0</ele><time>2026-05-02T15:40:29Z</time></trkpt><trkpt lat="44.69543266867011" lon="8.034112054813388"><ele>174.0</ele><time>2026-05-02T15:40:30Z</time></trkpt><trkpt lat="44.6955174872703" lon="8.034111352190916"><ele>174.0</ele><time>2026-05-02T15:40:31Z</time></trkpt><trkpt lat="44.69559504235119" lon="8.034113022403822"><ele>174.16666666666666</ele><time>2026-05-02T15:40:32Z</time></trkpt><trkpt lat="44.69567220580636" lon="8.034114662425162"><ele>174.33333333333334</ele><time>2026-05-02T15:40:33Z</time></trkpt><trkpt lat="44.69574253079958" lon="8.034110827449702"><ele>174.5</ele><time>2026-05-02T15:40:34Z</time></trkpt><trkpt lat="44.695814429653645" lon="8.034106833028419"><ele>174.66666666666669</ele><time>2026-05-02T15:40:35Z</time></trkpt><trkpt lat="44.69588479712042" lon="8.034104084024966"><ele>174.83333333333334</ele><time>2026-05-02T15:40:36Z</time></trkpt><trkpt lat="44.695949600096974" lon="8.034103867424237"><ele>175.0</ele><time>2026-05-02T15:40:37Z</time></trkpt><trkpt lat="44.696063997703014" lon="8.034109764552847"><ele>175.2</ele><time>2026-05-02T15:40:39Z</time></trkpt><trkpt lat="44.696177471902594" lon="8.034117386759004"><ele>175.4</ele><time>2026-05-02T15:40:41Z</time></trkpt><trkpt lat="44.69628483350126" lon="8.034137845909196"><ele>175.60000000000002</ele><time>2026-05-02T15:40:43Z</time></trkpt><trkpt lat="44.696357927108394" lon="8.034178573941473"><ele>175.8</ele><time>2026-05-02T15:40:45Z</time></trkpt><trkpt lat="44.696430670643664" lon="8.034261392919985"><ele>176.0</ele><time>2026-05-02T15:40:47Z</time></trkpt><trkpt lat="44.69648079754857" lon="8.034346780661487"><ele>176.0</ele><time>2026-05-02T15:40:49Z</time></trkpt><trkpt lat="44.69656182584316" lon="8.034050072151325"><ele>176.0</ele><time>2026-05-02T15:41:15Z</time></trkpt><trkpt lat="44.696585253997384" lon="8.033939921643958"><ele>176.0</ele><time>2026-05-02T15:41:17Z</time></trkpt><trkpt lat="44.69662992061477" lon="8.033862533187174"><ele>176.0</ele><time>2026-05-02T15:41:20Z</time></trkpt><trkpt lat="44.69664911784861" lon="8.033738649291083"><ele>176.0</ele><time>2026-05-02T15:41:26Z</time></trkpt><trkpt lat="44.69665677240682" lon="8.033544007111814"><ele>176.0</ele><time>2026-05-02T15:41:28Z</time></trkpt><trkpt lat="44.696666048127675" lon="8.033434373616148"><ele>176.0</ele><time>2026-05-02T15:41:29Z</time></trkpt><trkpt lat="44.69667528079095" lon="8.033310867316008"><ele>176.0</ele><time>2026-05-02T15:41:30Z</time></trkpt><trkpt lat="44.69668605517299" lon="8.033176760717806"><ele>176.0</ele><time>2026-05-02T15:41:31Z</time></trkpt><trkpt lat="44.696694717174175" lon="8.033047148751027"><ele>176.20000000000002</ele><time>2026-05-02T15:41:32Z</time></trkpt><trkpt lat="44.69670555701291" lon="8.032929702018823"><ele>176.4</ele><time>2026-05-02T15:41:33Z</time></trkpt><trkpt lat="44.69674475129132" lon="8.03278749058226"><ele>176.6</ele><time>2026-05-02T15:41:35Z</time></trkpt><trkpt lat="44.69682019912153" lon="8.032756264863128"><ele>176.8</ele><time>2026-05-02T15:41:37Z</time></trkpt><trkpt lat="44.696897252681865" lon="8.03279484984679"><ele>177.0</ele><time>2026-05-02T15:41:39Z</time></trkpt><trkpt lat="44.69699349685595" lon="8.032808216012608"><ele>177.0</ele><time>2026-05-02T15:41:41Z</time></trkpt><trkpt lat="44.69709678750965" lon="8.032829540062083"><ele>177.0</ele><time>2026-05-02T15:41:43Z</time></trkpt><trkpt lat="44.69719687343777" lon="8.032855765688272"><ele>177.0</ele><time>2026-05-02T15:41:45Z</time></trkpt><trkpt lat="44.697266187072145" lon="8.032870055868107"><ele>177.0</ele><time>2026-05-02T15:41:47Z</time></trkpt><trkpt lat="44.697334099571385" lon="8.032876958791993"><ele>177.0</ele><time>2026-05-02T15:41:52Z</time></trkpt><trkpt lat="44.697348606568205" lon="8.032759058287224"><ele>177.0</ele><time>2026-05-02T15:41:54Z</time></trkpt><trkpt lat="44.69733538776992" lon="8.032848170342673"><ele>177.0</ele><time>2026-05-02T15:43:40Z</time></trkpt><trkpt lat="44.69732578108969" lon="8.032941746958599"><ele>177.0</ele><time>2026-05-02T15:43:48Z</time></trkpt><trkpt lat="44.69731604685277" lon="8.033047333591991"><ele>177.0</ele><time>2026-05-02T15:44:00Z</time></trkpt><trkpt lat="44.69730610366097" lon="8.033144527033313"><ele>177.0</ele><time>2026-05-02T15:44:05Z</time></trkpt><trkpt lat="44.697241983290645" lon="8.033198549010514"><ele>177.0</ele><time>2026-05-02T15:44:09Z</time></trkpt><trkpt lat="44.69718772135598" lon="8.033256909763553"><ele>177.0</ele><time>2026-05-02T15:44:12Z</time></trkpt><trkpt lat="44.69715841997114" lon="8.03333704394845"><ele>177.0</ele><time>2026-05-02T15:44:16Z</time></trkpt><trkpt lat="44.69711844004067" lon="8.033406023107666"><ele>176.8</ele><time>2026-05-02T15:44:21Z</time></trkpt><trkpt lat="44.69707784089759" lon="8.03347784743331"><ele>176.6</ele><time>2026-05-02T15:44:25Z</time></trkpt><trkpt lat="44.69695277185832" lon="8.033526927367369"><ele>176.4</ele><time>2026-05-02T15:44:28Z</time></trkpt><trkpt lat="44.696891892677996" lon="8.033582597842667"><ele>176.20000000000002</ele><time>2026-05-02T15:44:37Z</time></trkpt><trkpt lat="44.69681699694461" lon="8.033616766252717"><ele>176.0</ele><time>2026-05-02T15:44:42Z</time></trkpt><trkpt lat="44.69663950414901" lon="8.033594072010729"><ele>176.0</ele><time>2026-05-02T15:44:43Z</time></trkpt><trkpt lat="44.6966173739257" lon="8.033702570972956"><ele>176.0</ele><time>2026-05-02T15:44:48Z</time></trkpt><trkpt lat="44.696657840955" lon="8.033781557099495"><ele>176.0</ele><time>2026-05-02T15:44:52Z</time></trkpt><trkpt lat="44.69669508108276" lon="8.033893864366606"><ele>176.0</ele><time>2026-05-02T15:45:03.068Z</time></trkpt><trkpt lat="44.69661943730312" lon="8.033995620036489"><ele>176.0</ele><time>2026-05-02T15:45:06.069Z</time></trkpt><trkpt lat="44.696691655871476" lon="8.0340021269292"><ele>176.0</ele><time>2026-05-02T15:45:08.067Z</time></trkpt><trkpt lat="44.697071648467315" lon="8.034029833876108"><ele>176.57142857142858</ele><time>2026-05-02T15:45:24.287Z</time></trkpt><trkpt lat="44.69716849698992" lon="8.034032919168975"><ele>177.14285714285714</ele><time>2026-05-02T15:45:31.827Z</time></trkpt><trkpt lat="44.69724491545084" lon="8.034012977929676"><ele>177.71428571428572</ele><time>2026-05-02T15:46:26.011Z</time></trkpt><trkpt lat="44.697288705472616" lon="8.033938961922281"><ele>178.28571428571428</ele><time>2026-05-02T15:46:37.015Z</time></trkpt><trkpt lat="44.697291265641525" lon="8.033848201176822"><ele>178.85714285714286</ele><time>2026-05-02T15:46:47.014Z</time></trkpt><trkpt lat="44.697238796247106" lon="8.033776750473255"><ele>179.42857142857142</ele><time>2026-05-02T15:47:03.034Z</time></trkpt><trkpt lat="44.697174675263625" lon="8.033782226251791"><ele>180.0</ele><time>2026-05-02T15:47:14.034Z</time></trkpt><trkpt lat="44.697250682316394" lon="8.033316926347752"><ele>179.4</ele><time>2026-05-02T15:47:33.604Z</time></trkpt><trkpt lat="44.6971341000837" lon="8.03314567497035"><ele>178.8</ele><time>2026-05-02T15:47:39.024Z</time></trkpt><trkpt lat="44.69708181137193" lon="8.033096081806981"><ele>178.2</ele><time>2026-05-02T15:47:54.058Z</time></trkpt><trkpt lat="44.69701924486564" lon="8.033045154179202"><ele>177.6</ele><time>2026-05-02T15:48:01.063Z</time></trkpt><trkpt lat="44.69711738907275" lon="8.033037688185479"><ele>177.0</ele><time>2026-05-02T15:48:07.063Z</time></trkpt><trkpt lat="44.697357910613384" lon="8.03304128616263"><ele>177.0</ele><time>2026-05-02T15:48:13.051Z</time></trkpt><trkpt lat="44.697449055256556" lon="8.033041526720549"><ele>177.0</ele><time>2026-05-02T15:48:15.05Z</time></trkpt><trkpt lat="44.69743263745552" lon="8.032946082893"><ele>177.0</ele><time>2026-05-02T15:48:22Z</time></trkpt><trkpt lat="44.697410636550664" lon="8.032840888008254"><ele>177.0</ele><time>2026-05-02T15:48:28Z</time></trkpt><trkpt lat="44.697367396276455" lon="8.032767776148205"><ele>177.0</ele><time>2026-05-02T15:48:33Z</time></trkpt><trkpt lat="44.69734232500577" lon="8.032684828521106"><ele>177.0</ele><time>2026-05-02T15:48:40Z</time></trkpt><trkpt lat="44.69732372436385" lon="8.032559912730521"><ele>176.2</ele><time>2026-05-02T15:58:07Z</time></trkpt><trkpt lat="44.697342562459546" lon="8.032434757316933"><ele>175.39999999999998</ele><time>2026-05-02T15:58:09Z</time></trkpt><trkpt lat="44.69736481610418" lon="8.032305789140672"><ele>174.60000000000002</ele><time>2026-05-02T15:58:11Z</time></trkpt><trkpt lat="44.697385317937915" lon="8.032160524288077"><ele>173.8</ele><time>2026-05-02T15:58:13Z</time></trkpt><trkpt lat="44.69740353293518" lon="8.032017014766856"><ele>173.0</ele><time>2026-05-02T15:58:15Z</time></trkpt><trkpt lat="44.69740791177608" lon="8.031907412918256"><ele>173.0</ele><time>2026-05-02T15:58:17Z</time></trkpt><trkpt lat="44.697444902943175" lon="8.031792489093732"><ele>173.0</ele><time>2026-05-02T15:58:23.001Z</time></trkpt><trkpt lat="44.697493717367266" lon="8.0317121869956"><ele>173.0</ele><time>2026-05-02T15:58:24.001Z</time></trkpt><trkpt lat="44.69760109838476" lon="8.031607583541426"><ele>173.0</ele><time>2026-05-02T15:58:26.001Z</time></trkpt><trkpt lat="44.697681773141156" lon="8.031525065875424"><ele>173.0</ele><time>2026-05-02T15:58:28.001Z</time></trkpt><trkpt lat="44.69775241384562" lon="8.031453720623226"><ele>173.4</ele><time>2026-05-02T15:58:32.001Z</time></trkpt><trkpt lat="44.69784105966283" lon="8.031361294044427"><ele>173.8</ele><time>2026-05-02T15:58:34Z</time></trkpt><trkpt lat="44.69789391453108" lon="8.031312062453347"><ele>174.2</ele><time>2026-05-02T15:58:35Z</time></trkpt><trkpt lat="44.697983499971706" lon="8.031236672366461"><ele>174.6</ele><time>2026-05-02T15:58:37Z</time></trkpt><trkpt lat="44.698064346793466" lon="8.031164511923889"><ele>175.0</ele><time>2026-05-02T15:58:39Z</time></trkpt><trkpt lat="44.69813555348738" lon="8.031091191085798"><ele>175.0</ele><time>2026-05-02T15:58:41Z</time></trkpt><trkpt lat="44.69819605649478" lon="8.031033553171957"><ele>175.0</ele><time>2026-05-02T15:58:43Z</time></trkpt><trkpt lat="44.69825926137245" lon="8.030979002954584"><ele>175.0</ele><time>2026-05-02T15:58:45Z</time></trkpt><trkpt lat="44.69832540003598" lon="8.030922382731152"><ele>175.0</ele><time>2026-05-02T15:58:47Z</time></trkpt><trkpt lat="44.69839785844655" lon="8.030856725441051"><ele>175.0</ele><time>2026-05-02T15:58:49Z</time></trkpt><trkpt lat="44.69847375752043" lon="8.030781596494325"><ele>175.0</ele><time>2026-05-02T15:58:51Z</time></trkpt><trkpt lat="44.69858763780486" lon="8.030679869817586"><ele>174.57142857142858</ele><time>2026-05-02T15:58:53Z</time></trkpt><trkpt lat="44.698654823659915" lon="8.030625767871747"><ele>174.14285714285714</ele><time>2026-05-02T15:58:54Z</time></trkpt><trkpt lat="44.698723231861486" lon="8.030561506636877"><ele>173.71428571428572</ele><time>2026-05-02T15:58:55Z</time></trkpt><trkpt lat="44.69878786584859" lon="8.030498039790047"><ele>173.28571428571428</ele><time>2026-05-02T15:58:56Z</time></trkpt><trkpt lat="44.698844173654194" lon="8.030442482013239"><ele>172.85714285714286</ele><time>2026-05-02T15:58:57Z</time></trkpt><trkpt lat="44.69890058354815" lon="8.03038991004387"><ele>172.42857142857144</ele><time>2026-05-02T15:58:58Z</time></trkpt><trkpt lat="44.69896188772584" lon="8.030351319382222"><ele>172.0</ele><time>2026-05-02T15:58:59Z</time></trkpt><trkpt lat="44.699027282173105" lon="8.030319673494692"><ele>172.0</ele><time>2026-05-02T15:59:00Z</time></trkpt><trkpt lat="44.69908986258798" lon="8.030282757542853"><ele>172.0</ele><time>2026-05-02T15:59:01Z</time></trkpt><trkpt lat="44.69917525427873" lon="8.030215336058243"><ele>172.0</ele><time>2026-05-02T15:59:03Z</time></trkpt><trkpt lat="44.6992406973629" lon="8.030160413490563"><ele>172.0</ele><time>2026-05-02T15:59:05Z</time></trkpt><trkpt lat="44.6993015080782" lon="8.03013034451523"><ele>172.0</ele><time>2026-05-02T15:59:07Z</time></trkpt><trkpt lat="44.69937978361634" lon="8.030120515525962"><ele>172.0</ele><time>2026-05-02T15:59:09Z</time></trkpt><trkpt lat="44.69947369707796" lon="8.030136156767766"><ele>171.83333333333334</ele><time>2026-05-02T15:59:11Z</time></trkpt><trkpt lat="44.699569485747894" lon="8.030166446146469"><ele>171.66666666666669</ele><time>2026-05-02T15:59:13Z</time></trkpt><trkpt lat="44.69968694723949" lon="8.03022043035077"><ele>171.5</ele><time>2026-05-02T15:59:15Z</time></trkpt><trkpt lat="44.69975181904954" lon="8.030255307776082"><ele>171.33333333333334</ele><time>2026-05-02T15:59:16Z</time></trkpt><trkpt lat="44.699818846313164" lon="8.030291918884025"><ele>171.16666666666666</ele><time>2026-05-02T15:59:17Z</time></trkpt><trkpt lat="44.69988731132823" lon="8.03032847341183"><ele>171.0</ele><time>2026-05-02T15:59:18Z</time></trkpt><trkpt lat="44.699959454366045" lon="8.030367361189805"><ele>171.0</ele><time>2026-05-02T15:59:19Z</time></trkpt><trkpt lat="44.70002839696993" lon="8.030400835225615"><ele>171.0</ele><time>2026-05-02T15:59:20Z</time></trkpt><trkpt lat="44.70008700154277" lon="8.030437546409841"><ele>171.0</ele><time>2026-05-02T15:59:21Z</time></trkpt><trkpt lat="44.700171249708596" lon="8.030497834298354"><ele>171.0</ele><time>2026-05-02T15:59:23Z</time></trkpt><trkpt lat="44.700259786828674" lon="8.030595229409915"><ele>171.0</ele><time>2026-05-02T15:59:25Z</time></trkpt><trkpt lat="44.700321213736665" lon="8.030632134133828"><ele>171.0</ele><time>2026-05-02T15:59:26Z</time></trkpt><trkpt lat="44.7003993157858" lon="8.030634320775512"><ele>170.83333333333334</ele><time>2026-05-02T15:59:27Z</time></trkpt><trkpt lat="44.70047668484127" lon="8.030659123032226"><ele>170.66666666666666</ele><time>2026-05-02T15:59:28Z</time></trkpt><trkpt lat="44.70055713931227" lon="8.030700954047223"><ele>170.5</ele><time>2026-05-02T15:59:29Z</time></trkpt><trkpt lat="44.70063223744163" lon="8.0307406809821"><ele>170.33333333333331</ele><time>2026-05-02T15:59:30Z</time></trkpt><trkpt lat="44.7007102060183" lon="8.03078679910323"><ele>170.16666666666666</ele><time>2026-05-02T15:59:31Z</time></trkpt><trkpt lat="44.700788968954214" lon="8.030833518104505"><ele>170.0</ele><time>2026-05-02T15:59:32Z</time></trkpt><trkpt lat="44.7008690638539" lon="8.030884487564146"><ele>170.0</ele><time>2026-05-02T15:59:33Z</time></trkpt><trkpt lat="44.70094815488543" lon="8.030934582289444"><ele>170.0</ele><time>2026-05-02T15:59:34Z</time></trkpt><trkpt lat="44.70103849191611" lon="8.0309866530981"><ele>170.0</ele><time>2026-05-02T15:59:35Z</time></trkpt><trkpt lat="44.70114204087345" lon="8.031060228597978"><ele>170.0</ele><time>2026-05-02T15:59:36Z</time></trkpt><trkpt lat="44.70125109744171" lon="8.031148960057914"><ele>170.0</ele><time>2026-05-02T15:59:37Z</time></trkpt><trkpt lat="44.70135806930359" lon="8.031246960313963"><ele>170.0</ele><time>2026-05-02T15:59:38Z</time></trkpt><trkpt lat="44.70144880383686" lon="8.031338812738522"><ele>170.0</ele><time>2026-05-02T15:59:39Z</time></trkpt><trkpt lat="44.701533391984135" lon="8.0314246952676"><ele>170.0</ele><time>2026-05-02T15:59:40Z</time></trkpt><trkpt lat="44.701610882695185" lon="8.031507928648097"><ele>170.0</ele><time>2026-05-02T15:59:41Z</time></trkpt><trkpt lat="44.701677747931456" lon="8.03158427955957"><ele>170.0</ele><time>2026-05-02T15:59:42Z</time></trkpt><trkpt lat="44.70175380690623" lon="8.03167711665877"><ele>170.0</ele><time>2026-05-02T15:59:44Z</time></trkpt><trkpt lat="44.70180965156921" lon="8.031726685676926"><ele>170.0</ele><time>2026-05-02T15:59:48Z</time></trkpt><trkpt lat="44.70186305091748" lon="8.03178342697283"><ele>170.0</ele><time>2026-05-02T15:59:51Z</time></trkpt><trkpt lat="44.70192932453218" lon="8.031846691939174"><ele>170.0</ele><time>2026-05-02T15:59:53Z</time></trkpt><trkpt lat="44.7019984148285" lon="8.031917997266058"><ele>170.0</ele><time>2026-05-02T15:59:55Z</time></trkpt><trkpt lat="44.70206851111654" lon="8.031988937706119"><ele>170.0</ele><time>2026-05-02T15:59:57Z</time></trkpt><trkpt lat="44.702116175921695" lon="8.032053877635365"><ele>170.0</ele><time>2026-05-02T16:00:00Z</time></trkpt><trkpt lat="44.7021724134334" lon="8.032121981956049"><ele>170.0</ele><time>2026-05-02T16:00:07Z</time></trkpt><trkpt lat="44.70224051828983" lon="8.032185695810247"><ele>170.0</ele><time>2026-05-02T16:00:09Z</time></trkpt><trkpt lat="44.70230748621202" lon="8.032275882791176"><ele>170.0</ele><time>2026-05-02T16:00:12Z</time></trkpt><trkpt lat="44.70238672861549" lon="8.032376676646985"><ele>170.0</ele><time>2026-05-02T16:00:14Z</time></trkpt><trkpt lat="44.70245091782037" lon="8.032377377068025"><ele>170.0</ele><time>2026-05-02T16:00:15Z</time></trkpt><trkpt lat="44.70250936356886" lon="8.032311865061596"><ele>170.0</ele><time>2026-05-02T16:00:16Z</time></trkpt><trkpt lat="44.70253392897109" lon="8.032206741345169"><ele>170.0</ele><time>2026-05-02T16:00:17Z</time></trkpt><trkpt lat="44.70253009113235" lon="8.032081539124723"><ele>170.0</ele><time>2026-05-02T16:00:18Z</time></trkpt><trkpt lat="44.70253493485983" lon="8.031957934007787"><ele>170.0</ele><time>2026-05-02T16:00:19Z</time></trkpt><trkpt lat="44.702570083382945" lon="8.031835368364725"><ele>170.0</ele><time>2026-05-02T16:00:20Z</time></trkpt><trkpt lat="44.702625792919065" lon="8.03171575187702"><ele>169.6</ele><time>2026-05-02T16:00:21Z</time></trkpt><trkpt lat="44.7026923114972" lon="8.031595298659605"><ele>169.2</ele><time>2026-05-02T16:00:22Z</time></trkpt><trkpt lat="44.70275111828726" lon="8.031486355403526"><ele>168.8</ele><time>2026-05-02T16:00:23Z</time></trkpt><trkpt lat="44.70280819109203" lon="8.031388643684652"><ele>168.4</ele><time>2026-05-02T16:00:24Z</time></trkpt><trkpt lat="44.70286228774324" lon="8.03129862964877"><ele>168.0</ele><time>2026-05-02T16:00:25Z</time></trkpt><trkpt lat="44.70292401332819" lon="8.031203033156434"><ele>168.0</ele><time>2026-05-02T16:00:26Z</time></trkpt><trkpt lat="44.70295820892822" lon="8.031092728577178"><ele>168.0</ele><time>2026-05-02T16:00:27Z</time></trkpt><trkpt lat="44.703013268150094" lon="8.030988159310198"><ele>168.0</ele><time>2026-05-02T16:00:28Z</time></trkpt><trkpt lat="44.703122537182026" lon="8.03076253615491"><ele>168.0</ele><time>2026-05-02T16:00:30Z</time></trkpt><trkpt lat="44.70318111505172" lon="8.030648080669506"><ele>168.0</ele><time>2026-05-02T16:00:31Z</time></trkpt><trkpt lat="44.70323995979827" lon="8.03053234313467"><ele>168.0</ele><time>2026-05-02T16:00:32Z</time></trkpt><trkpt lat="44.70330344069111" lon="8.030414089310865"><ele>168.0</ele><time>2026-05-02T16:00:33Z</time></trkpt><trkpt lat="44.703364938617426" lon="8.030295117396728"><ele>168.0</ele><time>2026-05-02T16:00:34Z</time></trkpt><trkpt lat="44.703430499990276" lon="8.030155402213605"><ele>168.0</ele><time>2026-05-02T16:00:35Z</time></trkpt><trkpt lat="44.703500083168414" lon="8.030003007861156"><ele>168.25</ele><time>2026-05-02T16:00:36Z</time></trkpt><trkpt lat="44.70358101361256" lon="8.029832673774422"><ele>168.5</ele><time>2026-05-02T16:00:37Z</time></trkpt><trkpt lat="44.70366711814049" lon="8.029655144121925"><ele>168.75</ele><time>2026-05-02T16:00:38Z</time></trkpt><trkpt lat="44.703743749291675" lon="8.029493401255769"><ele>169.0</ele><time>2026-05-02T16:00:39Z</time></trkpt><trkpt lat="44.70381780088565" lon="8.029350179553372"><ele>169.0</ele><time>2026-05-02T16:00:40Z</time></trkpt><trkpt lat="44.70388858879749" lon="8.02921216124498"><ele>169.0</ele><time>2026-05-02T16:00:41Z</time></trkpt><trkpt lat="44.70396422008269" lon="8.02906741172986"><ele>169.0</ele><time>2026-05-02T16:00:42Z</time></trkpt><trkpt lat="44.70403720312917" lon="8.028916230569996"><ele>169.0</ele><time>2026-05-02T16:00:43Z</time></trkpt><trkpt lat="44.70409658621233" lon="8.028776256722434"><ele>168.75</ele><time>2026-05-02T16:00:44Z</time></trkpt><trkpt lat="44.70414368544667" lon="8.028644391139114"><ele>168.5</ele><time>2026-05-02T16:00:45Z</time></trkpt><trkpt lat="44.70419769615518" lon="8.028506169006318"><ele>168.25</ele><time>2026-05-02T16:00:46Z</time></trkpt><trkpt lat="44.704261664563404" lon="8.028367261588953"><ele>168.0</ele><time>2026-05-02T16:00:47Z</time></trkpt><trkpt lat="44.70433989870578" lon="8.028237830925592"><ele>167.0</ele><time>2026-05-02T16:00:48Z</time></trkpt><trkpt lat="44.70442125216348" lon="8.028111073450075"><ele>166.0</ele><time>2026-05-02T16:00:49Z</time></trkpt><trkpt lat="44.70449869603166" lon="8.02799056551923"><ele>165.0</ele><time>2026-05-02T16:00:50Z</time></trkpt><trkpt lat="44.704572089238894" lon="8.027876094001654"><ele>164.0</ele><time>2026-05-02T16:00:51Z</time></trkpt><trkpt lat="44.70463993155622" lon="8.027769947967888"><ele>163.0</ele><time>2026-05-02T16:00:52Z</time></trkpt><trkpt lat="44.70470850455562" lon="8.027678610818521"><ele>163.0</ele><time>2026-05-02T16:00:53Z</time></trkpt><trkpt lat="44.70476248339502" lon="8.027593602895653"><ele>163.0</ele><time>2026-05-02T16:00:54Z</time></trkpt><trkpt lat="44.704872067131284" lon="8.027562471872546"><ele>163.0</ele><time>2026-05-02T16:00:55Z</time></trkpt><trkpt lat="44.70497824081002" lon="8.02752775550868"><ele>163.0</ele><time>2026-05-02T16:00:56Z</time></trkpt><trkpt lat="44.705093260241455" lon="8.02749148198966"><ele>163.0</ele><time>2026-05-02T16:00:57Z</time></trkpt><trkpt lat="44.705235731470374" lon="8.027445942832975"><ele>162.0</ele><time>2026-05-02T16:00:58Z</time></trkpt><trkpt lat="44.705403281182534" lon="8.02739061015245"><ele>161.0</ele><time>2026-05-02T16:00:59Z</time></trkpt><trkpt lat="44.70558481706424" lon="8.02736461228416"><ele>160.0</ele><time>2026-05-02T16:01:00Z</time></trkpt><trkpt lat="44.70576219592278" lon="8.027294162018524"><ele>160.0</ele><time>2026-05-02T16:01:01Z</time></trkpt><trkpt lat="44.70595432610262" lon="8.027244615828607"><ele>160.0</ele><time>2026-05-02T16:01:02Z</time></trkpt><trkpt lat="44.70615120520891" lon="8.02719248533826"><ele>160.0</ele><time>2026-05-02T16:01:03Z</time></trkpt><trkpt lat="44.70634177919347" lon="8.027140102404775"><ele>161.25</ele><time>2026-05-02T16:01:04Z</time></trkpt><trkpt lat="44.70650692441048" lon="8.02709821837886"><ele>162.5</ele><time>2026-05-02T16:01:05Z</time></trkpt><trkpt lat="44.706643889071515" lon="8.027065719779985"><ele>163.75</ele><time>2026-05-02T16:01:06Z</time></trkpt><trkpt lat="44.70676145716984" lon="8.02703769415863"><ele>165.0</ele><time>2026-05-02T16:01:07Z</time></trkpt><trkpt lat="44.70687136051633" lon="8.027007764532168"><ele>165.0</ele><time>2026-05-02T16:01:08Z</time></trkpt><trkpt lat="44.70698629322483" lon="8.026969606627837"><ele>165.0</ele><time>2026-05-02T16:01:09Z</time></trkpt><trkpt lat="44.70710699814313" lon="8.02693578148461"><ele>165.0</ele><time>2026-05-02T16:01:10Z</time></trkpt><trkpt lat="44.707235056570966" lon="8.02690201748347"><ele>165.0</ele><time>2026-05-02T16:01:11Z</time></trkpt><trkpt lat="44.70736327861891" lon="8.026866412588644"><ele>165.0</ele><time>2026-05-02T16:01:12Z</time></trkpt><trkpt lat="44.70748750419756" lon="8.026833015415168"><ele>165.0</ele><time>2026-05-02T16:01:13Z</time></trkpt><trkpt lat="44.7076005912023" lon="8.026802356780133"><ele>165.0</ele><time>2026-05-02T16:01:14Z</time></trkpt><trkpt lat="44.70767195699007" lon="8.02678580882581"><ele>165.0</ele><time>2026-05-02T16:01:15Z</time></trkpt><trkpt lat="44.70773474205742" lon="8.026767683791585"><ele>165.0</ele><time>2026-05-02T16:01:16Z</time></trkpt><trkpt lat="44.70781740585771" lon="8.026744862094743"><ele>165.0</ele><time>2026-05-02T16:01:17Z</time></trkpt><trkpt lat="44.7079362018036" lon="8.026729625512047"><ele>165.0</ele><time>2026-05-02T16:01:18Z</time></trkpt><trkpt lat="44.708088522812595" lon="8.026681251750466"><ele>165.0</ele><time>2026-05-02T16:01:19Z</time></trkpt><trkpt lat="44.70825272787297" lon="8.026609114806204"><ele>165.0</ele><time>2026-05-02T16:01:20Z</time></trkpt><trkpt lat="44.708401126255424" lon="8.026560169635223"><ele>165.0</ele><time>2026-05-02T16:01:21Z</time></trkpt><trkpt lat="44.70853091153301" lon="8.026523415408409"><ele>165.0</ele><time>2026-05-02T16:01:22Z</time></trkpt><trkpt lat="44.708623111015385" lon="8.026503332929623"><ele>165.0</ele><time>2026-05-02T16:01:23Z</time></trkpt><trkpt lat="44.7086994082333" lon="8.02648676667908"><ele>165.0</ele><time>2026-05-02T16:01:24Z</time></trkpt><trkpt lat="44.70876794614045" lon="8.026469762653237"><ele>165.0</ele><time>2026-05-02T16:01:25Z</time></trkpt><trkpt lat="44.70883225551355" lon="8.026454458591058"><ele>165.0</ele><time>2026-05-02T16:01:26Z</time></trkpt><trkpt lat="44.70889854340147" lon="8.026439696335798"><ele>165.16666666666666</ele><time>2026-05-02T16:01:27Z</time></trkpt><trkpt lat="44.708976879237724" lon="8.02643743477919"><ele>165.33333333333334</ele><time>2026-05-02T16:01:28Z</time></trkpt><trkpt lat="44.709060325991565" lon="8.026458217794406"><ele>165.5</ele><time>2026-05-02T16:01:29Z</time></trkpt><trkpt lat="44.70914637893335" lon="8.026499128484074"><ele>165.66666666666669</ele><time>2026-05-02T16:01:30Z</time></trkpt><trkpt lat="44.70921684214523" lon="8.026555800953464"><ele>165.83333333333334</ele><time>2026-05-02T16:01:31Z</time></trkpt><trkpt lat="44.7092813017548" lon="8.026614618520009"><ele>166.0</ele><time>2026-05-02T16:01:32Z</time></trkpt><trkpt lat="44.70934238869538" lon="8.026658383809611"><ele>166.0</ele><time>2026-05-02T16:01:33Z</time></trkpt><trkpt lat="44.709407009370054" lon="8.02668988385808"><ele>166.0</ele><time>2026-05-02T16:01:34Z</time></trkpt><trkpt lat="44.70948022341638" lon="8.026687891943055"><ele>166.0</ele><time>2026-05-02T16:01:35Z</time></trkpt><trkpt lat="44.70955495383495" lon="8.026656184162862"><ele>166.0</ele><time>2026-05-02T16:01:36Z</time></trkpt><trkpt lat="44.70961958262574" lon="8.026570286390948"><ele>166.0</ele><time>2026-05-02T16:01:37Z</time></trkpt><trkpt lat="44.70965948883054" lon="8.026447316399326"><ele>166.0</ele><time>2026-05-02T16:01:38Z</time></trkpt><trkpt lat="44.709702239543915" lon="8.026307558656164"><ele>166.5</ele><time>2026-05-02T16:01:39Z</time></trkpt><trkpt lat="44.709775455707785" lon="8.026183070466198"><ele>167.0</ele><time>2026-05-02T16:01:40Z</time></trkpt><trkpt lat="44.70988367061258" lon="8.026093752502442"><ele>167.5</ele><time>2026-05-02T16:01:41Z</time></trkpt><trkpt lat="44.710018172672825" lon="8.026021468165634"><ele>168.0</ele><time>2026-05-02T16:01:42Z</time></trkpt><trkpt lat="44.71015383159674" lon="8.025953818499188"><ele>167.33333333333334</ele><time>2026-05-02T16:01:43Z</time></trkpt><trkpt lat="44.71029300123087" lon="8.025868189870874"><ele>166.66666666666669</ele><time>2026-05-02T16:01:44Z</time></trkpt><trkpt lat="44.7104343862614" lon="8.025772575153553"><ele>166.0</ele><time>2026-05-02T16:01:45Z</time></trkpt><trkpt lat="44.710571173814685" lon="8.025668329666376"><ele>165.75</ele><time>2026-05-02T16:01:46Z</time></trkpt><trkpt lat="44.71069098491957" lon="8.02557152105425"><ele>165.5</ele><time>2026-05-02T16:01:47Z</time></trkpt><trkpt lat="44.71080367317446" lon="8.025472867962211"><ele>165.25</ele><time>2026-05-02T16:01:48Z</time></trkpt><trkpt lat="44.71090749566713" lon="8.025376441602058"><ele>165.0</ele><time>2026-05-02T16:01:49Z</time></trkpt><trkpt lat="44.71100102524381" lon="8.025281101945296"><ele>165.0</ele><time>2026-05-02T16:01:50Z</time></trkpt><trkpt lat="44.711085345979065" lon="8.025181373362733"><ele>165.0</ele><time>2026-05-02T16:01:51Z</time></trkpt><trkpt lat="44.71118816465341" lon="8.025103835515122"><ele>165.0</ele><time>2026-05-02T16:01:52Z</time></trkpt><trkpt lat="44.71128870992845" lon="8.024962948473974"><ele>165.0</ele><time>2026-05-02T16:01:53Z</time></trkpt><trkpt lat="44.71139117770207" lon="8.024833792832611"><ele>165.0</ele><time>2026-05-02T16:01:54Z</time></trkpt><trkpt lat="44.711490848839624" lon="8.024693788749403"><ele>165.0</ele><time>2026-05-02T16:01:55Z</time></trkpt><trkpt lat="44.711591763551596" lon="8.024542972709332"><ele>165.0</ele><time>2026-05-02T16:01:56Z</time></trkpt><trkpt lat="44.711697489031714" lon="8.024383685718888"><ele>165.0</ele><time>2026-05-02T16:01:57Z</time></trkpt><trkpt lat="44.711798245292115" lon="8.024222757217085"><ele>165.25</ele><time>2026-05-02T16:01:58Z</time></trkpt><trkpt lat="44.71188447866237" lon="8.024080862564348"><ele>165.5</ele><time>2026-05-02T16:01:59Z</time></trkpt><trkpt lat="44.71196342197634" lon="8.023942620064249"><ele>165.75</ele><time>2026-05-02T16:02:00Z</time></trkpt><trkpt lat="44.712034206390136" lon="8.023806405906326"><ele>166.0</ele><time>2026-05-02T16:02:01Z</time></trkpt><trkpt lat="44.71210616936943" lon="8.023658297850798"><ele>166.25</ele><time>2026-05-02T16:02:02Z</time></trkpt><trkpt lat="44.71218086047089" lon="8.023502758310473"><ele>166.5</ele><time>2026-05-02T16:02:03Z</time></trkpt><trkpt lat="44.712248667009234" lon="8.02333855959942"><ele>166.75</ele><time>2026-05-02T16:02:04Z</time></trkpt><trkpt lat="44.712316847048065" lon="8.023155149935258"><ele>167.0</ele><time>2026-05-02T16:02:05Z</time></trkpt><trkpt lat="44.71241736359641" lon="8.022961959903688"><ele>167.0</ele><time>2026-05-02T16:02:06Z</time></trkpt><trkpt lat="44.71249876588273" lon="8.022741113494485"><ele>167.0</ele><time>2026-05-02T16:02:07Z</time></trkpt><trkpt lat="44.71255513658259" lon="8.022584832356456"><ele>167.0</ele><time>2026-05-02T16:02:08Z</time></trkpt><trkpt lat="44.712641742312385" lon="8.022344441505616"><ele>167.0</ele><time>2026-05-02T16:02:09Z</time></trkpt><trkpt lat="44.71270893560241" lon="8.022086696732721"><ele>167.0</ele><time>2026-05-02T16:02:10Z</time></trkpt><trkpt lat="44.71279616899905" lon="8.021859563578873"><ele>167.0</ele><time>2026-05-02T16:02:11Z</time></trkpt><trkpt lat="44.7128711836768" lon="8.021658091157924"><ele>167.0</ele><time>2026-05-02T16:02:12Z</time></trkpt><trkpt lat="44.712941248534214" lon="8.021467105258974"><ele>167.0</ele><time>2026-05-02T16:02:13Z</time></trkpt><trkpt lat="44.713003063082354" lon="8.021290522705723"><ele>167.0</ele><time>2026-05-02T16:02:14Z</time></trkpt><trkpt lat="44.713063093411236" lon="8.021122346879446"><ele>167.0</ele><time>2026-05-02T16:02:15Z</time></trkpt><trkpt lat="44.71312385184338" lon="8.020943708893483"><ele>167.0</ele><time>2026-05-02T16:02:16Z</time></trkpt><trkpt lat="44.71318146349263" lon="8.02078165588388"><ele>167.0</ele><time>2026-05-02T16:02:17Z</time></trkpt><trkpt lat="44.713241570418866" lon="8.02061206971355"><ele>167.0</ele><time>2026-05-02T16:02:18Z</time></trkpt><trkpt lat="44.71330983245995" lon="8.020424394680834"><ele>167.0</ele><time>2026-05-02T16:02:19Z</time></trkpt><trkpt lat="44.71338315645305" lon="8.020233601807202"><ele>167.0</ele><time>2026-05-02T16:02:20Z</time></trkpt><trkpt lat="44.71345712185971" lon="8.02002531017634"><ele>167.0</ele><time>2026-05-02T16:02:21Z</time></trkpt><trkpt lat="44.713537184488125" lon="8.019800962621337"><ele>167.0</ele><time>2026-05-02T16:02:22Z</time></trkpt><trkpt lat="44.713608417841975" lon="8.019592032943057"><ele>167.0</ele><time>2026-05-02T16:02:23Z</time></trkpt><trkpt lat="44.71367656217003" lon="8.019397681321324"><ele>167.0</ele><time>2026-05-02T16:02:24Z</time></trkpt><trkpt lat="44.713749627658736" lon="8.019183489327526"><ele>167.0</ele><time>2026-05-02T16:02:25Z</time></trkpt><trkpt lat="44.713823569577286" lon="8.018960574117994"><ele>167.0</ele><time>2026-05-02T16:02:26Z</time></trkpt><trkpt lat="44.71388387511018" lon="8.018745215094942"><ele>167.0</ele><time>2026-05-02T16:02:27Z</time></trkpt><trkpt lat="44.71393335546146" lon="8.018526536222232"><ele>167.0</ele><time>2026-05-02T16:02:28Z</time></trkpt><trkpt lat="44.71398834017461" lon="8.018290469061448"><ele>167.0</ele><time>2026-05-02T16:02:29Z</time></trkpt><trkpt lat="44.71402686369851" lon="8.018020156579567"><ele>167.0</ele><time>2026-05-02T16:02:30Z</time></trkpt><trkpt lat="44.71407042963895" lon="8.017732427653733"><ele>167.0</ele><time>2026-05-02T16:02:31Z</time></trkpt><trkpt lat="44.714110068102705" lon="8.017448192445439"><ele>167.0</ele><time>2026-05-02T16:02:32Z</time></trkpt><trkpt lat="44.71413940582749" lon="8.017178054790671"><ele>167.0</ele><time>2026-05-02T16:02:33Z</time></trkpt><trkpt lat="44.714158027974264" lon="8.016940644000279"><ele>167.0</ele><time>2026-05-02T16:02:34Z</time></trkpt><trkpt lat="44.71416903321945" lon="8.016748642592484"><ele>167.25</ele><time>2026-05-02T16:02:35Z</time></trkpt><trkpt lat="44.714177185351225" lon="8.016575088151438"><ele>167.5</ele><time>2026-05-02T16:02:36Z</time></trkpt><trkpt lat="44.71418328676801" lon="8.016406449782885"><ele>167.75</ele><time>2026-05-02T16:02:37Z</time></trkpt><trkpt lat="44.714188319994115" lon="8.01626068819606"><ele>168.0</ele><time>2026-05-02T16:02:38Z</time></trkpt><trkpt lat="44.71419644567506" lon="8.016101190526177"><ele>168.0</ele><time>2026-05-02T16:02:39Z</time></trkpt><trkpt lat="44.71421574498316" lon="8.015927340939685"><ele>168.0</ele><time>2026-05-02T16:02:40Z</time></trkpt><trkpt lat="44.71424223864933" lon="8.015749218821252"><ele>168.0</ele><time>2026-05-02T16:02:41Z</time></trkpt><trkpt lat="44.71428639384468" lon="8.015552442700532"><ele>168.0</ele><time>2026-05-02T16:02:42Z</time></trkpt><trkpt lat="44.71433429213831" lon="8.015362272702346"><ele>168.25</ele><time>2026-05-02T16:02:43Z</time></trkpt><trkpt lat="44.714388948339156" lon="8.015181866739978"><ele>168.5</ele><time>2026-05-02T16:02:44Z</time></trkpt><trkpt lat="44.7144446039949" lon="8.015023268660363"><ele>168.75</ele><time>2026-05-02T16:02:45Z</time></trkpt><trkpt lat="44.71450802145633" lon="8.014868677810666"><ele>169.0</ele><time>2026-05-02T16:02:46Z</time></trkpt><trkpt lat="44.71458670489551" lon="8.01470728947308"><ele>169.33333333333334</ele><time>2026-05-02T16:02:47Z</time></trkpt><trkpt lat="44.714703333396336" lon="8.014560342731436"><ele>169.66666666666666</ele><time>2026-05-02T16:02:48Z</time></trkpt><trkpt lat="44.714793074117935" lon="8.014369221005204"><ele>170.0</ele><time>2026-05-02T16:02:49Z</time></trkpt><trkpt lat="44.71488675601152" lon="8.01423246705481"><ele>170.0</ele><time>2026-05-02T16:02:50Z</time></trkpt><trkpt lat="44.714955916440886" lon="8.014119815126083"><ele>170.0</ele><time>2026-05-02T16:02:51Z</time></trkpt><trkpt lat="44.71501681001148" lon="8.014013493775527"><ele>170.0</ele><time>2026-05-02T16:02:52Z</time></trkpt><trkpt lat="44.71509391669426" lon="8.013902786788115"><ele>170.0</ele><time>2026-05-02T16:02:53Z</time></trkpt><trkpt lat="44.71520031073736" lon="8.013778265184897"><ele>170.0</ele><time>2026-05-02T16:02:54Z</time></trkpt><trkpt lat="44.715306629446395" lon="8.013633399410113"><ele>170.0</ele><time>2026-05-02T16:02:55Z</time></trkpt><trkpt lat="44.715406216218724" lon="8.013490892326258"><ele>170.0</ele><time>2026-05-02T16:02:56Z</time></trkpt><trkpt lat="44.71549450195169" lon="8.01336019550523"><ele>170.0</ele><time>2026-05-02T16:02:57Z</time></trkpt><trkpt lat="44.715576594590864" lon="8.013241109648249"><ele>170.0</ele><time>2026-05-02T16:02:58Z</time></trkpt><trkpt lat="44.71565732689505" lon="8.013124161830133"><ele>170.0</ele><time>2026-05-02T16:02:59Z</time></trkpt><trkpt lat="44.71573899791531" lon="8.013004609899722"><ele>170.0</ele><time>2026-05-02T16:03:00Z</time></trkpt><trkpt lat="44.71581892584579" lon="8.012891270195455"><ele>170.0</ele><time>2026-05-02T16:03:01Z</time></trkpt><trkpt lat="44.71589082230679" lon="8.012785142840425"><ele>170.0</ele><time>2026-05-02T16:03:02Z</time></trkpt><trkpt lat="44.715960481790155" lon="8.012688204100696"><ele>170.0</ele><time>2026-05-02T16:03:03Z</time></trkpt><trkpt lat="44.716032231636795" lon="8.012581768937705"><ele>170.0</ele><time>2026-05-02T16:03:04Z</time></trkpt><trkpt lat="44.71610908268415" lon="8.01246821827466"><ele>170.0</ele><time>2026-05-02T16:03:05Z</time></trkpt><trkpt lat="44.71618182268459" lon="8.01235913603817"><ele>170.0</ele><time>2026-05-02T16:03:06Z</time></trkpt><trkpt lat="44.71625543422375" lon="8.012252904724237"><ele>170.0</ele><time>2026-05-02T16:03:07Z</time></trkpt><trkpt lat="44.71634046501802" lon="8.012130241921701"><ele>170.0</ele><time>2026-05-02T16:03:08Z</time></trkpt><trkpt lat="44.71645659657105" lon="8.011996279819293"><ele>170.0</ele><time>2026-05-02T16:03:09Z</time></trkpt><trkpt lat="44.716573582253154" lon="8.011828244920046"><ele>170.0</ele><time>2026-05-02T16:03:10Z</time></trkpt><trkpt lat="44.716695690632974" lon="8.011652851360399"><ele>170.0</ele><time>2026-05-02T16:03:11Z</time></trkpt><trkpt lat="44.71680833628526" lon="8.011489889481314"><ele>170.0</ele><time>2026-05-02T16:03:12Z</time></trkpt><trkpt lat="44.71689446574821" lon="8.011337157273529"><ele>170.0</ele><time>2026-05-02T16:03:13Z</time></trkpt><trkpt lat="44.71697910860969" lon="8.011221421467186"><ele>170.0</ele><time>2026-05-02T16:03:14Z</time></trkpt><trkpt lat="44.71704404929005" lon="8.011131702252445"><ele>170.16666666666666</ele><time>2026-05-02T16:03:15Z</time></trkpt><trkpt lat="44.717100817252486" lon="8.011053021034758"><ele>170.33333333333331</ele><time>2026-05-02T16:03:16Z</time></trkpt><trkpt lat="44.7171932495203" lon="8.010933348473065"><ele>170.5</ele><time>2026-05-02T16:03:18Z</time></trkpt><trkpt lat="44.71724659402305" lon="8.010860980372613"><ele>170.66666666666666</ele><time>2026-05-02T16:03:19Z</time></trkpt><trkpt lat="44.71730304384465" lon="8.010788105128976"><ele>170.83333333333334</ele><time>2026-05-02T16:03:20Z</time></trkpt><trkpt lat="44.71735668386026" lon="8.010726943452784"><ele>171.0</ele><time>2026-05-02T16:03:21Z</time></trkpt><trkpt lat="44.71742916927194" lon="8.010668396610019"><ele>171.0</ele><time>2026-05-02T16:03:23Z</time></trkpt><trkpt lat="44.71749736332691" lon="8.01062958857191"><ele>171.0</ele><time>2026-05-02T16:03:25Z</time></trkpt><trkpt lat="44.717600557471755" lon="8.010634997163825"><ele>171.0</ele><time>2026-05-02T16:03:27Z</time></trkpt><trkpt lat="44.717718530132366" lon="8.010627631228292"><ele>171.0</ele><time>2026-05-02T16:03:29Z</time></trkpt><trkpt lat="44.717778181845475" lon="8.010570261848292"><ele>171.0</ele><time>2026-05-02T16:03:30Z</time></trkpt><trkpt lat="44.717821915619666" lon="8.01048815281861"><ele>171.0</ele><time>2026-05-02T16:03:31Z</time></trkpt><trkpt lat="44.717864894446315" lon="8.010402238318774"><ele>171.0</ele><time>2026-05-02T16:03:32Z</time></trkpt><trkpt lat="44.71790305675804" lon="8.010314541375095"><ele>171.0</ele><time>2026-05-02T16:03:33Z</time></trkpt><trkpt lat="44.718014334628116" lon="8.010286736884089"><ele>171.0</ele><time>2026-05-02T16:03:34Z</time></trkpt><trkpt lat="44.71810331176725" lon="8.010269343852478"><ele>171.0</ele><time>2026-05-02T16:03:35Z</time></trkpt><trkpt lat="44.718198431220436" lon="8.01024047846876"><ele>171.0</ele><time>2026-05-02T16:03:36Z</time></trkpt><trkpt lat="44.71831066178803" lon="8.010204670821274"><ele>171.0</ele><time>2026-05-02T16:03:37Z</time></trkpt><trkpt lat="44.718434727984146" lon="8.010176114437655"><ele>171.0</ele><time>2026-05-02T16:03:38Z</time></trkpt><trkpt lat="44.7185677534349" lon="8.010144857598846"><ele>171.0</ele><time>2026-05-02T16:03:39Z</time></trkpt><trkpt lat="44.71871168366639" lon="8.010146067652654"><ele>171.0</ele><time>2026-05-02T16:03:40Z</time></trkpt><trkpt lat="44.71885099041856" lon="8.010116438853556"><ele>171.20000000000002</ele><time>2026-05-02T16:03:41Z</time></trkpt><trkpt lat="44.71896856953084" lon="8.010090743874983"><ele>171.4</ele><time>2026-05-02T16:03:42Z</time></trkpt><trkpt lat="44.71907370993705" lon="8.010067674894463"><ele>171.6</ele><time>2026-05-02T16:03:43Z</time></trkpt><trkpt lat="44.7191757900415" lon="8.010045277381376"><ele>171.8</ele><time>2026-05-02T16:03:44Z</time></trkpt><trkpt lat="44.71928071238795" lon="8.010022256264236"><ele>172.0</ele><time>2026-05-02T16:03:45Z</time></trkpt><trkpt lat="44.719386393267875" lon="8.009999267574901"><ele>172.0</ele><time>2026-05-02T16:03:46Z</time></trkpt><trkpt lat="44.719490707506914" lon="8.00997671699552"><ele>172.0</ele><time>2026-05-02T16:03:47Z</time></trkpt><trkpt lat="44.719584813584085" lon="8.009956373208395"><ele>172.0</ele><time>2026-05-02T16:03:48Z</time></trkpt><trkpt lat="44.71967917214028" lon="8.009935974837314"><ele>172.0</ele><time>2026-05-02T16:03:49Z</time></trkpt><trkpt lat="44.719774926351256" lon="8.00991496134222"><ele>172.0</ele><time>2026-05-02T16:03:50Z</time></trkpt><trkpt lat="44.71986675934087" lon="8.00989476696067"><ele>172.0</ele><time>2026-05-02T16:03:51Z</time></trkpt><trkpt lat="44.719953091134784" lon="8.009875782327724"><ele>172.0</ele><time>2026-05-02T16:03:52Z</time></trkpt><trkpt lat="44.720026024554464" lon="8.009859744066526"><ele>172.0</ele><time>2026-05-02T16:03:53Z</time></trkpt><trkpt lat="44.72010217695388" lon="8.009842997904597"><ele>172.0</ele><time>2026-05-02T16:03:54Z</time></trkpt><trkpt lat="44.72018318812007" lon="8.00982518332067"><ele>172.0</ele><time>2026-05-02T16:03:55Z</time></trkpt><trkpt lat="44.72025280171735" lon="8.009809890420373"><ele>172.0</ele><time>2026-05-02T16:03:56Z</time></trkpt><trkpt lat="44.720382779898614" lon="8.009781386113174"><ele>172.16666666666669</ele><time>2026-05-02T16:03:58Z</time></trkpt><trkpt lat="44.720458754260605" lon="8.009738263320093"><ele>172.33333333333334</ele><time>2026-05-02T16:03:59Z</time></trkpt><trkpt lat="44.72054001980905" lon="8.009719472350966"><ele>172.5</ele><time>2026-05-02T16:04:00Z</time></trkpt><trkpt lat="44.72062133165837" lon="8.009704800041163"><ele>172.66666666666666</ele><time>2026-05-02T16:04:01Z</time></trkpt><trkpt lat="44.72068584493389" lon="8.009689187254992"><ele>172.83333333333331</ele><time>2026-05-02T16:04:02Z</time></trkpt><trkpt lat="44.72076824521113" lon="8.009677820179997"><ele>173.0</ele><time>2026-05-02T16:04:04Z</time></trkpt><trkpt lat="44.72083910927284" lon="8.009679561859343"><ele>173.0</ele><time>2026-05-02T16:04:08Z</time></trkpt><trkpt lat="44.72092355659751" lon="8.009659857844865"><ele>173.0</ele><time>2026-05-02T16:04:11Z</time></trkpt><trkpt lat="44.7210232130624" lon="8.009650277537617"><ele>173.0</ele><time>2026-05-02T16:04:13Z</time></trkpt><trkpt lat="44.7210843625015" lon="8.009674980932553"><ele>173.0</ele><time>2026-05-02T16:04:14Z</time></trkpt><trkpt lat="44.721153701057645" lon="8.009709814930433"><ele>173.0</ele><time>2026-05-02T16:04:15Z</time></trkpt><trkpt lat="44.72122434103441" lon="8.009728579816095"><ele>173.0</ele><time>2026-05-02T16:04:16Z</time></trkpt><trkpt lat="44.72129001904728" lon="8.009710653475967"><ele>173.4</ele><time>2026-05-02T16:04:17Z</time></trkpt><trkpt lat="44.72135671025085" lon="8.009657174780104"><ele>173.8</ele><time>2026-05-02T16:04:18Z</time></trkpt><trkpt lat="44.721427030406055" lon="8.009583605731615"><ele>174.2</ele><time>2026-05-02T16:04:19Z</time></trkpt><trkpt lat="44.72148920679407" lon="8.009486375195594"><ele>174.6</ele><time>2026-05-02T16:04:20Z</time></trkpt><trkpt lat="44.721623894746145" lon="8.009488933716659"><ele>175.0</ele><time>2026-05-02T16:04:21Z</time></trkpt><trkpt lat="44.72173555889935" lon="8.00946950398035"><ele>175.0</ele><time>2026-05-02T16:04:22Z</time></trkpt><trkpt lat="44.721856053426166" lon="8.009448146980846"><ele>175.0</ele><time>2026-05-02T16:04:23Z</time></trkpt><trkpt lat="44.72198810023255" lon="8.009433773996196"><ele>175.0</ele><time>2026-05-02T16:04:24Z</time></trkpt><trkpt lat="44.722119448506625" lon="8.009405056546795"><ele>175.0</ele><time>2026-05-02T16:04:25Z</time></trkpt><trkpt lat="44.722240338009435" lon="8.009378063320447"><ele>175.25</ele><time>2026-05-02T16:04:26Z</time></trkpt><trkpt lat="44.72235968975154" lon="8.009351413435954"><ele>175.5</ele><time>2026-05-02T16:04:27Z</time></trkpt><trkpt lat="44.72249156799445" lon="8.009322660985518"><ele>175.75</ele><time>2026-05-02T16:04:28Z</time></trkpt><trkpt lat="44.722609298072754" lon="8.009297133573009"><ele>176.0</ele><time>2026-05-02T16:04:29Z</time></trkpt><trkpt lat="44.7227149206848" lon="8.009248463499654"><ele>176.0</ele><time>2026-05-02T16:04:30Z</time></trkpt><trkpt lat="44.7228256535877" lon="8.009224275998092"><ele>176.0</ele><time>2026-05-02T16:04:31Z</time></trkpt><trkpt lat="44.72293906262973" lon="8.00919937374133"><ele>176.0</ele><time>2026-05-02T16:04:32Z</time></trkpt><trkpt lat="44.72305112386407" lon="8.009176295421465"><ele>176.0</ele><time>2026-05-02T16:04:33Z</time></trkpt><trkpt lat="44.723168277234365" lon="8.009174715503569"><ele>177.0</ele><time>2026-05-02T16:04:34Z</time></trkpt><trkpt lat="44.723273424478556" lon="8.009152496964674"><ele>178.0</ele><time>2026-05-02T16:04:35Z</time></trkpt><trkpt lat="44.72336869631544" lon="8.009132058114627"><ele>179.0</ele><time>2026-05-02T16:04:36Z</time></trkpt><trkpt lat="44.72346267575742" lon="8.009111571733413"><ele>180.0</ele><time>2026-05-02T16:04:37Z</time></trkpt><trkpt lat="44.72355540811931" lon="8.009091357218004"><ele>181.0</ele><time>2026-05-02T16:04:38Z</time></trkpt><trkpt lat="44.72365076815968" lon="8.009070569893249"><ele>181.0</ele><time>2026-05-02T16:04:39Z</time></trkpt><trkpt lat="44.7237517177262" lon="8.009048409061212"><ele>181.0</ele><time>2026-05-02T16:04:40Z</time></trkpt><trkpt lat="44.723875601499834" lon="8.009020656437137"><ele>181.0</ele><time>2026-05-02T16:04:41Z</time></trkpt><trkpt lat="44.724008886063196" lon="8.008990703994046"><ele>181.0</ele><time>2026-05-02T16:04:42Z</time></trkpt><trkpt lat="44.72415618697245" lon="8.008922393117421"><ele>181.0</ele><time>2026-05-02T16:04:43Z</time></trkpt><trkpt lat="44.72430749803079" lon="8.008890230627435"><ele>181.0</ele><time>2026-05-02T16:04:44Z</time></trkpt><trkpt lat="44.724458096162856" lon="8.00885811356901"><ele>181.0</ele><time>2026-05-02T16:04:45Z</time></trkpt><trkpt lat="44.72461011664034" lon="8.008826525401439"><ele>181.0</ele><time>2026-05-02T16:04:46Z</time></trkpt><trkpt lat="44.724785553993975" lon="8.008821979371325"><ele>181.0</ele><time>2026-05-02T16:04:47Z</time></trkpt><trkpt lat="44.72494955807646" lon="8.008785951375268"><ele>181.0</ele><time>2026-05-02T16:04:48Z</time></trkpt><trkpt lat="44.72509542384808" lon="8.008754142579003"><ele>181.0</ele><time>2026-05-02T16:04:49Z</time></trkpt><trkpt lat="44.72522733828289" lon="8.00870277826188"><ele>181.0</ele><time>2026-05-02T16:04:50Z</time></trkpt><trkpt lat="44.72536952920125" lon="8.00869495817639"><ele>181.0</ele><time>2026-05-02T16:04:51Z</time></trkpt><trkpt lat="44.725526455778336" lon="8.00866174717266"><ele>181.0</ele><time>2026-05-02T16:04:52Z</time></trkpt><trkpt lat="44.72569918289867" lon="8.008593100341027"><ele>180.66666666666669</ele><time>2026-05-02T16:04:53Z</time></trkpt><trkpt lat="44.725874320585994" lon="8.008554770958025"><ele>180.33333333333334</ele><time>2026-05-02T16:04:54Z</time></trkpt><trkpt lat="44.72606063585763" lon="8.00851379413458"><ele>180.0</ele><time>2026-05-02T16:04:55Z</time></trkpt><trkpt lat="44.72622663564899" lon="8.008481494093916"><ele>179.33333333333334</ele><time>2026-05-02T16:04:56Z</time></trkpt><trkpt lat="44.726379712318455" lon="8.008452144280943"><ele>178.66666666666669</ele><time>2026-05-02T16:04:57Z</time></trkpt><trkpt lat="44.72652768515844" lon="8.008422641945371"><ele>178.0</ele><time>2026-05-02T16:04:58Z</time></trkpt><trkpt lat="44.72668219549196" lon="8.00841302927999"><ele>178.0</ele><time>2026-05-02T16:04:59Z</time></trkpt><trkpt lat="44.72683426709689" lon="8.008380286649333"><ele>178.0</ele><time>2026-05-02T16:05:00Z</time></trkpt><trkpt lat="44.7269742328421" lon="8.008327451280811"><ele>178.0</ele><time>2026-05-02T16:05:01Z</time></trkpt><trkpt lat="44.72710569247217" lon="8.008299033956645"><ele>178.0</ele><time>2026-05-02T16:05:02Z</time></trkpt><trkpt lat="44.72722545531522" lon="8.008274871111286"><ele>178.25</ele><time>2026-05-02T16:05:03Z</time></trkpt><trkpt lat="44.72734482278488" lon="8.00824866427449"><ele>178.5</ele><time>2026-05-02T16:05:04Z</time></trkpt><trkpt lat="44.72747761388374" lon="8.008218239459888"><ele>178.75</ele><time>2026-05-02T16:05:05Z</time></trkpt><trkpt lat="44.72761126736279" lon="8.008212129887381"><ele>179.0</ele><time>2026-05-02T16:05:06Z</time></trkpt><trkpt lat="44.72774291854104" lon="8.008165142503941"><ele>179.2</ele><time>2026-05-02T16:05:07Z</time></trkpt><trkpt lat="44.7278673290122" lon="8.008137926060243"><ele>179.39999999999998</ele><time>2026-05-02T16:05:08Z</time></trkpt><trkpt lat="44.72797692925457" lon="8.008114508661562"><ele>179.6</ele><time>2026-05-02T16:05:09Z</time></trkpt><trkpt lat="44.72807486621056" lon="8.008090910105354"><ele>179.8</ele><time>2026-05-02T16:05:10Z</time></trkpt><trkpt lat="44.728169139806496" lon="8.008090580919731"><ele>180.0</ele><time>2026-05-02T16:05:11Z</time></trkpt><trkpt lat="44.72825503207598" lon="8.008071810443173"><ele>180.0</ele><time>2026-05-02T16:05:12Z</time></trkpt><trkpt lat="44.72833605961479" lon="8.008054103072944"><ele>180.0</ele><time>2026-05-02T16:05:13Z</time></trkpt><trkpt lat="44.72841535731298" lon="8.008014409462422"><ele>180.0</ele><time>2026-05-02T16:05:14Z</time></trkpt><trkpt lat="44.72849248019537" lon="8.007997578378951"><ele>180.0</ele><time>2026-05-02T16:05:15Z</time></trkpt><trkpt lat="44.7286016181551" lon="8.007975438318097"><ele>180.0</ele><time>2026-05-02T16:05:17Z</time></trkpt><trkpt lat="44.72867724771832" lon="8.007969166335096"><ele>180.0</ele><time>2026-05-02T16:05:19Z</time></trkpt><trkpt lat="44.72876796387676" lon="8.008001499006653"><ele>180.16666666666666</ele><time>2026-05-02T16:05:21Z</time></trkpt><trkpt lat="44.728885524789156" lon="8.008072058004537"><ele>180.33333333333334</ele><time>2026-05-02T16:05:23Z</time></trkpt><trkpt lat="44.728955282089245" lon="8.008079406655"><ele>180.5</ele><time>2026-05-02T16:05:24Z</time></trkpt><trkpt lat="44.72901858614969" lon="8.008090550327745"><ele>180.66666666666669</ele><time>2026-05-02T16:05:25Z</time></trkpt><trkpt lat="44.729074871288645" lon="8.008021307276987"><ele>180.83333333333334</ele><time>2026-05-02T16:05:26Z</time></trkpt><trkpt lat="44.729131266583856" lon="8.007957892703946"><ele>181.0</ele><time>2026-05-02T16:05:27Z</time></trkpt><trkpt lat="44.72919214825809" lon="8.00789468348534"><ele>181.0</ele><time>2026-05-02T16:05:28Z</time></trkpt><trkpt lat="44.72926508961382" lon="8.007846489887893"><ele>181.0</ele><time>2026-05-02T16:05:29Z</time></trkpt><trkpt lat="44.72936810845827" lon="8.00783883171933"><ele>181.0</ele><time>2026-05-02T16:05:30Z</time></trkpt><trkpt lat="44.7294844920995" lon="8.007811530522188"><ele>181.0</ele><time>2026-05-02T16:05:31Z</time></trkpt><trkpt lat="44.72962080917824" lon="8.007782807082785"><ele>181.0</ele><time>2026-05-02T16:05:32Z</time></trkpt><trkpt lat="44.72978103143797" lon="8.007729047733413"><ele>181.0</ele><time>2026-05-02T16:05:33Z</time></trkpt><trkpt lat="44.729954700226" lon="8.00769323320152"><ele>181.0</ele><time>2026-05-02T16:05:34Z</time></trkpt><trkpt lat="44.730129608551586" lon="8.007657175143205"><ele>181.0</ele><time>2026-05-02T16:05:35Z</time></trkpt><trkpt lat="44.73030118224748" lon="8.007611396825803"><ele>181.66666666666669</ele><time>2026-05-02T16:05:36Z</time></trkpt><trkpt lat="44.730453414478966" lon="8.007546712129708"><ele>182.33333333333334</ele><time>2026-05-02T16:05:37Z</time></trkpt><trkpt lat="44.730606715823086" lon="8.007466884921978"><ele>183.0</ele><time>2026-05-02T16:05:38Z</time></trkpt><trkpt lat="44.7307620862857" lon="8.00736561118789"><ele>183.0</ele><time>2026-05-02T16:05:39Z</time></trkpt><trkpt lat="44.73092287521716" lon="8.007274748106152"><ele>183.0</ele><time>2026-05-02T16:05:40Z</time></trkpt><trkpt lat="44.73106443976909" lon="8.0071462467328"><ele>183.0</ele><time>2026-05-02T16:05:41Z</time></trkpt><trkpt lat="44.7312095569777" lon="8.007040726912308"><ele>184.0</ele><time>2026-05-02T16:05:42Z</time></trkpt><trkpt lat="44.73135304200836" lon="8.00693461017031"><ele>185.0</ele><time>2026-05-02T16:05:43Z</time></trkpt><trkpt lat="44.73149724071799" lon="8.006821807027794"><ele>186.0</ele><time>2026-05-02T16:05:44Z</time></trkpt><trkpt lat="44.731647785980876" lon="8.006708400752954"><ele>186.0</ele><time>2026-05-02T16:05:45Z</time></trkpt><trkpt lat="44.731792666909634" lon="8.006603784154487"><ele>186.0</ele><time>2026-05-02T16:05:46Z</time></trkpt><trkpt lat="44.73194850801067" lon="8.006476414936216"><ele>186.0</ele><time>2026-05-02T16:05:47Z</time></trkpt><trkpt lat="44.73212608671727" lon="8.00636772699148"><ele>186.66666666666666</ele><time>2026-05-02T16:05:48Z</time></trkpt><trkpt lat="44.732304351590095" lon="8.006233337492748"><ele>187.33333333333331</ele><time>2026-05-02T16:05:49Z</time></trkpt><trkpt lat="44.73249508645693" lon="8.00608954719562"><ele>188.0</ele><time>2026-05-02T16:05:50Z</time></trkpt><trkpt lat="44.73269199826081" lon="8.005941100135548"><ele>189.5</ele><time>2026-05-02T16:05:51Z</time></trkpt><trkpt lat="44.73289161052932" lon="8.00577648048669"><ele>191.0</ele><time>2026-05-02T16:05:52Z</time></trkpt><trkpt lat="44.73310572789465" lon="8.00562253716145"><ele>191.0</ele><time>2026-05-02T16:05:53Z</time></trkpt><trkpt lat="44.733322807543985" lon="8.005454403129253"><ele>191.0</ele><time>2026-05-02T16:05:54Z</time></trkpt><trkpt lat="44.73354473461181" lon="8.005283288068469"><ele>191.5</ele><time>2026-05-02T16:05:55Z</time></trkpt><trkpt lat="44.73377466721097" lon="8.005114103499833"><ele>192.0</ele><time>2026-05-02T16:05:56Z</time></trkpt><trkpt lat="44.73400684390394" lon="8.004943276599047"><ele>192.5</ele><time>2026-05-02T16:05:57Z</time></trkpt><trkpt lat="44.73424484980235" lon="8.004768660986189"><ele>193.0</ele><time>2026-05-02T16:05:58Z</time></trkpt><trkpt lat="44.73448273137065" lon="8.004589521023842"><ele>193.0</ele><time>2026-05-02T16:05:59Z</time></trkpt><trkpt lat="44.73470483989975" lon="8.004413767092323"><ele>193.0</ele><time>2026-05-02T16:06:00Z</time></trkpt><trkpt lat="44.73492736447792" lon="8.004273561777405"><ele>193.5</ele><time>2026-05-02T16:06:01Z</time></trkpt><trkpt lat="44.73515067676745" lon="8.004109101852057"><ele>194.0</ele><time>2026-05-02T16:06:02Z</time></trkpt><trkpt lat="44.735387536959145" lon="8.003931778233971"><ele>194.0</ele><time>2026-05-02T16:06:03Z</time></trkpt><trkpt lat="44.73562750314718" lon="8.003750020815096"><ele>194.0</ele><time>2026-05-02T16:06:04Z</time></trkpt><trkpt lat="44.73585055665455" lon="8.003579761347343"><ele>194.5</ele><time>2026-05-02T16:06:05Z</time></trkpt><trkpt lat="44.736072873218205" lon="8.003399940318536"><ele>195.0</ele><time>2026-05-02T16:06:06Z</time></trkpt><trkpt lat="44.736300768511946" lon="8.003218564252165"><ele>195.0</ele><time>2026-05-02T16:06:07Z</time></trkpt><trkpt lat="44.73650851672052" lon="8.00301710857913"><ele>195.0</ele><time>2026-05-02T16:06:08Z</time></trkpt><trkpt lat="44.73669651610925" lon="8.002783814463866"><ele>195.0</ele><time>2026-05-02T16:06:09Z</time></trkpt><trkpt lat="44.736864827330024" lon="8.00252818186117"><ele>195.0</ele><time>2026-05-02T16:06:10Z</time></trkpt><trkpt lat="44.73701269450438" lon="8.002258718291353"><ele>197.66666666666669</ele><time>2026-05-02T16:06:11Z</time></trkpt><trkpt lat="44.7371318587711" lon="8.001997619397375"><ele>200.33333333333334</ele><time>2026-05-02T16:06:12Z</time></trkpt><trkpt lat="44.737231020819046" lon="8.001741755538525"><ele>203.0</ele><time>2026-05-02T16:06:13Z</time></trkpt><trkpt lat="44.7373251618851" lon="8.001486405282456"><ele>203.0</ele><time>2026-05-02T16:06:14Z</time></trkpt><trkpt lat="44.737415140232606" lon="8.001241260180294"><ele>203.0</ele><time>2026-05-02T16:06:15Z</time></trkpt><trkpt lat="44.737499338434084" lon="8.000992166496117"><ele>203.0</ele><time>2026-05-02T16:06:16Z</time></trkpt><trkpt lat="44.73758166489956" lon="8.000738482079086"><ele>202.33333333333334</ele><time>2026-05-02T16:06:17Z</time></trkpt><trkpt lat="44.737663785547284" lon="8.000493942092307"><ele>201.66666666666669</ele><time>2026-05-02T16:06:18Z</time></trkpt><trkpt lat="44.73774258623825" lon="8.000258024120185"><ele>201.0</ele><time>2026-05-02T16:06:19Z</time></trkpt><trkpt lat="44.73782312370561" lon="8.000028554703785"><ele>206.0</ele><time>2026-05-02T16:06:20Z</time></trkpt><trkpt lat="44.73790040219021" lon="7.9998101482615365"><ele>211.0</ele><time>2026-05-02T16:06:21Z</time></trkpt><trkpt lat="44.73798575843394" lon="7.999580076421821"><ele>216.0</ele><time>2026-05-02T16:06:22Z</time></trkpt><trkpt lat="44.73808257221409" lon="7.999346844015358"><ele>214.66666666666669</ele><time>2026-05-02T16:06:23Z</time></trkpt><trkpt lat="44.73819116795836" lon="7.99911850384289"><ele>213.33333333333334</ele><time>2026-05-02T16:06:24Z</time></trkpt><trkpt lat="44.73831263762323" lon="7.998892734242541"><ele>212.0</ele><time>2026-05-02T16:06:25Z</time></trkpt><trkpt lat="44.73844332879537" lon="7.998671095241812"><ele>213.33333333333334</ele><time>2026-05-02T16:06:26Z</time></trkpt><trkpt lat="44.73857834094956" lon="7.998446352243698"><ele>214.66666666666669</ele><time>2026-05-02T16:06:27Z</time></trkpt><trkpt lat="44.73871701100319" lon="7.998229675553119"><ele>216.0</ele><time>2026-05-02T16:06:28Z</time></trkpt><trkpt lat="44.738855693206844" lon="7.9980258798677335"><ele>216.0</ele><time>2026-05-02T16:06:29Z</time></trkpt><trkpt lat="44.73899867378104" lon="7.99783700112878"><ele>216.0</ele><time>2026-05-02T16:06:30Z</time></trkpt><trkpt lat="44.73914504228078" lon="7.9976541229459075"><ele>216.0</ele><time>2026-05-02T16:06:31Z</time></trkpt><trkpt lat="44.739297801905245" lon="7.997473575659886"><ele>213.0</ele><time>2026-05-02T16:06:32Z</time></trkpt><trkpt lat="44.73945890846612" lon="7.997300959489807"><ele>210.0</ele><time>2026-05-02T16:06:33Z</time></trkpt><trkpt lat="44.739627315992884" lon="7.997128492696929"><ele>207.0</ele><time>2026-05-02T16:06:34Z</time></trkpt><trkpt lat="44.73980271723617" lon="7.996955751495293"><ele>207.0</ele><time>2026-05-02T16:06:35Z</time></trkpt><trkpt lat="44.739982892993666" lon="7.996778394968191"><ele>207.0</ele><time>2026-05-02T16:06:36Z</time></trkpt><trkpt lat="44.740167009961716" lon="7.996598894181955"><ele>207.0</ele><time>2026-05-02T16:06:37Z</time></trkpt><trkpt lat="44.74034952605967" lon="7.996429562166153"><ele>208.33333333333331</ele><time>2026-05-02T16:06:38Z</time></trkpt><trkpt lat="44.74053745844581" lon="7.99628541898772"><ele>209.66666666666666</ele><time>2026-05-02T16:06:39Z</time></trkpt><trkpt lat="44.740738866367124" lon="7.99616304261906"><ele>211.0</ele><time>2026-05-02T16:06:40Z</time></trkpt><trkpt lat="44.7409532626553" lon="7.996061828526375"><ele>212.5</ele><time>2026-05-02T16:06:41Z</time></trkpt><trkpt lat="44.74117481683558" lon="7.995988901266945"><ele>214.0</ele><time>2026-05-02T16:06:42Z</time></trkpt><trkpt lat="44.74140351242561" lon="7.995948005788284"><ele>214.0</ele><time>2026-05-02T16:06:43Z</time></trkpt><trkpt lat="44.74163333602254" lon="7.99593505328153"><ele>214.0</ele><time>2026-05-02T16:06:44Z</time></trkpt><trkpt lat="44.74186412868493" lon="7.99595668627806"><ele>216.66666666666666</ele><time>2026-05-02T16:06:45Z</time></trkpt><trkpt lat="44.74208151328434" lon="7.9960124837783075"><ele>219.33333333333331</ele><time>2026-05-02T16:06:46Z</time></trkpt><trkpt lat="44.742278714160676" lon="7.996100142845804"><ele>222.0</ele><time>2026-05-02T16:06:47Z</time></trkpt><trkpt lat="44.74248091614247" lon="7.9962189585260885"><ele>222.0</ele><time>2026-05-02T16:06:48Z</time></trkpt><trkpt lat="44.7426612366398" lon="7.996355567551793"><ele>222.0</ele><time>2026-05-02T16:06:49Z</time></trkpt><trkpt lat="44.742769227132904" lon="7.996468476133659"><ele>222.0</ele><time>2026-05-02T16:06:50Z</time></trkpt><trkpt lat="44.742841252241774" lon="7.99658122206459"><ele>222.0</ele><time>2026-05-02T16:06:51Z</time></trkpt><trkpt lat="44.74288406236728" lon="7.996678878452958"><ele>223.66666666666666</ele><time>2026-05-02T16:06:52Z</time></trkpt><trkpt lat="44.7429144673669" lon="7.9967695031888715"><ele>225.33333333333331</ele><time>2026-05-02T16:06:53Z</time></trkpt><trkpt lat="44.74293146511928" lon="7.996883342964808"><ele>227.0</ele><time>2026-05-02T16:06:54Z</time></trkpt><trkpt lat="44.74294989468381" lon="7.997006759037734"><ele>228.66666666666666</ele><time>2026-05-02T16:06:55Z</time></trkpt><trkpt lat="44.742977735568076" lon="7.997101961279697"><ele>230.33333333333331</ele><time>2026-05-02T16:06:56Z</time></trkpt><trkpt lat="44.74301704098282" lon="7.997172230527046"><ele>232.0</ele><time>2026-05-02T16:06:57Z</time></trkpt><trkpt lat="44.743172121260926" lon="7.997104685249445"><ele>232.0</ele><time>2026-05-02T16:06:59Z</time></trkpt><trkpt lat="44.743301314387445" lon="7.997105299472397"><ele>232.0</ele><time>2026-05-02T16:07:01Z</time></trkpt><trkpt lat="44.74336742940283" lon="7.997154860886357"><ele>232.0</ele><time>2026-05-02T16:07:02Z</time></trkpt><trkpt lat="44.74345295641659" lon="7.997253737028987"><ele>232.0</ele><time>2026-05-02T16:07:03Z</time></trkpt><trkpt lat="44.74353949892861" lon="7.997380563214539"><ele>232.0</ele><time>2026-05-02T16:07:04Z</time></trkpt><trkpt lat="44.743627459517626" lon="7.997521997597999"><ele>235.66666666666666</ele><time>2026-05-02T16:07:05Z</time></trkpt><trkpt lat="44.743728059827035" lon="7.997693985787463"><ele>239.33333333333331</ele><time>2026-05-02T16:07:06Z</time></trkpt><trkpt lat="44.74383804615821" lon="7.997909080165941"><ele>243.0</ele><time>2026-05-02T16:07:07Z</time></trkpt><trkpt lat="44.7439471192478" lon="7.998157045427239"><ele>245.0</ele><time>2026-05-02T16:07:08Z</time></trkpt><trkpt lat="44.74406681387894" lon="7.99842590419652"><ele>247.0</ele><time>2026-05-02T16:07:09Z</time></trkpt><trkpt lat="44.74421462179482" lon="7.998694181337155"><ele>245.5</ele><time>2026-05-02T16:07:10Z</time></trkpt><trkpt lat="44.74438893085685" lon="7.9989552376414705"><ele>244.0</ele><time>2026-05-02T16:07:11Z</time></trkpt><trkpt lat="44.7445927035557" lon="7.999190961812503"><ele>243.0</ele><time>2026-05-02T16:07:12Z</time></trkpt><trkpt lat="44.74482445484337" lon="7.999400220967467"><ele>242.0</ele><time>2026-05-02T16:07:13Z</time></trkpt><trkpt lat="44.74507785906432" lon="7.999561692323237"><ele>239.5</ele><time>2026-05-02T16:07:14Z</time></trkpt><trkpt lat="44.745340400279325" lon="7.999682933707958"><ele>237.0</ele><time>2026-05-02T16:07:15Z</time></trkpt><trkpt lat="44.74559510978341" lon="7.999759060746398"><ele>237.0</ele><time>2026-05-02T16:07:16Z</time></trkpt><trkpt lat="44.745848803452816" lon="7.999798421355559"><ele>237.0</ele><time>2026-05-02T16:07:17Z</time></trkpt><trkpt lat="44.74610807486797" lon="7.99979315580738"><ele>232.5</ele><time>2026-05-02T16:07:18Z</time></trkpt><trkpt lat="44.74637284746718" lon="7.999750438463529"><ele>228.0</ele><time>2026-05-02T16:07:19Z</time></trkpt><trkpt lat="44.74664295169732" lon="7.999699685703921"><ele>225.5</ele><time>2026-05-02T16:07:20Z</time></trkpt><trkpt lat="44.746923296107354" lon="7.999665127059614"><ele>223.0</ele><time>2026-05-02T16:07:21Z</time></trkpt><trkpt lat="44.74720926426961" lon="7.999637797269751"><ele>223.0</ele><time>2026-05-02T16:07:22Z</time></trkpt><trkpt lat="44.747464836343305" lon="7.99963920235579"><ele>223.0</ele><time>2026-05-02T16:07:23Z</time></trkpt><trkpt lat="44.74769784492056" lon="7.999649184312626"><ele>222.0</ele><time>2026-05-02T16:07:24Z</time></trkpt><trkpt lat="44.7479163646891" lon="7.999669072355886"><ele>221.0</ele><time>2026-05-02T16:07:25Z</time></trkpt><trkpt lat="44.74812867935479" lon="7.99969526610726"><ele>220.0</ele><time>2026-05-02T16:07:26Z</time></trkpt><trkpt lat="44.74833270047589" lon="7.999730429726404"><ele>220.0</ele><time>2026-05-02T16:07:27Z</time></trkpt><trkpt lat="44.74853101029883" lon="7.99977142440321"><ele>220.0</ele><time>2026-05-02T16:07:28Z</time></trkpt><trkpt lat="44.74872063119881" lon="7.999823573196315"><ele>220.0</ele><time>2026-05-02T16:07:29Z</time></trkpt><trkpt lat="44.748908929634446" lon="7.999880451313858"><ele>219.33333333333331</ele><time>2026-05-02T16:07:30Z</time></trkpt><trkpt lat="44.749099663241005" lon="7.999936293516822"><ele>218.66666666666669</ele><time>2026-05-02T16:07:31Z</time></trkpt><trkpt lat="44.749280367820894" lon="7.999994816219649"><ele>218.0</ele><time>2026-05-02T16:07:32Z</time></trkpt><trkpt lat="44.74944501510042" lon="8.000059951724316"><ele>218.0</ele><time>2026-05-02T16:07:33Z</time></trkpt><trkpt lat="44.74960085044393" lon="8.000124179811664"><ele>218.0</ele><time>2026-05-02T16:07:34Z</time></trkpt><trkpt lat="44.74975217128234" lon="8.000193373765491"><ele>218.0</ele><time>2026-05-02T16:07:35Z</time></trkpt><trkpt lat="44.74990508277988" lon="8.000251986734634"><ele>218.0</ele><time>2026-05-02T16:07:36Z</time></trkpt><trkpt lat="44.750067852427634" lon="8.000340032386049"><ele>218.0</ele><time>2026-05-02T16:07:37Z</time></trkpt><trkpt lat="44.750230948073906" lon="8.000386363211804"><ele>218.0</ele><time>2026-05-02T16:07:38Z</time></trkpt><trkpt lat="44.75038442027296" lon="8.00045430885185"><ele>218.33333333333334</ele><time>2026-05-02T16:07:39Z</time></trkpt><trkpt lat="44.75054571039842" lon="8.000520014819138"><ele>218.66666666666669</ele><time>2026-05-02T16:07:40Z</time></trkpt><trkpt lat="44.750707912186705" lon="8.000585755383957"><ele>219.0</ele><time>2026-05-02T16:07:41Z</time></trkpt><trkpt lat="44.75086195764651" lon="8.000651041965758"><ele>219.0</ele><time>2026-05-02T16:07:42Z</time></trkpt><trkpt lat="44.751006210397485" lon="8.000713681821074"><ele>219.0</ele><time>2026-05-02T16:07:43Z</time></trkpt><trkpt lat="44.75115210629626" lon="8.000774297418864"><ele>219.0</ele><time>2026-05-02T16:07:44Z</time></trkpt><trkpt lat="44.751299807525406" lon="8.00083767847099"><ele>218.75</ele><time>2026-05-02T16:07:45Z</time></trkpt><trkpt lat="44.75144852313953" lon="8.000904308896784"><ele>218.5</ele><time>2026-05-02T16:07:46Z</time></trkpt><trkpt lat="44.75159355493281" lon="8.000966867357961"><ele>218.25</ele><time>2026-05-02T16:07:47Z</time></trkpt><trkpt lat="44.75172478442263" lon="8.001024409990956"><ele>218.0</ele><time>2026-05-02T16:07:48Z</time></trkpt><trkpt lat="44.751850881380136" lon="8.001078239630267"><ele>217.5</ele><time>2026-05-02T16:07:49Z</time></trkpt><trkpt lat="44.75196608498021" lon="8.001125520845976"><ele>217.0</ele><time>2026-05-02T16:07:50Z</time></trkpt><trkpt lat="44.75208007403852" lon="8.001170114291162"><ele>216.5</ele><time>2026-05-02T16:07:51Z</time></trkpt><trkpt lat="44.7522090602231" lon="8.001220903296435"><ele>216.0</ele><time>2026-05-02T16:07:52Z</time></trkpt><trkpt lat="44.75233307184084" lon="8.001272683655285"><ele>216.0</ele><time>2026-05-02T16:07:53Z</time></trkpt><trkpt lat="44.752444055188406" lon="8.001319684397764"><ele>216.0</ele><time>2026-05-02T16:07:54Z</time></trkpt><trkpt lat="44.75254777413534" lon="8.00136481731416"><ele>216.0</ele><time>2026-05-02T16:07:55Z</time></trkpt><trkpt lat="44.75265654201615" lon="8.001409683703272"><ele>216.0</ele><time>2026-05-02T16:07:56Z</time></trkpt><trkpt lat="44.75277236724422" lon="8.001456056851083"><ele>216.0</ele><time>2026-05-02T16:07:57Z</time></trkpt><trkpt lat="44.75288875923836" lon="8.001502938601364"><ele>216.0</ele><time>2026-05-02T16:07:58Z</time></trkpt><trkpt lat="44.75300661070253" lon="8.001553437015687"><ele>216.0</ele><time>2026-05-02T16:07:59Z</time></trkpt><trkpt lat="44.7531361647032" lon="8.001607400731794"><ele>216.0</ele><time>2026-05-02T16:08:00Z</time></trkpt><trkpt lat="44.75326067230956" lon="8.001659352235183"><ele>216.0</ele><time>2026-05-02T16:08:01Z</time></trkpt><trkpt lat="44.75338987083341" lon="8.001717423705093"><ele>216.0</ele><time>2026-05-02T16:08:02Z</time></trkpt><trkpt lat="44.75353532661569" lon="8.001779000542747"><ele>216.0</ele><time>2026-05-02T16:08:03Z</time></trkpt><trkpt lat="44.7536852620326" lon="8.00187483727711"><ele>216.0</ele><time>2026-05-02T16:08:04Z</time></trkpt><trkpt lat="44.7538320209184" lon="8.001957241857626"><ele>216.0</ele><time>2026-05-02T16:08:05Z</time></trkpt><trkpt lat="44.75395318577972" lon="8.002033586200792"><ele>216.0</ele><time>2026-05-02T16:08:06Z</time></trkpt><trkpt lat="44.75406086219629" lon="8.002115157394101"><ele>216.0</ele><time>2026-05-02T16:08:07Z</time></trkpt><trkpt lat="44.754159275824804" lon="8.002168437333573"><ele>216.0</ele><time>2026-05-02T16:08:08Z</time></trkpt><trkpt lat="44.754234452750204" lon="8.002232695346972"><ele>216.00000000000003</ele><time>2026-05-02T16:08:09Z</time></trkpt><trkpt lat="44.754293616747674" lon="8.002292775758264"><ele>216.00000000000003</ele><time>2026-05-02T16:08:10Z</time></trkpt><trkpt lat="44.75437931075671" lon="8.002414108313065"><ele>216.0</ele><time>2026-05-02T16:08:12Z</time></trkpt><trkpt lat="44.7544417062923" lon="8.002550989265478"><ele>216.0</ele><time>2026-05-02T16:08:14Z</time></trkpt><trkpt lat="44.75449586665038" lon="8.002681981401745"><ele>215.8</ele><time>2026-05-02T16:08:16Z</time></trkpt><trkpt lat="44.75460638274591" lon="8.002734966845688"><ele>215.60000000000002</ele><time>2026-05-02T16:08:18Z</time></trkpt><trkpt lat="44.754678199116455" lon="8.00275586725945"><ele>215.4</ele><time>2026-05-02T16:08:19Z</time></trkpt><trkpt lat="44.75475851363285" lon="8.002815752857092"><ele>215.2</ele><time>2026-05-02T16:08:20Z</time></trkpt><trkpt lat="44.75484240993154" lon="8.0029026116803"><ele>215.0</ele><time>2026-05-02T16:08:21Z</time></trkpt><trkpt lat="44.754926096322734" lon="8.003009828156905"><ele>215.0</ele><time>2026-05-02T16:08:22Z</time></trkpt><trkpt lat="44.75502333402574" lon="8.00313278783538"><ele>215.0</ele><time>2026-05-02T16:08:23Z</time></trkpt><trkpt lat="44.75512319127908" lon="8.003308277845726"><ele>215.0</ele><time>2026-05-02T16:08:24Z</time></trkpt><trkpt lat="44.75526805648663" lon="8.003463196021864"><ele>213.66666666666669</ele><time>2026-05-02T16:08:25Z</time></trkpt><trkpt lat="44.75541071071763" lon="8.003658121557624"><ele>212.33333333333331</ele><time>2026-05-02T16:08:26Z</time></trkpt><trkpt lat="44.75555736672793" lon="8.003878897481837"><ele>211.0</ele><time>2026-05-02T16:08:27Z</time></trkpt><trkpt lat="44.755696771284" lon="8.004086764457398"><ele>211.33333333333331</ele><time>2026-05-02T16:08:28Z</time></trkpt><trkpt lat="44.755832336176276" lon="8.004295178172537"><ele>211.66666666666669</ele><time>2026-05-02T16:08:29Z</time></trkpt><trkpt lat="44.75598570932818" lon="8.004508863811168"><ele>212.0</ele><time>2026-05-02T16:08:30Z</time></trkpt><trkpt lat="44.75613543488654" lon="8.004728964598572"><ele>212.0</ele><time>2026-05-02T16:08:31Z</time></trkpt><trkpt lat="44.75628416955001" lon="8.004942260222084"><ele>212.0</ele><time>2026-05-02T16:08:32Z</time></trkpt><trkpt lat="44.756432608447284" lon="8.00515430259187"><ele>212.0</ele><time>2026-05-02T16:08:33Z</time></trkpt><trkpt lat="44.756585181184604" lon="8.005373299505543"><ele>212.0</ele><time>2026-05-02T16:08:34Z</time></trkpt><trkpt lat="44.756741447160735" lon="8.005592243389279"><ele>212.0</ele><time>2026-05-02T16:08:35Z</time></trkpt><trkpt lat="44.75689467292016" lon="8.005809217594239"><ele>212.0</ele><time>2026-05-02T16:08:36Z</time></trkpt><trkpt lat="44.75704783709751" lon="8.00602788124939"><ele>211.66666666666669</ele><time>2026-05-02T16:08:37Z</time></trkpt><trkpt lat="44.75720404640321" lon="8.006245945450399"><ele>211.33333333333331</ele><time>2026-05-02T16:08:38Z</time></trkpt><trkpt lat="44.757356420138485" lon="8.006467963993153"><ele>211.0</ele><time>2026-05-02T16:08:39Z</time></trkpt><trkpt lat="44.75751374982525" lon="8.006689728161069"><ele>211.0</ele><time>2026-05-02T16:08:40Z</time></trkpt><trkpt lat="44.75767211054556" lon="8.006910804789662"><ele>211.0</ele><time>2026-05-02T16:08:41Z</time></trkpt><trkpt lat="44.75782678367639" lon="8.007131606681588"><ele>211.0</ele><time>2026-05-02T16:08:42Z</time></trkpt><trkpt lat="44.75798202917705" lon="8.007355856200638"><ele>210.0</ele><time>2026-05-02T16:08:43Z</time></trkpt><trkpt lat="44.758139871652254" lon="8.00758064402475"><ele>209.0</ele><time>2026-05-02T16:08:44Z</time></trkpt><trkpt lat="44.75829353699279" lon="8.00780081011258"><ele>208.0</ele><time>2026-05-02T16:08:45Z</time></trkpt><trkpt lat="44.75844865583124" lon="8.008016414121764"><ele>208.0</ele><time>2026-05-02T16:08:46Z</time></trkpt><trkpt lat="44.75859401305735" lon="8.008219900165372"><ele>208.0</ele><time>2026-05-02T16:08:47Z</time></trkpt><trkpt lat="44.758733171920625" lon="8.008418245123924"><ele>208.0</ele><time>2026-05-02T16:08:48Z</time></trkpt><trkpt lat="44.758876036936904" lon="8.00861949880516"><ele>208.0</ele><time>2026-05-02T16:08:49Z</time></trkpt><trkpt lat="44.759020899798664" lon="8.00879635207283"><ele>208.0</ele><time>2026-05-02T16:08:50Z</time></trkpt><trkpt lat="44.759180328211826" lon="8.008958455399567"><ele>208.0</ele><time>2026-05-02T16:08:51Z</time></trkpt><trkpt lat="44.75934930516394" lon="8.009097039112737"><ele>208.0</ele><time>2026-05-02T16:08:52Z</time></trkpt><trkpt lat="44.759517875326324" lon="8.009211803473963"><ele>208.0</ele><time>2026-05-02T16:08:53Z</time></trkpt><trkpt lat="44.75968931314026" lon="8.009313369205042"><ele>208.0</ele><time>2026-05-02T16:08:54Z</time></trkpt><trkpt lat="44.75987118167082" lon="8.009396421744658"><ele>208.0</ele><time>2026-05-02T16:08:55Z</time></trkpt><trkpt lat="44.76005268727823" lon="8.009457277712285"><ele>208.0</ele><time>2026-05-02T16:08:56Z</time></trkpt><trkpt lat="44.76022057641027" lon="8.009485935868558"><ele>208.0</ele><time>2026-05-02T16:08:57Z</time></trkpt><trkpt lat="44.76036257303426" lon="8.009494851312526"><ele>207.2</ele><time>2026-05-02T16:08:58Z</time></trkpt><trkpt lat="44.76048583444503" lon="8.00949508924484"><ele>206.4</ele><time>2026-05-02T16:08:59Z</time></trkpt><trkpt lat="44.76059831500178" lon="8.009497235266608"><ele>205.6</ele><time>2026-05-02T16:09:00Z</time></trkpt><trkpt lat="44.760707097082076" lon="8.009507799814093"><ele>204.79999999999998</ele><time>2026-05-02T16:09:01Z</time></trkpt><trkpt lat="44.760802032243895" lon="8.009528749851805"><ele>204.0</ele><time>2026-05-02T16:09:02Z</time></trkpt><trkpt lat="44.76086466612793" lon="8.009565037080675"><ele>204.0</ele><time>2026-05-02T16:09:03Z</time></trkpt><trkpt lat="44.76094359884473" lon="8.009620180705085"><ele>204.0</ele><time>2026-05-02T16:09:07Z</time></trkpt><trkpt lat="44.761022868183844" lon="8.009642361688773"><ele>204.0</ele><time>2026-05-02T16:09:08Z</time></trkpt><trkpt lat="44.76113212212884" lon="8.00962385865591"><ele>204.0</ele><time>2026-05-02T16:09:09Z</time></trkpt><trkpt lat="44.76124592413618" lon="8.00957196235514"><ele>204.0</ele><time>2026-05-02T16:09:10Z</time></trkpt><trkpt lat="44.76136562698012" lon="8.009517384180409"><ele>204.33333333333331</ele><time>2026-05-02T16:09:11Z</time></trkpt><trkpt lat="44.761519211893564" lon="8.009494387125619"><ele>204.66666666666666</ele><time>2026-05-02T16:09:12Z</time></trkpt><trkpt lat="44.76168934808803" lon="8.00950067740684"><ele>205.0</ele><time>2026-05-02T16:09:13Z</time></trkpt><trkpt lat="44.76185964779061" lon="8.009509550958732"><ele>204.66666666666666</ele><time>2026-05-02T16:09:14Z</time></trkpt><trkpt lat="44.76203880984822" lon="8.009510324872855"><ele>204.33333333333331</ele><time>2026-05-02T16:09:15Z</time></trkpt><trkpt lat="44.76220835463962" lon="8.009509539028466"><ele>204.0</ele><time>2026-05-02T16:09:16Z</time></trkpt><trkpt lat="44.76235882386008" lon="8.009511878688006"><ele>204.0</ele><time>2026-05-02T16:09:17Z</time></trkpt><trkpt lat="44.762501518201006" lon="8.00951267523996"><ele>204.0</ele><time>2026-05-02T16:09:18Z</time></trkpt><trkpt lat="44.76263846828243" lon="8.009512581030917"><ele>204.0</ele><time>2026-05-02T16:09:19Z</time></trkpt><trkpt lat="44.76278352508401" lon="8.009511042153463"><ele>204.0</ele><time>2026-05-02T16:09:20Z</time></trkpt><trkpt lat="44.76293026809677" lon="8.009148439162024"><ele>204.0</ele><time>2026-05-02T16:09:21Z</time></trkpt><trkpt lat="44.76310818755862" lon="8.00951574502561"><ele>204.0</ele><time>2026-05-02T16:09:22Z</time></trkpt><trkpt lat="44.76328184398046" lon="8.00951814679167"><ele>204.0</ele><time>2026-05-02T16:09:23Z</time></trkpt><trkpt lat="44.76345923302482" lon="8.009517676100991"><ele>204.0</ele><time>2026-05-02T16:09:24Z</time></trkpt><trkpt lat="44.76362976435445" lon="8.009498005687519"><ele>204.0</ele><time>2026-05-02T16:09:25Z</time></trkpt><trkpt lat="44.76379009184163" lon="8.009438807433519"><ele>204.0</ele><time>2026-05-02T16:09:26Z</time></trkpt><trkpt lat="44.76395400649769" lon="8.009342636475107"><ele>204.0</ele><time>2026-05-02T16:09:27Z</time></trkpt><trkpt lat="44.76411766594005" lon="8.009228894437957"><ele>204.0</ele><time>2026-05-02T16:09:28Z</time></trkpt><trkpt lat="44.7642945977308" lon="8.00911319470007"><ele>204.66666666666669</ele><time>2026-05-02T16:09:29Z</time></trkpt><trkpt lat="44.76447395257306" lon="8.009010272320841"><ele>205.33333333333334</ele><time>2026-05-02T16:09:30Z</time></trkpt><trkpt lat="44.764651359815666" lon="8.00894295147233"><ele>206.0</ele><time>2026-05-02T16:09:31Z</time></trkpt><trkpt lat="44.76483609504929" lon="8.008926010394948"><ele>206.0</ele><time>2026-05-02T16:09:32Z</time></trkpt><trkpt lat="44.76503647447855" lon="8.008948594723783"><ele>206.0</ele><time>2026-05-02T16:09:33Z</time></trkpt><trkpt lat="44.76524676621798" lon="8.008979490888843"><ele>206.0</ele><time>2026-05-02T16:09:34Z</time></trkpt><trkpt lat="44.76545582073576" lon="8.009013702447405"><ele>206.0</ele><time>2026-05-02T16:09:35Z</time></trkpt><trkpt lat="44.76567813611789" lon="8.009051399392828"><ele>206.0</ele><time>2026-05-02T16:09:36Z</time></trkpt><trkpt lat="44.76590926345169" lon="8.009083265527263"><ele>205.5</ele><time>2026-05-02T16:09:37Z</time></trkpt><trkpt lat="44.76614357195066" lon="8.009113844969272"><ele>205.0</ele><time>2026-05-02T16:09:38Z</time></trkpt><trkpt lat="44.76638547316905" lon="8.009144933897959"><ele>203.0</ele><time>2026-05-02T16:09:39Z</time></trkpt><trkpt lat="44.76663206638443" lon="8.009179158819231"><ele>201.0</ele><time>2026-05-02T16:09:40Z</time></trkpt><trkpt lat="44.76688181978052" lon="8.009213892806413"><ele>200.5</ele><time>2026-05-02T16:09:41Z</time></trkpt><trkpt lat="44.76713628831636" lon="8.009249659127676"><ele>200.0</ele><time>2026-05-02T16:09:42Z</time></trkpt><trkpt lat="44.76739498320012" lon="8.00928546649247"><ele>200.0</ele><time>2026-05-02T16:09:43Z</time></trkpt><trkpt lat="44.76765036216109" lon="8.009322293070019"><ele>200.0</ele><time>2026-05-02T16:09:44Z</time></trkpt><trkpt lat="44.767902879343794" lon="8.009357559430432"><ele>200.5</ele><time>2026-05-02T16:09:45Z</time></trkpt><trkpt lat="44.76814574690278" lon="8.009389589026549"><ele>201.0</ele><time>2026-05-02T16:09:46Z</time></trkpt><trkpt lat="44.76837067012245" lon="8.009415646811645"><ele>201.5</ele><time>2026-05-02T16:09:47Z</time></trkpt><trkpt lat="44.76859741450475" lon="8.009424854868314"><ele>202.0</ele><time>2026-05-02T16:09:48Z</time></trkpt><trkpt lat="44.768824873549626" lon="8.009407612238656"><ele>202.0</ele><time>2026-05-02T16:09:49Z</time></trkpt><trkpt lat="44.769049146854385" lon="8.009367755849789"><ele>202.0</ele><time>2026-05-02T16:09:50Z</time></trkpt><trkpt lat="44.76927234251564" lon="8.009309731639044"><ele>201.0</ele><time>2026-05-02T16:09:51Z</time></trkpt><trkpt lat="44.7694931962366" lon="8.009262032223052"><ele>200.0</ele><time>2026-05-02T16:09:52Z</time></trkpt><trkpt lat="44.76971586594048" lon="8.009188487569935"><ele>205.0</ele><time>2026-05-02T16:09:53Z</time></trkpt><trkpt lat="44.76993272023764" lon="8.009125153330174"><ele>210.0</ele><time>2026-05-02T16:09:54Z</time></trkpt><trkpt lat="44.77013450691825" lon="8.009068208541901"><ele>215.0</ele><time>2026-05-02T16:09:55Z</time></trkpt><trkpt lat="44.770322399435074" lon="8.009015520434646"><ele>215.0</ele><time>2026-05-02T16:09:56Z</time></trkpt><trkpt lat="44.77051644965683" lon="8.008958325625732"><ele>215.0</ele><time>2026-05-02T16:09:57Z</time></trkpt><trkpt lat="44.770714115872785" lon="8.008898836967058"><ele>215.0</ele><time>2026-05-02T16:09:58Z</time></trkpt><trkpt lat="44.770894268677694" lon="8.008849760148303"><ele>210.66666666666669</ele><time>2026-05-02T16:09:59Z</time></trkpt><trkpt lat="44.771058598148954" lon="8.008805041198892"><ele>206.33333333333331</ele><time>2026-05-02T16:10:00Z</time></trkpt><trkpt lat="44.771216247290525" lon="8.008759883902535"><ele>202.0</ele><time>2026-05-02T16:10:01Z</time></trkpt><trkpt lat="44.771382489047795" lon="8.008712309958584"><ele>202.0</ele><time>2026-05-02T16:10:02Z</time></trkpt><trkpt lat="44.771569912759155" lon="8.008655247278867"><ele>202.0</ele><time>2026-05-02T16:10:03Z</time></trkpt><trkpt lat="44.77176246074629" lon="8.008600108345536"><ele>202.0</ele><time>2026-05-02T16:10:04Z</time></trkpt><trkpt lat="44.77196009629857" lon="8.008540936555763"><ele>200.66666666666666</ele><time>2026-05-02T16:10:05Z</time></trkpt><trkpt lat="44.77215288070228" lon="8.008487487577685"><ele>199.33333333333331</ele><time>2026-05-02T16:10:06Z</time></trkpt><trkpt lat="44.77233679557101" lon="8.008434536293155"><ele>198.0</ele><time>2026-05-02T16:10:07Z</time></trkpt><trkpt lat="44.77251707525084" lon="8.008385908796377"><ele>199.33333333333331</ele><time>2026-05-02T16:10:08Z</time></trkpt><trkpt lat="44.7726969567026" lon="8.008337172259596"><ele>200.66666666666666</ele><time>2026-05-02T16:10:09Z</time></trkpt><trkpt lat="44.77286007703983" lon="8.008294763742864"><ele>202.0</ele><time>2026-05-02T16:10:10Z</time></trkpt><trkpt lat="44.77301605975946" lon="8.008247219732317"><ele>209.0</ele><time>2026-05-02T16:10:11Z</time></trkpt><trkpt lat="44.77316136454872" lon="8.008199967927878"><ele>216.0</ele><time>2026-05-02T16:10:12Z</time></trkpt><trkpt lat="44.77330934662318" lon="8.008154910424137"><ele>223.0</ele><time>2026-05-02T16:10:13Z</time></trkpt><trkpt lat="44.773466655602824" lon="8.008113078453848"><ele>219.33333333333331</ele><time>2026-05-02T16:10:14Z</time></trkpt><trkpt lat="44.77363487772152" lon="8.008067808297222"><ele>215.66666666666669</ele><time>2026-05-02T16:10:15Z</time></trkpt><trkpt lat="44.773806184542046" lon="8.008012866484545"><ele>212.0</ele><time>2026-05-02T16:10:16Z</time></trkpt><trkpt lat="44.77398779413806" lon="8.007985500453842"><ele>212.0</ele><time>2026-05-02T16:10:17Z</time></trkpt><trkpt lat="44.77417093717059" lon="8.007934013863212"><ele>212.0</ele><time>2026-05-02T16:10:18Z</time></trkpt><trkpt lat="44.774365172807585" lon="8.007879408834638"><ele>212.0</ele><time>2026-05-02T16:10:19Z</time></trkpt><trkpt lat="44.77456659407579" lon="8.007822783727159"><ele>209.33333333333334</ele><time>2026-05-02T16:10:20Z</time></trkpt><trkpt lat="44.77476064961379" lon="8.007768229329775"><ele>206.66666666666669</ele><time>2026-05-02T16:10:21Z</time></trkpt><trkpt lat="44.774930006183126" lon="8.007697181864815"><ele>204.0</ele><time>2026-05-02T16:10:22Z</time></trkpt><trkpt lat="44.775088869297406" lon="8.007652070509854"><ele>204.25</ele><time>2026-05-02T16:10:23Z</time></trkpt><trkpt lat="44.775230893487304" lon="8.007603113747404"><ele>204.5</ele><time>2026-05-02T16:10:24Z</time></trkpt><trkpt lat="44.77536525394312" lon="8.007550319740504"><ele>204.75</ele><time>2026-05-02T16:10:25Z</time></trkpt><trkpt lat="44.77549399716991" lon="8.007510754077664"><ele>205.0</ele><time>2026-05-02T16:10:26Z</time></trkpt><trkpt lat="44.7756192866784" lon="8.007485021327696"><ele>205.0</ele><time>2026-05-02T16:10:27Z</time></trkpt><trkpt lat="44.775749730024636" lon="8.007464968050654"><ele>205.0</ele><time>2026-05-02T16:10:28Z</time></trkpt><trkpt lat="44.77587058191761" lon="8.007429657640387"><ele>205.0</ele><time>2026-05-02T16:10:29Z</time></trkpt><trkpt lat="44.7759837451025" lon="8.007335010276561"><ele>205.0</ele><time>2026-05-02T16:10:30Z</time></trkpt><trkpt lat="44.77610742454186" lon="8.00724150560477"><ele>203.33333333333331</ele><time>2026-05-02T16:10:31Z</time></trkpt><trkpt lat="44.77625885918265" lon="8.007180656716152"><ele>201.66666666666669</ele><time>2026-05-02T16:10:32Z</time></trkpt><trkpt lat="44.77642387475537" lon="8.007102034115807"><ele>200.0</ele><time>2026-05-02T16:10:33Z</time></trkpt><trkpt lat="44.77660324244441" lon="8.007032800334459"><ele>200.0</ele><time>2026-05-02T16:10:34Z</time></trkpt><trkpt lat="44.77677054911876" lon="8.006885254508013"><ele>200.0</ele><time>2026-05-02T16:10:35Z</time></trkpt><trkpt lat="44.7769346483334" lon="8.006757761273148"><ele>200.0</ele><time>2026-05-02T16:10:36Z</time></trkpt><trkpt lat="44.77710237454344" lon="8.006633270120988"><ele>200.33333333333334</ele><time>2026-05-02T16:10:37Z</time></trkpt><trkpt lat="44.77728461998025" lon="8.00650443094844"><ele>200.66666666666669</ele><time>2026-05-02T16:10:38Z</time></trkpt><trkpt lat="44.77747969655216" lon="8.006391570839734"><ele>201.0</ele><time>2026-05-02T16:10:39Z</time></trkpt><trkpt lat="44.77766704410561" lon="8.006235057090967"><ele>202.0</ele><time>2026-05-02T16:10:40Z</time></trkpt><trkpt lat="44.77786262600041" lon="8.0060966520963"><ele>203.0</ele><time>2026-05-02T16:10:41Z</time></trkpt><trkpt lat="44.77806698255538" lon="8.005955106025048"><ele>204.0</ele><time>2026-05-02T16:10:42Z</time></trkpt><trkpt lat="44.77827581073161" lon="8.00580583955332"><ele>204.0</ele><time>2026-05-02T16:10:43Z</time></trkpt><trkpt lat="44.77850441343369" lon="8.005646406377316"><ele>204.0</ele><time>2026-05-02T16:10:44Z</time></trkpt><trkpt lat="44.77873598758751" lon="8.005485750247546"><ele>200.5</ele><time>2026-05-02T16:10:45Z</time></trkpt><trkpt lat="44.778961572996785" lon="8.005332790641997"><ele>197.0</ele><time>2026-05-02T16:10:46Z</time></trkpt><trkpt lat="44.77918318267883" lon="8.005178994119573"><ele>196.0</ele><time>2026-05-02T16:10:47Z</time></trkpt><trkpt lat="44.779395682294165" lon="8.005027248062667"><ele>195.0</ele><time>2026-05-02T16:10:48Z</time></trkpt><trkpt lat="44.779596231798955" lon="8.0048849716839"><ele>195.0</ele><time>2026-05-02T16:10:49Z</time></trkpt><trkpt lat="44.77979044752662" lon="8.004743678166445"><ele>195.0</ele><time>2026-05-02T16:10:50Z</time></trkpt><trkpt lat="44.779994920548354" lon="8.004601513433943"><ele>195.0</ele><time>2026-05-02T16:10:51Z</time></trkpt><trkpt lat="44.78019856113821" lon="8.004464725971232"><ele>195.0</ele><time>2026-05-02T16:10:52Z</time></trkpt><trkpt lat="44.78040694170981" lon="8.004316616962335"><ele>195.0</ele><time>2026-05-02T16:10:53Z</time></trkpt><trkpt lat="44.78061035052487" lon="8.004167839563687"><ele>196.5</ele><time>2026-05-02T16:10:54Z</time></trkpt><trkpt lat="44.780815580391604" lon="8.004018798019894"><ele>198.0</ele><time>2026-05-02T16:10:55Z</time></trkpt><trkpt lat="44.781014215378626" lon="8.00387873020904"><ele>196.66666666666669</ele><time>2026-05-02T16:10:56Z</time></trkpt><trkpt lat="44.7811999239895" lon="8.003745715913496"><ele>195.33333333333334</ele><time>2026-05-02T16:10:57Z</time></trkpt><trkpt lat="44.78137968238742" lon="8.003623183937655"><ele>194.0</ele><time>2026-05-02T16:10:58Z</time></trkpt><trkpt lat="44.78156198791627" lon="8.003499325804986"><ele>194.0</ele><time>2026-05-02T16:10:59Z</time></trkpt><trkpt lat="44.78174086610885" lon="8.003381555122893"><ele>194.0</ele><time>2026-05-02T16:11:00Z</time></trkpt><trkpt lat="44.78192274186497" lon="8.003266277660849"><ele>194.0</ele><time>2026-05-02T16:11:01Z</time></trkpt><trkpt lat="44.78209935331163" lon="8.00316482137368"><ele>193.66666666666669</ele><time>2026-05-02T16:11:02Z</time></trkpt><trkpt lat="44.78226852486013" lon="8.003076248989547"><ele>193.33333333333331</ele><time>2026-05-02T16:11:03Z</time></trkpt><trkpt lat="44.78242688044837" lon="8.002999337671035"><ele>193.0</ele><time>2026-05-02T16:11:04Z</time></trkpt><trkpt lat="44.78257038219382" lon="8.00293359724141"><ele>192.8</ele><time>2026-05-02T16:11:05Z</time></trkpt><trkpt lat="44.78270069281329" lon="8.002881294727672"><ele>192.60000000000002</ele><time>2026-05-02T16:11:06Z</time></trkpt><trkpt lat="44.782815364704796" lon="8.002841564164765"><ele>192.39999999999998</ele><time>2026-05-02T16:11:07Z</time></trkpt><trkpt lat="44.78291342015811" lon="8.002808244425381"><ele>192.2</ele><time>2026-05-02T16:11:08Z</time></trkpt><trkpt lat="44.782997424053015" lon="8.002779067321418"><ele>192.0</ele><time>2026-05-02T16:11:09Z</time></trkpt><trkpt lat="44.78306897458487" lon="8.002758004484702"><ele>192.0</ele><time>2026-05-02T16:11:10Z</time></trkpt><trkpt lat="44.783178819967475" lon="8.00273535394611"><ele>192.0</ele><time>2026-05-02T16:11:12Z</time></trkpt><trkpt lat="44.78324522955125" lon="8.002734226110544"><ele>192.0</ele><time>2026-05-02T16:11:13Z</time></trkpt><trkpt lat="44.78331847512667" lon="8.002751901608724"><ele>192.0</ele><time>2026-05-02T16:11:14Z</time></trkpt><trkpt lat="44.78341606325793" lon="8.00274722415864"><ele>192.0</ele><time>2026-05-02T16:11:15Z</time></trkpt><trkpt lat="44.78351931010837" lon="8.002702349676706"><ele>191.75</ele><time>2026-05-02T16:11:16Z</time></trkpt><trkpt lat="44.78362356695604" lon="8.002637107593419"><ele>191.5</ele><time>2026-05-02T16:11:17Z</time></trkpt><trkpt lat="44.78373244332294" lon="8.002591813259528"><ele>191.25</ele><time>2026-05-02T16:11:18Z</time></trkpt><trkpt lat="44.78386482895037" lon="8.002570099550155"><ele>191.0</ele><time>2026-05-02T16:11:19Z</time></trkpt><trkpt lat="44.78401800062742" lon="8.002555435856177"><ele>191.0</ele><time>2026-05-02T16:11:20Z</time></trkpt><trkpt lat="44.78418713815674" lon="8.00253912442655"><ele>191.0</ele><time>2026-05-02T16:11:21Z</time></trkpt><trkpt lat="44.784367110778184" lon="8.002521395287138"><ele>191.0</ele><time>2026-05-02T16:11:22Z</time></trkpt><trkpt lat="44.78456908736613" lon="8.002506285107936"><ele>190.5</ele><time>2026-05-02T16:11:23Z</time></trkpt><trkpt lat="44.78479877594196" lon="8.002528125303202"><ele>190.0</ele><time>2026-05-02T16:11:24Z</time></trkpt><trkpt lat="44.78504560880594" lon="8.002526684341984"><ele>190.0</ele><time>2026-05-02T16:11:25Z</time></trkpt><trkpt lat="44.78529184454543" lon="8.002504205208714"><ele>190.0</ele><time>2026-05-02T16:11:26Z</time></trkpt><trkpt lat="44.78551412146271" lon="8.002518793058375"><ele>190.0</ele><time>2026-05-02T16:11:27Z</time></trkpt><trkpt lat="44.78571059603127" lon="8.002528186147133"><ele>190.0</ele><time>2026-05-02T16:11:28Z</time></trkpt><trkpt lat="44.78589928420589" lon="8.002533571601882"><ele>190.0</ele><time>2026-05-02T16:11:29Z</time></trkpt><trkpt lat="44.78608684700803" lon="8.002540843752689"><ele>189.66666666666669</ele><time>2026-05-02T16:11:30Z</time></trkpt><trkpt lat="44.78627859209387" lon="8.002545338741252"><ele>189.33333333333334</ele><time>2026-05-02T16:11:31Z</time></trkpt><trkpt lat="44.78646818481924" lon="8.002544000585628"><ele>189.0</ele><time>2026-05-02T16:11:32Z</time></trkpt><trkpt lat="44.7866563945732" lon="8.002548227466693"><ele>189.0</ele><time>2026-05-02T16:11:33Z</time></trkpt><trkpt lat="44.786840366253315" lon="8.00254878402551"><ele>189.0</ele><time>2026-05-02T16:11:34Z</time></trkpt><trkpt lat="44.78701617010059" lon="8.00255438464378"><ele>189.0</ele><time>2026-05-02T16:11:35Z</time></trkpt><trkpt lat="44.787192321345806" lon="8.002557160884312"><ele>188.66666666666666</ele><time>2026-05-02T16:11:36Z</time></trkpt><trkpt lat="44.78736287379295" lon="8.002560075129331"><ele>188.33333333333331</ele><time>2026-05-02T16:11:37Z</time></trkpt><trkpt lat="44.78751998375031" lon="8.002562011481865"><ele>188.0</ele><time>2026-05-02T16:11:38Z</time></trkpt><trkpt lat="44.78766915636528" lon="8.002563983430623"><ele>188.25</ele><time>2026-05-02T16:11:39Z</time></trkpt><trkpt lat="44.78780775411479" lon="8.00256711859135"><ele>188.5</ele><time>2026-05-02T16:11:40Z</time></trkpt><trkpt lat="44.78794750024912" lon="8.002569123820312"><ele>188.75</ele><time>2026-05-02T16:11:41Z</time></trkpt><trkpt lat="44.7881042001031" lon="8.002570853500513"><ele>189.0</ele><time>2026-05-02T16:11:42Z</time></trkpt><trkpt lat="44.78827806128608" lon="8.002573564683026"><ele>189.0</ele><time>2026-05-02T16:11:43Z</time></trkpt><trkpt lat="44.788457077592675" lon="8.002578109310297"><ele>189.0</ele><time>2026-05-02T16:11:44Z</time></trkpt><trkpt lat="44.78864586920178" lon="8.002578343224586"><ele>189.0</ele><time>2026-05-02T16:11:45Z</time></trkpt><trkpt lat="44.78885328842432" lon="8.002574351597765"><ele>189.0</ele><time>2026-05-02T16:11:46Z</time></trkpt><trkpt lat="44.7890787672926" lon="8.002569537345078"><ele>189.0</ele><time>2026-05-02T16:11:47Z</time></trkpt><trkpt lat="44.789320708778824" lon="8.002570909916749"><ele>190.0</ele><time>2026-05-02T16:11:48Z</time></trkpt><trkpt lat="44.78956228894939" lon="8.002574174075399"><ele>191.0</ele><time>2026-05-02T16:11:49Z</time></trkpt><trkpt lat="44.789809418243436" lon="8.002583479259577"><ele>191.0</ele><time>2026-05-02T16:11:50Z</time></trkpt><trkpt lat="44.790061856257076" lon="8.00258908529232"><ele>191.0</ele><time>2026-05-02T16:11:51Z</time></trkpt><trkpt lat="44.79031910859805" lon="8.002587208734848"><ele>191.5</ele><time>2026-05-02T16:11:52Z</time></trkpt><trkpt lat="44.79058230165655" lon="8.002586640988119"><ele>192.0</ele><time>2026-05-02T16:11:53Z</time></trkpt><trkpt lat="44.79083456447664" lon="8.002593588407542"><ele>191.66666666666666</ele><time>2026-05-02T16:11:54Z</time></trkpt><trkpt lat="44.79106673248444" lon="8.002608106814781"><ele>191.33333333333331</ele><time>2026-05-02T16:11:55Z</time></trkpt><trkpt lat="44.79127455262204" lon="8.002624926052698"><ele>191.0</ele><time>2026-05-02T16:11:56Z</time></trkpt><trkpt lat="44.79146460385482" lon="8.002640211724382"><ele>191.0</ele><time>2026-05-02T16:11:57Z</time></trkpt><trkpt lat="44.7916384350692" lon="8.002643609250194"><ele>191.0</ele><time>2026-05-02T16:11:58Z</time></trkpt><trkpt lat="44.7918042113005" lon="8.002636161298783"><ele>191.0</ele><time>2026-05-02T16:11:59Z</time></trkpt><trkpt lat="44.7919579895449" lon="8.002616391166134"><ele>190.66666666666666</ele><time>2026-05-02T16:12:00Z</time></trkpt><trkpt lat="44.79211013609666" lon="8.002586078286926"><ele>190.33333333333334</ele><time>2026-05-02T16:12:01Z</time></trkpt><trkpt lat="44.79227016942519" lon="8.002535182351535"><ele>190.0</ele><time>2026-05-02T16:12:02Z</time></trkpt><trkpt lat="44.79242755266013" lon="8.002481536273802"><ele>189.25</ele><time>2026-05-02T16:12:03Z</time></trkpt><trkpt lat="44.79255962097536" lon="8.00242081761467"><ele>188.5</ele><time>2026-05-02T16:12:04Z</time></trkpt><trkpt lat="44.79267841944811" lon="8.002359684404658"><ele>187.75</ele><time>2026-05-02T16:12:05Z</time></trkpt><trkpt lat="44.79279186403603" lon="8.00230195596999"><ele>187.0</ele><time>2026-05-02T16:12:06Z</time></trkpt><trkpt lat="44.79289291936444" lon="8.002261939727305"><ele>186.8</ele><time>2026-05-02T16:12:07Z</time></trkpt><trkpt lat="44.79299581097006" lon="8.002246942946451"><ele>186.6</ele><time>2026-05-02T16:12:08Z</time></trkpt><trkpt lat="44.79310157000099" lon="8.002255763622129"><ele>186.4</ele><time>2026-05-02T16:12:09Z</time></trkpt><trkpt lat="44.79320041264332" lon="8.002258121519722"><ele>186.20000000000002</ele><time>2026-05-02T16:12:10Z</time></trkpt><trkpt lat="44.793287860432706" lon="8.00220566951149"><ele>186.0</ele><time>2026-05-02T16:12:11Z</time></trkpt><trkpt lat="44.79334948428672" lon="8.002107116958113"><ele>186.0</ele><time>2026-05-02T16:12:12Z</time></trkpt><trkpt lat="44.79338495827381" lon="8.001981257295288"><ele>186.0</ele><time>2026-05-02T16:12:13Z</time></trkpt><trkpt lat="44.793410960297656" lon="8.001834248095"><ele>186.0</ele><time>2026-05-02T16:12:14Z</time></trkpt><trkpt lat="44.793459443568544" lon="8.001672483119846"><ele>186.0</ele><time>2026-05-02T16:12:15Z</time></trkpt><trkpt lat="44.79356291585897" lon="8.001540875027525"><ele>186.0</ele><time>2026-05-02T16:12:16Z</time></trkpt><trkpt lat="44.79366075395224" lon="8.001371848843466"><ele>186.0</ele><time>2026-05-02T16:12:17Z</time></trkpt><trkpt lat="44.793778457608816" lon="8.001203850132637"><ele>186.0</ele><time>2026-05-02T16:12:18Z</time></trkpt><trkpt lat="44.79388677637682" lon="8.001010926725034"><ele>186.66666666666666</ele><time>2026-05-02T16:12:19Z</time></trkpt><trkpt lat="44.79397305764266" lon="8.00080774166899"><ele>187.33333333333331</ele><time>2026-05-02T16:12:20Z</time></trkpt><trkpt lat="44.794049327525684" lon="8.000613036477354"><ele>188.0</ele><time>2026-05-02T16:12:21Z</time></trkpt><trkpt lat="44.794113364975686" lon="8.000431983392337"><ele>188.0</ele><time>2026-05-02T16:12:22Z</time></trkpt><trkpt lat="44.794169103751805" lon="8.000259017782165"><ele>188.0</ele><time>2026-05-02T16:12:23Z</time></trkpt><trkpt lat="44.794224754279256" lon="8.000101294995709"><ele>188.0</ele><time>2026-05-02T16:12:24Z</time></trkpt><trkpt lat="44.79428670418271" lon="7.999935064282138"><ele>188.0</ele><time>2026-05-02T16:12:25Z</time></trkpt><trkpt lat="44.79435076298566" lon="7.999759201422816"><ele>187.75</ele><time>2026-05-02T16:12:26Z</time></trkpt><trkpt lat="44.794415553933355" lon="7.999587243986662"><ele>187.5</ele><time>2026-05-02T16:12:27Z</time></trkpt><trkpt lat="44.79447392879129" lon="7.999427713347408"><ele>187.25</ele><time>2026-05-02T16:12:28Z</time></trkpt><trkpt lat="44.79452631889802" lon="7.999280333629617"><ele>187.0</ele><time>2026-05-02T16:12:29Z</time></trkpt><trkpt lat="44.79457846240142" lon="7.999130610067567"><ele>188.0</ele><time>2026-05-02T16:12:30Z</time></trkpt><trkpt lat="44.79462968056442" lon="7.998983672992"><ele>189.0</ele><time>2026-05-02T16:12:31Z</time></trkpt><trkpt lat="44.79467224495991" lon="7.998828136759768"><ele>190.0</ele><time>2026-05-02T16:12:32Z</time></trkpt><trkpt lat="44.794706123881845" lon="7.998663389099805"><ele>191.0</ele><time>2026-05-02T16:12:33Z</time></trkpt><trkpt lat="44.794734934405014" lon="7.998496890678048"><ele>191.25</ele><time>2026-05-02T16:12:34Z</time></trkpt><trkpt lat="44.7947564063681" lon="7.9983231917056505"><ele>191.5</ele><time>2026-05-02T16:12:35Z</time></trkpt><trkpt lat="44.79476754734807" lon="7.998143135311829"><ele>191.75</ele><time>2026-05-02T16:12:36Z</time></trkpt><trkpt lat="44.79476180864911" lon="7.9979556426114895"><ele>192.0</ele><time>2026-05-02T16:12:37Z</time></trkpt><trkpt lat="44.79475792586054" lon="7.997760325330337"><ele>192.0</ele><time>2026-05-02T16:12:38Z</time></trkpt><trkpt lat="44.794737162363845" lon="7.997559080251251"><ele>192.0</ele><time>2026-05-02T16:12:39Z</time></trkpt><trkpt lat="44.79470340946758" lon="7.997354094558493"><ele>192.0</ele><time>2026-05-02T16:12:40Z</time></trkpt><trkpt lat="44.79468887256491" lon="7.997232741592819"><ele>192.0</ele><time>2026-05-02T16:12:41Z</time></trkpt><trkpt lat="44.7946478992619" lon="7.997056344565036"><ele>193.0</ele><time>2026-05-02T16:12:42Z</time></trkpt><trkpt lat="44.794590543585024" lon="7.996892616851541"><ele>194.0</ele><time>2026-05-02T16:12:43Z</time></trkpt><trkpt lat="44.79452841036508" lon="7.996729962637923"><ele>195.0</ele><time>2026-05-02T16:12:44.001Z</time></trkpt><trkpt lat="44.79445216533275" lon="7.996561179804689"><ele>196.0</ele><time>2026-05-02T16:12:45.001Z</time></trkpt><trkpt lat="44.79434325514251" lon="7.996367478508458"><ele>194.33333333333331</ele><time>2026-05-02T16:12:46.001Z</time></trkpt><trkpt lat="44.794215558824135" lon="7.996171905495268"><ele>192.66666666666666</ele><time>2026-05-02T16:12:47.001Z</time></trkpt><trkpt lat="44.79407994393887" lon="7.9959569391654455"><ele>191.0</ele><time>2026-05-02T16:12:48.001Z</time></trkpt><trkpt lat="44.79396069926207" lon="7.995752627435638"><ele>191.0</ele><time>2026-05-02T16:12:49.001Z</time></trkpt><trkpt lat="44.79385554064066" lon="7.995563740511706"><ele>191.0</ele><time>2026-05-02T16:12:50.001Z</time></trkpt><trkpt lat="44.793754667545464" lon="7.995378776801359"><ele>191.0</ele><time>2026-05-02T16:12:51.001Z</time></trkpt><trkpt lat="44.79365622399509" lon="7.995213899987115"><ele>191.0</ele><time>2026-05-02T16:12:52.001Z</time></trkpt><trkpt lat="44.79359257243306" lon="7.995054655717071"><ele>191.0</ele><time>2026-05-02T16:12:53.001Z</time></trkpt><trkpt lat="44.79353187046931" lon="7.994924220870598"><ele>191.0</ele><time>2026-05-02T16:12:54.001Z</time></trkpt><trkpt lat="44.79346850371975" lon="7.994807091513448"><ele>191.0</ele><time>2026-05-02T16:12:55.001Z</time></trkpt><trkpt lat="44.79342547383623" lon="7.994689553414207"><ele>191.0</ele><time>2026-05-02T16:12:56.001Z</time></trkpt><trkpt lat="44.79338711477271" lon="7.994571099144328"><ele>190.8</ele><time>2026-05-02T16:12:57.001Z</time></trkpt><trkpt lat="44.79334955069874" lon="7.9944666637424175"><ele>190.60000000000002</ele><time>2026-05-02T16:12:58.001Z</time></trkpt><trkpt lat="44.79331218199117" lon="7.9943497136667805"><ele>190.4</ele><time>2026-05-02T16:12:59.001Z</time></trkpt><trkpt lat="44.79328142426655" lon="7.994228813260394"><ele>190.2</ele><time>2026-05-02T16:13:00.001Z</time></trkpt><trkpt lat="44.79324678330258" lon="7.994102192777154"><ele>190.0</ele><time>2026-05-02T16:13:01.001Z</time></trkpt><trkpt lat="44.793217580105214" lon="7.993976090481883"><ele>190.0</ele><time>2026-05-02T16:13:02.001Z</time></trkpt><trkpt lat="44.79318694931075" lon="7.993845390383646"><ele>190.0</ele><time>2026-05-02T16:13:03.001Z</time></trkpt><trkpt lat="44.793154783906" lon="7.993710781952717"><ele>190.0</ele><time>2026-05-02T16:13:04.001Z</time></trkpt><trkpt lat="44.79313129365751" lon="7.9935732008839935"><ele>190.0</ele><time>2026-05-02T16:13:05.001Z</time></trkpt><trkpt lat="44.79310886642669" lon="7.993433700763873"><ele>190.0</ele><time>2026-05-02T16:13:06.001Z</time></trkpt><trkpt lat="44.793088021533514" lon="7.993295146434883"><ele>189.66666666666669</ele><time>2026-05-02T16:13:07.001Z</time></trkpt><trkpt lat="44.79307495258605" lon="7.993169507915949"><ele>189.33333333333334</ele><time>2026-05-02T16:13:08.001Z</time></trkpt><trkpt lat="44.79305974511103" lon="7.993051756594561"><ele>189.0</ele><time>2026-05-02T16:13:09.001Z</time></trkpt><trkpt lat="44.79305416382879" lon="7.9929382625468115"><ele>188.66666666666666</ele><time>2026-05-02T16:13:10.001Z</time></trkpt><trkpt lat="44.79304557742698" lon="7.992843513409564"><ele>188.33333333333331</ele><time>2026-05-02T16:13:11.001Z</time></trkpt><trkpt lat="44.793025639390265" lon="7.992683379629427"><ele>188.0</ele><time>2026-05-02T16:13:13.001Z</time></trkpt><trkpt lat="44.79301757227295" lon="7.992539846199544"><ele>188.2</ele><time>2026-05-02T16:13:15.001Z</time></trkpt><trkpt lat="44.79300618246929" lon="7.992408996428621"><ele>188.4</ele><time>2026-05-02T16:13:17.001Z</time></trkpt><trkpt lat="44.79299437762612" lon="7.992306603139853"><ele>188.6</ele><time>2026-05-02T16:13:20.001Z</time></trkpt><trkpt lat="44.79299480409149" lon="7.992206256900867"><ele>188.79999999999998</ele><time>2026-05-02T16:13:22.001Z</time></trkpt><trkpt lat="44.79302731034992" lon="7.992068977048845"><ele>189.0</ele><time>2026-05-02T16:13:24.001Z</time></trkpt><trkpt lat="44.79305094547561" lon="7.991861244153317"><ele>189.0</ele><time>2026-05-02T16:13:26.001Z</time></trkpt><trkpt lat="44.793055794579125" lon="7.991713362259718"><ele>189.0</ele><time>2026-05-02T16:13:27.001Z</time></trkpt><trkpt lat="44.79306156072587" lon="7.991549906070801"><ele>189.0</ele><time>2026-05-02T16:13:28.001Z</time></trkpt><trkpt lat="44.79309669884065" lon="7.991368931691198"><ele>189.0</ele><time>2026-05-02T16:13:29.001Z</time></trkpt><trkpt lat="44.79315349146147" lon="7.991149302831708"><ele>189.66666666666666</ele><time>2026-05-02T16:13:30.001Z</time></trkpt><trkpt lat="44.79322930735632" lon="7.990885723296509"><ele>190.33333333333331</ele><time>2026-05-02T16:13:31.001Z</time></trkpt><trkpt lat="44.79332061674527" lon="7.99059864355637"><ele>191.0</ele><time>2026-05-02T16:13:32.001Z</time></trkpt><trkpt lat="44.79343042985963" lon="7.990293268425724"><ele>192.0</ele><time>2026-05-02T16:13:33.001Z</time></trkpt><trkpt lat="44.793557801629625" lon="7.989975940951397"><ele>193.0</ele><time>2026-05-02T16:13:34.001Z</time></trkpt><trkpt lat="44.793656877096495" lon="7.989640439709358"><ele>193.0</ele><time>2026-05-02T16:13:35Z</time></trkpt><trkpt lat="44.793782572258564" lon="7.989360405402592"><ele>193.0</ele><time>2026-05-02T16:13:36Z</time></trkpt><trkpt lat="44.793897156718025" lon="7.9891074116857235"><ele>193.0</ele><time>2026-05-02T16:13:37Z</time></trkpt><trkpt lat="44.794006409929864" lon="7.988860975339333"><ele>193.0</ele><time>2026-05-02T16:13:38Z</time></trkpt><trkpt lat="44.794117468714276" lon="7.988599620380312"><ele>193.0</ele><time>2026-05-02T16:13:39Z</time></trkpt><trkpt lat="44.794226335271084" lon="7.988331767206884"><ele>193.0</ele><time>2026-05-02T16:13:40Z</time></trkpt><trkpt lat="44.79434593370231" lon="7.988087856211944"><ele>193.0</ele><time>2026-05-02T16:13:41Z</time></trkpt><trkpt lat="44.794436122254524" lon="7.987828733941962"><ele>193.0</ele><time>2026-05-02T16:13:42Z</time></trkpt><trkpt lat="44.794535278105975" lon="7.987596656479868"><ele>193.0</ele><time>2026-05-02T16:13:43Z</time></trkpt><trkpt lat="44.79463013123942" lon="7.987372417898934"><ele>193.0</ele><time>2026-05-02T16:13:44Z</time></trkpt><trkpt lat="44.794719784030505" lon="7.987159473948531"><ele>193.0</ele><time>2026-05-02T16:13:45Z</time></trkpt><trkpt lat="44.79480590704775" lon="7.986955256531567"><ele>193.0</ele><time>2026-05-02T16:13:46Z</time></trkpt><trkpt lat="44.79488671475926" lon="7.986757406992719"><ele>195.0</ele><time>2026-05-02T16:13:47Z</time></trkpt><trkpt lat="44.7949682251189" lon="7.9865610275470065"><ele>197.0</ele><time>2026-05-02T16:13:48Z</time></trkpt><trkpt lat="44.79504764761081" lon="7.986374829897557"><ele>199.0</ele><time>2026-05-02T16:13:49Z</time></trkpt><trkpt lat="44.795122398413824" lon="7.986192095078631"><ele>198.33333333333331</ele><time>2026-05-02T16:13:50Z</time></trkpt><trkpt lat="44.79520277863414" lon="7.986005782132268"><ele>197.66666666666669</ele><time>2026-05-02T16:13:51Z</time></trkpt><trkpt lat="44.7952847605947" lon="7.985813423349158"><ele>197.0</ele><time>2026-05-02T16:13:52Z</time></trkpt><trkpt lat="44.795373039180134" lon="7.985621077375532"><ele>197.0</ele><time>2026-05-02T16:13:53Z</time></trkpt><trkpt lat="44.795477281566406" lon="7.985428904055299"><ele>197.0</ele><time>2026-05-02T16:13:54Z</time></trkpt><trkpt lat="44.79559475164249" lon="7.985238730411872"><ele>197.0</ele><time>2026-05-02T16:13:55Z</time></trkpt><trkpt lat="44.79573780177569" lon="7.985071343709047"><ele>197.66666666666669</ele><time>2026-05-02T16:13:56Z</time></trkpt><trkpt lat="44.79587988913533" lon="7.984896457038912"><ele>198.33333333333331</ele><time>2026-05-02T16:13:57Z</time></trkpt><trkpt lat="44.796018701800676" lon="7.984711460565423"><ele>199.0</ele><time>2026-05-02T16:13:58Z</time></trkpt><trkpt lat="44.796172812814014" lon="7.984549592197581"><ele>200.33333333333331</ele><time>2026-05-02T16:13:59Z</time></trkpt><trkpt lat="44.796318440053355" lon="7.984397665998218"><ele>201.66666666666669</ele><time>2026-05-02T16:14:00Z</time></trkpt><trkpt lat="44.79645066193004" lon="7.984256989310185"><ele>203.0</ele><time>2026-05-02T16:14:01Z</time></trkpt><trkpt lat="44.796574144857416" lon="7.9841235745644825"><ele>204.33333333333334</ele><time>2026-05-02T16:14:02Z</time></trkpt><trkpt lat="44.79669943334913" lon="7.983991848853198"><ele>205.66666666666669</ele><time>2026-05-02T16:14:03Z</time></trkpt><trkpt lat="44.79683852914536" lon="7.983866840381687"><ele>207.0</ele><time>2026-05-02T16:14:04Z</time></trkpt><trkpt lat="44.79697639479281" lon="7.983719048721775"><ele>207.0</ele><time>2026-05-02T16:14:05Z</time></trkpt><trkpt lat="44.79711723169346" lon="7.983568142885095"><ele>207.0</ele><time>2026-05-02T16:14:06Z</time></trkpt><trkpt lat="44.79726827952235" lon="7.983406296105834"><ele>207.0</ele><time>2026-05-02T16:14:07Z</time></trkpt><trkpt lat="44.79743301088429" lon="7.983229787511133"><ele>205.0</ele><time>2026-05-02T16:14:08Z</time></trkpt><trkpt lat="44.79761405174835" lon="7.9830358033873825"><ele>203.0</ele><time>2026-05-02T16:14:09Z</time></trkpt><trkpt lat="44.797803150917346" lon="7.982833184843427"><ele>203.0</ele><time>2026-05-02T16:14:10Z</time></trkpt><trkpt lat="44.797998091725795" lon="7.982625860859384"><ele>203.0</ele><time>2026-05-02T16:14:11Z</time></trkpt><trkpt lat="44.798195649832266" lon="7.982416891954063"><ele>204.5</ele><time>2026-05-02T16:14:12Z</time></trkpt><trkpt lat="44.79839472236118" lon="7.982204725421403"><ele>206.0</ele><time>2026-05-02T16:14:13Z</time></trkpt><trkpt lat="44.79858358879309" lon="7.982001113857914"><ele>202.66666666666669</ele><time>2026-05-02T16:14:14Z</time></trkpt><trkpt lat="44.79876208797901" lon="7.981810106670002"><ele>199.33333333333331</ele><time>2026-05-02T16:14:15Z</time></trkpt><trkpt lat="44.79894147598108" lon="7.98161901232299"><ele>196.0</ele><time>2026-05-02T16:14:16Z</time></trkpt><trkpt lat="44.799122513440736" lon="7.981424108774366"><ele>196.0</ele><time>2026-05-02T16:14:17Z</time></trkpt><trkpt lat="44.799300376477" lon="7.981232622867947"><ele>196.0</ele><time>2026-05-02T16:14:18Z</time></trkpt><trkpt lat="44.79946680711599" lon="7.981053444985861"><ele>196.0</ele><time>2026-05-02T16:14:19Z</time></trkpt><trkpt lat="44.79962364274336" lon="7.9808845969913165"><ele>197.0</ele><time>2026-05-02T16:14:20Z</time></trkpt><trkpt lat="44.799774583158275" lon="7.98072251512271"><ele>198.0</ele><time>2026-05-02T16:14:21Z</time></trkpt><trkpt lat="44.799914513712935" lon="7.980572730281789"><ele>199.0</ele><time>2026-05-02T16:14:22Z</time></trkpt><trkpt lat="44.800041018279224" lon="7.980437316959427"><ele>199.0</ele><time>2026-05-02T16:14:23Z</time></trkpt><trkpt lat="44.80015887728814" lon="7.980313180108039"><ele>199.0</ele><time>2026-05-02T16:14:24Z</time></trkpt><trkpt lat="44.8002575632284" lon="7.9801823224423725"><ele>199.0</ele><time>2026-05-02T16:14:25Z</time></trkpt><trkpt lat="44.80035639582825" lon="7.980090622531767"><ele>199.0</ele><time>2026-05-02T16:14:26Z</time></trkpt><trkpt lat="44.80045269529341" lon="7.98001602145709"><ele>198.79999999999998</ele><time>2026-05-02T16:14:27Z</time></trkpt><trkpt lat="44.80054932155935" lon="7.9799746978792125"><ele>198.6</ele><time>2026-05-02T16:14:28Z</time></trkpt><trkpt lat="44.80063045036889" lon="7.979904490195768"><ele>198.4</ele><time>2026-05-02T16:14:29Z</time></trkpt><trkpt lat="44.80070101558622" lon="7.979772478915838"><ele>198.2</ele><time>2026-05-02T16:14:30Z</time></trkpt><trkpt lat="44.800782577662545" lon="7.979621602434679"><ele>198.0</ele><time>2026-05-02T16:14:31Z</time></trkpt><trkpt lat="44.80089129419014" lon="7.979500080312434"><ele>198.0</ele><time>2026-05-02T16:14:32Z</time></trkpt><trkpt lat="44.801009396505776" lon="7.97937246946267"><ele>198.0</ele><time>2026-05-02T16:14:33Z</time></trkpt><trkpt lat="44.80113372902491" lon="7.979263406758601"><ele>198.0</ele><time>2026-05-02T16:14:34Z</time></trkpt><trkpt lat="44.80122744831393" lon="7.979136042762282"><ele>198.0</ele><time>2026-05-02T16:14:35Z</time></trkpt><trkpt lat="44.80133169521252" lon="7.979029838489608"><ele>198.0</ele><time>2026-05-02T16:14:36Z</time></trkpt><trkpt lat="44.80144502345868" lon="7.978911224780638"><ele>198.0</ele><time>2026-05-02T16:14:37Z</time></trkpt><trkpt lat="44.801566366892814" lon="7.978782074254552"><ele>198.0</ele><time>2026-05-02T16:14:38Z</time></trkpt><trkpt lat="44.8016832497338" lon="7.978654605274986"><ele>198.0</ele><time>2026-05-02T16:14:39Z</time></trkpt><trkpt lat="44.801798727921565" lon="7.978531231399369"><ele>198.0</ele><time>2026-05-02T16:14:40Z</time></trkpt><trkpt lat="44.801920975338945" lon="7.978400237421275"><ele>198.0</ele><time>2026-05-02T16:14:41Z</time></trkpt><trkpt lat="44.80204870503081" lon="7.978262311478015"><ele>198.0</ele><time>2026-05-02T16:14:42Z</time></trkpt><trkpt lat="44.80218165036188" lon="7.9781150824698415"><ele>198.33333333333331</ele><time>2026-05-02T16:14:43Z</time></trkpt><trkpt lat="44.80232474088476" lon="7.977957687070221"><ele>198.66666666666666</ele><time>2026-05-02T16:14:44Z</time></trkpt><trkpt lat="44.80248157054536" lon="7.977791009997245"><ele>199.0</ele><time>2026-05-02T16:14:45Z</time></trkpt><trkpt lat="44.80264564117527" lon="7.977620628156036"><ele>200.0</ele><time>2026-05-02T16:14:46Z</time></trkpt><trkpt lat="44.80281318196011" lon="7.977446978196277"><ele>201.0</ele><time>2026-05-02T16:14:47Z</time></trkpt><trkpt lat="44.80298392761095" lon="7.977271136029873"><ele>202.0</ele><time>2026-05-02T16:14:48Z</time></trkpt><trkpt lat="44.80315307730886" lon="7.977092512240492"><ele>202.0</ele><time>2026-05-02T16:14:49Z</time></trkpt><trkpt lat="44.803318566716904" lon="7.976912388989538"><ele>202.0</ele><time>2026-05-02T16:14:50Z</time></trkpt><trkpt lat="44.803481663073654" lon="7.976725115079855"><ele>202.0</ele><time>2026-05-02T16:14:51Z</time></trkpt><trkpt lat="44.803640529764905" lon="7.976531653711521"><ele>204.0</ele><time>2026-05-02T16:14:52Z</time></trkpt><trkpt lat="44.80380378617426" lon="7.976318540484437"><ele>206.0</ele><time>2026-05-02T16:14:53Z</time></trkpt><trkpt lat="44.80395930915845" lon="7.976092487042607"><ele>208.0</ele><time>2026-05-02T16:14:54Z</time></trkpt><trkpt lat="44.804114198803866" lon="7.975847919913596"><ele>208.0</ele><time>2026-05-02T16:14:55Z</time></trkpt><trkpt lat="44.80427340263605" lon="7.975623180585957"><ele>208.0</ele><time>2026-05-02T16:14:56Z</time></trkpt><trkpt lat="44.8044061786697" lon="7.975383201743174"><ele>208.0</ele><time>2026-05-02T16:14:57Z</time></trkpt><trkpt lat="44.804534910405216" lon="7.975131993259734"><ele>208.66666666666666</ele><time>2026-05-02T16:14:58Z</time></trkpt><trkpt lat="44.80465264011496" lon="7.974871794361398"><ele>209.33333333333331</ele><time>2026-05-02T16:14:59Z</time></trkpt><trkpt lat="44.80476457902773" lon="7.97459418004512"><ele>210.0</ele><time>2026-05-02T16:15:00Z</time></trkpt><trkpt lat="44.804866076544265" lon="7.974311733215217"><ele>206.5</ele><time>2026-05-02T16:15:01Z</time></trkpt><trkpt lat="44.804949091438964" lon="7.9740140001949875"><ele>203.0</ele><time>2026-05-02T16:15:02Z</time></trkpt><trkpt lat="44.80503632428425" lon="7.973712375378597"><ele>203.0</ele><time>2026-05-02T16:15:03Z</time></trkpt><trkpt lat="44.80510847265951" lon="7.9733935493207735"><ele>203.0</ele><time>2026-05-02T16:15:04.001Z</time></trkpt><trkpt lat="44.80517759794847" lon="7.973064491439956"><ele>203.0</ele><time>2026-05-02T16:15:05.001Z</time></trkpt><trkpt lat="44.80523222940923" lon="7.972718743380324"><ele>203.0</ele><time>2026-05-02T16:15:06.001Z</time></trkpt><trkpt lat="44.805269216125204" lon="7.972358341614587"><ele>205.0</ele><time>2026-05-02T16:15:07.001Z</time></trkpt><trkpt lat="44.805293936354346" lon="7.971989393449255"><ele>207.0</ele><time>2026-05-02T16:15:08.001Z</time></trkpt><trkpt lat="44.80530166879458" lon="7.9716186837230385"><ele>207.5</ele><time>2026-05-02T16:15:09.001Z</time></trkpt><trkpt lat="44.805301300036064" lon="7.971269264201567"><ele>208.0</ele><time>2026-05-02T16:15:10.001Z</time></trkpt><trkpt lat="44.80528527061977" lon="7.970927848721793"><ele>208.33333333333331</ele><time>2026-05-02T16:15:11.001Z</time></trkpt><trkpt lat="44.805258411924775" lon="7.970608712363719"><ele>208.66666666666669</ele><time>2026-05-02T16:15:12.001Z</time></trkpt><trkpt lat="44.80522491273692" lon="7.970314457120004"><ele>209.0</ele><time>2026-05-02T16:15:13.001Z</time></trkpt><trkpt lat="44.805182260373336" lon="7.970045258870719"><ele>211.33333333333334</ele><time>2026-05-02T16:15:14.001Z</time></trkpt><trkpt lat="44.80512975636354" lon="7.969765778203374"><ele>213.66666666666669</ele><time>2026-05-02T16:15:15.001Z</time></trkpt><trkpt lat="44.80506949880184" lon="7.969486221977025"><ele>216.0</ele><time>2026-05-02T16:15:16.001Z</time></trkpt><trkpt lat="44.80499887418086" lon="7.969211160682609"><ele>215.33333333333331</ele><time>2026-05-02T16:15:17.001Z</time></trkpt><trkpt lat="44.804920195626664" lon="7.968941114582619"><ele>214.66666666666666</ele><time>2026-05-02T16:15:18.001Z</time></trkpt><trkpt lat="44.80482962534695" lon="7.968669488689337"><ele>214.0</ele><time>2026-05-02T16:15:19.001Z</time></trkpt><trkpt lat="44.80473076077313" lon="7.968404617125345"><ele>213.0</ele><time>2026-05-02T16:15:20.001Z</time></trkpt><trkpt lat="44.80461638255825" lon="7.968141162505149"><ele>212.0</ele><time>2026-05-02T16:15:21.001Z</time></trkpt><trkpt lat="44.80449944913553" lon="7.967853791352444"><ele>212.0</ele><time>2026-05-02T16:15:22.001Z</time></trkpt><trkpt lat="44.80435719283436" lon="7.96757515082558"><ele>212.0</ele><time>2026-05-02T16:15:23.001Z</time></trkpt><trkpt lat="44.804209495400364" lon="7.967297485123037"><ele>217.5</ele><time>2026-05-02T16:15:24.001Z</time></trkpt><trkpt lat="44.80404333595011" lon="7.967027384035371"><ele>223.0</ele><time>2026-05-02T16:15:25.001Z</time></trkpt><trkpt lat="44.80389815616129" lon="7.966741278065355"><ele>220.33333333333331</ele><time>2026-05-02T16:15:26.001Z</time></trkpt><trkpt lat="44.803760239900306" lon="7.966483554182774"><ele>217.66666666666669</ele><time>2026-05-02T16:15:27.001Z</time></trkpt><trkpt lat="44.80362782655163" lon="7.9662453815255425"><ele>215.0</ele><time>2026-05-02T16:15:28.001Z</time></trkpt><trkpt lat="44.803503545713696" lon="7.966013614149506"><ele>215.66666666666669</ele><time>2026-05-02T16:15:29.001Z</time></trkpt><trkpt lat="44.80337667063795" lon="7.965784139732246"><ele>216.33333333333331</ele><time>2026-05-02T16:15:30.001Z</time></trkpt><trkpt lat="44.80325922471138" lon="7.965564140700347"><ele>217.0</ele><time>2026-05-02T16:15:31.001Z</time></trkpt><trkpt lat="44.803151359259985" lon="7.965343145263762"><ele>217.0</ele><time>2026-05-02T16:15:32.001Z</time></trkpt><trkpt lat="44.803044449030494" lon="7.965114539672262"><ele>217.0</ele><time>2026-05-02T16:15:33.001Z</time></trkpt><trkpt lat="44.802937541949966" lon="7.964883494937816"><ele>217.0</ele><time>2026-05-02T16:15:34.001Z</time></trkpt><trkpt lat="44.80283742201278" lon="7.964653732868288"><ele>218.0</ele><time>2026-05-02T16:15:35.001Z</time></trkpt><trkpt lat="44.802748102650526" lon="7.964423803195601"><ele>219.0</ele><time>2026-05-02T16:15:36.001Z</time></trkpt><trkpt lat="44.80267302925116" lon="7.964200360668758"><ele>220.0</ele><time>2026-05-02T16:15:37.001Z</time></trkpt><trkpt lat="44.802602875255445" lon="7.963988109151243"><ele>223.0</ele><time>2026-05-02T16:15:38.001Z</time></trkpt><trkpt lat="44.802531116408716" lon="7.963772380216713"><ele>226.0</ele><time>2026-05-02T16:15:39.001Z</time></trkpt><trkpt lat="44.80245747214792" lon="7.9635409297563395"><ele>229.0</ele><time>2026-05-02T16:15:40.001Z</time></trkpt><trkpt lat="44.80238484133506" lon="7.9632954479914115"><ele>229.0</ele><time>2026-05-02T16:15:41.001Z</time></trkpt><trkpt lat="44.80231780671944" lon="7.963057198432884"><ele>229.0</ele><time>2026-05-02T16:15:42.001Z</time></trkpt><trkpt lat="44.802259549586246" lon="7.96283163552814"><ele>229.0</ele><time>2026-05-02T16:15:43.001Z</time></trkpt><trkpt lat="44.80219875804456" lon="7.962580006576809"><ele>227.0</ele><time>2026-05-02T16:15:44.001Z</time></trkpt><trkpt lat="44.802125845265046" lon="7.962305301045953"><ele>225.0</ele><time>2026-05-02T16:15:45.001Z</time></trkpt><trkpt lat="44.80204413351881" lon="7.962005261077106"><ele>223.0</ele><time>2026-05-02T16:15:46.001Z</time></trkpt><trkpt lat="44.80196417708274" lon="7.9616921312336135"><ele>220.5</ele><time>2026-05-02T16:15:47.001Z</time></trkpt><trkpt lat="44.80188168949177" lon="7.961371475403515"><ele>218.0</ele><time>2026-05-02T16:15:48.001Z</time></trkpt><trkpt lat="44.80180739691526" lon="7.961039330686672"><ele>221.5</ele><time>2026-05-02T16:15:49.001Z</time></trkpt><trkpt lat="44.80174002101197" lon="7.960705406807987"><ele>225.0</ele><time>2026-05-02T16:15:50.001Z</time></trkpt><trkpt lat="44.801674891351006" lon="7.960362553214243"><ele>223.5</ele><time>2026-05-02T16:15:51.001Z</time></trkpt><trkpt lat="44.80161185204874" lon="7.960008592623428"><ele>222.0</ele><time>2026-05-02T16:15:52.001Z</time></trkpt><trkpt lat="44.801556847082836" lon="7.959642100583281"><ele>222.0</ele><time>2026-05-02T16:15:53.001Z</time></trkpt><trkpt lat="44.80150856770473" lon="7.959267353523918"><ele>222.0</ele><time>2026-05-02T16:15:54.001Z</time></trkpt><trkpt lat="44.80147381121069" lon="7.95888539416068"><ele>222.5</ele><time>2026-05-02T16:15:55.001Z</time></trkpt><trkpt lat="44.80145482143485" lon="7.958496940086135"><ele>223.0</ele><time>2026-05-02T16:15:56.001Z</time></trkpt><trkpt lat="44.80145214002211" lon="7.958107432702135"><ele>223.0</ele><time>2026-05-02T16:15:57.001Z</time></trkpt><trkpt lat="44.8014687198851" lon="7.957726092426025"><ele>223.0</ele><time>2026-05-02T16:15:58.001Z</time></trkpt><trkpt lat="44.80150317755023" lon="7.9573507154304215"><ele>226.0</ele><time>2026-05-02T16:15:59.001Z</time></trkpt><trkpt lat="44.801550007859255" lon="7.956997947740711"><ele>229.0</ele><time>2026-05-02T16:16:00.001Z</time></trkpt><trkpt lat="44.80161230613994" lon="7.95665980107566"><ele>233.5</ele><time>2026-05-02T16:16:01.001Z</time></trkpt><trkpt lat="44.80168746366216" lon="7.956313672120057"><ele>238.0</ele><time>2026-05-02T16:16:02.001Z</time></trkpt><trkpt lat="44.801780147625955" lon="7.955975535934264"><ele>234.5</ele><time>2026-05-02T16:16:03.001Z</time></trkpt><trkpt lat="44.80189025842868" lon="7.955645138866847"><ele>231.0</ele><time>2026-05-02T16:16:04.001Z</time></trkpt><trkpt lat="44.80202083720394" lon="7.955321494964285"><ele>233.0</ele><time>2026-05-02T16:16:05.001Z</time></trkpt><trkpt lat="44.802164554000875" lon="7.955000860023032"><ele>235.0</ele><time>2026-05-02T16:16:06.001Z</time></trkpt><trkpt lat="44.802318318928315" lon="7.954691056193114"><ele>235.0</ele><time>2026-05-02T16:16:07.001Z</time></trkpt><trkpt lat="44.802485101902946" lon="7.954397416836982"><ele>235.0</ele><time>2026-05-02T16:16:08.001Z</time></trkpt><trkpt lat="44.80266646484259" lon="7.9541118125256585"><ele>239.5</ele><time>2026-05-02T16:16:09.001Z</time></trkpt><trkpt lat="44.80285559040681" lon="7.953838971180991"><ele>244.0</ele><time>2026-05-02T16:16:10.001Z</time></trkpt><trkpt lat="44.803041777939015" lon="7.953584795644896"><ele>250.0</ele><time>2026-05-02T16:16:11.001Z</time></trkpt><trkpt lat="44.80323821956171" lon="7.953331603704174"><ele>256.0</ele><time>2026-05-02T16:16:12.001Z</time></trkpt><trkpt lat="44.80344118747569" lon="7.953087183543746"><ele>261.5</ele><time>2026-05-02T16:16:13.001Z</time></trkpt><trkpt lat="44.80365312625452" lon="7.952843823584438"><ele>267.0</ele><time>2026-05-02T16:16:14.001Z</time></trkpt><trkpt lat="44.803876371710814" lon="7.952598393499724"><ele>269.5</ele><time>2026-05-02T16:16:15.001Z</time></trkpt><trkpt lat="44.80410768170551" lon="7.952352909202023"><ele>272.0</ele><time>2026-05-02T16:16:16.001Z</time></trkpt><trkpt lat="44.80435109413983" lon="7.952110419361313"><ele>272.0</ele><time>2026-05-02T16:16:17.001Z</time></trkpt><trkpt lat="44.80460026095614" lon="7.951868684549995"><ele>272.0</ele><time>2026-05-02T16:16:18.001Z</time></trkpt><trkpt lat="44.80482729560517" lon="7.951619514309199"><ele>262.5</ele><time>2026-05-02T16:16:19.001Z</time></trkpt><trkpt lat="44.8050163956077" lon="7.951386985558627"><ele>253.0</ele><time>2026-05-02T16:16:20.001Z</time></trkpt><trkpt lat="44.80521009357002" lon="7.9511432312157595"><ele>253.0</ele><time>2026-05-02T16:16:21.001Z</time></trkpt><trkpt lat="44.805415327216956" lon="7.950905711693843"><ele>253.0</ele><time>2026-05-02T16:16:22.001Z</time></trkpt><trkpt lat="44.80562779382157" lon="7.950665061109949"><ele>253.0</ele><time>2026-05-02T16:16:23.001Z</time></trkpt><trkpt lat="44.80584492451378" lon="7.950425235928767"><ele>253.0</ele><time>2026-05-02T16:16:24.001Z</time></trkpt><trkpt lat="44.80606311963544" lon="7.950186074561202"><ele>271.5</ele><time>2026-05-02T16:16:25.001Z</time></trkpt><trkpt lat="44.806283132667694" lon="7.949947323903033"><ele>290.0</ele><time>2026-05-02T16:16:26.001Z</time></trkpt><trkpt lat="44.80650732984414" lon="7.9497125148222425"><ele>290.0</ele><time>2026-05-02T16:16:27.001Z</time></trkpt><trkpt lat="44.80674236524351" lon="7.949484989265042"><ele>290.0</ele><time>2026-05-02T16:16:28.001Z</time></trkpt><trkpt lat="44.80699295568526" lon="7.9492485279865575"><ele>303.0</ele><time>2026-05-02T16:16:29.001Z</time></trkpt><trkpt lat="44.807224762228756" lon="7.949044493693911"><ele>316.0</ele><time>2026-05-02T16:16:30.001Z</time></trkpt><trkpt lat="44.80746464146845" lon="7.948853463099808"><ele>317.0</ele><time>2026-05-02T16:16:31.001Z</time></trkpt><trkpt lat="44.80772627418959" lon="7.948665715573998"><ele>318.0</ele><time>2026-05-02T16:16:32.072Z</time></trkpt><trkpt lat="44.80795276914155" lon="7.948516976114883"><ele>318.5</ele><time>2026-05-02T16:16:33.063Z</time></trkpt><trkpt lat="44.80819041047245" lon="7.948374848893952"><ele>319.0</ele><time>2026-05-02T16:16:34.062Z</time></trkpt><trkpt lat="44.80844585930595" lon="7.948240408757006"><ele>317.0</ele><time>2026-05-02T16:16:35.063Z</time></trkpt><trkpt lat="44.80869625221426" lon="7.948113387694049"><ele>315.0</ele><time>2026-05-02T16:16:36.059Z</time></trkpt><trkpt lat="44.815067513326994" lon="7.946576497891998"><ele>299.0</ele><time>2026-05-02T16:16:59Z</time></trkpt><trkpt lat="44.81555694211085" lon="7.946813207302925"><ele>299.0</ele><time>2026-05-02T16:17:01Z</time></trkpt><trkpt lat="44.81576844899458" lon="7.946849581089916"><ele>299.0</ele><time>2026-05-02T16:17:02Z</time></trkpt><trkpt lat="44.815983546866" lon="7.946927839765579"><ele>299.0</ele><time>2026-05-02T16:17:03Z</time></trkpt><trkpt lat="44.81619033974866" lon="7.947016683745994"><ele>298.0</ele><time>2026-05-02T16:17:04Z</time></trkpt><trkpt lat="44.81641929318186" lon="7.947147746957521"><ele>297.0</ele><time>2026-05-02T16:17:05Z</time></trkpt><trkpt lat="44.816653422888" lon="7.947262456809607"><ele>298.0</ele><time>2026-05-02T16:17:06Z</time></trkpt><trkpt lat="44.81688891470961" lon="7.947379602487669"><ele>299.0</ele><time>2026-05-02T16:17:07Z</time></trkpt><trkpt lat="44.817133717395244" lon="7.94750387881073"><ele>300.5</ele><time>2026-05-02T16:17:08Z</time></trkpt><trkpt lat="44.8173868315005" lon="7.947611701481441"><ele>302.0</ele><time>2026-05-02T16:17:09Z</time></trkpt><trkpt lat="44.8176403965204" lon="7.947741114545055"><ele>299.5</ele><time>2026-05-02T16:17:10Z</time></trkpt><trkpt lat="44.81789073369373" lon="7.947874636700762"><ele>297.0</ele><time>2026-05-02T16:17:11Z</time></trkpt><trkpt lat="44.81813918704211" lon="7.947989434314443"><ele>297.0</ele><time>2026-05-02T16:17:12Z</time></trkpt><trkpt lat="44.81839403739181" lon="7.948093415782148"><ele>297.0</ele><time>2026-05-02T16:17:13Z</time></trkpt><trkpt lat="44.81865208007726" lon="7.948173333422968"><ele>297.0</ele><time>2026-05-02T16:17:14Z</time></trkpt><trkpt lat="44.818912341400164" lon="7.948238467756099"><ele>297.0</ele><time>2026-05-02T16:17:15.001Z</time></trkpt><trkpt lat="44.819174039940094" lon="7.948280866686564"><ele>296.0</ele><time>2026-05-02T16:17:16.001Z</time></trkpt><trkpt lat="44.81943408448886" lon="7.948293616758899"><ele>295.0</ele><time>2026-05-02T16:17:17.001Z</time></trkpt><trkpt lat="44.819690547340436" lon="7.948283301858059"><ele>295.0</ele><time>2026-05-02T16:17:18.001Z</time></trkpt><trkpt lat="44.81994756702893" lon="7.948249441054018"><ele>295.0</ele><time>2026-05-02T16:17:19.001Z</time></trkpt><trkpt lat="44.82019721905522" lon="7.9481893488885005"><ele>296.3333333333333</ele><time>2026-05-02T16:17:20.001Z</time></trkpt><trkpt lat="44.82041312162527" lon="7.9481159868469815"><ele>297.6666666666667</ele><time>2026-05-02T16:17:21.001Z</time></trkpt><trkpt lat="44.82061216459291" lon="7.948036290573677"><ele>299.0</ele><time>2026-05-02T16:17:22.001Z</time></trkpt><trkpt lat="44.820771415452" lon="7.9479998387730095"><ele>299.0</ele><time>2026-05-02T16:17:23.001Z</time></trkpt><trkpt lat="44.82088465334882" lon="7.9479449693523545"><ele>299.0</ele><time>2026-05-02T16:17:24.001Z</time></trkpt><trkpt lat="44.820998207535446" lon="7.947917050479863"><ele>299.0</ele><time>2026-05-02T16:17:25.001Z</time></trkpt><trkpt lat="44.82110138259902" lon="7.9479246836286865"><ele>299.0</ele><time>2026-05-02T16:17:26.001Z</time></trkpt><trkpt lat="44.82119628062078" lon="7.9479734965202065"><ele>299.0</ele><time>2026-05-02T16:17:27.001Z</time></trkpt><trkpt lat="44.82129326837925" lon="7.948030708018546"><ele>298.25</ele><time>2026-05-02T16:17:28.001Z</time></trkpt><trkpt lat="44.82140096765423" lon="7.948015321342646"><ele>297.5</ele><time>2026-05-02T16:17:29.001Z</time></trkpt><trkpt lat="44.82149337954581" lon="7.947896715549726"><ele>296.75</ele><time>2026-05-02T16:17:30.001Z</time></trkpt><trkpt lat="44.82156701306258" lon="7.947751388879949"><ele>296.0</ele><time>2026-05-02T16:17:31.001Z</time></trkpt><trkpt lat="44.821580068391505" lon="7.947527347700312"><ele>295.6666666666667</ele><time>2026-05-02T16:17:32.001Z</time></trkpt><trkpt lat="44.82164911511321" lon="7.947351457343777"><ele>295.3333333333333</ele><time>2026-05-02T16:17:33.001Z</time></trkpt><trkpt lat="44.82176528829971" lon="7.947210077579632"><ele>295.0</ele><time>2026-05-02T16:17:34.001Z</time></trkpt><trkpt lat="44.821907707941875" lon="7.947070041492039"><ele>295.3333333333333</ele><time>2026-05-02T16:17:35.001Z</time></trkpt><trkpt lat="44.82206044970015" lon="7.946899841871296"><ele>295.6666666666667</ele><time>2026-05-02T16:17:36.001Z</time></trkpt><trkpt lat="44.82222040779177" lon="7.946699036819199"><ele>296.0</ele><time>2026-05-02T16:17:37.001Z</time></trkpt><trkpt lat="44.82238131806676" lon="7.946470055023124"><ele>296.0</ele><time>2026-05-02T16:17:38.001Z</time></trkpt><trkpt lat="44.822543628429585" lon="7.946206355824605"><ele>296.0</ele><time>2026-05-02T16:17:39.001Z</time></trkpt><trkpt lat="44.822700570373726" lon="7.945916946296925"><ele>296.5</ele><time>2026-05-02T16:17:40.001Z</time></trkpt><trkpt lat="44.822855340218865" lon="7.945602405563502"><ele>297.0</ele><time>2026-05-02T16:17:41.001Z</time></trkpt><trkpt lat="44.82301680031444" lon="7.945289163337977"><ele>296.0</ele><time>2026-05-02T16:17:42.001Z</time></trkpt><trkpt lat="44.8231689645677" lon="7.945006537556116"><ele>295.0</ele><time>2026-05-02T16:17:43.001Z</time></trkpt><trkpt lat="44.82330437483957" lon="7.944764139163137"><ele>295.0</ele><time>2026-05-02T16:17:44.001Z</time></trkpt><trkpt lat="44.82341875126585" lon="7.944544464833456"><ele>295.0</ele><time>2026-05-02T16:17:45.001Z</time></trkpt><trkpt lat="44.82351888102467" lon="7.944344042160539"><ele>295.0</ele><time>2026-05-02T16:17:46.001Z</time></trkpt><trkpt lat="44.82360905462169" lon="7.944158794323693"><ele>295.5</ele><time>2026-05-02T16:17:47.001Z</time></trkpt><trkpt lat="44.82368674881519" lon="7.943990858464521"><ele>296.0</ele><time>2026-05-02T16:17:48.001Z</time></trkpt><trkpt lat="44.82375804516479" lon="7.943841280332776"><ele>296.5</ele><time>2026-05-02T16:17:49.001Z</time></trkpt><trkpt lat="44.823817054731215" lon="7.943729957717235"><ele>297.0</ele><time>2026-05-02T16:17:50.001Z</time></trkpt><trkpt lat="44.82388679577034" lon="7.94365222758608"><ele>297.0</ele><time>2026-05-02T16:17:51.001Z</time></trkpt><trkpt lat="44.82396959736107" lon="7.9435971471617455"><ele>297.0</ele><time>2026-05-02T16:17:52.001Z</time></trkpt><trkpt lat="44.824041072137774" lon="7.943544875971434"><ele>297.0</ele><time>2026-05-02T16:17:53.001Z</time></trkpt><trkpt lat="44.82409174604467" lon="7.943452727587998"><ele>297.0</ele><time>2026-05-02T16:17:54.001Z</time></trkpt><trkpt lat="44.824110553187225" lon="7.9433093994888395"><ele>297.0</ele><time>2026-05-02T16:17:55.001Z</time></trkpt><trkpt lat="44.82411316716931" lon="7.943168269315768"><ele>296.25</ele><time>2026-05-02T16:17:56.001Z</time></trkpt><trkpt lat="44.82413090808271" lon="7.943008379504933"><ele>295.5</ele><time>2026-05-02T16:17:57.001Z</time></trkpt><trkpt lat="44.824166827344655" lon="7.942842077770674"><ele>294.75</ele><time>2026-05-02T16:17:58.001Z</time></trkpt><trkpt lat="44.82425542213918" lon="7.94268311069024"><ele>294.0</ele><time>2026-05-02T16:17:59.001Z</time></trkpt><trkpt lat="44.82433515205969" lon="7.942474748350043"><ele>293.6666666666667</ele><time>2026-05-02T16:18:00.001Z</time></trkpt><trkpt lat="44.82442532741828" lon="7.942241936361659"><ele>293.33333333333337</ele><time>2026-05-02T16:18:01.001Z</time></trkpt><trkpt lat="44.82452223180558" lon="7.941963539996614"><ele>293.0</ele><time>2026-05-02T16:18:02.001Z</time></trkpt><trkpt lat="44.82464452888932" lon="7.941676238580215"><ele>292.5</ele><time>2026-05-02T16:18:03.001Z</time></trkpt><trkpt lat="44.82476845993545" lon="7.941361079635129"><ele>292.0</ele><time>2026-05-02T16:18:04.001Z</time></trkpt><trkpt lat="44.8248969089035" lon="7.941027755915588"><ele>292.5</ele><time>2026-05-02T16:18:05.001Z</time></trkpt><trkpt lat="44.82503787314035" lon="7.940675293049204"><ele>293.0</ele><time>2026-05-02T16:18:06.001Z</time></trkpt><trkpt lat="44.82518483784003" lon="7.94031191654062"><ele>292.5</ele><time>2026-05-02T16:18:07.001Z</time></trkpt><trkpt lat="44.82533962391001" lon="7.939931652715483"><ele>292.0</ele><time>2026-05-02T16:18:08.001Z</time></trkpt><trkpt lat="44.82549530118107" lon="7.9395449704341035"><ele>292.0</ele><time>2026-05-02T16:18:09.001Z</time></trkpt><trkpt lat="44.82565391612535" lon="7.939147170602277"><ele>292.0</ele><time>2026-05-02T16:18:10.001Z</time></trkpt><trkpt lat="44.825814015920194" lon="7.938749535893166"><ele>292.0</ele><time>2026-05-02T16:18:11.001Z</time></trkpt><trkpt lat="44.82596793660196" lon="7.9383715137771835"><ele>292.0</ele><time>2026-05-02T16:18:12.001Z</time></trkpt><trkpt lat="44.826110483329046" lon="7.938018958380715"><ele>292.0</ele><time>2026-05-02T16:18:13.001Z</time></trkpt><trkpt lat="44.8262539025301" lon="7.937663732817245"><ele>292.0</ele><time>2026-05-02T16:18:14.001Z</time></trkpt><trkpt lat="44.82639941518955" lon="7.937300683555694"><ele>291.0</ele><time>2026-05-02T16:18:15.001Z</time></trkpt><trkpt lat="44.82654870387263" lon="7.936932407762484"><ele>290.0</ele><time>2026-05-02T16:18:16.001Z</time></trkpt><trkpt lat="44.82669946373306" lon="7.936561407271592"><ele>290.5</ele><time>2026-05-02T16:18:17.001Z</time></trkpt><trkpt lat="44.82685012137019" lon="7.936184969022829"><ele>291.0</ele><time>2026-05-02T16:18:18.001Z</time></trkpt><trkpt lat="44.82700205325907" lon="7.935807206301042"><ele>291.5</ele><time>2026-05-02T16:18:19.001Z</time></trkpt><trkpt lat="44.82715268204284" lon="7.935425048698529"><ele>292.0</ele><time>2026-05-02T16:18:20.001Z</time></trkpt><trkpt lat="44.827306922432484" lon="7.935043784598827"><ele>291.0</ele><time>2026-05-02T16:18:21.001Z</time></trkpt><trkpt lat="44.827460909902435" lon="7.934665487070743"><ele>290.0</ele><time>2026-05-02T16:18:22.001Z</time></trkpt><trkpt lat="44.82761011928037" lon="7.934289322656783"><ele>290.0</ele><time>2026-05-02T16:18:23.001Z</time></trkpt><trkpt lat="44.82775591305871" lon="7.933921979748563"><ele>290.0</ele><time>2026-05-02T16:18:24.001Z</time></trkpt><trkpt lat="44.827901911303194" lon="7.933559659735651"><ele>290.0</ele><time>2026-05-02T16:18:25Z</time></trkpt><trkpt lat="44.828050567184405" lon="7.933196652756275"><ele>290.0</ele><time>2026-05-02T16:18:26Z</time></trkpt><trkpt lat="44.82820043110943" lon="7.932830097868415"><ele>290.0</ele><time>2026-05-02T16:18:27Z</time></trkpt><trkpt lat="44.82834529940483" lon="7.932460494017242"><ele>290.0</ele><time>2026-05-02T16:18:28Z</time></trkpt><trkpt lat="44.82849025593376" lon="7.932096180357915"><ele>290.5</ele><time>2026-05-02T16:18:29Z</time></trkpt><trkpt lat="44.828634482691335" lon="7.931737378923371"><ele>291.0</ele><time>2026-05-02T16:18:30Z</time></trkpt><trkpt lat="44.82876900969124" lon="7.931404509169956"><ele>291.0</ele><time>2026-05-02T16:18:31Z</time></trkpt><trkpt lat="44.82889751974648" lon="7.931086917467923"><ele>291.0</ele><time>2026-05-02T16:18:32Z</time></trkpt><trkpt lat="44.82903102005737" lon="7.930767863941362"><ele>290.5</ele><time>2026-05-02T16:18:33Z</time></trkpt><trkpt lat="44.82917785324351" lon="7.93044228678292"><ele>290.0</ele><time>2026-05-02T16:18:34Z</time></trkpt><trkpt lat="44.82933541496165" lon="7.930113794169291"><ele>290.0</ele><time>2026-05-02T16:18:35Z</time></trkpt><trkpt lat="44.82949017485494" lon="7.929793238967132"><ele>290.0</ele><time>2026-05-02T16:18:36Z</time></trkpt><trkpt lat="44.82964269437522" lon="7.9294929203448055"><ele>289.0</ele><time>2026-05-02T16:18:37Z</time></trkpt><trkpt lat="44.82978169793057" lon="7.929205014051815"><ele>288.0</ele><time>2026-05-02T16:18:38Z</time></trkpt><trkpt lat="44.82992086830126" lon="7.928909177010393"><ele>288.0</ele><time>2026-05-02T16:18:39Z</time></trkpt><trkpt lat="44.83006610000098" lon="7.928607381847921"><ele>288.0</ele><time>2026-05-02T16:18:40Z</time></trkpt><trkpt lat="44.83021445621116" lon="7.928296636375203"><ele>288.0</ele><time>2026-05-02T16:18:41Z</time></trkpt><trkpt lat="44.830365947436746" lon="7.927980997589726"><ele>288.0</ele><time>2026-05-02T16:18:42Z</time></trkpt><trkpt lat="44.830518263419314" lon="7.927661643162133"><ele>288.0</ele><time>2026-05-02T16:18:43Z</time></trkpt><trkpt lat="44.83066818167133" lon="7.927351270520567"><ele>288.0</ele><time>2026-05-02T16:18:44Z</time></trkpt><trkpt lat="44.8308147818558" lon="7.927065343096305"><ele>287.5</ele><time>2026-05-02T16:18:45Z</time></trkpt><trkpt lat="44.83097489577411" lon="7.926796319739875"><ele>287.0</ele><time>2026-05-02T16:18:46Z</time></trkpt><trkpt lat="44.83116131669633" lon="7.926543697738807"><ele>287.0</ele><time>2026-05-02T16:18:47Z</time></trkpt><trkpt lat="44.8313680783579" lon="7.9263140653382305"><ele>287.0</ele><time>2026-05-02T16:18:48Z</time></trkpt><trkpt lat="44.831603191201694" lon="7.926110605465608"><ele>287.5</ele><time>2026-05-02T16:18:49Z</time></trkpt><trkpt lat="44.83185200721077" lon="7.925921829105715"><ele>288.0</ele><time>2026-05-02T16:18:50Z</time></trkpt><trkpt lat="44.83211057610607" lon="7.925736794727116"><ele>288.0</ele><time>2026-05-02T16:18:51Z</time></trkpt><trkpt lat="44.83237066376539" lon="7.925537437992863"><ele>288.0</ele><time>2026-05-02T16:18:52Z</time></trkpt><trkpt lat="44.83263541633668" lon="7.925324070457606"><ele>287.0</ele><time>2026-05-02T16:18:53Z</time></trkpt><trkpt lat="44.83290299063782" lon="7.9251179744759"><ele>286.0</ele><time>2026-05-02T16:18:54Z</time></trkpt><trkpt lat="44.833173370948636" lon="7.924910614265657"><ele>286.0</ele><time>2026-05-02T16:18:55Z</time></trkpt><trkpt lat="44.83345273142335" lon="7.924683184213384"><ele>286.0</ele><time>2026-05-02T16:18:56Z</time></trkpt><trkpt lat="44.833750003536416" lon="7.924445643889308"><ele>286.0</ele><time>2026-05-02T16:18:57Z</time></trkpt><trkpt lat="44.83405862811404" lon="7.9242098577182745"><ele>286.0</ele><time>2026-05-02T16:18:58Z</time></trkpt><trkpt lat="44.834363388591235" lon="7.923989961372887"><ele>286.0</ele><time>2026-05-02T16:18:59Z</time></trkpt><trkpt lat="44.8346449071649" lon="7.923784997385536"><ele>286.0</ele><time>2026-05-02T16:19:00Z</time></trkpt><trkpt lat="44.834900360783514" lon="7.923585402137369"><ele>285.0</ele><time>2026-05-02T16:19:01Z</time></trkpt><trkpt lat="44.83513790992793" lon="7.923384537668017"><ele>284.0</ele><time>2026-05-02T16:19:02Z</time></trkpt><trkpt lat="44.835351478902965" lon="7.923164448218347"><ele>284.0</ele><time>2026-05-02T16:19:03Z</time></trkpt><trkpt lat="44.835544510478485" lon="7.922900665887021"><ele>284.0</ele><time>2026-05-02T16:19:04Z</time></trkpt><trkpt lat="44.83571908560312" lon="7.922589756125063"><ele>283.5</ele><time>2026-05-02T16:19:05Z</time></trkpt><trkpt lat="44.83587322439658" lon="7.922241069372796"><ele>283.0</ele><time>2026-05-02T16:19:06Z</time></trkpt><trkpt lat="44.83600627309243" lon="7.921856588332471"><ele>285.0</ele><time>2026-05-02T16:19:07Z</time></trkpt><trkpt lat="44.83610549026682" lon="7.921449898206205"><ele>287.0</ele><time>2026-05-02T16:19:08Z</time></trkpt><trkpt lat="44.83616086073049" lon="7.921022188243569"><ele>286.0</ele><time>2026-05-02T16:19:09Z</time></trkpt><trkpt lat="44.8361828919443" lon="7.920585352307125"><ele>285.0</ele><time>2026-05-02T16:19:10Z</time></trkpt><trkpt lat="44.83619776304746" lon="7.920144147909773"><ele>286.0</ele><time>2026-05-02T16:19:11Z</time></trkpt><trkpt lat="44.83622122773192" lon="7.919706597080297"><ele>287.0</ele><time>2026-05-02T16:19:12Z</time></trkpt><trkpt lat="44.83624966664147" lon="7.919266182307276"><ele>287.0</ele><time>2026-05-02T16:19:13Z</time></trkpt><trkpt lat="44.83628083758037" lon="7.918849255585984"><ele>287.0</ele><time>2026-05-02T16:19:14Z</time></trkpt><trkpt lat="44.83630767458518" lon="7.918468397515797"><ele>286.0</ele><time>2026-05-02T16:19:15Z</time></trkpt><trkpt lat="44.836331132435646" lon="7.918110452974232"><ele>285.0</ele><time>2026-05-02T16:19:16Z</time></trkpt><trkpt lat="44.83635248140455" lon="7.917773757133976"><ele>284.3333333333333</ele><time>2026-05-02T16:19:17Z</time></trkpt><trkpt lat="44.83638043709619" lon="7.917465672423675"><ele>283.66666666666663</ele><time>2026-05-02T16:19:18Z</time></trkpt><trkpt lat="44.83643201892695" lon="7.917171219846995"><ele>283.0</ele><time>2026-05-02T16:19:19Z</time></trkpt><trkpt lat="44.83653660163559" lon="7.916876228495358"><ele>284.0</ele><time>2026-05-02T16:19:20.001Z</time></trkpt><trkpt lat="44.836681728488024" lon="7.916583194434369"><ele>285.0</ele><time>2026-05-02T16:19:21.001Z</time></trkpt><trkpt lat="44.83685046550688" lon="7.9163172254950425"><ele>285.0</ele><time>2026-05-02T16:19:22.001Z</time></trkpt><trkpt lat="44.837014202320255" lon="7.9161004624533415"><ele>285.0</ele><time>2026-05-02T16:19:23.001Z</time></trkpt><trkpt lat="44.83717117378784" lon="7.915917877809574"><ele>285.0</ele><time>2026-05-02T16:19:24.001Z</time></trkpt><trkpt lat="44.837335692595225" lon="7.915745964419275"><ele>285.0</ele><time>2026-05-02T16:19:25.001Z</time></trkpt><trkpt lat="44.837518291639554" lon="7.915572013517562"><ele>285.0</ele><time>2026-05-02T16:19:26.001Z</time></trkpt><trkpt lat="44.837713775545474" lon="7.91540576137481"><ele>285.0</ele><time>2026-05-02T16:19:27.001Z</time></trkpt><trkpt lat="44.83791233127172" lon="7.915232191492445"><ele>282.5</ele><time>2026-05-02T16:19:28.001Z</time></trkpt><trkpt lat="44.83811770770698" lon="7.915047409135526"><ele>280.0</ele><time>2026-05-02T16:19:29.001Z</time></trkpt><trkpt lat="44.83832854271755" lon="7.914862760886805"><ele>280.5</ele><time>2026-05-02T16:19:30.001Z</time></trkpt><trkpt lat="44.83854062551906" lon="7.914676187203349"><ele>281.0</ele><time>2026-05-02T16:19:31.001Z</time></trkpt><trkpt lat="44.83874932130358" lon="7.914491290301059"><ele>281.0</ele><time>2026-05-02T16:19:32.001Z</time></trkpt><trkpt lat="44.83895501013862" lon="7.914312251652393"><ele>281.0</ele><time>2026-05-02T16:19:33.001Z</time></trkpt><trkpt lat="44.83916536253794" lon="7.914126565495624"><ele>278.0</ele><time>2026-05-02T16:19:34.001Z</time></trkpt><trkpt lat="44.83937936813137" lon="7.91393677780419"><ele>275.0</ele><time>2026-05-02T16:19:35.001Z</time></trkpt><trkpt lat="44.839600927746616" lon="7.9137370826457385"><ele>275.0</ele><time>2026-05-02T16:19:36.001Z</time></trkpt><trkpt lat="44.83983176074977" lon="7.913525750308762"><ele>275.0</ele><time>2026-05-02T16:19:37.001Z</time></trkpt><trkpt lat="44.84009309527085" lon="7.913289103845226"><ele>274.0</ele><time>2026-05-02T16:19:38.001Z</time></trkpt><trkpt lat="44.84037916618512" lon="7.913027957814194"><ele>273.0</ele><time>2026-05-02T16:19:39.001Z</time></trkpt><trkpt lat="44.84067410735091" lon="7.9127568896818845"><ele>273.0</ele><time>2026-05-02T16:19:40.001Z</time></trkpt><trkpt lat="44.840978391487624" lon="7.912495819133082"><ele>273.0</ele><time>2026-05-02T16:19:41.001Z</time></trkpt><trkpt lat="44.84125158445153" lon="7.912265909040783"><ele>273.0</ele><time>2026-05-02T16:19:42.001Z</time></trkpt><trkpt lat="44.84152307072282" lon="7.912032345299315"><ele>273.0</ele><time>2026-05-02T16:19:43.001Z</time></trkpt><trkpt lat="44.84178775295856" lon="7.911800709029526"><ele>274.5</ele><time>2026-05-02T16:19:44.001Z</time></trkpt><trkpt lat="44.84203337340794" lon="7.911590561461494"><ele>276.0</ele><time>2026-05-02T16:19:45.001Z</time></trkpt><trkpt lat="44.842261622230055" lon="7.911387756155312"><ele>276.0</ele><time>2026-05-02T16:19:46Z</time></trkpt><trkpt lat="44.842483767337676" lon="7.911185545707896"><ele>276.0</ele><time>2026-05-02T16:19:47Z</time></trkpt><trkpt lat="44.84271030656084" lon="7.910990273851301"><ele>276.5</ele><time>2026-05-02T16:19:48Z</time></trkpt><trkpt lat="44.84292961786812" lon="7.910820271288709"><ele>277.0</ele><time>2026-05-02T16:19:49Z</time></trkpt><trkpt lat="44.843154361917925" lon="7.910678802331489"><ele>277.0</ele><time>2026-05-02T16:19:50Z</time></trkpt><trkpt lat="44.84339696263785" lon="7.910558728343002"><ele>277.0</ele><time>2026-05-02T16:19:51Z</time></trkpt><trkpt lat="44.84364730563309" lon="7.910457289811931"><ele>278.5</ele><time>2026-05-02T16:19:52Z</time></trkpt><trkpt lat="44.843887505983666" lon="7.910349912004196"><ele>280.0</ele><time>2026-05-02T16:19:53Z</time></trkpt><trkpt lat="44.84411377751131" lon="7.910250719203554"><ele>280.3333333333333</ele><time>2026-05-02T16:19:54Z</time></trkpt><trkpt lat="44.84432860748898" lon="7.9101592740713675"><ele>280.6666666666667</ele><time>2026-05-02T16:19:55Z</time></trkpt><trkpt lat="44.84453101792349" lon="7.910068564200166"><ele>281.0</ele><time>2026-05-02T16:19:56Z</time></trkpt><trkpt lat="44.844734611457994" lon="7.909976521562113"><ele>280.0</ele><time>2026-05-02T16:19:57Z</time></trkpt><trkpt lat="44.8449530587233" lon="7.909878644284904"><ele>279.0</ele><time>2026-05-02T16:19:58Z</time></trkpt><trkpt lat="44.8451804494206" lon="7.909777615361686"><ele>279.0</ele><time>2026-05-02T16:19:59Z</time></trkpt><trkpt lat="44.84540819382624" lon="7.909675012037735"><ele>279.0</ele><time>2026-05-02T16:20:00Z</time></trkpt><trkpt lat="44.845618092980196" lon="7.909580260531141"><ele>279.0</ele><time>2026-05-02T16:20:01Z</time></trkpt><trkpt lat="44.84581850971685" lon="7.90949183464038"><ele>279.0</ele><time>2026-05-02T16:20:02Z</time></trkpt><trkpt lat="44.84602803374578" lon="7.909400272802919"><ele>279.0</ele><time>2026-05-02T16:20:03Z</time></trkpt><trkpt lat="44.8462473801497" lon="7.909303294428436"><ele>277.5</ele><time>2026-05-02T16:20:04Z</time></trkpt><trkpt lat="44.84647346618871" lon="7.9092039451801845"><ele>276.0</ele><time>2026-05-02T16:20:05Z</time></trkpt><trkpt lat="44.846694903921936" lon="7.909106355916461"><ele>275.3333333333333</ele><time>2026-05-02T16:20:06Z</time></trkpt><trkpt lat="44.8469059342808" lon="7.909011089609222"><ele>274.66666666666663</ele><time>2026-05-02T16:20:07Z</time></trkpt><trkpt lat="44.84710916331811" lon="7.9089236976646795"><ele>274.0</ele><time>2026-05-02T16:20:08Z</time></trkpt><trkpt lat="44.847324758040074" lon="7.908842769775505"><ele>274.0</ele><time>2026-05-02T16:20:09Z</time></trkpt><trkpt lat="44.847549174276296" lon="7.90877757793596"><ele>274.0</ele><time>2026-05-02T16:20:10Z</time></trkpt><trkpt lat="44.847772039011396" lon="7.908728538424975"><ele>274.0</ele><time>2026-05-02T16:20:11Z</time></trkpt><trkpt lat="44.84799091660746" lon="7.908693706244337"><ele>274.0</ele><time>2026-05-02T16:20:12Z</time></trkpt><trkpt lat="44.84820466395187" lon="7.908671087254894"><ele>274.0</ele><time>2026-05-02T16:20:13Z</time></trkpt><trkpt lat="44.84842059568195" lon="7.908661825460271"><ele>274.0</ele><time>2026-05-02T16:20:14Z</time></trkpt><trkpt lat="44.84863235108988" lon="7.9086580362652485"><ele>274.0</ele><time>2026-05-02T16:20:15Z</time></trkpt><trkpt lat="44.84884004389151" lon="7.908657431419647"><ele>274.0</ele><time>2026-05-02T16:20:16Z</time></trkpt><trkpt lat="44.84904848043506" lon="7.908654885351265"><ele>274.0</ele><time>2026-05-02T16:20:17Z</time></trkpt><trkpt lat="44.84925748120244" lon="7.908657401856444"><ele>274.0</ele><time>2026-05-02T16:20:18Z</time></trkpt><trkpt lat="44.84946479156925" lon="7.90866159335994"><ele>274.0</ele><time>2026-05-02T16:20:19Z</time></trkpt><trkpt lat="44.8496751463733" lon="7.9086654148266895"><ele>273.3333333333333</ele><time>2026-05-02T16:20:20Z</time></trkpt><trkpt lat="44.849894391272144" lon="7.908663188918236"><ele>272.6666666666667</ele><time>2026-05-02T16:20:21Z</time></trkpt><trkpt lat="44.85011722882207" lon="7.908665682724425"><ele>272.0</ele><time>2026-05-02T16:20:22Z</time></trkpt><trkpt lat="44.85034451809612" lon="7.9086678387048055"><ele>272.33333333333337</ele><time>2026-05-02T16:20:23Z</time></trkpt><trkpt lat="44.850565242536526" lon="7.908670039374285"><ele>272.6666666666667</ele><time>2026-05-02T16:20:24Z</time></trkpt><trkpt lat="44.850768458595525" lon="7.908673099702427"><ele>273.0</ele><time>2026-05-02T16:20:25Z</time></trkpt><trkpt lat="44.85096226768616" lon="7.908671792677295"><ele>273.0</ele><time>2026-05-02T16:20:26Z</time></trkpt><trkpt lat="44.85116315765684" lon="7.908689266750587"><ele>273.0</ele><time>2026-05-02T16:20:27Z</time></trkpt><trkpt lat="44.85138980763296" lon="7.908672343728485"><ele>273.0</ele><time>2026-05-02T16:20:28Z</time></trkpt><trkpt lat="44.851652947809264" lon="7.908627871489029"><ele>274.5</ele><time>2026-05-02T16:20:29Z</time></trkpt><trkpt lat="44.851948275670665" lon="7.908573602088368"><ele>276.0</ele><time>2026-05-02T16:20:30Z</time></trkpt><trkpt lat="44.85225400129542" lon="7.908515981160288"><ele>276.0</ele><time>2026-05-02T16:20:31Z</time></trkpt><trkpt lat="44.85250930030858" lon="7.9084673475968925"><ele>276.0</ele><time>2026-05-02T16:20:32Z</time></trkpt><trkpt lat="44.852725893591156" lon="7.908396352798805"><ele>277.0</ele><time>2026-05-02T16:20:33Z</time></trkpt><trkpt lat="44.852937500760305" lon="7.9083441391749085"><ele>278.0</ele><time>2026-05-02T16:20:34Z</time></trkpt><trkpt lat="44.85312443548965" lon="7.908222436086623"><ele>279.0</ele><time>2026-05-02T16:20:35Z</time></trkpt><trkpt lat="44.853315957478145" lon="7.908108432286459"><ele>280.5</ele><time>2026-05-02T16:20:36Z</time></trkpt><trkpt lat="44.85353256823239" lon="7.907985146485365"><ele>282.0</ele><time>2026-05-02T16:20:37Z</time></trkpt><trkpt lat="44.85376353605374" lon="7.907839515613767"><ele>282.0</ele><time>2026-05-02T16:20:38Z</time></trkpt><trkpt lat="44.85398924462026" lon="7.907697200796928"><ele>282.0</ele><time>2026-05-02T16:20:39Z</time></trkpt><trkpt lat="44.85418277030491" lon="7.907575178090452"><ele>280.3333333333333</ele><time>2026-05-02T16:20:40Z</time></trkpt><trkpt lat="44.85435336308013" lon="7.907467615170657"><ele>278.66666666666663</ele><time>2026-05-02T16:20:41Z</time></trkpt><trkpt lat="44.85449677302128" lon="7.907355501404578"><ele>277.0</ele><time>2026-05-02T16:20:42Z</time></trkpt><trkpt lat="44.854637667315146" lon="7.9072713361084945"><ele>277.0</ele><time>2026-05-02T16:20:43Z</time></trkpt><trkpt lat="44.85477728941764" lon="7.907184778448724"><ele>277.0</ele><time>2026-05-02T16:20:44Z</time></trkpt><trkpt lat="44.85493428101855" lon="7.9070837988631855"><ele>277.0</ele><time>2026-05-02T16:20:45Z</time></trkpt><trkpt lat="44.855077083379605" lon="7.9069775429935545"><ele>278.0</ele><time>2026-05-02T16:20:46Z</time></trkpt><trkpt lat="44.855210920181264" lon="7.906860678813556"><ele>279.0</ele><time>2026-05-02T16:20:47Z</time></trkpt><trkpt lat="44.855350946436026" lon="7.906747218009943"><ele>280.0</ele><time>2026-05-02T16:20:48Z</time></trkpt><trkpt lat="44.85548518684698" lon="7.906636669118554"><ele>280.0</ele><time>2026-05-02T16:20:49Z</time></trkpt><trkpt lat="44.855639939764046" lon="7.9064941640651405"><ele>280.0</ele><time>2026-05-02T16:20:50Z</time></trkpt><trkpt lat="44.85582701986054" lon="7.906351295385461"><ele>280.0</ele><time>2026-05-02T16:20:51Z</time></trkpt><trkpt lat="44.85602236019432" lon="7.906185241481467"><ele>279.3333333333333</ele><time>2026-05-02T16:20:52Z</time></trkpt><trkpt lat="44.85619223849013" lon="7.906016251906317"><ele>278.6666666666667</ele><time>2026-05-02T16:20:53Z</time></trkpt><trkpt lat="44.85638972678197" lon="7.90585654992202"><ele>278.0</ele><time>2026-05-02T16:20:54Z</time></trkpt><trkpt lat="44.85659778000644" lon="7.905681750079291"><ele>279.6666666666667</ele><time>2026-05-02T16:20:55Z</time></trkpt><trkpt lat="44.85679694132899" lon="7.9055088132748565"><ele>281.3333333333333</ele><time>2026-05-02T16:20:56Z</time></trkpt><trkpt lat="44.85697481923729" lon="7.905341759470544"><ele>283.0</ele><time>2026-05-02T16:20:57Z</time></trkpt><trkpt lat="44.857142767014736" lon="7.905155434682658"><ele>280.0</ele><time>2026-05-02T16:20:58Z</time></trkpt><trkpt lat="44.857302541159314" lon="7.904931045252655"><ele>277.0</ele><time>2026-05-02T16:20:59Z</time></trkpt><trkpt lat="44.857441849839724" lon="7.904674232865587"><ele>277.0</ele><time>2026-05-02T16:21:00Z</time></trkpt><trkpt lat="44.85755149287484" lon="7.904405076060469"><ele>277.0</ele><time>2026-05-02T16:21:01Z</time></trkpt><trkpt lat="44.85765189810114" lon="7.904144606476437"><ele>277.0</ele><time>2026-05-02T16:21:02Z</time></trkpt><trkpt lat="44.857743575910725" lon="7.903895162388678"><ele>277.66666666666663</ele><time>2026-05-02T16:21:03Z</time></trkpt><trkpt lat="44.85783124439169" lon="7.9036622081616805"><ele>278.3333333333333</ele><time>2026-05-02T16:21:04Z</time></trkpt><trkpt lat="44.857913233249064" lon="7.903444525177653"><ele>279.0</ele><time>2026-05-02T16:21:05Z</time></trkpt><trkpt lat="44.85798738695005" lon="7.903239525356187"><ele>279.0</ele><time>2026-05-02T16:21:06Z</time></trkpt><trkpt lat="44.858062175191606" lon="7.903033250502545"><ele>279.0</ele><time>2026-05-02T16:21:07Z</time></trkpt><trkpt lat="44.858141394712405" lon="7.90283278504392"><ele>279.0</ele><time>2026-05-02T16:21:08Z</time></trkpt><trkpt lat="44.85821314827503" lon="7.902642286505358"><ele>277.5</ele><time>2026-05-02T16:21:09Z</time></trkpt><trkpt lat="44.858277199977415" lon="7.902460571679243"><ele>276.0</ele><time>2026-05-02T16:21:10Z</time></trkpt><trkpt lat="44.85834100534646" lon="7.902285717186957"><ele>274.5</ele><time>2026-05-02T16:21:11Z</time></trkpt><trkpt lat="44.858408681045326" lon="7.902110468756818"><ele>273.0</ele><time>2026-05-02T16:21:12Z</time></trkpt><trkpt lat="44.85848035921803" lon="7.901934380969601"><ele>274.5</ele><time>2026-05-02T16:21:13Z</time></trkpt><trkpt lat="44.85854829371792" lon="7.901752399574034"><ele>276.0</ele><time>2026-05-02T16:21:14Z</time></trkpt><trkpt lat="44.85861705740753" lon="7.90157055554403"><ele>277.5</ele><time>2026-05-02T16:21:15Z</time></trkpt><trkpt lat="44.85868792581945" lon="7.901387222688727"><ele>279.0</ele><time>2026-05-02T16:21:16Z</time></trkpt><trkpt lat="44.85875659023468" lon="7.901207116906559"><ele>279.0</ele><time>2026-05-02T16:21:17Z</time></trkpt><trkpt lat="44.858827466284396" lon="7.901029192524803"><ele>279.0</ele><time>2026-05-02T16:21:18Z</time></trkpt><trkpt lat="44.858903345130074" lon="7.9008496952726075"><ele>279.0</ele><time>2026-05-02T16:21:19Z</time></trkpt><trkpt lat="44.85898439452129" lon="7.9006740905509405"><ele>279.0</ele><time>2026-05-02T16:21:20Z</time></trkpt><trkpt lat="44.85907137835412" lon="7.900496496459669"><ele>277.6666666666667</ele><time>2026-05-02T16:21:21Z</time></trkpt><trkpt lat="44.859164493294514" lon="7.9003206956900796"><ele>276.33333333333337</ele><time>2026-05-02T16:21:22Z</time></trkpt><trkpt lat="44.85926021425124" lon="7.9001486333026145"><ele>275.0</ele><time>2026-05-02T16:21:23Z</time></trkpt><trkpt lat="44.85935945093616" lon="7.899968173297951"><ele>275.0</ele><time>2026-05-02T16:21:24Z</time></trkpt><trkpt lat="44.85946803656668" lon="7.899779996933983"><ele>275.0</ele><time>2026-05-02T16:21:25.001Z</time></trkpt><trkpt lat="44.859581182777006" lon="7.899584665992452"><ele>275.0</ele><time>2026-05-02T16:21:26.001Z</time></trkpt><trkpt lat="44.859696610266035" lon="7.899384958132591"><ele>273.0</ele><time>2026-05-02T16:21:27.001Z</time></trkpt><trkpt lat="44.859810314623225" lon="7.899177086751069"><ele>271.0</ele><time>2026-05-02T16:21:28.001Z</time></trkpt><trkpt lat="44.85991683991918" lon="7.898964123517775"><ele>269.0</ele><time>2026-05-02T16:21:29.001Z</time></trkpt><trkpt lat="44.860012994838605" lon="7.898758452190705"><ele>269.0</ele><time>2026-05-02T16:21:30.001Z</time></trkpt><trkpt lat="44.860104390694815" lon="7.89856688065356"><ele>269.0</ele><time>2026-05-02T16:21:31.001Z</time></trkpt><trkpt lat="44.860196215667" lon="7.898388138489431"><ele>269.0</ele><time>2026-05-02T16:21:32.001Z</time></trkpt><trkpt lat="44.86028735600971" lon="7.898199681111603"><ele>269.6666666666667</ele><time>2026-05-02T16:21:33.001Z</time></trkpt><trkpt lat="44.86037991139735" lon="7.898002640907493"><ele>270.3333333333333</ele><time>2026-05-02T16:21:34.001Z</time></trkpt><trkpt lat="44.860473966509495" lon="7.897804469429051"><ele>271.0</ele><time>2026-05-02T16:21:35.001Z</time></trkpt><trkpt lat="44.860565379127806" lon="7.897615884792676"><ele>270.5</ele><time>2026-05-02T16:21:36.001Z</time></trkpt><trkpt lat="44.86065105022755" lon="7.897434512037727"><ele>270.0</ele><time>2026-05-02T16:21:37.001Z</time></trkpt><trkpt lat="44.86073276141118" lon="7.8972665314256005"><ele>269.5</ele><time>2026-05-02T16:21:38.001Z</time></trkpt><trkpt lat="44.860811797322555" lon="7.897106735124527"><ele>269.0</ele><time>2026-05-02T16:21:39Z</time></trkpt><trkpt lat="44.86088740640588" lon="7.896958634141651"><ele>269.0</ele><time>2026-05-02T16:21:40Z</time></trkpt><trkpt lat="44.860957749177246" lon="7.89681684061692"><ele>269.0</ele><time>2026-05-02T16:21:41Z</time></trkpt><trkpt lat="44.86103675932594" lon="7.89667762103169"><ele>269.0</ele><time>2026-05-02T16:21:42Z</time></trkpt><trkpt lat="44.86112659091764" lon="7.896546946129472"><ele>269.0</ele><time>2026-05-02T16:21:43Z</time></trkpt><trkpt lat="44.861234821616634" lon="7.896434115256393"><ele>269.0</ele><time>2026-05-02T16:21:44Z</time></trkpt><trkpt lat="44.861345450025674" lon="7.896341127697336"><ele>269.0</ele><time>2026-05-02T16:21:45Z</time></trkpt><trkpt lat="44.861436993133914" lon="7.896259423143491"><ele>269.0</ele><time>2026-05-02T16:21:46Z</time></trkpt><trkpt lat="44.86152470306225" lon="7.896209941351618"><ele>269.0</ele><time>2026-05-02T16:21:47Z</time></trkpt><trkpt lat="44.86159696234062" lon="7.896172152950965"><ele>269.0</ele><time>2026-05-02T16:21:48Z</time></trkpt><trkpt lat="44.86166366686995" lon="7.896134708008076"><ele>269.0</ele><time>2026-05-02T16:21:49Z</time></trkpt><trkpt lat="44.86172289425658" lon="7.896102984625421"><ele>269.0</ele><time>2026-05-02T16:21:50Z</time></trkpt><trkpt lat="44.86183587097212" lon="7.896050408139643"><ele>269.0</ele><time>2026-05-02T16:21:52Z</time></trkpt><trkpt lat="44.86190435280319" lon="7.896041039802367"><ele>269.0</ele><time>2026-05-02T16:21:53Z</time></trkpt><trkpt lat="44.86198094436008" lon="7.896043458525377"><ele>269.0</ele><time>2026-05-02T16:21:54Z</time></trkpt><trkpt lat="44.86206938335391" lon="7.896050545751948"><ele>269.0</ele><time>2026-05-02T16:21:55Z</time></trkpt><trkpt lat="44.86216768971827" lon="7.896069557706405"><ele>269.25</ele><time>2026-05-02T16:21:56Z</time></trkpt><trkpt lat="44.86226562981779" lon="7.896099421068957"><ele>269.5</ele><time>2026-05-02T16:21:57Z</time></trkpt><trkpt lat="44.86238443232848" lon="7.8961418787308055"><ele>269.75</ele><time>2026-05-02T16:21:58Z</time></trkpt><trkpt lat="44.862531487493975" lon="7.896180165121761"><ele>270.0</ele><time>2026-05-02T16:21:59Z</time></trkpt><trkpt lat="44.86270157653095" lon="7.896216172979911"><ele>269.3333333333333</ele><time>2026-05-02T16:22:00Z</time></trkpt><trkpt lat="44.86290110839676" lon="7.8962589509556755"><ele>268.66666666666663</ele><time>2026-05-02T16:22:01Z</time></trkpt><trkpt lat="44.8631233680956" lon="7.896316322030459"><ele>268.0</ele><time>2026-05-02T16:22:02Z</time></trkpt><trkpt lat="44.86336692745132" lon="7.896382985950464"><ele>268.5</ele><time>2026-05-02T16:22:03Z</time></trkpt><trkpt lat="44.863625239288886" lon="7.8964624043525395"><ele>269.0</ele><time>2026-05-02T16:22:04Z</time></trkpt><trkpt lat="44.863868706728596" lon="7.896540977057281"><ele>269.0</ele><time>2026-05-02T16:22:05Z</time></trkpt><trkpt lat="44.86410282833964" lon="7.896579535779044"><ele>269.0</ele><time>2026-05-02T16:22:06Z</time></trkpt><trkpt lat="44.86435082681903" lon="7.896579146022284"><ele>271.5</ele><time>2026-05-02T16:22:07Z</time></trkpt><trkpt lat="44.86460923726657" lon="7.8965553433432065"><ele>274.0</ele><time>2026-05-02T16:22:08Z</time></trkpt><trkpt lat="44.864879456623996" lon="7.89652990373436"><ele>274.0</ele><time>2026-05-02T16:22:09Z</time></trkpt><trkpt lat="44.865155471682336" lon="7.8965175605874025"><ele>274.0</ele><time>2026-05-02T16:22:10Z</time></trkpt><trkpt lat="44.865406663451225" lon="7.896501542973307"><ele>274.0</ele><time>2026-05-02T16:22:11Z</time></trkpt><trkpt lat="44.86564024334602" lon="7.896482274289937"><ele>274.0</ele><time>2026-05-02T16:22:12Z</time></trkpt><trkpt lat="44.8658723523413" lon="7.896463382648863"><ele>277.0</ele><time>2026-05-02T16:22:13Z</time></trkpt><trkpt lat="44.86610445152308" lon="7.896442428690253"><ele>280.0</ele><time>2026-05-02T16:22:14Z</time></trkpt><trkpt lat="44.866334150071786" lon="7.896429991342283"><ele>280.0</ele><time>2026-05-02T16:22:15Z</time></trkpt><trkpt lat="44.86656469931119" lon="7.896414254646427"><ele>280.0</ele><time>2026-05-02T16:22:16Z</time></trkpt><trkpt lat="44.86679876814284" lon="7.896393803279772"><ele>284.0</ele><time>2026-05-02T16:22:17Z</time></trkpt><trkpt lat="44.867030958442086" lon="7.896374891778411"><ele>288.0</ele><time>2026-05-02T16:22:18Z</time></trkpt><trkpt lat="44.86726206993212" lon="7.896353145494907"><ele>288.0</ele><time>2026-05-02T16:22:19Z</time></trkpt><trkpt lat="44.86749177261789" lon="7.896334811433759"><ele>288.0</ele><time>2026-05-02T16:22:20Z</time></trkpt><trkpt lat="44.86771588907824" lon="7.896323160500211"><ele>290.0</ele><time>2026-05-02T16:22:21Z</time></trkpt><trkpt lat="44.867925284252216" lon="7.896320009906689"><ele>292.0</ele><time>2026-05-02T16:22:22Z</time></trkpt><trkpt lat="44.868118878041564" lon="7.896316448179587"><ele>294.0</ele><time>2026-05-02T16:22:23Z</time></trkpt><trkpt lat="44.86829779730432" lon="7.896316046588687"><ele>296.0</ele><time>2026-05-02T16:22:24Z</time></trkpt><trkpt lat="44.868465115454775" lon="7.896310336335524"><ele>298.0</ele><time>2026-05-02T16:22:25Z</time></trkpt><trkpt lat="44.86862699826527" lon="7.896290295907817"><ele>300.0</ele><time>2026-05-02T16:22:26Z</time></trkpt><trkpt lat="44.86880146520665" lon="7.8962462782977845"><ele>300.0</ele><time>2026-05-02T16:22:27Z</time></trkpt><trkpt lat="44.86897163345505" lon="7.896173652920727"><ele>300.0</ele><time>2026-05-02T16:22:28Z</time></trkpt><trkpt lat="44.86913501355358" lon="7.896082628803108"><ele>300.0</ele><time>2026-05-02T16:22:29Z</time></trkpt><trkpt lat="44.869284319762365" lon="7.895996767187603"><ele>299.25</ele><time>2026-05-02T16:22:30Z</time></trkpt><trkpt lat="44.86942136516716" lon="7.895923499250899"><ele>298.5</ele><time>2026-05-02T16:22:31Z</time></trkpt><trkpt lat="44.869545666416734" lon="7.895852367320607"><ele>297.75</ele><time>2026-05-02T16:22:32Z</time></trkpt><trkpt lat="44.86967480212504" lon="7.895776883317554"><ele>297.0</ele><time>2026-05-02T16:22:33Z</time></trkpt><trkpt lat="44.869811057672536" lon="7.895700199340049"><ele>297.0</ele><time>2026-05-02T16:22:34Z</time></trkpt><trkpt lat="44.86995199985549" lon="7.8956230070268125"><ele>297.0</ele><time>2026-05-02T16:22:35Z</time></trkpt><trkpt lat="44.87009315218712" lon="7.895544171390981"><ele>297.0</ele><time>2026-05-02T16:22:36Z</time></trkpt><trkpt lat="44.870226181074536" lon="7.89546541014229"><ele>297.0</ele><time>2026-05-02T16:22:37Z</time></trkpt><trkpt lat="44.87035425844245" lon="7.895374052049868"><ele>296.0</ele><time>2026-05-02T16:22:38Z</time></trkpt><trkpt lat="44.8704856788573" lon="7.895258598642401"><ele>295.0</ele><time>2026-05-02T16:22:39Z</time></trkpt><trkpt lat="44.870617869465576" lon="7.895118974071802"><ele>294.0</ele><time>2026-05-02T16:22:40Z</time></trkpt><trkpt lat="44.870744809938856" lon="7.89495584821495"><ele>294.0</ele><time>2026-05-02T16:22:41Z</time></trkpt><trkpt lat="44.87089139707938" lon="7.894759522399511"><ele>294.0</ele><time>2026-05-02T16:22:42Z</time></trkpt><trkpt lat="44.87103648253782" lon="7.894504836686806"><ele>294.0</ele><time>2026-05-02T16:22:43Z</time></trkpt><trkpt lat="44.87117781491784" lon="7.894223107208539"><ele>293.5</ele><time>2026-05-02T16:22:44Z</time></trkpt><trkpt lat="44.871336612559304" lon="7.893938352156359"><ele>293.0</ele><time>2026-05-02T16:22:45Z</time></trkpt><trkpt lat="44.87149660030385" lon="7.893621831444844"><ele>293.5</ele><time>2026-05-02T16:22:46Z</time></trkpt><trkpt lat="44.871667051637274" lon="7.89329869236804"><ele>294.0</ele><time>2026-05-02T16:22:47Z</time></trkpt><trkpt lat="44.87184178087811" lon="7.892971723096634"><ele>293.0</ele><time>2026-05-02T16:22:48Z</time></trkpt><trkpt lat="44.872019463661836" lon="7.892639495580645"><ele>292.0</ele><time>2026-05-02T16:22:49Z</time></trkpt><trkpt lat="44.87218774806134" lon="7.892323544506751"><ele>292.0</ele><time>2026-05-02T16:22:50Z</time></trkpt><trkpt lat="44.872349859028276" lon="7.89201974876725"><ele>292.0</ele><time>2026-05-02T16:22:51Z</time></trkpt><trkpt lat="44.87251336340088" lon="7.891709387743964"><ele>292.0</ele><time>2026-05-02T16:22:52Z</time></trkpt><trkpt lat="44.87267697988961" lon="7.891397312554064"><ele>292.0</ele><time>2026-05-02T16:22:53Z</time></trkpt><trkpt lat="44.87284138418985" lon="7.89108888518342"><ele>292.5</ele><time>2026-05-02T16:22:54Z</time></trkpt><trkpt lat="44.873005892266036" lon="7.8907799309740465"><ele>293.0</ele><time>2026-05-02T16:22:55Z</time></trkpt><trkpt lat="44.87317031509921" lon="7.89046875985291"><ele>293.0</ele><time>2026-05-02T16:22:56Z</time></trkpt><trkpt lat="44.873337015390106" lon="7.890153496566283"><ele>293.0</ele><time>2026-05-02T16:22:57Z</time></trkpt><trkpt lat="44.8735049334839" lon="7.889832650965863"><ele>291.5</ele><time>2026-05-02T16:22:58Z</time></trkpt><trkpt lat="44.87367409934639" lon="7.889505816109247"><ele>290.0</ele><time>2026-05-02T16:22:59Z</time></trkpt><trkpt lat="44.87384920094823" lon="7.889172465796972"><ele>290.0</ele><time>2026-05-02T16:23:00Z</time></trkpt><trkpt lat="44.87402888058556" lon="7.88883647784947"><ele>290.0</ele><time>2026-05-02T16:23:01Z</time></trkpt><trkpt lat="44.87419964859847" lon="7.8885123390710845"><ele>288.5</ele><time>2026-05-02T16:23:02Z</time></trkpt><trkpt lat="44.87435673263982" lon="7.888208009812028"><ele>287.0</ele><time>2026-05-02T16:23:03Z</time></trkpt><trkpt lat="44.874514894616006" lon="7.887909162054265"><ele>287.0</ele><time>2026-05-02T16:23:04Z</time></trkpt><trkpt lat="44.874676357532834" lon="7.887616600132058"><ele>287.0</ele><time>2026-05-02T16:23:05Z</time></trkpt><trkpt lat="44.87484359461762" lon="7.8873337963806485"><ele>285.5</ele><time>2026-05-02T16:23:06Z</time></trkpt><trkpt lat="44.87501965854507" lon="7.887061717564405"><ele>284.0</ele><time>2026-05-02T16:23:07Z</time></trkpt><trkpt lat="44.875209782205694" lon="7.88680160478757"><ele>282.0</ele><time>2026-05-02T16:23:08Z</time></trkpt><trkpt lat="44.87541390955179" lon="7.886554125098261"><ele>280.0</ele><time>2026-05-02T16:23:09Z</time></trkpt><trkpt lat="44.87562943189782" lon="7.886314406339369"><ele>280.0</ele><time>2026-05-02T16:23:10Z</time></trkpt><trkpt lat="44.87585113891446" lon="7.88607551034847"><ele>280.0</ele><time>2026-05-02T16:23:11Z</time></trkpt><trkpt lat="44.87607904519483" lon="7.885835890678309"><ele>279.0</ele><time>2026-05-02T16:23:12Z</time></trkpt><trkpt lat="44.87630900342564" lon="7.885593400128788"><ele>278.0</ele><time>2026-05-02T16:23:13Z</time></trkpt><trkpt lat="44.876538123546126" lon="7.88534839634069"><ele>278.0</ele><time>2026-05-02T16:23:14Z</time></trkpt><trkpt lat="44.876762388685584" lon="7.885105955889401"><ele>278.0</ele><time>2026-05-02T16:23:15Z</time></trkpt><trkpt lat="44.87697227915512" lon="7.884878852533604"><ele>279.5</ele><time>2026-05-02T16:23:16Z</time></trkpt><trkpt lat="44.87717800989083" lon="7.884658352204486"><ele>281.0</ele><time>2026-05-02T16:23:17Z</time></trkpt><trkpt lat="44.87738989877054" lon="7.884431388608713"><ele>282.0</ele><time>2026-05-02T16:23:18Z</time></trkpt><trkpt lat="44.87760499830535" lon="7.884199535873464"><ele>283.0</ele><time>2026-05-02T16:23:19Z</time></trkpt><trkpt lat="44.87781976376335" lon="7.883968693547183"><ele>283.0</ele><time>2026-05-02T16:23:20Z</time></trkpt><trkpt lat="44.87802216823691" lon="7.883749309182812"><ele>283.0</ele><time>2026-05-02T16:23:21Z</time></trkpt><trkpt lat="44.87822626486395" lon="7.883558687746934"><ele>283.0</ele><time>2026-05-02T16:23:22Z</time></trkpt><trkpt lat="44.878411033944055" lon="7.883363472341513"><ele>283.0</ele><time>2026-05-02T16:23:23Z</time></trkpt><trkpt lat="44.87859359016919" lon="7.883168759969446"><ele>282.5</ele><time>2026-05-02T16:23:24Z</time></trkpt><trkpt lat="44.87876307151749" lon="7.882950759209857"><ele>282.0</ele><time>2026-05-02T16:23:25Z</time></trkpt><trkpt lat="44.878947499338594" lon="7.88274995145245"><ele>282.5</ele><time>2026-05-02T16:23:26Z</time></trkpt><trkpt lat="44.879143153988636" lon="7.882537895572765"><ele>283.0</ele><time>2026-05-02T16:23:27Z</time></trkpt><trkpt lat="44.87935041573267" lon="7.882314226881163"><ele>282.0</ele><time>2026-05-02T16:23:28Z</time></trkpt><trkpt lat="44.879562550589135" lon="7.882081619367671"><ele>281.0</ele><time>2026-05-02T16:23:29Z</time></trkpt><trkpt lat="44.879777522396026" lon="7.881847146530016"><ele>280.5</ele><time>2026-05-02T16:23:30Z</time></trkpt><trkpt lat="44.87999353088944" lon="7.881608301349142"><ele>280.0</ele><time>2026-05-02T16:23:31Z</time></trkpt><trkpt lat="44.88021504810918" lon="7.881362069148503"><ele>280.0</ele><time>2026-05-02T16:23:32Z</time></trkpt><trkpt lat="44.88043159537566" lon="7.881121596065109"><ele>280.0</ele><time>2026-05-02T16:23:33Z</time></trkpt><trkpt lat="44.88064028622383" lon="7.880878531691373"><ele>280.0</ele><time>2026-05-02T16:23:34Z</time></trkpt><trkpt lat="44.880844532131704" lon="7.880612789582686"><ele>280.0</ele><time>2026-05-02T16:23:35Z</time></trkpt><trkpt lat="44.881047817695176" lon="7.88032590012314"><ele>278.5</ele><time>2026-05-02T16:23:36Z</time></trkpt><trkpt lat="44.881253350220085" lon="7.880027419863809"><ele>277.0</ele><time>2026-05-02T16:23:37Z</time></trkpt><trkpt lat="44.8814531603049" lon="7.87973720573531"><ele>277.0</ele><time>2026-05-02T16:23:38Z</time></trkpt><trkpt lat="44.88164218406806" lon="7.879439414569335"><ele>277.0</ele><time>2026-05-02T16:23:39Z</time></trkpt><trkpt lat="44.88182476986026" lon="7.879117894069444"><ele>277.0</ele><time>2026-05-02T16:23:40Z</time></trkpt><trkpt lat="44.88201293149517" lon="7.878779050986138"><ele>277.0</ele><time>2026-05-02T16:23:41Z</time></trkpt><trkpt lat="44.882213554719115" lon="7.878423434583598"><ele>277.0</ele><time>2026-05-02T16:23:42Z</time></trkpt><trkpt lat="44.88243933102464" lon="7.878025385348239"><ele>277.0</ele><time>2026-05-02T16:23:43Z</time></trkpt><trkpt lat="44.882678768124684" lon="7.8776145016077646"><ele>277.0</ele><time>2026-05-02T16:23:44Z</time></trkpt><trkpt lat="44.882917493081784" lon="7.877220322995012"><ele>277.0</ele><time>2026-05-02T16:23:45Z</time></trkpt><trkpt lat="44.883123326434976" lon="7.876855073604376"><ele>276.5</ele><time>2026-05-02T16:23:46Z</time></trkpt><trkpt lat="44.88330528744797" lon="7.876520067004983"><ele>276.0</ele><time>2026-05-02T16:23:47Z</time></trkpt><trkpt lat="44.88348206620282" lon="7.876210712508055"><ele>275.5</ele><time>2026-05-02T16:23:48Z</time></trkpt><trkpt lat="44.88365488925773" lon="7.875910478010705"><ele>275.0</ele><time>2026-05-02T16:23:49Z</time></trkpt><trkpt lat="44.883833222988585" lon="7.875600975774788"><ele>275.0</ele><time>2026-05-02T16:23:50Z</time></trkpt><trkpt lat="44.88401054823821" lon="7.875281830962959"><ele>275.0</ele><time>2026-05-02T16:23:51Z</time></trkpt><trkpt lat="44.88419682142955" lon="7.874938842828206"><ele>274.5</ele><time>2026-05-02T16:23:52Z</time></trkpt><trkpt lat="44.88437715318649" lon="7.874621430012023"><ele>274.0</ele><time>2026-05-02T16:23:53Z</time></trkpt><trkpt lat="44.88454947278847" lon="7.874329569570723"><ele>274.0</ele><time>2026-05-02T16:23:54Z</time></trkpt><trkpt lat="44.88471484227912" lon="7.874053554126779"><ele>274.0</ele><time>2026-05-02T16:23:55Z</time></trkpt><trkpt lat="44.88487905615461" lon="7.873764034968688"><ele>274.0</ele><time>2026-05-02T16:23:56Z</time></trkpt><trkpt lat="44.88505438663276" lon="7.873448112111178"><ele>274.0</ele><time>2026-05-02T16:23:57Z</time></trkpt><trkpt lat="44.88523400323496" lon="7.873114935551326"><ele>273.0</ele><time>2026-05-02T16:23:58Z</time></trkpt><trkpt lat="44.88542321908552" lon="7.872773486637959"><ele>272.0</ele><time>2026-05-02T16:23:59Z</time></trkpt><trkpt lat="44.885635287129055" lon="7.8723948430848845"><ele>272.0</ele><time>2026-05-02T16:24:00Z</time></trkpt><trkpt lat="44.88588789916952" lon="7.872012913466005"><ele>272.0</ele><time>2026-05-02T16:24:01Z</time></trkpt><trkpt lat="44.88612531723732" lon="7.871587054109474"><ele>271.0</ele><time>2026-05-02T16:24:02Z</time></trkpt><trkpt lat="44.88634949198413" lon="7.87118715882289"><ele>270.0</ele><time>2026-05-02T16:24:03Z</time></trkpt><trkpt lat="44.886556745273175" lon="7.870816523554471"><ele>269.0</ele><time>2026-05-02T16:24:04Z</time></trkpt><trkpt lat="44.88675493637607" lon="7.870467178484492"><ele>268.0</ele><time>2026-05-02T16:24:05Z</time></trkpt><trkpt lat="44.88694378920669" lon="7.870135898917003"><ele>268.5</ele><time>2026-05-02T16:24:06Z</time></trkpt><trkpt lat="44.88713458541844" lon="7.8698049462622235"><ele>269.0</ele><time>2026-05-02T16:24:07Z</time></trkpt><trkpt lat="44.8873265719226" lon="7.8694836021510515"><ele>269.0</ele><time>2026-05-02T16:24:08Z</time></trkpt><trkpt lat="44.88752599047609" lon="7.869174847282067"><ele>269.0</ele><time>2026-05-02T16:24:09Z</time></trkpt><trkpt lat="44.88774180705506" lon="7.868877537760397"><ele>269.0</ele><time>2026-05-02T16:24:10Z</time></trkpt><trkpt lat="44.887976839761954" lon="7.868591362211843"><ele>269.0</ele><time>2026-05-02T16:24:11Z</time></trkpt><trkpt lat="44.88822822040397" lon="7.8683209425699525"><ele>269.0</ele><time>2026-05-02T16:24:12Z</time></trkpt><trkpt lat="44.88849694643115" lon="7.8680672138746"><ele>269.0</ele><time>2026-05-02T16:24:13Z</time></trkpt><trkpt lat="44.88877941697972" lon="7.8678275517888245"><ele>268.5</ele><time>2026-05-02T16:24:14Z</time></trkpt><trkpt lat="44.889069998379895" lon="7.8675986480969184"><ele>268.0</ele><time>2026-05-02T16:24:15Z</time></trkpt><trkpt lat="44.889369572778946" lon="7.867378114453108"><ele>268.0</ele><time>2026-05-02T16:24:16Z</time></trkpt><trkpt lat="44.889656877078814" lon="7.867145755244537"><ele>268.0</ele><time>2026-05-02T16:24:17Z</time></trkpt><trkpt lat="44.889925554539175" lon="7.866908508254889"><ele>268.0</ele><time>2026-05-02T16:24:18Z</time></trkpt><trkpt lat="44.89021582518515" lon="7.866760160635901"><ele>268.0</ele><time>2026-05-02T16:24:19Z</time></trkpt><trkpt lat="44.89048652924475" lon="7.8665622630413745"><ele>268.0</ele><time>2026-05-02T16:24:20Z</time></trkpt><trkpt lat="44.89076095749867" lon="7.866354783460436"><ele>268.0</ele><time>2026-05-02T16:24:21Z</time></trkpt><trkpt lat="44.891038644001526" lon="7.866137947782458"><ele>267.5</ele><time>2026-05-02T16:24:22Z</time></trkpt><trkpt lat="44.89132007972983" lon="7.865924393152364"><ele>267.0</ele><time>2026-05-02T16:24:23Z</time></trkpt><trkpt lat="44.891605590889206" lon="7.865712818191392"><ele>267.0</ele><time>2026-05-02T16:24:24Z</time></trkpt><trkpt lat="44.89189429968916" lon="7.865500358635352"><ele>267.0</ele><time>2026-05-02T16:24:25Z</time></trkpt><trkpt lat="44.892178960563335" lon="7.865284605451302"><ele>267.0</ele><time>2026-05-02T16:24:26Z</time></trkpt><trkpt lat="44.89246727012277" lon="7.865072515906711"><ele>267.0</ele><time>2026-05-02T16:24:27Z</time></trkpt><trkpt lat="44.892755994692195" lon="7.864860278691977"><ele>266.0</ele><time>2026-05-02T16:24:28Z</time></trkpt><trkpt lat="44.893041272434246" lon="7.864645184965858"><ele>265.0</ele><time>2026-05-02T16:24:29Z</time></trkpt><trkpt lat="44.8933296139794" lon="7.864426418395685"><ele>263.5</ele><time>2026-05-02T16:24:30Z</time></trkpt><trkpt lat="44.893611033778065" lon="7.864212844136392"><ele>262.0</ele><time>2026-05-02T16:24:31Z</time></trkpt><trkpt lat="44.89387582053305" lon="7.8640128247815735"><ele>262.0</ele><time>2026-05-02T16:24:32Z</time></trkpt><trkpt lat="44.89411901314198" lon="7.863821333168471"><ele>262.0</ele><time>2026-05-02T16:24:33Z</time></trkpt><trkpt lat="44.89435586891573" lon="7.8636446205555695"><ele>261.5</ele><time>2026-05-02T16:24:34Z</time></trkpt><trkpt lat="44.89459883375389" lon="7.8634618518468855"><ele>261.0</ele><time>2026-05-02T16:24:35Z</time></trkpt><trkpt lat="44.89485187946556" lon="7.863277411578785"><ele>261.0</ele><time>2026-05-02T16:24:36Z</time></trkpt><trkpt lat="44.89510757523702" lon="7.863084390510311"><ele>261.0</ele><time>2026-05-02T16:24:37Z</time></trkpt><trkpt lat="44.89536514484136" lon="7.862886696305071"><ele>261.0</ele><time>2026-05-02T16:24:38Z</time></trkpt><trkpt lat="44.89562926477181" lon="7.862695302737874"><ele>261.0</ele><time>2026-05-02T16:24:39Z</time></trkpt><trkpt lat="44.89589331437023" lon="7.862503153243528"><ele>260.5</ele><time>2026-05-02T16:24:40Z</time></trkpt><trkpt lat="44.896155743748146" lon="7.862303975887383"><ele>260.0</ele><time>2026-05-02T16:24:41Z</time></trkpt><trkpt lat="44.89641707391253" lon="7.862106298645691"><ele>260.0</ele><time>2026-05-02T16:24:42Z</time></trkpt><trkpt lat="44.896676523971536" lon="7.861913807615827"><ele>260.0</ele><time>2026-05-02T16:24:43Z</time></trkpt><trkpt lat="44.89694137510923" lon="7.861714769082663"><ele>260.0</ele><time>2026-05-02T16:24:44Z</time></trkpt><trkpt lat="44.89721189552011" lon="7.861510636685127"><ele>260.0</ele><time>2026-05-02T16:24:45Z</time></trkpt><trkpt lat="44.897485886878954" lon="7.8613063739058715"><ele>260.0</ele><time>2026-05-02T16:24:46Z</time></trkpt><trkpt lat="44.89775973471897" lon="7.861097878101609"><ele>260.0</ele><time>2026-05-02T16:24:47Z</time></trkpt><trkpt lat="44.89803981720029" lon="7.860889247609854"><ele>260.0</ele><time>2026-05-02T16:24:48Z</time></trkpt><trkpt lat="44.89832118251244" lon="7.860678600526226"><ele>260.0</ele><time>2026-05-02T16:24:49Z</time></trkpt><trkpt lat="44.89860341756117" lon="7.860466687501313"><ele>259.5</ele><time>2026-05-02T16:24:50Z</time></trkpt><trkpt lat="44.898890243972396" lon="7.860250404162568"><ele>259.0</ele><time>2026-05-02T16:24:51Z</time></trkpt><trkpt lat="44.89917610142953" lon="7.860035820862371"><ele>259.5</ele><time>2026-05-02T16:24:52Z</time></trkpt><trkpt lat="44.89945683478614" lon="7.859824801521741"><ele>260.0</ele><time>2026-05-02T16:24:53Z</time></trkpt><trkpt lat="44.899718735025715" lon="7.859626060060195"><ele>260.0</ele><time>2026-05-02T16:24:54Z</time></trkpt><trkpt lat="44.89996720975916" lon="7.85944522117074"><ele>260.0</ele><time>2026-05-02T16:24:55Z</time></trkpt><trkpt lat="44.90019983914885" lon="7.859273425202178"><ele>259.5</ele><time>2026-05-02T16:24:56Z</time></trkpt><trkpt lat="44.90042359580499" lon="7.859106883782936"><ele>259.0</ele><time>2026-05-02T16:24:57Z</time></trkpt><trkpt lat="44.90064860316956" lon="7.858934997980061"><ele>259.0</ele><time>2026-05-02T16:24:58Z</time></trkpt><trkpt lat="44.900881051110254" lon="7.858760723787299"><ele>259.0</ele><time>2026-05-02T16:24:59Z</time></trkpt><trkpt lat="44.90112066883506" lon="7.858587189660129"><ele>258.5</ele><time>2026-05-02T16:25:00Z</time></trkpt><trkpt lat="44.9013668570007" lon="7.858405750800917"><ele>258.0</ele><time>2026-05-02T16:25:01Z</time></trkpt><trkpt lat="44.90161489379795" lon="7.858228001937125"><ele>259.0</ele><time>2026-05-02T16:25:02Z</time></trkpt><trkpt lat="44.901867109858046" lon="7.85805531040841"><ele>260.0</ele><time>2026-05-02T16:25:03Z</time></trkpt><trkpt lat="44.90211938408067" lon="7.857878146510177"><ele>260.0</ele><time>2026-05-02T16:25:04Z</time></trkpt><trkpt lat="44.90237159660002" lon="7.857690963383362"><ele>260.0</ele><time>2026-05-02T16:25:05Z</time></trkpt><trkpt lat="44.902626983070896" lon="7.8574966161914"><ele>259.5</ele><time>2026-05-02T16:25:06Z</time></trkpt><trkpt lat="44.90287885574091" lon="7.857300451850906"><ele>259.0</ele><time>2026-05-02T16:25:07Z</time></trkpt><trkpt lat="44.9031289153915" lon="7.857103104084724"><ele>259.0</ele><time>2026-05-02T16:25:08Z</time></trkpt><trkpt lat="44.90336672221377" lon="7.856913739091679"><ele>259.0</ele><time>2026-05-02T16:25:09Z</time></trkpt><trkpt lat="44.903597713461146" lon="7.856731551757884"><ele>259.0</ele><time>2026-05-02T16:25:10Z</time></trkpt><trkpt lat="44.90383213156376" lon="7.856551405270189"><ele>259.0</ele><time>2026-05-02T16:25:11Z</time></trkpt><trkpt lat="44.90406747574601" lon="7.856366935899085"><ele>257.5</ele><time>2026-05-02T16:25:12Z</time></trkpt><trkpt lat="44.90430680303853" lon="7.856188377216049"><ele>256.0</ele><time>2026-05-02T16:25:13Z</time></trkpt><trkpt lat="44.90454412864562" lon="7.856009203472542"><ele>255.5</ele><time>2026-05-02T16:25:14Z</time></trkpt><trkpt lat="44.90476861572329" lon="7.855841466638141"><ele>255.0</ele><time>2026-05-02T16:25:15Z</time></trkpt><trkpt lat="44.90497464328817" lon="7.85568920907584"><ele>255.66666666666669</ele><time>2026-05-02T16:25:16Z</time></trkpt><trkpt lat="44.90517277469624" lon="7.855545554095472"><ele>256.33333333333337</ele><time>2026-05-02T16:25:17Z</time></trkpt><trkpt lat="44.90535975522205" lon="7.855400909175293"><ele>257.0</ele><time>2026-05-02T16:25:18Z</time></trkpt><trkpt lat="44.90553545839237" lon="7.855262738986517"><ele>257.0</ele><time>2026-05-02T16:25:19Z</time></trkpt><trkpt lat="44.90570608313496" lon="7.855136029192705"><ele>257.0</ele><time>2026-05-02T16:25:20Z</time></trkpt><trkpt lat="44.905869042659454" lon="7.855018273024718"><ele>257.0</ele><time>2026-05-02T16:25:21Z</time></trkpt><trkpt lat="44.9060251364769" lon="7.854904856729164"><ele>256.6666666666667</ele><time>2026-05-02T16:25:22Z</time></trkpt><trkpt lat="44.906167245693005" lon="7.854795934886801"><ele>256.3333333333333</ele><time>2026-05-02T16:25:23Z</time></trkpt><trkpt lat="44.90630149161143" lon="7.854691857716304"><ele>256.0</ele><time>2026-05-02T16:25:24Z</time></trkpt><trkpt lat="44.90642750110887" lon="7.8545988068994985"><ele>256.0</ele><time>2026-05-02T16:25:25Z</time></trkpt><trkpt lat="44.90654267873349" lon="7.854516937982313"><ele>256.0</ele><time>2026-05-02T16:25:26Z</time></trkpt><trkpt lat="44.90664398063428" lon="7.85444308981933"><ele>256.0</ele><time>2026-05-02T16:25:27Z</time></trkpt><trkpt lat="44.90673888014227" lon="7.85437409413217"><ele>256.0</ele><time>2026-05-02T16:25:28Z</time></trkpt><trkpt lat="44.906827743863225" lon="7.85430776026319"><ele>256.0</ele><time>2026-05-02T16:25:29Z</time></trkpt><trkpt lat="44.90691093905351" lon="7.854244387087464"><ele>256.0</ele><time>2026-05-02T16:25:30Z</time></trkpt><trkpt lat="44.9069927470836" lon="7.854194361120334"><ele>256.0</ele><time>2026-05-02T16:25:31Z</time></trkpt><trkpt lat="44.9070812294441" lon="7.854174366316399"><ele>256.0</ele><time>2026-05-02T16:25:32Z</time></trkpt><trkpt lat="44.90718269978761" lon="7.854195032605996"><ele>256.0</ele><time>2026-05-02T16:25:33Z</time></trkpt><trkpt lat="44.90729980265385" lon="7.8542547731305135"><ele>256.0</ele><time>2026-05-02T16:25:34Z</time></trkpt><trkpt lat="44.907418371787" lon="7.8543527515254565"><ele>256.0</ele><time>2026-05-02T16:25:35Z</time></trkpt><trkpt lat="44.90752879418335" lon="7.854503925367241"><ele>256.0</ele><time>2026-05-02T16:25:36Z</time></trkpt><trkpt lat="44.90761975558318" lon="7.854714577747583"><ele>256.0</ele><time>2026-05-02T16:25:37Z</time></trkpt><trkpt lat="44.907684865432486" lon="7.854986158820103"><ele>256.0</ele><time>2026-05-02T16:25:38Z</time></trkpt><trkpt lat="44.90777727052672" lon="7.855257665267098"><ele>256.0</ele><time>2026-05-02T16:25:39Z</time></trkpt><trkpt lat="44.907862593973626" lon="7.8555191793307575"><ele>256.3333333333333</ele><time>2026-05-02T16:25:40Z</time></trkpt><trkpt lat="44.90795683100638" lon="7.855794213783849"><ele>256.6666666666667</ele><time>2026-05-02T16:25:41Z</time></trkpt><trkpt lat="44.90809720121318" lon="7.856038858033097"><ele>257.0</ele><time>2026-05-02T16:25:42Z</time></trkpt><trkpt lat="44.908269572125604" lon="7.856262222192684"><ele>256.5</ele><time>2026-05-02T16:25:43Z</time></trkpt><trkpt lat="44.90848150545384" lon="7.85645482676856"><ele>256.0</ele><time>2026-05-02T16:25:44Z</time></trkpt><trkpt lat="44.9087184740185" lon="7.856625957692498"><ele>256.0</ele><time>2026-05-02T16:25:45Z</time></trkpt><trkpt lat="44.90896838599039" lon="7.856803771200293"><ele>256.0</ele><time>2026-05-02T16:25:46Z</time></trkpt><trkpt lat="44.90922378443763" lon="7.8569906466299555"><ele>256.0</ele><time>2026-05-02T16:25:47Z</time></trkpt><trkpt lat="44.9094858510541" lon="7.85717717429953"><ele>256.0</ele><time>2026-05-02T16:25:48Z</time></trkpt><trkpt lat="44.90973507471797" lon="7.857357485992161"><ele>256.0</ele><time>2026-05-02T16:25:49Z</time></trkpt><trkpt lat="44.90996798133831" lon="7.857519085048737"><ele>256.0</ele><time>2026-05-02T16:25:50Z</time></trkpt><trkpt lat="44.91021859364374" lon="7.857642134296182"><ele>256.5</ele><time>2026-05-02T16:25:51Z</time></trkpt><trkpt lat="44.910496886082576" lon="7.85772379931621"><ele>257.0</ele><time>2026-05-02T16:25:52Z</time></trkpt><trkpt lat="44.910791654104436" lon="7.85776021997608"><ele>256.0</ele><time>2026-05-02T16:25:53Z</time></trkpt><trkpt lat="44.91105933667094" lon="7.857755867071196"><ele>255.0</ele><time>2026-05-02T16:25:54Z</time></trkpt><trkpt lat="44.91128911232163" lon="7.857748162641644"><ele>255.0</ele><time>2026-05-02T16:25:55Z</time></trkpt><trkpt lat="44.91150187299998" lon="7.857771706958345"><ele>255.0</ele><time>2026-05-02T16:25:56Z</time></trkpt><trkpt lat="44.911705549181356" lon="7.857816182107452"><ele>255.0</ele><time>2026-05-02T16:25:57Z</time></trkpt><trkpt lat="44.91190032430525" lon="7.857917234855927"><ele>254.33333333333331</ele><time>2026-05-02T16:25:58Z</time></trkpt><trkpt lat="44.91208906650177" lon="7.858028649857892"><ele>253.66666666666666</ele><time>2026-05-02T16:25:59Z</time></trkpt><trkpt lat="44.91225803301889" lon="7.858150397565245"><ele>253.0</ele><time>2026-05-02T16:26:00Z</time></trkpt><trkpt lat="44.912408166522006" lon="7.858240167720221"><ele>253.0</ele><time>2026-05-02T16:26:01Z</time></trkpt><trkpt lat="44.91251826997917" lon="7.858343622518616"><ele>253.0</ele><time>2026-05-02T16:26:02Z</time></trkpt><trkpt lat="44.91259834667232" lon="7.858441570201193"><ele>253.0</ele><time>2026-05-02T16:26:03Z</time></trkpt><trkpt lat="44.91265327603164" lon="7.8585679819486"><ele>253.0</ele><time>2026-05-02T16:26:04Z</time></trkpt><trkpt lat="44.91269280206577" lon="7.858715797434004"><ele>253.0</ele><time>2026-05-02T16:26:05Z</time></trkpt><trkpt lat="44.9127668523968" lon="7.858855537890091"><ele>253.0</ele><time>2026-05-02T16:26:06Z</time></trkpt><trkpt lat="44.91293010619225" lon="7.858875566994017"><ele>253.0</ele><time>2026-05-02T16:26:07Z</time></trkpt><trkpt lat="44.91308884099078" lon="7.8589141537247516"><ele>253.0</ele><time>2026-05-02T16:26:08Z</time></trkpt><trkpt lat="44.9132278407546" lon="7.8590623962779205"><ele>253.0</ele><time>2026-05-02T16:26:09Z</time></trkpt><trkpt lat="44.91339557843412" lon="7.8592464826934565"><ele>253.0</ele><time>2026-05-02T16:26:10Z</time></trkpt><trkpt lat="44.91358761474703" lon="7.859438615743705"><ele>253.0</ele><time>2026-05-02T16:26:11Z</time></trkpt><trkpt lat="44.91380018340756" lon="7.859630321160617"><ele>253.0</ele><time>2026-05-02T16:26:12Z</time></trkpt><trkpt lat="44.91405128919924" lon="7.859787755301888"><ele>253.0</ele><time>2026-05-02T16:26:13Z</time></trkpt><trkpt lat="44.91433100792953" lon="7.859907127428367"><ele>254.0</ele><time>2026-05-02T16:26:14Z</time></trkpt><trkpt lat="44.914624933065" lon="7.859990318530277"><ele>255.0</ele><time>2026-05-02T16:26:15Z</time></trkpt><trkpt lat="44.9149174948682" lon="7.860055165591448"><ele>254.0</ele><time>2026-05-02T16:26:16Z</time></trkpt><trkpt lat="44.915196499159485" lon="7.860146665352914"><ele>253.0</ele><time>2026-05-02T16:26:17Z</time></trkpt><trkpt lat="44.91543639735493" lon="7.860307844609015"><ele>253.0</ele><time>2026-05-02T16:26:18Z</time></trkpt><trkpt lat="44.91565753388362" lon="7.86049390186815"><ele>253.0</ele><time>2026-05-02T16:26:19Z</time></trkpt><trkpt lat="44.91586763362541" lon="7.860742968686772"><ele>253.5</ele><time>2026-05-02T16:26:20Z</time></trkpt><trkpt lat="44.91607481869756" lon="7.861023536266752"><ele>254.0</ele><time>2026-05-02T16:26:21Z</time></trkpt><trkpt lat="44.916265945142975" lon="7.861329643023441"><ele>254.0</ele><time>2026-05-02T16:26:22Z</time></trkpt><trkpt lat="44.91646461233201" lon="7.861608786547794"><ele>254.0</ele><time>2026-05-02T16:26:23Z</time></trkpt><trkpt lat="44.916691264033275" lon="7.861849988071647"><ele>252.0</ele><time>2026-05-02T16:26:24Z</time></trkpt><trkpt lat="44.916953630209385" lon="7.862044260833264"><ele>250.0</ele><time>2026-05-02T16:26:25Z</time></trkpt><trkpt lat="44.91723649214396" lon="7.862180650401878"><ele>250.0</ele><time>2026-05-02T16:26:26Z</time></trkpt><trkpt lat="44.91753273630685" lon="7.862280582014282"><ele>250.0</ele><time>2026-05-02T16:26:27Z</time></trkpt><trkpt lat="44.91781814602781" lon="7.862367272793627"><ele>250.0</ele><time>2026-05-02T16:26:28Z</time></trkpt><trkpt lat="44.91806358056416" lon="7.862461579698387"><ele>250.0</ele><time>2026-05-02T16:26:29Z</time></trkpt><trkpt lat="44.9182856577935" lon="7.862547197599683"><ele>250.33333333333331</ele><time>2026-05-02T16:26:30Z</time></trkpt><trkpt lat="44.918488787620184" lon="7.862625115534461"><ele>250.66666666666669</ele><time>2026-05-02T16:26:31Z</time></trkpt><trkpt lat="44.91867505716782" lon="7.862699076125367"><ele>251.0</ele><time>2026-05-02T16:26:32Z</time></trkpt><trkpt lat="44.91884694542563" lon="7.862765121091381"><ele>251.0</ele><time>2026-05-02T16:26:33Z</time></trkpt><trkpt lat="44.91901733504482" lon="7.862821308789856"><ele>251.0</ele><time>2026-05-02T16:26:34Z</time></trkpt><trkpt lat="44.91920357756088" lon="7.862865483573207"><ele>251.0</ele><time>2026-05-02T16:26:35Z</time></trkpt><trkpt lat="44.91939341368093" lon="7.862892556540277"><ele>251.33333333333334</ele><time>2026-05-02T16:26:36Z</time></trkpt><trkpt lat="44.919578124161234" lon="7.862898579875289"><ele>251.66666666666669</ele><time>2026-05-02T16:26:37Z</time></trkpt><trkpt lat="44.91975128427432" lon="7.862890882558783"><ele>252.0</ele><time>2026-05-02T16:26:38Z</time></trkpt><trkpt lat="44.91992061408755" lon="7.862867628342322"><ele>251.33333333333331</ele><time>2026-05-02T16:26:39Z</time></trkpt><trkpt lat="44.92011798223557" lon="7.862809645402292"><ele>250.66666666666666</ele><time>2026-05-02T16:26:40Z</time></trkpt><trkpt lat="44.92034358084756" lon="7.862721333479452"><ele>250.0</ele><time>2026-05-02T16:26:41Z</time></trkpt><trkpt lat="44.92056869543596" lon="7.862614191999713"><ele>250.0</ele><time>2026-05-02T16:26:42Z</time></trkpt><trkpt lat="44.920759287890114" lon="7.862504221640792"><ele>250.0</ele><time>2026-05-02T16:26:43Z</time></trkpt><trkpt lat="44.92091553044806" lon="7.86239321957638"><ele>250.0</ele><time>2026-05-02T16:26:44Z</time></trkpt><trkpt lat="44.9210458324542" lon="7.86228159337632"><ele>250.5</ele><time>2026-05-02T16:26:45Z</time></trkpt><trkpt lat="44.92116056409982" lon="7.8621756051413225"><ele>251.0</ele><time>2026-05-02T16:26:46Z</time></trkpt><trkpt lat="44.92125781089555" lon="7.862091757608987"><ele>251.5</ele><time>2026-05-02T16:26:47Z</time></trkpt><trkpt lat="44.92135210630329" lon="7.86203352060372"><ele>252.0</ele><time>2026-05-02T16:26:48Z</time></trkpt><trkpt lat="44.92145725180191" lon="7.862033741021982"><ele>252.0</ele><time>2026-05-02T16:26:49Z</time></trkpt><trkpt lat="44.921558607854976" lon="7.862034908607031"><ele>252.0</ele><time>2026-05-02T16:26:50Z</time></trkpt><trkpt lat="44.921639452114846" lon="7.861963414592813"><ele>252.0</ele><time>2026-05-02T16:26:51Z</time></trkpt><trkpt lat="44.92168022288613" lon="7.861813082767429"><ele>252.0</ele><time>2026-05-02T16:26:52Z</time></trkpt><trkpt lat="44.92170190946019" lon="7.861651504445525"><ele>252.0</ele><time>2026-05-02T16:26:53Z</time></trkpt><trkpt lat="44.921722769922276" lon="7.861491724852121"><ele>251.6</ele><time>2026-05-02T16:26:54Z</time></trkpt><trkpt lat="44.92177137866853" lon="7.861341798128291"><ele>251.2</ele><time>2026-05-02T16:26:55Z</time></trkpt><trkpt lat="44.92183723459758" lon="7.861206929104235"><ele>250.8</ele><time>2026-05-02T16:26:56Z</time></trkpt><trkpt lat="44.92190184831571" lon="7.861090506076809"><ele>250.4</ele><time>2026-05-02T16:26:57Z</time></trkpt><trkpt lat="44.92197193521407" lon="7.8609702740775385"><ele>250.0</ele><time>2026-05-02T16:26:58Z</time></trkpt><trkpt lat="44.92204896950538" lon="7.860845946156038"><ele>250.0</ele><time>2026-05-02T16:26:59Z</time></trkpt><trkpt lat="44.92214597717699" lon="7.8607081125861615"><ele>250.0</ele><time>2026-05-02T16:27:00Z</time></trkpt><trkpt lat="44.922258136314476" lon="7.860561940302229"><ele>250.0</ele><time>2026-05-02T16:27:01Z</time></trkpt><trkpt lat="44.92238408230731" lon="7.860415678835783"><ele>250.0</ele><time>2026-05-02T16:27:02Z</time></trkpt><trkpt lat="44.92251885404238" lon="7.8602628668931525"><ele>250.0</ele><time>2026-05-02T16:27:03Z</time></trkpt><trkpt lat="44.92267135429457" lon="7.860090121787219"><ele>250.0</ele><time>2026-05-02T16:27:04Z</time></trkpt><trkpt lat="44.922844820038286" lon="7.8598994219258485"><ele>251.0</ele><time>2026-05-02T16:27:05Z</time></trkpt><trkpt lat="44.92303801877805" lon="7.859711810895466"><ele>252.0</ele><time>2026-05-02T16:27:06Z</time></trkpt><trkpt lat="44.923242566597686" lon="7.859518704946172"><ele>251.5</ele><time>2026-05-02T16:27:07Z</time></trkpt><trkpt lat="44.92345156508598" lon="7.859296091612464"><ele>251.0</ele><time>2026-05-02T16:27:08Z</time></trkpt><trkpt lat="44.92367389200798" lon="7.859049923277066"><ele>251.0</ele><time>2026-05-02T16:27:09Z</time></trkpt><trkpt lat="44.923905504149715" lon="7.858780809757376"><ele>251.0</ele><time>2026-05-02T16:27:10Z</time></trkpt><trkpt lat="44.924140848756366" lon="7.858560474225077"><ele>250.5</ele><time>2026-05-02T16:27:11Z</time></trkpt><trkpt lat="44.92439404283235" lon="7.858290294676823"><ele>250.0</ele><time>2026-05-02T16:27:12Z</time></trkpt><trkpt lat="44.92464717682171" lon="7.85801351156601"><ele>250.0</ele><time>2026-05-02T16:27:13Z</time></trkpt><trkpt lat="44.924890680465175" lon="7.8577470530342275"><ele>250.0</ele><time>2026-05-02T16:27:14Z</time></trkpt><trkpt lat="44.925132181475874" lon="7.857487610119037"><ele>251.5</ele><time>2026-05-02T16:27:15Z</time></trkpt><trkpt lat="44.925380276300125" lon="7.857221593698588"><ele>253.0</ele><time>2026-05-02T16:27:16Z</time></trkpt><trkpt lat="44.925626394859336" lon="7.856963225901623"><ele>252.5</ele><time>2026-05-02T16:27:17Z</time></trkpt><trkpt lat="44.925871791332476" lon="7.856702690314667"><ele>252.0</ele><time>2026-05-02T16:27:18Z</time></trkpt><trkpt lat="44.926104983783745" lon="7.8564446629967835"><ele>248.5</ele><time>2026-05-02T16:27:19Z</time></trkpt><trkpt lat="44.92632096762907" lon="7.8562066606401375"><ele>245.0</ele><time>2026-05-02T16:27:20Z</time></trkpt><trkpt lat="44.92652830624954" lon="7.85598034215716"><ele>243.5</ele><time>2026-05-02T16:27:21Z</time></trkpt><trkpt lat="44.926725060217215" lon="7.855748635634043"><ele>242.0</ele><time>2026-05-02T16:27:22Z</time></trkpt><trkpt lat="44.92691782842299" lon="7.855482896894117"><ele>240.0</ele><time>2026-05-02T16:27:23Z</time></trkpt><trkpt lat="44.92708622167578" lon="7.855214173777717"><ele>238.0</ele><time>2026-05-02T16:27:24Z</time></trkpt><trkpt lat="44.92723997135287" lon="7.854951713247034"><ele>238.0</ele><time>2026-05-02T16:27:25Z</time></trkpt><trkpt lat="44.92738075796284" lon="7.85469760955654"><ele>238.0</ele><time>2026-05-02T16:27:26Z</time></trkpt><trkpt lat="44.92750447637267" lon="7.854438459751828"><ele>237.66666666666666</ele><time>2026-05-02T16:27:27Z</time></trkpt><trkpt lat="44.927612647290445" lon="7.854177356413898"><ele>237.33333333333331</ele><time>2026-05-02T16:27:28Z</time></trkpt><trkpt lat="44.92771462675771" lon="7.853915018446549"><ele>237.0</ele><time>2026-05-02T16:27:29Z</time></trkpt><trkpt lat="44.92780424280759" lon="7.853663218181424"><ele>237.33333333333331</ele><time>2026-05-02T16:27:30Z</time></trkpt><trkpt lat="44.92788983669014" lon="7.853389629991049"><ele>237.66666666666666</ele><time>2026-05-02T16:27:31Z</time></trkpt><trkpt lat="44.92797661995629" lon="7.853085617630229"><ele>238.0</ele><time>2026-05-02T16:27:32Z</time></trkpt><trkpt lat="44.92806998016827" lon="7.85276056148963"><ele>238.5</ele><time>2026-05-02T16:27:33Z</time></trkpt><trkpt lat="44.92817245827224" lon="7.852410205339641"><ele>239.0</ele><time>2026-05-02T16:27:34Z</time></trkpt><trkpt lat="44.928285509651495" lon="7.852066412440357"><ele>238.5</ele><time>2026-05-02T16:27:35Z</time></trkpt><trkpt lat="44.92839690221263" lon="7.851726925464515"><ele>238.0</ele><time>2026-05-02T16:27:36Z</time></trkpt><trkpt lat="44.92849375909033" lon="7.8514128261570075"><ele>238.0</ele><time>2026-05-02T16:27:37Z</time></trkpt><trkpt lat="44.92857999205758" lon="7.85111998729292"><ele>238.0</ele><time>2026-05-02T16:27:38Z</time></trkpt><trkpt lat="44.928645729942055" lon="7.850852092157843"><ele>238.0</ele><time>2026-05-02T16:27:39Z</time></trkpt><trkpt lat="44.92869655017015" lon="7.850591167087189"><ele>238.0</ele><time>2026-05-02T16:27:40Z</time></trkpt><trkpt lat="44.928732026922376" lon="7.8503379585518545"><ele>238.0</ele><time>2026-05-02T16:27:41Z</time></trkpt><trkpt lat="44.92877238235995" lon="7.850114707009953"><ele>238.0</ele><time>2026-05-02T16:27:42Z</time></trkpt><trkpt lat="44.928774435581296" lon="7.849913994240959"><ele>238.0</ele><time>2026-05-02T16:27:43Z</time></trkpt><trkpt lat="44.92879392615142" lon="7.849752856501874"><ele>238.0</ele><time>2026-05-02T16:27:44Z</time></trkpt><trkpt lat="44.92882085689089" lon="7.84960219535812"><ele>238.0</ele><time>2026-05-02T16:27:45Z</time></trkpt><trkpt lat="44.928877636333894" lon="7.849477122770454"><ele>238.0</ele><time>2026-05-02T16:27:46Z</time></trkpt><trkpt lat="44.92896852955343" lon="7.84938930093737"><ele>238.0</ele><time>2026-05-02T16:27:47Z</time></trkpt><trkpt lat="44.929054240950684" lon="7.849278718434042"><ele>238.25</ele><time>2026-05-02T16:27:48Z</time></trkpt><trkpt lat="44.929091838854646" lon="7.849109511369025"><ele>238.5</ele><time>2026-05-02T16:27:49Z</time></trkpt><trkpt lat="44.929074568664504" lon="7.84892255098411"><ele>238.75</ele><time>2026-05-02T16:27:50Z</time></trkpt><trkpt lat="44.92900836586299" lon="7.848749920042503"><ele>239.0</ele><time>2026-05-02T16:27:51Z</time></trkpt><trkpt lat="44.92890120986029" lon="7.848603272710539"><ele>239.0</ele><time>2026-05-02T16:27:52Z</time></trkpt><trkpt lat="44.928769453269894" lon="7.848458996748674"><ele>239.0</ele><time>2026-05-02T16:27:53Z</time></trkpt><trkpt lat="44.928648621617775" lon="7.84826225303777"><ele>239.0</ele><time>2026-05-02T16:27:54Z</time></trkpt><trkpt lat="44.92852396128008" lon="7.848033708918573"><ele>238.5</ele><time>2026-05-02T16:27:55Z</time></trkpt><trkpt lat="44.928357432537695" lon="7.84782815543593"><ele>238.0</ele><time>2026-05-02T16:27:56Z</time></trkpt><trkpt lat="44.928147681424015" lon="7.847661110497993"><ele>237.5</ele><time>2026-05-02T16:27:57Z</time></trkpt><trkpt lat="44.92790719614046" lon="7.8475411320730135"><ele>237.0</ele><time>2026-05-02T16:27:58Z</time></trkpt><trkpt lat="44.927647598422375" lon="7.8474704483145805"><ele>237.33333333333331</ele><time>2026-05-02T16:27:59Z</time></trkpt><trkpt lat="44.92741153049695" lon="7.847413930314947"><ele>237.66666666666666</ele><time>2026-05-02T16:28:00Z</time></trkpt><trkpt lat="44.92721876778156" lon="7.847332477592263"><ele>238.0</ele><time>2026-05-02T16:28:01Z</time></trkpt><trkpt lat="44.92704515301626" lon="7.847221029024325"><ele>238.0</ele><time>2026-05-02T16:28:02Z</time></trkpt><trkpt lat="44.92687746843352" lon="7.847080051573489"><ele>238.0</ele><time>2026-05-02T16:28:03Z</time></trkpt><trkpt lat="44.92672360320117" lon="7.846890099903905"><ele>238.0</ele><time>2026-05-02T16:28:04Z</time></trkpt><trkpt lat="44.92657191342789" lon="7.846690711519193"><ele>238.33333333333331</ele><time>2026-05-02T16:28:04.999Z</time></trkpt><trkpt lat="44.92644396425829" lon="7.846474234100649"><ele>238.66666666666669</ele><time>2026-05-02T16:28:05.999Z</time></trkpt><trkpt lat="44.92632192589619" lon="7.8462354919872626"><ele>239.0</ele><time>2026-05-02T16:28:06.999Z</time></trkpt><trkpt lat="44.92619513414242" lon="7.845971202078553"><ele>240.0</ele><time>2026-05-02T16:28:07.999Z</time></trkpt><trkpt lat="44.92605719347161" lon="7.845678968506235"><ele>241.0</ele><time>2026-05-02T16:28:08.999Z</time></trkpt><trkpt lat="44.92590778595671" lon="7.845363028323174"><ele>239.0</ele><time>2026-05-02T16:28:09.999Z</time></trkpt><trkpt lat="44.92574804169113" lon="7.845023666112803"><ele>237.0</ele><time>2026-05-02T16:28:10.999Z</time></trkpt><trkpt lat="44.92557751728074" lon="7.844699799790983"><ele>237.0</ele><time>2026-05-02T16:28:11.999Z</time></trkpt><trkpt lat="44.925436141948225" lon="7.844378714761825"><ele>237.0</ele><time>2026-05-02T16:28:12.999Z</time></trkpt><trkpt lat="44.92530475656738" lon="7.844084371270988"><ele>237.5</ele><time>2026-05-02T16:28:13.999Z</time></trkpt><trkpt lat="44.925214126903604" lon="7.843785329801783"><ele>238.0</ele><time>2026-05-02T16:28:14.999Z</time></trkpt><trkpt lat="44.92512870749219" lon="7.843478564446484"><ele>237.5</ele><time>2026-05-02T16:28:15.999Z</time></trkpt><trkpt lat="44.92506318917742" lon="7.843162738003173"><ele>237.0</ele><time>2026-05-02T16:28:16.999Z</time></trkpt><trkpt lat="44.925015147588574" lon="7.842833932325824"><ele>237.5</ele><time>2026-05-02T16:28:17.999Z</time></trkpt><trkpt lat="44.92499045053959" lon="7.8424915481693676"><ele>238.0</ele><time>2026-05-02T16:28:18.999Z</time></trkpt><trkpt lat="44.92498639027918" lon="7.842127029195398"><ele>237.0</ele><time>2026-05-02T16:28:19.999Z</time></trkpt><trkpt lat="44.92500125116453" lon="7.841748127331367"><ele>236.0</ele><time>2026-05-02T16:28:20.999Z</time></trkpt><trkpt lat="44.92500605008731" lon="7.841369731451191"><ele>236.0</ele><time>2026-05-02T16:28:21.999Z</time></trkpt><trkpt lat="44.925030040535454" lon="7.841027401503855"><ele>236.0</ele><time>2026-05-02T16:28:22.999Z</time></trkpt><trkpt lat="44.92504328274371" lon="7.84071069696192"><ele>236.33333333333334</ele><time>2026-05-02T16:28:23.999Z</time></trkpt><trkpt lat="44.92505083594875" lon="7.840411927848743"><ele>236.66666666666669</ele><time>2026-05-02T16:28:24.999Z</time></trkpt><trkpt lat="44.92504879863255" lon="7.840125815336104"><ele>237.0</ele><time>2026-05-02T16:28:25.999Z</time></trkpt><trkpt lat="44.92502563898609" lon="7.839832728536856"><ele>237.33333333333331</ele><time>2026-05-02T16:28:26.999Z</time></trkpt><trkpt lat="44.92498414582509" lon="7.83955767962877"><ele>237.66666666666666</ele><time>2026-05-02T16:28:27.999Z</time></trkpt><trkpt lat="44.92493272697421" lon="7.839305537397532"><ele>238.0</ele><time>2026-05-02T16:28:28.999Z</time></trkpt><trkpt lat="44.924870716090986" lon="7.8390731754415235"><ele>238.0</ele><time>2026-05-02T16:28:29.999Z</time></trkpt><trkpt lat="44.924798655776314" lon="7.838865917617986"><ele>238.0</ele><time>2026-05-02T16:28:30.999Z</time></trkpt><trkpt lat="44.924730756389295" lon="7.838695307763215"><ele>238.0</ele><time>2026-05-02T16:28:31.999Z</time></trkpt><trkpt lat="44.9246851215767" lon="7.838578459672068"><ele>238.0</ele><time>2026-05-02T16:28:32.999Z</time></trkpt><trkpt lat="44.92465120507439" lon="7.838479435203327"><ele>238.0</ele><time>2026-05-02T16:28:33.999Z</time></trkpt><trkpt lat="44.92462544997935" lon="7.838367306708576"><ele>238.0</ele><time>2026-05-02T16:28:34.999Z</time></trkpt><trkpt lat="44.9246232424952" lon="7.838230602928224"><ele>238.0</ele><time>2026-05-02T16:28:35.999Z</time></trkpt><trkpt lat="44.92466496122774" lon="7.838107153542769"><ele>238.0</ele><time>2026-05-02T16:28:36.999Z</time></trkpt><trkpt lat="44.924686108006085" lon="7.837993492638199"><ele>238.0</ele><time>2026-05-02T16:28:37.999Z</time></trkpt><trkpt lat="44.92484496104677" lon="7.837933194346138"><ele>238.0</ele><time>2026-05-02T16:28:38.999Z</time></trkpt><trkpt lat="44.9249577084986" lon="7.8378243162828864"><ele>238.0</ele><time>2026-05-02T16:28:39.999Z</time></trkpt><trkpt lat="44.92509533267113" lon="7.837716881275135"><ele>238.0</ele><time>2026-05-02T16:28:40.999Z</time></trkpt><trkpt lat="44.925251847062526" lon="7.837584314162776"><ele>238.0</ele><time>2026-05-02T16:28:41.999Z</time></trkpt><trkpt lat="44.92542585482866" lon="7.8374317897582735"><ele>238.0</ele><time>2026-05-02T16:28:42.999Z</time></trkpt><trkpt lat="44.92561951598964" lon="7.837264866468684"><ele>238.0</ele><time>2026-05-02T16:28:43.999Z</time></trkpt><trkpt lat="44.92581702485247" lon="7.837097126739563"><ele>238.0</ele><time>2026-05-02T16:28:44.999Z</time></trkpt><trkpt lat="44.92602536784407" lon="7.836921022244826"><ele>238.0</ele><time>2026-05-02T16:28:45.999Z</time></trkpt><trkpt lat="44.9262372821294" lon="7.836738621270809"><ele>237.66666666666666</ele><time>2026-05-02T16:28:46.999Z</time></trkpt><trkpt lat="44.92643426413701" lon="7.836564406746185"><ele>237.33333333333331</ele><time>2026-05-02T16:28:47.999Z</time></trkpt><trkpt lat="44.926614914443654" lon="7.836409384338159"><ele>237.0</ele><time>2026-05-02T16:28:48.999Z</time></trkpt><trkpt lat="44.926787786939435" lon="7.83626469910017"><ele>237.0</ele><time>2026-05-02T16:28:49.999Z</time></trkpt><trkpt lat="44.92694859011324" lon="7.836126911988039"><ele>237.0</ele><time>2026-05-02T16:28:50.999Z</time></trkpt><trkpt lat="44.92710591279124" lon="7.835998218191693"><ele>237.0</ele><time>2026-05-02T16:28:51.999Z</time></trkpt><trkpt lat="44.92725088803885" lon="7.835874653486615"><ele>237.25</ele><time>2026-05-02T16:28:52.999Z</time></trkpt><trkpt lat="44.9273912040645" lon="7.8357525496658695"><ele>237.5</ele><time>2026-05-02T16:28:53.998Z</time></trkpt><trkpt lat="44.927510827659795" lon="7.835650848751542"><ele>237.75</ele><time>2026-05-02T16:28:54.998Z</time></trkpt><trkpt lat="44.92762115089395" lon="7.835583488901556"><ele>238.0</ele><time>2026-05-02T16:28:55.998Z</time></trkpt><trkpt lat="44.92773246803137" lon="7.8355680024645284"><ele>238.0</ele><time>2026-05-02T16:28:56.998Z</time></trkpt><trkpt lat="44.92783785635017" lon="7.835607666968326"><ele>238.0</ele><time>2026-05-02T16:28:57.998Z</time></trkpt><trkpt lat="44.92791867374951" lon="7.8356993282806515"><ele>238.0</ele><time>2026-05-02T16:28:58.998Z</time></trkpt><trkpt lat="44.92797844948488" lon="7.8358045766093385"><ele>238.0</ele><time>2026-05-02T16:28:59.998Z</time></trkpt><trkpt lat="44.92805629518863" lon="7.835862053521716"><ele>238.0</ele><time>2026-05-02T16:29:00.998Z</time></trkpt><trkpt lat="44.92814934227468" lon="7.835844757845571"><ele>238.0</ele><time>2026-05-02T16:29:01.998Z</time></trkpt><trkpt lat="44.92822923898827" lon="7.835770404802273"><ele>238.0</ele><time>2026-05-02T16:29:02.998Z</time></trkpt><trkpt lat="44.92827672556704" lon="7.835648490997499"><ele>238.0</ele><time>2026-05-02T16:29:03.998Z</time></trkpt><trkpt lat="44.92828266043369" lon="7.8354968657064274"><ele>238.0</ele><time>2026-05-02T16:29:04.998Z</time></trkpt><trkpt lat="44.92824882330656" lon="7.835351868324904"><ele>238.0</ele><time>2026-05-02T16:29:05.998Z</time></trkpt><trkpt lat="44.92818637992793" lon="7.835254795499067"><ele>238.2</ele><time>2026-05-02T16:29:06.998Z</time></trkpt><trkpt lat="44.928199459184306" lon="7.835104952303493"><ele>238.4</ele><time>2026-05-02T16:29:07.998Z</time></trkpt><trkpt lat="44.92825097566018" lon="7.834984350574633"><ele>238.59999999999997</ele><time>2026-05-02T16:29:08.998Z</time></trkpt><trkpt lat="44.92833979980462" lon="7.834914512691644"><ele>238.79999999999998</ele><time>2026-05-02T16:29:09.998Z</time></trkpt><trkpt lat="44.92843417296595" lon="7.834861533328646"><ele>239.0</ele><time>2026-05-02T16:29:10.998Z</time></trkpt><trkpt lat="44.92853239126782" lon="7.834808256218932"><ele>239.0</ele><time>2026-05-02T16:29:11.998Z</time></trkpt><trkpt lat="44.92865571845082" lon="7.834682236768731"><ele>239.0</ele><time>2026-05-02T16:29:12.998Z</time></trkpt><trkpt lat="44.92877921486425" lon="7.834570834001137"><ele>239.0</ele><time>2026-05-02T16:29:13.998Z</time></trkpt><trkpt lat="44.9288927994368" lon="7.834470983096219"><ele>239.0</ele><time>2026-05-02T16:29:14.998Z</time></trkpt><trkpt lat="44.92900572783139" lon="7.834368926450916"><ele>239.0</ele><time>2026-05-02T16:29:15.998Z</time></trkpt><trkpt lat="44.929137998797536" lon="7.834249397865137"><ele>239.0</ele><time>2026-05-02T16:29:16.998Z</time></trkpt><trkpt lat="44.929287353226435" lon="7.834150223966181"><ele>239.0</ele><time>2026-05-02T16:29:17.998Z</time></trkpt><trkpt lat="44.929411100336715" lon="7.83403682965386"><ele>238.66666666666669</ele><time>2026-05-02T16:29:18.998Z</time></trkpt><trkpt lat="44.92953977434044" lon="7.8339434858680965"><ele>238.33333333333331</ele><time>2026-05-02T16:29:19.998Z</time></trkpt><trkpt lat="44.929690991957024" lon="7.833820555663692"><ele>238.0</ele><time>2026-05-02T16:29:20.998Z</time></trkpt><trkpt lat="44.92987102889016" lon="7.833648483618879"><ele>238.0</ele><time>2026-05-02T16:29:21.998Z</time></trkpt><trkpt lat="44.93006842217654" lon="7.833458204225829"><ele>238.0</ele><time>2026-05-02T16:29:22.998Z</time></trkpt><trkpt lat="44.93029551659163" lon="7.833267065160257"><ele>238.0</ele><time>2026-05-02T16:29:23.998Z</time></trkpt><trkpt lat="44.930538949105696" lon="7.8330706750488845"><ele>238.0</ele><time>2026-05-02T16:29:24.998Z</time></trkpt><trkpt lat="44.93077759590119" lon="7.832870246604143"><ele>237.5</ele><time>2026-05-02T16:29:25.998Z</time></trkpt><trkpt lat="44.93099780195441" lon="7.832678270590853"><ele>237.0</ele><time>2026-05-02T16:29:26.998Z</time></trkpt><trkpt lat="44.931212825022364" lon="7.832490469800442"><ele>237.0</ele><time>2026-05-02T16:29:27.998Z</time></trkpt><trkpt lat="44.93143176329727" lon="7.832299985317795"><ele>237.0</ele><time>2026-05-02T16:29:28.998Z</time></trkpt><trkpt lat="44.9316539310947" lon="7.832110302344228"><ele>236.5</ele><time>2026-05-02T16:29:29.998Z</time></trkpt><trkpt lat="44.93187860376886" lon="7.831923522695669"><ele>236.0</ele><time>2026-05-02T16:29:30.998Z</time></trkpt><trkpt lat="44.93210581746758" lon="7.831734256616331"><ele>237.0</ele><time>2026-05-02T16:29:31.998Z</time></trkpt><trkpt lat="44.93233218106564" lon="7.831538170327326"><ele>238.0</ele><time>2026-05-02T16:29:32.998Z</time></trkpt><trkpt lat="44.93256331807818" lon="7.831339188055483"><ele>238.0</ele><time>2026-05-02T16:29:33.998Z</time></trkpt><trkpt lat="44.93279819857233" lon="7.831139292576477"><ele>238.0</ele><time>2026-05-02T16:29:34.998Z</time></trkpt><trkpt lat="44.933035897712124" lon="7.8309363898496835"><ele>238.0</ele><time>2026-05-02T16:29:35.998Z</time></trkpt><trkpt lat="44.9332764103497" lon="7.830728150667816"><ele>238.0</ele><time>2026-05-02T16:29:36.998Z</time></trkpt><trkpt lat="44.933519522490414" lon="7.830516035809551"><ele>238.0</ele><time>2026-05-02T16:29:37.998Z</time></trkpt><trkpt lat="44.93376413155783" lon="7.8303047086749045"><ele>238.0</ele><time>2026-05-02T16:29:38.998Z</time></trkpt><trkpt lat="44.934014845236064" lon="7.830089442474937"><ele>239.0</ele><time>2026-05-02T16:29:39.998Z</time></trkpt><trkpt lat="44.93426867872879" lon="7.829871862781872"><ele>240.0</ele><time>2026-05-02T16:29:40.998Z</time></trkpt><trkpt lat="44.93451582255378" lon="7.829643464242543"><ele>240.0</ele><time>2026-05-02T16:29:41.998Z</time></trkpt><trkpt lat="44.934746236847396" lon="7.829417703085549"><ele>240.0</ele><time>2026-05-02T16:29:42.998Z</time></trkpt><trkpt lat="44.93494933767201" lon="7.8291939438428955"><ele>239.0</ele><time>2026-05-02T16:29:43.998Z</time></trkpt><trkpt lat="44.935160919812866" lon="7.82896611053282"><ele>238.0</ele><time>2026-05-02T16:29:44.998Z</time></trkpt><trkpt lat="44.93537084895465" lon="7.8287348939320704"><ele>238.0</ele><time>2026-05-02T16:29:45.998Z</time></trkpt><trkpt lat="44.93556611127751" lon="7.828523081750084"><ele>238.0</ele><time>2026-05-02T16:29:46.998Z</time></trkpt><trkpt lat="44.93575486037653" lon="7.828317809269562"><ele>238.33333333333331</ele><time>2026-05-02T16:29:47.999Z</time></trkpt><trkpt lat="44.93592928339429" lon="7.8281150964465835"><ele>238.66666666666669</ele><time>2026-05-02T16:29:48.999Z</time></trkpt><trkpt lat="44.936104327445086" lon="7.827935852910854"><ele>239.0</ele><time>2026-05-02T16:29:49.999Z</time></trkpt><trkpt lat="44.93626536878085" lon="7.827747338319122"><ele>238.0</ele><time>2026-05-02T16:29:50.999Z</time></trkpt><trkpt lat="44.9364260723088" lon="7.827554733029379"><ele>237.0</ele><time>2026-05-02T16:29:51.999Z</time></trkpt><trkpt lat="44.93656958786538" lon="7.8273500234880125"><ele>236.0</ele><time>2026-05-02T16:29:52.999Z</time></trkpt><trkpt lat="44.93671355202327" lon="7.827169948741727"><ele>237.0</ele><time>2026-05-02T16:29:53.999Z</time></trkpt><trkpt lat="44.936841850675435" lon="7.826993481776795"><ele>238.0</ele><time>2026-05-02T16:29:54.999Z</time></trkpt><trkpt lat="44.9369524512826" lon="7.826827141634057"><ele>239.0</ele><time>2026-05-02T16:29:55.999Z</time></trkpt><trkpt lat="44.937054669372316" lon="7.826665048152457"><ele>239.33333333333334</ele><time>2026-05-02T16:29:56.999Z</time></trkpt><trkpt lat="44.9371592270469" lon="7.826487895219383"><ele>239.66666666666669</ele><time>2026-05-02T16:29:57.999Z</time></trkpt><trkpt lat="44.93726737536341" lon="7.826291362716675"><ele>240.0</ele><time>2026-05-02T16:29:58.999Z</time></trkpt><trkpt lat="44.93737249026429" lon="7.826093097934176"><ele>240.5</ele><time>2026-05-02T16:29:59.999Z</time></trkpt><trkpt lat="44.9374681570653" lon="7.825911099272289"><ele>241.0</ele><time>2026-05-02T16:30:01Z</time></trkpt><trkpt lat="44.937551762668214" lon="7.825740397902873"><ele>241.5</ele><time>2026-05-02T16:30:02Z</time></trkpt><trkpt lat="44.937631950755154" lon="7.825580479649742"><ele>242.0</ele><time>2026-05-02T16:30:03Z</time></trkpt><trkpt lat="44.9377103895898" lon="7.825430984949644"><ele>243.0</ele><time>2026-05-02T16:30:04Z</time></trkpt><trkpt lat="44.93779234108352" lon="7.825264839890804"><ele>244.0</ele><time>2026-05-02T16:30:05Z</time></trkpt><trkpt lat="44.93789444615857" lon="7.825092561815985"><ele>245.0</ele><time>2026-05-02T16:30:06Z</time></trkpt><trkpt lat="44.937999951414966" lon="7.824883577679457"><ele>245.0</ele><time>2026-05-02T16:30:07Z</time></trkpt><trkpt lat="44.9381148179776" lon="7.8246560502305"><ele>245.0</ele><time>2026-05-02T16:30:08Z</time></trkpt><trkpt lat="44.93823923584018" lon="7.824409604011779"><ele>245.0</ele><time>2026-05-02T16:30:09Z</time></trkpt><trkpt lat="44.93837108237991" lon="7.8241484430084505"><ele>245.33333333333334</ele><time>2026-05-02T16:30:10Z</time></trkpt><trkpt lat="44.9385005809462" lon="7.823891932737699"><ele>245.66666666666669</ele><time>2026-05-02T16:30:11Z</time></trkpt><trkpt lat="44.93863068005816" lon="7.823634234653437"><ele>246.0</ele><time>2026-05-02T16:30:12Z</time></trkpt><trkpt lat="44.93876528493042" lon="7.823367612372364"><ele>246.0</ele><time>2026-05-02T16:30:13Z</time></trkpt><trkpt lat="44.9389001170309" lon="7.823097366747569"><ele>246.0</ele><time>2026-05-02T16:30:14Z</time></trkpt><trkpt lat="44.93901609236008" lon="7.82281283539039"><ele>246.0</ele><time>2026-05-02T16:30:15Z</time></trkpt><trkpt lat="44.93913971190492" lon="7.822569685126963"><ele>246.0</ele><time>2026-05-02T16:30:16Z</time></trkpt><trkpt lat="44.939257315208174" lon="7.822338762882862"><ele>246.0</ele><time>2026-05-02T16:30:17Z</time></trkpt><trkpt lat="44.93936726548627" lon="7.822121181449811"><ele>246.0</ele><time>2026-05-02T16:30:18Z</time></trkpt><trkpt lat="44.93947227849024" lon="7.821915826526139"><ele>246.0</ele><time>2026-05-02T16:30:19Z</time></trkpt><trkpt lat="44.93957428705195" lon="7.821715070133252"><ele>246.0</ele><time>2026-05-02T16:30:20Z</time></trkpt><trkpt lat="44.93967895127007" lon="7.821508515763859"><ele>245.66666666666669</ele><time>2026-05-02T16:30:21Z</time></trkpt><trkpt lat="44.93977923736623" lon="7.821310792280861"><ele>245.33333333333334</ele><time>2026-05-02T16:30:22Z</time></trkpt><trkpt lat="44.93987133393475" lon="7.821131554399462"><ele>245.0</ele><time>2026-05-02T16:30:23Z</time></trkpt><trkpt lat="44.93995671339127" lon="7.820966088067188"><ele>245.0</ele><time>2026-05-02T16:30:24Z</time></trkpt><trkpt lat="44.940036919347556" lon="7.820805641095337"><ele>245.0</ele><time>2026-05-02T16:30:25Z</time></trkpt><trkpt lat="44.94011335802143" lon="7.820652329838469"><ele>245.0</ele><time>2026-05-02T16:30:26Z</time></trkpt><trkpt lat="44.9401953213227" lon="7.82049117111257"><ele>245.0</ele><time>2026-05-02T16:30:27Z</time></trkpt><trkpt lat="44.94027646187281" lon="7.820323586962193"><ele>245.0</ele><time>2026-05-02T16:30:28Z</time></trkpt><trkpt lat="44.94035572845418" lon="7.820167149002197"><ele>245.0</ele><time>2026-05-02T16:30:29Z</time></trkpt><trkpt lat="44.94043120561934" lon="7.820026879973449"><ele>245.0</ele><time>2026-05-02T16:30:30Z</time></trkpt><trkpt lat="44.9404982489979" lon="7.819889454353565"><ele>245.0</ele><time>2026-05-02T16:30:31Z</time></trkpt><trkpt lat="44.94057131193072" lon="7.8197471605878155"><ele>245.0</ele><time>2026-05-02T16:30:32Z</time></trkpt><trkpt lat="44.94064182808359" lon="7.8196084576663"><ele>245.0</ele><time>2026-05-02T16:30:33Z</time></trkpt><trkpt lat="44.940703373400694" lon="7.819484158446192"><ele>245.0</ele><time>2026-05-02T16:30:34Z</time></trkpt><trkpt lat="44.94075860130798" lon="7.819366083226744"><ele>245.0</ele><time>2026-05-02T16:30:35Z</time></trkpt><trkpt lat="44.94081501692765" lon="7.819252620501554"><ele>245.0</ele><time>2026-05-02T16:30:36Z</time></trkpt><trkpt lat="44.94088608308826" lon="7.819107616860605"><ele>245.0</ele><time>2026-05-02T16:30:37Z</time></trkpt><trkpt lat="44.94097386380095" lon="7.818940890934662"><ele>245.0</ele><time>2026-05-02T16:30:38Z</time></trkpt><trkpt lat="44.94107647481573" lon="7.818757708845489"><ele>245.0</ele><time>2026-05-02T16:30:39Z</time></trkpt><trkpt lat="44.941188680065615" lon="7.818536571614082"><ele>244.66666666666669</ele><time>2026-05-02T16:30:40Z</time></trkpt><trkpt lat="44.94130762877775" lon="7.818290870479145"><ele>244.33333333333331</ele><time>2026-05-02T16:30:41Z</time></trkpt><trkpt lat="44.94143301997339" lon="7.818040581241005"><ele>244.0</ele><time>2026-05-02T16:30:42Z</time></trkpt><trkpt lat="44.94155890189979" lon="7.8177940307533795"><ele>244.33333333333331</ele><time>2026-05-02T16:30:43Z</time></trkpt><trkpt lat="44.94167443524462" lon="7.817570190034724"><ele>244.66666666666669</ele><time>2026-05-02T16:30:44Z</time></trkpt><trkpt lat="44.94178029591982" lon="7.817359057306299"><ele>245.0</ele><time>2026-05-02T16:30:45Z</time></trkpt><trkpt lat="44.94188390225914" lon="7.817148832415503"><ele>244.66666666666669</ele><time>2026-05-02T16:30:46Z</time></trkpt><trkpt lat="44.94199604199814" lon="7.8169203941585215"><ele>244.33333333333331</ele><time>2026-05-02T16:30:47Z</time></trkpt><trkpt lat="44.94210740408183" lon="7.816698291500153"><ele>244.0</ele><time>2026-05-02T16:30:48Z</time></trkpt><trkpt lat="44.942212591059295" lon="7.8164907038307"><ele>244.0</ele><time>2026-05-02T16:30:49Z</time></trkpt><trkpt lat="44.94231476794537" lon="7.816290866314874"><ele>244.0</ele><time>2026-05-02T16:30:50Z</time></trkpt><trkpt lat="44.94241393173306" lon="7.8160954321950395"><ele>244.0</ele><time>2026-05-02T16:30:51Z</time></trkpt><trkpt lat="44.94250809255681" lon="7.815903064309978"><ele>244.5</ele><time>2026-05-02T16:30:52Z</time></trkpt><trkpt lat="44.942594774370214" lon="7.815729329672585"><ele>245.0</ele><time>2026-05-02T16:30:53Z</time></trkpt><trkpt lat="44.94267235430601" lon="7.8155771613099505"><ele>245.5</ele><time>2026-05-02T16:30:54Z</time></trkpt><trkpt lat="44.942734284148635" lon="7.815457115026269"><ele>246.0</ele><time>2026-05-02T16:30:55Z</time></trkpt><trkpt lat="44.94278987464345" lon="7.815352258183482"><ele>246.0</ele><time>2026-05-02T16:30:56Z</time></trkpt><trkpt lat="44.94284361108952" lon="7.8152536691806125"><ele>246.0</ele><time>2026-05-02T16:30:57Z</time></trkpt><trkpt lat="44.94289051239344" lon="7.815163206418859"><ele>246.0</ele><time>2026-05-02T16:30:58Z</time></trkpt><trkpt lat="44.94292935061832" lon="7.815084401477195"><ele>246.0</ele><time>2026-05-02T16:30:59Z</time></trkpt><trkpt lat="44.94297337300247" lon="7.8149933465326455"><ele>246.0</ele><time>2026-05-02T16:31:00Z</time></trkpt><trkpt lat="44.94302887895054" lon="7.814885472488575"><ele>246.0</ele><time>2026-05-02T16:31:01Z</time></trkpt><trkpt lat="44.943093346530524" lon="7.814760262343832"><ele>246.25</ele><time>2026-05-02T16:31:02Z</time></trkpt><trkpt lat="44.94316319440217" lon="7.8146194695172895"><ele>246.5</ele><time>2026-05-02T16:31:03Z</time></trkpt><trkpt lat="44.943243614415664" lon="7.814459457360429"><ele>246.75</ele><time>2026-05-02T16:31:04Z</time></trkpt><trkpt lat="44.94333254368368" lon="7.814278812095467"><ele>247.0</ele><time>2026-05-02T16:31:05Z</time></trkpt><trkpt lat="44.9434299454741" lon="7.814080925780617"><ele>247.0</ele><time>2026-05-02T16:31:06Z</time></trkpt><trkpt lat="44.94353839628207" lon="7.813866771378596"><ele>247.0</ele><time>2026-05-02T16:31:07Z</time></trkpt><trkpt lat="44.943659001483326" lon="7.813627742259017"><ele>247.0</ele><time>2026-05-02T16:31:08Z</time></trkpt><trkpt lat="44.94378894248841" lon="7.813371319713329"><ele>248.0</ele><time>2026-05-02T16:31:09Z</time></trkpt><trkpt lat="44.94393858074218" lon="7.813100462902183"><ele>249.0</ele><time>2026-05-02T16:31:10Z</time></trkpt><trkpt lat="44.944095902466465" lon="7.812827325720863"><ele>248.5</ele><time>2026-05-02T16:31:11Z</time></trkpt><trkpt lat="44.94423304251978" lon="7.8125161210236875"><ele>248.0</ele><time>2026-05-02T16:31:12Z</time></trkpt><trkpt lat="44.9444123252972" lon="7.812182672659313"><ele>248.5</ele><time>2026-05-02T16:31:13Z</time></trkpt><trkpt lat="44.944596750074965" lon="7.81182298844921"><ele>249.0</ele><time>2026-05-02T16:31:14Z</time></trkpt><trkpt lat="44.944784292632576" lon="7.811457243903191"><ele>249.0</ele><time>2026-05-02T16:31:15Z</time></trkpt><trkpt lat="44.94497208017662" lon="7.811083551045473"><ele>249.0</ele><time>2026-05-02T16:31:16Z</time></trkpt><trkpt lat="44.945151385644046" lon="7.810718392240376"><ele>249.0</ele><time>2026-05-02T16:31:17Z</time></trkpt><trkpt lat="44.94531845484718" lon="7.810386346748118"><ele>249.0</ele><time>2026-05-02T16:31:18Z</time></trkpt><trkpt lat="44.94549221581002" lon="7.810056123989997"><ele>248.5</ele><time>2026-05-02T16:31:19Z</time></trkpt><trkpt lat="44.94566119566309" lon="7.8097202619227115"><ele>248.0</ele><time>2026-05-02T16:31:20Z</time></trkpt><trkpt lat="44.94583112957537" lon="7.809381138047882"><ele>248.5</ele><time>2026-05-02T16:31:21Z</time></trkpt><trkpt lat="44.94599590123541" lon="7.809047370208222"><ele>249.0</ele><time>2026-05-02T16:31:22Z</time></trkpt><trkpt lat="44.946168671354485" lon="7.808714975067897"><ele>249.5</ele><time>2026-05-02T16:31:23Z</time></trkpt><trkpt lat="44.9463389004401" lon="7.808371020888683"><ele>250.0</ele><time>2026-05-02T16:31:24Z</time></trkpt><trkpt lat="44.946515628097856" lon="7.808028669235722"><ele>250.0</ele><time>2026-05-02T16:31:25Z</time></trkpt><trkpt lat="44.94669227356789" lon="7.807680191657712"><ele>250.0</ele><time>2026-05-02T16:31:26Z</time></trkpt><trkpt lat="44.94686684463424" lon="7.807331652269694"><ele>249.5</ele><time>2026-05-02T16:31:27Z</time></trkpt><trkpt lat="44.94704490691207" lon="7.806982778814034"><ele>249.0</ele><time>2026-05-02T16:31:28Z</time></trkpt><trkpt lat="44.94722407466038" lon="7.806637097176246"><ele>249.0</ele><time>2026-05-02T16:31:29Z</time></trkpt><trkpt lat="44.94740162355908" lon="7.806284119403169"><ele>249.0</ele><time>2026-05-02T16:31:30Z</time></trkpt><trkpt lat="44.947572804790966" lon="7.8059340519101905"><ele>250.5</ele><time>2026-05-02T16:31:31Z</time></trkpt><trkpt lat="44.94775038404592" lon="7.8055775256470685"><ele>252.0</ele><time>2026-05-02T16:31:32Z</time></trkpt><trkpt lat="44.947926944878205" lon="7.8052230332890185"><ele>251.5</ele><time>2026-05-02T16:31:33Z</time></trkpt><trkpt lat="44.94810555953983" lon="7.804879155723205"><ele>251.0</ele><time>2026-05-02T16:31:34Z</time></trkpt><trkpt lat="44.94827129282534" lon="7.804547212174676"><ele>251.0</ele><time>2026-05-02T16:31:35Z</time></trkpt><trkpt lat="44.94844518783626" lon="7.804211584331692"><ele>251.0</ele><time>2026-05-02T16:31:36Z</time></trkpt><trkpt lat="44.94861678631995" lon="7.803869131361197"><ele>251.0</ele><time>2026-05-02T16:31:37Z</time></trkpt><trkpt lat="44.94879144464839" lon="7.803517996961583"><ele>251.0</ele><time>2026-05-02T16:31:38Z</time></trkpt><trkpt lat="44.948971514366946" lon="7.803163048976761"><ele>251.0</ele><time>2026-05-02T16:31:39Z</time></trkpt><trkpt lat="44.949152451304435" lon="7.802801197781526"><ele>251.0</ele><time>2026-05-02T16:31:40Z</time></trkpt><trkpt lat="44.94933891355907" lon="7.802440347366065"><ele>250.0</ele><time>2026-05-02T16:31:41Z</time></trkpt><trkpt lat="44.94952345449615" lon="7.802072849615447"><ele>249.0</ele><time>2026-05-02T16:31:42Z</time></trkpt><trkpt lat="44.949706700878366" lon="7.801719454103753"><ele>249.0</ele><time>2026-05-02T16:31:43Z</time></trkpt><trkpt lat="44.94987962925785" lon="7.801373214726192"><ele>249.0</ele><time>2026-05-02T16:31:44Z</time></trkpt><trkpt lat="44.950050317316126" lon="7.801037114393327"><ele>251.0</ele><time>2026-05-02T16:31:45Z</time></trkpt><trkpt lat="44.950210547884254" lon="7.800720295888295"><ele>253.0</ele><time>2026-05-02T16:31:46Z</time></trkpt><trkpt lat="44.95036402664804" lon="7.8004207532948575"><ele>253.5</ele><time>2026-05-02T16:31:47Z</time></trkpt><trkpt lat="44.95050844728321" lon="7.800131825634732"><ele>254.0</ele><time>2026-05-02T16:31:48Z</time></trkpt><trkpt lat="44.95064767162689" lon="7.7998561861385545"><ele>254.0</ele><time>2026-05-02T16:31:49Z</time></trkpt><trkpt lat="44.95077246961169" lon="7.799604899765728"><ele>254.0</ele><time>2026-05-02T16:31:50Z</time></trkpt><trkpt lat="44.95089468176902" lon="7.799372209156494"><ele>254.0</ele><time>2026-05-02T16:31:51Z</time></trkpt><trkpt lat="44.951011545780865" lon="7.799139308287383"><ele>254.0</ele><time>2026-05-02T16:31:52Z</time></trkpt><trkpt lat="44.95114327981844" lon="7.798914776879609"><ele>254.0</ele><time>2026-05-02T16:31:53Z</time></trkpt><trkpt lat="44.95126660191165" lon="7.798671983210052"><ele>254.0</ele><time>2026-05-02T16:31:54Z</time></trkpt><trkpt lat="44.95138762719393" lon="7.7984320309818695"><ele>253.66666666666669</ele><time>2026-05-02T16:31:55Z</time></trkpt><trkpt lat="44.951484234974075" lon="7.79817463693668"><ele>253.33333333333331</ele><time>2026-05-02T16:31:56Z</time></trkpt><trkpt lat="44.95160879280587" lon="7.797921914440049"><ele>253.0</ele><time>2026-05-02T16:31:57Z</time></trkpt><trkpt lat="44.95174438539122" lon="7.797651512571068"><ele>253.0</ele><time>2026-05-02T16:31:58Z</time></trkpt><trkpt lat="44.951888228273496" lon="7.797371704672413"><ele>253.0</ele><time>2026-05-02T16:31:59Z</time></trkpt><trkpt lat="44.95204299790102" lon="7.797087745418376"><ele>253.0</ele><time>2026-05-02T16:32:00Z</time></trkpt><trkpt lat="44.95219977596219" lon="7.796796115599197"><ele>253.0</ele><time>2026-05-02T16:32:01Z</time></trkpt><trkpt lat="44.9523542944647" lon="7.796489241870457"><ele>253.0</ele><time>2026-05-02T16:32:02Z</time></trkpt><trkpt lat="44.9525099193836" lon="7.796174538021064"><ele>253.0</ele><time>2026-05-02T16:32:03Z</time></trkpt><trkpt lat="44.95267112338103" lon="7.795856796525047"><ele>252.5</ele><time>2026-05-02T16:32:04Z</time></trkpt><trkpt lat="44.952834508757384" lon="7.795532054102018"><ele>252.0</ele><time>2026-05-02T16:32:05Z</time></trkpt><trkpt lat="44.95299888076376" lon="7.795211040784349"><ele>252.5</ele><time>2026-05-02T16:32:06Z</time></trkpt><trkpt lat="44.95316261124994" lon="7.794889414816014"><ele>253.0</ele><time>2026-05-02T16:32:07Z</time></trkpt><trkpt lat="44.953326626101635" lon="7.79456730477525"><ele>253.5</ele><time>2026-05-02T16:32:08Z</time></trkpt><trkpt lat="44.95347713455646" lon="7.794260354741497"><ele>254.0</ele><time>2026-05-02T16:32:09Z</time></trkpt><trkpt lat="44.953618648177006" lon="7.793980970408712"><ele>254.0</ele><time>2026-05-02T16:32:10Z</time></trkpt><trkpt lat="44.95375103952313" lon="7.793714086871426"><ele>254.0</ele><time>2026-05-02T16:32:11Z</time></trkpt><trkpt lat="44.95388041643625" lon="7.793461970597119"><ele>253.66666666666669</ele><time>2026-05-02T16:32:12Z</time></trkpt><trkpt lat="44.954000351842325" lon="7.793220004684741"><ele>253.33333333333331</ele><time>2026-05-02T16:32:13Z</time></trkpt><trkpt lat="44.954117963160584" lon="7.792989249424894"><ele>253.0</ele><time>2026-05-02T16:32:14Z</time></trkpt><trkpt lat="44.954239281295486" lon="7.7927556046597495"><ele>252.33333333333331</ele><time>2026-05-02T16:32:15Z</time></trkpt><trkpt lat="44.95435835021415" lon="7.7925214320336496"><ele>251.66666666666669</ele><time>2026-05-02T16:32:16Z</time></trkpt><trkpt lat="44.954463371434855" lon="7.792306440374222"><ele>251.0</ele><time>2026-05-02T16:32:17Z</time></trkpt><trkpt lat="44.954560146184065" lon="7.792118822495751"><ele>251.0</ele><time>2026-05-02T16:32:18Z</time></trkpt><trkpt lat="44.95464602980789" lon="7.791966731751552"><ele>251.0</ele><time>2026-05-02T16:32:19Z</time></trkpt><trkpt lat="44.954725368125295" lon="7.791855145739871"><ele>251.0</ele><time>2026-05-02T16:32:20Z</time></trkpt><trkpt lat="44.95481116773248" lon="7.791771444544577"><ele>251.0</ele><time>2026-05-02T16:32:21Z</time></trkpt><trkpt lat="44.95491365070198" lon="7.79174862702858"><ele>251.0</ele><time>2026-05-02T16:32:22Z</time></trkpt><trkpt lat="44.95507647875041" lon="7.791680644402883"><ele>251.0</ele><time>2026-05-02T16:32:24Z</time></trkpt><trkpt lat="44.955120842878586" lon="7.791579092569369"><ele>251.0</ele><time>2026-05-02T16:32:25Z</time></trkpt><trkpt lat="44.95511520956704" lon="7.791428442988077"><ele>251.0</ele><time>2026-05-02T16:32:26Z</time></trkpt><trkpt lat="44.95509107676917" lon="7.7913002975847405"><ele>251.0</ele><time>2026-05-02T16:32:27Z</time></trkpt><trkpt lat="44.95507330006323" lon="7.7911645375221"><ele>251.0</ele><time>2026-05-02T16:32:28Z</time></trkpt><trkpt lat="44.955110027241204" lon="7.791026601439483"><ele>251.0</ele><time>2026-05-02T16:32:29Z</time></trkpt><trkpt lat="44.95518204365564" lon="7.790868867640883"><ele>251.0</ele><time>2026-05-02T16:32:30Z</time></trkpt><trkpt lat="44.95526075704775" lon="7.790719740414815"><ele>250.66666666666669</ele><time>2026-05-02T16:32:31Z</time></trkpt><trkpt lat="44.95534231910282" lon="7.790546801563882"><ele>250.33333333333331</ele><time>2026-05-02T16:32:32Z</time></trkpt><trkpt lat="44.95543326690514" lon="7.790349039826987"><ele>250.0</ele><time>2026-05-02T16:32:33Z</time></trkpt><trkpt lat="44.955540665219864" lon="7.7901377143037935"><ele>250.0</ele><time>2026-05-02T16:32:34Z</time></trkpt><trkpt lat="44.95566030331781" lon="7.7899236672129"><ele>250.0</ele><time>2026-05-02T16:32:35Z</time></trkpt><trkpt lat="44.955777513339" lon="7.789704643639544"><ele>250.0</ele><time>2026-05-02T16:32:36Z</time></trkpt><trkpt lat="44.95588330364656" lon="7.7894892393963895"><ele>250.33333333333331</ele><time>2026-05-02T16:32:37Z</time></trkpt><trkpt lat="44.955979916555066" lon="7.789294309154249"><ele>250.66666666666669</ele><time>2026-05-02T16:32:38Z</time></trkpt><trkpt lat="44.95607426387517" lon="7.789123026585797"><ele>251.0</ele><time>2026-05-02T16:32:39Z</time></trkpt><trkpt lat="44.956153640076" lon="7.788966993662099"><ele>251.0</ele><time>2026-05-02T16:32:40Z</time></trkpt><trkpt lat="44.956222615209875" lon="7.788827404909245"><ele>251.00000000000003</ele><time>2026-05-02T16:32:41Z</time></trkpt><trkpt lat="44.95628678065903" lon="7.788699568141617"><ele>251.00000000000003</ele><time>2026-05-02T16:32:42Z</time></trkpt><trkpt lat="44.95634977244094" lon="7.788577733092247"><ele>251.0</ele><time>2026-05-02T16:32:43Z</time></trkpt><trkpt lat="44.95640821058518" lon="7.788465681725869"><ele>251.0</ele><time>2026-05-02T16:32:44Z</time></trkpt><trkpt lat="44.95645970817152" lon="7.788369807716352"><ele>251.0</ele><time>2026-05-02T16:32:45Z</time></trkpt><trkpt lat="44.95654590223931" lon="7.788220489732196"><ele>251.0</ele><time>2026-05-02T16:32:47Z</time></trkpt><trkpt lat="44.95661737781658" lon="7.788106521282388"><ele>251.0</ele><time>2026-05-02T16:32:48Z</time></trkpt><trkpt lat="44.95670733679601" lon="7.7879860086959445"><ele>251.0</ele><time>2026-05-02T16:32:49Z</time></trkpt><trkpt lat="44.95678200191631" lon="7.787896490865366"><ele>251.0</ele><time>2026-05-02T16:32:50Z</time></trkpt><trkpt lat="44.95687962383233" lon="7.787790253170575"><ele>251.00000000000003</ele><time>2026-05-02T16:32:52Z</time></trkpt><trkpt lat="44.95695351380012" lon="7.787708106184891"><ele>251.00000000000003</ele><time>2026-05-02T16:32:53Z</time></trkpt><trkpt lat="44.957026294034044" lon="7.7876111277730535"><ele>251.0</ele><time>2026-05-02T16:32:54Z</time></trkpt><trkpt lat="44.957073098760375" lon="7.787476981075145"><ele>251.0</ele><time>2026-05-02T16:32:55Z</time></trkpt><trkpt lat="44.95710343806116" lon="7.78733402645721"><ele>250.75</ele><time>2026-05-02T16:32:56Z</time></trkpt><trkpt lat="44.95713473442859" lon="7.787196614481065"><ele>250.5</ele><time>2026-05-02T16:32:57Z</time></trkpt><trkpt lat="44.95717331666899" lon="7.787054109433458"><ele>250.25</ele><time>2026-05-02T16:32:58Z</time></trkpt><trkpt lat="44.95721988438188" lon="7.786898142859535"><ele>250.0</ele><time>2026-05-02T16:32:59Z</time></trkpt><trkpt lat="44.957274954063955" lon="7.786744572919348"><ele>250.5</ele><time>2026-05-02T16:33:00Z</time></trkpt><trkpt lat="44.95734367751868" lon="7.786588180179376"><ele>251.0</ele><time>2026-05-02T16:33:01Z</time></trkpt><trkpt lat="44.95741956038822" lon="7.78643026689471"><ele>251.5</ele><time>2026-05-02T16:33:02Z</time></trkpt><trkpt lat="44.95749804390088" lon="7.7862676172161365"><ele>252.0</ele><time>2026-05-02T16:33:03Z</time></trkpt><trkpt lat="44.95757563548883" lon="7.7861101056919555"><ele>251.6</ele><time>2026-05-02T16:33:04Z</time></trkpt><trkpt lat="44.957647778524695" lon="7.785968663245626"><ele>251.2</ele><time>2026-05-02T16:33:05Z</time></trkpt><trkpt lat="44.95771281231219" lon="7.7858399158441385"><ele>250.8</ele><time>2026-05-02T16:33:06Z</time></trkpt><trkpt lat="44.957776642717114" lon="7.785719751917797"><ele>250.4</ele><time>2026-05-02T16:33:07Z</time></trkpt><trkpt lat="44.95783981136699" lon="7.785599803834133"><ele>250.0</ele><time>2026-05-02T16:33:08Z</time></trkpt><trkpt lat="44.957903996658835" lon="7.785478613191588"><ele>250.0</ele><time>2026-05-02T16:33:09Z</time></trkpt><trkpt lat="44.957960189757515" lon="7.785368683879022"><ele>250.0</ele><time>2026-05-02T16:33:10Z</time></trkpt><trkpt lat="44.95801918087055" lon="7.78526295550324"><ele>250.0</ele><time>2026-05-02T16:33:11Z</time></trkpt><trkpt lat="44.958091920768105" lon="7.7851523350563845"><ele>250.0</ele><time>2026-05-02T16:33:12Z</time></trkpt><trkpt lat="44.95817524524032" lon="7.785027699591804"><ele>250.0</ele><time>2026-05-02T16:33:13Z</time></trkpt><trkpt lat="44.95826716521831" lon="7.7848818054797375"><ele>248.66666666666666</ele><time>2026-05-02T16:33:14Z</time></trkpt><trkpt lat="44.95836944524878" lon="7.784725395678918"><ele>247.33333333333331</ele><time>2026-05-02T16:33:15Z</time></trkpt><trkpt lat="44.958478336129545" lon="7.784556144704293"><ele>246.0</ele><time>2026-05-02T16:33:16Z</time></trkpt><trkpt lat="44.95860274719999" lon="7.7843731795719044"><ele>245.33333333333331</ele><time>2026-05-02T16:33:17Z</time></trkpt><trkpt lat="44.958739753183124" lon="7.784180137026587"><ele>244.66666666666666</ele><time>2026-05-02T16:33:18Z</time></trkpt><trkpt lat="44.958867257372084" lon="7.783996926979206"><ele>244.0</ele><time>2026-05-02T16:33:19Z</time></trkpt><trkpt lat="44.958987126193044" lon="7.783821428094861"><ele>244.0</ele><time>2026-05-02T16:33:20Z</time></trkpt><trkpt lat="44.95911906979472" lon="7.783630514813137"><ele>244.0</ele><time>2026-05-02T16:33:21Z</time></trkpt><trkpt lat="44.95923928347801" lon="7.783463658330874"><ele>244.0</ele><time>2026-05-02T16:33:22Z</time></trkpt><trkpt lat="44.95936607324261" lon="7.783322156448633"><ele>243.33333333333331</ele><time>2026-05-02T16:33:23Z</time></trkpt><trkpt lat="44.95951425590919" lon="7.783204163741725"><ele>242.66666666666669</ele><time>2026-05-02T16:33:24Z</time></trkpt><trkpt lat="44.95968863297188" lon="7.783145937837657"><ele>242.0</ele><time>2026-05-02T16:33:25Z</time></trkpt><trkpt lat="44.959843830366665" lon="7.783083786787506"><ele>242.0</ele><time>2026-05-02T16:33:26Z</time></trkpt><trkpt lat="44.96002186652497" lon="7.7830715116011016"><ele>242.0</ele><time>2026-05-02T16:33:27Z</time></trkpt><trkpt lat="44.960222234111086" lon="7.783131063420324"><ele>242.0</ele><time>2026-05-02T16:33:28Z</time></trkpt><trkpt lat="44.960400308646506" lon="7.783211660574833"><ele>241.66666666666669</ele><time>2026-05-02T16:33:29Z</time></trkpt><trkpt lat="44.96056239565958" lon="7.7833472187301895"><ele>241.33333333333331</ele><time>2026-05-02T16:33:30Z</time></trkpt><trkpt lat="44.960708124959275" lon="7.783517141469872"><ele>241.0</ele><time>2026-05-02T16:33:31Z</time></trkpt><trkpt lat="44.96082882678544" lon="7.783716806392249"><ele>240.66666666666666</ele><time>2026-05-02T16:33:32Z</time></trkpt><trkpt lat="44.96092236215702" lon="7.7839455703168685"><ele>240.33333333333331</ele><time>2026-05-02T16:33:33Z</time></trkpt><trkpt lat="44.96100011067851" lon="7.784188176305235"><ele>240.0</ele><time>2026-05-02T16:33:34Z</time></trkpt><trkpt lat="44.96101480451209" lon="7.784457977606055"><ele>240.66666666666669</ele><time>2026-05-02T16:33:35Z</time></trkpt><trkpt lat="44.96103641363942" lon="7.7847230259722915"><ele>241.33333333333334</ele><time>2026-05-02T16:33:36Z</time></trkpt><trkpt lat="44.961020036081635" lon="7.784960750594612"><ele>242.0</ele><time>2026-05-02T16:33:37Z</time></trkpt><trkpt lat="44.96098753754431" lon="7.785166197269729"><ele>241.75</ele><time>2026-05-02T16:33:38Z</time></trkpt><trkpt lat="44.960931228637946" lon="7.785338791010084"><ele>241.5</ele><time>2026-05-02T16:33:39Z</time></trkpt><trkpt lat="44.960848251534536" lon="7.785484329796383"><ele>241.25</ele><time>2026-05-02T16:33:40Z</time></trkpt><trkpt lat="44.960744699999005" lon="7.7856052630347214"><ele>241.0</ele><time>2026-05-02T16:33:41Z</time></trkpt><trkpt lat="44.960623504310874" lon="7.785694218423427"><ele>241.0</ele><time>2026-05-02T16:33:42Z</time></trkpt><trkpt lat="44.9604819108374" lon="7.785725824796007"><ele>241.0</ele><time>2026-05-02T16:33:43Z</time></trkpt><trkpt lat="44.9603396178244" lon="7.785709032549279"><ele>241.0</ele><time>2026-05-02T16:33:44Z</time></trkpt><trkpt lat="44.96020398667438" lon="7.785639066496309"><ele>241.0</ele><time>2026-05-02T16:33:45Z</time></trkpt><trkpt lat="44.960083786472836" lon="7.78552269634847"><ele>241.5</ele><time>2026-05-02T16:33:46Z</time></trkpt><trkpt lat="44.95999121818503" lon="7.78537255827766"><ele>242.0</ele><time>2026-05-02T16:33:47Z</time></trkpt><trkpt lat="44.95992361614087" lon="7.785201408086517"><ele>242.5</ele><time>2026-05-02T16:33:48Z</time></trkpt><trkpt lat="44.9598802927222" lon="7.785014129877326"><ele>243.0</ele><time>2026-05-02T16:33:49Z</time></trkpt><trkpt lat="44.95986271166309" lon="7.784807576168808"><ele>243.0</ele><time>2026-05-02T16:33:50Z</time></trkpt><trkpt lat="44.95985559477553" lon="7.784589825602081"><ele>243.0</ele><time>2026-05-02T16:33:51Z</time></trkpt><trkpt lat="44.959849399256065" lon="7.78436805460835"><ele>243.0</ele><time>2026-05-02T16:33:52Z</time></trkpt><trkpt lat="44.95984304979992" lon="7.784165651759487"><ele>243.0</ele><time>2026-05-02T16:33:53Z</time></trkpt><trkpt lat="44.959839384812064" lon="7.783956899218261"><ele>243.0</ele><time>2026-05-02T16:33:54Z</time></trkpt><trkpt lat="44.95983533031334" lon="7.7837405576027585"><ele>243.0</ele><time>2026-05-02T16:33:55Z</time></trkpt><trkpt lat="44.95982416088162" lon="7.783532567261828"><ele>243.0</ele><time>2026-05-02T16:33:56Z</time></trkpt><trkpt lat="44.95981407079958" lon="7.783322645906761"><ele>243.0</ele><time>2026-05-02T16:33:57Z</time></trkpt><trkpt lat="44.95980160429066" lon="7.78309973833532"><ele>243.0</ele><time>2026-05-02T16:33:58Z</time></trkpt><trkpt lat="44.9597877417834" lon="7.782857003702052"><ele>243.0</ele><time>2026-05-02T16:33:59Z</time></trkpt><trkpt lat="44.95977329064788" lon="7.782595388644566"><ele>243.0</ele><time>2026-05-02T16:34:00Z</time></trkpt><trkpt lat="44.959756483774996" lon="7.782310880421088"><ele>243.0</ele><time>2026-05-02T16:34:01Z</time></trkpt><trkpt lat="44.959738268113384" lon="7.78200079983439"><ele>243.0</ele><time>2026-05-02T16:34:02Z</time></trkpt><trkpt lat="44.95972327311091" lon="7.781668133588196"><ele>243.5</ele><time>2026-05-02T16:34:03Z</time></trkpt><trkpt lat="44.9597116023142" lon="7.7813111481651305"><ele>244.0</ele><time>2026-05-02T16:34:04Z</time></trkpt><trkpt lat="44.95969723434622" lon="7.780929092065297"><ele>243.0</ele><time>2026-05-02T16:34:05Z</time></trkpt><trkpt lat="44.959681096409" lon="7.7805205674163185"><ele>242.0</ele><time>2026-05-02T16:34:06Z</time></trkpt><trkpt lat="44.9596671045224" lon="7.780095816690837"><ele>241.5</ele><time>2026-05-02T16:34:07Z</time></trkpt><trkpt lat="44.95964897699717" lon="7.779665464801309"><ele>241.0</ele><time>2026-05-02T16:34:08Z</time></trkpt><trkpt lat="44.959633531306736" lon="7.779226665176776"><ele>241.0</ele><time>2026-05-02T16:34:09Z</time></trkpt><trkpt lat="44.95962596900141" lon="7.778788281682373"><ele>241.0</ele><time>2026-05-02T16:34:10Z</time></trkpt><trkpt lat="44.95962087384073" lon="7.778349104253562"><ele>240.5</ele><time>2026-05-02T16:34:11Z</time></trkpt><trkpt lat="44.9596275437559" lon="7.777916436417459"><ele>240.0</ele><time>2026-05-02T16:34:12Z</time></trkpt><trkpt lat="44.959636429348095" lon="7.77749284006879"><ele>240.0</ele><time>2026-05-02T16:34:13Z</time></trkpt><trkpt lat="44.95964604950262" lon="7.7770678209905135"><ele>240.0</ele><time>2026-05-02T16:34:14Z</time></trkpt><trkpt lat="44.959659420508025" lon="7.776650481698937"><ele>239.5</ele><time>2026-05-02T16:34:15Z</time></trkpt><trkpt lat="44.95967879495963" lon="7.7762219776540675"><ele>239.0</ele><time>2026-05-02T16:34:16Z</time></trkpt><trkpt lat="44.95970300649652" lon="7.7757815039446925"><ele>239.0</ele><time>2026-05-02T16:34:17Z</time></trkpt><trkpt lat="44.95974349005798" lon="7.775342188022962"><ele>239.0</ele><time>2026-05-02T16:34:18Z</time></trkpt><trkpt lat="44.95979623788492" lon="7.774889902776749"><ele>239.0</ele><time>2026-05-02T16:34:19Z</time></trkpt><trkpt lat="44.95985450150557" lon="7.774439236318852"><ele>239.0</ele><time>2026-05-02T16:34:20Z</time></trkpt><trkpt lat="44.95992401787631" lon="7.77398527925519"><ele>239.5</ele><time>2026-05-02T16:34:21Z</time></trkpt><trkpt lat="44.95996010431837" lon="7.773569670727676"><ele>240.0</ele><time>2026-05-02T16:34:22Z</time></trkpt><trkpt lat="44.96002440489297" lon="7.773127362251653"><ele>238.5</ele><time>2026-05-02T16:34:23Z</time></trkpt><trkpt lat="44.96009625205997" lon="7.772687967195615"><ele>237.0</ele><time>2026-05-02T16:34:24Z</time></trkpt><trkpt lat="44.960167395063536" lon="7.7722531303930715"><ele>235.5</ele><time>2026-05-02T16:34:25Z</time></trkpt><trkpt lat="44.960239763353876" lon="7.771822897770517"><ele>234.0</ele><time>2026-05-02T16:34:26Z</time></trkpt><trkpt lat="44.96031315140749" lon="7.771403033212176"><ele>232.5</ele><time>2026-05-02T16:34:27Z</time></trkpt><trkpt lat="44.96037785049101" lon="7.770987367299012"><ele>231.0</ele><time>2026-05-02T16:34:28Z</time></trkpt><trkpt lat="44.960442715236816" lon="7.770573293952524"><ele>231.5</ele><time>2026-05-02T16:34:29Z</time></trkpt><trkpt lat="44.960509996384936" lon="7.770157592264364"><ele>232.0</ele><time>2026-05-02T16:34:30Z</time></trkpt><trkpt lat="44.96058206714263" lon="7.769742372580752"><ele>232.0</ele><time>2026-05-02T16:34:31Z</time></trkpt><trkpt lat="44.96065251084014" lon="7.769324296434408"><ele>232.0</ele><time>2026-05-02T16:34:32Z</time></trkpt><trkpt lat="44.960724704003525" lon="7.7689177587616145"><ele>232.0</ele><time>2026-05-02T16:34:33Z</time></trkpt><trkpt lat="44.960784389676334" lon="7.768531081392054"><ele>232.0</ele><time>2026-05-02T16:34:34Z</time></trkpt><trkpt lat="44.9608503181036" lon="7.768141167384249"><ele>232.5</ele><time>2026-05-02T16:34:35Z</time></trkpt><trkpt lat="44.96091728798334" lon="7.7677490865604835"><ele>233.0</ele><time>2026-05-02T16:34:36Z</time></trkpt><trkpt lat="44.960980853890106" lon="7.767356486974015"><ele>234.5</ele><time>2026-05-02T16:34:37Z</time></trkpt><trkpt lat="44.961045505397806" lon="7.7669562603556015"><ele>236.0</ele><time>2026-05-02T16:34:38Z</time></trkpt><trkpt lat="44.961113591800896" lon="7.766555465222076"><ele>235.0</ele><time>2026-05-02T16:34:39Z</time></trkpt><trkpt lat="44.9611845859132" lon="7.766149155789634"><ele>234.0</ele><time>2026-05-02T16:34:40Z</time></trkpt><trkpt lat="44.961263237560786" lon="7.765742131751929"><ele>234.0</ele><time>2026-05-02T16:34:41Z</time></trkpt><trkpt lat="44.96134396048118" lon="7.765340884375842"><ele>234.0</ele><time>2026-05-02T16:34:42Z</time></trkpt><trkpt lat="44.961418914304566" lon="7.764923344735233"><ele>233.5</ele><time>2026-05-02T16:34:43Z</time></trkpt><trkpt lat="44.96149107575592" lon="7.764504674031205"><ele>233.0</ele><time>2026-05-02T16:34:44Z</time></trkpt><trkpt lat="44.96156290435012" lon="7.764074217959395"><ele>232.5</ele><time>2026-05-02T16:34:45Z</time></trkpt><trkpt lat="44.961635928689724" lon="7.763637793350458"><ele>232.0</ele><time>2026-05-02T16:34:46Z</time></trkpt><trkpt lat="44.96170635333584" lon="7.76319684208236"><ele>233.5</ele><time>2026-05-02T16:34:47Z</time></trkpt><trkpt lat="44.961778542930766" lon="7.762754315224582"><ele>235.0</ele><time>2026-05-02T16:34:48Z</time></trkpt><trkpt lat="44.961851597948936" lon="7.7623119441977755"><ele>235.0</ele><time>2026-05-02T16:34:49Z</time></trkpt><trkpt lat="44.96192697871912" lon="7.761866881889382"><ele>235.0</ele><time>2026-05-02T16:34:50Z</time></trkpt><trkpt lat="44.96200370384559" lon="7.7614227432456895"><ele>232.5</ele><time>2026-05-02T16:34:51Z</time></trkpt><trkpt lat="44.9620807044191" lon="7.760978544873376"><ele>230.0</ele><time>2026-05-02T16:34:52Z</time></trkpt><trkpt lat="44.962155585953774" lon="7.760531144543149"><ele>230.5</ele><time>2026-05-02T16:34:53Z</time></trkpt><trkpt lat="44.96222868188221" lon="7.760086598857919"><ele>231.0</ele><time>2026-05-02T16:34:54Z</time></trkpt><trkpt lat="44.962302059225344" lon="7.759644604661167"><ele>230.0</ele><time>2026-05-02T16:34:55Z</time></trkpt><trkpt lat="44.9623748712674" lon="7.759205104654078"><ele>229.0</ele><time>2026-05-02T16:34:56Z</time></trkpt><trkpt lat="44.96244555978632" lon="7.758766279864039"><ele>230.0</ele><time>2026-05-02T16:34:57Z</time></trkpt><trkpt lat="44.96251867798694" lon="7.758326378943155"><ele>231.0</ele><time>2026-05-02T16:34:58Z</time></trkpt><trkpt lat="44.96259129698365" lon="7.757886102364472"><ele>232.0</ele><time>2026-05-02T16:34:59Z</time></trkpt><trkpt lat="44.96266587039278" lon="7.75744262269298"><ele>233.0</ele><time>2026-05-02T16:35:00Z</time></trkpt><trkpt lat="44.9627404636018" lon="7.75699651394806"><ele>234.5</ele><time>2026-05-02T16:35:01Z</time></trkpt><trkpt lat="44.962812032305166" lon="7.756550470476562"><ele>236.0</ele><time>2026-05-02T16:35:02Z</time></trkpt><trkpt lat="44.96288257502617" lon="7.75609777431425"><ele>233.5</ele><time>2026-05-02T16:35:03Z</time></trkpt><trkpt lat="44.96295387129954" lon="7.7556468625305675"><ele>231.0</ele><time>2026-05-02T16:35:04Z</time></trkpt><trkpt lat="44.9630236409687" lon="7.755193706632371"><ele>230.5</ele><time>2026-05-02T16:35:05Z</time></trkpt><trkpt lat="44.963093181675404" lon="7.754744949693487"><ele>230.0</ele><time>2026-05-02T16:35:06Z</time></trkpt><trkpt lat="44.963166082993716" lon="7.754297683276297"><ele>229.0</ele><time>2026-05-02T16:35:07Z</time></trkpt><trkpt lat="44.96323946367053" lon="7.753852407242606"><ele>228.0</ele><time>2026-05-02T16:35:08Z</time></trkpt><trkpt lat="44.963317851721335" lon="7.753407802328871"><ele>226.5</ele><time>2026-05-02T16:35:09Z</time></trkpt><trkpt lat="44.96339792633061" lon="7.752965951012159"><ele>225.0</ele><time>2026-05-02T16:35:10Z</time></trkpt><trkpt lat="44.963478236465924" lon="7.752522508232083"><ele>225.0</ele><time>2026-05-02T16:35:11Z</time></trkpt><trkpt lat="44.963552815231715" lon="7.752094074239479"><ele>225.0</ele><time>2026-05-02T16:35:12Z</time></trkpt><trkpt lat="44.96362599978206" lon="7.75167755098574"><ele>226.5</ele><time>2026-05-02T16:35:13Z</time></trkpt><trkpt lat="44.96369712300698" lon="7.7512529217672"><ele>228.0</ele><time>2026-05-02T16:35:14Z</time></trkpt><trkpt lat="44.96376847110349" lon="7.750826421009433"><ele>228.5</ele><time>2026-05-02T16:35:15Z</time></trkpt><trkpt lat="44.96384185775808" lon="7.750392061565307"><ele>229.0</ele><time>2026-05-02T16:35:16Z</time></trkpt><trkpt lat="44.96391566607371" lon="7.749953866244007"><ele>229.0</ele><time>2026-05-02T16:35:17Z</time></trkpt><trkpt lat="44.963987645569524" lon="7.749511621464536"><ele>229.0</ele><time>2026-05-02T16:35:18Z</time></trkpt><trkpt lat="44.96405747553203" lon="7.74906927455357"><ele>229.0</ele><time>2026-05-02T16:35:19Z</time></trkpt><trkpt lat="44.964128296120414" lon="7.748634575184538"><ele>229.0</ele><time>2026-05-02T16:35:20Z</time></trkpt><trkpt lat="44.96420462620799" lon="7.748204107507707"><ele>228.5</ele><time>2026-05-02T16:35:21Z</time></trkpt><trkpt lat="44.964276789986634" lon="7.74777325273589"><ele>228.0</ele><time>2026-05-02T16:35:22Z</time></trkpt><trkpt lat="44.964348127025104" lon="7.747339788438849"><ele>228.0</ele><time>2026-05-02T16:35:23Z</time></trkpt><trkpt lat="44.964420229806365" lon="7.746910213466009"><ele>228.0</ele><time>2026-05-02T16:35:24Z</time></trkpt><trkpt lat="44.96449153498" lon="7.746484139276842"><ele>229.0</ele><time>2026-05-02T16:35:25Z</time></trkpt><trkpt lat="44.96456066774316" lon="7.746063790590473"><ele>230.0</ele><time>2026-05-02T16:35:26Z</time></trkpt><trkpt lat="44.9646290182849" lon="7.745653493147926"><ele>230.5</ele><time>2026-05-02T16:35:27Z</time></trkpt><trkpt lat="44.96469503725595" lon="7.745259690605983"><ele>231.0</ele><time>2026-05-02T16:35:28Z</time></trkpt><trkpt lat="44.96476061498402" lon="7.744862657180977"><ele>231.0</ele><time>2026-05-02T16:35:29Z</time></trkpt><trkpt lat="44.96482611099907" lon="7.744461507033623"><ele>231.0</ele><time>2026-05-02T16:35:30Z</time></trkpt><trkpt lat="44.96489376568272" lon="7.744059125077603"><ele>230.0</ele><time>2026-05-02T16:35:31Z</time></trkpt><trkpt lat="44.964963614092134" lon="7.743656326477697"><ele>229.0</ele><time>2026-05-02T16:35:32Z</time></trkpt><trkpt lat="44.965032193293965" lon="7.743252932625199"><ele>229.0</ele><time>2026-05-02T16:35:33Z</time></trkpt><trkpt lat="44.96509676707884" lon="7.742845345926212"><ele>229.0</ele><time>2026-05-02T16:35:34Z</time></trkpt><trkpt lat="44.96516163794932" lon="7.742437057083698"><ele>228.0</ele><time>2026-05-02T16:35:35Z</time></trkpt><trkpt lat="44.965228524790085" lon="7.742035695902491"><ele>227.0</ele><time>2026-05-02T16:35:36Z</time></trkpt><trkpt lat="44.96529452052395" lon="7.7416558072525765"><ele>227.0</ele><time>2026-05-02T16:35:37Z</time></trkpt><trkpt lat="44.965353826241916" lon="7.741291600006418"><ele>227.0</ele><time>2026-05-02T16:35:38Z</time></trkpt><trkpt lat="44.96541182792069" lon="7.740941276903237"><ele>227.0</ele><time>2026-05-02T16:35:39Z</time></trkpt><trkpt lat="44.96546952710483" lon="7.740601017152521"><ele>227.0</ele><time>2026-05-02T16:35:40Z</time></trkpt><trkpt lat="44.96552764453312" lon="7.740273286887705"><ele>227.33333333333334</ele><time>2026-05-02T16:35:41Z</time></trkpt><trkpt lat="44.965584370199565" lon="7.739958250770971"><ele>227.66666666666669</ele><time>2026-05-02T16:35:42Z</time></trkpt><trkpt lat="44.96564483233483" lon="7.739661453427427"><ele>228.0</ele><time>2026-05-02T16:35:43Z</time></trkpt><trkpt lat="44.965709120547395" lon="7.739382464446131"><ele>228.0</ele><time>2026-05-02T16:35:44Z</time></trkpt><trkpt lat="44.965769998283164" lon="7.739119561148735"><ele>228.0</ele><time>2026-05-02T16:35:45Z</time></trkpt><trkpt lat="44.965816935789036" lon="7.738870778644482"><ele>228.0</ele><time>2026-05-02T16:35:46Z</time></trkpt><trkpt lat="44.965866592673315" lon="7.738644336401014"><ele>227.75</ele><time>2026-05-02T16:35:47Z</time></trkpt><trkpt lat="44.965890234318145" lon="7.738424988495468"><ele>227.5</ele><time>2026-05-02T16:35:48Z</time></trkpt><trkpt lat="44.96592379470721" lon="7.7382187533716165"><ele>227.25</ele><time>2026-05-02T16:35:49Z</time></trkpt><trkpt lat="44.965955913109745" lon="7.738026451007452"><ele>227.0</ele><time>2026-05-02T16:35:50Z</time></trkpt><trkpt lat="44.96598398270242" lon="7.737854862147481"><ele>227.6</ele><time>2026-05-02T16:35:51Z</time></trkpt><trkpt lat="44.96600990183721" lon="7.737694271917126"><ele>228.2</ele><time>2026-05-02T16:35:52Z</time></trkpt><trkpt lat="44.96603412984904" lon="7.737545294564302"><ele>228.8</ele><time>2026-05-02T16:35:53Z</time></trkpt><trkpt lat="44.96605608524255" lon="7.737410291478828"><ele>229.4</ele><time>2026-05-02T16:35:54Z</time></trkpt><trkpt lat="44.96607522693114" lon="7.737292589797315"><ele>230.0</ele><time>2026-05-02T16:35:55Z</time></trkpt><trkpt lat="44.966091145469974" lon="7.737194707163424"><ele>230.0</ele><time>2026-05-02T16:35:56Z</time></trkpt><trkpt lat="44.966110433347794" lon="7.737076106542586"><ele>230.0</ele><time>2026-05-02T16:35:58Z</time></trkpt><trkpt lat="44.96612575975266" lon="7.736981865251021"><ele>230.0</ele><time>2026-05-02T16:36:59Z</time></trkpt><trkpt lat="44.96615665075141" lon="7.736791661941073"><ele>230.0</ele><time>2026-05-02T16:37:03Z</time></trkpt><trkpt lat="44.96619596370698" lon="7.736549567404174"><ele>229.5</ele><time>2026-05-02T16:37:04Z</time></trkpt><trkpt lat="44.96622755129916" lon="7.736355046699687"><ele>229.0</ele><time>2026-05-02T16:37:05Z</time></trkpt><trkpt lat="44.96625866390884" lon="7.736163451006453"><ele>228.5</ele><time>2026-05-02T16:37:06Z</time></trkpt><trkpt lat="44.96629689927707" lon="7.735932473957706"><ele>228.0</ele><time>2026-05-02T16:37:07Z</time></trkpt><trkpt lat="44.96632863559515" lon="7.735734716367166"><ele>228.0</ele><time>2026-05-02T16:37:08Z</time></trkpt><trkpt lat="44.96635457255946" lon="7.735573112362401"><ele>228.0</ele><time>2026-05-02T16:37:09Z</time></trkpt><trkpt lat="44.96637926256404" lon="7.735419277722996"><ele>228.0</ele><time>2026-05-02T16:37:10Z</time></trkpt><trkpt lat="44.96639412171382" lon="7.735326695654961"><ele>228.0</ele><time>2026-05-02T16:37:11Z</time></trkpt><trkpt lat="44.96640813943834" lon="7.735239356193253"><ele>228.0</ele><time>2026-05-02T16:37:13Z</time></trkpt><trkpt lat="44.96642896720813" lon="7.735109585850145"><ele>227.8</ele><time>2026-05-02T16:37:27Z</time></trkpt><trkpt lat="44.966449299171856" lon="7.734982904601556"><ele>227.60000000000002</ele><time>2026-05-02T16:37:28Z</time></trkpt><trkpt lat="44.966469989030415" lon="7.734853993456424"><ele>227.39999999999998</ele><time>2026-05-02T16:37:29Z</time></trkpt><trkpt lat="44.96649521371943" lon="7.734696827361734"><ele>227.2</ele><time>2026-05-02T16:37:30Z</time></trkpt><trkpt lat="44.96652419880247" lon="7.734516564291251"><ele>227.0</ele><time>2026-05-02T16:37:31Z</time></trkpt><trkpt lat="44.96653516407097" lon="7.734295005360502"><ele>227.0</ele><time>2026-05-02T16:37:32Z</time></trkpt><trkpt lat="44.9665652741315" lon="7.7340416241349"><ele>227.0</ele><time>2026-05-02T16:37:33Z</time></trkpt><trkpt lat="44.966611444668914" lon="7.733753475411312"><ele>227.0</ele><time>2026-05-02T16:37:34Z</time></trkpt><trkpt lat="44.96666102468212" lon="7.73343715695797"><ele>227.0</ele><time>2026-05-02T16:37:35Z</time></trkpt><trkpt lat="44.966711674148286" lon="7.733089661851272"><ele>227.0</ele><time>2026-05-02T16:37:36Z</time></trkpt><trkpt lat="44.96676364149985" lon="7.732720582053241"><ele>226.0</ele><time>2026-05-02T16:37:37Z</time></trkpt><trkpt lat="44.96682328351859" lon="7.732327081653135"><ele>225.0</ele><time>2026-05-02T16:37:38Z</time></trkpt><trkpt lat="44.96688581570778" lon="7.731915870208835"><ele>225.0</ele><time>2026-05-02T16:37:39Z</time></trkpt><trkpt lat="44.96695204696797" lon="7.731484327541007"><ele>225.0</ele><time>2026-05-02T16:37:40Z</time></trkpt><trkpt lat="44.967020107257206" lon="7.731037834942571"><ele>226.0</ele><time>2026-05-02T16:37:41Z</time></trkpt><trkpt lat="44.967089174490106" lon="7.730577304772404"><ele>227.0</ele><time>2026-05-02T16:37:42Z</time></trkpt><trkpt lat="44.967158121472835" lon="7.730108633227625"><ele>227.0</ele><time>2026-05-02T16:37:43Z</time></trkpt><trkpt lat="44.96721823157442" lon="7.729638959956596"><ele>227.0</ele><time>2026-05-02T16:37:44Z</time></trkpt><trkpt lat="44.96727555143775" lon="7.729169880697474"><ele>228.5</ele><time>2026-05-02T16:37:45Z</time></trkpt><trkpt lat="44.96733573943149" lon="7.728696045652848"><ele>230.0</ele><time>2026-05-02T16:37:46Z</time></trkpt><trkpt lat="44.967402191540415" lon="7.7282127898588255"><ele>227.5</ele><time>2026-05-02T16:37:47Z</time></trkpt><trkpt lat="44.9674743571988" lon="7.727725134805767"><ele>225.0</ele><time>2026-05-02T16:37:48Z</time></trkpt><trkpt lat="44.967548153170384" lon="7.727229951950447"><ele>223.5</ele><time>2026-05-02T16:37:49Z</time></trkpt><trkpt lat="44.96762341854626" lon="7.726727870659732"><ele>222.0</ele><time>2026-05-02T16:37:50Z</time></trkpt><trkpt lat="44.96769439974192" lon="7.726219747686163"><ele>224.0</ele><time>2026-05-02T16:37:51Z</time></trkpt><trkpt lat="44.967775378841765" lon="7.7257121007969705"><ele>226.0</ele><time>2026-05-02T16:37:52Z</time></trkpt><trkpt lat="44.967850706218755" lon="7.725203292445072"><ele>226.0</ele><time>2026-05-02T16:37:53Z</time></trkpt><trkpt lat="44.96791743502302" lon="7.724688802871758"><ele>226.0</ele><time>2026-05-02T16:37:54Z</time></trkpt><trkpt lat="44.96798043234626" lon="7.724168090904566"><ele>225.5</ele><time>2026-05-02T16:37:55Z</time></trkpt><trkpt lat="44.96805146345562" lon="7.723656916064918"><ele>225.0</ele><time>2026-05-02T16:37:56Z</time></trkpt><trkpt lat="44.96812858142472" lon="7.723154914165325"><ele>225.0</ele><time>2026-05-02T16:37:57Z</time></trkpt><trkpt lat="44.968201866647604" lon="7.7226526418874135"><ele>225.0</ele><time>2026-05-02T16:37:58Z</time></trkpt><trkpt lat="44.96827639906226" lon="7.722158315859669"><ele>225.0</ele><time>2026-05-02T16:37:59Z</time></trkpt><trkpt lat="44.96834892113332" lon="7.721666222140555"><ele>225.0</ele><time>2026-05-02T16:38:00Z</time></trkpt><trkpt lat="44.968421938212884" lon="7.721179798569165"><ele>225.5</ele><time>2026-05-02T16:38:01Z</time></trkpt><trkpt lat="44.96849672341948" lon="7.720689628577777"><ele>226.0</ele><time>2026-05-02T16:38:02Z</time></trkpt><trkpt lat="44.96857637668845" lon="7.720194138088015"><ele>226.0</ele><time>2026-05-02T16:38:03Z</time></trkpt><trkpt lat="44.96865590177118" lon="7.719694071104891"><ele>226.0</ele><time>2026-05-02T16:38:04Z</time></trkpt><trkpt lat="44.968738835468585" lon="7.719191514849152"><ele>226.0</ele><time>2026-05-02T16:38:05Z</time></trkpt><trkpt lat="44.9688249991874" lon="7.718692626679045"><ele>226.0</ele><time>2026-05-02T16:38:06Z</time></trkpt><trkpt lat="44.968904299708456" lon="7.718187200807255"><ele>225.0</ele><time>2026-05-02T16:38:07Z</time></trkpt><trkpt lat="44.968978241996275" lon="7.7176850806281365"><ele>224.0</ele><time>2026-05-02T16:38:08Z</time></trkpt><trkpt lat="44.96905312871334" lon="7.7171823972889575"><ele>224.0</ele><time>2026-05-02T16:38:09Z</time></trkpt><trkpt lat="44.969128357258946" lon="7.716672705462396"><ele>224.0</ele><time>2026-05-02T16:38:10Z</time></trkpt><trkpt lat="44.96920263328585" lon="7.7161558993539945"><ele>224.0</ele><time>2026-05-02T16:38:11Z</time></trkpt><trkpt lat="44.9692778420298" lon="7.715640856258716"><ele>224.0</ele><time>2026-05-02T16:38:12.001Z</time></trkpt><trkpt lat="44.96935518270363" lon="7.715126518519568"><ele>225.0</ele><time>2026-05-02T16:38:13.001Z</time></trkpt><trkpt lat="44.969434852360635" lon="7.714614573762725"><ele>226.0</ele><time>2026-05-02T16:38:14.001Z</time></trkpt><trkpt lat="44.96951226501536" lon="7.714097910965237"><ele>226.0</ele><time>2026-05-02T16:38:15.001Z</time></trkpt><trkpt lat="44.96958944122717" lon="7.7135818046609685"><ele>226.0</ele><time>2026-05-02T16:38:16.001Z</time></trkpt><trkpt lat="44.969667368853244" lon="7.713065358541671"><ele>225.0</ele><time>2026-05-02T16:38:17.001Z</time></trkpt><trkpt lat="44.969744861165175" lon="7.712548143920846"><ele>224.0</ele><time>2026-05-02T16:38:18.001Z</time></trkpt><trkpt lat="44.96982439110324" lon="7.712030297484976"><ele>224.5</ele><time>2026-05-02T16:38:19.001Z</time></trkpt><trkpt lat="44.96990096329906" lon="7.711512201614421"><ele>225.0</ele><time>2026-05-02T16:38:20.001Z</time></trkpt><trkpt lat="44.96997803713905" lon="7.7109941296867595"><ele>225.5</ele><time>2026-05-02T16:38:21.001Z</time></trkpt><trkpt lat="44.97005470798232" lon="7.710475949071368"><ele>226.0</ele><time>2026-05-02T16:38:22.001Z</time></trkpt><trkpt lat="44.97013158051771" lon="7.7099571060666126"><ele>225.0</ele><time>2026-05-02T16:38:23.001Z</time></trkpt><trkpt lat="44.970209358113415" lon="7.709437845521493"><ele>224.0</ele><time>2026-05-02T16:38:24.001Z</time></trkpt><trkpt lat="44.97028741938001" lon="7.708921908702011"><ele>225.0</ele><time>2026-05-02T16:38:25.001Z</time></trkpt><trkpt lat="44.970363903383024" lon="7.708404974095706"><ele>226.0</ele><time>2026-05-02T16:38:26.001Z</time></trkpt><trkpt lat="44.97044277662031" lon="7.707896401053765"><ele>225.5</ele><time>2026-05-02T16:38:27.001Z</time></trkpt><trkpt lat="44.97052180470202" lon="7.7073909313238484"><ele>225.0</ele><time>2026-05-02T16:38:28.001Z</time></trkpt><trkpt lat="44.97059714508523" lon="7.706879656622121"><ele>224.0</ele><time>2026-05-02T16:38:29.001Z</time></trkpt><trkpt lat="44.97067117778936" lon="7.706375839113083"><ele>223.0</ele><time>2026-05-02T16:38:30.001Z</time></trkpt><trkpt lat="44.9707443827911" lon="7.705868941879513"><ele>223.0</ele><time>2026-05-02T16:38:31.001Z</time></trkpt><trkpt lat="44.970818229169105" lon="7.705357314291875"><ele>223.0</ele><time>2026-05-02T16:38:32.001Z</time></trkpt><trkpt lat="44.97089022321291" lon="7.70484760232999"><ele>222.5</ele><time>2026-05-02T16:38:33.001Z</time></trkpt><trkpt lat="44.97095581022998" lon="7.704332413612657"><ele>222.0</ele><time>2026-05-02T16:38:34.001Z</time></trkpt><trkpt lat="44.971015922441346" lon="7.7038106610024615"><ele>222.5</ele><time>2026-05-02T16:38:35.001Z</time></trkpt><trkpt lat="44.97106819147725" lon="7.703292534719091"><ele>223.0</ele><time>2026-05-02T16:38:36.001Z</time></trkpt><trkpt lat="44.97111604395566" lon="7.702776699707124"><ele>223.5</ele><time>2026-05-02T16:38:37.001Z</time></trkpt><trkpt lat="44.97115828501692" lon="7.702253225538901"><ele>224.0</ele><time>2026-05-02T16:38:38Z</time></trkpt><trkpt lat="44.9711974802072" lon="7.701736913064933"><ele>224.0</ele><time>2026-05-02T16:38:39Z</time></trkpt><trkpt lat="44.97121916082628" lon="7.701197219778865"><ele>224.0</ele><time>2026-05-02T16:38:40Z</time></trkpt><trkpt lat="44.97124311629138" lon="7.700672621337205"><ele>222.5</ele><time>2026-05-02T16:38:41Z</time></trkpt><trkpt lat="44.9712508181155" lon="7.700140292498824"><ele>221.0</ele><time>2026-05-02T16:38:42Z</time></trkpt><trkpt lat="44.97124683083484" lon="7.699609052325982"><ele>222.0</ele><time>2026-05-02T16:38:43Z</time></trkpt><trkpt lat="44.971240303473756" lon="7.6990789905097445"><ele>223.0</ele><time>2026-05-02T16:38:44Z</time></trkpt><trkpt lat="44.97123437699125" lon="7.69855714251708"><ele>223.0</ele><time>2026-05-02T16:38:45Z</time></trkpt><trkpt lat="44.97122575296226" lon="7.698037854674904"><ele>223.0</ele><time>2026-05-02T16:38:46Z</time></trkpt><trkpt lat="44.9712109538139" lon="7.69751250580261"><ele>223.5</ele><time>2026-05-02T16:38:47Z</time></trkpt><trkpt lat="44.9711958505485" lon="7.696986069923628"><ele>224.0</ele><time>2026-05-02T16:38:48Z</time></trkpt><trkpt lat="44.971179483941846" lon="7.696457203386983"><ele>221.5</ele><time>2026-05-02T16:38:49Z</time></trkpt><trkpt lat="44.97115233864651" lon="7.695936181853091"><ele>219.0</ele><time>2026-05-02T16:38:50Z</time></trkpt><trkpt lat="44.97111151990391" lon="7.695418627269404"><ele>220.0</ele><time>2026-05-02T16:38:51Z</time></trkpt><trkpt lat="44.97106016878668" lon="7.694908263930802"><ele>221.0</ele><time>2026-05-02T16:38:52Z</time></trkpt><trkpt lat="44.97100559046485" lon="7.694401914559023"><ele>221.0</ele><time>2026-05-02T16:38:53Z</time></trkpt><trkpt lat="44.970949546051436" lon="7.693891656435681"><ele>221.0</ele><time>2026-05-02T16:38:54Z</time></trkpt><trkpt lat="44.97089522503239" lon="7.693375930879047"><ele>220.0</ele><time>2026-05-02T16:38:55Z</time></trkpt><trkpt lat="44.970845158765925" lon="7.692858155756641"><ele>219.0</ele><time>2026-05-02T16:38:56Z</time></trkpt><trkpt lat="44.970798662798096" lon="7.692342492928022"><ele>222.0</ele><time>2026-05-02T16:38:57Z</time></trkpt><trkpt lat="44.970753275480085" lon="7.691831213272207"><ele>225.0</ele><time>2026-05-02T16:38:58Z</time></trkpt><trkpt lat="44.97070554447154" lon="7.691322857467024"><ele>224.5</ele><time>2026-05-02T16:38:59Z</time></trkpt><trkpt lat="44.97065921837482" lon="7.6908207549919805"><ele>224.0</ele><time>2026-05-02T16:39:00Z</time></trkpt><trkpt lat="44.97061456953716" lon="7.690321862227803"><ele>223.5</ele><time>2026-05-02T16:39:01Z</time></trkpt><trkpt lat="44.97057254630277" lon="7.689829030865077"><ele>223.0</ele><time>2026-05-02T16:39:02Z</time></trkpt><trkpt lat="44.970529199368016" lon="7.689348820986084"><ele>223.0</ele><time>2026-05-02T16:39:03Z</time></trkpt><trkpt lat="44.970484133234386" lon="7.6888567634910885"><ele>223.0</ele><time>2026-05-02T16:39:04Z</time></trkpt><trkpt lat="44.970435776183955" lon="7.688359356462874"><ele>223.0</ele><time>2026-05-02T16:39:05Z</time></trkpt><trkpt lat="44.970389899450254" lon="7.68785917336563"><ele>223.0</ele><time>2026-05-02T16:39:06Z</time></trkpt><trkpt lat="44.970344540568064" lon="7.687355186448055"><ele>222.5</ele><time>2026-05-02T16:39:07Z</time></trkpt><trkpt lat="44.97030358051143" lon="7.686849608405787"><ele>222.0</ele><time>2026-05-02T16:39:08Z</time></trkpt><trkpt lat="44.97025883598096" lon="7.686341619458576"><ele>222.5</ele><time>2026-05-02T16:39:09Z</time></trkpt><trkpt lat="44.97021298223315" lon="7.6858358992372"><ele>223.0</ele><time>2026-05-02T16:39:10Z</time></trkpt><trkpt lat="44.97016880961225" lon="7.68532855945186"><ele>223.0</ele><time>2026-05-02T16:39:11Z</time></trkpt><trkpt lat="44.9701258577894" lon="7.684823368769805"><ele>223.0</ele><time>2026-05-02T16:39:12Z</time></trkpt><trkpt lat="44.97008318374311" lon="7.684315530877707"><ele>223.0</ele><time>2026-05-02T16:39:13Z</time></trkpt><trkpt lat="44.97004095830998" lon="7.683813834669646"><ele>223.0</ele><time>2026-05-02T16:39:14Z</time></trkpt><trkpt lat="44.970002801059536" lon="7.683312162287379"><ele>222.5</ele><time>2026-05-02T16:39:15Z</time></trkpt><trkpt lat="44.969974844478415" lon="7.6828108685199705"><ele>222.0</ele><time>2026-05-02T16:39:16Z</time></trkpt><trkpt lat="44.96995691015275" lon="7.6823046242938275"><ele>221.0</ele><time>2026-05-02T16:39:17Z</time></trkpt><trkpt lat="44.969944062641716" lon="7.6818010858574635"><ele>220.0</ele><time>2026-05-02T16:39:18Z</time></trkpt><trkpt lat="44.969941569536616" lon="7.681294771461106"><ele>220.5</ele><time>2026-05-02T16:39:19Z</time></trkpt><trkpt lat="44.96994728359257" lon="7.680787697310112"><ele>221.0</ele><time>2026-05-02T16:39:20Z</time></trkpt><trkpt lat="44.96996404307284" lon="7.680287027930787"><ele>221.0</ele><time>2026-05-02T16:39:21Z</time></trkpt><trkpt lat="44.969994466276816" lon="7.679782717297487"><ele>221.0</ele><time>2026-05-02T16:39:22Z</time></trkpt><trkpt lat="44.9700361321741" lon="7.679278106422994"><ele>221.0</ele><time>2026-05-02T16:39:23Z</time></trkpt><trkpt lat="44.97008732451264" lon="7.678776267565527"><ele>221.0</ele><time>2026-05-02T16:39:24Z</time></trkpt><trkpt lat="44.97014838655819" lon="7.678276043929798"><ele>221.0</ele><time>2026-05-02T16:39:25Z</time></trkpt><trkpt lat="44.970217698621916" lon="7.677778178874888"><ele>221.0</ele><time>2026-05-02T16:39:26Z</time></trkpt><trkpt lat="44.97029979661627" lon="7.677285385097824"><ele>221.5</ele><time>2026-05-02T16:39:27Z</time></trkpt><trkpt lat="44.97039429723264" lon="7.676800270291966"><ele>222.0</ele><time>2026-05-02T16:39:28Z</time></trkpt><trkpt lat="44.970498350718756" lon="7.676319515161479"><ele>222.0</ele><time>2026-05-02T16:39:29Z</time></trkpt><trkpt lat="44.97060877192535" lon="7.675840092107467"><ele>222.0</ele><time>2026-05-02T16:39:30Z</time></trkpt><trkpt lat="44.970722783789405" lon="7.675359783835067"><ele>222.0</ele><time>2026-05-02T16:39:31Z</time></trkpt><trkpt lat="44.970839808534876" lon="7.67487827172562"><ele>222.0</ele><time>2026-05-02T16:39:32Z</time></trkpt><trkpt lat="44.970957140727634" lon="7.674397746018724"><ele>222.0</ele><time>2026-05-02T16:39:33Z</time></trkpt><trkpt lat="44.971069281909706" lon="7.67391589865737"><ele>222.0</ele><time>2026-05-02T16:39:34Z</time></trkpt><trkpt lat="44.971181387904124" lon="7.6734366079154706"><ele>222.0</ele><time>2026-05-02T16:39:35Z</time></trkpt><trkpt lat="44.97129591579605" lon="7.672953704020329"><ele>222.0</ele><time>2026-05-02T16:39:36Z</time></trkpt><trkpt lat="44.97141246389764" lon="7.672475515587582"><ele>222.0</ele><time>2026-05-02T16:39:37Z</time></trkpt><trkpt lat="44.971525991152234" lon="7.671995344440135"><ele>222.0</ele><time>2026-05-02T16:39:38Z</time></trkpt><trkpt lat="44.971637003328176" lon="7.671513818732295"><ele>222.5</ele><time>2026-05-02T16:39:39Z</time></trkpt><trkpt lat="44.9717503589749" lon="7.671033209426897"><ele>223.0</ele><time>2026-05-02T16:39:40Z</time></trkpt><trkpt lat="44.97186589514541" lon="7.670551485975082"><ele>223.5</ele><time>2026-05-02T16:39:41Z</time></trkpt><trkpt lat="44.97198166984332" lon="7.670069599794942"><ele>224.0</ele><time>2026-05-02T16:39:42Z</time></trkpt><trkpt lat="44.97209215840522" lon="7.669584317741364"><ele>224.5</ele><time>2026-05-02T16:39:43Z</time></trkpt><trkpt lat="44.97220097138039" lon="7.669103027139048"><ele>225.0</ele><time>2026-05-02T16:39:44Z</time></trkpt><trkpt lat="44.972314516597" lon="7.668616889981068"><ele>224.5</ele><time>2026-05-02T16:39:45Z</time></trkpt><trkpt lat="44.97242410233964" lon="7.668135541389733"><ele>224.0</ele><time>2026-05-02T16:39:46Z</time></trkpt><trkpt lat="44.972525507771905" lon="7.667651270215585"><ele>223.5</ele><time>2026-05-02T16:39:47Z</time></trkpt><trkpt lat="44.97263099105027" lon="7.667166899326321"><ele>223.0</ele><time>2026-05-02T16:39:48Z</time></trkpt><trkpt lat="44.97273971370208" lon="7.666687287137879"><ele>222.5</ele><time>2026-05-02T16:39:49Z</time></trkpt><trkpt lat="44.972855690663565" lon="7.666208378370984"><ele>222.0</ele><time>2026-05-02T16:39:50Z</time></trkpt><trkpt lat="44.97297095948946" lon="7.665733493028728"><ele>222.5</ele><time>2026-05-02T16:39:51Z</time></trkpt><trkpt lat="44.97308315014412" lon="7.665252297278367"><ele>223.0</ele><time>2026-05-02T16:39:52Z</time></trkpt><trkpt lat="44.973194672656795" lon="7.664772537292879"><ele>223.5</ele><time>2026-05-02T16:39:53Z</time></trkpt><trkpt lat="44.97330714520639" lon="7.66429029118746"><ele>224.0</ele><time>2026-05-02T16:39:54Z</time></trkpt><trkpt lat="44.97342322132884" lon="7.663812455039184"><ele>223.5</ele><time>2026-05-02T16:39:55Z</time></trkpt><trkpt lat="44.97354080830836" lon="7.663335518755947"><ele>223.0</ele><time>2026-05-02T16:39:56Z</time></trkpt><trkpt lat="44.97366490444606" lon="7.662856065125718"><ele>223.0</ele><time>2026-05-02T16:39:57Z</time></trkpt><trkpt lat="44.97379489079275" lon="7.662383064291041"><ele>223.0</ele><time>2026-05-02T16:39:58Z</time></trkpt><trkpt lat="44.97392496125433" lon="7.661907595085216"><ele>223.0</ele><time>2026-05-02T16:39:59Z</time></trkpt><trkpt lat="44.974058883360925" lon="7.661432216460162"><ele>223.0</ele><time>2026-05-02T16:40:00Z</time></trkpt><trkpt lat="44.974204342573394" lon="7.660969272285676"><ele>223.5</ele><time>2026-05-02T16:40:01Z</time></trkpt><trkpt lat="44.974347502956924" lon="7.660504453891482"><ele>224.0</ele><time>2026-05-02T16:40:02Z</time></trkpt><trkpt lat="44.97449365022896" lon="7.66004263179222"><ele>225.0</ele><time>2026-05-02T16:40:03Z</time></trkpt><trkpt lat="44.97464524276266" lon="7.659584022390292"><ele>226.0</ele><time>2026-05-02T16:40:04Z</time></trkpt><trkpt lat="44.97479682635336" lon="7.6591251887972165"><ele>226.0</ele><time>2026-05-02T16:40:05Z</time></trkpt><trkpt lat="44.97495654888861" lon="7.658670757377624"><ele>226.0</ele><time>2026-05-02T16:40:06Z</time></trkpt><trkpt lat="44.97512047439125" lon="7.658222996998006"><ele>227.5</ele><time>2026-05-02T16:40:07Z</time></trkpt><trkpt lat="44.975285078412085" lon="7.657774309656461"><ele>229.0</ele><time>2026-05-02T16:40:08Z</time></trkpt><trkpt lat="44.97545320155865" lon="7.657325223643389"><ele>228.0</ele><time>2026-05-02T16:40:09Z</time></trkpt><trkpt lat="44.97562502905034" lon="7.656878520054267"><ele>227.0</ele><time>2026-05-02T16:40:10Z</time></trkpt><trkpt lat="44.97580461169624" lon="7.656436180899077"><ele>226.0</ele><time>2026-05-02T16:40:11Z</time></trkpt><trkpt lat="44.9759906493488" lon="7.65600300241584"><ele>225.0</ele><time>2026-05-02T16:40:12Z</time></trkpt><trkpt lat="44.97617862287439" lon="7.655570625985278"><ele>225.0</ele><time>2026-05-02T16:40:13Z</time></trkpt><trkpt lat="44.976374361143066" lon="7.655144674455889"><ele>225.0</ele><time>2026-05-02T16:40:14Z</time></trkpt><trkpt lat="44.97656730788342" lon="7.654715319715176"><ele>225.0</ele><time>2026-05-02T16:40:15Z</time></trkpt><trkpt lat="44.976761086200995" lon="7.65428875388023"><ele>225.0</ele><time>2026-05-02T16:40:16Z</time></trkpt><trkpt lat="44.97696039777979" lon="7.653862710976412"><ele>226.0</ele><time>2026-05-02T16:40:17Z</time></trkpt><trkpt lat="44.97716032706966" lon="7.653443444451881"><ele>227.0</ele><time>2026-05-02T16:40:18.001Z</time></trkpt><trkpt lat="44.97736602520585" lon="7.653024917725621"><ele>224.0</ele><time>2026-05-02T16:40:19.001Z</time></trkpt><trkpt lat="44.9775749446703" lon="7.652604970651401"><ele>221.0</ele><time>2026-05-02T16:40:20.001Z</time></trkpt><trkpt lat="44.97778707623066" lon="7.6521890680828415"><ele>223.5</ele><time>2026-05-02T16:40:21.001Z</time></trkpt><trkpt lat="44.97800361379616" lon="7.651777087740363"><ele>226.0</ele><time>2026-05-02T16:40:22.001Z</time></trkpt><trkpt lat="44.97822473335675" lon="7.651367298867402"><ele>225.5</ele><time>2026-05-02T16:40:23.001Z</time></trkpt><trkpt lat="44.97844965027803" lon="7.65096121453497"><ele>225.0</ele><time>2026-05-02T16:40:24.001Z</time></trkpt><trkpt lat="44.97867620987571" lon="7.650560378372371"><ele>225.5</ele><time>2026-05-02T16:40:25.001Z</time></trkpt><trkpt lat="44.97890533786711" lon="7.6501665753197345"><ele>226.0</ele><time>2026-05-02T16:40:26.001Z</time></trkpt><trkpt lat="44.979134963949505" lon="7.649768897953501"><ele>226.5</ele><time>2026-05-02T16:40:27.001Z</time></trkpt><trkpt lat="44.979361475406215" lon="7.649371760521117"><ele>227.0</ele><time>2026-05-02T16:40:28.001Z</time></trkpt><trkpt lat="44.97959440268164" lon="7.6489806727825975"><ele>227.0</ele><time>2026-05-02T16:40:29.001Z</time></trkpt><trkpt lat="44.97983209656701" lon="7.648596569312496"><ele>227.0</ele><time>2026-05-02T16:40:30.001Z</time></trkpt><trkpt lat="44.98006973757894" lon="7.648209542381064"><ele>227.5</ele><time>2026-05-02T16:40:31.001Z</time></trkpt><trkpt lat="44.98031004878219" lon="7.647823226745897"><ele>228.0</ele><time>2026-05-02T16:40:32.001Z</time></trkpt><trkpt lat="44.98054684532162" lon="7.647435078628382"><ele>228.0</ele><time>2026-05-02T16:40:33.001Z</time></trkpt><trkpt lat="44.9807859057516" lon="7.647046382623071"><ele>228.0</ele><time>2026-05-02T16:40:34.001Z</time></trkpt><trkpt lat="44.981023212510934" lon="7.64665793351693"><ele>228.0</ele><time>2026-05-02T16:40:35.001Z</time></trkpt><trkpt lat="44.981260830931575" lon="7.646269980358378"><ele>228.0</ele><time>2026-05-02T16:40:36.001Z</time></trkpt><trkpt lat="44.98149778048076" lon="7.645881302612806"><ele>227.5</ele><time>2026-05-02T16:40:37.001Z</time></trkpt><trkpt lat="44.981737956859035" lon="7.645494632705666"><ele>227.0</ele><time>2026-05-02T16:40:38Z</time></trkpt><trkpt lat="44.98197472416298" lon="7.645104997939664"><ele>227.0</ele><time>2026-05-02T16:40:39Z</time></trkpt><trkpt lat="44.98221051500778" lon="7.644716996034944"><ele>227.0</ele><time>2026-05-02T16:40:40Z</time></trkpt><trkpt lat="44.98244654145123" lon="7.644331827863954"><ele>228.5</ele><time>2026-05-02T16:40:41Z</time></trkpt><trkpt lat="44.982687264451556" lon="7.643943168651089"><ele>230.0</ele><time>2026-05-02T16:40:42Z</time></trkpt><trkpt lat="44.98292667389181" lon="7.6435586113601675"><ele>230.0</ele><time>2026-05-02T16:40:43Z</time></trkpt><trkpt lat="44.983166760261405" lon="7.6431741781365"><ele>230.0</ele><time>2026-05-02T16:40:44Z</time></trkpt><trkpt lat="44.98340517003234" lon="7.642790352712399"><ele>230.5</ele><time>2026-05-02T16:40:45Z</time></trkpt><trkpt lat="44.98364682721358" lon="7.642406751490591"><ele>231.0</ele><time>2026-05-02T16:40:46Z</time></trkpt><trkpt lat="44.98388789229862" lon="7.642029490862089"><ele>230.5</ele><time>2026-05-02T16:40:47Z</time></trkpt><trkpt lat="44.98412905061729" lon="7.641648314833233"><ele>230.0</ele><time>2026-05-02T16:40:48Z</time></trkpt><trkpt lat="44.98437006359978" lon="7.641274138687948"><ele>231.0</ele><time>2026-05-02T16:40:49Z</time></trkpt><trkpt lat="44.9846152216283" lon="7.640894368393032"><ele>232.0</ele><time>2026-05-02T16:40:50Z</time></trkpt><trkpt lat="44.98485923549825" lon="7.640511544768662"><ele>231.0</ele><time>2026-05-02T16:40:51Z</time></trkpt><trkpt lat="44.985103871971845" lon="7.640137541808254"><ele>230.0</ele><time>2026-05-02T16:40:52Z</time></trkpt><trkpt lat="44.98534879892546" lon="7.639759742178963"><ele>231.0</ele><time>2026-05-02T16:40:53Z</time></trkpt><trkpt lat="44.98560142713628" lon="7.639384943945952"><ele>232.0</ele><time>2026-05-02T16:40:54Z</time></trkpt><trkpt lat="44.9858435061627" lon="7.639006926736765"><ele>233.0</ele><time>2026-05-02T16:40:55Z</time></trkpt><trkpt lat="44.986092405722765" lon="7.638631787964507"><ele>234.0</ele><time>2026-05-02T16:40:56Z</time></trkpt><trkpt lat="44.98634247352993" lon="7.63826165792887"><ele>234.0</ele><time>2026-05-02T16:40:57Z</time></trkpt><trkpt lat="44.986593499166396" lon="7.637891953187413"><ele>234.0</ele><time>2026-05-02T16:40:58Z</time></trkpt><trkpt lat="44.986846049422965" lon="7.637518544986331"><ele>233.5</ele><time>2026-05-02T16:40:59Z</time></trkpt><trkpt lat="44.987098445982795" lon="7.637150976892342"><ele>233.0</ele><time>2026-05-02T16:41:00Z</time></trkpt><trkpt lat="44.98735156045945" lon="7.6367821265292735"><ele>232.5</ele><time>2026-05-02T16:41:01Z</time></trkpt><trkpt lat="44.98760519543456" lon="7.636409528514536"><ele>232.0</ele><time>2026-05-02T16:41:02Z</time></trkpt><trkpt lat="44.9878559307047" lon="7.636034689048601"><ele>233.0</ele><time>2026-05-02T16:41:03Z</time></trkpt><trkpt lat="44.988108553587956" lon="7.635660745642413"><ele>234.0</ele><time>2026-05-02T16:41:04Z</time></trkpt><trkpt lat="44.98835681094286" lon="7.635286487263972"><ele>234.0</ele><time>2026-05-02T16:41:05Z</time></trkpt><trkpt lat="44.988607386859954" lon="7.634908954642528"><ele>234.0</ele><time>2026-05-02T16:41:06Z</time></trkpt><trkpt lat="44.98885705205595" lon="7.634536018644996"><ele>233.5</ele><time>2026-05-02T16:41:07Z</time></trkpt><trkpt lat="44.98910681776009" lon="7.634165223298318"><ele>233.0</ele><time>2026-05-02T16:41:08Z</time></trkpt><trkpt lat="44.989355141218496" lon="7.633793049344605"><ele>234.0</ele><time>2026-05-02T16:41:09Z</time></trkpt><trkpt lat="44.98960202193798" lon="7.633419918550077"><ele>235.0</ele><time>2026-05-02T16:41:10Z</time></trkpt><trkpt lat="44.989847859122605" lon="7.633045774050417"><ele>235.0</ele><time>2026-05-02T16:41:11Z</time></trkpt><trkpt lat="44.990097032638154" lon="7.632669150016969"><ele>235.0</ele><time>2026-05-02T16:41:12Z</time></trkpt><trkpt lat="44.99034670820207" lon="7.632297755148389"><ele>235.0</ele><time>2026-05-02T16:41:13Z</time></trkpt><trkpt lat="44.99059713770201" lon="7.6319252778454345"><ele>235.0</ele><time>2026-05-02T16:41:14Z</time></trkpt><trkpt lat="44.99084493372618" lon="7.631551804521687"><ele>235.0</ele><time>2026-05-02T16:41:15Z</time></trkpt><trkpt lat="44.99108989362652" lon="7.631180453488578"><ele>235.0</ele><time>2026-05-02T16:41:16Z</time></trkpt><trkpt lat="44.99133861861695" lon="7.63081194203277"><ele>235.0</ele><time>2026-05-02T16:41:17Z</time></trkpt><trkpt lat="44.991590510718076" lon="7.630452132040363"><ele>235.0</ele><time>2026-05-02T16:41:18Z</time></trkpt><trkpt lat="44.991851459395676" lon="7.630102694191302"><ele>235.0</ele><time>2026-05-02T16:41:19Z</time></trkpt><trkpt lat="44.992117333277974" lon="7.629760811250729"><ele>235.0</ele><time>2026-05-02T16:41:20Z</time></trkpt><trkpt lat="44.99238670279591" lon="7.629425557517574"><ele>235.0</ele><time>2026-05-02T16:41:21Z</time></trkpt><trkpt lat="44.992665123165885" lon="7.62909860030329"><ele>235.0</ele><time>2026-05-02T16:41:22Z</time></trkpt><trkpt lat="44.99294600075802" lon="7.6287726387491945"><ele>235.5</ele><time>2026-05-02T16:41:23Z</time></trkpt><trkpt lat="44.993232438725144" lon="7.628453673552334"><ele>236.0</ele><time>2026-05-02T16:41:24Z</time></trkpt><trkpt lat="44.99352239682562" lon="7.628140982208134"><ele>236.0</ele><time>2026-05-02T16:41:25Z</time></trkpt><trkpt lat="44.99381363971932" lon="7.627842579544432"><ele>236.0</ele><time>2026-05-02T16:41:26Z</time></trkpt><trkpt lat="44.994113459997244" lon="7.627551073343146"><ele>234.5</ele><time>2026-05-02T16:41:27Z</time></trkpt><trkpt lat="44.99442150048882" lon="7.627271779217601"><ele>233.0</ele><time>2026-05-02T16:41:28Z</time></trkpt><trkpt lat="44.99473145984296" lon="7.627004265880303"><ele>233.0</ele><time>2026-05-02T16:41:29Z</time></trkpt><trkpt lat="44.99504316601982" lon="7.626741350922868"><ele>233.0</ele><time>2026-05-02T16:41:30Z</time></trkpt><trkpt lat="44.99535889767019" lon="7.626488353668571"><ele>233.0</ele><time>2026-05-02T16:41:31Z</time></trkpt><trkpt lat="44.99567852724606" lon="7.626241708437626"><ele>233.0</ele><time>2026-05-02T16:41:32Z</time></trkpt><trkpt lat="44.995999753837786" lon="7.6260050952681615"><ele>233.0</ele><time>2026-05-02T16:41:33Z</time></trkpt><trkpt lat="44.99632390078657" lon="7.625780019432408"><ele>233.0</ele><time>2026-05-02T16:41:34Z</time></trkpt><trkpt lat="44.99665262271105" lon="7.6255639351797395"><ele>233.5</ele><time>2026-05-02T16:41:35Z</time></trkpt><trkpt lat="44.99698329975089" lon="7.625356725174718"><ele>234.0</ele><time>2026-05-02T16:41:36Z</time></trkpt><trkpt lat="44.99731599177683" lon="7.62515205219128"><ele>233.0</ele><time>2026-05-02T16:41:37Z</time></trkpt><trkpt lat="44.997652703384375" lon="7.624957922584791"><ele>232.0</ele><time>2026-05-02T16:41:38Z</time></trkpt><trkpt lat="44.99799204358037" lon="7.624773259800794"><ele>232.0</ele><time>2026-05-02T16:41:39Z</time></trkpt><trkpt lat="44.99833364959624" lon="7.6245970838598645"><ele>232.0</ele><time>2026-05-02T16:41:40Z</time></trkpt><trkpt lat="44.99867799504638" lon="7.624426840810851"><ele>233.0</ele><time>2026-05-02T16:41:41Z</time></trkpt><trkpt lat="44.99902283311674" lon="7.624257184057614"><ele>234.0</ele><time>2026-05-02T16:41:42Z</time></trkpt><trkpt lat="44.999371414033334" lon="7.624090987159224"><ele>235.5</ele><time>2026-05-02T16:41:43Z</time></trkpt><trkpt lat="44.9997160471292" lon="7.62392881203007"><ele>237.0</ele><time>2026-05-02T16:41:44Z</time></trkpt><trkpt lat="45.00005912507102" lon="7.62376544695858"><ele>236.5</ele><time>2026-05-02T16:41:45Z</time></trkpt><trkpt lat="45.00040234507571" lon="7.623602475667346"><ele>236.0</ele><time>2026-05-02T16:41:46Z</time></trkpt><trkpt lat="45.000744344850766" lon="7.623442076830315"><ele>236.0</ele><time>2026-05-02T16:41:47Z</time></trkpt><trkpt lat="45.001088586653" lon="7.62328131747182"><ele>236.0</ele><time>2026-05-02T16:41:48Z</time></trkpt><trkpt lat="45.001433031753855" lon="7.623118153259174"><ele>235.5</ele><time>2026-05-02T16:41:49Z</time></trkpt><trkpt lat="45.001777117251876" lon="7.622955554955228"><ele>235.0</ele><time>2026-05-02T16:41:50Z</time></trkpt><trkpt lat="45.00211904507868" lon="7.622795714559011"><ele>236.0</ele><time>2026-05-02T16:41:51Z</time></trkpt><trkpt lat="45.00246450146483" lon="7.62263439321923"><ele>237.0</ele><time>2026-05-02T16:41:52Z</time></trkpt><trkpt lat="45.00280769494633" lon="7.622472171549321"><ele>237.0</ele><time>2026-05-02T16:41:53Z</time></trkpt><trkpt lat="45.00315269028207" lon="7.6223159649144785"><ele>237.0</ele><time>2026-05-02T16:41:54Z</time></trkpt><trkpt lat="45.0034969225422" lon="7.622157160934712"><ele>237.0</ele><time>2026-05-02T16:41:55Z</time></trkpt><trkpt lat="45.0038438532954" lon="7.6219950507521705"><ele>237.0</ele><time>2026-05-02T16:41:56Z</time></trkpt><trkpt lat="45.00419052722771" lon="7.62183574244964"><ele>237.0</ele><time>2026-05-02T16:41:57Z</time></trkpt><trkpt lat="45.00453533878233" lon="7.6216743239788585"><ele>237.0</ele><time>2026-05-02T16:41:58Z</time></trkpt><trkpt lat="45.00487821020594" lon="7.621513385475934"><ele>238.0</ele><time>2026-05-02T16:41:59Z</time></trkpt><trkpt lat="45.005223909916516" lon="7.621352989968664"><ele>239.0</ele><time>2026-05-02T16:42:00Z</time></trkpt><trkpt lat="45.005569452417966" lon="7.621190623284947"><ele>237.0</ele><time>2026-05-02T16:42:01Z</time></trkpt><trkpt lat="45.00591423929432" lon="7.621027481950488"><ele>235.0</ele><time>2026-05-02T16:42:02Z</time></trkpt><trkpt lat="45.00625773862895" lon="7.620847829967767"><ele>235.0</ele><time>2026-05-02T16:42:03Z</time></trkpt><trkpt lat="45.00659218275696" lon="7.620642483594309"><ele>235.0</ele><time>2026-05-02T16:42:04Z</time></trkpt><trkpt lat="45.00691252461861" lon="7.620407900720228"><ele>235.5</ele><time>2026-05-02T16:42:05Z</time></trkpt><trkpt lat="45.00721769534372" lon="7.620140591623221"><ele>236.0</ele><time>2026-05-02T16:42:06Z</time></trkpt><trkpt lat="45.00751034865955" lon="7.619844519895655"><ele>236.5</ele><time>2026-05-02T16:42:07Z</time></trkpt><trkpt lat="45.00778684211874" lon="7.619524283191203"><ele>237.0</ele><time>2026-05-02T16:42:08Z</time></trkpt><trkpt lat="45.00804834023281" lon="7.619177610943704"><ele>238.0</ele><time>2026-05-02T16:42:09Z</time></trkpt><trkpt lat="45.008294164503155" lon="7.618809876226275"><ele>239.0</ele><time>2026-05-02T16:42:10Z</time></trkpt><trkpt lat="45.00853238487115" lon="7.618431257154373"><ele>236.5</ele><time>2026-05-02T16:42:11Z</time></trkpt><trkpt lat="45.00873823209499" lon="7.618009337029461"><ele>234.0</ele><time>2026-05-02T16:42:12Z</time></trkpt><trkpt lat="45.0089273281731" lon="7.617574468832931"><ele>234.0</ele><time>2026-05-02T16:42:13Z</time></trkpt><trkpt lat="45.00909392470917" lon="7.6171267273273715"><ele>234.0</ele><time>2026-05-02T16:42:14Z</time></trkpt><trkpt lat="45.009240176702626" lon="7.616664465822153"><ele>235.5</ele><time>2026-05-02T16:42:15Z</time></trkpt><trkpt lat="45.00936671910134" lon="7.616189917037949"><ele>237.0</ele><time>2026-05-02T16:42:16Z</time></trkpt><trkpt lat="45.00946898108167" lon="7.615701793193241"><ele>237.0</ele><time>2026-05-02T16:42:17Z</time></trkpt><trkpt lat="45.00954661687469" lon="7.615205857831148"><ele>237.0</ele><time>2026-05-02T16:42:18Z</time></trkpt><trkpt lat="45.00960378292752" lon="7.61470279965298"><ele>238.0</ele><time>2026-05-02T16:42:19Z</time></trkpt><trkpt lat="45.009652116708764" lon="7.614193050760724"><ele>239.0</ele><time>2026-05-02T16:42:20Z</time></trkpt><trkpt lat="45.00970325893712" lon="7.613679656186015"><ele>239.0</ele><time>2026-05-02T16:42:21Z</time></trkpt><trkpt lat="45.009758188307984" lon="7.61316492451459"><ele>239.0</ele><time>2026-05-02T16:42:22Z</time></trkpt><trkpt lat="45.00981224344098" lon="7.6126519666995724"><ele>239.5</ele><time>2026-05-02T16:42:23.001Z</time></trkpt><trkpt lat="45.009867590796034" lon="7.612141916613566"><ele>240.0</ele><time>2026-05-02T16:42:24.001Z</time></trkpt><trkpt lat="45.00991995596439" lon="7.611637151258552"><ele>240.5</ele><time>2026-05-02T16:42:25.001Z</time></trkpt><trkpt lat="45.00997278819478" lon="7.611135210306954"><ele>241.0</ele><time>2026-05-02T16:42:26.001Z</time></trkpt><trkpt lat="45.010031431025155" lon="7.610634092717959"><ele>238.5</ele><time>2026-05-02T16:42:27.001Z</time></trkpt><trkpt lat="45.01009915743315" lon="7.610134591813036"><ele>236.0</ele><time>2026-05-02T16:42:28.001Z</time></trkpt><trkpt lat="45.01018438199903" lon="7.609639721831042"><ele>236.5</ele><time>2026-05-02T16:42:29.001Z</time></trkpt><trkpt lat="45.01028908625827" lon="7.609150783582834"><ele>237.0</ele><time>2026-05-02T16:42:30.001Z</time></trkpt><trkpt lat="45.010414899942155" lon="7.60866994127373"><ele>238.0</ele><time>2026-05-02T16:42:31.001Z</time></trkpt><trkpt lat="45.01056313839486" lon="7.608202020163699"><ele>239.0</ele><time>2026-05-02T16:42:32.001Z</time></trkpt><trkpt lat="45.010728409500786" lon="7.6077452995697605"><ele>238.5</ele><time>2026-05-02T16:42:33.001Z</time></trkpt><trkpt lat="45.01090206278787" lon="7.607293688841872"><ele>238.0</ele><time>2026-05-02T16:42:34.001Z</time></trkpt><trkpt lat="45.01108742316039" lon="7.606851962373448"><ele>238.5</ele><time>2026-05-02T16:42:35Z</time></trkpt><trkpt lat="45.011289531821774" lon="7.606427127905909"><ele>239.0</ele><time>2026-05-02T16:42:36Z</time></trkpt><trkpt lat="45.01150687015269" lon="7.6060152809926365"><ele>240.0</ele><time>2026-05-02T16:42:37Z</time></trkpt><trkpt lat="45.01173438625014" lon="7.605617779605224"><ele>241.0</ele><time>2026-05-02T16:42:38Z</time></trkpt><trkpt lat="45.011976589707544" lon="7.605239942015945"><ele>241.0</ele><time>2026-05-02T16:42:39Z</time></trkpt><trkpt lat="45.01222914529894" lon="7.604876781409975"><ele>241.0</ele><time>2026-05-02T16:42:40Z</time></trkpt><trkpt lat="45.01249410718864" lon="7.604526805943916"><ele>240.5</ele><time>2026-05-02T16:42:41Z</time></trkpt><trkpt lat="45.012772551427794" lon="7.60419606122215"><ele>240.0</ele><time>2026-05-02T16:42:42Z</time></trkpt><trkpt lat="45.01306209569916" lon="7.603887016708284"><ele>242.5</ele><time>2026-05-02T16:42:43Z</time></trkpt><trkpt lat="45.01336388791578" lon="7.603603657864343"><ele>245.0</ele><time>2026-05-02T16:42:44Z</time></trkpt><trkpt lat="45.013670330783825" lon="7.603338540544648"><ele>245.0</ele><time>2026-05-02T16:42:45Z</time></trkpt><trkpt lat="45.01399045180879" lon="7.603089848823756"><ele>245.0</ele><time>2026-05-02T16:42:46Z</time></trkpt><trkpt lat="45.014316358435245" lon="7.602860088026952"><ele>245.5</ele><time>2026-05-02T16:42:47Z</time></trkpt><trkpt lat="45.01465086184677" lon="7.602653003290517"><ele>246.0</ele><time>2026-05-02T16:42:48Z</time></trkpt><trkpt lat="45.01499105310393" lon="7.602472575574462"><ele>247.5</ele><time>2026-05-02T16:42:49Z</time></trkpt><trkpt lat="45.01533582979139" lon="7.602313595224475"><ele>249.0</ele><time>2026-05-02T16:42:50Z</time></trkpt><trkpt lat="45.015682412151314" lon="7.602160039939129"><ele>250.0</ele><time>2026-05-02T16:42:51Z</time></trkpt><trkpt lat="45.01602763803795" lon="7.602007756099562"><ele>251.0</ele><time>2026-05-02T16:42:52Z</time></trkpt><trkpt lat="45.01637544267757" lon="7.60185848866171"><ele>251.0</ele><time>2026-05-02T16:42:53Z</time></trkpt><trkpt lat="45.01672147074735" lon="7.601705663127527"><ele>251.0</ele><time>2026-05-02T16:42:54Z</time></trkpt><trkpt lat="45.017066999856105" lon="7.6015474591985965"><ele>251.0</ele><time>2026-05-02T16:42:55Z</time></trkpt><trkpt lat="45.01740858508076" lon="7.60137987012527"><ele>251.0</ele><time>2026-05-02T16:42:56Z</time></trkpt><trkpt lat="45.017750469623174" lon="7.601208081135807"><ele>252.5</ele><time>2026-05-02T16:42:57Z</time></trkpt><trkpt lat="45.01809003878453" lon="7.601029027954049"><ele>254.0</ele><time>2026-05-02T16:42:58Z</time></trkpt><trkpt lat="45.01842706920159" lon="7.600838412751552"><ele>254.0</ele><time>2026-05-02T16:42:59Z</time></trkpt><trkpt lat="45.01876225153359" lon="7.600637204370604"><ele>254.0</ele><time>2026-05-02T16:43:00Z</time></trkpt><trkpt lat="45.01909811444815" lon="7.600430227541193"><ele>254.5</ele><time>2026-05-02T16:43:01Z</time></trkpt><trkpt lat="45.01942982993527" lon="7.600218364984355"><ele>255.0</ele><time>2026-05-02T16:43:02Z</time></trkpt><trkpt lat="45.01976254005259" lon="7.600000130813524"><ele>254.5</ele><time>2026-05-02T16:43:03Z</time></trkpt><trkpt lat="45.020087278810784" lon="7.599774798112667"><ele>254.0</ele><time>2026-05-02T16:43:04Z</time></trkpt><trkpt lat="45.02040877237509" lon="7.599541275791091"><ele>254.5</ele><time>2026-05-02T16:43:05Z</time></trkpt><trkpt lat="45.020724925121456" lon="7.599300118978995"><ele>255.0</ele><time>2026-05-02T16:43:06Z</time></trkpt><trkpt lat="45.02104053982217" lon="7.599058197085207"><ele>255.5</ele><time>2026-05-02T16:43:07Z</time></trkpt><trkpt lat="45.02135372965389" lon="7.5988038156832145"><ele>256.0</ele><time>2026-05-02T16:43:08Z</time></trkpt><trkpt lat="45.021663815974236" lon="7.598546086783762"><ele>257.0</ele><time>2026-05-02T16:43:09Z</time></trkpt><trkpt lat="45.02197124858389" lon="7.598286711421285"><ele>258.0</ele><time>2026-05-02T16:43:10Z</time></trkpt><trkpt lat="45.022277996672514" lon="7.598024931773682"><ele>258.0</ele><time>2026-05-02T16:43:11Z</time></trkpt><trkpt lat="45.02258567031112" lon="7.597758914677984"><ele>258.0</ele><time>2026-05-02T16:43:12Z</time></trkpt><trkpt lat="45.022895886530264" lon="7.597487625903258"><ele>258.0</ele><time>2026-05-02T16:43:13Z</time></trkpt><trkpt lat="45.02320201427319" lon="7.59721750640393"><ele>258.0</ele><time>2026-05-02T16:43:14Z</time></trkpt><trkpt lat="45.02350801105732" lon="7.596940370515638"><ele>259.5</ele><time>2026-05-02T16:43:15Z</time></trkpt><trkpt lat="45.02381423189726" lon="7.596661096722632"><ele>261.0</ele><time>2026-05-02T16:43:16Z</time></trkpt><trkpt lat="45.02412249998451" lon="7.596385558317206"><ele>262.5</ele><time>2026-05-02T16:43:17Z</time></trkpt><trkpt lat="45.024429985905066" lon="7.5961104795214425"><ele>264.0</ele><time>2026-05-02T16:43:18Z</time></trkpt><trkpt lat="45.02473668572253" lon="7.595837684086977"><ele>264.5</ele><time>2026-05-02T16:43:19Z</time></trkpt><trkpt lat="45.02504445918961" lon="7.595565362041997"><ele>265.0</ele><time>2026-05-02T16:43:20Z</time></trkpt><trkpt lat="45.0253529393791" lon="7.595294517510097"><ele>265.0</ele><time>2026-05-02T16:43:21Z</time></trkpt><trkpt lat="45.025662204494" lon="7.595027360701271"><ele>265.0</ele><time>2026-05-02T16:43:22Z</time></trkpt><trkpt lat="45.025973949086925" lon="7.594762513574455"><ele>265.0</ele><time>2026-05-02T16:43:23Z</time></trkpt><trkpt lat="45.02628473236504" lon="7.594495368233647"><ele>265.0</ele><time>2026-05-02T16:43:24Z</time></trkpt><trkpt lat="45.02659592853226" lon="7.594227120687502"><ele>265.5</ele><time>2026-05-02T16:43:25Z</time></trkpt><trkpt lat="45.02690737186511" lon="7.593957231343057"><ele>266.0</ele><time>2026-05-02T16:43:26Z</time></trkpt><trkpt lat="45.027219334551965" lon="7.593687624660544"><ele>266.5</ele><time>2026-05-02T16:43:27Z</time></trkpt><trkpt lat="45.027532102658554" lon="7.593416581435666"><ele>267.0</ele><time>2026-05-02T16:43:28Z</time></trkpt><trkpt lat="45.02784298253368" lon="7.5931482344553665"><ele>267.0</ele><time>2026-05-02T16:43:29Z</time></trkpt><trkpt lat="45.02815504104522" lon="7.592880107166077"><ele>267.0</ele><time>2026-05-02T16:43:30Z</time></trkpt><trkpt lat="45.028465647779484" lon="7.592611579964527"><ele>266.0</ele><time>2026-05-02T16:43:31Z</time></trkpt><trkpt lat="45.028776737365256" lon="7.592344664839564"><ele>265.0</ele><time>2026-05-02T16:43:32Z</time></trkpt><trkpt lat="45.02908870401628" lon="7.592076730819593"><ele>265.5</ele><time>2026-05-02T16:43:33Z</time></trkpt><trkpt lat="45.02940212217259" lon="7.591811822313213"><ele>266.0</ele><time>2026-05-02T16:43:34Z</time></trkpt><trkpt lat="45.029709141658174" lon="7.5915412695686495"><ele>265.0</ele><time>2026-05-02T16:43:35Z</time></trkpt><trkpt lat="45.0300108871846" lon="7.591260181660198"><ele>264.0</ele><time>2026-05-02T16:43:36Z</time></trkpt><trkpt lat="45.03029966364422" lon="7.590958492627416"><ele>263.5</ele><time>2026-05-02T16:43:37Z</time></trkpt><trkpt lat="45.030579567567344" lon="7.590641220386791"><ele>263.0</ele><time>2026-05-02T16:43:38Z</time></trkpt><trkpt lat="45.030852799677845" lon="7.590310725978117"><ele>263.0</ele><time>2026-05-02T16:43:39Z</time></trkpt><trkpt lat="45.03110338612578" lon="7.589972008764355"><ele>263.0</ele><time>2026-05-02T16:43:40Z</time></trkpt><trkpt lat="45.03132972318454" lon="7.5896444916272445"><ele>264.5</ele><time>2026-05-02T16:43:41Z</time></trkpt><trkpt lat="45.031538484818434" lon="7.589319279094514"><ele>266.0</ele><time>2026-05-02T16:43:42Z</time></trkpt><trkpt lat="45.03173800747071" lon="7.588987979539973"><ele>266.0</ele><time>2026-05-02T16:43:43Z</time></trkpt><trkpt lat="45.03192188874069" lon="7.588664893973905"><ele>266.0</ele><time>2026-05-02T16:43:44Z</time></trkpt><trkpt lat="45.032087296415554" lon="7.588352235030609"><ele>266.0</ele><time>2026-05-02T16:43:45Z</time></trkpt><trkpt lat="45.0322480783093" lon="7.588032108959641"><ele>266.0</ele><time>2026-05-02T16:43:46Z</time></trkpt><trkpt lat="45.03240686380165" lon="7.587695065954993"><ele>266.0</ele><time>2026-05-02T16:43:47Z</time></trkpt><trkpt lat="45.03255725706959" lon="7.587333816282807"><ele>266.0</ele><time>2026-05-02T16:43:48Z</time></trkpt><trkpt lat="45.03270193138945" lon="7.586967568872691"><ele>266.0</ele><time>2026-05-02T16:43:49Z</time></trkpt><trkpt lat="45.032838878310514" lon="7.586595371714408"><ele>266.0</ele><time>2026-05-02T16:43:50Z</time></trkpt><trkpt lat="45.032968415788304" lon="7.586216367826214"><ele>266.5</ele><time>2026-05-02T16:43:51Z</time></trkpt><trkpt lat="45.0330862544527" lon="7.585830690856418"><ele>267.0</ele><time>2026-05-02T16:43:52Z</time></trkpt><trkpt lat="45.03319940921964" lon="7.585441396991121"><ele>266.5</ele><time>2026-05-02T16:43:53Z</time></trkpt><trkpt lat="45.033306323797134" lon="7.5850569568222435"><ele>266.0</ele><time>2026-05-02T16:43:54Z</time></trkpt><trkpt lat="45.03341206798958" lon="7.584677572515978"><ele>265.5</ele><time>2026-05-02T16:43:55Z</time></trkpt><trkpt lat="45.03351360157513" lon="7.5843120929440735"><ele>265.0</ele><time>2026-05-02T16:43:56Z</time></trkpt><trkpt lat="45.0336152169099" lon="7.583950162764112"><ele>264.5</ele><time>2026-05-02T16:43:57Z</time></trkpt><trkpt lat="45.03371833675135" lon="7.583578267030464"><ele>264.0</ele><time>2026-05-02T16:43:58Z</time></trkpt><trkpt lat="45.03382190935149" lon="7.583202848281041"><ele>266.0</ele><time>2026-05-02T16:43:59Z</time></trkpt><trkpt lat="45.03392525166353" lon="7.58282480123862"><ele>268.0</ele><time>2026-05-02T16:44:00Z</time></trkpt><trkpt lat="45.034028095883166" lon="7.582444209345046"><ele>268.0</ele><time>2026-05-02T16:44:01Z</time></trkpt><trkpt lat="45.03413139070213" lon="7.5820598486915065"><ele>268.0</ele><time>2026-05-02T16:44:02Z</time></trkpt><trkpt lat="45.03423369472299" lon="7.581671900449683"><ele>267.5</ele><time>2026-05-02T16:44:03Z</time></trkpt><trkpt lat="45.034338942882705" lon="7.581285320710979"><ele>267.0</ele><time>2026-05-02T16:44:04Z</time></trkpt><trkpt lat="45.03444577008725" lon="7.580894773377054"><ele>267.0</ele><time>2026-05-02T16:44:05Z</time></trkpt><trkpt lat="45.03455834837589" lon="7.580488882450095"><ele>267.0</ele><time>2026-05-02T16:44:06Z</time></trkpt><trkpt lat="45.03467451283247" lon="7.580071067784645"><ele>268.5</ele><time>2026-05-02T16:44:07Z</time></trkpt><trkpt lat="45.03479078636641" lon="7.579654485977156"><ele>270.0</ele><time>2026-05-02T16:44:08Z</time></trkpt><trkpt lat="45.03490892800967" lon="7.57922941042847"><ele>270.5</ele><time>2026-05-02T16:44:09Z</time></trkpt><trkpt lat="45.035025524962016" lon="7.578803742935842"><ele>271.0</ele><time>2026-05-02T16:44:10Z</time></trkpt><trkpt lat="45.03514316913109" lon="7.578377913308142"><ele>271.0</ele><time>2026-05-02T16:44:11Z</time></trkpt><trkpt lat="45.03526284579471" lon="7.577952744348427"><ele>271.0</ele><time>2026-05-02T16:44:12Z</time></trkpt><trkpt lat="45.03538257399568" lon="7.577526464993388"><ele>273.0</ele><time>2026-05-02T16:44:13Z</time></trkpt><trkpt lat="45.03549448853115" lon="7.5770912229616"><ele>275.0</ele><time>2026-05-02T16:44:14Z</time></trkpt><trkpt lat="45.035602981207354" lon="7.576694231876106"><ele>275.0</ele><time>2026-05-02T16:44:15Z</time></trkpt><trkpt lat="45.035717419159674" lon="7.576320615420467"><ele>275.0</ele><time>2026-05-02T16:44:16Z</time></trkpt><trkpt lat="45.035828518429824" lon="7.575954389892148"><ele>275.0</ele><time>2026-05-02T16:44:17Z</time></trkpt><trkpt lat="45.035921030390426" lon="7.5755852228513225"><ele>275.0</ele><time>2026-05-02T16:44:18Z</time></trkpt><trkpt lat="45.03601899578658" lon="7.575213648541549"><ele>275.0</ele><time>2026-05-02T16:44:19Z</time></trkpt><trkpt lat="45.036119990326" lon="7.57483851650911"><ele>275.0</ele><time>2026-05-02T16:44:20Z</time></trkpt><trkpt lat="45.036221922015024" lon="7.574465883441018"><ele>274.0</ele><time>2026-05-02T16:44:21Z</time></trkpt><trkpt lat="45.036323320444666" lon="7.574094826377797"><ele>273.0</ele><time>2026-05-02T16:44:22Z</time></trkpt><trkpt lat="45.03642502134284" lon="7.573717710546422"><ele>274.0</ele><time>2026-05-02T16:44:23Z</time></trkpt><trkpt lat="45.036524535500206" lon="7.573344082967917"><ele>275.0</ele><time>2026-05-02T16:44:24Z</time></trkpt><trkpt lat="45.036625686983754" lon="7.572974676064195"><ele>275.0</ele><time>2026-05-02T16:44:25Z</time></trkpt><trkpt lat="45.036728700990516" lon="7.572603476812965"><ele>275.0</ele><time>2026-05-02T16:44:26Z</time></trkpt><trkpt lat="45.03683136604042" lon="7.57222953349817"><ele>276.0</ele><time>2026-05-02T16:44:27Z</time></trkpt><trkpt lat="45.03693742420311" lon="7.571847977841646"><ele>277.0</ele><time>2026-05-02T16:44:28Z</time></trkpt><trkpt lat="45.03704298323935" lon="7.5714627492623325"><ele>277.5</ele><time>2026-05-02T16:44:29Z</time></trkpt><trkpt lat="45.0371492996967" lon="7.571076121821739"><ele>278.0</ele><time>2026-05-02T16:44:30Z</time></trkpt><trkpt lat="45.03725673871171" lon="7.570686334321236"><ele>279.0</ele><time>2026-05-02T16:44:31Z</time></trkpt><trkpt lat="45.03736369791905" lon="7.570296046716922"><ele>280.0</ele><time>2026-05-02T16:44:32Z</time></trkpt><trkpt lat="45.03747000974113" lon="7.569908746560152"><ele>281.5</ele><time>2026-05-02T16:44:33Z</time></trkpt><trkpt lat="45.037575776957915" lon="7.569520724781247"><ele>283.0</ele><time>2026-05-02T16:44:34Z</time></trkpt><trkpt lat="45.037680902344775" lon="7.569138118311179"><ele>283.0</ele><time>2026-05-02T16:44:35Z</time></trkpt><trkpt lat="45.037783677539" lon="7.568754668689402"><ele>283.0</ele><time>2026-05-02T16:44:36Z</time></trkpt><trkpt lat="45.03788630411062" lon="7.568372195844347"><ele>281.5</ele><time>2026-05-02T16:44:37Z</time></trkpt><trkpt lat="45.03799168260323" lon="7.56799160363753"><ele>280.0</ele><time>2026-05-02T16:44:38Z</time></trkpt><trkpt lat="45.03809428938939" lon="7.567609658007754"><ele>279.0</ele><time>2026-05-02T16:44:39Z</time></trkpt><trkpt lat="45.038197452826495" lon="7.567229090147084"><ele>278.0</ele><time>2026-05-02T16:44:40Z</time></trkpt><trkpt lat="45.03830214844396" lon="7.566846264993448"><ele>281.0</ele><time>2026-05-02T16:44:41Z</time></trkpt><trkpt lat="45.038407721125715" lon="7.566460114603997"><ele>284.0</ele><time>2026-05-02T16:44:42Z</time></trkpt><trkpt lat="45.0385136862479" lon="7.566073401732632"><ele>284.0</ele><time>2026-05-02T16:44:43Z</time></trkpt><trkpt lat="45.03861957380368" lon="7.565685632740742"><ele>284.0</ele><time>2026-05-02T16:44:44Z</time></trkpt><trkpt lat="45.038727402712254" lon="7.565297105439795"><ele>284.0</ele><time>2026-05-02T16:44:45Z</time></trkpt><trkpt lat="45.038833909233844" lon="7.564905644156753"><ele>284.0</ele><time>2026-05-02T16:44:46Z</time></trkpt><trkpt lat="45.03894223632534" lon="7.564506385430546"><ele>284.0</ele><time>2026-05-02T16:44:47Z</time></trkpt><trkpt lat="45.039051351034146" lon="7.564104662613683"><ele>284.0</ele><time>2026-05-02T16:44:48Z</time></trkpt><trkpt lat="45.039160521342495" lon="7.563700164133372"><ele>285.0</ele><time>2026-05-02T16:44:49Z</time></trkpt><trkpt lat="45.03927123138156" lon="7.563292986146256"><ele>286.0</ele><time>2026-05-02T16:44:50Z</time></trkpt><trkpt lat="45.03938219447636" lon="7.562883317471185"><ele>284.5</ele><time>2026-05-02T16:44:51Z</time></trkpt><trkpt lat="45.039490562413455" lon="7.562473437928454"><ele>283.0</ele><time>2026-05-02T16:44:52Z</time></trkpt><trkpt lat="45.03960158041014" lon="7.562061597625176"><ele>283.5</ele><time>2026-05-02T16:44:53Z</time></trkpt><trkpt lat="45.03971371043536" lon="7.561648558822979"><ele>284.0</ele><time>2026-05-02T16:44:54Z</time></trkpt><trkpt lat="45.039826535486995" lon="7.561237295285784"><ele>285.0</ele><time>2026-05-02T16:44:55Z</time></trkpt><trkpt lat="45.03994050813272" lon="7.560823987371382"><ele>286.0</ele><time>2026-05-02T16:44:56Z</time></trkpt><trkpt lat="45.04006005880352" lon="7.560401202608848"><ele>287.0</ele><time>2026-05-02T16:44:57Z</time></trkpt><trkpt lat="45.04017924710427" lon="7.559960499919336"><ele>288.0</ele><time>2026-05-02T16:44:58Z</time></trkpt><trkpt lat="45.040298882701826" lon="7.559504906150978"><ele>288.0</ele><time>2026-05-02T16:44:59Z</time></trkpt><trkpt lat="45.040426773999364" lon="7.559034974842623"><ele>288.0</ele><time>2026-05-02T16:45:00Z</time></trkpt><trkpt lat="45.04055814410707" lon="7.558561113549893"><ele>288.0</ele><time>2026-05-02T16:45:01Z</time></trkpt><trkpt lat="45.040689271729775" lon="7.558083417349555"><ele>288.0</ele><time>2026-05-02T16:45:02Z</time></trkpt><trkpt lat="45.04081745919916" lon="7.55760108050885"><ele>289.0</ele><time>2026-05-02T16:45:03Z</time></trkpt><trkpt lat="45.04094945574237" lon="7.557119801087831"><ele>290.0</ele><time>2026-05-02T16:45:04Z</time></trkpt><trkpt lat="45.04108402520324" lon="7.556646152565498"><ele>290.0</ele><time>2026-05-02T16:45:05Z</time></trkpt><trkpt lat="45.041213712482715" lon="7.556168302681886"><ele>290.0</ele><time>2026-05-02T16:45:06Z</time></trkpt><trkpt lat="45.041342275210376" lon="7.555692799376115"><ele>289.5</ele><time>2026-05-02T16:45:07Z</time></trkpt><trkpt lat="45.041474166076284" lon="7.555232040450457"><ele>289.0</ele><time>2026-05-02T16:45:08Z</time></trkpt><trkpt lat="45.041612692148284" lon="7.554788876196509"><ele>289.5</ele><time>2026-05-02T16:45:09Z</time></trkpt><trkpt lat="45.041759131581316" lon="7.5543638597099845"><ele>290.0</ele><time>2026-05-02T16:45:10Z</time></trkpt><trkpt lat="45.04191079313993" lon="7.553967362393735"><ele>290.5</ele><time>2026-05-02T16:45:11Z</time></trkpt><trkpt lat="45.042070812933844" lon="7.553590472405433"><ele>291.0</ele><time>2026-05-02T16:45:12Z</time></trkpt><trkpt lat="45.042232210781386" lon="7.5532281104151355"><ele>291.0</ele><time>2026-05-02T16:45:13Z</time></trkpt><trkpt lat="45.04239692261748" lon="7.552883501948058"><ele>291.0</ele><time>2026-05-02T16:45:14Z</time></trkpt><trkpt lat="45.04257427408694" lon="7.552546116822925"><ele>292.5</ele><time>2026-05-02T16:45:15Z</time></trkpt><trkpt lat="45.042757300054596" lon="7.5522150663671015"><ele>294.0</ele><time>2026-05-02T16:45:16Z</time></trkpt><trkpt lat="45.042946750471934" lon="7.551895129714116"><ele>294.0</ele><time>2026-05-02T16:45:17Z</time></trkpt><trkpt lat="45.043142721497865" lon="7.551587696775845"><ele>294.0</ele><time>2026-05-02T16:45:18Z</time></trkpt><trkpt lat="45.043342001877384" lon="7.551286503184604"><ele>294.5</ele><time>2026-05-02T16:45:19Z</time></trkpt><trkpt lat="45.04355198892364" lon="7.550996235194066"><ele>295.0</ele><time>2026-05-02T16:45:20Z</time></trkpt><trkpt lat="45.04376901668652" lon="7.550717985679926"><ele>295.0</ele><time>2026-05-02T16:45:21Z</time></trkpt><trkpt lat="45.043988551397995" lon="7.550452441035264"><ele>295.0</ele><time>2026-05-02T16:45:22Z</time></trkpt><trkpt lat="45.04421572644777" lon="7.550193341547788"><ele>293.0</ele><time>2026-05-02T16:45:23Z</time></trkpt><trkpt lat="45.04445169818733" lon="7.549944941821106"><ele>291.0</ele><time>2026-05-02T16:45:24Z</time></trkpt><trkpt lat="45.044693629605625" lon="7.549704567156895"><ele>293.0</ele><time>2026-05-02T16:45:25Z</time></trkpt><trkpt lat="45.04494205154097" lon="7.549472025604259"><ele>295.0</ele><time>2026-05-02T16:45:26Z</time></trkpt><trkpt lat="45.045196050704206" lon="7.549248637388482"><ele>296.0</ele><time>2026-05-02T16:45:27Z</time></trkpt><trkpt lat="45.045457566339586" lon="7.549038870037678"><ele>297.0</ele><time>2026-05-02T16:45:28Z</time></trkpt><trkpt lat="45.04572505477143" lon="7.5488382115250525"><ele>297.5</ele><time>2026-05-02T16:45:29Z</time></trkpt><trkpt lat="45.046008504139586" lon="7.5486424864882"><ele>298.0</ele><time>2026-05-02T16:45:30Z</time></trkpt><trkpt lat="45.046309463218606" lon="7.548458390644003"><ele>298.0</ele><time>2026-05-02T16:45:31Z</time></trkpt><trkpt lat="45.046622816627796" lon="7.548286196382654"><ele>298.0</ele><time>2026-05-02T16:45:32Z</time></trkpt><trkpt lat="45.04694696256799" lon="7.548128620034893"><ele>297.0</ele><time>2026-05-02T16:45:33Z</time></trkpt><trkpt lat="45.04727886687121" lon="7.547992294312239"><ele>296.0</ele><time>2026-05-02T16:45:34Z</time></trkpt><trkpt lat="45.047615911918406" lon="7.547864789481042"><ele>298.0</ele><time>2026-05-02T16:45:35Z</time></trkpt><trkpt lat="45.04795488949571" lon="7.547744224812092"><ele>300.0</ele><time>2026-05-02T16:45:36Z</time></trkpt><trkpt lat="45.04829488612955" lon="7.547631784751767"><ele>300.5</ele><time>2026-05-02T16:45:37Z</time></trkpt><trkpt lat="45.04863117715125" lon="7.54751421937049"><ele>301.0</ele><time>2026-05-02T16:45:38Z</time></trkpt><trkpt lat="45.04895803174769" lon="7.547394727850848"><ele>301.0</ele><time>2026-05-02T16:45:39Z</time></trkpt><trkpt lat="45.04927110730109" lon="7.547286247252278"><ele>301.0</ele><time>2026-05-02T16:45:40Z</time></trkpt><trkpt lat="45.04957274940034" lon="7.54718412568502"><ele>301.0</ele><time>2026-05-02T16:45:41Z</time></trkpt><trkpt lat="45.04988051082953" lon="7.5470724092213635"><ele>301.0</ele><time>2026-05-02T16:45:42Z</time></trkpt><trkpt lat="45.050189478640085" lon="7.546963916338364"><ele>302.5</ele><time>2026-05-02T16:45:43Z</time></trkpt><trkpt lat="45.05049889058166" lon="7.546860131752243"><ele>304.0</ele><time>2026-05-02T16:45:44Z</time></trkpt><trkpt lat="45.05080819373832" lon="7.5467550070303515"><ele>304.5</ele><time>2026-05-02T16:45:45Z</time></trkpt><trkpt lat="45.051116008871475" lon="7.546650778782236"><ele>305.0</ele><time>2026-05-02T16:45:46Z</time></trkpt><trkpt lat="45.051418002881945" lon="7.546545484968521"><ele>306.5</ele><time>2026-05-02T16:45:47Z</time></trkpt><trkpt lat="45.05171759380934" lon="7.546442575265831"><ele>308.0</ele><time>2026-05-02T16:45:48Z</time></trkpt><trkpt lat="45.05201460834268" lon="7.546340838833502"><ele>308.0</ele><time>2026-05-02T16:45:49Z</time></trkpt><trkpt lat="45.05232088137703" lon="7.546238400572194"><ele>308.0</ele><time>2026-05-02T16:45:50Z</time></trkpt><trkpt lat="45.05262356279347" lon="7.546133968109869"><ele>307.5</ele><time>2026-05-02T16:45:51Z</time></trkpt><trkpt lat="45.052914592476604" lon="7.546031413658062"><ele>307.0</ele><time>2026-05-02T16:45:52Z</time></trkpt><trkpt lat="45.05321320179198" lon="7.5459291047411385"><ele>307.5</ele><time>2026-05-02T16:45:53Z</time></trkpt><trkpt lat="45.05351961867226" lon="7.545828986624527"><ele>308.0</ele><time>2026-05-02T16:45:54Z</time></trkpt><trkpt lat="45.05383510219622" lon="7.545725126750623"><ele>308.0</ele><time>2026-05-02T16:45:55Z</time></trkpt><trkpt lat="45.05415503978626" lon="7.545622482543227"><ele>308.0</ele><time>2026-05-02T16:45:56Z</time></trkpt><trkpt lat="45.05447143024555" lon="7.545515180840477"><ele>308.0</ele><time>2026-05-02T16:45:57Z</time></trkpt><trkpt lat="45.054785452482065" lon="7.545404655779023"><ele>308.0</ele><time>2026-05-02T16:45:58Z</time></trkpt><trkpt lat="45.05509904937373" lon="7.54529602791475"><ele>308.0</ele><time>2026-05-02T16:45:59Z</time></trkpt><trkpt lat="45.05540649583555" lon="7.545188886120216"><ele>308.0</ele><time>2026-05-02T16:46:00Z</time></trkpt><trkpt lat="45.05572294623935" lon="7.545078260050906"><ele>307.5</ele><time>2026-05-02T16:46:01Z</time></trkpt><trkpt lat="45.05607015058125" lon="7.54495017548993"><ele>307.0</ele><time>2026-05-02T16:46:02Z</time></trkpt><trkpt lat="45.05642405454507" lon="7.544812025921831"><ele>308.0</ele><time>2026-05-02T16:46:03Z</time></trkpt><trkpt lat="45.05678821078068" lon="7.544682859557081"><ele>309.0</ele><time>2026-05-02T16:46:04Z</time></trkpt><trkpt lat="45.05715657045406" lon="7.544558286824216"><ele>310.0</ele><time>2026-05-02T16:46:05Z</time></trkpt><trkpt lat="45.057528544399325" lon="7.544424504429348"><ele>311.0</ele><time>2026-05-02T16:46:06Z</time></trkpt><trkpt lat="45.057902032213896" lon="7.544293650033188"><ele>311.0</ele><time>2026-05-02T16:46:07Z</time></trkpt><trkpt lat="45.05827057081395" lon="7.544162007426965"><ele>311.0</ele><time>2026-05-02T16:46:08Z</time></trkpt><trkpt lat="45.05863505439413" lon="7.544030584573643"><ele>311.0</ele><time>2026-05-02T16:46:09Z</time></trkpt><trkpt lat="45.05899807587641" lon="7.543902521141817"><ele>311.0</ele><time>2026-05-02T16:46:10Z</time></trkpt><trkpt lat="45.05935476542968" lon="7.543780367234915"><ele>312.5</ele><time>2026-05-02T16:46:11Z</time></trkpt><trkpt lat="45.05970792702683" lon="7.543662120971108"><ele>314.0</ele><time>2026-05-02T16:46:12Z</time></trkpt><trkpt lat="45.06005692476707" lon="7.543559774126083"><ele>314.0</ele><time>2026-05-02T16:46:13Z</time></trkpt><trkpt lat="45.0604060758779" lon="7.543477246783985"><ele>314.0</ele><time>2026-05-02T16:46:14Z</time></trkpt><trkpt lat="45.060755267780344" lon="7.543415335082223"><ele>313.5</ele><time>2026-05-02T16:46:15Z</time></trkpt><trkpt lat="45.06110235826025" lon="7.54338068738081"><ele>313.0</ele><time>2026-05-02T16:46:16Z</time></trkpt><trkpt lat="45.06144503044172" lon="7.5433670601333205"><ele>313.5</ele><time>2026-05-02T16:46:17Z</time></trkpt><trkpt lat="45.06178788092505" lon="7.543372139405755"><ele>314.0</ele><time>2026-05-02T16:46:18Z</time></trkpt><trkpt lat="45.06212322335519" lon="7.543404860877769"><ele>314.0</ele><time>2026-05-02T16:46:19Z</time></trkpt><trkpt lat="45.06243699907524" lon="7.5434539682748705"><ele>314.0</ele><time>2026-05-02T16:46:20Z</time></trkpt><trkpt lat="45.062733431758794" lon="7.543516394234067"><ele>314.5</ele><time>2026-05-02T16:46:21Z</time></trkpt><trkpt lat="45.063027630275805" lon="7.5435875756545325"><ele>315.0</ele><time>2026-05-02T16:46:22Z</time></trkpt><trkpt lat="45.0633270817933" lon="7.543675376407447"><ele>315.0</ele><time>2026-05-02T16:46:23Z</time></trkpt><trkpt lat="45.063627235514964" lon="7.543767021714881"><ele>315.0</ele><time>2026-05-02T16:46:24Z</time></trkpt><trkpt lat="45.06392129680658" lon="7.543858980715595"><ele>316.0</ele><time>2026-05-02T16:46:25Z</time></trkpt><trkpt lat="45.064222256732464" lon="7.54394614579916"><ele>317.0</ele><time>2026-05-02T16:46:26Z</time></trkpt><trkpt lat="45.06452173128993" lon="7.544042861133543"><ele>317.0</ele><time>2026-05-02T16:46:27Z</time></trkpt><trkpt lat="45.06485433717189" lon="7.544147479556968"><ele>317.0</ele><time>2026-05-02T16:46:28Z</time></trkpt><trkpt lat="45.06519899450606" lon="7.544248229374835"><ele>317.5</ele><time>2026-05-02T16:46:29Z</time></trkpt><trkpt lat="45.065546036367245" lon="7.54435559868573"><ele>318.0</ele><time>2026-05-02T16:46:30Z</time></trkpt><trkpt lat="45.06589414488554" lon="7.544468404461226"><ele>317.5</ele><time>2026-05-02T16:46:31Z</time></trkpt><trkpt lat="45.06624793517919" lon="7.544578270529498"><ele>317.0</ele><time>2026-05-02T16:46:32Z</time></trkpt><trkpt lat="45.06660514771058" lon="7.544689817988697"><ele>318.0</ele><time>2026-05-02T16:46:33Z</time></trkpt><trkpt lat="45.0669688650903" lon="7.544794822000409"><ele>319.0</ele><time>2026-05-02T16:46:34Z</time></trkpt><trkpt lat="45.067333463556416" lon="7.54490466223594"><ele>319.0</ele><time>2026-05-02T16:46:35Z</time></trkpt><trkpt lat="45.06770007140222" lon="7.5450168609378165"><ele>319.0</ele><time>2026-05-02T16:46:36Z</time></trkpt><trkpt lat="45.06806647786083" lon="7.545132310982844"><ele>320.5</ele><time>2026-05-02T16:46:37Z</time></trkpt><trkpt lat="45.06843275036103" lon="7.545246778451581"><ele>322.0</ele><time>2026-05-02T16:46:38Z</time></trkpt><trkpt lat="45.068800383631654" lon="7.545366640198504"><ele>322.5</ele><time>2026-05-02T16:46:39Z</time></trkpt><trkpt lat="45.06917807019228" lon="7.545484787397523"><ele>323.0</ele><time>2026-05-02T16:46:40Z</time></trkpt><trkpt lat="45.06955405007084" lon="7.5455987762436765"><ele>323.0</ele><time>2026-05-02T16:46:41Z</time></trkpt><trkpt lat="45.069912589429656" lon="7.545706912369007"><ele>323.0</ele><time>2026-05-02T16:46:42Z</time></trkpt><trkpt lat="45.07026125265871" lon="7.54581534962887"><ele>324.0</ele><time>2026-05-02T16:46:43Z</time></trkpt><trkpt lat="45.070611228235066" lon="7.545922793302595"><ele>325.0</ele><time>2026-05-02T16:46:44Z</time></trkpt><trkpt lat="45.07095483069012" lon="7.546027526480561"><ele>325.0</ele><time>2026-05-02T16:46:45Z</time></trkpt><trkpt lat="45.07129805980024" lon="7.54613392969669"><ele>325.0</ele><time>2026-05-02T16:46:46Z</time></trkpt><trkpt lat="45.07163780699275" lon="7.546236478066806"><ele>324.5</ele><time>2026-05-02T16:46:47Z</time></trkpt><trkpt lat="45.07197933491047" lon="7.546338735486357"><ele>324.0</ele><time>2026-05-02T16:46:48Z</time></trkpt><trkpt lat="45.0723221221488" lon="7.546442620777279"><ele>323.5</ele><time>2026-05-02T16:46:49Z</time></trkpt><trkpt lat="45.07266258841481" lon="7.546547105383132"><ele>323.0</ele><time>2026-05-02T16:46:50Z</time></trkpt><trkpt lat="45.0730029667739" lon="7.546648999931629"><ele>324.5</ele><time>2026-05-02T16:46:51Z</time></trkpt><trkpt lat="45.07334140221467" lon="7.546752563416064"><ele>326.0</ele><time>2026-05-02T16:46:52Z</time></trkpt><trkpt lat="45.07368031720339" lon="7.546859815742818"><ele>326.0</ele><time>2026-05-02T16:46:53Z</time></trkpt><trkpt lat="45.07401638202521" lon="7.54696807161013"><ele>326.0</ele><time>2026-05-02T16:46:54Z</time></trkpt><trkpt lat="45.0743535597197" lon="7.54708055950684"><ele>325.0</ele><time>2026-05-02T16:46:55Z</time></trkpt><trkpt lat="45.074690515373845" lon="7.5471883028581415"><ele>324.0</ele><time>2026-05-02T16:46:56Z</time></trkpt><trkpt lat="45.07502895995034" lon="7.547292403703191"><ele>324.0</ele><time>2026-05-02T16:46:57Z</time></trkpt><trkpt lat="45.07537445315791" lon="7.547396521760724"><ele>324.0</ele><time>2026-05-02T16:46:58Z</time></trkpt><trkpt lat="45.07572347654163" lon="7.547499214173144"><ele>326.0</ele><time>2026-05-02T16:46:59Z</time></trkpt><trkpt lat="45.076063057192" lon="7.547604675231538"><ele>328.0</ele><time>2026-05-02T16:47:00Z</time></trkpt><trkpt lat="45.07637611637224" lon="7.547705835557112"><ele>328.0</ele><time>2026-05-02T16:47:01Z</time></trkpt><trkpt lat="45.07667989544758" lon="7.547803701412511"><ele>328.0</ele><time>2026-05-02T16:47:02Z</time></trkpt><trkpt lat="45.076989732345254" lon="7.547905708738484"><ele>326.0</ele><time>2026-05-02T16:47:03Z</time></trkpt><trkpt lat="45.077289377834425" lon="7.548003754639667"><ele>324.0</ele><time>2026-05-02T16:47:04Z</time></trkpt><trkpt lat="45.077592417970806" lon="7.548099283008093"><ele>323.5</ele><time>2026-05-02T16:47:05Z</time></trkpt><trkpt lat="45.07789914175892" lon="7.548192250924258"><ele>323.0</ele><time>2026-05-02T16:47:06Z</time></trkpt><trkpt lat="45.07821544296372" lon="7.548287401070831"><ele>323.5</ele><time>2026-05-02T16:47:07Z</time></trkpt><trkpt lat="45.07853645797142" lon="7.548386695956978"><ele>324.0</ele><time>2026-05-02T16:47:08Z</time></trkpt><trkpt lat="45.07885686116444" lon="7.548487721316914"><ele>323.5</ele><time>2026-05-02T16:47:09Z</time></trkpt><trkpt lat="45.07915924492211" lon="7.548584547229324"><ele>323.0</ele><time>2026-05-02T16:47:10Z</time></trkpt><trkpt lat="45.07945002279912" lon="7.548686369357314"><ele>322.0</ele><time>2026-05-02T16:47:11Z</time></trkpt><trkpt lat="45.07971709965171" lon="7.548819047932446"><ele>321.0</ele><time>2026-05-02T16:47:12Z</time></trkpt><trkpt lat="45.07994625117942" lon="7.5489781676428365"><ele>320.0</ele><time>2026-05-02T16:47:13Z</time></trkpt><trkpt lat="45.08017536894028" lon="7.549174097344508"><ele>319.0</ele><time>2026-05-02T16:47:14Z</time></trkpt><trkpt lat="45.08038268890678" lon="7.5494347661771"><ele>319.5</ele><time>2026-05-02T16:47:15Z</time></trkpt><trkpt lat="45.080583094152395" lon="7.549706661457165"><ele>320.0</ele><time>2026-05-02T16:47:16Z</time></trkpt><trkpt lat="45.080774731040805" lon="7.549993576008091"><ele>320.0</ele><time>2026-05-02T16:47:17Z</time></trkpt><trkpt lat="45.08092803845899" lon="7.5503184351442165"><ele>320.0</ele><time>2026-05-02T16:47:18Z</time></trkpt><trkpt lat="45.08106515612582" lon="7.550667486033242"><ele>317.5</ele><time>2026-05-02T16:47:19Z</time></trkpt><trkpt lat="45.08117829336876" lon="7.551040092104392"><ele>315.0</ele><time>2026-05-02T16:47:20Z</time></trkpt><trkpt lat="45.08127162212526" lon="7.551424559087349"><ele>313.5</ele><time>2026-05-02T16:47:21Z</time></trkpt><trkpt lat="45.08136534772747" lon="7.551801505628196"><ele>312.0</ele><time>2026-05-02T16:47:22Z</time></trkpt><trkpt lat="45.08146064221963" lon="7.552169297161668"><ele>310.5</ele><time>2026-05-02T16:47:23Z</time></trkpt><trkpt lat="45.081560305966626" lon="7.552545928885005"><ele>309.0</ele><time>2026-05-02T16:47:24Z</time></trkpt><trkpt lat="45.08167100669156" lon="7.55291790349084"><ele>312.5</ele><time>2026-05-02T16:47:25Z</time></trkpt><trkpt lat="45.08179136739334" lon="7.5532882892843345"><ele>316.0</ele><time>2026-05-02T16:47:26Z</time></trkpt><trkpt lat="45.081919518058" lon="7.5536568430863955"><ele>315.5</ele><time>2026-05-02T16:47:27Z</time></trkpt><trkpt lat="45.08206090966453" lon="7.554025574892551"><ele>315.0</ele><time>2026-05-02T16:47:28Z</time></trkpt><trkpt lat="45.08220245587587" lon="7.554390359825166"><ele>315.0</ele><time>2026-05-02T16:47:29Z</time></trkpt><trkpt lat="45.08235791257467" lon="7.554755797728711"><ele>315.0</ele><time>2026-05-02T16:47:30Z</time></trkpt><trkpt lat="45.082533946403295" lon="7.555114387087864"><ele>316.0</ele><time>2026-05-02T16:47:31Z</time></trkpt><trkpt lat="45.082717396949626" lon="7.555468138240772"><ele>317.0</ele><time>2026-05-02T16:47:32Z</time></trkpt><trkpt lat="45.08291288915693" lon="7.5558153896448"><ele>317.0</ele><time>2026-05-02T16:47:33Z</time></trkpt><trkpt lat="45.08311708578292" lon="7.55615401461735"><ele>317.0</ele><time>2026-05-02T16:47:34Z</time></trkpt><trkpt lat="45.08333088992406" lon="7.556487848421739"><ele>316.0</ele><time>2026-05-02T16:47:35Z</time></trkpt><trkpt lat="45.0835682187967" lon="7.556836160242277"><ele>315.0</ele><time>2026-05-02T16:47:36Z</time></trkpt><trkpt lat="45.08383726131948" lon="7.557200802509479"><ele>314.0</ele><time>2026-05-02T16:47:37Z</time></trkpt><trkpt lat="45.08412815698414" lon="7.557571627238044"><ele>313.0</ele><time>2026-05-02T16:47:38Z</time></trkpt><trkpt lat="45.0844322064201" lon="7.557949304064933"><ele>313.0</ele><time>2026-05-02T16:47:39Z</time></trkpt><trkpt lat="45.084768403045764" lon="7.5583470531084975"><ele>313.0</ele><time>2026-05-02T16:47:40Z</time></trkpt><trkpt lat="45.08507099168778" lon="7.5587824044938445"><ele>313.5</ele><time>2026-05-02T16:47:41Z</time></trkpt><trkpt lat="45.085387729488495" lon="7.559190391260279"><ele>314.0</ele><time>2026-05-02T16:47:42Z</time></trkpt><trkpt lat="45.085678401331855" lon="7.559554301258646"><ele>312.5</ele><time>2026-05-02T16:47:43Z</time></trkpt><trkpt lat="45.08596119727843" lon="7.559907340414922"><ele>311.0</ele><time>2026-05-02T16:47:44Z</time></trkpt><trkpt lat="45.08625302986632" lon="7.5602759797300605"><ele>312.0</ele><time>2026-05-02T16:47:45Z</time></trkpt><trkpt lat="45.086543347361335" lon="7.5606421660367396"><ele>313.0</ele><time>2026-05-02T16:47:46Z</time></trkpt><trkpt lat="45.08682581039207" lon="7.560995206305136"><ele>307.5</ele><time>2026-05-02T16:47:47Z</time></trkpt><trkpt lat="45.0870939433682" lon="7.5613311906909955"><ele>302.0</ele><time>2026-05-02T16:47:48Z</time></trkpt><trkpt lat="45.08736554740828" lon="7.561663450382945"><ele>300.0</ele><time>2026-05-02T16:47:49Z</time></trkpt><trkpt lat="45.087626635255" lon="7.562006921005498"><ele>298.0</ele><time>2026-05-02T16:47:50Z</time></trkpt><trkpt lat="45.08790588415006" lon="7.562350213277241"><ele>297.5</ele><time>2026-05-02T16:47:51Z</time></trkpt><trkpt lat="45.08818085270217" lon="7.562693462061624"><ele>297.0</ele><time>2026-05-02T16:47:52Z</time></trkpt><trkpt lat="45.08845375883787" lon="7.56303759877519"><ele>295.0</ele><time>2026-05-02T16:47:53Z</time></trkpt><trkpt lat="45.088721675813055" lon="7.563375183402339"><ele>293.0</ele><time>2026-05-02T16:47:54Z</time></trkpt><trkpt lat="45.088991390059654" lon="7.563708907062079"><ele>293.5</ele><time>2026-05-02T16:47:55Z</time></trkpt><trkpt lat="45.089257051763546" lon="7.564051484485831"><ele>294.0</ele><time>2026-05-02T16:47:56Z</time></trkpt><trkpt lat="45.08952746345629" lon="7.564396557224599"><ele>293.5</ele><time>2026-05-02T16:47:57Z</time></trkpt><trkpt lat="45.08980295101825" lon="7.564746551925147"><ele>293.0</ele><time>2026-05-02T16:47:58Z</time></trkpt><trkpt lat="45.09009427577383" lon="7.565108318453554"><ele>292.5</ele><time>2026-05-02T16:47:59Z</time></trkpt><trkpt lat="45.090387134368925" lon="7.565484290144365"><ele>292.0</ele><time>2026-05-02T16:48:00Z</time></trkpt><trkpt lat="45.090697011429725" lon="7.565876963881016"><ele>293.5</ele><time>2026-05-02T16:48:01Z</time></trkpt><trkpt lat="45.091003337422464" lon="7.566267039482096"><ele>295.0</ele><time>2026-05-02T16:48:02Z</time></trkpt><trkpt lat="45.09130832499468" lon="7.566647970978389"><ele>296.0</ele><time>2026-05-02T16:48:03Z</time></trkpt><trkpt lat="45.09161563938423" lon="7.5670237105560405"><ele>297.0</ele><time>2026-05-02T16:48:04Z</time></trkpt><trkpt lat="45.09191404702649" lon="7.567399536545995"><ele>297.0</ele><time>2026-05-02T16:48:05Z</time></trkpt><trkpt lat="45.09221045386523" lon="7.567775214391099"><ele>297.0</ele><time>2026-05-02T16:48:06Z</time></trkpt><trkpt lat="45.09250506553409" lon="7.568152247603084"><ele>297.5</ele><time>2026-05-02T16:48:07Z</time></trkpt><trkpt lat="45.09279730867603" lon="7.568525839422476"><ele>298.0</ele><time>2026-05-02T16:48:08Z</time></trkpt><trkpt lat="45.09309320500332" lon="7.568893827418652"><ele>299.5</ele><time>2026-05-02T16:48:09Z</time></trkpt><trkpt lat="45.09338772454641" lon="7.569267462093462"><ele>301.0</ele><time>2026-05-02T16:48:10Z</time></trkpt><trkpt lat="45.093683399469334" lon="7.569637907416096"><ele>301.0</ele><time>2026-05-02T16:48:11Z</time></trkpt><trkpt lat="45.093983294632835" lon="7.570010119741718"><ele>301.0</ele><time>2026-05-02T16:48:12Z</time></trkpt><trkpt lat="45.09428261059836" lon="7.570386484000894"><ele>300.0</ele><time>2026-05-02T16:48:13Z</time></trkpt><trkpt lat="45.09458576459378" lon="7.57077172774612"><ele>299.0</ele><time>2026-05-02T16:48:14Z</time></trkpt><trkpt lat="45.09488407443882" lon="7.571150222967354"><ele>298.0</ele><time>2026-05-02T16:48:15Z</time></trkpt><trkpt lat="45.09518067597126" lon="7.571525618849981"><ele>297.0</ele><time>2026-05-02T16:48:16Z</time></trkpt><trkpt lat="45.09545760690239" lon="7.571872292843711"><ele>296.5</ele><time>2026-05-02T16:48:17Z</time></trkpt><trkpt lat="45.09572105374623" lon="7.5721879528181075"><ele>296.0</ele><time>2026-05-02T16:48:18Z</time></trkpt><trkpt lat="45.095981849912754" lon="7.572529716032491"><ele>296.5</ele><time>2026-05-02T16:48:19Z</time></trkpt><trkpt lat="45.0962464391994" lon="7.572878067190774"><ele>297.0</ele><time>2026-05-02T16:48:20Z</time></trkpt><trkpt lat="45.09650167409013" lon="7.573247172038618"><ele>296.5</ele><time>2026-05-02T16:48:21Z</time></trkpt><trkpt lat="45.096746711919586" lon="7.5736266734562925"><ele>296.0</ele><time>2026-05-02T16:48:22Z</time></trkpt><trkpt lat="45.09698363916067" lon="7.574020124906076"><ele>296.0</ele><time>2026-05-02T16:48:23Z</time></trkpt><trkpt lat="45.097210523202165" lon="7.574430353818925"><ele>296.0</ele><time>2026-05-02T16:48:24Z</time></trkpt><trkpt lat="45.097430019297846" lon="7.574854397458413"><ele>296.0</ele><time>2026-05-02T16:48:25Z</time></trkpt><trkpt lat="45.097645447053324" lon="7.575291839665713"><ele>296.0</ele><time>2026-05-02T16:48:26Z</time></trkpt><trkpt lat="45.09785274803429" lon="7.5757407462611175"><ele>295.0</ele><time>2026-05-02T16:48:27Z</time></trkpt><trkpt lat="45.098048531029704" lon="7.576202684775376"><ele>294.0</ele><time>2026-05-02T16:48:28Z</time></trkpt><trkpt lat="45.098232253042745" lon="7.576679366599555"><ele>294.5</ele><time>2026-05-02T16:48:29Z</time></trkpt><trkpt lat="45.09840408221469" lon="7.577173246129192"><ele>295.0</ele><time>2026-05-02T16:48:30Z</time></trkpt><trkpt lat="45.09856283056065" lon="7.577681657688942"><ele>294.5</ele><time>2026-05-02T16:48:31Z</time></trkpt><trkpt lat="45.09871610468333" lon="7.5782205277583055"><ele>294.0</ele><time>2026-05-02T16:48:32Z</time></trkpt><trkpt lat="45.098871514828026" lon="7.578795518462686"><ele>293.0</ele><time>2026-05-02T16:48:33Z</time></trkpt><trkpt lat="45.099021069874375" lon="7.579353698064571"><ele>292.0</ele><time>2026-05-02T16:48:34Z</time></trkpt><trkpt lat="45.09916705680739" lon="7.579896684905512"><ele>291.0</ele><time>2026-05-02T16:48:35Z</time></trkpt><trkpt lat="45.09931433956668" lon="7.5804219487748625"><ele>290.0</ele><time>2026-05-02T16:48:36Z</time></trkpt><trkpt lat="45.09946081014259" lon="7.580935130838606"><ele>289.0</ele><time>2026-05-02T16:48:37Z</time></trkpt><trkpt lat="45.0996032037685" lon="7.581452211525085"><ele>288.0</ele><time>2026-05-02T16:48:38Z</time></trkpt><trkpt lat="45.09974455301483" lon="7.581964220846543"><ele>288.0</ele><time>2026-05-02T16:48:39Z</time></trkpt><trkpt lat="45.09988295600585" lon="7.582475731616826"><ele>288.0</ele><time>2026-05-02T16:48:40Z</time></trkpt><trkpt lat="45.100023176610016" lon="7.5829803807222165"><ele>288.0</ele><time>2026-05-02T16:48:41Z</time></trkpt><trkpt lat="45.10016235741618" lon="7.583483448590422"><ele>288.0</ele><time>2026-05-02T16:48:42Z</time></trkpt><trkpt lat="45.10029888154533" lon="7.583976377324647"><ele>287.5</ele><time>2026-05-02T16:48:43Z</time></trkpt><trkpt lat="45.10043355956451" lon="7.584466603967748"><ele>287.0</ele><time>2026-05-02T16:48:44Z</time></trkpt><trkpt lat="45.10057035990018" lon="7.584962063179441"><ele>287.0</ele><time>2026-05-02T16:48:45Z</time></trkpt><trkpt lat="45.10070922483434" lon="7.585459414117117"><ele>287.0</ele><time>2026-05-02T16:48:46Z</time></trkpt><trkpt lat="45.100846395560914" lon="7.585950798040754"><ele>287.0</ele><time>2026-05-02T16:48:47Z</time></trkpt><trkpt lat="45.100980591831544" lon="7.586440979034644"><ele>287.0</ele><time>2026-05-02T16:48:48Z</time></trkpt><trkpt lat="45.101115023739695" lon="7.586925556862733"><ele>286.5</ele><time>2026-05-02T16:48:49Z</time></trkpt><trkpt lat="45.10124838058505" lon="7.587407909028254"><ele>286.0</ele><time>2026-05-02T16:48:50Z</time></trkpt><trkpt lat="45.10138013502976" lon="7.587879318558418"><ele>286.0</ele><time>2026-05-02T16:48:51Z</time></trkpt><trkpt lat="45.10150374402059" lon="7.5883290141251125"><ele>286.0</ele><time>2026-05-02T16:48:52Z</time></trkpt><trkpt lat="45.1016225976925" lon="7.588767520650546"><ele>285.0</ele><time>2026-05-02T16:48:53Z</time></trkpt><trkpt lat="45.10174920935789" lon="7.589225331355293"><ele>284.0</ele><time>2026-05-02T16:48:54Z</time></trkpt><trkpt lat="45.10187505834762" lon="7.589673403350183"><ele>284.5</ele><time>2026-05-02T16:48:55Z</time></trkpt><trkpt lat="45.10199222024256" lon="7.5900956081628035"><ele>285.0</ele><time>2026-05-02T16:48:56Z</time></trkpt><trkpt lat="45.10210209866737" lon="7.59049373820951"><ele>285.0</ele><time>2026-05-02T16:48:57Z</time></trkpt><trkpt lat="45.10220850564618" lon="7.590895230909546"><ele>285.0</ele><time>2026-05-02T16:48:58Z</time></trkpt><trkpt lat="45.10232247710132" lon="7.591324018803688"><ele>285.5</ele><time>2026-05-02T16:48:59Z</time></trkpt><trkpt lat="45.102445125119985" lon="7.591764165095393"><ele>286.0</ele><time>2026-05-02T16:49:00Z</time></trkpt><trkpt lat="45.10255864608914" lon="7.592171572588362"><ele>284.5</ele><time>2026-05-02T16:49:01Z</time></trkpt><trkpt lat="45.10266256263797" lon="7.592557177169643"><ele>283.0</ele><time>2026-05-02T16:49:02Z</time></trkpt><trkpt lat="45.10277472162291" lon="7.592957403455902"><ele>283.0</ele><time>2026-05-02T16:49:03Z</time></trkpt><trkpt lat="45.102883063326296" lon="7.593359100388271"><ele>283.0</ele><time>2026-05-02T16:49:04Z</time></trkpt><trkpt lat="45.10299443656835" lon="7.5937673612927625"><ele>283.0</ele><time>2026-05-02T16:49:05Z</time></trkpt><trkpt lat="45.10310525581159" lon="7.594166305608695"><ele>283.0</ele><time>2026-05-02T16:49:06Z</time></trkpt><trkpt lat="45.10321640047387" lon="7.594562022832214"><ele>282.5</ele><time>2026-05-02T16:49:07Z</time></trkpt><trkpt lat="45.103320934791874" lon="7.594941023141735"><ele>282.0</ele><time>2026-05-02T16:49:08Z</time></trkpt><trkpt lat="45.10342493895894" lon="7.595314584389627"><ele>282.5</ele><time>2026-05-02T16:49:09Z</time></trkpt><trkpt lat="45.103523787558316" lon="7.595680591390938"><ele>283.0</ele><time>2026-05-02T16:49:10Z</time></trkpt><trkpt lat="45.10362585207419" lon="7.596049972769588"><ele>282.5</ele><time>2026-05-02T16:49:11Z</time></trkpt><trkpt lat="45.103731761705006" lon="7.596426027545939"><ele>282.0</ele><time>2026-05-02T16:49:12Z</time></trkpt><trkpt lat="45.10384049164384" lon="7.596814472212665"><ele>281.0</ele><time>2026-05-02T16:49:13Z</time></trkpt><trkpt lat="45.10394903414444" lon="7.597208313783772"><ele>280.0</ele><time>2026-05-02T16:49:14Z</time></trkpt><trkpt lat="45.10405986465676" lon="7.597607649796721"><ele>281.0</ele><time>2026-05-02T16:49:15Z</time></trkpt><trkpt lat="45.10417211554421" lon="7.598014971038935"><ele>282.0</ele><time>2026-05-02T16:49:16Z</time></trkpt><trkpt lat="45.104286599176596" lon="7.598438247699015"><ele>281.0</ele><time>2026-05-02T16:49:17Z</time></trkpt><trkpt lat="45.10440440493856" lon="7.598866970802138"><ele>280.0</ele><time>2026-05-02T16:49:18Z</time></trkpt><trkpt lat="45.104527596586" lon="7.599308249514007"><ele>279.0</ele><time>2026-05-02T16:49:19Z</time></trkpt><trkpt lat="45.10465612246323" lon="7.5997565635038775"><ele>278.0</ele><time>2026-05-02T16:49:20Z</time></trkpt><trkpt lat="45.10478322370598" lon="7.600216665663045"><ele>277.5</ele><time>2026-05-02T16:49:21Z</time></trkpt><trkpt lat="45.104908309804486" lon="7.600672681848093"><ele>277.0</ele><time>2026-05-02T16:49:22Z</time></trkpt><trkpt lat="45.10503498102746" lon="7.6011362172126535"><ele>277.0</ele><time>2026-05-02T16:49:23Z</time></trkpt><trkpt lat="45.10516594111945" lon="7.601604024736804"><ele>277.0</ele><time>2026-05-02T16:49:24Z</time></trkpt><trkpt lat="45.10530164829447" lon="7.60208065978904"><ele>277.0</ele><time>2026-05-02T16:49:25Z</time></trkpt><trkpt lat="45.105442015150416" lon="7.6025598791321585"><ele>277.0</ele><time>2026-05-02T16:49:26Z</time></trkpt><trkpt lat="45.10558859292136" lon="7.603038410218435"><ele>277.0</ele><time>2026-05-02T16:49:27Z</time></trkpt><trkpt lat="45.10574127518882" lon="7.6035075477485154"><ele>277.0</ele><time>2026-05-02T16:49:28Z</time></trkpt><trkpt lat="45.105899689797965" lon="7.603976795915509"><ele>277.0</ele><time>2026-05-02T16:49:29Z</time></trkpt><trkpt lat="45.10606118574399" lon="7.604441942622888"><ele>277.0</ele><time>2026-05-02T16:49:30Z</time></trkpt><trkpt lat="45.10622357018893" lon="7.604898197062439"><ele>277.0</ele><time>2026-05-02T16:49:31Z</time></trkpt><trkpt lat="45.10637954775405" lon="7.605320787841166"><ele>277.0</ele><time>2026-05-02T16:49:32Z</time></trkpt><trkpt lat="45.106531993486186" lon="7.605719730647243"><ele>277.0</ele><time>2026-05-02T16:49:33Z</time></trkpt><trkpt lat="45.10669209751392" lon="7.606131396463819"><ele>277.0</ele><time>2026-05-02T16:49:34Z</time></trkpt><trkpt lat="45.10685977832405" lon="7.6065571254704745"><ele>275.0</ele><time>2026-05-02T16:49:35Z</time></trkpt><trkpt lat="45.10703226332378" lon="7.606979516116461"><ele>273.0</ele><time>2026-05-02T16:49:36Z</time></trkpt><trkpt lat="45.10720927485681" lon="7.607400702075246"><ele>273.0</ele><time>2026-05-02T16:49:37Z</time></trkpt><trkpt lat="45.10739167376628" lon="7.607824954436165"><ele>273.0</ele><time>2026-05-02T16:49:38Z</time></trkpt><trkpt lat="45.10757895103283" lon="7.608248043943978"><ele>274.0</ele><time>2026-05-02T16:49:39Z</time></trkpt><trkpt lat="45.107772331523144" lon="7.608664108145158"><ele>275.0</ele><time>2026-05-02T16:49:40Z</time></trkpt><trkpt lat="45.10796669786684" lon="7.609070837924209"><ele>275.0</ele><time>2026-05-02T16:49:41Z</time></trkpt><trkpt lat="45.10815688647931" lon="7.6094711438542735"><ele>275.0</ele><time>2026-05-02T16:49:42Z</time></trkpt><trkpt lat="45.1083433082811" lon="7.609863685435887"><ele>274.0</ele><time>2026-05-02T16:49:43Z</time></trkpt><trkpt lat="45.10853147154978" lon="7.610259319521716"><ele>273.0</ele><time>2026-05-02T16:49:44Z</time></trkpt><trkpt lat="45.10872504807662" lon="7.610668557115902"><ele>273.0</ele><time>2026-05-02T16:49:45Z</time></trkpt><trkpt lat="45.108926654791944" lon="7.611093289689907"><ele>273.0</ele><time>2026-05-02T16:49:46Z</time></trkpt><trkpt lat="45.10912848946003" lon="7.6115156976976195"><ele>273.0</ele><time>2026-05-02T16:49:47Z</time></trkpt><trkpt lat="45.109328673152355" lon="7.611942581240527"><ele>273.0</ele><time>2026-05-02T16:49:48Z</time></trkpt><trkpt lat="45.10952832892154" lon="7.612364782345931"><ele>273.5</ele><time>2026-05-02T16:49:49Z</time></trkpt><trkpt lat="45.10972661989332" lon="7.612783948495504"><ele>274.0</ele><time>2026-05-02T16:49:50Z</time></trkpt><trkpt lat="45.10992233646391" lon="7.613194393435954"><ele>274.0</ele><time>2026-05-02T16:49:51Z</time></trkpt><trkpt lat="45.11011581587158" lon="7.613606628931677"><ele>274.0</ele><time>2026-05-02T16:49:52Z</time></trkpt><trkpt lat="45.11030959957184" lon="7.614016662042618"><ele>273.5</ele><time>2026-05-02T16:49:53Z</time></trkpt><trkpt lat="45.11050411744791" lon="7.614426998042342"><ele>273.0</ele><time>2026-05-02T16:49:54Z</time></trkpt><trkpt lat="45.11069766511864" lon="7.614838478508436"><ele>273.0</ele><time>2026-05-02T16:49:55Z</time></trkpt><trkpt lat="45.110892985035484" lon="7.615245559603405"><ele>273.0</ele><time>2026-05-02T16:49:56Z</time></trkpt><trkpt lat="45.11108758449743" lon="7.615653478568171"><ele>273.0</ele><time>2026-05-02T16:49:57Z</time></trkpt><trkpt lat="45.111280467137995" lon="7.616060269864576"><ele>273.0</ele><time>2026-05-02T16:49:58Z</time></trkpt><trkpt lat="45.111473831622405" lon="7.616465001324147"><ele>273.0</ele><time>2026-05-02T16:49:59Z</time></trkpt><trkpt lat="45.11166782512309" lon="7.616874826800368"><ele>273.0</ele><time>2026-05-02T16:50:00Z</time></trkpt><trkpt lat="45.11186021919123" lon="7.617288171765718"><ele>273.0</ele><time>2026-05-02T16:50:01Z</time></trkpt><trkpt lat="45.11205373148658" lon="7.617702734943038"><ele>273.0</ele><time>2026-05-02T16:50:02Z</time></trkpt><trkpt lat="45.11225080510146" lon="7.618116678631712"><ele>273.0</ele><time>2026-05-02T16:50:03Z</time></trkpt><trkpt lat="45.11244982873766" lon="7.618532165541453"><ele>273.0</ele><time>2026-05-02T16:50:04Z</time></trkpt><trkpt lat="45.112647429468275" lon="7.618947052516287"><ele>272.5</ele><time>2026-05-02T16:50:05Z</time></trkpt><trkpt lat="45.11284469204036" lon="7.619362379735994"><ele>272.0</ele><time>2026-05-02T16:50:06Z</time></trkpt><trkpt lat="45.11304020558213" lon="7.619774936814691"><ele>271.0</ele><time>2026-05-02T16:50:07Z</time></trkpt><trkpt lat="45.11323757165499" lon="7.620189647087889"><ele>270.0</ele><time>2026-05-02T16:50:08Z</time></trkpt><trkpt lat="45.113435049151704" lon="7.620600300701611"><ele>270.0</ele><time>2026-05-02T16:50:09Z</time></trkpt><trkpt lat="45.11362781997152" lon="7.62100913978878"><ele>270.0</ele><time>2026-05-02T16:50:10Z</time></trkpt><trkpt lat="45.113816721654246" lon="7.621411765967383"><ele>270.0</ele><time>2026-05-02T16:50:11Z</time></trkpt><trkpt lat="45.11399948922043" lon="7.621808364388019"><ele>270.0</ele><time>2026-05-02T16:50:12Z</time></trkpt><trkpt lat="45.114162797800375" lon="7.622200083819538"><ele>269.0</ele><time>2026-05-02T16:50:13Z</time></trkpt><trkpt lat="45.11434446031112" lon="7.622591646829818"><ele>268.0</ele><time>2026-05-02T16:50:14Z</time></trkpt><trkpt lat="45.11451446526709" lon="7.622977484542824"><ele>267.5</ele><time>2026-05-02T16:50:15Z</time></trkpt><trkpt lat="45.11468154731087" lon="7.62336716971525"><ele>267.0</ele><time>2026-05-02T16:50:16Z</time></trkpt><trkpt lat="45.11484698667157" lon="7.62375569005675"><ele>267.0</ele><time>2026-05-02T16:50:17Z</time></trkpt><trkpt lat="45.115006617216046" lon="7.624142029031939"><ele>267.0</ele><time>2026-05-02T16:50:18Z</time></trkpt><trkpt lat="45.11515599078549" lon="7.624508702263047"><ele>265.0</ele><time>2026-05-02T16:50:19Z</time></trkpt><trkpt lat="45.11529990421881" lon="7.624869859487685"><ele>263.0</ele><time>2026-05-02T16:50:20Z</time></trkpt><trkpt lat="45.115439303793586" lon="7.6252208263313355"><ele>263.0</ele><time>2026-05-02T16:50:21Z</time></trkpt><trkpt lat="45.11556404185796" lon="7.625559339035852"><ele>263.0</ele><time>2026-05-02T16:50:22Z</time></trkpt><trkpt lat="45.11569097123478" lon="7.625901659376989"><ele>263.5</ele><time>2026-05-02T16:50:23Z</time></trkpt><trkpt lat="45.11581784040025" lon="7.626241304832699"><ele>264.0</ele><time>2026-05-02T16:50:24Z</time></trkpt><trkpt lat="45.115939857714324" lon="7.62659039047663"><ele>264.0</ele><time>2026-05-02T16:50:25Z</time></trkpt><trkpt lat="45.11606103324227" lon="7.626963428944339"><ele>264.0</ele><time>2026-05-02T16:50:26Z</time></trkpt><trkpt lat="45.11617843307297" lon="7.627354416933719"><ele>264.0</ele><time>2026-05-02T16:50:27Z</time></trkpt><trkpt lat="45.116294800153575" lon="7.627755901498766"><ele>264.0</ele><time>2026-05-02T16:50:28Z</time></trkpt><trkpt lat="45.11641228846496" lon="7.6281616450094765"><ele>264.0</ele><time>2026-05-02T16:50:29Z</time></trkpt><trkpt lat="45.116536352081994" lon="7.628564053313194"><ele>264.0</ele><time>2026-05-02T16:50:30Z</time></trkpt><trkpt lat="45.116670671463915" lon="7.6289724312837"><ele>264.0</ele><time>2026-05-02T16:50:31Z</time></trkpt><trkpt lat="45.11680302955966" lon="7.629382458052928"><ele>264.0</ele><time>2026-05-02T16:50:32Z</time></trkpt><trkpt lat="45.11692897015129" lon="7.629803250775398"><ele>264.0</ele><time>2026-05-02T16:50:33Z</time></trkpt><trkpt lat="45.11705330374464" lon="7.630230271120116"><ele>264.0</ele><time>2026-05-02T16:50:34Z</time></trkpt><trkpt lat="45.117184731951525" lon="7.630657386169717"><ele>264.0</ele><time>2026-05-02T16:50:35Z</time></trkpt><trkpt lat="45.11731617980897" lon="7.6310851527542845"><ele>264.0</ele><time>2026-05-02T16:50:36Z</time></trkpt><trkpt lat="45.117451278675716" lon="7.6315205727748605"><ele>264.0</ele><time>2026-05-02T16:50:37Z</time></trkpt><trkpt lat="45.11759459964226" lon="7.631954631864419"><ele>264.0</ele><time>2026-05-02T16:50:38Z</time></trkpt><trkpt lat="45.11774208036422" lon="7.632396123475633"><ele>262.0</ele><time>2026-05-02T16:50:39Z</time></trkpt><trkpt lat="45.117886075827734" lon="7.6328402994330515"><ele>260.0</ele><time>2026-05-02T16:50:40Z</time></trkpt><trkpt lat="45.11802906884762" lon="7.633276732992478"><ele>260.0</ele><time>2026-05-02T16:50:41Z</time></trkpt><trkpt lat="45.11817008158844" lon="7.633709589341186"><ele>260.0</ele><time>2026-05-02T16:50:42Z</time></trkpt><trkpt lat="45.11827174844373" lon="7.63421202959454"><ele>259.0</ele><time>2026-05-02T16:50:43Z</time></trkpt><trkpt lat="45.11838923763298" lon="7.634658699710917"><ele>258.0</ele><time>2026-05-02T16:50:44Z</time></trkpt><trkpt lat="45.11851096217875" lon="7.635096041265671"><ele>257.5</ele><time>2026-05-02T16:50:45Z</time></trkpt><trkpt lat="45.11862927297033" lon="7.635533132797421"><ele>257.0</ele><time>2026-05-02T16:50:46Z</time></trkpt><trkpt lat="45.118729433679036" lon="7.6359386968053204"><ele>257.0</ele><time>2026-05-02T16:50:47Z</time></trkpt><trkpt lat="45.118815712508976" lon="7.636307833752042"><ele>257.0</ele><time>2026-05-02T16:50:48Z</time></trkpt><trkpt lat="45.118882017916114" lon="7.636638105395014"><ele>257.0</ele><time>2026-05-02T16:50:49Z</time></trkpt><trkpt lat="45.11893326164708" lon="7.636910822404294"><ele>257.0</ele><time>2026-05-02T16:50:50Z</time></trkpt><trkpt lat="45.11893667036676" lon="7.637130310400591"><ele>257.0</ele><time>2026-05-02T16:50:51Z</time></trkpt><trkpt lat="45.11893787342657" lon="7.637293311660617"><ele>256.8</ele><time>2026-05-02T16:50:52Z</time></trkpt><trkpt lat="45.11893022668701" lon="7.637409528547549"><ele>256.6</ele><time>2026-05-02T16:50:53Z</time></trkpt><trkpt lat="45.11890351891361" lon="7.6374969068344205"><ele>256.40000000000003</ele><time>2026-05-02T16:50:55Z</time></trkpt><trkpt lat="45.118787050682485" lon="7.63760391151531"><ele>256.2</ele><time>2026-05-02T16:50:57Z</time></trkpt><trkpt lat="45.1187211800639" lon="7.63771663817245"><ele>256.0</ele><time>2026-05-02T16:50:58Z</time></trkpt><trkpt lat="45.11868819128411" lon="7.637890730869808"><ele>256.0</ele><time>2026-05-02T16:50:59Z</time></trkpt><trkpt lat="45.11870758702966" lon="7.638123977138639"><ele>256.0</ele><time>2026-05-02T16:51:00Z</time></trkpt><trkpt lat="45.118729208874775" lon="7.638374159338416"><ele>256.0</ele><time>2026-05-02T16:51:01Z</time></trkpt><trkpt lat="45.11866545766012" lon="7.638632576770552"><ele>257.0</ele><time>2026-05-02T16:51:02Z</time></trkpt><trkpt lat="45.11860632271636" lon="7.638933632778593"><ele>258.0</ele><time>2026-05-02T16:51:03Z</time></trkpt><trkpt lat="45.11853562569007" lon="7.639237429029611"><ele>259.0</ele><time>2026-05-02T16:51:04Z</time></trkpt><trkpt lat="45.118524167482065" lon="7.639518422155415"><ele>259.0</ele><time>2026-05-02T16:51:05Z</time></trkpt><trkpt lat="45.118576724521226" lon="7.639789510441551"><ele>259.0</ele><time>2026-05-02T16:51:06Z</time></trkpt><trkpt lat="45.11868954113" lon="7.64005420797576"><ele>259.0</ele><time>2026-05-02T16:51:07Z</time></trkpt><trkpt lat="45.11885494293494" lon="7.640259580492101"><ele>258.3333333333333</ele><time>2026-05-02T16:51:08Z</time></trkpt><trkpt lat="45.119058513117366" lon="7.640389795292999"><ele>257.6666666666667</ele><time>2026-05-02T16:51:09Z</time></trkpt><trkpt lat="45.119271776417655" lon="7.640422606509569"><ele>257.0</ele><time>2026-05-02T16:51:10Z</time></trkpt><trkpt lat="45.119496086347056" lon="7.640368492562401"><ele>256.5</ele><time>2026-05-02T16:51:11Z</time></trkpt><trkpt lat="45.11974044557273" lon="7.640235289775061"><ele>256.0</ele><time>2026-05-02T16:51:12Z</time></trkpt><trkpt lat="45.11999561604827" lon="7.640031321335623"><ele>255.5</ele><time>2026-05-02T16:51:13Z</time></trkpt><trkpt lat="45.12028600653594" lon="7.639798626468862"><ele>255.0</ele><time>2026-05-02T16:51:14Z</time></trkpt><trkpt lat="45.12060751915525" lon="7.639591404050902"><ele>257.5</ele><time>2026-05-02T16:51:15Z</time></trkpt><trkpt lat="45.12092193023233" lon="7.639419066517193"><ele>260.0</ele><time>2026-05-02T16:51:16Z</time></trkpt><trkpt lat="45.12119498962019" lon="7.639269285934551"><ele>260.0</ele><time>2026-05-02T16:51:17Z</time></trkpt><trkpt lat="45.121444098289096" lon="7.639131692298746"><ele>260.0</ele><time>2026-05-02T16:51:18Z</time></trkpt><trkpt lat="45.12168363967093" lon="7.639004234170301"><ele>260.5</ele><time>2026-05-02T16:51:19Z</time></trkpt><trkpt lat="45.121919095223284" lon="7.638879307828611"><ele>261.0</ele><time>2026-05-02T16:51:20Z</time></trkpt><trkpt lat="45.122135906182486" lon="7.638762270278692"><ele>261.0</ele><time>2026-05-02T16:51:21Z</time></trkpt><trkpt lat="45.12232734355982" lon="7.638658261139381"><ele>261.0</ele><time>2026-05-02T16:51:22Z</time></trkpt><trkpt lat="45.122487803418935" lon="7.638565900094922"><ele>261.0</ele><time>2026-05-02T16:51:23Z</time></trkpt><trkpt lat="45.12261496213792" lon="7.638490444674989"><ele>260.40000000000003</ele><time>2026-05-02T16:51:24Z</time></trkpt><trkpt lat="45.122707505822966" lon="7.638447500279484"><ele>259.8</ele><time>2026-05-02T16:51:25Z</time></trkpt><trkpt lat="45.12279452006497" lon="7.638413790924983"><ele>259.20000000000005</ele><time>2026-05-02T16:51:26Z</time></trkpt><trkpt lat="45.12288558383414" lon="7.638400247867784"><ele>258.6</ele><time>2026-05-02T16:51:27Z</time></trkpt><trkpt lat="45.12298434023516" lon="7.638443935462671"><ele>258.0</ele><time>2026-05-02T16:51:28Z</time></trkpt><trkpt lat="45.12310893098474" lon="7.63843084144377"><ele>258.0</ele><time>2026-05-02T16:51:29Z</time></trkpt><trkpt lat="45.12325833523689" lon="7.638418751257319"><ele>258.0</ele><time>2026-05-02T16:51:30Z</time></trkpt><trkpt lat="45.12342863497107" lon="7.63844678215583"><ele>258.0</ele><time>2026-05-02T16:51:31Z</time></trkpt><trkpt lat="45.12358982626398" lon="7.638553924147438"><ele>258.0</ele><time>2026-05-02T16:51:32Z</time></trkpt><trkpt lat="45.12375989194202" lon="7.6387103990207255"><ele>258.0</ele><time>2026-05-02T16:51:33Z</time></trkpt><trkpt lat="45.12391120745956" lon="7.638862325330568"><ele>258.0</ele><time>2026-05-02T16:51:34Z</time></trkpt><trkpt lat="45.12406335877085" lon="7.639010547816629"><ele>258.0</ele><time>2026-05-02T16:51:35Z</time></trkpt><trkpt lat="45.12422288168811" lon="7.6391497432701705"><ele>258.0</ele><time>2026-05-02T16:51:36Z</time></trkpt><trkpt lat="45.12436187246021" lon="7.63925160959007"><ele>258.0</ele><time>2026-05-02T16:51:37Z</time></trkpt><trkpt lat="45.12447253506942" lon="7.639330447122359"><ele>258.0</ele><time>2026-05-02T16:51:38Z</time></trkpt><trkpt lat="45.12455206889601" lon="7.639397804912658"><ele>258.0</ele><time>2026-05-02T16:51:39Z</time></trkpt><trkpt lat="45.12461258996479" lon="7.639471065321495"><ele>258.0</ele><time>2026-05-02T16:51:40Z</time></trkpt><trkpt lat="45.12466958296729" lon="7.639581165836857"><ele>258.0</ele><time>2026-05-02T16:51:42Z</time></trkpt><trkpt lat="45.124744822989264" lon="7.639695349837237"><ele>258.0</ele><time>2026-05-02T16:51:55Z</time></trkpt><trkpt lat="45.124802359956085" lon="7.639757761483706"><ele>258.0</ele><time>2026-05-02T16:51:56Z</time></trkpt><trkpt lat="45.12487825191671" lon="7.6398186803750345"><ele>258.0</ele><time>2026-05-02T16:51:57Z</time></trkpt><trkpt lat="45.124932844857355" lon="7.639884182781324"><ele>258.0</ele><time>2026-05-02T16:51:58Z</time></trkpt><trkpt lat="45.12505105060505" lon="7.6397916695728405"><ele>258.0</ele><time>2026-05-02T16:51:59Z</time></trkpt><trkpt lat="45.125111201396216" lon="7.639687698001865"><ele>258.0</ele><time>2026-05-02T16:52:00Z</time></trkpt><trkpt lat="45.12518408134767" lon="7.639605627985687"><ele>257.99999999999994</ele><time>2026-05-02T16:52:01Z</time></trkpt><trkpt lat="45.1252489701152" lon="7.639533948542369"><ele>258.0</ele><time>2026-05-02T16:52:02Z</time></trkpt><trkpt lat="45.12530522216232" lon="7.63946917382391"><ele>258.0</ele><time>2026-05-02T16:52:03Z</time></trkpt><trkpt lat="45.12537605278472" lon="7.639455135106209"><ele>258.0</ele><time>2026-05-02T16:52:04Z</time></trkpt><trkpt lat="45.12543141371589" lon="7.63939834270579"><ele>258.0</ele><time>2026-05-02T16:52:05Z</time></trkpt><trkpt lat="45.12549087592509" lon="7.639335163012541"><ele>257.99999999999994</ele><time>2026-05-02T16:52:06Z</time></trkpt><trkpt lat="45.12555294896762" lon="7.639274958895996"><ele>258.0</ele><time>2026-05-02T16:52:07Z</time></trkpt><trkpt lat="45.12561523539921" lon="7.639188675808421"><ele>258.0</ele><time>2026-05-02T16:52:08Z</time></trkpt><trkpt lat="45.12568057094006" lon="7.639107769771742"><ele>258.0</ele><time>2026-05-02T16:52:09Z</time></trkpt><trkpt lat="45.12574679631642" lon="7.639029627258985"><ele>258.0</ele><time>2026-05-02T16:52:10Z</time></trkpt><trkpt lat="45.12580885319007" lon="7.638958268064535"><ele>258.0</ele><time>2026-05-02T16:52:11Z</time></trkpt><trkpt lat="45.125876884365496" lon="7.638884280054844"><ele>258.0</ele><time>2026-05-02T16:52:12Z</time></trkpt><trkpt lat="45.12592935141442" lon="7.638825149653357"><ele>258.0</ele><time>2026-05-02T16:52:13Z</time></trkpt><trkpt lat="45.125999688366974" lon="7.638723032951535"><ele>257.75</ele><time>2026-05-02T16:52:15Z</time></trkpt><trkpt lat="45.1260641828323" lon="7.6389081480217715"><ele>257.5</ele><time>2026-05-02T16:52:23Z</time></trkpt><trkpt lat="45.126150797134024" lon="7.638753841204701"><ele>257.25</ele><time>2026-05-02T16:52:24Z</time></trkpt><trkpt lat="45.12628900867964" lon="7.638699082323794"><ele>257.0</ele><time>2026-05-02T16:52:25Z</time></trkpt><trkpt lat="45.126486300846544" lon="7.638834972081358"><ele>257.2</ele><time>2026-05-02T16:52:26Z</time></trkpt><trkpt lat="45.126622240514216" lon="7.638938430702192"><ele>257.4</ele><time>2026-05-02T16:52:27Z</time></trkpt><trkpt lat="45.12670541547637" lon="7.638997112900243"><ele>257.6</ele><time>2026-05-02T16:52:28Z</time></trkpt><trkpt lat="45.12679552920718" lon="7.63904236616789"><ele>257.8</ele><time>2026-05-02T16:52:30Z</time></trkpt><trkpt lat="45.12688274051562" lon="7.639098327854982"><ele>258.0</ele><time>2026-05-02T16:52:32Z</time></trkpt><trkpt lat="45.126968373884864" lon="7.639155547885738"><ele>258.0</ele><time>2026-05-02T16:52:34Z</time></trkpt><trkpt lat="45.12701704743406" lon="7.639254225553627"><ele>258.0</ele><time>2026-05-02T16:52:36Z</time></trkpt><trkpt lat="45.127032776787175" lon="7.639383197022212"><ele>258.0</ele><time>2026-05-02T16:52:38Z</time></trkpt><trkpt lat="45.127068058265664" lon="7.639525302748908"><ele>258.0</ele><time>2026-05-02T16:52:40Z</time></trkpt><trkpt lat="45.12712290662596" lon="7.639688089945855"><ele>258.0</ele><time>2026-05-02T16:52:42Z</time></trkpt><trkpt lat="45.12715038016909" lon="7.639768665737572"><ele>258.1666666666667</ele><time>2026-05-02T16:52:43Z</time></trkpt><trkpt lat="45.12719825494461" lon="7.639888422846425"><ele>258.3333333333333</ele><time>2026-05-02T16:52:45Z</time></trkpt><trkpt lat="45.12724436247324" lon="7.639986173330542"><ele>258.5</ele><time>2026-05-02T16:52:48Z</time></trkpt><trkpt lat="45.12726459586195" lon="7.640093183304874"><ele>258.66666666666663</ele><time>2026-05-02T16:52:51Z</time></trkpt><trkpt lat="45.12720240278121" lon="7.640178150620895"><ele>258.8333333333333</ele><time>2026-05-02T16:52:53Z</time></trkpt><trkpt lat="45.12713192280737" lon="7.640273693502829"><ele>259.0</ele><time>2026-05-02T16:52:55Z</time></trkpt><trkpt lat="45.12709025671648" lon="7.6403406983834214"><ele>259.0</ele><time>2026-05-02T16:52:56Z</time></trkpt><trkpt lat="45.12700543052534" lon="7.640458736505786"><ele>259.0</ele><time>2026-05-02T16:52:58Z</time></trkpt><trkpt lat="45.126955447477464" lon="7.640526589364877"><ele>259.0</ele><time>2026-05-02T16:52:59Z</time></trkpt><trkpt lat="45.126905064687186" lon="7.640595426326019"><ele>259.0</ele><time>2026-05-02T16:53:00Z</time></trkpt><trkpt lat="45.12685670059936" lon="7.640665246601002"><ele>259.0</ele><time>2026-05-02T16:53:01Z</time></trkpt><trkpt lat="45.126805057852934" lon="7.640740359529535"><ele>259.0</ele><time>2026-05-02T16:53:02Z</time></trkpt><trkpt lat="45.126748411857456" lon="7.640800926397412"><ele>259.0</ele><time>2026-05-02T16:53:03Z</time></trkpt><trkpt lat="45.126688093522375" lon="7.64086586298198"><ele>259.0</ele><time>2026-05-02T16:53:04Z</time></trkpt><trkpt lat="45.12663087958154" lon="7.6409314859083715"><ele>259.0</ele><time>2026-05-02T16:53:05Z</time></trkpt><trkpt lat="45.12656433849675" lon="7.640987230243438"><ele>259.0</ele><time>2026-05-02T16:53:06Z</time></trkpt><trkpt lat="45.126501346188284" lon="7.641028074094053"><ele>259.0</ele><time>2026-05-02T16:53:07Z</time></trkpt><trkpt lat="45.126427347094015" lon="7.641066552883029"><ele>259.0</ele><time>2026-05-02T16:53:08Z</time></trkpt><trkpt lat="45.12635768346118" lon="7.641085843054684"><ele>259.0</ele><time>2026-05-02T16:53:09Z</time></trkpt><trkpt lat="45.12624757736448" lon="7.641099635311408"><ele>259.2</ele><time>2026-05-02T16:53:11Z</time></trkpt><trkpt lat="45.12615892562959" lon="7.641118462120574"><ele>259.4</ele><time>2026-05-02T16:53:14Z</time></trkpt><trkpt lat="45.12605629576733" lon="7.64110652637212"><ele>259.6</ele><time>2026-05-02T16:53:16Z</time></trkpt><trkpt lat="45.125973042241256" lon="7.64114951967228"><ele>259.8</ele><time>2026-05-02T16:53:17Z</time></trkpt><trkpt lat="45.12587932319686" lon="7.6411936083825225"><ele>260.0</ele><time>2026-05-02T16:53:18Z</time></trkpt><trkpt lat="45.125779933201265" lon="7.641252644482538"><ele>259.5</ele><time>2026-05-02T16:53:19Z</time></trkpt><trkpt lat="45.12566516078124" lon="7.641283997434068"><ele>259.0</ele><time>2026-05-02T16:53:20Z</time></trkpt><trkpt lat="45.125527855802574" lon="7.641353189462358"><ele>258.5</ele><time>2026-05-02T16:53:21Z</time></trkpt><trkpt lat="45.125384496473735" lon="7.641474261419903"><ele>258.0</ele><time>2026-05-02T16:53:22Z</time></trkpt><trkpt lat="45.12522621483287" lon="7.641549661011993"><ele>258.0</ele><time>2026-05-02T16:53:23Z</time></trkpt><trkpt lat="45.125087249793474" lon="7.641621575842779"><ele>258.0</ele><time>2026-05-02T16:53:24Z</time></trkpt><trkpt lat="45.124954076591436" lon="7.641691147039647"><ele>258.0</ele><time>2026-05-02T16:53:25Z</time></trkpt><trkpt lat="45.12479116839018" lon="7.641773519980444"><ele>257.6666666666667</ele><time>2026-05-02T16:53:26Z</time></trkpt><trkpt lat="45.12459718234306" lon="7.641884034724976"><ele>257.33333333333337</ele><time>2026-05-02T16:53:27Z</time></trkpt><trkpt lat="45.12438500225101" lon="7.642008432052643"><ele>257.0</ele><time>2026-05-02T16:53:28Z</time></trkpt><trkpt lat="45.12417425283096" lon="7.642131647303111"><ele>256.6666666666667</ele><time>2026-05-02T16:53:29Z</time></trkpt><trkpt lat="45.1239843492127" lon="7.642244328292387"><ele>256.3333333333333</ele><time>2026-05-02T16:53:30Z</time></trkpt><trkpt lat="45.12382068754781" lon="7.642360764639975"><ele>256.0</ele><time>2026-05-02T16:53:31Z</time></trkpt><trkpt lat="45.12368673322637" lon="7.64247829905091"><ele>256.0</ele><time>2026-05-02T16:53:32Z</time></trkpt><trkpt lat="45.12359121204833" lon="7.642574454349071"><ele>256.0</ele><time>2026-05-02T16:53:33Z</time></trkpt><trkpt lat="45.123515920867334" lon="7.642641642006109"><ele>256.0</ele><time>2026-05-02T16:53:34Z</time></trkpt><trkpt lat="45.12339314771185" lon="7.64261925410828"><ele>256.0</ele><time>2026-05-02T16:53:35Z</time></trkpt><trkpt lat="45.12331413726382" lon="7.642662885415218"><ele>256.0</ele><time>2026-05-02T16:53:36Z</time></trkpt><trkpt lat="45.123259860620344" lon="7.642769896115156"><ele>256.0</ele><time>2026-05-02T16:53:37Z</time></trkpt><trkpt lat="45.12323797952008" lon="7.642903113548268"><ele>256.0</ele><time>2026-05-02T16:53:38Z</time></trkpt><trkpt lat="45.12329743684043" lon="7.643037649989177"><ele>256.0</ele><time>2026-05-02T16:53:39Z</time></trkpt><trkpt lat="45.123411933651845" lon="7.643081021814392"><ele>256.0</ele><time>2026-05-02T16:53:40Z</time></trkpt><trkpt lat="45.1235195368097" lon="7.643075811357524"><ele>256.0</ele><time>2026-05-02T16:53:41Z</time></trkpt><trkpt lat="45.12363316291404" lon="7.64310566856685"><ele>256.0</ele><time>2026-05-02T16:53:42Z</time></trkpt><trkpt lat="45.12370926431787" lon="7.643132115177868"><ele>256.0</ele><time>2026-05-02T16:53:43Z</time></trkpt><trkpt lat="45.12378014808665" lon="7.643261393476418"><ele>256.0</ele><time>2026-05-02T16:53:44Z</time></trkpt><trkpt lat="45.12383868732667" lon="7.643444485096426"><ele>256.0</ele><time>2026-05-02T16:53:45Z</time></trkpt><trkpt lat="45.123906272733336" lon="7.643677416265101"><ele>256.0</ele><time>2026-05-02T16:53:46Z</time></trkpt><trkpt lat="45.123995100260714" lon="7.64393709906112"><ele>256.0</ele><time>2026-05-02T16:53:47Z</time></trkpt><trkpt lat="45.12409600544592" lon="7.644196663964456"><ele>256.0</ele><time>2026-05-02T16:53:48Z</time></trkpt><trkpt lat="45.12416690707253" lon="7.644398202638133"><ele>256.0</ele><time>2026-05-02T16:53:49Z</time></trkpt><trkpt lat="45.12424007309566" lon="7.644594715931036"><ele>256.0</ele><time>2026-05-02T16:53:50Z</time></trkpt><trkpt lat="45.12432627612367" lon="7.644838912757141"><ele>256.0</ele><time>2026-05-02T16:53:51Z</time></trkpt><trkpt lat="45.12442221560489" lon="7.645129229740084"><ele>255.33333333333331</ele><time>2026-05-02T16:53:52Z</time></trkpt><trkpt lat="45.12452002161783" lon="7.645396367097346"><ele>254.66666666666669</ele><time>2026-05-02T16:53:53Z</time></trkpt><trkpt lat="45.12458129593009" lon="7.645588170804391"><ele>254.0</ele><time>2026-05-02T16:53:54Z</time></trkpt><trkpt lat="45.12462366905245" lon="7.64570361280966"><ele>254.0</ele><time>2026-05-02T16:53:55Z</time></trkpt><trkpt lat="45.12465295532612" lon="7.645786542271319"><ele>253.99999999999997</ele><time>2026-05-02T16:53:56Z</time></trkpt><trkpt lat="45.12468166326296" lon="7.645873251109066"><ele>253.99999999999997</ele><time>2026-05-02T16:53:57Z</time></trkpt><trkpt lat="45.12472651795145" lon="7.645993324431051"><ele>254.0</ele><time>2026-05-02T16:53:58Z</time></trkpt><trkpt lat="45.1247859021121" lon="7.646146230315211"><ele>254.0</ele><time>2026-05-02T16:53:59Z</time></trkpt><trkpt lat="45.1248557358477" lon="7.646338500695527"><ele>254.75</ele><time>2026-05-02T16:54:00Z</time></trkpt><trkpt lat="45.1249276388073" lon="7.646541169595738"><ele>255.5</ele><time>2026-05-02T16:54:01Z</time></trkpt><trkpt lat="45.124968495713844" lon="7.64671564680083"><ele>256.25</ele><time>2026-05-02T16:54:02Z</time></trkpt><trkpt lat="45.12501353587638" lon="7.646839477362084"><ele>257.0</ele><time>2026-05-02T16:54:03Z</time></trkpt><trkpt lat="45.12505150191881" lon="7.646926634370474"><ele>257.0</ele><time>2026-05-02T16:54:04Z</time></trkpt><trkpt lat="45.1249468789734" lon="7.647060414143581"><ele>257.0</ele><time>2026-05-02T16:54:06Z</time></trkpt><trkpt lat="45.124877319692274" lon="7.647105582768014"><ele>257.0</ele><time>2026-05-02T16:54:07Z</time></trkpt><trkpt lat="45.124810020542036" lon="7.647172319052875"><ele>257.0</ele><time>2026-05-02T16:54:08Z</time></trkpt><trkpt lat="45.12473062250579" lon="7.647218530795665"><ele>257.0</ele><time>2026-05-02T16:54:09Z</time></trkpt><trkpt lat="45.124655549806725" lon="7.647263241207282"><ele>257.0</ele><time>2026-05-02T16:54:10Z</time></trkpt><trkpt lat="45.124599447265346" lon="7.647303910961136"><ele>257.0</ele><time>2026-05-02T16:54:11Z</time></trkpt><trkpt lat="45.12451267418626" lon="7.647346978717549"><ele>257.0</ele><time>2026-05-02T16:54:13Z</time></trkpt><trkpt lat="45.12438342965507" lon="7.6471153423413325"><ele>257.0</ele><time>2026-05-02T16:54:37Z</time></trkpt><trkpt lat="45.12431344795758" lon="7.647191992313243"><ele>257.0</ele><time>2026-05-02T16:54:39Z</time></trkpt><trkpt lat="45.12431602381524" lon="7.647298001952392"><ele>257.0</ele><time>2026-05-02T16:54:41Z</time></trkpt><trkpt lat="45.124267023547695" lon="7.647358652276605"><ele>257.0</ele><time>2026-05-02T16:54:43Z</time></trkpt><trkpt lat="45.124272747965065" lon="7.647507168341943"><ele>257.0</ele><time>2026-05-02T16:54:44Z</time></trkpt><trkpt lat="45.12420035950514" lon="7.647557413365201"><ele>257.0</ele><time>2026-05-02T16:54:46Z</time></trkpt><trkpt lat="45.12411594503034" lon="7.647616005677415"><ele>257.0</ele><time>2026-05-02T16:54:48Z</time></trkpt><trkpt lat="45.124025410592054" lon="7.647679857046802"><ele>256.8</ele><time>2026-05-02T16:54:50Z</time></trkpt><trkpt lat="45.12388737286242" lon="7.647780361625243"><ele>256.6</ele><time>2026-05-02T16:54:52Z</time></trkpt><trkpt lat="45.12382873729892" lon="7.647822973292142"><ele>256.40000000000003</ele><time>2026-05-02T16:54:54Z</time></trkpt><trkpt lat="45.123747568918" lon="7.647880313466657"><ele>256.2</ele><time>2026-05-02T16:54:57.049Z</time></trkpt><trkpt lat="45.12368512006809" lon="7.647920310747937"><ele>256.0</ele><time>2026-05-02T16:55:01.048Z</time></trkpt><trkpt lat="45.12377459093259" lon="7.647692744046406"><ele>256.0</ele><time>2026-05-02T16:55:39.876Z</time></trkpt><trkpt lat="45.123710592865855" lon="7.647676325777064"><ele>256.0</ele><time>2026-05-02T16:56:14.015Z</time></trkpt><trkpt lat="45.12365898756119" lon="7.647596885161418"><ele>256.0</ele><time>2026-05-02T16:56:21.244Z</time></trkpt><trkpt lat="45.12364588333333" lon="7.647778199999999"><ele>256.0</ele><time>2026-05-02T17:19:10.289Z</time></trkpt><trkpt lat="45.12374195000001" lon="7.647726816666666"><ele>256.0</ele><time>2026-05-02T17:19:35.272Z</time></trkpt><trkpt lat="45.123830533333326" lon="7.647676016666667"><ele>256.0</ele><time>2026-05-02T17:19:37.271Z</time></trkpt><trkpt lat="45.12393473333333" lon="7.647613066666666"><ele>256.0</ele><time>2026-05-02T17:19:39.271Z</time></trkpt><trkpt lat="45.12404586666666" lon="7.647547366666666"><ele>256.0</ele><time>2026-05-02T17:19:41.273Z</time></trkpt><trkpt lat="45.12415433333334" lon="7.647486"><ele>256.0</ele><time>2026-05-02T17:19:43.271Z</time></trkpt><trkpt lat="45.12424218333334" lon="7.6474326999999995"><ele>256.0</ele><time>2026-05-02T17:19:45.271Z</time></trkpt><trkpt lat="45.12429573333334" lon="7.647342166666666"><ele>256.2</ele><time>2026-05-02T17:20:01.274Z</time></trkpt><trkpt lat="45.12431711666667" lon="7.64725115"><ele>256.40000000000003</ele><time>2026-05-02T17:20:04.285Z</time></trkpt><trkpt lat="45.12439128333334" lon="7.647259616666666"><ele>256.6</ele><time>2026-05-02T17:20:07.29Z</time></trkpt><trkpt lat="45.12445113333333" lon="7.6474367166666655"><ele>256.8</ele><time>2026-05-02T17:20:19.402Z</time></trkpt><trkpt lat="45.12434946666667" lon="7.647534783333333"><ele>257.0</ele><time>2026-05-02T17:20:23.413Z</time></trkpt><trkpt lat="45.12423916666667" lon="7.6476030999999995"><ele>257.0</ele><time>2026-05-02T17:20:25.412Z</time></trkpt><trkpt lat="45.12416263200687" lon="7.647609798545237"><ele>257.0</ele><time>2026-05-02T17:20:26.422Z</time></trkpt><trkpt lat="45.12409589017925" lon="7.647656124226156"><ele>257.0</ele><time>2026-05-02T17:20:27.439Z</time></trkpt><trkpt lat="45.12402272809968" lon="7.647708262993891"><ele>257.0</ele><time>2026-05-02T17:20:28.422Z</time></trkpt><trkpt lat="45.123950308460856" lon="7.6477609913744695"><ele>257.0</ele><time>2026-05-02T17:20:29.411Z</time></trkpt><trkpt lat="45.12387797061006" lon="7.647813647427002"><ele>257.0</ele><time>2026-05-02T17:20:30.449Z</time></trkpt><trkpt lat="45.123802535846295" lon="7.6478684481669506"><ele>256.1666666666667</ele><time>2026-05-02T17:20:31.463Z</time></trkpt><trkpt lat="45.123730089621894" lon="7.647917246055266"><ele>255.33333333333334</ele><time>2026-05-02T17:20:32.391Z</time></trkpt><trkpt lat="45.12365266138874" lon="7.647968415475504"><ele>254.5</ele><time>2026-05-02T17:20:33.494Z</time></trkpt><trkpt lat="45.12360951666666" lon="7.648037200000001"><ele>253.66666666666669</ele><time>2026-05-02T17:20:34.393Z</time></trkpt><trkpt lat="45.123565166666666" lon="7.648101233333334"><ele>252.83333333333334</ele><time>2026-05-02T17:20:35.393Z</time></trkpt><trkpt lat="45.123548833333345" lon="7.648273816666666"><ele>252.0</ele><time>2026-05-02T17:20:37.392Z</time></trkpt><trkpt lat="45.12357515" lon="7.648366683333333"><ele>252.0</ele><time>2026-05-02T17:20:38.395Z</time></trkpt><trkpt lat="45.12360699999999" lon="7.648467099999999"><ele>252.0</ele><time>2026-05-02T17:20:39.395Z</time></trkpt><trkpt lat="45.12364236666667" lon="7.648581766666666"><ele>252.0</ele><time>2026-05-02T17:20:40.392Z</time></trkpt><trkpt lat="45.123677650000005" lon="7.648696516666667"><ele>252.0</ele><time>2026-05-02T17:20:41.394Z</time></trkpt><trkpt lat="45.12373666666667" lon="7.6487981"><ele>252.0</ele><time>2026-05-02T17:20:42.393Z</time></trkpt><trkpt lat="45.123773383333344" lon="7.648917466666667"><ele>252.0</ele><time>2026-05-02T17:20:43.492Z</time></trkpt><trkpt lat="45.123801366666676" lon="7.649009333333334"><ele>252.0</ele><time>2026-05-02T17:20:44.404Z</time></trkpt><trkpt lat="45.12384303333333" lon="7.649116283333333"><ele>252.0</ele><time>2026-05-02T17:20:45.401Z</time></trkpt><trkpt lat="45.12387455" lon="7.649222400000001"><ele>252.0</ele><time>2026-05-02T17:20:46.404Z</time></trkpt><trkpt lat="45.123906816666675" lon="7.649328016666667"><ele>252.0</ele><time>2026-05-02T17:20:47.411Z</time></trkpt><trkpt lat="45.12394788333333" lon="7.649429516666667"><ele>252.0</ele><time>2026-05-02T17:20:48.405Z</time></trkpt><trkpt lat="45.12397865" lon="7.64952515"><ele>252.0</ele><time>2026-05-02T17:20:49.403Z</time></trkpt><trkpt lat="45.124008483333334" lon="7.649615933333332"><ele>252.0</ele><time>2026-05-02T17:20:50.402Z</time></trkpt><trkpt lat="45.124046116666655" lon="7.649698483333332"><ele>252.0</ele><time>2026-05-02T17:20:51.403Z</time></trkpt><trkpt lat="45.1240944" lon="7.649859766666666"><ele>252.0</ele><time>2026-05-02T17:20:53.495Z</time></trkpt><trkpt lat="45.124118883333324" lon="7.6499429"><ele>252.0</ele><time>2026-05-02T17:20:54.393Z</time></trkpt><trkpt lat="45.12414721666667" lon="7.65002915"><ele>252.0</ele><time>2026-05-02T17:20:55.395Z</time></trkpt><trkpt lat="45.1241773" lon="7.650114149999999"><ele>252.0</ele><time>2026-05-02T17:20:56.404Z</time></trkpt><trkpt lat="45.12420856666666" lon="7.650214983333332"><ele>251.83333333333334</ele><time>2026-05-02T17:20:57.404Z</time></trkpt><trkpt lat="45.12423698333334" lon="7.650322783333333"><ele>251.66666666666669</ele><time>2026-05-02T17:20:58.403Z</time></trkpt><trkpt lat="45.12427420000001" lon="7.65042855"><ele>251.5</ele><time>2026-05-02T17:20:59.403Z</time></trkpt><trkpt lat="45.12431233333333" lon="7.650524199999999"><ele>251.33333333333334</ele><time>2026-05-02T17:21:00.404Z</time></trkpt><trkpt lat="45.12438403306701" lon="7.650577469114471"><ele>251.16666666666669</ele><time>2026-05-02T17:21:01.404Z</time></trkpt><trkpt lat="45.12444645000001" lon="7.65065965"><ele>251.0</ele><time>2026-05-02T17:21:02.392Z</time></trkpt><trkpt lat="45.12452741666666" lon="7.650710350000001"><ele>251.00000000000003</ele><time>2026-05-02T17:21:03.394Z</time></trkpt><trkpt lat="45.12461843333334" lon="7.650766100000001"><ele>251.0</ele><time>2026-05-02T17:21:04.394Z</time></trkpt><trkpt lat="45.12470553333333" lon="7.650822083333333"><ele>251.0</ele><time>2026-05-02T17:21:05.393Z</time></trkpt><trkpt lat="45.124782466666666" lon="7.6508729666666655"><ele>251.0</ele><time>2026-05-02T17:21:06.392Z</time></trkpt><trkpt lat="45.124861433333336" lon="7.65091555"><ele>251.00000000000003</ele><time>2026-05-02T17:21:07.404Z</time></trkpt><trkpt lat="45.12492278333334" lon="7.650954683333333"><ele>251.0</ele><time>2026-05-02T17:21:08.412Z</time></trkpt><trkpt lat="45.12501741666667" lon="7.650991983333333"><ele>251.20000000000002</ele><time>2026-05-02T17:21:10.414Z</time></trkpt><trkpt lat="45.125075472175894" lon="7.650886197683229"><ele>251.40000000000003</ele><time>2026-05-02T17:21:12.412Z</time></trkpt><trkpt lat="45.12510494681551" lon="7.65079337044559"><ele>251.6</ele><time>2026-05-02T17:21:13.412Z</time></trkpt><trkpt lat="45.125143494710734" lon="7.650684050744857"><ele>251.8</ele><time>2026-05-02T17:21:14.403Z</time></trkpt><trkpt lat="45.12519128882936" lon="7.650560454751623"><ele>252.0</ele><time>2026-05-02T17:21:15.411Z</time></trkpt><trkpt lat="45.125238452913074" lon="7.650436360641363"><ele>252.5</ele><time>2026-05-02T17:21:16.402Z</time></trkpt><trkpt lat="45.1252811840329" lon="7.6502899191498654"><ele>253.0</ele><time>2026-05-02T17:21:17.405Z</time></trkpt><trkpt lat="45.12532644547737" lon="7.65013166201281"><ele>253.5</ele><time>2026-05-02T17:21:18.402Z</time></trkpt><trkpt lat="45.12538023728432" lon="7.6499463520861015"><ele>254.0</ele><time>2026-05-02T17:21:19.514Z</time></trkpt><trkpt lat="45.12541762269938" lon="7.649786162264167"><ele>254.0</ele><time>2026-05-02T17:21:20.414Z</time></trkpt><trkpt lat="45.12546980034739" lon="7.6495779553620675"><ele>254.0</ele><time>2026-05-02T17:21:21.513Z</time></trkpt><trkpt lat="45.12552096357446" lon="7.649377537629506"><ele>254.0</ele><time>2026-05-02T17:21:22.514Z</time></trkpt><trkpt lat="45.12556431351625" lon="7.649207726301536"><ele>254.0</ele><time>2026-05-02T17:21:23.404Z</time></trkpt><trkpt lat="45.12561546228646" lon="7.649014880090196"><ele>254.79999999999998</ele><time>2026-05-02T17:21:24.505Z</time></trkpt><trkpt lat="45.12566928333334" lon="7.648862066666667"><ele>255.59999999999997</ele><time>2026-05-02T17:21:25.502Z</time></trkpt><trkpt lat="45.12567488638522" lon="7.648715262028812"><ele>256.4</ele><time>2026-05-02T17:21:26.502Z</time></trkpt><trkpt lat="45.125708416666676" lon="7.64858705"><ele>257.2</ele><time>2026-05-02T17:21:27.502Z</time></trkpt><trkpt lat="45.1257287" lon="7.64847055"><ele>258.0</ele><time>2026-05-02T17:21:28.505Z</time></trkpt><trkpt lat="45.12576616666667" lon="7.6483628333333336"><ele>257.2</ele><time>2026-05-02T17:21:29.506Z</time></trkpt><trkpt lat="45.1258142" lon="7.648257649999999"><ele>256.4</ele><time>2026-05-02T17:21:30.494Z</time></trkpt><trkpt lat="45.12586398333333" lon="7.648148166666665"><ele>255.59999999999997</ele><time>2026-05-02T17:21:31.492Z</time></trkpt><trkpt lat="45.12591940000001" lon="7.648031833333333"><ele>254.79999999999998</ele><time>2026-05-02T17:21:32.504Z</time></trkpt><trkpt lat="45.12597933333333" lon="7.647907783333333"><ele>254.0</ele><time>2026-05-02T17:21:33.505Z</time></trkpt><trkpt lat="45.126033716666676" lon="7.647772916666666"><ele>254.0</ele><time>2026-05-02T17:21:34.512Z</time></trkpt><trkpt lat="45.12608108333334" lon="7.647621783333333"><ele>253.99999999999997</ele><time>2026-05-02T17:21:35.503Z</time></trkpt><trkpt lat="45.1261261" lon="7.64746915"><ele>253.99999999999997</ele><time>2026-05-02T17:21:36.502Z</time></trkpt><trkpt lat="45.126165400000005" lon="7.647334883333334"><ele>254.0</ele><time>2026-05-02T17:21:37.505Z</time></trkpt><trkpt lat="45.12619423333334" lon="7.647237983333334"><ele>254.0</ele><time>2026-05-02T17:21:38.393Z</time></trkpt><trkpt lat="45.126221400000006" lon="7.6471508166666675"><ele>254.0</ele><time>2026-05-02T17:21:39.394Z</time></trkpt><trkpt lat="45.12624855" lon="7.6470693333333335"><ele>253.99999999999997</ele><time>2026-05-02T17:21:40.504Z</time></trkpt><trkpt lat="45.12629079501643" lon="7.646892469702356"><ele>253.99999999999997</ele><time>2026-05-02T17:21:42.406Z</time></trkpt><trkpt lat="45.12632780789953" lon="7.646784284584777"><ele>254.0</ele><time>2026-05-02T17:21:43.407Z</time></trkpt><trkpt lat="45.126382666666665" lon="7.6466715333333335"><ele>254.0</ele><time>2026-05-02T17:21:44.414Z</time></trkpt><trkpt lat="45.12642935" lon="7.646520066666667"><ele>254.25</ele><time>2026-05-02T17:21:45.514Z</time></trkpt><trkpt lat="45.12646806666666" lon="7.646390916666667"><ele>254.5</ele><time>2026-05-02T17:21:46.414Z</time></trkpt><trkpt lat="45.126514516666674" lon="7.646233666666666"><ele>254.75</ele><time>2026-05-02T17:21:47.405Z</time></trkpt><trkpt lat="45.126566816666674" lon="7.646058233333334"><ele>255.0</ele><time>2026-05-02T17:21:48.503Z</time></trkpt><trkpt lat="45.126616266666666" lon="7.64589185"><ele>255.0</ele><time>2026-05-02T17:21:49.504Z</time></trkpt><trkpt lat="45.12663812927287" lon="7.645744044300181"><ele>255.0</ele><time>2026-05-02T17:21:50.404Z</time></trkpt><trkpt lat="45.12667650359237" lon="7.64558718813389"><ele>255.0</ele><time>2026-05-02T17:21:51.407Z</time></trkpt><trkpt lat="45.12674861666667" lon="7.645437883333333"><ele>255.0</ele><time>2026-05-02T17:21:52.512Z</time></trkpt><trkpt lat="45.126771511273915" lon="7.645283838967712"><ele>255.6</ele><time>2026-05-02T17:21:53.502Z</time></trkpt><trkpt lat="45.126805517186924" lon="7.64515800482"><ele>256.2</ele><time>2026-05-02T17:21:54.411Z</time></trkpt><trkpt lat="45.126838285009434" lon="7.64503115625864"><ele>256.8</ele><time>2026-05-02T17:21:55.405Z</time></trkpt><trkpt lat="45.126897066666665" lon="7.644923316666666"><ele>257.4</ele><time>2026-05-02T17:21:56.507Z</time></trkpt><trkpt lat="45.1269085444297" lon="7.64482024572667"><ele>258.0</ele><time>2026-05-02T17:21:57.503Z</time></trkpt><trkpt lat="45.126997816666666" lon="7.644597683333335"><ele>258.0</ele><time>2026-05-02T17:22:00.411Z</time></trkpt><trkpt lat="45.12702455" lon="7.644510516666666"><ele>258.0</ele><time>2026-05-02T17:22:01.498Z</time></trkpt><trkpt lat="45.1270719" lon="7.644354016666667"><ele>258.0</ele><time>2026-05-02T17:22:03.503Z</time></trkpt><trkpt lat="45.12709696666668" lon="7.644271133333333"><ele>258.0</ele><time>2026-05-02T17:22:04.408Z</time></trkpt><trkpt lat="45.127129066666676" lon="7.644165349999999"><ele>258.0</ele><time>2026-05-02T17:22:05.504Z</time></trkpt><trkpt lat="45.127161683333334" lon="7.644059816666667"><ele>258.0</ele><time>2026-05-02T17:22:06.493Z</time></trkpt><trkpt lat="45.127194700000004" lon="7.643954616666668"><ele>258.5</ele><time>2026-05-02T17:22:07.493Z</time></trkpt><trkpt lat="45.127229566666664" lon="7.6438449833333335"><ele>259.0</ele><time>2026-05-02T17:22:08.494Z</time></trkpt><trkpt lat="45.12726451666668" lon="7.643735516666666"><ele>259.5</ele><time>2026-05-02T17:22:09.506Z</time></trkpt><trkpt lat="45.127300566666655" lon="7.6436212"><ele>260.0</ele><time>2026-05-02T17:22:10.503Z</time></trkpt><trkpt lat="45.127333416666666" lon="7.643515833333333"><ele>260.5</ele><time>2026-05-02T17:22:11.493Z</time></trkpt><trkpt lat="45.127361333333326" lon="7.6434238"><ele>261.0</ele><time>2026-05-02T17:22:12.388Z</time></trkpt><trkpt lat="45.12739" lon="7.643326816666667"><ele>260.8333333333333</ele><time>2026-05-02T17:22:13.385Z</time></trkpt><trkpt lat="45.12741405" lon="7.643243333333333"><ele>260.6666666666667</ele><time>2026-05-02T17:22:14.388Z</time></trkpt><trkpt lat="45.12743903333333" lon="7.643155066666666"><ele>260.5</ele><time>2026-05-02T17:22:15.493Z</time></trkpt><trkpt lat="45.127474733333344" lon="7.643024316666667"><ele>260.33333333333337</ele><time>2026-05-02T17:22:17.504Z</time></trkpt><trkpt lat="45.127507349999995" lon="7.642924483333333"><ele>260.1666666666667</ele><time>2026-05-02T17:22:19.396Z</time></trkpt><trkpt lat="45.12754883333334" lon="7.642837316666667"><ele>260.0</ele><time>2026-05-02T17:22:21.504Z</time></trkpt><trkpt lat="45.12758521666666" lon="7.6427457"><ele>260.0</ele><time>2026-05-02T17:22:29.504Z</time></trkpt><trkpt lat="45.127621600000005" lon="7.64263715"><ele>260.0</ele><time>2026-05-02T17:22:31.503Z</time></trkpt><trkpt lat="45.12766081666667" lon="7.642513866666667"><ele>260.0</ele><time>2026-05-02T17:22:33.397Z</time></trkpt><trkpt lat="45.12768655" lon="7.642431383333333"><ele>260.0</ele><time>2026-05-02T17:22:34.503Z</time></trkpt><trkpt lat="45.127713883333335" lon="7.64234455"><ele>260.0</ele><time>2026-05-02T17:22:35.504Z</time></trkpt><trkpt lat="45.127741449999995" lon="7.6422578"><ele>260.0</ele><time>2026-05-02T17:22:36.394Z</time></trkpt><trkpt lat="45.127777833333326" lon="7.642143716666667"><ele>260.0</ele><time>2026-05-02T17:22:37.518Z</time></trkpt><trkpt lat="45.12781126666667" lon="7.642038683333333"><ele>260.0</ele><time>2026-05-02T17:22:38.406Z</time></trkpt><trkpt lat="45.127847733333326" lon="7.6419246166666674"><ele>260.0</ele><time>2026-05-02T17:22:39.394Z</time></trkpt><trkpt lat="45.12788688333333" lon="7.641801316666665"><ele>260.0</ele><time>2026-05-02T17:22:40.505Z</time></trkpt><trkpt lat="45.127922749999996" lon="7.641686816666667"><ele>260.0</ele><time>2026-05-02T17:22:41.505Z</time></trkpt><trkpt lat="45.12795979999999" lon="7.641567716666667"><ele>260.0</ele><time>2026-05-02T17:22:42.505Z</time></trkpt><trkpt lat="45.127995250000005" lon="7.641452966666666"><ele>259.83333333333337</ele><time>2026-05-02T17:22:43.494Z</time></trkpt><trkpt lat="45.128026016666674" lon="7.6413516999999995"><ele>259.6666666666667</ele><time>2026-05-02T17:22:44.394Z</time></trkpt><trkpt lat="45.128060966666666" lon="7.641236716666667"><ele>259.5</ele><time>2026-05-02T17:22:45.493Z</time></trkpt><trkpt lat="45.12808913333333" lon="7.641144850000001"><ele>259.3333333333333</ele><time>2026-05-02T17:22:46.385Z</time></trkpt><trkpt lat="45.128124250000006" lon="7.641029933333335"><ele>259.16666666666663</ele><time>2026-05-02T17:22:47.503Z</time></trkpt><trkpt lat="45.12815568333334" lon="7.6409291"><ele>259.0</ele><time>2026-05-02T17:22:48.506Z</time></trkpt><trkpt lat="45.12818753333333" lon="7.640828683333333"><ele>258.8333333333333</ele><time>2026-05-02T17:22:49.494Z</time></trkpt><trkpt lat="45.12822248333333" lon="7.640724650000001"><ele>258.66666666666663</ele><time>2026-05-02T17:22:50.496Z</time></trkpt><trkpt lat="45.12825878333333" lon="7.640627183333334"><ele>258.5</ele><time>2026-05-02T17:22:51.503Z</time></trkpt><trkpt lat="45.12829541666667" lon="7.6405356499999995"><ele>258.3333333333333</ele><time>2026-05-02T17:22:52.503Z</time></trkpt><trkpt lat="45.12832920000001" lon="7.640453333333332"><ele>258.1666666666667</ele><time>2026-05-02T17:22:53.505Z</time></trkpt><trkpt lat="45.12838091666667" lon="7.64032795"><ele>258.0</ele><time>2026-05-02T17:22:55.515Z</time></trkpt><trkpt lat="45.128414516666666" lon="7.6402455499999995"><ele>257.8333333333333</ele><time>2026-05-02T17:22:57.484Z</time></trkpt><trkpt lat="45.12845961666667" lon="7.640145883333335"><ele>257.6666666666667</ele><time>2026-05-02T17:22:59.493Z</time></trkpt><trkpt lat="45.128516366666666" lon="7.640018899999999"><ele>257.5</ele><time>2026-05-02T17:23:01.495Z</time></trkpt><trkpt lat="45.12858291666666" lon="7.639877083333332"><ele>257.33333333333337</ele><time>2026-05-02T17:23:03.493Z</time></trkpt><trkpt lat="45.12861385" lon="7.639798366666668"><ele>257.1666666666667</ele><time>2026-05-02T17:23:04.494Z</time></trkpt><trkpt lat="45.128638816666665" lon="7.639715483333333"><ele>257.0</ele><time>2026-05-02T17:23:05.497Z</time></trkpt><trkpt lat="45.128658849999994" lon="7.639629983333333"><ele>257.0</ele><time>2026-05-02T17:23:06.485Z</time></trkpt><trkpt lat="45.12869448333333" lon="7.639467366666666"><ele>257.0</ele><time>2026-05-02T17:23:08.493Z</time></trkpt><trkpt lat="45.128728583333334" lon="7.6393305"><ele>257.0</ele><time>2026-05-02T17:23:10.394Z</time></trkpt><trkpt lat="45.128762949999995" lon="7.639204433333333"><ele>257.0</ele><time>2026-05-02T17:23:12.407Z</time></trkpt><trkpt lat="45.12879288333334" lon="7.6390760166666665"><ele>257.0</ele><time>2026-05-02T17:23:14.409Z</time></trkpt><trkpt lat="45.12882296666666" lon="7.638926816666666"><ele>257.0</ele><time>2026-05-02T17:23:16.505Z</time></trkpt><trkpt lat="45.128854066666655" lon="7.638746866666666"><ele>257.0</ele><time>2026-05-02T17:23:18.505Z</time></trkpt><trkpt lat="45.128869483333325" lon="7.638649216666666"><ele>257.0</ele><time>2026-05-02T17:23:19.495Z</time></trkpt><trkpt lat="45.128884333333325" lon="7.638551316666668"><ele>257.0</ele><time>2026-05-02T17:23:20.504Z</time></trkpt><trkpt lat="45.128899000000004" lon="7.638453333333333"><ele>257.0</ele><time>2026-05-02T17:23:21.504Z</time></trkpt><trkpt lat="45.12892413333334" lon="7.638281750000001"><ele>257.2</ele><time>2026-05-02T17:23:23.505Z</time></trkpt><trkpt lat="45.12894441666667" lon="7.638134399999999"><ele>257.4</ele><time>2026-05-02T17:23:25.396Z</time></trkpt><trkpt lat="45.128968150000006" lon="7.63798805"><ele>257.6</ele><time>2026-05-02T17:23:27.504Z</time></trkpt><trkpt lat="45.1289938" lon="7.637847566666666"><ele>257.8</ele><time>2026-05-02T17:23:29.494Z</time></trkpt><trkpt lat="45.128939659040356" lon="7.6377151347835515"><ele>258.0</ele><time>2026-05-02T17:23:31.505Z</time></trkpt><trkpt lat="45.12889881766734" lon="7.637639598190037"><ele>258.1666666666667</ele><time>2026-05-02T17:23:32.496Z</time></trkpt><trkpt lat="45.12885921327161" lon="7.637566349393672"><ele>258.3333333333333</ele><time>2026-05-02T17:23:33.494Z</time></trkpt><trkpt lat="45.12881616718659" lon="7.637486735128683"><ele>258.5</ele><time>2026-05-02T17:23:34.394Z</time></trkpt><trkpt lat="45.12876917988634" lon="7.637398673254858"><ele>258.66666666666663</ele><time>2026-05-02T17:23:35.494Z</time></trkpt><trkpt lat="45.128711594486724" lon="7.637290657413005"><ele>258.8333333333333</ele><time>2026-05-02T17:23:37.505Z</time></trkpt><trkpt lat="45.128643382854236" lon="7.637162709443995"><ele>259.0</ele><time>2026-05-02T17:23:39.505Z</time></trkpt><trkpt lat="45.12859868071488" lon="7.63707866128986"><ele>259.0</ele><time>2026-05-02T17:23:40.493Z</time></trkpt><trkpt lat="45.12854757462666" lon="7.6369825887124"><ele>259.0</ele><time>2026-05-02T17:23:41.504Z</time></trkpt><trkpt lat="45.128503033333324" lon="7.63686085"><ele>259.0</ele><time>2026-05-02T17:23:42.505Z</time></trkpt><trkpt lat="45.12844595" lon="7.636758683333333"><ele>259.0</ele><time>2026-05-02T17:23:43.394Z</time></trkpt><trkpt lat="45.1283825" lon="7.636644266666667"><ele>259.0</ele><time>2026-05-02T17:23:44.408Z</time></trkpt><trkpt lat="45.12831075000001" lon="7.6365136666666675"><ele>259.2</ele><time>2026-05-02T17:23:45.505Z</time></trkpt><trkpt lat="45.12825468333334" lon="7.636410316666667"><ele>259.4</ele><time>2026-05-02T17:23:46.407Z</time></trkpt><trkpt lat="45.128188383333324" lon="7.636286516666667"><ele>259.6</ele><time>2026-05-02T17:23:47.504Z</time></trkpt><trkpt lat="45.128137083333336" lon="7.63619055"><ele>259.8</ele><time>2026-05-02T17:23:48.41Z</time></trkpt><trkpt lat="45.128083516666656" lon="7.6360908"><ele>260.0</ele><time>2026-05-02T17:23:49.515Z</time></trkpt><trkpt lat="45.12801713333334" lon="7.635973466666667"><ele>260.6666666666667</ele><time>2026-05-02T17:23:51.414Z</time></trkpt><trkpt lat="45.127914930045186" lon="7.635911933856072"><ele>261.33333333333337</ele><time>2026-05-02T17:23:53.509Z</time></trkpt><trkpt lat="45.127873050000005" lon="7.635832816666667"><ele>262.0</ele><time>2026-05-02T17:23:54.507Z</time></trkpt><trkpt lat="45.127806583333324" lon="7.635843116666666"><ele>262.6666666666667</ele><time>2026-05-02T17:23:55.455Z</time></trkpt><trkpt lat="45.12772645" lon="7.635914783333334"><ele>263.3333333333333</ele><time>2026-05-02T17:23:56.516Z</time></trkpt><trkpt lat="45.127658383333326" lon="7.636016800000001"><ele>264.0</ele><time>2026-05-02T17:23:57.497Z</time></trkpt><trkpt lat="45.12758403333334" lon="7.636131116666666"><ele>263.5</ele><time>2026-05-02T17:23:58.494Z</time></trkpt><trkpt lat="45.12749846666667" lon="7.636264983333333"><ele>263.0</ele><time>2026-05-02T17:23:59.504Z</time></trkpt><trkpt lat="45.127411200000004" lon="7.636410066666667"><ele>262.5</ele><time>2026-05-02T17:24:00.514Z</time></trkpt><trkpt lat="45.12731900000001" lon="7.636569"><ele>262.0</ele><time>2026-05-02T17:24:01.504Z</time></trkpt><trkpt lat="45.12722269999999" lon="7.636736299999999"><ele>261.3333333333333</ele><time>2026-05-02T17:24:02.504Z</time></trkpt><trkpt lat="45.12712018333333" lon="7.636928166666666"><ele>260.6666666666667</ele><time>2026-05-02T17:24:03.493Z</time></trkpt><trkpt lat="45.12701356666666" lon="7.637109466666668"><ele>260.0</ele><time>2026-05-02T17:24:04.486Z</time></trkpt><trkpt lat="45.12691525" lon="7.637274500000001"><ele>259.6666666666667</ele><time>2026-05-02T17:24:05.414Z</time></trkpt><trkpt lat="45.126804783333334" lon="7.637457816666667"><ele>259.3333333333333</ele><time>2026-05-02T17:24:06.432Z</time></trkpt><trkpt lat="45.1266783" lon="7.6376614"><ele>259.0</ele><time>2026-05-02T17:24:07.498Z</time></trkpt><trkpt lat="45.126561116666664" lon="7.637843133333333"><ele>258.3333333333333</ele><time>2026-05-02T17:24:08.487Z</time></trkpt><trkpt lat="45.12643848333334" lon="7.638017550000001"><ele>257.6666666666667</ele><time>2026-05-02T17:24:09.489Z</time></trkpt><trkpt lat="45.12631008333332" lon="7.638183433333333"><ele>257.0</ele><time>2026-05-02T17:24:10.678Z</time></trkpt><trkpt lat="45.12602995" lon="7.6385079000000005"><ele>257.0</ele><time>2026-05-02T17:24:12.486Z</time></trkpt><trkpt lat="45.12588855000001" lon="7.638659516666666"><ele>257.0</ele><time>2026-05-02T17:24:13.488Z</time></trkpt><trkpt lat="45.12575628333334" lon="7.63879515"><ele>257.0</ele><time>2026-05-02T17:24:14.396Z</time></trkpt><trkpt lat="45.12562058333334" lon="7.63893235"><ele>257.33333333333337</ele><time>2026-05-02T17:24:15.39Z</time></trkpt><trkpt lat="45.12547254999999" lon="7.639079716666666"><ele>257.6666666666667</ele><time>2026-05-02T17:24:16.486Z</time></trkpt><trkpt lat="45.12534448333334" lon="7.639205933333333"><ele>258.0</ele><time>2026-05-02T17:24:17.487Z</time></trkpt><trkpt lat="45.12523056666667" lon="7.639316916666667"><ele>258.0</ele><time>2026-05-02T17:24:18.504Z</time></trkpt><trkpt lat="45.12514176830269" lon="7.639432486728049"><ele>258.0</ele><time>2026-05-02T17:24:19.508Z</time></trkpt><trkpt lat="45.125019266666676" lon="7.639465116666666"><ele>258.0</ele><time>2026-05-02T17:24:20.504Z</time></trkpt><trkpt lat="45.12490653333332" lon="7.6394754166666665"><ele>258.0</ele><time>2026-05-02T17:24:21.505Z</time></trkpt><trkpt lat="45.12479236666666" lon="7.639441216666667"><ele>258.0</ele><time>2026-05-02T17:24:22.504Z</time></trkpt><trkpt lat="45.12467828333333" lon="7.639372816666665"><ele>258.0</ele><time>2026-05-02T17:24:23.506Z</time></trkpt><trkpt lat="45.12455918333333" lon="7.639283900000001"><ele>258.0</ele><time>2026-05-02T17:24:24.504Z</time></trkpt><trkpt lat="45.124438483333336" lon="7.639188666666667"><ele>258.0</ele><time>2026-05-02T17:24:25.504Z</time></trkpt><trkpt lat="45.12431241666667" lon="7.639086416666667"><ele>258.0</ele><time>2026-05-02T17:24:26.504Z</time></trkpt><trkpt lat="45.1241928" lon="7.6389881"><ele>258.0</ele><time>2026-05-02T17:24:27.504Z</time></trkpt><trkpt lat="45.12407973333334" lon="7.6388943000000005"><ele>258.0</ele><time>2026-05-02T17:24:28.504Z</time></trkpt><trkpt lat="45.12397881666667" lon="7.638810566666667"><ele>258.0</ele><time>2026-05-02T17:24:29.508Z</time></trkpt><trkpt lat="45.123884100000005" lon="7.638731950000001"><ele>258.0</ele><time>2026-05-02T17:24:30.508Z</time></trkpt><trkpt lat="45.1238017" lon="7.638663299999999"><ele>258.0</ele><time>2026-05-02T17:24:31.507Z</time></trkpt><trkpt lat="45.123734733333336" lon="7.638607049999999"><ele>258.0</ele><time>2026-05-02T17:24:32.513Z</time></trkpt><trkpt lat="45.12364655" lon="7.6385327"><ele>258.0</ele><time>2026-05-02T17:24:34.507Z</time></trkpt><trkpt lat="45.12359199999999" lon="7.638486183333334"><ele>258.0</ele><time>2026-05-02T17:24:36.507Z</time></trkpt><trkpt lat="45.123519566666666" lon="7.638423233333333"><ele>258.0</ele><time>2026-05-02T17:24:40.409Z</time></trkpt><trkpt lat="45.123461150000004" lon="7.63836675"><ele>258.0</ele><time>2026-05-02T17:24:42.506Z</time></trkpt><trkpt lat="45.12341001666667" lon="7.638313016666666"><ele>258.0</ele><time>2026-05-02T17:24:44.505Z</time></trkpt><trkpt lat="45.1233604" lon="7.638256433333334"><ele>258.0</ele><time>2026-05-02T17:24:46.407Z</time></trkpt><trkpt lat="45.12330165" lon="7.638170100000001"><ele>258.0</ele><time>2026-05-02T17:24:48.505Z</time></trkpt><trkpt lat="45.12324606666667" lon="7.6380457999999996"><ele>258.0</ele><time>2026-05-02T17:24:50.505Z</time></trkpt><trkpt lat="45.12320433333333" lon="7.6379779999999995"><ele>258.0</ele><time>2026-05-02T17:24:51.507Z</time></trkpt><trkpt lat="45.123088154768375" lon="7.63785773479067"><ele>258.0</ele><time>2026-05-02T17:24:53.505Z</time></trkpt><trkpt lat="45.12300698750669" lon="7.6378542744264255"><ele>258.0</ele><time>2026-05-02T17:24:54.506Z</time></trkpt><trkpt lat="45.122923586477704" lon="7.637895771581561"><ele>258.0</ele><time>2026-05-02T17:24:55.505Z</time></trkpt><trkpt lat="45.12288681666667" lon="7.638005233333334"><ele>258.0</ele><time>2026-05-02T17:24:56.516Z</time></trkpt><trkpt lat="45.12283578333332" lon="7.638094916666667"><ele>258.0</ele><time>2026-05-02T17:24:57.509Z</time></trkpt><trkpt lat="45.12279060000001" lon="7.638178316666667"><ele>258.0</ele><time>2026-05-02T17:24:58.409Z</time></trkpt><trkpt lat="45.1227217" lon="7.638278983333333"><ele>258.0</ele><time>2026-05-02T17:24:59.505Z</time></trkpt><trkpt lat="45.12264424999999" lon="7.638358116666666"><ele>258.0</ele><time>2026-05-02T17:25:00.505Z</time></trkpt><trkpt lat="45.122549116666676" lon="7.638425000000001"><ele>258.0</ele><time>2026-05-02T17:25:01.514Z</time></trkpt><trkpt lat="45.122443499999996" lon="7.638483499999999"><ele>258.0</ele><time>2026-05-02T17:25:02.505Z</time></trkpt><trkpt lat="45.12233026666666" lon="7.638542100000001"><ele>258.0</ele><time>2026-05-02T17:25:03.505Z</time></trkpt><trkpt lat="45.1222063" lon="7.638603033333333"><ele>258.75</ele><time>2026-05-02T17:25:04.507Z</time></trkpt><trkpt lat="45.12208115" lon="7.638659266666667"><ele>259.5</ele><time>2026-05-02T17:25:05.505Z</time></trkpt><trkpt lat="45.12195475000001" lon="7.638709650000001"><ele>260.25</ele><time>2026-05-02T17:25:06.508Z</time></trkpt><trkpt lat="45.12182718333334" lon="7.638753566666665"><ele>261.0</ele><time>2026-05-02T17:25:07.505Z</time></trkpt><trkpt lat="45.12170095" lon="7.638800766666667"><ele>260.75</ele><time>2026-05-02T17:25:08.505Z</time></trkpt><trkpt lat="45.12156071666667" lon="7.638832866666667"><ele>260.5</ele><time>2026-05-02T17:25:09.506Z</time></trkpt><trkpt lat="45.12141998333333" lon="7.638859266666667"><ele>260.25</ele><time>2026-05-02T17:25:10.507Z</time></trkpt><trkpt lat="45.121275233333336" lon="7.6388804666666665"><ele>260.0</ele><time>2026-05-02T17:25:11.506Z</time></trkpt><trkpt lat="45.12112611666666" lon="7.638883066666668"><ele>260.0</ele><time>2026-05-02T17:25:12.505Z</time></trkpt><trkpt lat="45.12097818333333" lon="7.63885775"><ele>260.0</ele><time>2026-05-02T17:25:13.507Z</time></trkpt><trkpt lat="45.12083075" lon="7.638801850000001"><ele>260.0</ele><time>2026-05-02T17:25:14.506Z</time></trkpt><trkpt lat="45.1206833" lon="7.6387149333333335"><ele>259.33333333333337</ele><time>2026-05-02T17:25:15.506Z</time></trkpt><trkpt lat="45.12053370348767" lon="7.638627177184311"><ele>258.6666666666667</ele><time>2026-05-02T17:25:16.505Z</time></trkpt><trkpt lat="45.12039402380681" lon="7.638478130223139"><ele>258.0</ele><time>2026-05-02T17:25:17.505Z</time></trkpt><trkpt lat="45.120273475209785" lon="7.638294617468538"><ele>258.0</ele><time>2026-05-02T17:25:18.509Z</time></trkpt><trkpt lat="45.120183233333336" lon="7.638084533333334"><ele>258.0</ele><time>2026-05-02T17:25:19.505Z</time></trkpt><trkpt lat="45.120091966666656" lon="7.637863166666667"><ele>258.0</ele><time>2026-05-02T17:25:20.497Z</time></trkpt><trkpt lat="45.120001349999995" lon="7.6376294666666675"><ele>258.0</ele><time>2026-05-02T17:25:21.497Z</time></trkpt><trkpt lat="45.11991066666666" lon="7.637390083333334"><ele>258.0</ele><time>2026-05-02T17:25:22.495Z</time></trkpt><trkpt lat="45.11981938333333" lon="7.637145416666668"><ele>258.0</ele><time>2026-05-02T17:25:23.495Z</time></trkpt><trkpt lat="45.1197271" lon="7.6368957166666664"><ele>258.3333333333333</ele><time>2026-05-02T17:25:24.496Z</time></trkpt><trkpt lat="45.11963346666666" lon="7.636642000000001"><ele>258.66666666666663</ele><time>2026-05-02T17:25:25.485Z</time></trkpt><trkpt lat="45.11953758333334" lon="7.63638485"><ele>259.0</ele><time>2026-05-02T17:25:26.489Z</time></trkpt><trkpt lat="45.119441433333336" lon="7.636127933333333"><ele>259.66666666666663</ele><time>2026-05-02T17:25:27.488Z</time></trkpt><trkpt lat="45.119343616666654" lon="7.635866583333335"><ele>260.3333333333333</ele><time>2026-05-02T17:25:28.486Z</time></trkpt><trkpt lat="45.11924765" lon="7.635609433333333"><ele>261.0</ele><time>2026-05-02T17:25:29.497Z</time></trkpt><trkpt lat="45.11915309999999" lon="7.635356966666666"><ele>260.0</ele><time>2026-05-02T17:25:30.495Z</time></trkpt><trkpt lat="45.1190516" lon="7.6351139"><ele>259.0</ele><time>2026-05-02T17:25:31.487Z</time></trkpt><trkpt lat="45.11895478333333" lon="7.634857066666666"><ele>258.0</ele><time>2026-05-02T17:25:32.487Z</time></trkpt><trkpt lat="45.118859816666664" lon="7.634605116666667"><ele>258.6666666666667</ele><time>2026-05-02T17:25:33.486Z</time></trkpt><trkpt lat="45.118761583333324" lon="7.634344266666667"><ele>259.33333333333337</ele><time>2026-05-02T17:25:34.488Z</time></trkpt><trkpt lat="45.118661833333334" lon="7.634078899999999"><ele>260.0</ele><time>2026-05-02T17:25:35.486Z</time></trkpt><trkpt lat="45.11856276666667" lon="7.633812933333333"><ele>260.33333333333337</ele><time>2026-05-02T17:25:36.486Z</time></trkpt><trkpt lat="45.118464366666664" lon="7.633546399999999"><ele>260.6666666666667</ele><time>2026-05-02T17:25:37.496Z</time></trkpt><trkpt lat="45.11836268333333" lon="7.633270966666667"><ele>261.0</ele><time>2026-05-02T17:25:38.498Z</time></trkpt><trkpt lat="45.11826286666666" lon="7.6329998166666675"><ele>261.3333333333333</ele><time>2026-05-02T17:25:39.498Z</time></trkpt><trkpt lat="45.11814839172892" lon="7.632746040897321"><ele>261.66666666666663</ele><time>2026-05-02T17:25:40.497Z</time></trkpt><trkpt lat="45.1180674" lon="7.632460099999999"><ele>262.0</ele><time>2026-05-02T17:25:41.647Z</time></trkpt><trkpt lat="45.11797326666667" lon="7.632196316666667"><ele>262.66666666666663</ele><time>2026-05-02T17:25:42.508Z</time></trkpt><trkpt lat="45.11787946666667" lon="7.631937916666668"><ele>263.3333333333333</ele><time>2026-05-02T17:25:43.495Z</time></trkpt><trkpt lat="45.11777453333334" lon="7.631679666666668"><ele>264.0</ele><time>2026-05-02T17:25:44.497Z</time></trkpt><trkpt lat="45.11767101666666" lon="7.6314003"><ele>264.0</ele><time>2026-05-02T17:25:45.495Z</time></trkpt><trkpt lat="45.11756708333334" lon="7.631104166666668"><ele>264.0</ele><time>2026-05-02T17:25:46.497Z</time></trkpt><trkpt lat="45.1174603" lon="7.630787500000001"><ele>264.0</ele><time>2026-05-02T17:25:47.486Z</time></trkpt><trkpt lat="45.11735283333334" lon="7.630460016666666"><ele>264.0</ele><time>2026-05-02T17:25:48.497Z</time></trkpt><trkpt lat="45.11724051666667" lon="7.630113333333332"><ele>264.0</ele><time>2026-05-02T17:25:49.507Z</time></trkpt><trkpt lat="45.11712443333332" lon="7.629752416666668"><ele>264.0</ele><time>2026-05-02T17:25:50.505Z</time></trkpt><trkpt lat="45.11700633333333" lon="7.629381516666665"><ele>263.5</ele><time>2026-05-02T17:25:51.497Z</time></trkpt><trkpt lat="45.11688211666666" lon="7.628992250000001"><ele>263.0</ele><time>2026-05-02T17:25:52.497Z</time></trkpt><trkpt lat="45.116756550000005" lon="7.628598133333333"><ele>263.5</ele><time>2026-05-02T17:25:53.505Z</time></trkpt><trkpt lat="45.11662536666666" lon="7.628190783333334"><ele>264.0</ele><time>2026-05-02T17:25:54.506Z</time></trkpt><trkpt lat="45.116490166666665" lon="7.627774866666665"><ele>264.0</ele><time>2026-05-02T17:25:55.508Z</time></trkpt><trkpt lat="45.116350700000005" lon="7.6273562"><ele>264.0</ele><time>2026-05-02T17:25:56.506Z</time></trkpt><trkpt lat="45.11620351666667" lon="7.626925533333334"><ele>264.0</ele><time>2026-05-02T17:25:57.497Z</time></trkpt><trkpt lat="45.116053133333324" lon="7.62649235"><ele>264.0</ele><time>2026-05-02T17:25:58.497Z</time></trkpt><trkpt lat="45.115898" lon="7.626063950000001"><ele>263.5</ele><time>2026-05-02T17:25:59.501Z</time></trkpt><trkpt lat="45.11573663333334" lon="7.62564"><ele>263.0</ele><time>2026-05-02T17:26:00.495Z</time></trkpt><trkpt lat="45.11557503333333" lon="7.6252274333333325"><ele>263.0</ele><time>2026-05-02T17:26:01.497Z</time></trkpt><trkpt lat="45.115414683333334" lon="7.624825116666666"><ele>263.0</ele><time>2026-05-02T17:26:02.506Z</time></trkpt><trkpt lat="45.11525618333333" lon="7.6244325"><ele>265.0</ele><time>2026-05-02T17:26:03.512Z</time></trkpt><trkpt lat="45.11509516666667" lon="7.6240424"><ele>267.0</ele><time>2026-05-02T17:26:04.489Z</time></trkpt><trkpt lat="45.114928283333334" lon="7.623645783333335"><ele>267.0</ele><time>2026-05-02T17:26:05.496Z</time></trkpt><trkpt lat="45.11475461666667" lon="7.623243116666667"><ele>267.0</ele><time>2026-05-02T17:26:06.507Z</time></trkpt><trkpt lat="45.11457741666666" lon="7.6228515"><ele>267.5</ele><time>2026-05-02T17:26:07.506Z</time></trkpt><trkpt lat="45.11439075" lon="7.622442549999999"><ele>268.0</ele><time>2026-05-02T17:26:08.505Z</time></trkpt><trkpt lat="45.11420006666667" lon="7.622031333333333"><ele>269.0</ele><time>2026-05-02T17:26:09.507Z</time></trkpt><trkpt lat="45.11400711666666" lon="7.621622133333333"><ele>270.0</ele><time>2026-05-02T17:26:10.496Z</time></trkpt><trkpt lat="45.11380938333333" lon="7.621205383333334"><ele>270.0</ele><time>2026-05-02T17:26:11.496Z</time></trkpt><trkpt lat="45.11361191666666" lon="7.620788549999999"><ele>270.0</ele><time>2026-05-02T17:26:12.495Z</time></trkpt><trkpt lat="45.113412749999995" lon="7.620367449999999"><ele>270.0</ele><time>2026-05-02T17:26:13.497Z</time></trkpt><trkpt lat="45.11321595" lon="7.6199502"><ele>270.0</ele><time>2026-05-02T17:26:14.496Z</time></trkpt><trkpt lat="45.113016966666656" lon="7.619529083333333"><ele>271.0</ele><time>2026-05-02T17:26:15.496Z</time></trkpt><trkpt lat="45.11281730000001" lon="7.619108733333333"><ele>272.0</ele><time>2026-05-02T17:26:16.506Z</time></trkpt><trkpt lat="45.112615216666676" lon="7.618684450000001"><ele>272.0</ele><time>2026-05-02T17:26:17.5Z</time></trkpt><trkpt lat="45.1124195" lon="7.618269866666666"><ele>272.0</ele><time>2026-05-02T17:26:18.506Z</time></trkpt><trkpt lat="45.11221390000001" lon="7.617837283333333"><ele>272.5</ele><time>2026-05-02T17:26:19.496Z</time></trkpt><trkpt lat="45.112007866666666" lon="7.61740495"><ele>273.0</ele><time>2026-05-02T17:26:20.496Z</time></trkpt><trkpt lat="45.11180175" lon="7.616972433333332"><ele>273.0</ele><time>2026-05-02T17:26:21.496Z</time></trkpt><trkpt lat="45.11159169999999" lon="7.6165315499999995"><ele>273.0</ele><time>2026-05-02T17:26:22.496Z</time></trkpt><trkpt lat="45.111384083333334" lon="7.616094516666667"><ele>273.0</ele><time>2026-05-02T17:26:23.506Z</time></trkpt><trkpt lat="45.11117613333332" lon="7.6156579833333335"><ele>273.0</ele><time>2026-05-02T17:26:24.507Z</time></trkpt><trkpt lat="45.11097043333333" lon="7.615225733333333"><ele>273.0</ele><time>2026-05-02T17:26:25.506Z</time></trkpt><trkpt lat="45.11076265" lon="7.614789616666667"><ele>273.0</ele><time>2026-05-02T17:26:26.508Z</time></trkpt><trkpt lat="45.11055696666668" lon="7.614357283333335"><ele>273.0</ele><time>2026-05-02T17:26:27.506Z</time></trkpt><trkpt lat="45.11035738333334" lon="7.613935933333332"><ele>273.0</ele><time>2026-05-02T17:26:28.506Z</time></trkpt><trkpt lat="45.11015236666667" lon="7.613503416666667"><ele>273.5</ele><time>2026-05-02T17:26:29.506Z</time></trkpt><trkpt lat="45.1099512" lon="7.613079633333332"><ele>274.0</ele><time>2026-05-02T17:26:30.508Z</time></trkpt><trkpt lat="45.10975396666666" lon="7.6126644"><ele>274.5</ele><time>2026-05-02T17:26:31.509Z</time></trkpt><trkpt lat="45.10955893333333" lon="7.612253433333332"><ele>275.0</ele><time>2026-05-02T17:26:32.507Z</time></trkpt><trkpt lat="45.10936538333333" lon="7.6118475000000005"><ele>274.0</ele><time>2026-05-02T17:26:33.508Z</time></trkpt><trkpt lat="45.10917545000001" lon="7.611450700000001"><ele>273.0</ele><time>2026-05-02T17:26:34.508Z</time></trkpt><trkpt lat="45.108987283333335" lon="7.611056500000001"><ele>273.0</ele><time>2026-05-02T17:26:35.506Z</time></trkpt><trkpt lat="45.1088059" lon="7.610687016666667"><ele>273.0</ele><time>2026-05-02T17:26:36.506Z</time></trkpt><trkpt lat="45.108624183333326" lon="7.610303883333334"><ele>273.0</ele><time>2026-05-02T17:26:37.508Z</time></trkpt><trkpt lat="45.10844413333332" lon="7.609925766666667"><ele>273.0</ele><time>2026-05-02T17:26:38.508Z</time></trkpt><trkpt lat="45.108265683333336" lon="7.609552616666668"><ele>274.0</ele><time>2026-05-02T17:26:39.509Z</time></trkpt><trkpt lat="45.10808748333334" lon="7.609179449999999"><ele>275.0</ele><time>2026-05-02T17:26:40.506Z</time></trkpt><trkpt lat="45.10790416666667" lon="7.608793050000001"><ele>274.0</ele><time>2026-05-02T17:26:41.506Z</time></trkpt><trkpt lat="45.107722366666664" lon="7.608405216666667"><ele>273.0</ele><time>2026-05-02T17:26:42.506Z</time></trkpt><trkpt lat="45.10754291666667" lon="7.608018050000001"><ele>270.5</ele><time>2026-05-02T17:26:43.508Z</time></trkpt><trkpt lat="45.107361616666665" lon="7.6076126166666675"><ele>268.0</ele><time>2026-05-02T17:26:44.507Z</time></trkpt><trkpt lat="45.10718566666666" lon="7.6072092"><ele>270.5</ele><time>2026-05-02T17:26:45.506Z</time></trkpt><trkpt lat="45.107010149999994" lon="7.606793616666666"><ele>273.0</ele><time>2026-05-02T17:26:46.508Z</time></trkpt><trkpt lat="45.106840416666664" lon="7.606378883333334"><ele>275.0</ele><time>2026-05-02T17:26:47.509Z</time></trkpt><trkpt lat="45.106672200000006" lon="7.6059571166666675"><ele>277.0</ele><time>2026-05-02T17:26:48.507Z</time></trkpt><trkpt lat="45.106509" lon="7.605536933333334"><ele>277.0</ele><time>2026-05-02T17:26:49.507Z</time></trkpt><trkpt lat="45.106351" lon="7.6051185"><ele>277.0</ele><time>2026-05-02T17:26:50.507Z</time></trkpt><trkpt lat="45.10619996666666" lon="7.6047057833333325"><ele>277.0</ele><time>2026-05-02T17:26:51.508Z</time></trkpt><trkpt lat="45.10606081666666" lon="7.604305366666668"><ele>277.0</ele><time>2026-05-02T17:26:52.507Z</time></trkpt><trkpt lat="45.10592185000001" lon="7.603901116666666"><ele>277.5</ele><time>2026-05-02T17:26:53.506Z</time></trkpt><trkpt lat="45.10578950000001" lon="7.60350365"><ele>278.0</ele><time>2026-05-02T17:26:54.511Z</time></trkpt><trkpt lat="45.10566168333333" lon="7.603108849999999"><ele>277.5</ele><time>2026-05-02T17:26:55.507Z</time></trkpt><trkpt lat="45.10553988333333" lon="7.602721533333332"><ele>277.0</ele><time>2026-05-02T17:26:56.51Z</time></trkpt><trkpt lat="45.10542095" lon="7.602332866666666"><ele>277.0</ele><time>2026-05-02T17:26:57.508Z</time></trkpt><trkpt lat="45.1053031" lon="7.6019380666666665"><ele>277.0</ele><time>2026-05-02T17:26:58.506Z</time></trkpt><trkpt lat="45.10518885" lon="7.601546466666668"><ele>278.0</ele><time>2026-05-02T17:26:59.512Z</time></trkpt><trkpt lat="45.10508433333333" lon="7.601161566666668"><ele>279.0</ele><time>2026-05-02T17:27:00.506Z</time></trkpt><trkpt lat="45.10497285" lon="7.600763016666668"><ele>278.5</ele><time>2026-05-02T17:27:01.507Z</time></trkpt><trkpt lat="45.10486213333334" lon="7.600363866666666"><ele>278.0</ele><time>2026-05-02T17:27:02.508Z</time></trkpt><trkpt lat="45.104750483333326" lon="7.599959766666666"><ele>278.0</ele><time>2026-05-02T17:27:03.507Z</time></trkpt><trkpt lat="45.104636150000005" lon="7.599551750000001"><ele>278.0</ele><time>2026-05-02T17:27:04.506Z</time></trkpt><trkpt lat="45.104521150000004" lon="7.5991439666666665"><ele>279.0</ele><time>2026-05-02T17:27:05.507Z</time></trkpt><trkpt lat="45.104402799999995" lon="7.5987218499999996"><ele>280.0</ele><time>2026-05-02T17:27:06.509Z</time></trkpt><trkpt lat="45.10428528333333" lon="7.5982988166666665"><ele>280.0</ele><time>2026-05-02T17:27:07.508Z</time></trkpt><trkpt lat="45.1041681" lon="7.597875283333334"><ele>280.0</ele><time>2026-05-02T17:27:08.51Z</time></trkpt><trkpt lat="45.10405755" lon="7.597451566666666"><ele>280.0</ele><time>2026-05-02T17:27:09.508Z</time></trkpt><trkpt lat="45.1039407" lon="7.597033649999999"><ele>280.0</ele><time>2026-05-02T17:27:10.507Z</time></trkpt><trkpt lat="45.1038231" lon="7.5966107"><ele>281.0</ele><time>2026-05-02T17:27:11.509Z</time></trkpt><trkpt lat="45.103705416666656" lon="7.596187833333333"><ele>282.0</ele><time>2026-05-02T17:27:12.658Z</time></trkpt><trkpt lat="45.1035869" lon="7.59576555"><ele>282.0</ele><time>2026-05-02T17:27:13.51Z</time></trkpt><trkpt lat="45.10346746666667" lon="7.595338333333332"><ele>282.0</ele><time>2026-05-02T17:27:14.507Z</time></trkpt><trkpt lat="45.103348516666664" lon="7.594910683333334"><ele>282.5</ele><time>2026-05-02T17:27:15.51Z</time></trkpt><trkpt lat="45.10323243333334" lon="7.594492100000001"><ele>283.0</ele><time>2026-05-02T17:27:16.511Z</time></trkpt><trkpt lat="45.103117016666666" lon="7.594073333333333"><ele>282.0</ele><time>2026-05-02T17:27:17.51Z</time></trkpt><trkpt lat="45.103003099999995" lon="7.593659266666667"><ele>281.0</ele><time>2026-05-02T17:27:18.51Z</time></trkpt><trkpt lat="45.10289933333333" lon="7.59325325"><ele>281.0</ele><time>2026-05-02T17:27:19.509Z</time></trkpt><trkpt lat="45.10278726666667" lon="7.592849316666667"><ele>281.0</ele><time>2026-05-02T17:27:20.507Z</time></trkpt><trkpt lat="45.10267746666667" lon="7.59245495"><ele>282.0</ele><time>2026-05-02T17:27:21.51Z</time></trkpt><trkpt lat="45.102567416666666" lon="7.592061083333334"><ele>283.0</ele><time>2026-05-02T17:27:22.507Z</time></trkpt><trkpt lat="45.10245936666667" lon="7.591671333333332"><ele>284.0</ele><time>2026-05-02T17:27:23.508Z</time></trkpt><trkpt lat="45.102350916666666" lon="7.59128165"><ele>285.0</ele><time>2026-05-02T17:27:24.507Z</time></trkpt><trkpt lat="45.10224336666667" lon="7.590897016666665"><ele>285.0</ele><time>2026-05-02T17:27:25.509Z</time></trkpt><trkpt lat="45.102134899999996" lon="7.59050775"><ele>285.0</ele><time>2026-05-02T17:27:26.507Z</time></trkpt><trkpt lat="45.10202786666667" lon="7.59012285"><ele>284.5</ele><time>2026-05-02T17:27:27.512Z</time></trkpt><trkpt lat="45.101927866666664" lon="7.589731250000001"><ele>284.0</ele><time>2026-05-02T17:27:28.509Z</time></trkpt><trkpt lat="45.10181748333333" lon="7.589332016666666"><ele>284.0</ele><time>2026-05-02T17:27:29.507Z</time></trkpt><trkpt lat="45.101705499999994" lon="7.5889280999999995"><ele>284.0</ele><time>2026-05-02T17:27:30.507Z</time></trkpt><trkpt lat="45.10159108333334" lon="7.588514366666667"><ele>285.0</ele><time>2026-05-02T17:27:31.511Z</time></trkpt><trkpt lat="45.101475583333325" lon="7.5880957"><ele>286.0</ele><time>2026-05-02T17:27:32.507Z</time></trkpt><trkpt lat="45.101359416666675" lon="7.5876719"><ele>286.0</ele><time>2026-05-02T17:27:33.508Z</time></trkpt><trkpt lat="45.10124483333334" lon="7.5872524666666665"><ele>286.0</ele><time>2026-05-02T17:27:34.507Z</time></trkpt><trkpt lat="45.101129750000005" lon="7.586833466666667"><ele>286.5</ele><time>2026-05-02T17:27:35.509Z</time></trkpt><trkpt lat="45.10101718333334" lon="7.586423999999999"><ele>287.0</ele><time>2026-05-02T17:27:36.509Z</time></trkpt><trkpt lat="45.10090343333333" lon="7.586009933333335"><ele>287.0</ele><time>2026-05-02T17:27:37.508Z</time></trkpt><trkpt lat="45.1007897" lon="7.585595883333333"><ele>287.0</ele><time>2026-05-02T17:27:38.507Z</time></trkpt><trkpt lat="45.10067428333333" lon="7.5851772"><ele>287.0</ele><time>2026-05-02T17:27:39.51Z</time></trkpt><trkpt lat="45.1005566" lon="7.584749049999999"><ele>287.0</ele><time>2026-05-02T17:27:40.51Z</time></trkpt><trkpt lat="45.10043781666666" lon="7.584315866666666"><ele>286.5</ele><time>2026-05-02T17:27:41.51Z</time></trkpt><trkpt lat="45.10031863333334" lon="7.583882783333333"><ele>286.0</ele><time>2026-05-02T17:27:42.509Z</time></trkpt><trkpt lat="45.10020078333334" lon="7.5834543"><ele>287.0</ele><time>2026-05-02T17:27:43.507Z</time></trkpt><trkpt lat="45.100084100000004" lon="7.583030683333334"><ele>288.0</ele><time>2026-05-02T17:27:44.507Z</time></trkpt><trkpt lat="45.099968516666664" lon="7.582612083333333"><ele>288.0</ele><time>2026-05-02T17:27:45.508Z</time></trkpt><trkpt lat="45.09985335" lon="7.582193333333334"><ele>288.0</ele><time>2026-05-02T17:27:46.508Z</time></trkpt><trkpt lat="45.099748" lon="7.581780183333333"><ele>288.0</ele><time>2026-05-02T17:27:47.519Z</time></trkpt><trkpt lat="45.099632916666664" lon="7.581361666666667"><ele>288.0</ele><time>2026-05-02T17:27:48.52Z</time></trkpt><trkpt lat="45.099516066666666" lon="7.580938716666666"><ele>289.0</ele><time>2026-05-02T17:27:49.517Z</time></trkpt><trkpt lat="45.099398050000005" lon="7.5805109999999996"><ele>290.0</ele><time>2026-05-02T17:27:50.517Z</time></trkpt><trkpt lat="45.099279700000004" lon="7.5800830999999995"><ele>291.0</ele><time>2026-05-02T17:27:51.509Z</time></trkpt><trkpt lat="45.099161933333335" lon="7.579654950000001"><ele>292.0</ele><time>2026-05-02T17:27:52.517Z</time></trkpt><trkpt lat="45.099047850000005" lon="7.579240883333334"><ele>292.0</ele><time>2026-05-02T17:27:53.519Z</time></trkpt><trkpt lat="45.09893586666667" lon="7.57883135"><ele>292.0</ele><time>2026-05-02T17:27:54.509Z</time></trkpt><trkpt lat="45.098827316666664" lon="7.57843655"><ele>293.0</ele><time>2026-05-02T17:27:55.517Z</time></trkpt><trkpt lat="45.09871961666666" lon="7.57805225"><ele>294.0</ele><time>2026-05-02T17:27:56.52Z</time></trkpt><trkpt lat="45.098608549999994" lon="7.577669950000001"><ele>294.5</ele><time>2026-05-02T17:27:57.517Z</time></trkpt><trkpt lat="45.09849121666666" lon="7.577297033333334"><ele>295.0</ele><time>2026-05-02T17:27:58.508Z</time></trkpt><trkpt lat="45.098369749999996" lon="7.5769323333333345"><ele>294.5</ele><time>2026-05-02T17:27:59.517Z</time></trkpt><trkpt lat="45.09823983333334" lon="7.576567733333333"><ele>294.0</ele><time>2026-05-02T17:28:00.518Z</time></trkpt><trkpt lat="45.098103300000005" lon="7.5762136"><ele>295.0</ele><time>2026-05-02T17:28:01.518Z</time></trkpt><trkpt lat="45.09796063333334" lon="7.5758702666666675"><ele>296.0</ele><time>2026-05-02T17:28:02.521Z</time></trkpt><trkpt lat="45.097811183333334" lon="7.5755327333333335"><ele>296.0</ele><time>2026-05-02T17:28:03.508Z</time></trkpt><trkpt lat="45.09765495" lon="7.5751953499999996"><ele>296.0</ele><time>2026-05-02T17:28:04.518Z</time></trkpt><trkpt lat="45.09748931666666" lon="7.574854883333334"><ele>296.0</ele><time>2026-05-02T17:28:05.518Z</time></trkpt><trkpt lat="45.09731405000001" lon="7.574517516666666"><ele>296.0</ele><time>2026-05-02T17:28:06.509Z</time></trkpt><trkpt lat="45.09712195" lon="7.574172766666667"><ele>296.0</ele><time>2026-05-02T17:28:07.508Z</time></trkpt><trkpt lat="45.09691835" lon="7.57382785"><ele>296.0</ele><time>2026-05-02T17:28:08.508Z</time></trkpt><trkpt lat="45.096700750000004" lon="7.57347975"><ele>298.0</ele><time>2026-05-02T17:28:09.792Z</time></trkpt><trkpt lat="45.09622458333333" lon="7.572781783333333"><ele>298.0</ele><time>2026-05-02T17:28:11.518Z</time></trkpt><trkpt lat="45.09596423333334" lon="7.572436283333333"><ele>298.0</ele><time>2026-05-02T17:28:12.508Z</time></trkpt><trkpt lat="45.09569165" lon="7.572086516666667"><ele>297.5</ele><time>2026-05-02T17:28:13.508Z</time></trkpt><trkpt lat="45.095414049999995" lon="7.571736483333332"><ele>297.0</ele><time>2026-05-02T17:28:14.596Z</time></trkpt><trkpt lat="45.09512453333333" lon="7.571374883333334"><ele>298.0</ele><time>2026-05-02T17:28:15.521Z</time></trkpt><trkpt lat="45.09483208333333" lon="7.571009766666666"><ele>299.0</ele><time>2026-05-02T17:28:16.507Z</time></trkpt><trkpt lat="45.094534366666664" lon="7.570637200000001"><ele>300.0</ele><time>2026-05-02T17:28:17.51Z</time></trkpt><trkpt lat="45.09422816666667" lon="7.570254983333333"><ele>301.0</ele><time>2026-05-02T17:28:18.51Z</time></trkpt><trkpt lat="45.09392223333333" lon="7.569871766666667"><ele>301.5</ele><time>2026-05-02T17:28:19.521Z</time></trkpt><trkpt lat="45.09361906666666" lon="7.569475466666667"><ele>302.0</ele><time>2026-05-02T17:28:20.519Z</time></trkpt><trkpt lat="45.093305166666674" lon="7.569081766666667"><ele>300.5</ele><time>2026-05-02T17:28:21.523Z</time></trkpt><trkpt lat="45.092988399999996" lon="7.568684966666666"><ele>299.0</ele><time>2026-05-02T17:28:22.518Z</time></trkpt><trkpt lat="45.092665866666664" lon="7.568281633333334"><ele>299.0</ele><time>2026-05-02T17:28:23.521Z</time></trkpt><trkpt lat="45.09234081666667" lon="7.5678745166666666"><ele>299.0</ele><time>2026-05-02T17:28:24.522Z</time></trkpt><trkpt lat="45.09201401666666" lon="7.567462716666666"><ele>298.0</ele><time>2026-05-02T17:28:25.508Z</time></trkpt><trkpt lat="45.09168719999999" lon="7.56705025"><ele>297.0</ele><time>2026-05-02T17:28:26.518Z</time></trkpt><trkpt lat="45.09136248333333" lon="7.566641966666666"><ele>296.0</ele><time>2026-05-02T17:28:27.511Z</time></trkpt><trkpt lat="45.091048666666666" lon="7.566247516666666"><ele>295.0</ele><time>2026-05-02T17:28:28.518Z</time></trkpt><trkpt lat="45.09074566666666" lon="7.565867050000001"><ele>294.0</ele><time>2026-05-02T17:28:29.517Z</time></trkpt><trkpt lat="45.090445416666675" lon="7.565490866666666"><ele>293.0</ele><time>2026-05-02T17:28:30.52Z</time></trkpt><trkpt lat="45.090150466666664" lon="7.5651219"><ele>292.5</ele><time>2026-05-02T17:28:31.517Z</time></trkpt><trkpt lat="45.08986095" lon="7.564760133333333"><ele>292.0</ele><time>2026-05-02T17:28:32.524Z</time></trkpt><trkpt lat="45.089582166666666" lon="7.564391499999999"><ele>292.5</ele><time>2026-05-02T17:28:33.52Z</time></trkpt><trkpt lat="45.089298516666666" lon="7.564036783333334"><ele>293.0</ele><time>2026-05-02T17:28:34.521Z</time></trkpt><trkpt lat="45.089026200000006" lon="7.5636948833333335"><ele>293.0</ele><time>2026-05-02T17:28:35.52Z</time></trkpt><trkpt lat="45.088759566666674" lon="7.563359433333333"><ele>293.0</ele><time>2026-05-02T17:28:36.519Z</time></trkpt><trkpt lat="45.08849536666667" lon="7.5630281833333335"><ele>295.0</ele><time>2026-05-02T17:28:37.519Z</time></trkpt><trkpt lat="45.088236116666664" lon="7.5627045666666675"><ele>297.0</ele><time>2026-05-02T17:28:38.52Z</time></trkpt><trkpt lat="45.08798215" lon="7.5623879"><ele>297.0</ele><time>2026-05-02T17:28:39.518Z</time></trkpt><trkpt lat="45.08774351666666" lon="7.562076666666667"><ele>297.0</ele><time>2026-05-02T17:28:40.521Z</time></trkpt><trkpt lat="45.0874996" lon="7.5617735"><ele>299.5</ele><time>2026-05-02T17:28:41.508Z</time></trkpt><trkpt lat="45.08726323333334" lon="7.56148005"><ele>302.0</ele><time>2026-05-02T17:28:42.509Z</time></trkpt><trkpt lat="45.087032316666665" lon="7.561193549999999"><ele>304.0</ele><time>2026-05-02T17:28:43.52Z</time></trkpt><trkpt lat="45.086806833333334" lon="7.5609140166666675"><ele>306.0</ele><time>2026-05-02T17:28:44.509Z</time></trkpt><trkpt lat="45.08659611666667" lon="7.560638766666666"><ele>308.5</ele><time>2026-05-02T17:28:45.519Z</time></trkpt><trkpt lat="45.086378849999996" lon="7.5603694500000005"><ele>311.0</ele><time>2026-05-02T17:28:46.509Z</time></trkpt><trkpt lat="45.086161516666664" lon="7.560100383333334"><ele>311.0</ele><time>2026-05-02T17:28:47.511Z</time></trkpt><trkpt lat="45.08594208333334" lon="7.559827133333333"><ele>311.0</ele><time>2026-05-02T17:28:48.52Z</time></trkpt><trkpt lat="45.085725316666675" lon="7.559557150000001"><ele>313.0</ele><time>2026-05-02T17:28:49.521Z</time></trkpt><trkpt lat="45.085508733333334" lon="7.5592869333333335"><ele>315.0</ele><time>2026-05-02T17:28:50.51Z</time></trkpt><trkpt lat="45.08529558333333" lon="7.55900705"><ele>315.0</ele><time>2026-05-02T17:28:51.525Z</time></trkpt><trkpt lat="45.08507328333333" lon="7.558730616666666"><ele>315.0</ele><time>2026-05-02T17:28:52.523Z</time></trkpt><trkpt lat="45.08484815" lon="7.558451000000001"><ele>314.0</ele><time>2026-05-02T17:28:53.521Z</time></trkpt><trkpt lat="45.08462578333333" lon="7.558174316666666"><ele>313.0</ele><time>2026-05-02T17:28:54.521Z</time></trkpt><trkpt lat="45.084404083333325" lon="7.557896699999999"><ele>313.0</ele><time>2026-05-02T17:28:55.521Z</time></trkpt><trkpt lat="45.08418548333334" lon="7.557621616666667"><ele>313.0</ele><time>2026-05-02T17:28:56.521Z</time></trkpt><trkpt lat="45.08397493333334" lon="7.55733755"><ele>313.0</ele><time>2026-05-02T17:28:57.523Z</time></trkpt><trkpt lat="45.0837601" lon="7.557056583333334"><ele>313.0</ele><time>2026-05-02T17:28:58.52Z</time></trkpt><trkpt lat="45.08354803333333" lon="7.556764299999999"><ele>314.0</ele><time>2026-05-02T17:28:59.518Z</time></trkpt><trkpt lat="45.08334301666667" lon="7.5564619666666655"><ele>315.0</ele><time>2026-05-02T17:29:00.522Z</time></trkpt><trkpt lat="45.08314553333333" lon="7.556149666666665"><ele>316.0</ele><time>2026-05-02T17:29:01.522Z</time></trkpt><trkpt lat="45.08295568333333" lon="7.555828216666667"><ele>317.0</ele><time>2026-05-02T17:29:02.521Z</time></trkpt><trkpt lat="45.08277773333332" lon="7.555506016666667"><ele>317.0</ele><time>2026-05-02T17:29:03.52Z</time></trkpt><trkpt lat="45.08260935" lon="7.555180216666668"><ele>317.0</ele><time>2026-05-02T17:29:04.508Z</time></trkpt><trkpt lat="45.08245863333333" lon="7.554842583333334"><ele>316.0</ele><time>2026-05-02T17:29:05.518Z</time></trkpt><trkpt lat="45.082305166666664" lon="7.554502366666665"><ele>315.0</ele><time>2026-05-02T17:29:06.527Z</time></trkpt><trkpt lat="45.08215463333333" lon="7.554147983333333"><ele>315.0</ele><time>2026-05-02T17:29:07.518Z</time></trkpt><trkpt lat="45.08201171666667" lon="7.553786966666666"><ele>315.0</ele><time>2026-05-02T17:29:08.52Z</time></trkpt><trkpt lat="45.08187743333333" lon="7.553419166666667"><ele>315.5</ele><time>2026-05-02T17:29:09.512Z</time></trkpt><trkpt lat="45.08175606666667" lon="7.553053716666667"><ele>316.0</ele><time>2026-05-02T17:29:10.51Z</time></trkpt><trkpt lat="45.081643916666664" lon="7.552682650000001"><ele>314.0</ele><time>2026-05-02T17:29:11.52Z</time></trkpt><trkpt lat="45.081544083333334" lon="7.552315366666666"><ele>312.0</ele><time>2026-05-02T17:29:12.51Z</time></trkpt><trkpt lat="45.08145348333334" lon="7.5519532666666676"><ele>312.0</ele><time>2026-05-02T17:29:13.522Z</time></trkpt><trkpt lat="45.08136723333333" lon="7.5515937666666675"><ele>312.0</ele><time>2026-05-02T17:29:14.521Z</time></trkpt><trkpt lat="45.08128156666667" lon="7.5512449"><ele>313.5</ele><time>2026-05-02T17:29:15.51Z</time></trkpt><trkpt lat="45.08118518333334" lon="7.5509019166666675"><ele>315.0</ele><time>2026-05-02T17:29:16.521Z</time></trkpt><trkpt lat="45.08107303333333" lon="7.550568733333334"><ele>317.5</ele><time>2026-05-02T17:29:17.51Z</time></trkpt><trkpt lat="45.08094101666667" lon="7.550244616666666"><ele>320.0</ele><time>2026-05-02T17:29:18.521Z</time></trkpt><trkpt lat="45.08078495" lon="7.549936233333334"><ele>319.5</ele><time>2026-05-02T17:29:19.53Z</time></trkpt><trkpt lat="45.080610683333326" lon="7.549654266666667"><ele>319.0</ele><time>2026-05-02T17:29:20.521Z</time></trkpt><trkpt lat="45.08042091666666" lon="7.5494003833333325"><ele>319.0</ele><time>2026-05-02T17:29:21.52Z</time></trkpt><trkpt lat="45.08022016666667" lon="7.54917995"><ele>319.0</ele><time>2026-05-02T17:29:22.521Z</time></trkpt><trkpt lat="45.08001155" lon="7.548993033333333"><ele>320.0</ele><time>2026-05-02T17:29:23.521Z</time></trkpt><trkpt lat="45.07979278333334" lon="7.548830916666666"><ele>321.0</ele><time>2026-05-02T17:29:24.509Z</time></trkpt><trkpt lat="45.079570733333334" lon="7.548692199999999"><ele>322.0</ele><time>2026-05-02T17:29:25.521Z</time></trkpt><trkpt lat="45.07932448333333" lon="7.548584833333332"><ele>323.0</ele><time>2026-05-02T17:29:26.52Z</time></trkpt><trkpt lat="45.07906338333334" lon="7.548495733333334"><ele>323.5</ele><time>2026-05-02T17:29:27.509Z</time></trkpt><trkpt lat="45.07879776666667" lon="7.548410566666666"><ele>324.0</ele><time>2026-05-02T17:29:28.51Z</time></trkpt><trkpt lat="45.0785183" lon="7.54832055"><ele>323.5</ele><time>2026-05-02T17:29:29.51Z</time></trkpt><trkpt lat="45.07823156666667" lon="7.5482290999999995"><ele>323.0</ele><time>2026-05-02T17:29:30.509Z</time></trkpt><trkpt lat="45.077930650000006" lon="7.548134050000001"><ele>323.0</ele><time>2026-05-02T17:29:31.51Z</time></trkpt><trkpt lat="45.07762253333333" lon="7.5480369"><ele>323.0</ele><time>2026-05-02T17:29:32.51Z</time></trkpt><trkpt lat="45.07731768333333" lon="7.547940933333333"><ele>325.5</ele><time>2026-05-02T17:29:33.509Z</time></trkpt><trkpt lat="45.07702323333333" lon="7.547847633333333"><ele>328.0</ele><time>2026-05-02T17:29:34.509Z</time></trkpt><trkpt lat="45.07673941666667" lon="7.547757783333333"><ele>328.0</ele><time>2026-05-02T17:29:35.508Z</time></trkpt><trkpt lat="45.076462649999996" lon="7.547669433333334"><ele>328.0</ele><time>2026-05-02T17:29:36.509Z</time></trkpt><trkpt lat="45.07619299999999" lon="7.5475837"><ele>328.0</ele><time>2026-05-02T17:29:37.509Z</time></trkpt><trkpt lat="45.07592335" lon="7.547498366666668"><ele>328.0</ele><time>2026-05-02T17:29:38.509Z</time></trkpt><trkpt lat="45.075653716666665" lon="7.547413700000001"><ele>326.0</ele><time>2026-05-02T17:29:39.509Z</time></trkpt><trkpt lat="45.07537693333334" lon="7.5473278"><ele>324.0</ele><time>2026-05-02T17:29:40.512Z</time></trkpt><trkpt lat="45.075096483333326" lon="7.547241633333334"><ele>323.0</ele><time>2026-05-02T17:29:41.499Z</time></trkpt><trkpt lat="45.07481241666666" lon="7.547154533333332"><ele>322.0</ele><time>2026-05-02T17:29:42.499Z</time></trkpt><trkpt lat="45.07451788333333" lon="7.547064683333334"><ele>324.0</ele><time>2026-05-02T17:29:43.502Z</time></trkpt><trkpt lat="45.07421604999999" lon="7.546972816666666"><ele>326.0</ele><time>2026-05-02T17:29:44.502Z</time></trkpt><trkpt lat="45.073910700000006" lon="7.546879783333333"><ele>326.0</ele><time>2026-05-02T17:29:45.513Z</time></trkpt><trkpt lat="45.07360198333334" lon="7.546784816666667"><ele>326.0</ele><time>2026-05-02T17:29:46.509Z</time></trkpt><trkpt lat="45.073296799999994" lon="7.546689183333332"><ele>324.5</ele><time>2026-05-02T17:29:47.509Z</time></trkpt><trkpt lat="45.07299513333334" lon="7.546594633333332"><ele>323.0</ele><time>2026-05-02T17:29:48.51Z</time></trkpt><trkpt lat="45.07270990000001" lon="7.546500916666667"><ele>323.5</ele><time>2026-05-02T17:29:49.509Z</time></trkpt><trkpt lat="45.072418466666676" lon="7.546413583333333"><ele>324.0</ele><time>2026-05-02T17:29:50.509Z</time></trkpt><trkpt lat="45.07212701666667" lon="7.546326666666666"><ele>324.0</ele><time>2026-05-02T17:29:51.499Z</time></trkpt><trkpt lat="45.07183583333334" lon="7.546238566666666"><ele>324.0</ele><time>2026-05-02T17:29:52.51Z</time></trkpt><trkpt lat="45.071534166666666" lon="7.546147366666666"><ele>324.5</ele><time>2026-05-02T17:29:53.51Z</time></trkpt><trkpt lat="45.07123241666667" lon="7.546055749999999"><ele>325.0</ele><time>2026-05-02T17:29:54.509Z</time></trkpt><trkpt lat="45.07093058333333" lon="7.545964049999999"><ele>325.0</ele><time>2026-05-02T17:29:55.51Z</time></trkpt><trkpt lat="45.070632366666665" lon="7.545872783333334"><ele>325.0</ele><time>2026-05-02T17:29:56.51Z</time></trkpt><trkpt lat="45.07033078333334" lon="7.545780066666667"><ele>325.0</ele><time>2026-05-02T17:29:57.511Z</time></trkpt><trkpt lat="45.0700292" lon="7.5456870333333335"><ele>325.0</ele><time>2026-05-02T17:29:58.509Z</time></trkpt><trkpt lat="45.06972426666666" lon="7.545592316666666"><ele>324.0</ele><time>2026-05-02T17:29:59.51Z</time></trkpt><trkpt lat="45.06940868333333" lon="7.5454956"><ele>323.0</ele><time>2026-05-02T17:30:00.663Z</time></trkpt><trkpt lat="45.06908238333334" lon="7.545395600000001"><ele>322.5</ele><time>2026-05-02T17:30:01.509Z</time></trkpt><trkpt lat="45.068749116666666" lon="7.545292499999999"><ele>322.0</ele><time>2026-05-02T17:30:02.509Z</time></trkpt><trkpt lat="45.06840588333333" lon="7.5451868000000015"><ele>320.5</ele><time>2026-05-02T17:30:03.514Z</time></trkpt><trkpt lat="45.06805953333332" lon="7.545080433333333"><ele>319.0</ele><time>2026-05-02T17:30:04.509Z</time></trkpt><trkpt lat="45.067709516666675" lon="7.544972733333333"><ele>319.0</ele><time>2026-05-02T17:30:05.509Z</time></trkpt><trkpt lat="45.06735965" lon="7.544864433333333"><ele>319.0</ele><time>2026-05-02T17:30:06.512Z</time></trkpt><trkpt lat="45.06700291666666" lon="7.5447538000000005"><ele>319.0</ele><time>2026-05-02T17:30:07.509Z</time></trkpt><trkpt lat="45.066635116666674" lon="7.544640883333333"><ele>319.0</ele><time>2026-05-02T17:30:08.511Z</time></trkpt><trkpt lat="45.06627946666667" lon="7.544529166666667"><ele>318.5</ele><time>2026-05-02T17:30:09.51Z</time></trkpt><trkpt lat="45.06591108333334" lon="7.544417183333333"><ele>318.0</ele><time>2026-05-02T17:30:10.509Z</time></trkpt><trkpt lat="45.065539183333335" lon="7.544304433333333"><ele>318.0</ele><time>2026-05-02T17:30:11.511Z</time></trkpt><trkpt lat="45.06517096666666" lon="7.54419045"><ele>318.0</ele><time>2026-05-02T17:30:12.511Z</time></trkpt><trkpt lat="45.064803" lon="7.544075199999999"><ele>317.5</ele><time>2026-05-02T17:30:13.512Z</time></trkpt><trkpt lat="45.06443863333334" lon="7.543961199999999"><ele>317.0</ele><time>2026-05-02T17:30:14.511Z</time></trkpt><trkpt lat="45.06408123333334" lon="7.543849466666667"><ele>316.0</ele><time>2026-05-02T17:30:15.509Z</time></trkpt><trkpt lat="45.06372023333333" lon="7.543738333333333"><ele>315.0</ele><time>2026-05-02T17:30:16.503Z</time></trkpt><trkpt lat="45.063365583333336" lon="7.5436343"><ele>313.5</ele><time>2026-05-02T17:30:17.5Z</time></trkpt><trkpt lat="45.06301011666666" lon="7.5435364"><ele>312.0</ele><time>2026-05-02T17:30:18.509Z</time></trkpt><trkpt lat="45.06264960000001" lon="7.5434497333333335"><ele>313.0</ele><time>2026-05-02T17:30:19.509Z</time></trkpt><trkpt lat="45.06227971666667" lon="7.5433829333333335"><ele>314.0</ele><time>2026-05-02T17:30:20.501Z</time></trkpt><trkpt lat="45.06190788333333" lon="7.543342283333334"><ele>313.5</ele><time>2026-05-02T17:30:21.511Z</time></trkpt><trkpt lat="45.06152784999999" lon="7.543326433333334"><ele>313.0</ele><time>2026-05-02T17:30:22.509Z</time></trkpt><trkpt lat="45.061140449999996" lon="7.5433365"><ele>313.5</ele><time>2026-05-02T17:30:23.511Z</time></trkpt><trkpt lat="45.06075361666667" lon="7.543374466666667"><ele>314.0</ele><time>2026-05-02T17:30:24.51Z</time></trkpt><trkpt lat="45.06035833333333" lon="7.543445883333334"><ele>314.0</ele><time>2026-05-02T17:30:25.513Z</time></trkpt><trkpt lat="45.05997141666667" lon="7.543542700000001"><ele>314.0</ele><time>2026-05-02T17:30:26.509Z</time></trkpt><trkpt lat="45.05957453333334" lon="7.5436641500000015"><ele>312.5</ele><time>2026-05-02T17:30:27.513Z</time></trkpt><trkpt lat="45.05917203333333" lon="7.543797666666667"><ele>311.0</ele><time>2026-05-02T17:30:28.51Z</time></trkpt><trkpt lat="45.05876316666666" lon="7.54393715"><ele>311.0</ele><time>2026-05-02T17:30:29.51Z</time></trkpt><trkpt lat="45.058351200000004" lon="7.544080733333334"><ele>311.0</ele><time>2026-05-02T17:30:30.512Z</time></trkpt><trkpt lat="45.057935783333335" lon="7.544227499999999"><ele>311.0</ele><time>2026-05-02T17:30:31.512Z</time></trkpt><trkpt lat="45.05752389999999" lon="7.544373416666668"><ele>311.0</ele><time>2026-05-02T17:30:32.509Z</time></trkpt><trkpt lat="45.057112183333324" lon="7.544517933333333"><ele>310.0</ele><time>2026-05-02T17:30:33.514Z</time></trkpt><trkpt lat="45.05669703333333" lon="7.544663100000001"><ele>309.0</ele><time>2026-05-02T17:30:34.511Z</time></trkpt><trkpt lat="45.05628648333333" lon="7.544802583333334"><ele>308.5</ele><time>2026-05-02T17:30:35.511Z</time></trkpt><trkpt lat="45.05586428333333" lon="7.544950516666668"><ele>308.0</ele><time>2026-05-02T17:30:36.511Z</time></trkpt><trkpt lat="45.055442250000006" lon="7.5450992999999995"><ele>308.0</ele><time>2026-05-02T17:30:37.509Z</time></trkpt><trkpt lat="45.05501326666667" lon="7.5452502500000005"><ele>308.0</ele><time>2026-05-02T17:30:38.509Z</time></trkpt><trkpt lat="45.054587716666674" lon="7.545400283333333"><ele>308.0</ele><time>2026-05-02T17:30:39.511Z</time></trkpt><trkpt lat="45.05416216666667" lon="7.5455494833333345"><ele>308.0</ele><time>2026-05-02T17:30:40.51Z</time></trkpt><trkpt lat="45.05374383333333" lon="7.545695583333333"><ele>308.0</ele><time>2026-05-02T17:30:41.513Z</time></trkpt><trkpt lat="45.05333529999999" lon="7.545834216666667"><ele>308.0</ele><time>2026-05-02T17:30:42.51Z</time></trkpt><trkpt lat="45.05292425" lon="7.545977049999999"><ele>308.0</ele><time>2026-05-02T17:30:43.511Z</time></trkpt><trkpt lat="45.052513366666666" lon="7.546118616666666"><ele>308.0</ele><time>2026-05-02T17:30:44.512Z</time></trkpt><trkpt lat="45.0521029" lon="7.546260866666667"><ele>308.0</ele><time>2026-05-02T17:30:45.5Z</time></trkpt><trkpt lat="45.051692616666664" lon="7.546403766666667"><ele>308.0</ele><time>2026-05-02T17:30:46.51Z</time></trkpt><trkpt lat="45.05128214999999" lon="7.54654685"><ele>306.5</ele><time>2026-05-02T17:30:47.51Z</time></trkpt><trkpt lat="45.05088786666667" lon="7.546680383333334"><ele>305.0</ele><time>2026-05-02T17:30:48.52Z</time></trkpt><trkpt lat="45.05048453333334" lon="7.546820183333334"><ele>304.5</ele><time>2026-05-02T17:30:49.51Z</time></trkpt><trkpt lat="45.050091916666666" lon="7.546956983333333"><ele>304.0</ele><time>2026-05-02T17:30:50.511Z</time></trkpt><trkpt lat="45.049703" lon="7.547093016666667"><ele>302.5</ele><time>2026-05-02T17:30:51.51Z</time></trkpt><trkpt lat="45.049317933333334" lon="7.54722855"><ele>301.0</ele><time>2026-05-02T17:30:52.51Z</time></trkpt><trkpt lat="45.04893898333333" lon="7.547360066666665"><ele>301.0</ele><time>2026-05-02T17:30:53.51Z</time></trkpt><trkpt lat="45.04857303333333" lon="7.547482866666667"><ele>301.0</ele><time>2026-05-02T17:30:54.511Z</time></trkpt><trkpt lat="45.048200550000004" lon="7.5476096833333335"><ele>300.5</ele><time>2026-05-02T17:30:55.511Z</time></trkpt><trkpt lat="45.04783526666667" lon="7.547734233333334"><ele>300.0</ele><time>2026-05-02T17:30:56.513Z</time></trkpt><trkpt lat="45.047475" lon="7.547865999999998"><ele>298.0</ele><time>2026-05-02T17:30:57.51Z</time></trkpt><trkpt lat="45.04712975" lon="7.54800455"><ele>296.0</ele><time>2026-05-02T17:30:58.512Z</time></trkpt><trkpt lat="45.04678308333333" lon="7.5481641333333345"><ele>297.0</ele><time>2026-05-02T17:30:59.511Z</time></trkpt><trkpt lat="45.046444533333336" lon="7.548340666666666"><ele>298.0</ele><time>2026-05-02T17:31:00.513Z</time></trkpt><trkpt lat="45.04611815" lon="7.548533033333333"><ele>298.0</ele><time>2026-05-02T17:31:01.513Z</time></trkpt><trkpt lat="45.04579753333334" lon="7.548743583333334"><ele>298.0</ele><time>2026-05-02T17:31:02.501Z</time></trkpt><trkpt lat="45.04549403333334" lon="7.548962349999999"><ele>297.5</ele><time>2026-05-02T17:31:03.51Z</time></trkpt><trkpt lat="45.04519161666668" lon="7.549200899999999"><ele>297.0</ele><time>2026-05-02T17:31:04.5Z</time></trkpt><trkpt lat="45.04489866666666" lon="7.549452100000001"><ele>294.0</ele><time>2026-05-02T17:31:05.5Z</time></trkpt><trkpt lat="45.04461249999999" lon="7.549717816666667"><ele>291.0</ele><time>2026-05-02T17:31:06.513Z</time></trkpt><trkpt lat="45.04433966666667" lon="7.549993233333334"><ele>291.5</ele><time>2026-05-02T17:31:07.51Z</time></trkpt><trkpt lat="45.044079333333336" lon="7.550277716666666"><ele>292.0</ele><time>2026-05-02T17:31:08.51Z</time></trkpt><trkpt lat="45.04382561666666" lon="7.550575616666667"><ele>293.5</ele><time>2026-05-02T17:31:09.514Z</time></trkpt><trkpt lat="45.0435905" lon="7.550874183333335"><ele>295.0</ele><time>2026-05-02T17:31:10.511Z</time></trkpt><trkpt lat="45.043354550000004" lon="7.5511918499999995"><ele>294.5</ele><time>2026-05-02T17:31:11.51Z</time></trkpt><trkpt lat="45.043129500000006" lon="7.551517649999999"><ele>294.0</ele><time>2026-05-02T17:31:12.502Z</time></trkpt><trkpt lat="45.04291065000001" lon="7.551858383333332"><ele>295.0</ele><time>2026-05-02T17:31:13.51Z</time></trkpt><trkpt lat="45.04270076666667" lon="7.552210166666667"><ele>296.0</ele><time>2026-05-02T17:31:14.511Z</time></trkpt><trkpt lat="45.04249589999999" lon="7.552580566666667"><ele>293.5</ele><time>2026-05-02T17:31:15.515Z</time></trkpt><trkpt lat="45.04229918333334" lon="7.552966300000001"><ele>291.0</ele><time>2026-05-02T17:31:16.512Z</time></trkpt><trkpt lat="45.04211419999999" lon="7.55335765"><ele>290.5</ele><time>2026-05-02T17:31:17.502Z</time></trkpt><trkpt lat="45.041942533333334" lon="7.553763333333334"><ele>290.0</ele><time>2026-05-02T17:31:18.513Z</time></trkpt><trkpt lat="45.041773049999996" lon="7.554189383333332"><ele>289.5</ele><time>2026-05-02T17:31:19.51Z</time></trkpt><trkpt lat="45.04161563333334" lon="7.554625000000001"><ele>289.0</ele><time>2026-05-02T17:31:20.511Z</time></trkpt><trkpt lat="45.0414723" lon="7.5550591833333325"><ele>289.5</ele><time>2026-05-02T17:31:21.512Z</time></trkpt><trkpt lat="45.041339199999996" lon="7.555499900000001"><ele>290.0</ele><time>2026-05-02T17:31:22.51Z</time></trkpt><trkpt lat="45.04121364999999" lon="7.555940366666666"><ele>290.0</ele><time>2026-05-02T17:31:23.512Z</time></trkpt><trkpt lat="45.04108816666667" lon="7.5563863666666675"><ele>290.0</ele><time>2026-05-02T17:31:24.501Z</time></trkpt><trkpt lat="45.040965033333336" lon="7.556828183333333"><ele>290.0</ele><time>2026-05-02T17:31:25.511Z</time></trkpt><trkpt lat="45.04084283333333" lon="7.557270566666667"><ele>290.0</ele><time>2026-05-02T17:31:26.501Z</time></trkpt><trkpt lat="45.04072858333334" lon="7.5577165"><ele>289.0</ele><time>2026-05-02T17:31:27.511Z</time></trkpt><trkpt lat="45.04060326666666" lon="7.558173300000001"><ele>288.0</ele><time>2026-05-02T17:31:28.514Z</time></trkpt><trkpt lat="45.040475533333336" lon="7.558639583333334"><ele>288.0</ele><time>2026-05-02T17:31:29.511Z</time></trkpt><trkpt lat="45.040346866666674" lon="7.5591110666666665"><ele>288.0</ele><time>2026-05-02T17:31:30.513Z</time></trkpt><trkpt lat="45.04021285" lon="7.559601166666666"><ele>288.0</ele><time>2026-05-02T17:31:31.599Z</time></trkpt><trkpt lat="45.04007546666667" lon="7.560100466666667"><ele>288.0</ele><time>2026-05-02T17:31:32.513Z</time></trkpt><trkpt lat="45.039935899999996" lon="7.560609749999999"><ele>287.0</ele><time>2026-05-02T17:31:33.502Z</time></trkpt><trkpt lat="45.039792483333336" lon="7.561133366666667"><ele>286.0</ele><time>2026-05-02T17:31:34.512Z</time></trkpt><trkpt lat="45.03964631666666" lon="7.561666716666667"><ele>284.5</ele><time>2026-05-02T17:31:35.511Z</time></trkpt><trkpt lat="45.03949836666668" lon="7.562204750000001"><ele>283.0</ele><time>2026-05-02T17:31:36.51Z</time></trkpt><trkpt lat="45.03935218333333" lon="7.562733316666667"><ele>283.5</ele><time>2026-05-02T17:31:37.51Z</time></trkpt><trkpt lat="45.03921036666667" lon="7.563247716666666"><ele>284.0</ele><time>2026-05-02T17:31:38.51Z</time></trkpt><trkpt lat="45.0390714" lon="7.563751966666667"><ele>284.0</ele><time>2026-05-02T17:31:39.511Z</time></trkpt><trkpt lat="45.0389356" lon="7.564246916666668"><ele>284.0</ele><time>2026-05-02T17:31:40.51Z</time></trkpt><trkpt lat="45.03880895" lon="7.564743383333332"><ele>284.0</ele><time>2026-05-02T17:31:41.511Z</time></trkpt><trkpt lat="45.03867736666666" lon="7.565223833333333"><ele>284.0</ele><time>2026-05-02T17:31:42.513Z</time></trkpt><trkpt lat="45.03854676666666" lon="7.565704616666666"><ele>284.5</ele><time>2026-05-02T17:31:43.512Z</time></trkpt><trkpt lat="45.03841845" lon="7.566175600000001"><ele>285.0</ele><time>2026-05-02T17:31:44.501Z</time></trkpt><trkpt lat="45.038289283333334" lon="7.566645983333332"><ele>281.5</ele><time>2026-05-02T17:31:45.5Z</time></trkpt><trkpt lat="45.03816213333332" lon="7.5671064"><ele>278.0</ele><time>2026-05-02T17:31:46.512Z</time></trkpt><trkpt lat="45.038039" lon="7.5675524833333325"><ele>279.0</ele><time>2026-05-02T17:31:47.512Z</time></trkpt><trkpt lat="45.037918383333334" lon="7.567989183333332"><ele>280.0</ele><time>2026-05-02T17:31:48.513Z</time></trkpt><trkpt lat="45.03780186666666" lon="7.568412216666666"><ele>281.5</ele><time>2026-05-02T17:31:49.51Z</time></trkpt><trkpt lat="45.037688133333326" lon="7.568826283333334"><ele>283.0</ele><time>2026-05-02T17:31:50.513Z</time></trkpt><trkpt lat="45.037573050000006" lon="7.569244716666667"><ele>281.5</ele><time>2026-05-02T17:31:51.511Z</time></trkpt><trkpt lat="45.0374583" lon="7.5696633"><ele>280.0</ele><time>2026-05-02T17:31:52.512Z</time></trkpt><trkpt lat="45.037351766666674" lon="7.570074849999999"><ele>279.0</ele><time>2026-05-02T17:31:53.511Z</time></trkpt><trkpt lat="45.037238099999996" lon="7.570488666666667"><ele>278.0</ele><time>2026-05-02T17:31:54.501Z</time></trkpt><trkpt lat="45.03712335000001" lon="7.570907183333333"><ele>277.5</ele><time>2026-05-02T17:31:55.51Z</time></trkpt><trkpt lat="45.03700826666666" lon="7.5713254333333335"><ele>277.0</ele><time>2026-05-02T17:31:56.513Z</time></trkpt><trkpt lat="45.03689378333334" lon="7.571738833333335"><ele>276.0</ele><time>2026-05-02T17:31:57.514Z</time></trkpt><trkpt lat="45.036777016666676" lon="7.572161533333333"><ele>275.0</ele><time>2026-05-02T17:31:58.511Z</time></trkpt><trkpt lat="45.0366626" lon="7.572580200000001"><ele>275.0</ele><time>2026-05-02T17:31:59.511Z</time></trkpt><trkpt lat="45.03654626666667" lon="7.573003316666665"><ele>275.0</ele><time>2026-05-02T17:32:00.513Z</time></trkpt><trkpt lat="45.03643118333333" lon="7.57342175"><ele>274.0</ele><time>2026-05-02T17:32:01.51Z</time></trkpt><trkpt lat="45.03631358333334" lon="7.5738495666666665"><ele>273.0</ele><time>2026-05-02T17:32:02.511Z</time></trkpt><trkpt lat="45.03619355000001" lon="7.574286933333334"><ele>274.0</ele><time>2026-05-02T17:32:03.515Z</time></trkpt><trkpt lat="45.03606833333333" lon="7.574742733333332"><ele>275.0</ele><time>2026-05-02T17:32:04.511Z</time></trkpt><trkpt lat="45.03594116666666" lon="7.575208016666666"><ele>274.5</ele><time>2026-05-02T17:32:05.513Z</time></trkpt><trkpt lat="45.03581896666666" lon="7.575681416666666"><ele>274.0</ele><time>2026-05-02T17:32:06.511Z</time></trkpt><trkpt lat="45.03568368333334" lon="7.576180316666667"><ele>274.5</ele><time>2026-05-02T17:32:07.513Z</time></trkpt><trkpt lat="45.0355484" lon="7.576679716666667"><ele>275.0</ele><time>2026-05-02T17:32:08.512Z</time></trkpt><trkpt lat="45.035408583333336" lon="7.577193183333332"><ele>275.0</ele><time>2026-05-02T17:32:09.514Z</time></trkpt><trkpt lat="45.03526533333334" lon="7.577721"><ele>275.0</ele><time>2026-05-02T17:32:10.482Z</time></trkpt><trkpt lat="45.035120750000004" lon="7.578253583333333"><ele>273.5</ele><time>2026-05-02T17:32:11.492Z</time></trkpt><trkpt lat="45.0349724" lon="7.578800416666667"><ele>272.0</ele><time>2026-05-02T17:32:12.492Z</time></trkpt><trkpt lat="45.0348242" lon="7.579347416666667"><ele>272.0</ele><time>2026-05-02T17:32:13.503Z</time></trkpt><trkpt lat="45.034670733333336" lon="7.579913449999999"><ele>272.0</ele><time>2026-05-02T17:32:14.503Z</time></trkpt><trkpt lat="45.03451741666667" lon="7.580479983333333"><ele>269.5</ele><time>2026-05-02T17:32:15.501Z</time></trkpt><trkpt lat="45.03435976666667" lon="7.581060433333332"><ele>267.0</ele><time>2026-05-02T17:32:16.501Z</time></trkpt><trkpt lat="45.034201249999995" lon="7.581640783333334"><ele>267.5</ele><time>2026-05-02T17:32:17.503Z</time></trkpt><trkpt lat="45.03404233333334" lon="7.58222115"><ele>268.0</ele><time>2026-05-02T17:32:18.511Z</time></trkpt><trkpt lat="45.03388718333334" lon="7.582787183333333"><ele>266.5</ele><time>2026-05-02T17:32:19.511Z</time></trkpt><trkpt lat="45.03373271666666" lon="7.583353133333333"><ele>265.0</ele><time>2026-05-02T17:32:20.515Z</time></trkpt><trkpt lat="45.033581833333336" lon="7.583910100000001"><ele>265.0</ele><time>2026-05-02T17:32:21.513Z</time></trkpt><trkpt lat="45.03343196666666" lon="7.584466833333333"><ele>265.0</ele><time>2026-05-02T17:32:22.511Z</time></trkpt><trkpt lat="45.0332805" lon="7.5850224666666675"><ele>266.0</ele><time>2026-05-02T17:32:23.501Z</time></trkpt><trkpt lat="45.033125516666665" lon="7.585570816666666"><ele>267.0</ele><time>2026-05-02T17:32:24.512Z</time></trkpt><trkpt lat="45.032958300000004" lon="7.586111450000001"><ele>266.5</ele><time>2026-05-02T17:32:25.502Z</time></trkpt><trkpt lat="45.0327744" lon="7.586640683333333"><ele>266.0</ele><time>2026-05-02T17:32:26.511Z</time></trkpt><trkpt lat="45.03256888333334" lon="7.587165883333333"><ele>266.0</ele><time>2026-05-02T17:32:27.511Z</time></trkpt><trkpt lat="45.03234626666667" lon="7.587677433333333"><ele>266.0</ele><time>2026-05-02T17:32:28.501Z</time></trkpt><trkpt lat="45.0321031" lon="7.588182616666668"><ele>266.0</ele><time>2026-05-02T17:32:29.516Z</time></trkpt><trkpt lat="45.03184233333334" lon="7.5886706166666675"><ele>266.0</ele><time>2026-05-02T17:32:30.512Z</time></trkpt><trkpt lat="45.031571850000006" lon="7.589128350000001"><ele>264.5</ele><time>2026-05-02T17:32:31.502Z</time></trkpt><trkpt lat="45.031291983333325" lon="7.589560349999999"><ele>263.0</ele><time>2026-05-02T17:32:32.501Z</time></trkpt><trkpt lat="45.03099869999999" lon="7.58997425"><ele>263.0</ele><time>2026-05-02T17:32:33.511Z</time></trkpt><trkpt lat="45.03069595" lon="7.590367016666666"><ele>263.0</ele><time>2026-05-02T17:32:34.512Z</time></trkpt><trkpt lat="45.03038933333334" lon="7.590730716666667"><ele>263.0</ele><time>2026-05-02T17:32:35.512Z</time></trkpt><trkpt lat="45.03007098333333" lon="7.591073199999999"><ele>263.0</ele><time>2026-05-02T17:32:36.512Z</time></trkpt><trkpt lat="45.029757683333344" lon="7.591394983333333"><ele>264.5</ele><time>2026-05-02T17:32:37.512Z</time></trkpt><trkpt lat="45.02943236666667" lon="7.591687583333333"><ele>266.0</ele><time>2026-05-02T17:32:38.515Z</time></trkpt><trkpt lat="45.029110933333335" lon="7.591969983333333"><ele>265.5</ele><time>2026-05-02T17:32:39.527Z</time></trkpt><trkpt lat="45.02879098333333" lon="7.592245833333334"><ele>265.0</ele><time>2026-05-02T17:32:40.511Z</time></trkpt><trkpt lat="45.02848009999999" lon="7.592513116666667"><ele>265.5</ele><time>2026-05-02T17:32:41.515Z</time></trkpt><trkpt lat="45.028166033333335" lon="7.592781933333334"><ele>266.0</ele><time>2026-05-02T17:32:42.501Z</time></trkpt><trkpt lat="45.02784811666667" lon="7.5930513333333325"><ele>266.5</ele><time>2026-05-02T17:32:43.511Z</time></trkpt><trkpt lat="45.02752439999999" lon="7.593327350000001"><ele>267.0</ele><time>2026-05-02T17:32:44.512Z</time></trkpt><trkpt lat="45.027194650000006" lon="7.593609816666666"><ele>266.5</ele><time>2026-05-02T17:32:45.511Z</time></trkpt><trkpt lat="45.02685855" lon="7.5938975666666675"><ele>266.0</ele><time>2026-05-02T17:32:46.511Z</time></trkpt><trkpt lat="45.02651656666667" lon="7.594191183333334"><ele>265.5</ele><time>2026-05-02T17:32:47.512Z</time></trkpt><trkpt lat="45.02618044999999" lon="7.594488983333334"><ele>265.0</ele><time>2026-05-02T17:32:48.547Z</time></trkpt><trkpt lat="45.025831000000004" lon="7.5947867166666665"><ele>265.0</ele><time>2026-05-02T17:32:49.517Z</time></trkpt><trkpt lat="45.02547486666668" lon="7.595088633333334"><ele>265.0</ele><time>2026-05-02T17:32:50.558Z</time></trkpt><trkpt lat="45.025118383333336" lon="7.595390216666668"><ele>264.5</ele><time>2026-05-02T17:32:51.511Z</time></trkpt><trkpt lat="45.02475603333334" lon="7.595698166666667"><ele>264.0</ele><time>2026-05-02T17:32:52.511Z</time></trkpt><trkpt lat="45.02439644999999" lon="7.596002766666667"><ele>262.5</ele><time>2026-05-02T17:32:53.512Z</time></trkpt><trkpt lat="45.024039533333344" lon="7.5963043500000005"><ele>261.0</ele><time>2026-05-02T17:32:54.522Z</time></trkpt><trkpt lat="45.023676849999994" lon="7.596611883333333"><ele>261.0</ele><time>2026-05-02T17:32:55.522Z</time></trkpt><trkpt lat="45.02331718333333" lon="7.596916383333332"><ele>261.0</ele><time>2026-05-02T17:32:56.515Z</time></trkpt><trkpt lat="45.02295115" lon="7.597225766666666"><ele>259.5</ele><time>2026-05-02T17:32:57.514Z</time></trkpt><trkpt lat="45.02258520000001" lon="7.597535566666666"><ele>258.0</ele><time>2026-05-02T17:32:58.512Z</time></trkpt><trkpt lat="45.02221689999999" lon="7.597849883333333"><ele>258.0</ele><time>2026-05-02T17:32:59.595Z</time></trkpt><trkpt lat="45.02185621666666" lon="7.598176183333334"><ele>258.0</ele><time>2026-05-02T17:33:00.515Z</time></trkpt><trkpt lat="45.02149236666668" lon="7.5984916"><ele>257.0</ele><time>2026-05-02T17:33:01.521Z</time></trkpt><trkpt lat="45.02112985000001" lon="7.59880055"><ele>256.0</ele><time>2026-05-02T17:33:02.513Z</time></trkpt><trkpt lat="45.020766833333326" lon="7.599098533333334"><ele>255.5</ele><time>2026-05-02T17:33:03.515Z</time></trkpt><trkpt lat="45.020402716666666" lon="7.599382766666667"><ele>255.0</ele><time>2026-05-02T17:33:04.512Z</time></trkpt><trkpt lat="45.020038099999994" lon="7.5996542499999995"><ele>255.0</ele><time>2026-05-02T17:33:05.514Z</time></trkpt><trkpt lat="45.019676" lon="7.5999099"><ele>255.0</ele><time>2026-05-02T17:33:06.507Z</time></trkpt><trkpt lat="45.01931331666667" lon="7.600151799999999"><ele>254.5</ele><time>2026-05-02T17:33:07.522Z</time></trkpt><trkpt lat="45.01895381666667" lon="7.6003792"><ele>254.0</ele><time>2026-05-02T17:33:08.53Z</time></trkpt><trkpt lat="45.01860195" lon="7.600592349999999"><ele>254.0</ele><time>2026-05-02T17:33:09.515Z</time></trkpt><trkpt lat="45.018257616666666" lon="7.600791433333334"><ele>254.0</ele><time>2026-05-02T17:33:10.525Z</time></trkpt><trkpt lat="45.01792753333334" lon="7.600972483333334"><ele>254.0</ele><time>2026-05-02T17:33:11.512Z</time></trkpt><trkpt lat="45.017611466666665" lon="7.601145483333333"><ele>254.0</ele><time>2026-05-02T17:33:12.513Z</time></trkpt><trkpt lat="45.01729135000001" lon="7.601305399999999"><ele>252.5</ele><time>2026-05-02T17:33:13.502Z</time></trkpt><trkpt lat="45.01696261666666" lon="7.601460049999999"><ele>251.0</ele><time>2026-05-02T17:33:14.507Z</time></trkpt><trkpt lat="45.01662223333333" lon="7.601613516666666"><ele>251.0</ele><time>2026-05-02T17:33:15.503Z</time></trkpt><trkpt lat="45.016274300000006" lon="7.601767666666666"><ele>251.0</ele><time>2026-05-02T17:33:16.507Z</time></trkpt><trkpt lat="45.0159194" lon="7.601925333333332"><ele>250.0</ele><time>2026-05-02T17:33:17.619Z</time></trkpt><trkpt lat="45.01556108333333" lon="7.602085433333333"><ele>249.0</ele><time>2026-05-02T17:33:18.501Z</time></trkpt><trkpt lat="45.01522010000001" lon="7.602248283333334"><ele>247.5</ele><time>2026-05-02T17:33:19.514Z</time></trkpt><trkpt lat="45.01486973333334" lon="7.602426483333333"><ele>246.0</ele><time>2026-05-02T17:33:20.512Z</time></trkpt><trkpt lat="45.014530783333335" lon="7.602618766666666"><ele>246.0</ele><time>2026-05-02T17:33:21.512Z</time></trkpt><trkpt lat="45.01419793333333" lon="7.602830500000001"><ele>246.0</ele><time>2026-05-02T17:33:22.502Z</time></trkpt><trkpt lat="45.01387858333333" lon="7.60305815"><ele>245.5</ele><time>2026-05-02T17:33:23.514Z</time></trkpt><trkpt lat="45.01357356666667" lon="7.603302483333333"><ele>245.0</ele><time>2026-05-02T17:33:24.515Z</time></trkpt><trkpt lat="45.01328573333334" lon="7.6035572"><ele>242.5</ele><time>2026-05-02T17:33:25.505Z</time></trkpt><trkpt lat="45.013009200000006" lon="7.603827183333334"><ele>240.0</ele><time>2026-05-02T17:33:26.514Z</time></trkpt><trkpt lat="45.01274961666667" lon="7.6041053000000005"><ele>240.0</ele><time>2026-05-02T17:33:27.503Z</time></trkpt><trkpt lat="45.012497916666675" lon="7.604397066666667"><ele>240.0</ele><time>2026-05-02T17:33:28.503Z</time></trkpt><trkpt lat="45.012251733333336" lon="7.604705616666667"><ele>240.5</ele><time>2026-05-02T17:33:29.508Z</time></trkpt><trkpt lat="45.01201678333334" lon="7.605033416666667"><ele>241.0</ele><time>2026-05-02T17:33:30.512Z</time></trkpt><trkpt lat="45.01178058333333" lon="7.605391749999999"><ele>240.5</ele><time>2026-05-02T17:33:31.515Z</time></trkpt><trkpt lat="45.011549499999994" lon="7.605775983333333"><ele>240.0</ele><time>2026-05-02T17:33:32.513Z</time></trkpt><trkpt lat="45.011326800000006" lon="7.606183333333333"><ele>240.0</ele><time>2026-05-02T17:33:33.516Z</time></trkpt><trkpt lat="45.011113983333345" lon="7.606619866666667"><ele>240.0</ele><time>2026-05-02T17:33:34.513Z</time></trkpt><trkpt lat="45.01091558333333" lon="7.607075933333334"><ele>240.0</ele><time>2026-05-02T17:33:35.516Z</time></trkpt><trkpt lat="45.01072806666666" lon="7.607558816666667"><ele>240.0</ele><time>2026-05-02T17:33:36.516Z</time></trkpt><trkpt lat="45.010557916666656" lon="7.608049066666666"><ele>239.5</ele><time>2026-05-02T17:33:37.514Z</time></trkpt><trkpt lat="45.01040553333334" lon="7.6085457000000005"><ele>239.0</ele><time>2026-05-02T17:33:38.513Z</time></trkpt><trkpt lat="45.01027436666667" lon="7.6090379666666665"><ele>237.5</ele><time>2026-05-02T17:33:39.513Z</time></trkpt><trkpt lat="45.01016446666666" lon="7.609519000000001"><ele>236.0</ele><time>2026-05-02T17:33:40.512Z</time></trkpt><trkpt lat="45.01007261666666" lon="7.609996933333334"><ele>236.5</ele><time>2026-05-02T17:33:41.503Z</time></trkpt><trkpt lat="45.0099986" lon="7.610460366666667"><ele>237.0</ele><time>2026-05-02T17:33:42.504Z</time></trkpt><trkpt lat="45.009939583333335" lon="7.610907300000001"><ele>239.0</ele><time>2026-05-02T17:33:43.52Z</time></trkpt><trkpt lat="45.009887866666666" lon="7.611345416666667"><ele>241.0</ele><time>2026-05-02T17:33:44.509Z</time></trkpt><trkpt lat="45.00984035" lon="7.61177935"><ele>240.5</ele><time>2026-05-02T17:33:45.512Z</time></trkpt><trkpt lat="45.00979425" lon="7.612213366666666"><ele>240.0</ele><time>2026-05-02T17:33:46.504Z</time></trkpt><trkpt lat="45.009748566666666" lon="7.612647633333334"><ele>239.5</ele><time>2026-05-02T17:33:47.513Z</time></trkpt><trkpt lat="45.00970388333334" lon="7.613077033333333"><ele>239.0</ele><time>2026-05-02T17:33:48.513Z</time></trkpt><trkpt lat="45.009658366666656" lon="7.613516249999999"><ele>239.0</ele><time>2026-05-02T17:33:49.503Z</time></trkpt><trkpt lat="45.00961286666667" lon="7.6139454833333335"><ele>239.0</ele><time>2026-05-02T17:33:50.512Z</time></trkpt><trkpt lat="45.00956760000001" lon="7.614369516666667"><ele>238.0</ele><time>2026-05-02T17:33:51.544Z</time></trkpt><trkpt lat="45.00952845" lon="7.614768166666666"><ele>237.0</ele><time>2026-05-02T17:33:52.512Z</time></trkpt><trkpt lat="45.00947991666667" lon="7.615165799999999"><ele>237.0</ele><time>2026-05-02T17:33:53.504Z</time></trkpt><trkpt lat="45.009420500000004" lon="7.6155550666666665"><ele>237.0</ele><time>2026-05-02T17:33:54.516Z</time></trkpt><trkpt lat="45.00934791666666" lon="7.6159346"><ele>237.0</ele><time>2026-05-02T17:33:55.512Z</time></trkpt><trkpt lat="45.00926443333333" lon="7.6163042333333335"><ele>237.0</ele><time>2026-05-02T17:33:56.514Z</time></trkpt><trkpt lat="45.009167033333334" lon="7.616667"><ele>235.5</ele><time>2026-05-02T17:33:57.513Z</time></trkpt><trkpt lat="45.00905696666667" lon="7.617017116666667"><ele>234.0</ele><time>2026-05-02T17:33:58.503Z</time></trkpt><trkpt lat="45.008936016666674" lon="7.6173544"><ele>234.0</ele><time>2026-05-02T17:33:59.514Z</time></trkpt><trkpt lat="45.00880266666666" lon="7.617687916666667"><ele>234.0</ele><time>2026-05-02T17:34:00.559Z</time></trkpt><trkpt lat="45.0086574" lon="7.618011383333333"><ele>233.5</ele><time>2026-05-02T17:34:01.524Z</time></trkpt><trkpt lat="45.00849580000001" lon="7.618331650000001"><ele>233.0</ele><time>2026-05-02T17:34:02.513Z</time></trkpt><trkpt lat="45.008317766666664" lon="7.61864715"><ele>236.0</ele><time>2026-05-02T17:34:03.505Z</time></trkpt><trkpt lat="45.00811840073775" lon="7.618914475785573"><ele>239.0</ele><time>2026-05-02T17:34:04.502Z</time></trkpt><trkpt lat="45.00790729449031" lon="7.619187366321964"><ele>238.0</ele><time>2026-05-02T17:34:05.506Z</time></trkpt><trkpt lat="45.00772743333333" lon="7.619492883333334"><ele>237.0</ele><time>2026-05-02T17:34:06.514Z</time></trkpt><trkpt lat="45.00750656666668" lon="7.619749616666667"><ele>236.5</ele><time>2026-05-02T17:34:07.505Z</time></trkpt><trkpt lat="45.00727966666666" lon="7.619987333333334"><ele>236.0</ele><time>2026-05-02T17:34:08.514Z</time></trkpt><trkpt lat="45.00704078333334" lon="7.620209783333333"><ele>236.0</ele><time>2026-05-02T17:34:09.514Z</time></trkpt><trkpt lat="45.00679276666666" lon="7.620411866666665"><ele>236.0</ele><time>2026-05-02T17:34:10.535Z</time></trkpt><trkpt lat="45.006534349999995" lon="7.620597866666666"><ele>235.5</ele><time>2026-05-02T17:34:11.532Z</time></trkpt><trkpt lat="45.006269316666675" lon="7.620764583333333"><ele>235.0</ele><time>2026-05-02T17:34:12.503Z</time></trkpt><trkpt lat="45.00599238333333" lon="7.6209173"><ele>236.0</ele><time>2026-05-02T17:34:13.512Z</time></trkpt><trkpt lat="45.00571385" lon="7.6210503166666665"><ele>237.0</ele><time>2026-05-02T17:34:14.512Z</time></trkpt><trkpt lat="45.005434483333325" lon="7.621179816666667"><ele>237.0</ele><time>2026-05-02T17:34:15.519Z</time></trkpt><trkpt lat="45.00515511666667" lon="7.62130915"><ele>237.0</ele><time>2026-05-02T17:34:16.513Z</time></trkpt><trkpt lat="45.00487575" lon="7.621438650000001"><ele>237.0</ele><time>2026-05-02T17:34:17.513Z</time></trkpt><trkpt lat="45.004586233333335" lon="7.621573683333334"><ele>237.0</ele><time>2026-05-02T17:34:18.513Z</time></trkpt><trkpt lat="45.00429295000001" lon="7.621709050000001"><ele>236.5</ele><time>2026-05-02T17:34:19.513Z</time></trkpt><trkpt lat="45.00399598333333" lon="7.621845349999999"><ele>236.0</ele><time>2026-05-02T17:34:20.513Z</time></trkpt><trkpt lat="45.00369246666667" lon="7.621985983333334"><ele>236.0</ele><time>2026-05-02T17:34:21.513Z</time></trkpt><trkpt lat="45.00337881666666" lon="7.622132333333333"><ele>236.0</ele><time>2026-05-02T17:34:22.514Z</time></trkpt><trkpt lat="45.00306173333333" lon="7.622280700000001"><ele>236.5</ele><time>2026-05-02T17:34:23.518Z</time></trkpt><trkpt lat="45.002740366666664" lon="7.622435516666667"><ele>237.0</ele><time>2026-05-02T17:34:24.516Z</time></trkpt><trkpt lat="45.00240316666667" lon="7.622590833333334"><ele>237.0</ele><time>2026-05-02T17:34:25.513Z</time></trkpt><trkpt lat="45.002052133333336" lon="7.622752433333333"><ele>237.0</ele><time>2026-05-02T17:34:26.516Z</time></trkpt><trkpt lat="45.00169741666667" lon="7.622915716666667"><ele>236.5</ele><time>2026-05-02T17:34:27.502Z</time></trkpt><trkpt lat="45.00133255000001" lon="7.6230846"><ele>236.0</ele><time>2026-05-02T17:34:28.514Z</time></trkpt><trkpt lat="45.00096441666666" lon="7.6232557666666665"><ele>236.0</ele><time>2026-05-02T17:34:29.514Z</time></trkpt><trkpt lat="45.00058571666667" lon="7.623431366666667"><ele>236.0</ele><time>2026-05-02T17:34:30.515Z</time></trkpt><trkpt lat="45.00021373333334" lon="7.623604366666666"><ele>236.5</ele><time>2026-05-02T17:34:31.513Z</time></trkpt><trkpt lat="44.999848783333334" lon="7.623774766666665"><ele>237.0</ele><time>2026-05-02T17:34:32.503Z</time></trkpt><trkpt lat="44.99948031666666" lon="7.623945849999999"><ele>235.5</ele><time>2026-05-02T17:34:33.503Z</time></trkpt><trkpt lat="44.99911503333333" lon="7.624113733333334"><ele>234.0</ele><time>2026-05-02T17:34:34.513Z</time></trkpt><trkpt lat="44.99875678333333" lon="7.624279033333332"><ele>234.0</ele><time>2026-05-02T17:34:35.506Z</time></trkpt><trkpt lat="44.998402983333335" lon="7.624446333333333"><ele>234.0</ele><time>2026-05-02T17:34:36.515Z</time></trkpt><trkpt lat="44.998053799999994" lon="7.624616400000001"><ele>234.5</ele><time>2026-05-02T17:34:37.514Z</time></trkpt><trkpt lat="44.997713833333336" lon="7.624791750000001"><ele>235.0</ele><time>2026-05-02T17:34:38.516Z</time></trkpt><trkpt lat="44.9973835" lon="7.624974300000001"><ele>235.0</ele><time>2026-05-02T17:34:39.516Z</time></trkpt><trkpt lat="44.997063983333334" lon="7.625175550000001"><ele>235.0</ele><time>2026-05-02T17:34:40.516Z</time></trkpt><trkpt lat="44.996748983333326" lon="7.625369599999998"><ele>234.0</ele><time>2026-05-02T17:34:41.513Z</time></trkpt><trkpt lat="44.99643668333333" lon="7.625571433333333"><ele>233.0</ele><time>2026-05-02T17:34:42.514Z</time></trkpt><trkpt lat="44.99613601666667" lon="7.6257752000000005"><ele>233.0</ele><time>2026-05-02T17:34:43.504Z</time></trkpt><trkpt lat="44.995843816666664" lon="7.625982733333332"><ele>233.0</ele><time>2026-05-02T17:34:44.503Z</time></trkpt><trkpt lat="44.99555758333332" lon="7.626194633333333"><ele>233.0</ele><time>2026-05-02T17:34:45.524Z</time></trkpt><trkpt lat="44.99528031666667" lon="7.626408616666667"><ele>233.0</ele><time>2026-05-02T17:34:46.513Z</time></trkpt><trkpt lat="44.99500646666667" lon="7.626630316666667"><ele>233.0</ele><time>2026-05-02T17:34:47.515Z</time></trkpt><trkpt lat="44.99473296666667" lon="7.6268622499999985"><ele>233.0</ele><time>2026-05-02T17:34:48.571Z</time></trkpt><trkpt lat="44.994462483333336" lon="7.627101133333334"><ele>233.0</ele><time>2026-05-02T17:34:49.515Z</time></trkpt><trkpt lat="44.994189066666664" lon="7.6273522499999995"><ele>233.0</ele><time>2026-05-02T17:34:50.516Z</time></trkpt><trkpt lat="44.99391858333334" lon="7.62761"><ele>234.5</ele><time>2026-05-02T17:34:51.514Z</time></trkpt><trkpt lat="44.99366" lon="7.627874533333332"><ele>236.0</ele><time>2026-05-02T17:34:52.506Z</time></trkpt><trkpt lat="44.99339823333333" lon="7.628141333333334"><ele>236.0</ele><time>2026-05-02T17:34:53.513Z</time></trkpt><trkpt lat="44.993140333333336" lon="7.6284149999999995"><ele>236.0</ele><time>2026-05-02T17:34:54.515Z</time></trkpt><trkpt lat="44.99288853333334" lon="7.628691766666666"><ele>235.5</ele><time>2026-05-02T17:34:55.514Z</time></trkpt><trkpt lat="44.99264395" lon="7.628972983333333"><ele>235.0</ele><time>2026-05-02T17:34:56.513Z</time></trkpt><trkpt lat="44.992400366666665" lon="7.629263333333334"><ele>235.0</ele><time>2026-05-02T17:34:57.515Z</time></trkpt><trkpt lat="44.992160566666676" lon="7.629559633333334"><ele>235.0</ele><time>2026-05-02T17:34:58.513Z</time></trkpt><trkpt lat="44.99192151666666" lon="7.629864816666666"><ele>235.0</ele><time>2026-05-02T17:34:59.514Z</time></trkpt><trkpt lat="44.99168833333333" lon="7.630172016666667"><ele>235.0</ele><time>2026-05-02T17:35:00.515Z</time></trkpt><trkpt lat="44.99145681666667" lon="7.630488850000001"><ele>234.0</ele><time>2026-05-02T17:35:01.51Z</time></trkpt><trkpt lat="44.99123193333333" lon="7.630807700000001"><ele>233.0</ele><time>2026-05-02T17:35:02.513Z</time></trkpt><trkpt lat="44.99100973333334" lon="7.631130400000001"><ele>235.0</ele><time>2026-05-02T17:35:03.707Z</time></trkpt><trkpt lat="44.9905789" lon="7.63177295"><ele>235.0</ele><time>2026-05-02T17:35:05.516Z</time></trkpt><trkpt lat="44.990373033333334" lon="7.632093149999998"><ele>235.0</ele><time>2026-05-02T17:35:06.517Z</time></trkpt><trkpt lat="44.99016065000001" lon="7.63241475"><ele>235.0</ele><time>2026-05-02T17:35:07.513Z</time></trkpt><trkpt lat="44.98994531666668" lon="7.632739133333334"><ele>235.0</ele><time>2026-05-02T17:35:08.511Z</time></trkpt><trkpt lat="44.989724949999996" lon="7.633070466666667"><ele>235.0</ele><time>2026-05-02T17:35:09.514Z</time></trkpt><trkpt lat="44.98949721666666" lon="7.6334132"><ele>235.0</ele><time>2026-05-02T17:35:10.513Z</time></trkpt><trkpt lat="44.98926461666667" lon="7.633763483333333"><ele>234.5</ele><time>2026-05-02T17:35:11.514Z</time></trkpt><trkpt lat="44.98902783333333" lon="7.634121566666666"><ele>234.0</ele><time>2026-05-02T17:35:12.506Z</time></trkpt><trkpt lat="44.98878391666667" lon="7.634490116666666"><ele>234.0</ele><time>2026-05-02T17:35:13.506Z</time></trkpt><trkpt lat="44.98853413333333" lon="7.634865033333333"><ele>234.0</ele><time>2026-05-02T17:35:14.514Z</time></trkpt><trkpt lat="44.98828678333333" lon="7.635237200000001"><ele>234.0</ele><time>2026-05-02T17:35:15.523Z</time></trkpt><trkpt lat="44.988047233333326" lon="7.63559895"><ele>234.0</ele><time>2026-05-02T17:35:16.515Z</time></trkpt><trkpt lat="44.987815383333334" lon="7.635949816666666"><ele>234.5</ele><time>2026-05-02T17:35:17.503Z</time></trkpt><trkpt lat="44.98758623333333" lon="7.636297166666666"><ele>235.0</ele><time>2026-05-02T17:35:18.514Z</time></trkpt><trkpt lat="44.987359" lon="7.636640316666665"><ele>234.0</ele><time>2026-05-02T17:35:19.515Z</time></trkpt><trkpt lat="44.98713401666667" lon="7.636980133333333"><ele>233.0</ele><time>2026-05-02T17:35:20.52Z</time></trkpt><trkpt lat="44.986901083333336" lon="7.637329733333333"><ele>233.5</ele><time>2026-05-02T17:35:21.519Z</time></trkpt><trkpt lat="44.98665993333334" lon="7.637689066666666"><ele>234.0</ele><time>2026-05-02T17:35:22.515Z</time></trkpt><trkpt lat="44.986421400000005" lon="7.638047983333332"><ele>234.0</ele><time>2026-05-02T17:35:23.517Z</time></trkpt><trkpt lat="44.98616641666668" lon="7.638431033333334"><ele>234.0</ele><time>2026-05-02T17:35:24.514Z</time></trkpt><trkpt lat="44.98590431666666" lon="7.6388256499999985"><ele>233.0</ele><time>2026-05-02T17:35:25.516Z</time></trkpt><trkpt lat="44.98563776666666" lon="7.639228816666667"><ele>232.0</ele><time>2026-05-02T17:35:26.514Z</time></trkpt><trkpt lat="44.9853641" lon="7.63964415"><ele>232.0</ele><time>2026-05-02T17:35:27.504Z</time></trkpt><trkpt lat="44.98508664999999" lon="7.640068516666666"><ele>232.0</ele><time>2026-05-02T17:35:28.505Z</time></trkpt><trkpt lat="44.98480368333333" lon="7.640506733333333"><ele>232.0</ele><time>2026-05-02T17:35:29.514Z</time></trkpt><trkpt lat="44.984517283333325" lon="7.640954233333334"><ele>232.0</ele><time>2026-05-02T17:35:30.504Z</time></trkpt><trkpt lat="44.98422608333333" lon="7.641409716666667"><ele>231.5</ele><time>2026-05-02T17:35:31.504Z</time></trkpt><trkpt lat="44.98392828333334" lon="7.641877583333333"><ele>231.0</ele><time>2026-05-02T17:35:32.514Z</time></trkpt><trkpt lat="44.98362963333334" lon="7.642351833333334"><ele>230.5</ele><time>2026-05-02T17:35:33.515Z</time></trkpt><trkpt lat="44.983331650000004" lon="7.642827433333334"><ele>230.0</ele><time>2026-05-02T17:35:34.517Z</time></trkpt><trkpt lat="44.983037200000005" lon="7.643300333333333"><ele>230.0</ele><time>2026-05-02T17:35:35.515Z</time></trkpt><trkpt lat="44.98274593333334" lon="7.643769633333332"><ele>230.0</ele><time>2026-05-02T17:35:36.515Z</time></trkpt><trkpt lat="44.982460016666664" lon="7.644231066666666"><ele>228.5</ele><time>2026-05-02T17:35:37.507Z</time></trkpt><trkpt lat="44.982174199999996" lon="7.644692066666667"><ele>227.0</ele><time>2026-05-02T17:35:38.515Z</time></trkpt><trkpt lat="44.98189215000001" lon="7.645150633333333"><ele>227.5</ele><time>2026-05-02T17:35:39.515Z</time></trkpt><trkpt lat="44.98161831666666" lon="7.6455989"><ele>228.0</ele><time>2026-05-02T17:35:40.514Z</time></trkpt><trkpt lat="44.981340033333325" lon="7.646054033333333"><ele>228.0</ele><time>2026-05-02T17:35:41.504Z</time></trkpt><trkpt lat="44.981064516666656" lon="7.646506083333333"><ele>228.0</ele><time>2026-05-02T17:35:42.516Z</time></trkpt><trkpt lat="44.98078523333333" lon="7.646967166666666"><ele>228.0</ele><time>2026-05-02T17:35:43.515Z</time></trkpt><trkpt lat="44.98050284999999" lon="7.6474178666666655"><ele>228.0</ele><time>2026-05-02T17:35:44.515Z</time></trkpt><trkpt lat="44.980214333333336" lon="7.647888166666667"><ele>227.5</ele><time>2026-05-02T17:35:45.514Z</time></trkpt><trkpt lat="44.9799203" lon="7.648365516666666"><ele>227.0</ele><time>2026-05-02T17:35:46.504Z</time></trkpt><trkpt lat="44.9796261" lon="7.64884345"><ele>227.0</ele><time>2026-05-02T17:35:47.515Z</time></trkpt><trkpt lat="44.97933826666667" lon="7.649315683333334"><ele>227.0</ele><time>2026-05-02T17:35:48.505Z</time></trkpt><trkpt lat="44.97905278333332" lon="7.649789933333333"><ele>226.5</ele><time>2026-05-02T17:35:49.514Z</time></trkpt><trkpt lat="44.97876855" lon="7.6502716500000005"><ele>226.0</ele><time>2026-05-02T17:35:50.518Z</time></trkpt><trkpt lat="44.97848909999999" lon="7.650758883333332"><ele>226.0</ele><time>2026-05-02T17:35:51.515Z</time></trkpt><trkpt lat="44.97821223333334" lon="7.651255766666666"><ele>226.0</ele><time>2026-05-02T17:35:52.506Z</time></trkpt><trkpt lat="44.9779467" lon="7.651745849999999"><ele>225.5</ele><time>2026-05-02T17:35:53.515Z</time></trkpt><trkpt lat="44.97769248333334" lon="7.652228399999999"><ele>225.0</ele><time>2026-05-02T17:35:54.514Z</time></trkpt><trkpt lat="44.977449066666665" lon="7.652703483333332"><ele>226.0</ele><time>2026-05-02T17:35:55.506Z</time></trkpt><trkpt lat="44.97722166666667" lon="7.653153933333334"><ele>227.0</ele><time>2026-05-02T17:35:56.516Z</time></trkpt><trkpt lat="44.976996033333336" lon="7.653615433333332"><ele>226.0</ele><time>2026-05-02T17:35:57.514Z</time></trkpt><trkpt lat="44.97677826666666" lon="7.654072"><ele>225.0</ele><time>2026-05-02T17:35:58.505Z</time></trkpt><trkpt lat="44.97656711666667" lon="7.654528316666667"><ele>225.0</ele><time>2026-05-02T17:35:59.506Z</time></trkpt><trkpt lat="44.976362016666656" lon="7.654983700000001"><ele>225.0</ele><time>2026-05-02T17:36:00.515Z</time></trkpt><trkpt lat="44.97616655" lon="7.6554293666666675"><ele>225.0</ele><time>2026-05-02T17:36:01.517Z</time></trkpt><trkpt lat="44.97597603333334" lon="7.6558731"><ele>225.0</ele><time>2026-05-02T17:36:02.506Z</time></trkpt><trkpt lat="44.97580126666667" lon="7.65629715"><ele>226.0</ele><time>2026-05-02T17:36:03.516Z</time></trkpt><trkpt lat="44.97562666666666" lon="7.6567301500000005"><ele>227.0</ele><time>2026-05-02T17:36:04.504Z</time></trkpt><trkpt lat="44.97545845" lon="7.657156716666666"><ele>226.5</ele><time>2026-05-02T17:36:05.517Z</time></trkpt><trkpt lat="44.97529500000001" lon="7.657581083333334"><ele>226.0</ele><time>2026-05-02T17:36:06.504Z</time></trkpt><trkpt lat="44.97513758333333" lon="7.6579984166666675"><ele>226.0</ele><time>2026-05-02T17:36:07.528Z</time></trkpt><trkpt lat="44.97498143333334" lon="7.6584233"><ele>226.0</ele><time>2026-05-02T17:36:08.516Z</time></trkpt><trkpt lat="44.97483139999999" lon="7.658842483333332"><ele>226.0</ele><time>2026-05-02T17:36:09.505Z</time></trkpt><trkpt lat="44.974684466666666" lon="7.659263833333333"><ele>226.0</ele><time>2026-05-02T17:36:10.515Z</time></trkpt><trkpt lat="44.97454926666666" lon="7.659678733333333"><ele>225.0</ele><time>2026-05-02T17:36:11.514Z</time></trkpt><trkpt lat="44.974407366666675" lon="7.660108483333333"><ele>224.0</ele><time>2026-05-02T17:36:12.515Z</time></trkpt><trkpt lat="44.97427241666666" lon="7.660531849999998"><ele>223.5</ele><time>2026-05-02T17:36:13.516Z</time></trkpt><trkpt lat="44.974137633333335" lon="7.660966283333333"><ele>223.0</ele><time>2026-05-02T17:36:14.519Z</time></trkpt><trkpt lat="44.97400771666667" lon="7.661398116666667"><ele>223.0</ele><time>2026-05-02T17:36:15.515Z</time></trkpt><trkpt lat="44.97388080000001" lon="7.661831883333334"><ele>223.0</ele><time>2026-05-02T17:36:16.506Z</time></trkpt><trkpt lat="44.973754916666664" lon="7.6622716"><ele>223.0</ele><time>2026-05-02T17:36:17.514Z</time></trkpt><trkpt lat="44.97363026666667" lon="7.662721699999999"><ele>223.0</ele><time>2026-05-02T17:36:18.515Z</time></trkpt><trkpt lat="44.973505800000005" lon="7.663187316666667"><ele>222.5</ele><time>2026-05-02T17:36:19.56Z</time></trkpt><trkpt lat="44.97339113333334" lon="7.663657466666666"><ele>222.0</ele><time>2026-05-02T17:36:20.504Z</time></trkpt><trkpt lat="44.973267916666664" lon="7.66415685"><ele>222.5</ele><time>2026-05-02T17:36:21.505Z</time></trkpt><trkpt lat="44.97314629999999" lon="7.664662616666668"><ele>223.0</ele><time>2026-05-02T17:36:22.515Z</time></trkpt><trkpt lat="44.97302233333333" lon="7.665183466666667"><ele>222.5</ele><time>2026-05-02T17:36:23.516Z</time></trkpt><trkpt lat="44.972896683333325" lon="7.665714466666667"><ele>222.0</ele><time>2026-05-02T17:36:24.507Z</time></trkpt><trkpt lat="44.97276870000001" lon="7.666255266666667"><ele>222.0</ele><time>2026-05-02T17:36:25.515Z</time></trkpt><trkpt lat="44.972638016666664" lon="7.666811066666666"><ele>222.0</ele><time>2026-05-02T17:36:26.515Z</time></trkpt><trkpt lat="44.97250558333333" lon="7.667371816666667"><ele>223.0</ele><time>2026-05-02T17:36:27.507Z</time></trkpt><trkpt lat="44.972370466666675" lon="7.667942200000001"><ele>224.0</ele><time>2026-05-02T17:36:28.516Z</time></trkpt><trkpt lat="44.97223343333334" lon="7.668517283333334"><ele>224.0</ele><time>2026-05-02T17:36:29.516Z</time></trkpt><trkpt lat="44.972103600000004" lon="7.669101683333333"><ele>224.0</ele><time>2026-05-02T17:36:30.519Z</time></trkpt><trkpt lat="44.97196353333334" lon="7.669691683333334"><ele>224.0</ele><time>2026-05-02T17:36:31.504Z</time></trkpt><trkpt lat="44.971825900000006" lon="7.670272116666666"><ele>224.0</ele><time>2026-05-02T17:36:32.511Z</time></trkpt><trkpt lat="44.97168826666666" lon="7.67085215"><ele>223.0</ele><time>2026-05-02T17:36:33.516Z</time></trkpt><trkpt lat="44.971552149999994" lon="7.671427566666667"><ele>222.0</ele><time>2026-05-02T17:36:34.663Z</time></trkpt><trkpt lat="44.97141786666666" lon="7.67199805"><ele>222.0</ele><time>2026-05-02T17:36:35.506Z</time></trkpt><trkpt lat="44.97128141666667" lon="7.672577983333334"><ele>222.0</ele><time>2026-05-02T17:36:36.516Z</time></trkpt><trkpt lat="44.971145033333336" lon="7.673158183333334"><ele>222.0</ele><time>2026-05-02T17:36:37.506Z</time></trkpt><trkpt lat="44.97100615" lon="7.673747933333334"><ele>222.0</ele><time>2026-05-02T17:36:38.518Z</time></trkpt><trkpt lat="44.970868100000004" lon="7.674327699999999"><ele>222.0</ele><time>2026-05-02T17:36:39.521Z</time></trkpt><trkpt lat="44.97073265000001" lon="7.6748976"><ele>222.0</ele><time>2026-05-02T17:36:40.505Z</time></trkpt><trkpt lat="44.97059861666667" lon="7.675457333333333"><ele>222.0</ele><time>2026-05-02T17:36:41.504Z</time></trkpt><trkpt lat="44.97047808333333" lon="7.676014983333332"><ele>222.0</ele><time>2026-05-02T17:36:42.515Z</time></trkpt><trkpt lat="44.970357650000004" lon="7.67656945"><ele>222.5</ele><time>2026-05-02T17:36:43.506Z</time></trkpt><trkpt lat="44.970250183333334" lon="7.677118549999999"><ele>223.0</ele><time>2026-05-02T17:36:44.516Z</time></trkpt><trkpt lat="44.97015673333333" lon="7.677661866666667"><ele>222.0</ele><time>2026-05-02T17:36:45.516Z</time></trkpt><trkpt lat="44.970076266666666" lon="7.678203916666666"><ele>221.0</ele><time>2026-05-02T17:36:46.505Z</time></trkpt><trkpt lat="44.97000786666668" lon="7.678748999999999"><ele>221.0</ele><time>2026-05-02T17:36:47.504Z</time></trkpt><trkpt lat="44.969952799999994" lon="7.679286866666666"><ele>221.0</ele><time>2026-05-02T17:36:48.515Z</time></trkpt><trkpt lat="44.969910383333335" lon="7.679827066666666"><ele>221.0</ele><time>2026-05-02T17:36:49.505Z</time></trkpt><trkpt lat="44.96988055" lon="7.680358733333333"><ele>221.0</ele><time>2026-05-02T17:36:50.507Z</time></trkpt><trkpt lat="44.96986295" lon="7.680881266666668"><ele>220.5</ele><time>2026-05-02T17:36:51.508Z</time></trkpt><trkpt lat="44.969857166666664" lon="7.681399100000001"><ele>220.0</ele><time>2026-05-02T17:36:52.505Z</time></trkpt><trkpt lat="44.96986295" lon="7.681916850000001"><ele>221.0</ele><time>2026-05-02T17:36:53.513Z</time></trkpt><trkpt lat="44.96987728333333" lon="7.682424033333333"><ele>222.0</ele><time>2026-05-02T17:36:54.515Z</time></trkpt><trkpt lat="44.96990133333333" lon="7.682930216666667"><ele>223.0</ele><time>2026-05-02T17:36:55.518Z</time></trkpt><trkpt lat="44.96993636666666" lon="7.683435233333334"><ele>224.0</ele><time>2026-05-02T17:36:56.505Z</time></trkpt><trkpt lat="44.96997693333333" lon="7.683934466666666"><ele>224.0</ele><time>2026-05-02T17:36:57.517Z</time></trkpt><trkpt lat="44.97002035" lon="7.684428233333334"><ele>224.0</ele><time>2026-05-02T17:36:58.525Z</time></trkpt><trkpt lat="44.97006553333333" lon="7.684921766666667"><ele>223.5</ele><time>2026-05-02T17:36:59.516Z</time></trkpt><trkpt lat="44.97010961666667" lon="7.685410266666666"><ele>223.0</ele><time>2026-05-02T17:37:00.517Z</time></trkpt><trkpt lat="44.97015236666666" lon="7.685888866666667"><ele>222.5</ele><time>2026-05-02T17:37:01.506Z</time></trkpt><trkpt lat="44.97019351666666" lon="7.686357666666667"><ele>222.0</ele><time>2026-05-02T17:37:02.516Z</time></trkpt><trkpt lat="44.97023451666667" lon="7.686817"><ele>222.5</ele><time>2026-05-02T17:37:03.515Z</time></trkpt><trkpt lat="44.970276166666665" lon="7.687276833333335"><ele>223.0</ele><time>2026-05-02T17:37:04.516Z</time></trkpt><trkpt lat="44.970317666666666" lon="7.6877364"><ele>223.0</ele><time>2026-05-02T17:37:05.527Z</time></trkpt><trkpt lat="44.97035881666667" lon="7.68820085"><ele>223.0</ele><time>2026-05-02T17:37:06.517Z</time></trkpt><trkpt lat="44.970400816666675" lon="7.688670400000001"><ele>223.0</ele><time>2026-05-02T17:37:07.506Z</time></trkpt><trkpt lat="44.97044415" lon="7.689149350000001"><ele>223.0</ele><time>2026-05-02T17:37:08.525Z</time></trkpt><trkpt lat="44.970487649999995" lon="7.689632566666668"><ele>223.0</ele><time>2026-05-02T17:37:09.508Z</time></trkpt><trkpt lat="44.97053040000001" lon="7.690106133333334"><ele>223.0</ele><time>2026-05-02T17:37:10.515Z</time></trkpt><trkpt lat="44.97057406666666" lon="7.690589766666666"><ele>223.5</ele><time>2026-05-02T17:37:11.506Z</time></trkpt><trkpt lat="44.970617483333335" lon="7.69106855"><ele>224.0</ele><time>2026-05-02T17:37:12.518Z</time></trkpt><trkpt lat="44.97065998333334" lon="7.691537433333334"><ele>221.5</ele><time>2026-05-02T17:37:13.517Z</time></trkpt><trkpt lat="44.97070265000001" lon="7.692006983333332"><ele>219.0</ele><time>2026-05-02T17:37:14.507Z</time></trkpt><trkpt lat="44.97074446666667" lon="7.692472266666666"><ele>218.0</ele><time>2026-05-02T17:37:15.506Z</time></trkpt><trkpt lat="44.97078663333334" lon="7.692942400000001"><ele>217.0</ele><time>2026-05-02T17:37:16.52Z</time></trkpt><trkpt lat="44.97083071666666" lon="7.693421516666667"><ele>219.0</ele><time>2026-05-02T17:37:17.506Z</time></trkpt><trkpt lat="44.97087631666667" lon="7.693909933333333"><ele>221.0</ele><time>2026-05-02T17:37:18.507Z</time></trkpt><trkpt lat="44.97092283333333" lon="7.694413599999999"><ele>221.0</ele><time>2026-05-02T17:37:19.521Z</time></trkpt><trkpt lat="44.97096785" lon="7.694922883333333"><ele>221.0</ele><time>2026-05-02T17:37:20.505Z</time></trkpt><trkpt lat="44.971012183333336" lon="7.695452700000001"><ele>220.0</ele><time>2026-05-02T17:37:21.519Z</time></trkpt><trkpt lat="44.97105393333333" lon="7.695988633333333"><ele>219.0</ele><time>2026-05-02T17:37:22.584Z</time></trkpt><trkpt lat="44.971092399999996" lon="7.6965405833333325"><ele>221.5</ele><time>2026-05-02T17:37:23.509Z</time></trkpt><trkpt lat="44.971123416666664" lon="7.6971039333333335"><ele>224.0</ele><time>2026-05-02T17:37:24.597Z</time></trkpt><trkpt lat="44.97114696666666" lon="7.697678683333334"><ele>224.0</ele><time>2026-05-02T17:37:25.519Z</time></trkpt><trkpt lat="44.971161716666664" lon="7.698249066666667"><ele>224.0</ele><time>2026-05-02T17:37:26.509Z</time></trkpt><trkpt lat="44.97116976666666" lon="7.698819633333333"><ele>224.0</ele><time>2026-05-02T17:37:27.521Z</time></trkpt><trkpt lat="44.97117110000001" lon="7.699380383333333"><ele>224.0</ele><time>2026-05-02T17:37:28.522Z</time></trkpt><trkpt lat="44.971166499999995" lon="7.699935683333333"><ele>222.5</ele><time>2026-05-02T17:37:29.526Z</time></trkpt><trkpt lat="44.971153916666665" lon="7.700485283333334"><ele>221.0</ele><time>2026-05-02T17:37:30.518Z</time></trkpt><trkpt lat="44.971134733333336" lon="7.701009150000001"><ele>222.5</ele><time>2026-05-02T17:37:31.516Z</time></trkpt><trkpt lat="44.971110333333336" lon="7.701527316666666"><ele>224.0</ele><time>2026-05-02T17:37:32.505Z</time></trkpt><trkpt lat="44.97107873333333" lon="7.70204935"><ele>223.5</ele><time>2026-05-02T17:37:33.516Z</time></trkpt><trkpt lat="44.97103976666667" lon="7.702585616666666"><ele>223.0</ele><time>2026-05-02T17:37:34.506Z</time></trkpt><trkpt lat="44.97099358333333" lon="7.703126333333334"><ele>222.5</ele><time>2026-05-02T17:37:35.516Z</time></trkpt><trkpt lat="44.97093808333334" lon="7.7036803"><ele>222.0</ele><time>2026-05-02T17:37:36.516Z</time></trkpt><trkpt lat="44.97087488333333" lon="7.704237866666666"><ele>222.0</ele><time>2026-05-02T17:37:37.506Z</time></trkpt><trkpt lat="44.970804150000006" lon="7.704804049999999"><ele>222.0</ele><time>2026-05-02T17:37:38.516Z</time></trkpt><trkpt lat="44.97072636666667" lon="7.705378966666666"><ele>222.5</ele><time>2026-05-02T17:37:39.518Z</time></trkpt><trkpt lat="44.97064405" lon="7.705958083333333"><ele>223.0</ele><time>2026-05-02T17:37:40.516Z</time></trkpt><trkpt lat="44.970558983333326" lon="7.706541616666668"><ele>224.0</ele><time>2026-05-02T17:37:41.515Z</time></trkpt><trkpt lat="44.97047096666667" lon="7.70713465"><ele>225.0</ele><time>2026-05-02T17:37:42.508Z</time></trkpt><trkpt lat="44.97038111666667" lon="7.707732866666667"><ele>225.5</ele><time>2026-05-02T17:37:43.52Z</time></trkpt><trkpt lat="44.970292266666675" lon="7.7083264666666675"><ele>226.0</ele><time>2026-05-02T17:37:44.516Z</time></trkpt><trkpt lat="44.970202333333326" lon="7.708935499999999"><ele>226.0</ele><time>2026-05-02T17:37:45.506Z</time></trkpt><trkpt lat="44.970113483333336" lon="7.709545283333333"><ele>226.0</ele><time>2026-05-02T17:37:46.505Z</time></trkpt><trkpt lat="44.97002421666666" lon="7.710160183333333"><ele>225.5</ele><time>2026-05-02T17:37:47.506Z</time></trkpt><trkpt lat="44.969933183333325" lon="7.7107744"><ele>225.0</ele><time>2026-05-02T17:37:48.507Z</time></trkpt><trkpt lat="44.96984283333333" lon="7.711383183333334"><ele>224.5</ele><time>2026-05-02T17:37:49.516Z</time></trkpt><trkpt lat="44.96975045000001" lon="7.71199615"><ele>224.0</ele><time>2026-05-02T17:37:50.517Z</time></trkpt><trkpt lat="44.96965951666666" lon="7.712604416666666"><ele>224.0</ele><time>2026-05-02T17:37:51.506Z</time></trkpt><trkpt lat="44.96956706666666" lon="7.713217133333334"><ele>224.0</ele><time>2026-05-02T17:37:52.506Z</time></trkpt><trkpt lat="44.96947578333334" lon="7.713825083333334"><ele>225.0</ele><time>2026-05-02T17:37:53.507Z</time></trkpt><trkpt lat="44.969384416666664" lon="7.714437883333333"><ele>226.0</ele><time>2026-05-02T17:37:54.51Z</time></trkpt><trkpt lat="44.96929348333333" lon="7.715050933333333"><ele>225.0</ele><time>2026-05-02T17:37:55.516Z</time></trkpt><trkpt lat="44.96920278333334" lon="7.715664149999999"><ele>224.0</ele><time>2026-05-02T17:37:56.506Z</time></trkpt><trkpt lat="44.969110833333325" lon="7.716281566666667"><ele>224.0</ele><time>2026-05-02T17:37:57.518Z</time></trkpt><trkpt lat="44.96901896666667" lon="7.716893866666667"><ele>224.0</ele><time>2026-05-02T17:37:58.516Z</time></trkpt><trkpt lat="44.96892643333334" lon="7.717511099999999"><ele>224.0</ele><time>2026-05-02T17:37:59.509Z</time></trkpt><trkpt lat="44.9688344" lon="7.718123483333334"><ele>224.0</ele><time>2026-05-02T17:38:00.515Z</time></trkpt><trkpt lat="44.96874286666666" lon="7.71874115"><ele>226.0</ele><time>2026-05-02T17:38:01.516Z</time></trkpt><trkpt lat="44.96865" lon="7.719363333333333"><ele>226.0</ele><time>2026-05-02T17:38:02.509Z</time></trkpt><trkpt lat="44.96855796666667" lon="7.719975466666667"><ele>226.0</ele><time>2026-05-02T17:38:03.508Z</time></trkpt><trkpt lat="44.96846416666667" lon="7.720597483333334"><ele>226.0</ele><time>2026-05-02T17:38:04.506Z</time></trkpt><trkpt lat="44.96836986666667" lon="7.721219516666667"><ele>225.5</ele><time>2026-05-02T17:38:05.547Z</time></trkpt><trkpt lat="44.968277333333326" lon="7.721831733333333"><ele>225.0</ele><time>2026-05-02T17:38:06.507Z</time></trkpt><trkpt lat="44.96818706666666" lon="7.72243405"><ele>225.0</ele><time>2026-05-02T17:38:07.52Z</time></trkpt><trkpt lat="44.968097549999996" lon="7.723030666666667"><ele>225.0</ele><time>2026-05-02T17:38:08.517Z</time></trkpt><trkpt lat="44.96800986666667" lon="7.723622349999999"><ele>225.0</ele><time>2026-05-02T17:38:09.516Z</time></trkpt><trkpt lat="44.96792278333334" lon="7.724208916666666"><ele>225.0</ele><time>2026-05-02T17:38:10.517Z</time></trkpt><trkpt lat="44.967837533333345" lon="7.724780316666666"><ele>225.5</ele><time>2026-05-02T17:38:11.508Z</time></trkpt><trkpt lat="44.96775120000001" lon="7.7253512"><ele>226.0</ele><time>2026-05-02T17:38:12.516Z</time></trkpt><trkpt lat="44.96766696666666" lon="7.7259019"><ele>225.5</ele><time>2026-05-02T17:38:13.51Z</time></trkpt><trkpt lat="44.967584833333326" lon="7.726442783333332"><ele>225.0</ele><time>2026-05-02T17:38:14.517Z</time></trkpt><trkpt lat="44.9675041" lon="7.726978466666666"><ele>225.0</ele><time>2026-05-02T17:38:15.509Z</time></trkpt><trkpt lat="44.96742389999999" lon="7.727513816666668"><ele>225.0</ele><time>2026-05-02T17:38:16.506Z</time></trkpt><trkpt lat="44.967343516666666" lon="7.72804925"><ele>227.5</ele><time>2026-05-02T17:38:17.519Z</time></trkpt><trkpt lat="44.967264133333344" lon="7.728580083333333"><ele>230.0</ele><time>2026-05-02T17:38:18.51Z</time></trkpt><trkpt lat="44.967186350000006" lon="7.729106300000001"><ele>228.5</ele><time>2026-05-02T17:38:19.508Z</time></trkpt><trkpt lat="44.96711006666666" lon="7.7296279000000006"><ele>227.0</ele><time>2026-05-02T17:38:20.642Z</time></trkpt><trkpt lat="44.96703598333333" lon="7.73013475"><ele>227.0</ele><time>2026-05-02T17:38:21.506Z</time></trkpt><trkpt lat="44.96696465" lon="7.730621583333334"><ele>227.0</ele><time>2026-05-02T17:38:22.519Z</time></trkpt><trkpt lat="44.96689516666667" lon="7.731093316666667"><ele>226.0</ele><time>2026-05-02T17:38:23.519Z</time></trkpt><trkpt lat="44.96682751666667" lon="7.7315463499999995"><ele>225.0</ele><time>2026-05-02T17:38:24.507Z</time></trkpt><trkpt lat="44.966762816666666" lon="7.731987999999999"><ele>225.0</ele><time>2026-05-02T17:38:25.518Z</time></trkpt><trkpt lat="44.96669751666666" lon="7.732427116666666"><ele>225.0</ele><time>2026-05-02T17:38:26.52Z</time></trkpt><trkpt lat="44.96663465" lon="7.7328463"><ele>225.5</ele><time>2026-05-02T17:38:27.516Z</time></trkpt><trkpt lat="44.96657355000001" lon="7.733250399999999"><ele>226.0</ele><time>2026-05-02T17:38:28.507Z</time></trkpt><trkpt lat="44.9665127" lon="7.7336491999999994"><ele>226.5</ele><time>2026-05-02T17:38:29.516Z</time></trkpt><trkpt lat="44.96645326666667" lon="7.734027899999999"><ele>227.0</ele><time>2026-05-02T17:38:30.517Z</time></trkpt><trkpt lat="44.96639518333333" lon="7.7343863"><ele>226.5</ele><time>2026-05-02T17:38:31.507Z</time></trkpt><trkpt lat="44.966338016666676" lon="7.734729383333334"><ele>226.0</ele><time>2026-05-02T17:38:32.509Z</time></trkpt><trkpt lat="44.96628428333334" lon="7.735052999999999"><ele>226.66666666666666</ele><time>2026-05-02T17:38:33.519Z</time></trkpt><trkpt lat="44.96623508333334" lon="7.735352566666667"><ele>227.33333333333331</ele><time>2026-05-02T17:38:34.524Z</time></trkpt><trkpt lat="44.96618923333334" lon="7.735637633333332"><ele>228.0</ele><time>2026-05-02T17:38:35.508Z</time></trkpt><trkpt lat="44.966147166666666" lon="7.735884816666666"><ele>228.0</ele><time>2026-05-02T17:38:36.517Z</time></trkpt><trkpt lat="44.96609472421948" lon="7.736107070037035"><ele>228.0</ele><time>2026-05-02T17:38:37.518Z</time></trkpt><trkpt lat="44.96605636445775" lon="7.736318926005665"><ele>228.0</ele><time>2026-05-02T17:38:38.514Z</time></trkpt><trkpt lat="44.96602285696351" lon="7.736512379339912"><ele>228.0</ele><time>2026-05-02T17:38:39.52Z</time></trkpt><trkpt lat="44.9659937948828" lon="7.736681368880761"><ele>228.0</ele><time>2026-05-02T17:38:40.52Z</time></trkpt><trkpt lat="44.9659680400883" lon="7.736831127304235"><ele>228.0</ele><time>2026-05-02T17:38:41.521Z</time></trkpt><trkpt lat="44.96594792294315" lon="7.736949001445042"><ele>228.0</ele><time>2026-05-02T17:38:42.52Z</time></trkpt><trkpt lat="44.96592600852118" lon="7.737084628513703"><ele>228.0</ele><time>2026-05-02T17:38:43.517Z</time></trkpt><trkpt lat="44.96590174669845" lon="7.737234783135306"><ele>228.0</ele><time>2026-05-02T17:38:44.507Z</time></trkpt><trkpt lat="44.965872796452054" lon="7.737413954070671"><ele>228.0</ele><time>2026-05-02T17:38:45.506Z</time></trkpt><trkpt lat="44.965840465151885" lon="7.737617732831991"><ele>228.0</ele><time>2026-05-02T17:38:46.517Z</time></trkpt><trkpt lat="44.965802158543596" lon="7.737860315636478"><ele>228.0</ele><time>2026-05-02T17:38:47.507Z</time></trkpt><trkpt lat="44.96577441666667" lon="7.73814165"><ele>228.0</ele><time>2026-05-02T17:38:48.516Z</time></trkpt><trkpt lat="44.96572236666666" lon="7.7384455"><ele>228.0</ele><time>2026-05-02T17:38:49.506Z</time></trkpt><trkpt lat="44.96566688333334" lon="7.738773149999999"><ele>228.0</ele><time>2026-05-02T17:38:50.52Z</time></trkpt><trkpt lat="44.96560938333334" lon="7.739125683333333"><ele>228.0</ele><time>2026-05-02T17:38:51.549Z</time></trkpt><trkpt lat="44.96554995" lon="7.739498183333334"><ele>228.5</ele><time>2026-05-02T17:38:52.519Z</time></trkpt><trkpt lat="44.965487" lon="7.7398902"><ele>229.0</ele><time>2026-05-02T17:38:53.521Z</time></trkpt><trkpt lat="44.965420783333336" lon="7.7403017499999995"><ele>228.0</ele><time>2026-05-02T17:38:54.517Z</time></trkpt><trkpt lat="44.96535255" lon="7.740728383333334"><ele>227.0</ele><time>2026-05-02T17:38:55.508Z</time></trkpt><trkpt lat="44.96528156666666" lon="7.7411697833333335"><ele>227.0</ele><time>2026-05-02T17:38:56.519Z</time></trkpt><trkpt lat="44.96520838333333" lon="7.741621066666666"><ele>227.0</ele><time>2026-05-02T17:38:57.508Z</time></trkpt><trkpt lat="44.96513295" lon="7.742092216666666"><ele>227.0</ele><time>2026-05-02T17:38:58.517Z</time></trkpt><trkpt lat="44.96505633333332" lon="7.742567883333334"><ele>227.0</ele><time>2026-05-02T17:38:59.518Z</time></trkpt><trkpt lat="44.9649768" lon="7.743057633333333"><ele>227.5</ele><time>2026-05-02T17:39:00.521Z</time></trkpt><trkpt lat="44.96489566666668" lon="7.743552416666667"><ele>228.0</ele><time>2026-05-02T17:39:01.513Z</time></trkpt><trkpt lat="44.964803200000006" lon="7.744060033333333"><ele>229.5</ele><time>2026-05-02T17:39:02.522Z</time></trkpt><trkpt lat="44.9647173" lon="7.744584899999999"><ele>231.0</ele><time>2026-05-02T17:39:03.52Z</time></trkpt><trkpt lat="44.964630533333334" lon="7.745115149999999"><ele>231.0</ele><time>2026-05-02T17:39:04.523Z</time></trkpt><trkpt lat="44.964541183333324" lon="7.745655516666667"><ele>231.0</ele><time>2026-05-02T17:39:05.521Z</time></trkpt><trkpt lat="44.964448899999994" lon="7.746210916666667"><ele>230.5</ele><time>2026-05-02T17:39:06.519Z</time></trkpt><trkpt lat="44.96435486666666" lon="7.746776766666667"><ele>230.0</ele><time>2026-05-02T17:39:07.523Z</time></trkpt><trkpt lat="44.96425083333334" lon="7.747360316666668"><ele>231.5</ele><time>2026-05-02T17:39:08.517Z</time></trkpt><trkpt lat="44.964153350000004" lon="7.747946466666668"><ele>233.0</ele><time>2026-05-02T17:39:09.517Z</time></trkpt><trkpt lat="44.96405395" lon="7.7485425"><ele>231.0</ele><time>2026-05-02T17:39:10.507Z</time></trkpt><trkpt lat="44.96395201666666" lon="7.749153466666667"><ele>229.0</ele><time>2026-05-02T17:39:11.519Z</time></trkpt><trkpt lat="44.96384893333334" lon="7.749769616666667"><ele>229.0</ele><time>2026-05-02T17:39:12.509Z</time></trkpt><trkpt lat="44.96374431666667" lon="7.750396166666667"><ele>228.0</ele><time>2026-05-02T17:39:13.518Z</time></trkpt><trkpt lat="44.963630916666666" lon="7.751046683333334"><ele>228.0</ele><time>2026-05-02T17:39:14.517Z</time></trkpt><trkpt lat="44.96352405" lon="7.751688233333335"><ele>225.0</ele><time>2026-05-02T17:39:15.508Z</time></trkpt><trkpt lat="44.96341483333334" lon="7.752339499999999"><ele>228.0</ele><time>2026-05-02T17:39:16.507Z</time></trkpt><trkpt lat="44.963304766666674" lon="7.752995550000001"><ele>228.0</ele><time>2026-05-02T17:39:17.508Z</time></trkpt><trkpt lat="44.96319405" lon="7.753656383333333"><ele>228.0</ele><time>2026-05-02T17:39:18.509Z</time></trkpt><trkpt lat="44.963082733333344" lon="7.754322500000001"><ele>230.0</ele><time>2026-05-02T17:39:19.52Z</time></trkpt><trkpt lat="44.96297318333333" lon="7.754978966666666"><ele>231.0</ele><time>2026-05-02T17:39:20.517Z</time></trkpt><trkpt lat="44.96286471666667" lon="7.755630066666667"><ele>236.0</ele><time>2026-05-02T17:39:21.509Z</time></trkpt><trkpt lat="44.9627571" lon="7.756275483333333"><ele>233.0</ele><time>2026-05-02T17:39:22.522Z</time></trkpt><trkpt lat="44.96264923333334" lon="7.756920133333333"><ele>233.0</ele><time>2026-05-02T17:39:23.509Z</time></trkpt><trkpt lat="44.962540516666664" lon="7.7575694833333335"><ele>231.0</ele><time>2026-05-02T17:39:24.511Z</time></trkpt><trkpt lat="44.96242433333334" lon="7.758226199999999"><ele>229.0</ele><time>2026-05-02T17:39:25.522Z</time></trkpt><trkpt lat="44.96231554999999" lon="7.758875633333334"><ele>231.0</ele><time>2026-05-02T17:39:26.52Z</time></trkpt><trkpt lat="44.962208" lon="7.759520033333333"><ele>231.0</ele><time>2026-05-02T17:39:27.526Z</time></trkpt><trkpt lat="44.96210004999999" lon="7.760163516666667"><ele>230.0</ele><time>2026-05-02T17:39:28.508Z</time></trkpt><trkpt lat="44.96199125" lon="7.760811516666666"><ele>232.0</ele><time>2026-05-02T17:39:29.508Z</time></trkpt><trkpt lat="44.96188195" lon="7.761464633333333"><ele>235.0</ele><time>2026-05-02T17:39:30.516Z</time></trkpt><trkpt lat="44.96177323333333" lon="7.762113216666668"><ele>233.0</ele><time>2026-05-02T17:39:31.508Z</time></trkpt><trkpt lat="44.96166191666666" lon="7.762771283333333"><ele>233.0</ele><time>2026-05-02T17:39:32.508Z</time></trkpt><trkpt lat="44.96154985" lon="7.7634289333333335"><ele>232.0</ele><time>2026-05-02T17:39:33.52Z</time></trkpt><trkpt lat="44.96143838333334" lon="7.7640813"><ele>233.0</ele><time>2026-05-02T17:39:34.518Z</time></trkpt><trkpt lat="44.96132958333333" lon="7.764718900000001"><ele>234.0</ele><time>2026-05-02T17:39:35.521Z</time></trkpt><trkpt lat="44.96122371666667" lon="7.765341683333332"><ele>234.0</ele><time>2026-05-02T17:39:36.509Z</time></trkpt><trkpt lat="44.961119700000005" lon="7.765959433333334"><ele>234.0</ele><time>2026-05-02T17:39:37.522Z</time></trkpt><trkpt lat="44.96101793333334" lon="7.766562"><ele>234.0</ele><time>2026-05-02T17:39:38.509Z</time></trkpt><trkpt lat="44.960914933333335" lon="7.767158800000001"><ele>234.0</ele><time>2026-05-02T17:39:39.507Z</time></trkpt><trkpt lat="44.96081183333334" lon="7.767745016666667"><ele>234.0</ele><time>2026-05-02T17:39:40.51Z</time></trkpt><trkpt lat="44.96070781666668" lon="7.7683253"><ele>234.0</ele><time>2026-05-02T17:39:41.507Z</time></trkpt><trkpt lat="44.9606053" lon="7.768900633333334"><ele>233.0</ele><time>2026-05-02T17:39:42.51Z</time></trkpt><trkpt lat="44.96050546666667" lon="7.76947665"><ele>232.0</ele><time>2026-05-02T17:39:43.507Z</time></trkpt><trkpt lat="44.96040883333333" lon="7.770048783333334"><ele>231.5</ele><time>2026-05-02T17:39:44.508Z</time></trkpt><trkpt lat="44.96031201666666" lon="7.770620849999999"><ele>231.0</ele><time>2026-05-02T17:39:45.555Z</time></trkpt><trkpt lat="44.96021871666667" lon="7.771173133333334"><ele>232.5</ele><time>2026-05-02T17:39:46.52Z</time></trkpt><trkpt lat="44.96012601666666" lon="7.771720316666666"><ele>234.0</ele><time>2026-05-02T17:39:47.509Z</time></trkpt><trkpt lat="44.96003381666666" lon="7.772257166666666"><ele>235.5</ele><time>2026-05-02T17:39:48.518Z</time></trkpt><trkpt lat="44.95995033333333" lon="7.772759333333332"><ele>237.0</ele><time>2026-05-02T17:39:49.508Z</time></trkpt><trkpt lat="44.95986308333333" lon="7.773266266666667"><ele>238.5</ele><time>2026-05-02T17:39:50.521Z</time></trkpt><trkpt lat="44.959782366666666" lon="7.773759966666668"><ele>240.0</ele><time>2026-05-02T17:39:51.528Z</time></trkpt><trkpt lat="44.959711950000006" lon="7.774246450000001"><ele>239.5</ele><time>2026-05-02T17:39:52.526Z</time></trkpt><trkpt lat="44.95965303333334" lon="7.774720366666666"><ele>239.0</ele><time>2026-05-02T17:39:53.509Z</time></trkpt><trkpt lat="44.95960541666666" lon="7.775172566666667"><ele>239.0</ele><time>2026-05-02T17:39:54.521Z</time></trkpt><trkpt lat="44.95956686666667" lon="7.775607166666666"><ele>239.0</ele><time>2026-05-02T17:39:55.51Z</time></trkpt><trkpt lat="44.959534" lon="7.776022316666666"><ele>239.0</ele><time>2026-05-02T17:39:56.522Z</time></trkpt><trkpt lat="44.95950626666666" lon="7.77641795"><ele>239.0</ele><time>2026-05-02T17:39:57.562Z</time></trkpt><trkpt lat="44.959483466666676" lon="7.776793966666666"><ele>239.5</ele><time>2026-05-02T17:39:58.507Z</time></trkpt><trkpt lat="44.95946376666667" lon="7.777150349999999"><ele>240.0</ele><time>2026-05-02T17:39:59.521Z</time></trkpt><trkpt lat="44.95945018333334" lon="7.777479183333333"><ele>240.0</ele><time>2026-05-02T17:40:00.508Z</time></trkpt><trkpt lat="44.959439116666665" lon="7.777806249999999"><ele>240.0</ele><time>2026-05-02T17:40:01.521Z</time></trkpt><trkpt lat="44.959432666666665" lon="7.778113683333333"><ele>240.0</ele><time>2026-05-02T17:40:02.512Z</time></trkpt><trkpt lat="44.959430833333336" lon="7.778401183333333"><ele>240.33333333333331</ele><time>2026-05-02T17:40:03.512Z</time></trkpt><trkpt lat="44.95943023333332" lon="7.77867905"><ele>240.66666666666666</ele><time>2026-05-02T17:40:04.519Z</time></trkpt><trkpt lat="44.95942655" lon="7.778942233333334"><ele>241.0</ele><time>2026-05-02T17:40:05.515Z</time></trkpt><trkpt lat="44.95941431666667" lon="7.779194866666668"><ele>241.0</ele><time>2026-05-02T17:40:06.655Z</time></trkpt><trkpt lat="44.95939176666668" lon="7.779417499999999"><ele>241.0</ele><time>2026-05-02T17:40:07.508Z</time></trkpt><trkpt lat="44.95935086666667" lon="7.779648416666666"><ele>241.0</ele><time>2026-05-02T17:40:08.522Z</time></trkpt><trkpt lat="44.959293116666665" lon="7.779866766666667"><ele>241.0</ele><time>2026-05-02T17:40:09.52Z</time></trkpt><trkpt lat="44.95921785" lon="7.7800797500000005"><ele>241.0</ele><time>2026-05-02T17:40:10.508Z</time></trkpt><trkpt lat="44.959109346904604" lon="7.780261240704437"><ele>241.0</ele><time>2026-05-02T17:40:11.509Z</time></trkpt><trkpt lat="44.95900118225764" lon="7.7804556996089635"><ele>242.0</ele><time>2026-05-02T17:40:12.511Z</time></trkpt><trkpt lat="44.958888107189374" lon="7.780644859959637"><ele>243.0</ele><time>2026-05-02T17:40:13.513Z</time></trkpt><trkpt lat="44.95877677029708" lon="7.780829481766609"><ele>244.0</ele><time>2026-05-02T17:40:14.519Z</time></trkpt><trkpt lat="44.958665497918254" lon="7.78102500480308"><ele>244.0</ele><time>2026-05-02T17:40:15.509Z</time></trkpt><trkpt lat="44.958572776810364" lon="7.781233944738641"><ele>244.0</ele><time>2026-05-02T17:40:16.524Z</time></trkpt><trkpt lat="44.95850898333333" lon="7.781461749999999"><ele>244.0</ele><time>2026-05-02T17:40:17.52Z</time></trkpt><trkpt lat="44.95844578333334" lon="7.781687899999999"><ele>244.33333333333331</ele><time>2026-05-02T17:40:18.509Z</time></trkpt><trkpt lat="44.95840320000001" lon="7.781913200000001"><ele>244.66666666666669</ele><time>2026-05-02T17:40:19.521Z</time></trkpt><trkpt lat="44.9583794" lon="7.782144049999999"><ele>245.0</ele><time>2026-05-02T17:40:20.52Z</time></trkpt><trkpt lat="44.95837126666667" lon="7.782376900000001"><ele>245.0</ele><time>2026-05-02T17:40:21.509Z</time></trkpt><trkpt lat="44.958372016666665" lon="7.782610166666665"><ele>245.0</ele><time>2026-05-02T17:40:22.509Z</time></trkpt><trkpt lat="44.95837696666668" lon="7.782838316666666"><ele>245.0</ele><time>2026-05-02T17:40:23.521Z</time></trkpt><trkpt lat="44.95838593333333" lon="7.7830663"><ele>244.75</ele><time>2026-05-02T17:40:24.627Z</time></trkpt><trkpt lat="44.95839791666667" lon="7.7832708166666675"><ele>244.5</ele><time>2026-05-02T17:40:25.523Z</time></trkpt><trkpt lat="44.958408316666656" lon="7.783483633333333"><ele>244.25</ele><time>2026-05-02T17:40:26.508Z</time></trkpt><trkpt lat="44.95841066666667" lon="7.783691933333334"><ele>244.0</ele><time>2026-05-02T17:40:27.509Z</time></trkpt><trkpt lat="44.958398766666676" lon="7.783899466666666"><ele>244.0</ele><time>2026-05-02T17:40:28.508Z</time></trkpt><trkpt lat="44.9583706" lon="7.7840987833333335"><ele>244.0</ele><time>2026-05-02T17:40:29.511Z</time></trkpt><trkpt lat="44.958324833333336" lon="7.784301966666668"><ele>244.0</ele><time>2026-05-02T17:40:30.509Z</time></trkpt><trkpt lat="44.95826415" lon="7.78449735"><ele>244.0</ele><time>2026-05-02T17:40:31.51Z</time></trkpt><trkpt lat="44.95819223333333" lon="7.784685016666667"><ele>245.0</ele><time>2026-05-02T17:40:32.515Z</time></trkpt><trkpt lat="44.958113450000006" lon="7.784867233333333"><ele>246.0</ele><time>2026-05-02T17:40:33.509Z</time></trkpt><trkpt lat="44.9580297" lon="7.7850508833333345"><ele>247.0</ele><time>2026-05-02T17:40:34.508Z</time></trkpt><trkpt lat="44.95794396666667" lon="7.785232783333333"><ele>247.75</ele><time>2026-05-02T17:40:35.508Z</time></trkpt><trkpt lat="44.957859883333334" lon="7.7854103000000014"><ele>248.5</ele><time>2026-05-02T17:40:36.508Z</time></trkpt><trkpt lat="44.95777606666667" lon="7.785587999999999"><ele>249.25</ele><time>2026-05-02T17:40:37.508Z</time></trkpt><trkpt lat="44.95769686666666" lon="7.7857581499999995"><ele>250.0</ele><time>2026-05-02T17:40:38.509Z</time></trkpt><trkpt lat="44.95762235" lon="7.785923283333332"><ele>250.5</ele><time>2026-05-02T17:40:39.51Z</time></trkpt><trkpt lat="44.95754238333334" lon="7.786092683333334"><ele>251.0</ele><time>2026-05-02T17:40:40.511Z</time></trkpt><trkpt lat="44.95746593333333" lon="7.786253433333333"><ele>251.5</ele><time>2026-05-02T17:40:41.51Z</time></trkpt><trkpt lat="44.957393516666656" lon="7.786405983333333"><ele>252.0</ele><time>2026-05-02T17:40:42.51Z</time></trkpt><trkpt lat="44.95732663333334" lon="7.786545800000001"><ele>251.66666666666666</ele><time>2026-05-02T17:40:43.52Z</time></trkpt><trkpt lat="44.95726736666667" lon="7.786668850000002"><ele>251.33333333333331</ele><time>2026-05-02T17:40:44.51Z</time></trkpt><trkpt lat="44.95721565000001" lon="7.786775133333333"><ele>251.0</ele><time>2026-05-02T17:40:45.508Z</time></trkpt><trkpt lat="44.95716779999999" lon="7.786872949999999"><ele>250.66666666666666</ele><time>2026-05-02T17:40:46.509Z</time></trkpt><trkpt lat="44.95712378333332" lon="7.78696255"><ele>250.33333333333331</ele><time>2026-05-02T17:40:47.509Z</time></trkpt><trkpt lat="44.95708321666666" lon="7.787049466666668"><ele>250.0</ele><time>2026-05-02T17:40:48.51Z</time></trkpt><trkpt lat="44.9570466" lon="7.78713975"><ele>249.99999999999997</ele><time>2026-05-02T17:40:49.509Z</time></trkpt><trkpt lat="44.957012399999996" lon="7.787220466666668"><ele>250.0</ele><time>2026-05-02T17:40:50.508Z</time></trkpt><trkpt lat="44.956965966666665" lon="7.787287433333334"><ele>250.0</ele><time>2026-05-02T17:40:51.51Z</time></trkpt><trkpt lat="44.9568535393308" lon="7.787282780940404"><ele>250.0</ele><time>2026-05-02T17:40:53.52Z</time></trkpt><trkpt lat="44.95678866458487" lon="7.787297722486318"><ele>249.99999999999997</ele><time>2026-05-02T17:40:54.522Z</time></trkpt><trkpt lat="44.95672212239267" lon="7.7873617378814775"><ele>250.0</ele><time>2026-05-02T17:40:55.51Z</time></trkpt><trkpt lat="44.95668885" lon="7.787453816666666"><ele>249.8</ele><time>2026-05-02T17:40:56.51Z</time></trkpt><trkpt lat="44.95665506666666" lon="7.7875570000000005"><ele>249.6</ele><time>2026-05-02T17:40:57.51Z</time></trkpt><trkpt lat="44.95662775000001" lon="7.787674683333334"><ele>249.39999999999998</ele><time>2026-05-02T17:40:58.51Z</time></trkpt><trkpt lat="44.9565959" lon="7.787811049999999"><ele>249.2</ele><time>2026-05-02T17:40:59.509Z</time></trkpt><trkpt lat="44.956554833333335" lon="7.7879646"><ele>249.0</ele><time>2026-05-02T17:41:00.509Z</time></trkpt><trkpt lat="44.9565052" lon="7.788124699999999"><ele>249.0</ele><time>2026-05-02T17:41:01.51Z</time></trkpt><trkpt lat="44.95644661666667" lon="7.7882899000000005"><ele>249.0</ele><time>2026-05-02T17:41:02.509Z</time></trkpt><trkpt lat="44.956378300000004" lon="7.788459133333333"><ele>249.0</ele><time>2026-05-02T17:41:03.511Z</time></trkpt><trkpt lat="44.956302366666655" lon="7.788627783333333"><ele>249.0</ele><time>2026-05-02T17:41:04.509Z</time></trkpt><trkpt lat="44.956222733333334" lon="7.788793149999999"><ele>249.5</ele><time>2026-05-02T17:41:05.51Z</time></trkpt><trkpt lat="44.95613924999999" lon="7.788960883333334"><ele>250.0</ele><time>2026-05-02T17:41:06.51Z</time></trkpt><trkpt lat="44.95605728333333" lon="7.789123983333333"><ele>250.5</ele><time>2026-05-02T17:41:07.509Z</time></trkpt><trkpt lat="44.95597513333334" lon="7.789286933333333"><ele>251.0</ele><time>2026-05-02T17:41:08.52Z</time></trkpt><trkpt lat="44.95589508333334" lon="7.7894456833333345"><ele>250.75</ele><time>2026-05-02T17:41:09.512Z</time></trkpt><trkpt lat="44.95581269999999" lon="7.789608383333333"><ele>250.5</ele><time>2026-05-02T17:41:10.51Z</time></trkpt><trkpt lat="44.95572988333333" lon="7.78977065"><ele>250.25</ele><time>2026-05-02T17:41:11.509Z</time></trkpt><trkpt lat="44.95564305" lon="7.78994115"><ele>250.0</ele><time>2026-05-02T17:41:12.521Z</time></trkpt><trkpt lat="44.95556073333334" lon="7.790103916666667"><ele>249.75</ele><time>2026-05-02T17:41:13.509Z</time></trkpt><trkpt lat="44.955478416666665" lon="7.790266700000001"><ele>249.5</ele><time>2026-05-02T17:41:14.51Z</time></trkpt><trkpt lat="44.95540030000001" lon="7.790421333333334"><ele>249.25</ele><time>2026-05-02T17:41:15.509Z</time></trkpt><trkpt lat="44.95533333333333" lon="7.790568533333334"><ele>249.0</ele><time>2026-05-02T17:41:16.51Z</time></trkpt><trkpt lat="44.95525981666667" lon="7.790715466666668"><ele>249.0</ele><time>2026-05-02T17:41:17.514Z</time></trkpt><trkpt lat="44.955190333333334" lon="7.790854016666667"><ele>248.99999999999997</ele><time>2026-05-02T17:41:18.509Z</time></trkpt><trkpt lat="44.95512865" lon="7.790975966666667"><ele>248.99999999999997</ele><time>2026-05-02T17:41:19.509Z</time></trkpt><trkpt lat="44.95507491666667" lon="7.791081166666667"><ele>249.0</ele><time>2026-05-02T17:41:20.509Z</time></trkpt><trkpt lat="44.95502881666666" lon="7.791169683333334"><ele>249.0</ele><time>2026-05-02T17:41:21.509Z</time></trkpt><trkpt lat="44.954981883333325" lon="7.791244033333333"><ele>249.5</ele><time>2026-05-02T17:41:22.509Z</time></trkpt><trkpt lat="44.95492203333333" lon="7.791296583333334"><ele>250.0</ele><time>2026-05-02T17:41:23.51Z</time></trkpt><trkpt lat="44.954851033333334" lon="7.791341583333334"><ele>250.5</ele><time>2026-05-02T17:41:24.51Z</time></trkpt><trkpt lat="44.95478674999999" lon="7.791410733333334"><ele>251.0</ele><time>2026-05-02T17:41:25.509Z</time></trkpt><trkpt lat="44.954745933333335" lon="7.791514766666668"><ele>251.5</ele><time>2026-05-02T17:41:26.501Z</time></trkpt><trkpt lat="44.954726150000006" lon="7.79164125"><ele>252.0</ele><time>2026-05-02T17:41:27.511Z</time></trkpt><trkpt lat="44.954651603538565" lon="7.7917330902348425"><ele>251.75</ele><time>2026-05-02T17:41:28.5Z</time></trkpt><trkpt lat="44.95464845" lon="7.791906616666667"><ele>251.5</ele><time>2026-05-02T17:41:29.412Z</time></trkpt><trkpt lat="44.954570499999996" lon="7.792067300000001"><ele>251.25</ele><time>2026-05-02T17:41:30.509Z</time></trkpt><trkpt lat="44.95450126666666" lon="7.792218666666668"><ele>251.0</ele><time>2026-05-02T17:41:31.521Z</time></trkpt><trkpt lat="44.95441836666667" lon="7.792380699999999"><ele>251.0</ele><time>2026-05-02T17:41:32.509Z</time></trkpt><trkpt lat="44.954331450000005" lon="7.792551016666667"><ele>251.0</ele><time>2026-05-02T17:41:33.5Z</time></trkpt><trkpt lat="44.954240083333325" lon="7.792729216666666"><ele>251.0</ele><time>2026-05-02T17:41:34.511Z</time></trkpt><trkpt lat="44.954149300000005" lon="7.792908"><ele>251.66666666666669</ele><time>2026-05-02T17:41:35.538Z</time></trkpt><trkpt lat="44.95405433333333" lon="7.793095"><ele>252.33333333333331</ele><time>2026-05-02T17:41:36.509Z</time></trkpt><trkpt lat="44.95395953333333" lon="7.793282"><ele>253.0</ele><time>2026-05-02T17:41:37.856Z</time></trkpt><trkpt lat="44.95376724999999" lon="7.793659850000001"><ele>253.33333333333331</ele><time>2026-05-02T17:41:39.511Z</time></trkpt><trkpt lat="44.953670033333346" lon="7.793850883333333"><ele>253.66666666666669</ele><time>2026-05-02T17:41:40.554Z</time></trkpt><trkpt lat="44.95357296666666" lon="7.7940419"><ele>254.0</ele><time>2026-05-02T17:41:41.511Z</time></trkpt><trkpt lat="44.95347406666666" lon="7.7942371999999995"><ele>253.66666666666669</ele><time>2026-05-02T17:41:42.51Z</time></trkpt><trkpt lat="44.9532786339954" lon="7.794338596431066"><ele>253.33333333333331</ele><time>2026-05-02T17:41:43.524Z</time></trkpt><trkpt lat="44.95317533738013" lon="7.794535789735682"><ele>253.0</ele><time>2026-05-02T17:41:44.522Z</time></trkpt><trkpt lat="44.953173983333336" lon="7.794849500000001"><ele>253.0</ele><time>2026-05-02T17:41:45.521Z</time></trkpt><trkpt lat="44.95306653333334" lon="7.7950611499999996"><ele>253.0</ele><time>2026-05-02T17:41:46.511Z</time></trkpt><trkpt lat="44.952957233333336" lon="7.795276983333334"><ele>253.0</ele><time>2026-05-02T17:41:47.522Z</time></trkpt><trkpt lat="44.95284608333333" lon="7.795497166666666"><ele>253.0</ele><time>2026-05-02T17:41:48.511Z</time></trkpt><trkpt lat="44.952732600000004" lon="7.795721216666667"><ele>253.0</ele><time>2026-05-02T17:41:49.511Z</time></trkpt><trkpt lat="44.952616500000005" lon="7.795949033333333"><ele>253.0</ele><time>2026-05-02T17:41:50.509Z</time></trkpt><trkpt lat="44.95249615" lon="7.796184233333334"><ele>253.0</ele><time>2026-05-02T17:41:51.523Z</time></trkpt><trkpt lat="44.95237443333334" lon="7.796423700000001"><ele>253.0</ele><time>2026-05-02T17:41:52.521Z</time></trkpt><trkpt lat="44.952250883333335" lon="7.7966677"><ele>253.0</ele><time>2026-05-02T17:41:53.509Z</time></trkpt><trkpt lat="44.952125166666676" lon="7.796915633333334"><ele>253.0</ele><time>2026-05-02T17:41:54.525Z</time></trkpt><trkpt lat="44.95199885" lon="7.797163149999999"><ele>253.0</ele><time>2026-05-02T17:41:55.511Z</time></trkpt><trkpt lat="44.95187261666667" lon="7.797410766666667"><ele>253.0</ele><time>2026-05-02T17:41:56.522Z</time></trkpt><trkpt lat="44.95174444999999" lon="7.797662633333334"><ele>253.0</ele><time>2026-05-02T17:41:57.522Z</time></trkpt><trkpt lat="44.9516189" lon="7.797910983333332"><ele>253.0</ele><time>2026-05-02T17:41:58.512Z</time></trkpt><trkpt lat="44.951493666666664" lon="7.798159516666668"><ele>253.0</ele><time>2026-05-02T17:41:59.525Z</time></trkpt><trkpt lat="44.951368699999996" lon="7.798408283333334"><ele>253.33333333333331</ele><time>2026-05-02T17:42:00.525Z</time></trkpt><trkpt lat="44.951243716666674" lon="7.798656983333332"><ele>253.66666666666669</ele><time>2026-05-02T17:42:01.512Z</time></trkpt><trkpt lat="44.95111841666667" lon="7.798905416666665"><ele>254.0</ele><time>2026-05-02T17:42:02.51Z</time></trkpt><trkpt lat="44.95099301666667" lon="7.7991535999999995"><ele>254.0</ele><time>2026-05-02T17:42:03.51Z</time></trkpt><trkpt lat="44.9508657" lon="7.799405983333333"><ele>254.0</ele><time>2026-05-02T17:42:04.521Z</time></trkpt><trkpt lat="44.95073828333334" lon="7.799658366666667"><ele>254.0</ele><time>2026-05-02T17:42:05.526Z</time></trkpt><trkpt lat="44.95060695" lon="7.79991905"><ele>253.5</ele><time>2026-05-02T17:42:06.513Z</time></trkpt><trkpt lat="44.950475183333346" lon="7.800179549999999"><ele>253.0</ele><time>2026-05-02T17:42:07.51Z</time></trkpt><trkpt lat="44.950341316666666" lon="7.800444000000001"><ele>253.0</ele><time>2026-05-02T17:42:08.511Z</time></trkpt><trkpt lat="44.95020536666666" lon="7.800712466666666"><ele>253.0</ele><time>2026-05-02T17:42:09.524Z</time></trkpt><trkpt lat="44.950069333333346" lon="7.80098095"><ele>251.0</ele><time>2026-05-02T17:42:10.51Z</time></trkpt><trkpt lat="44.94993120000001" lon="7.801253533333333"><ele>249.0</ele><time>2026-05-02T17:42:11.514Z</time></trkpt><trkpt lat="44.94979306666667" lon="7.801526183333334"><ele>249.0</ele><time>2026-05-02T17:42:12.51Z</time></trkpt><trkpt lat="44.949652833333325" lon="7.801802883333333"><ele>249.0</ele><time>2026-05-02T17:42:13.509Z</time></trkpt><trkpt lat="44.94951276666667" lon="7.802079816666667"><ele>249.0</ele><time>2026-05-02T17:42:14.513Z</time></trkpt><trkpt lat="44.94937480000001" lon="7.802352566666667"><ele>249.0</ele><time>2026-05-02T17:42:15.51Z</time></trkpt><trkpt lat="44.94922516464446" lon="7.802607294322628"><ele>250.0</ele><time>2026-05-02T17:42:16.513Z</time></trkpt><trkpt lat="44.94908930734138" lon="7.8028756870558205"><ele>251.0</ele><time>2026-05-02T17:42:17.51Z</time></trkpt><trkpt lat="44.948970716666665" lon="7.8031491"><ele>251.0</ele><time>2026-05-02T17:42:18.511Z</time></trkpt><trkpt lat="44.94883878333333" lon="7.803408849999999"><ele>251.0</ele><time>2026-05-02T17:42:19.511Z</time></trkpt><trkpt lat="44.94870710000001" lon="7.80366885"><ele>251.0</ele><time>2026-05-02T17:42:20.511Z</time></trkpt><trkpt lat="44.9485776" lon="7.803924833333334"><ele>251.0</ele><time>2026-05-02T17:42:21.512Z</time></trkpt><trkpt lat="44.94844801666666" lon="7.80418065"><ele>251.0</ele><time>2026-05-02T17:42:22.514Z</time></trkpt><trkpt lat="44.948318349999994" lon="7.8044363"><ele>251.0</ele><time>2026-05-02T17:42:23.51Z</time></trkpt><trkpt lat="44.94819053333333" lon="7.804687766666666"><ele>251.0</ele><time>2026-05-02T17:42:24.524Z</time></trkpt><trkpt lat="44.94806059999999" lon="7.8049430666666675"><ele>251.0</ele><time>2026-05-02T17:42:25.511Z</time></trkpt><trkpt lat="44.94793294999999" lon="7.805194450000001"><ele>251.33333333333334</ele><time>2026-05-02T17:42:26.511Z</time></trkpt><trkpt lat="44.947801016666666" lon="7.805453866666666"><ele>251.66666666666669</ele><time>2026-05-02T17:42:27.511Z</time></trkpt><trkpt lat="44.947672950000005" lon="7.805704816666667"><ele>252.0</ele><time>2026-05-02T17:42:28.511Z</time></trkpt><trkpt lat="44.9475426" lon="7.805959633333333"><ele>251.0</ele><time>2026-05-02T17:42:29.51Z</time></trkpt><trkpt lat="44.94741235" lon="7.806214349999999"><ele>250.0</ele><time>2026-05-02T17:42:30.51Z</time></trkpt><trkpt lat="44.94729358333334" lon="7.806464049999999"><ele>249.0</ele><time>2026-05-02T17:42:31.511Z</time></trkpt><trkpt lat="44.94716651666666" lon="7.806715933333334"><ele>249.0</ele><time>2026-05-02T17:42:32.511Z</time></trkpt><trkpt lat="44.947039866666664" lon="7.80696805"><ele>249.0</ele><time>2026-05-02T17:42:33.51Z</time></trkpt><trkpt lat="44.94690893333333" lon="7.8072282333333325"><ele>249.0</ele><time>2026-05-02T17:42:34.511Z</time></trkpt><trkpt lat="44.94678018333334" lon="7.80748455"><ele>249.5</ele><time>2026-05-02T17:42:35.51Z</time></trkpt><trkpt lat="44.9466496" lon="7.807745233333333"><ele>250.0</ele><time>2026-05-02T17:42:36.511Z</time></trkpt><trkpt lat="44.946519" lon="7.8080059833333335"><ele>250.0</ele><time>2026-05-02T17:42:37.512Z</time></trkpt><trkpt lat="44.94638783333333" lon="7.808266083333333"><ele>250.0</ele><time>2026-05-02T17:42:38.512Z</time></trkpt><trkpt lat="44.94625639999999" lon="7.808525833333334"><ele>249.5</ele><time>2026-05-02T17:42:39.512Z</time></trkpt><trkpt lat="44.9461101906599" lon="7.808770797456006"><ele>249.0</ele><time>2026-05-02T17:42:40.511Z</time></trkpt><trkpt lat="44.94597924676906" lon="7.809031071615049"><ele>248.66666666666669</ele><time>2026-05-02T17:42:41.51Z</time></trkpt><trkpt lat="44.94584828871862" lon="7.809291212176155"><ele>248.33333333333334</ele><time>2026-05-02T17:42:42.51Z</time></trkpt><trkpt lat="44.945734300000005" lon="7.80955605"><ele>248.0</ele><time>2026-05-02T17:42:43.51Z</time></trkpt><trkpt lat="44.945606466666675" lon="7.809807000000001"><ele>248.0</ele><time>2026-05-02T17:42:44.51Z</time></trkpt><trkpt lat="44.94548065" lon="7.810053850000001"><ele>248.0</ele><time>2026-05-02T17:42:45.511Z</time></trkpt><trkpt lat="44.945359116666665" lon="7.810292566666667"><ele>248.0</ele><time>2026-05-02T17:42:46.51Z</time></trkpt><trkpt lat="44.94523791666667" lon="7.810531533333333"><ele>248.33333333333334</ele><time>2026-05-02T17:42:47.515Z</time></trkpt><trkpt lat="44.94511898333334" lon="7.8107664"><ele>248.66666666666669</ele><time>2026-05-02T17:42:48.512Z</time></trkpt><trkpt lat="44.94500238333333" lon="7.810997566666667"><ele>249.0</ele><time>2026-05-02T17:42:49.51Z</time></trkpt><trkpt lat="44.94488821666667" lon="7.811224966666667"><ele>249.0</ele><time>2026-05-02T17:42:50.515Z</time></trkpt><trkpt lat="44.94477213333333" lon="7.811456566666667"><ele>249.0</ele><time>2026-05-02T17:42:51.514Z</time></trkpt><trkpt lat="44.94465613333334" lon="7.811688333333333"><ele>249.0</ele><time>2026-05-02T17:42:52.513Z</time></trkpt><trkpt lat="44.94452555910254" lon="7.8119054852889676"><ele>248.66666666666669</ele><time>2026-05-02T17:42:53.511Z</time></trkpt><trkpt lat="44.944415486321894" lon="7.812121858521316"><ele>248.33333333333334</ele><time>2026-05-02T17:42:54.51Z</time></trkpt><trkpt lat="44.9443002885218" lon="7.812348306098025"><ele>248.0</ele><time>2026-05-02T17:42:55.51Z</time></trkpt><trkpt lat="44.944185122104756" lon="7.81257461025437"><ele>248.33333333333334</ele><time>2026-05-02T17:42:56.513Z</time></trkpt><trkpt lat="44.94407200520056" lon="7.812796842884514"><ele>248.66666666666669</ele><time>2026-05-02T17:42:57.511Z</time></trkpt><trkpt lat="44.943963011832054" lon="7.813010978739702"><ele>249.0</ele><time>2026-05-02T17:42:58.51Z</time></trkpt><trkpt lat="44.9438515908276" lon="7.813228716609414"><ele>249.0</ele><time>2026-05-02T17:42:59.511Z</time></trkpt><trkpt lat="44.943744768571236" lon="7.813438800420516"><ele>249.0</ele><time>2026-05-02T17:43:00.514Z</time></trkpt><trkpt lat="44.94364044612754" lon="7.813645336579641"><ele>249.0</ele><time>2026-05-02T17:43:01.51Z</time></trkpt><trkpt lat="44.94353827241404" lon="7.813847679214516"><ele>248.66666666666669</ele><time>2026-05-02T17:43:02.513Z</time></trkpt><trkpt lat="44.94343609899117" lon="7.814050022264212"><ele>248.33333333333334</ele><time>2026-05-02T17:43:03.511Z</time></trkpt><trkpt lat="44.943335977782986" lon="7.814248301009127"><ele>248.0</ele><time>2026-05-02T17:43:04.511Z</time></trkpt><trkpt lat="44.94323790902501" lon="7.814442515169155"><ele>247.66666666666669</ele><time>2026-05-02T17:43:05.511Z</time></trkpt><trkpt lat="44.943139845928876" lon="7.81463671812499"><ele>247.33333333333331</ele><time>2026-05-02T17:43:06.514Z</time></trkpt><trkpt lat="44.94304183281859" lon="7.814830823169827"><ele>247.0</ele><time>2026-05-02T17:43:07.5Z</time></trkpt><trkpt lat="44.94294787419056" lon="7.815016897672958"><ele>246.66666666666666</ele><time>2026-05-02T17:43:08.614Z</time></trkpt><trkpt lat="44.94285788732538" lon="7.815194531699669"><ele>246.33333333333331</ele><time>2026-05-02T17:43:09.502Z</time></trkpt><trkpt lat="44.942765761019395" lon="7.815376237368902"><ele>246.0</ele><time>2026-05-02T17:43:10.504Z</time></trkpt><trkpt lat="44.94267159946199" lon="7.815561957253612"><ele>246.0</ele><time>2026-05-02T17:43:11.512Z</time></trkpt><trkpt lat="44.94257538505746" lon="7.8157517261942395"><ele>246.0</ele><time>2026-05-02T17:43:12.51Z</time></trkpt><trkpt lat="44.94247502676323" lon="7.8159496682053415"><ele>246.0</ele><time>2026-05-02T17:43:13.512Z</time></trkpt><trkpt lat="44.94237260070804" lon="7.816151688701034"><ele>246.33333333333331</ele><time>2026-05-02T17:43:14.513Z</time></trkpt><trkpt lat="44.94227156561931" lon="7.816351684888949"><ele>246.66666666666666</ele><time>2026-05-02T17:43:15.515Z</time></trkpt><trkpt lat="44.94216332024858" lon="7.8165663228726885"><ele>247.0</ele><time>2026-05-02T17:43:16.527Z</time></trkpt><trkpt lat="44.94196234999999" lon="7.817036066666666"><ele>247.0</ele><time>2026-05-02T17:43:18.512Z</time></trkpt><trkpt lat="44.94185003333334" lon="7.817259099999999"><ele>247.0</ele><time>2026-05-02T17:43:19.51Z</time></trkpt><trkpt lat="44.941738050000005" lon="7.81748265"><ele>247.0</ele><time>2026-05-02T17:43:20.512Z</time></trkpt><trkpt lat="44.94162825" lon="7.81770225"><ele>246.0</ele><time>2026-05-02T17:43:21.513Z</time></trkpt><trkpt lat="44.941520633333326" lon="7.81791775"><ele>245.0</ele><time>2026-05-02T17:43:22.514Z</time></trkpt><trkpt lat="44.94141485" lon="7.818129066666667"><ele>244.0</ele><time>2026-05-02T17:43:23.511Z</time></trkpt><trkpt lat="44.94128033295529" lon="7.818311389805789"><ele>244.33333333333331</ele><time>2026-05-02T17:43:24.513Z</time></trkpt><trkpt lat="44.94117576893482" lon="7.818517535559697"><ele>244.66666666666669</ele><time>2026-05-02T17:43:25.512Z</time></trkpt><trkpt lat="44.94107114843583" lon="7.818723792600452"><ele>245.0</ele><time>2026-05-02T17:43:26.513Z</time></trkpt><trkpt lat="44.94096655498241" lon="7.818929996345579"><ele>245.0</ele><time>2026-05-02T17:43:27.511Z</time></trkpt><trkpt lat="44.940861953682365" lon="7.81913621416495"><ele>245.0</ele><time>2026-05-02T17:43:28.511Z</time></trkpt><trkpt lat="44.94075718105842" lon="7.819342549484823"><ele>245.0</ele><time>2026-05-02T17:43:29.514Z</time></trkpt><trkpt lat="44.940655392216094" lon="7.819545374097323"><ele>245.0</ele><time>2026-05-02T17:43:30.511Z</time></trkpt><trkpt lat="44.94055563061476" lon="7.819744159231453"><ele>245.0</ele><time>2026-05-02T17:43:31.539Z</time></trkpt><trkpt lat="44.940457907672794" lon="7.8199388820847595"><ele>245.0</ele><time>2026-05-02T17:43:32.511Z</time></trkpt><trkpt lat="44.940391500000004" lon="7.820152366666668"><ele>245.33333333333334</ele><time>2026-05-02T17:43:33.521Z</time></trkpt><trkpt lat="44.940297616666676" lon="7.820338616666667"><ele>245.66666666666669</ele><time>2026-05-02T17:43:34.513Z</time></trkpt><trkpt lat="44.94020441666667" lon="7.820525366666668"><ele>246.0</ele><time>2026-05-02T17:43:35.512Z</time></trkpt><trkpt lat="44.94011321666667" lon="7.820708"><ele>245.66666666666669</ele><time>2026-05-02T17:43:36.511Z</time></trkpt><trkpt lat="44.94002186666666" lon="7.820890566666666"><ele>245.33333333333334</ele><time>2026-05-02T17:43:37.512Z</time></trkpt><trkpt lat="44.93989692373615" lon="7.821045349108647"><ele>245.0</ele><time>2026-05-02T17:43:38.511Z</time></trkpt><trkpt lat="44.93980651918063" lon="7.8212227370752725"><ele>245.0</ele><time>2026-05-02T17:43:39.514Z</time></trkpt><trkpt lat="44.939718206569246" lon="7.821396020531423"><ele>245.0</ele><time>2026-05-02T17:43:40.511Z</time></trkpt><trkpt lat="44.9396339708714" lon="7.821561309502129"><ele>245.0</ele><time>2026-05-02T17:43:41.512Z</time></trkpt><trkpt lat="44.939553403181336" lon="7.821719404261478"><ele>245.0</ele><time>2026-05-02T17:43:42.512Z</time></trkpt><trkpt lat="44.93947391796779" lon="7.8218771801686175"><ele>245.25</ele><time>2026-05-02T17:43:43.514Z</time></trkpt><trkpt lat="44.93939413412146" lon="7.822034427202157"><ele>245.5</ele><time>2026-05-02T17:43:44.513Z</time></trkpt><trkpt lat="44.93931428815059" lon="7.822191796647398"><ele>245.75</ele><time>2026-05-02T17:43:45.512Z</time></trkpt><trkpt lat="44.9392348577961" lon="7.822349768274468"><ele>246.0</ele><time>2026-05-02T17:43:46.515Z</time></trkpt><trkpt lat="44.939155452388235" lon="7.822507199341603"><ele>246.0</ele><time>2026-05-02T17:43:47.513Z</time></trkpt><trkpt lat="44.939073883882315" lon="7.8226688975107015"><ele>246.0</ele><time>2026-05-02T17:43:48.515Z</time></trkpt><trkpt lat="44.93899095595595" lon="7.822835574952222"><ele>246.0</ele><time>2026-05-02T17:43:49.513Z</time></trkpt><trkpt lat="44.93890382208057" lon="7.823009851624605"><ele>246.0</ele><time>2026-05-02T17:43:50.503Z</time></trkpt><trkpt lat="44.93881378088602" lon="7.82318726341147"><ele>246.0</ele><time>2026-05-02T17:43:51.512Z</time></trkpt><trkpt lat="44.93872189215369" lon="7.823369209011093"><ele>246.0</ele><time>2026-05-02T17:43:52.511Z</time></trkpt><trkpt lat="44.93862830661308" lon="7.823555770691709"><ele>246.0</ele><time>2026-05-02T17:43:53.502Z</time></trkpt><trkpt lat="44.93853292277747" lon="7.8237465383185105"><ele>246.33333333333331</ele><time>2026-05-02T17:43:54.514Z</time></trkpt><trkpt lat="44.93843715248807" lon="7.823936662454867"><ele>246.66666666666666</ele><time>2026-05-02T17:43:55.502Z</time></trkpt><trkpt lat="44.93833703960564" lon="7.824134965638775"><ele>247.0</ele><time>2026-05-02T17:43:56.512Z</time></trkpt><trkpt lat="44.938234857675376" lon="7.8243373667412275"><ele>246.33333333333331</ele><time>2026-05-02T17:43:57.511Z</time></trkpt><trkpt lat="44.93813058987352" lon="7.824543901389499"><ele>245.66666666666669</ele><time>2026-05-02T17:43:58.512Z</time></trkpt><trkpt lat="44.93802224621288" lon="7.824758508148469"><ele>245.0</ele><time>2026-05-02T17:43:59.515Z</time></trkpt><trkpt lat="44.93791378505455" lon="7.824973347447986"><ele>245.0</ele><time>2026-05-02T17:44:00.53Z</time></trkpt><trkpt lat="44.937803164205086" lon="7.825191888678274"><ele>245.0</ele><time>2026-05-02T17:44:01.514Z</time></trkpt><trkpt lat="44.93769223774778" lon="7.825410374960135"><ele>245.0</ele><time>2026-05-02T17:44:02.512Z</time></trkpt><trkpt lat="44.937583369663614" lon="7.825624806974171"><ele>244.0</ele><time>2026-05-02T17:44:03.515Z</time></trkpt><trkpt lat="44.93747453317346" lon="7.825839176689781"><ele>243.0</ele><time>2026-05-02T17:44:04.512Z</time></trkpt><trkpt lat="44.93736515522278" lon="7.826052292753126"><ele>242.0</ele><time>2026-05-02T17:44:05.514Z</time></trkpt><trkpt lat="44.93725121637677" lon="7.826266791042435"><ele>241.33333333333334</ele><time>2026-05-02T17:44:06.512Z</time></trkpt><trkpt lat="44.9371333301536" lon="7.8264756054074205"><ele>240.66666666666669</ele><time>2026-05-02T17:44:07.517Z</time></trkpt><trkpt lat="44.9370085117247" lon="7.826684223125076"><ele>240.0</ele><time>2026-05-02T17:44:08.513Z</time></trkpt><trkpt lat="44.93687761404096" lon="7.8268922630915165"><ele>239.66666666666669</ele><time>2026-05-02T17:44:09.512Z</time></trkpt><trkpt lat="44.93674923333333" lon="7.827104066666667"><ele>239.33333333333334</ele><time>2026-05-02T17:44:10.513Z</time></trkpt><trkpt lat="44.936603633333334" lon="7.827293083333332"><ele>239.0</ele><time>2026-05-02T17:44:11.511Z</time></trkpt><trkpt lat="44.93645493333333" lon="7.827477066666667"><ele>239.0</ele><time>2026-05-02T17:44:12.513Z</time></trkpt><trkpt lat="44.93630490000001" lon="7.827658950000001"><ele>239.0</ele><time>2026-05-02T17:44:13.512Z</time></trkpt><trkpt lat="44.93615611666667" lon="7.827835216666667"><ele>239.0</ele><time>2026-05-02T17:44:14.513Z</time></trkpt><trkpt lat="44.93600633333334" lon="7.8280097333333325"><ele>238.66666666666669</ele><time>2026-05-02T17:44:15.512Z</time></trkpt><trkpt lat="44.93585328333334" lon="7.828186516666666"><ele>238.33333333333331</ele><time>2026-05-02T17:44:16.512Z</time></trkpt><trkpt lat="44.935699400000004" lon="7.828361683333332"><ele>238.0</ele><time>2026-05-02T17:44:17.513Z</time></trkpt><trkpt lat="44.93554425000001" lon="7.82853495"><ele>238.0</ele><time>2026-05-02T17:44:18.513Z</time></trkpt><trkpt lat="44.93538783333334" lon="7.828705933333333"><ele>238.0</ele><time>2026-05-02T17:44:19.514Z</time></trkpt><trkpt lat="44.93522758333334" lon="7.828878016666667"><ele>238.0</ele><time>2026-05-02T17:44:20.511Z</time></trkpt><trkpt lat="44.93506916666667" lon="7.829045399999999"><ele>237.66666666666666</ele><time>2026-05-02T17:44:21.515Z</time></trkpt><trkpt lat="44.93491048333334" lon="7.829212033333333"><ele>237.33333333333331</ele><time>2026-05-02T17:44:22.513Z</time></trkpt><trkpt lat="44.93475374999999" lon="7.829374216666667"><ele>237.0</ele><time>2026-05-02T17:44:23.514Z</time></trkpt><trkpt lat="44.93459525" lon="7.829532816666666"><ele>237.0</ele><time>2026-05-02T17:44:24.515Z</time></trkpt><trkpt lat="44.93443766666666" lon="7.829684516666666"><ele>237.0</ele><time>2026-05-02T17:44:25.513Z</time></trkpt><trkpt lat="44.9342811" lon="7.829829283333333"><ele>237.0</ele><time>2026-05-02T17:44:26.511Z</time></trkpt><trkpt lat="44.9341257" lon="7.829967166666667"><ele>237.0</ele><time>2026-05-02T17:44:27.515Z</time></trkpt><trkpt lat="44.93397221666667" lon="7.830100100000001"><ele>237.0</ele><time>2026-05-02T17:44:28.513Z</time></trkpt><trkpt lat="44.933815149999994" lon="7.830233866666666"><ele>237.0</ele><time>2026-05-02T17:44:29.561Z</time></trkpt><trkpt lat="44.93366075000001" lon="7.8303644666666665"><ele>237.0</ele><time>2026-05-02T17:44:30.512Z</time></trkpt><trkpt lat="44.93350350000001" lon="7.83049815"><ele>237.0</ele><time>2026-05-02T17:44:31.514Z</time></trkpt><trkpt lat="44.933346349999994" lon="7.830632016666668"><ele>237.0</ele><time>2026-05-02T17:44:32.511Z</time></trkpt><trkpt lat="44.93318909999999" lon="7.8307656166666675"><ele>237.0</ele><time>2026-05-02T17:44:33.513Z</time></trkpt><trkpt lat="44.93303184999999" lon="7.830899400000001"><ele>237.0</ele><time>2026-05-02T17:44:34.511Z</time></trkpt><trkpt lat="44.93287125" lon="7.831034849999999"><ele>237.0</ele><time>2026-05-02T17:44:35.513Z</time></trkpt><trkpt lat="44.93271083333334" lon="7.831170716666666"><ele>237.33333333333331</ele><time>2026-05-02T17:44:36.512Z</time></trkpt><trkpt lat="44.932547383333336" lon="7.8313092666666675"><ele>237.66666666666666</ele><time>2026-05-02T17:44:37.514Z</time></trkpt><trkpt lat="44.932384016666674" lon="7.831448166666667"><ele>238.0</ele><time>2026-05-02T17:44:38.523Z</time></trkpt><trkpt lat="44.93222065" lon="7.831587216666666"><ele>238.0</ele><time>2026-05-02T17:44:39.547Z</time></trkpt><trkpt lat="44.93205736666667" lon="7.831726266666668"><ele>238.0</ele><time>2026-05-02T17:44:40.512Z</time></trkpt><trkpt lat="44.931897116666676" lon="7.831862900000001"><ele>238.0</ele><time>2026-05-02T17:44:41.513Z</time></trkpt><trkpt lat="44.93173685" lon="7.831999516666667"><ele>237.66666666666666</ele><time>2026-05-02T17:44:42.513Z</time></trkpt><trkpt lat="44.93158270000001" lon="7.8321307833333345"><ele>237.33333333333331</ele><time>2026-05-02T17:44:43.513Z</time></trkpt><trkpt lat="44.93143435" lon="7.832256266666667"><ele>237.0</ele><time>2026-05-02T17:44:44.515Z</time></trkpt><trkpt lat="44.93128916666666" lon="7.8323793833333335"><ele>237.0</ele><time>2026-05-02T17:44:45.513Z</time></trkpt><trkpt lat="44.9311502" lon="7.832497566666666"><ele>237.0</ele><time>2026-05-02T17:44:46.516Z</time></trkpt><trkpt lat="44.9310114" lon="7.83261585"><ele>237.0</ele><time>2026-05-02T17:44:47.513Z</time></trkpt><trkpt lat="44.930875349999994" lon="7.832731100000001"><ele>237.33333333333331</ele><time>2026-05-02T17:44:48.512Z</time></trkpt><trkpt lat="44.93074853333332" lon="7.832852549999998"><ele>237.66666666666666</ele><time>2026-05-02T17:44:49.543Z</time></trkpt><trkpt lat="44.93061551666666" lon="7.832965116666665"><ele>238.0</ele><time>2026-05-02T17:44:50.524Z</time></trkpt><trkpt lat="44.93048258333334" lon="7.833077683333332"><ele>238.0</ele><time>2026-05-02T17:44:51.514Z</time></trkpt><trkpt lat="44.93035249999999" lon="7.833187483333334"><ele>238.0</ele><time>2026-05-02T17:44:52.512Z</time></trkpt><trkpt lat="44.93021973333333" lon="7.833300483333333"><ele>238.0</ele><time>2026-05-02T17:44:53.513Z</time></trkpt><trkpt lat="44.930090400000005" lon="7.833411866666667"><ele>238.0</ele><time>2026-05-02T17:44:54.503Z</time></trkpt><trkpt lat="44.92996114999999" lon="7.83352335"><ele>238.0</ele><time>2026-05-02T17:44:55.511Z</time></trkpt><trkpt lat="44.92982846666668" lon="7.8336365"><ele>238.0</ele><time>2026-05-02T17:44:56.502Z</time></trkpt><trkpt lat="44.92969845" lon="7.833746399999999"><ele>238.0</ele><time>2026-05-02T17:44:57.514Z</time></trkpt><trkpt lat="44.92956836666667" lon="7.833855866666666"><ele>238.0</ele><time>2026-05-02T17:44:58.52Z</time></trkpt><trkpt lat="44.92944105" lon="7.833962483333333"><ele>238.0</ele><time>2026-05-02T17:44:59.512Z</time></trkpt><trkpt lat="44.92931406666667" lon="7.8340696833333325"><ele>238.0</ele><time>2026-05-02T17:45:00.543Z</time></trkpt><trkpt lat="44.92918741666667" lon="7.834177566666667"><ele>238.25</ele><time>2026-05-02T17:45:01.516Z</time></trkpt><trkpt lat="44.92906101666667" lon="7.834286266666667"><ele>238.5</ele><time>2026-05-02T17:45:02.514Z</time></trkpt><trkpt lat="44.928937633333334" lon="7.834392216666666"><ele>238.75</ele><time>2026-05-02T17:45:03.514Z</time></trkpt><trkpt lat="44.92881693333334" lon="7.834494649999999"><ele>239.0</ele><time>2026-05-02T17:45:04.524Z</time></trkpt><trkpt lat="44.92869798333333" lon="7.8345915333333345"><ele>239.0</ele><time>2026-05-02T17:45:05.513Z</time></trkpt><trkpt lat="44.928584083333334" lon="7.834680799999999"><ele>239.0</ele><time>2026-05-02T17:45:06.513Z</time></trkpt><trkpt lat="44.92847603333333" lon="7.834764466666667"><ele>239.0</ele><time>2026-05-02T17:45:07.514Z</time></trkpt><trkpt lat="44.928371600000006" lon="7.834846850000001"><ele>239.0</ele><time>2026-05-02T17:45:08.577Z</time></trkpt><trkpt lat="44.928284100000006" lon="7.834920783333333"><ele>239.00000000000003</ele><time>2026-05-02T17:45:09.515Z</time></trkpt><trkpt lat="44.928220983333325" lon="7.834998816666666"><ele>239.0</ele><time>2026-05-02T17:45:10.514Z</time></trkpt><trkpt lat="44.92816331666666" lon="7.835078533333332"><ele>239.0</ele><time>2026-05-02T17:45:11.514Z</time></trkpt><trkpt lat="44.92811846666667" lon="7.835161266666668"><ele>239.0</ele><time>2026-05-02T17:45:12.513Z</time></trkpt><trkpt lat="44.928074050000006" lon="7.835237950000001"><ele>239.00000000000003</ele><time>2026-05-02T17:45:13.513Z</time></trkpt><trkpt lat="44.92801386666667" lon="7.8353139"><ele>239.0</ele><time>2026-05-02T17:45:14.504Z</time></trkpt><trkpt lat="44.92794730000001" lon="7.835378599999999"><ele>239.0</ele><time>2026-05-02T17:45:15.516Z</time></trkpt><trkpt lat="44.92786641666667" lon="7.835438699999999"><ele>238.99999999999997</ele><time>2026-05-02T17:45:16.517Z</time></trkpt><trkpt lat="44.92778025" lon="7.83548195"><ele>238.99999999999997</ele><time>2026-05-02T17:45:17.504Z</time></trkpt><trkpt lat="44.92768571666667" lon="7.835520850000001"><ele>239.0</ele><time>2026-05-02T17:45:18.512Z</time></trkpt><trkpt lat="44.927590066666674" lon="7.835570966666667"><ele>239.0</ele><time>2026-05-02T17:45:19.513Z</time></trkpt><trkpt lat="44.92749988333333" lon="7.835638266666666"><ele>239.0</ele><time>2026-05-02T17:45:20.513Z</time></trkpt><trkpt lat="44.927409100000006" lon="7.8357143"><ele>238.99999999999997</ele><time>2026-05-02T17:45:21.513Z</time></trkpt><trkpt lat="44.92731548333333" lon="7.83579325"><ele>238.99999999999997</ele><time>2026-05-02T17:45:22.512Z</time></trkpt><trkpt lat="44.927224700000004" lon="7.835869449999999"><ele>239.0</ele><time>2026-05-02T17:45:23.514Z</time></trkpt><trkpt lat="44.927134099999996" lon="7.8359460499999996"><ele>239.0</ele><time>2026-05-02T17:45:24.515Z</time></trkpt><trkpt lat="44.92704675" lon="7.836020566666667"><ele>239.2</ele><time>2026-05-02T17:45:25.521Z</time></trkpt><trkpt lat="44.92696243333333" lon="7.836092566666667"><ele>239.39999999999998</ele><time>2026-05-02T17:45:26.517Z</time></trkpt><trkpt lat="44.926878116666664" lon="7.836164483333332"><ele>239.6</ele><time>2026-05-02T17:45:27.513Z</time></trkpt><trkpt lat="44.926793783333345" lon="7.8362364"><ele>239.8</ele><time>2026-05-02T17:45:28.514Z</time></trkpt><trkpt lat="44.92670351666668" lon="7.836313766666666"><ele>240.0</ele><time>2026-05-02T17:45:29.513Z</time></trkpt><trkpt lat="44.92661634999999" lon="7.8363886166666665"><ele>240.0</ele><time>2026-05-02T17:45:30.514Z</time></trkpt><trkpt lat="44.92652305" lon="7.8364685000000005"><ele>240.0</ele><time>2026-05-02T17:45:31.514Z</time></trkpt><trkpt lat="44.92643270000001" lon="7.836545783333334"><ele>240.0</ele><time>2026-05-02T17:45:32.514Z</time></trkpt><trkpt lat="44.92633958333333" lon="7.836626"><ele>240.0</ele><time>2026-05-02T17:45:33.515Z</time></trkpt><trkpt lat="44.92624946666666" lon="7.836703783333333"><ele>240.0</ele><time>2026-05-02T17:45:34.526Z</time></trkpt><trkpt lat="44.92615635000001" lon="7.836784166666666"><ele>239.6</ele><time>2026-05-02T17:45:35.514Z</time></trkpt><trkpt lat="44.926063133333344" lon="7.836864216666667"><ele>239.2</ele><time>2026-05-02T17:45:36.514Z</time></trkpt><trkpt lat="44.92596951666666" lon="7.836943416666666"><ele>238.8</ele><time>2026-05-02T17:45:37.521Z</time></trkpt><trkpt lat="44.925878733333334" lon="7.837019783333333"><ele>238.4</ele><time>2026-05-02T17:45:38.513Z</time></trkpt><trkpt lat="44.92578805" lon="7.837096216666667"><ele>238.0</ele><time>2026-05-02T17:45:39.515Z</time></trkpt><trkpt lat="44.925694416666666" lon="7.837175433333334"><ele>238.0</ele><time>2026-05-02T17:45:40.513Z</time></trkpt><trkpt lat="44.9256008" lon="7.837254716666666"><ele>238.0</ele><time>2026-05-02T17:45:41.514Z</time></trkpt><trkpt lat="44.92550423333334" lon="7.837336616666666"><ele>238.0</ele><time>2026-05-02T17:45:42.515Z</time></trkpt><trkpt lat="44.92540758333333" lon="7.837418583333335"><ele>238.0</ele><time>2026-05-02T17:45:43.514Z</time></trkpt><trkpt lat="44.92531103333334" lon="7.837500483333335"><ele>238.0</ele><time>2026-05-02T17:45:44.513Z</time></trkpt><trkpt lat="44.92521438333333" lon="7.837582366666668"><ele>238.0</ele><time>2026-05-02T17:45:45.513Z</time></trkpt><trkpt lat="44.925123783333326" lon="7.837659233333333"><ele>238.0</ele><time>2026-05-02T17:45:46.513Z</time></trkpt><trkpt lat="44.92503333333334" lon="7.837736266666667"><ele>238.0</ele><time>2026-05-02T17:45:47.515Z</time></trkpt><trkpt lat="44.92495488333334" lon="7.837813033333333"><ele>238.0</ele><time>2026-05-02T17:45:48.514Z</time></trkpt><trkpt lat="44.92487023333333" lon="7.837884366666666"><ele>238.0</ele><time>2026-05-02T17:45:49.515Z</time></trkpt><trkpt lat="44.924792200000006" lon="7.837941616666666"><ele>237.99999999999997</ele><time>2026-05-02T17:45:50.515Z</time></trkpt><trkpt lat="44.92472169999999" lon="7.837972550000001"><ele>238.0</ele><time>2026-05-02T17:45:51.515Z</time></trkpt><trkpt lat="44.92465515" lon="7.837971033333334"><ele>238.0</ele><time>2026-05-02T17:45:52.528Z</time></trkpt><trkpt lat="44.92459051666666" lon="7.8379468999999995"><ele>238.0</ele><time>2026-05-02T17:45:53.515Z</time></trkpt><trkpt lat="44.92452128984808" lon="7.83788825452527"><ele>237.99999999999997</ele><time>2026-05-02T17:45:54.518Z</time></trkpt><trkpt lat="44.92443626261542" lon="7.83788239892001"><ele>238.0</ele><time>2026-05-02T17:45:55.515Z</time></trkpt><trkpt lat="44.92434768073015" lon="7.8379328715233365"><ele>238.0</ele><time>2026-05-02T17:45:56.521Z</time></trkpt><trkpt lat="44.92427561666667" lon="7.838017133333333"><ele>238.0</ele><time>2026-05-02T17:45:57.513Z</time></trkpt><trkpt lat="44.92418241666666" lon="7.8380756499999995"><ele>238.0</ele><time>2026-05-02T17:45:58.52Z</time></trkpt><trkpt lat="44.92407948333333" lon="7.838109083333334"><ele>238.0</ele><time>2026-05-02T17:45:59.513Z</time></trkpt><trkpt lat="44.92397043333334" lon="7.8381168"><ele>238.0</ele><time>2026-05-02T17:46:00.514Z</time></trkpt><trkpt lat="44.92385433333334" lon="7.838105483333333"><ele>238.0</ele><time>2026-05-02T17:46:01.513Z</time></trkpt><trkpt lat="44.92373163333333" lon="7.838086550000001"><ele>238.0</ele><time>2026-05-02T17:46:02.513Z</time></trkpt><trkpt lat="44.9236054" lon="7.838066516666666"><ele>238.0</ele><time>2026-05-02T17:46:03.508Z</time></trkpt><trkpt lat="44.92347565000001" lon="7.8380464"><ele>238.0</ele><time>2026-05-02T17:46:04.506Z</time></trkpt><trkpt lat="44.92334228333334" lon="7.838025599999999"><ele>239.0</ele><time>2026-05-02T17:46:05.503Z</time></trkpt><trkpt lat="44.9232019" lon="7.838003316666668"><ele>240.0</ele><time>2026-05-02T17:46:06.515Z</time></trkpt><trkpt lat="44.923065099999995" lon="7.837980683333334"><ele>241.0</ele><time>2026-05-02T17:46:07.519Z</time></trkpt><trkpt lat="44.92292486666667" lon="7.837956283333333"><ele>242.0</ele><time>2026-05-02T17:46:08.514Z</time></trkpt><trkpt lat="44.922788249999996" lon="7.837931233333334"><ele>242.0</ele><time>2026-05-02T17:46:09.514Z</time></trkpt><trkpt lat="44.92265531666666" lon="7.83790525"><ele>242.0</ele><time>2026-05-02T17:46:10.516Z</time></trkpt><trkpt lat="44.92252606666666" lon="7.8378776666666665"><ele>242.0</ele><time>2026-05-02T17:46:11.514Z</time></trkpt><trkpt lat="44.92239656666667" lon="7.837853616666667"><ele>242.0</ele><time>2026-05-02T17:46:12.516Z</time></trkpt><trkpt lat="44.922270250000004" lon="7.837832483333334"><ele>242.0</ele><time>2026-05-02T17:46:13.514Z</time></trkpt><trkpt lat="44.92213989682652" lon="7.8377826559664365"><ele>242.0</ele><time>2026-05-02T17:46:14.513Z</time></trkpt><trkpt lat="44.921996066666665" lon="7.837795016666667"><ele>242.0</ele><time>2026-05-02T17:46:15.514Z</time></trkpt><trkpt lat="44.921855" lon="7.837782283333333"><ele>242.0</ele><time>2026-05-02T17:46:16.514Z</time></trkpt><trkpt lat="44.921706650000004" lon="7.837778683333332"><ele>242.0</ele><time>2026-05-02T17:46:17.516Z</time></trkpt><trkpt lat="44.92155861666667" lon="7.8377938500000015"><ele>242.0</ele><time>2026-05-02T17:46:18.513Z</time></trkpt><trkpt lat="44.921400806048354" lon="7.837778030730667"><ele>242.0</ele><time>2026-05-02T17:46:19.521Z</time></trkpt><trkpt lat="44.92124530218782" lon="7.837810958133582"><ele>242.0</ele><time>2026-05-02T17:46:20.523Z</time></trkpt><trkpt lat="44.92108695170899" lon="7.837862714035821"><ele>242.0</ele><time>2026-05-02T17:46:21.513Z</time></trkpt><trkpt lat="44.92092803151753" lon="7.837935462404854"><ele>242.0</ele><time>2026-05-02T17:46:22.514Z</time></trkpt><trkpt lat="44.92077181961488" lon="7.838021372131409"><ele>242.0</ele><time>2026-05-02T17:46:23.515Z</time></trkpt><trkpt lat="44.92061175935838" lon="7.838115481829673"><ele>242.0</ele><time>2026-05-02T17:46:24.519Z</time></trkpt><trkpt lat="44.92045224545458" lon="7.838213337868795"><ele>242.0</ele><time>2026-05-02T17:46:25.514Z</time></trkpt><trkpt lat="44.92028322594779" lon="7.838316527398122"><ele>242.0</ele><time>2026-05-02T17:46:26.516Z</time></trkpt><trkpt lat="44.92011422006881" lon="7.838419708640005"><ele>242.0</ele><time>2026-05-02T17:46:27.519Z</time></trkpt><trkpt lat="44.91993932491631" lon="7.838526485357874"><ele>242.0</ele><time>2026-05-02T17:46:28.516Z</time></trkpt><trkpt lat="44.91976048137377" lon="7.838635672671795"><ele>245.66666666666669</ele><time>2026-05-02T17:46:29.515Z</time></trkpt><trkpt lat="44.919581583618516" lon="7.8387445483696245"><ele>249.33333333333331</ele><time>2026-05-02T17:46:30.519Z</time></trkpt><trkpt lat="44.919396013822755" lon="7.838857227323119"><ele>253.0</ele><time>2026-05-02T17:46:31.516Z</time></trkpt><trkpt lat="44.919207172190426" lon="7.838971892798318"><ele>253.66666666666666</ele><time>2026-05-02T17:46:32.514Z</time></trkpt><trkpt lat="44.919015321737206" lon="7.839088387016183"><ele>254.33333333333331</ele><time>2026-05-02T17:46:33.518Z</time></trkpt><trkpt lat="44.918823706275006" lon="7.8392047368131355"><ele>255.0</ele><time>2026-05-02T17:46:34.514Z</time></trkpt><trkpt lat="44.918648293116235" lon="7.839311248498068"><ele>255.0</ele><time>2026-05-02T17:46:35.409Z</time></trkpt><trkpt lat="44.91844046545746" lon="7.839437442423973"><ele>255.0</ele><time>2026-05-02T17:46:36.514Z</time></trkpt><trkpt lat="44.91825532035533" lon="7.839549219640501"><ele>255.0</ele><time>2026-05-02T17:46:37.514Z</time></trkpt><trkpt lat="44.91808916572667" lon="7.839649348781315"><ele>255.33333333333331</ele><time>2026-05-02T17:46:38.414Z</time></trkpt><trkpt lat="44.91789643471167" lon="7.83976937897391"><ele>255.66666666666666</ele><time>2026-05-02T17:46:39.526Z</time></trkpt><trkpt lat="44.917725902365916" lon="7.839889473981324"><ele>256.0</ele><time>2026-05-02T17:46:40.515Z</time></trkpt><trkpt lat="44.917566598295245" lon="7.840022463273993"><ele>255.66666666666666</ele><time>2026-05-02T17:46:41.514Z</time></trkpt><trkpt lat="44.91741400040483" lon="7.840183584386843"><ele>255.33333333333331</ele><time>2026-05-02T17:46:42.52Z</time></trkpt><trkpt lat="44.917273786921456" lon="7.840357062816553"><ele>255.0</ele><time>2026-05-02T17:46:43.514Z</time></trkpt><trkpt lat="44.917151124552426" lon="7.840538615458718"><ele>255.0</ele><time>2026-05-02T17:46:44.514Z</time></trkpt><trkpt lat="44.91704682895038" lon="7.840722163011402"><ele>255.0</ele><time>2026-05-02T17:46:45.514Z</time></trkpt><trkpt lat="44.916958551702805" lon="7.840892881542214"><ele>255.0</ele><time>2026-05-02T17:46:46.514Z</time></trkpt><trkpt lat="44.91688256785304" lon="7.8410450774775295"><ele>255.0</ele><time>2026-05-02T17:46:47.523Z</time></trkpt><trkpt lat="44.91681399309865" lon="7.841184577971098"><ele>254.83333333333334</ele><time>2026-05-02T17:46:48.517Z</time></trkpt><trkpt lat="44.91675412475418" lon="7.841307792600347"><ele>254.66666666666669</ele><time>2026-05-02T17:46:49.518Z</time></trkpt><trkpt lat="44.91670426190225" lon="7.8414104150153126"><ele>254.5</ele><time>2026-05-02T17:46:50.514Z</time></trkpt><trkpt lat="44.91665839915749" lon="7.841504804824912"><ele>254.33333333333334</ele><time>2026-05-02T17:46:51.514Z</time></trkpt><trkpt lat="44.91661057899403" lon="7.841603223106062"><ele>254.16666666666669</ele><time>2026-05-02T17:46:52.518Z</time></trkpt><trkpt lat="44.91656493579056" lon="7.84169854354044"><ele>254.0</ele><time>2026-05-02T17:46:53.524Z</time></trkpt><trkpt lat="44.916515517698805" lon="7.841801556888438"><ele>254.00000000000003</ele><time>2026-05-02T17:46:54.514Z</time></trkpt><trkpt lat="44.91646812573122" lon="7.841900242227729"><ele>254.0</ele><time>2026-05-02T17:46:55.514Z</time></trkpt><trkpt lat="44.916422515418084" lon="7.841994815858638"><ele>254.0</ele><time>2026-05-02T17:46:56.504Z</time></trkpt><trkpt lat="44.91637294677991" lon="7.842097597161871"><ele>254.0</ele><time>2026-05-02T17:46:57.504Z</time></trkpt><trkpt lat="44.91632531160245" lon="7.842196369360911"><ele>254.00000000000003</ele><time>2026-05-02T17:46:58.41Z</time></trkpt><trkpt lat="44.91626580354392" lon="7.842319760177645"><ele>254.0</ele><time>2026-05-02T17:46:59.407Z</time></trkpt><trkpt lat="44.91619042849559" lon="7.842476051429759"><ele>254.0</ele><time>2026-05-02T17:47:00.504Z</time></trkpt><trkpt lat="44.91611862241785" lon="7.842624942339155"><ele>254.0</ele><time>2026-05-02T17:47:01.514Z</time></trkpt><trkpt lat="44.9160451588811" lon="7.842777270034259"><ele>254.0</ele><time>2026-05-02T17:47:02.415Z</time></trkpt><trkpt lat="44.91594987478665" lon="7.842974842971072"><ele>254.0</ele><time>2026-05-02T17:47:03.515Z</time></trkpt><trkpt lat="44.91586048974782" lon="7.843160183754302"><ele>253.66666666666669</ele><time>2026-05-02T17:47:04.505Z</time></trkpt><trkpt lat="44.915775003745196" lon="7.843337229646265"><ele>253.33333333333331</ele><time>2026-05-02T17:47:05.414Z</time></trkpt><trkpt lat="44.91571978333334" lon="7.843609633333333"><ele>253.0</ele><time>2026-05-02T17:47:06.504Z</time></trkpt><trkpt lat="44.91563336666666" lon="7.843791933333333"><ele>253.0</ele><time>2026-05-02T17:47:07.407Z</time></trkpt><trkpt lat="44.91552231666666" lon="7.844001983333334"><ele>253.0</ele><time>2026-05-02T17:47:08.504Z</time></trkpt><trkpt lat="44.915430866666675" lon="7.844191666666668"><ele>253.0</ele><time>2026-05-02T17:47:09.504Z</time></trkpt><trkpt lat="44.91529789361051" lon="7.844323357029139"><ele>253.2</ele><time>2026-05-02T17:47:10.519Z</time></trkpt><trkpt lat="44.915222256720504" lon="7.84447964176935"><ele>253.4</ele><time>2026-05-02T17:47:11.506Z</time></trkpt><trkpt lat="44.915156569971465" lon="7.844615367011296"><ele>253.59999999999997</ele><time>2026-05-02T17:47:12.515Z</time></trkpt><trkpt lat="44.915102846122345" lon="7.844726373549239"><ele>253.79999999999998</ele><time>2026-05-02T17:47:13.507Z</time></trkpt><trkpt lat="44.915053144689075" lon="7.844829069297067"><ele>254.0</ele><time>2026-05-02T17:47:14.504Z</time></trkpt><trkpt lat="44.91500341588508" lon="7.844931825586816"><ele>254.0</ele><time>2026-05-02T17:47:15.506Z</time></trkpt><trkpt lat="44.91494932828809" lon="7.845043344848792"><ele>253.99999999999997</ele><time>2026-05-02T17:47:16.514Z</time></trkpt><trkpt lat="44.914891578531744" lon="7.8451624916959135"><ele>253.99999999999997</ele><time>2026-05-02T17:47:17.506Z</time></trkpt><trkpt lat="44.91483183992457" lon="7.845285745919662"><ele>254.0</ele><time>2026-05-02T17:47:18.52Z</time></trkpt><trkpt lat="44.91477014566564" lon="7.845413094211364"><ele>254.0</ele><time>2026-05-02T17:47:19.516Z</time></trkpt><trkpt lat="44.914708428716075" lon="7.845540475258182"><ele>254.16666666666669</ele><time>2026-05-02T17:47:20.505Z</time></trkpt><trkpt lat="44.91465067978424" lon="7.845659666333383"><ele>254.33333333333334</ele><time>2026-05-02T17:47:21.537Z</time></trkpt><trkpt lat="44.91460091104164" lon="7.845762387178074"><ele>254.5</ele><time>2026-05-02T17:47:22.407Z</time></trkpt><trkpt lat="44.91454885353382" lon="7.845869832671058"><ele>254.66666666666669</ele><time>2026-05-02T17:47:23.416Z</time></trkpt><trkpt lat="44.914497125902315" lon="7.845976639144825"><ele>254.83333333333334</ele><time>2026-05-02T17:47:24.507Z</time></trkpt><trkpt lat="44.91446132242094" lon="7.846050563313179"><ele>255.0</ele><time>2026-05-02T17:47:25.406Z</time></trkpt><trkpt lat="44.91440962783688" lon="7.846157298049914"><ele>255.16666666666666</ele><time>2026-05-02T17:47:27.406Z</time></trkpt><trkpt lat="44.91437037512648" lon="7.846238344061642"><ele>255.33333333333331</ele><time>2026-05-02T17:47:39.515Z</time></trkpt><trkpt lat="44.9143166836187" lon="7.846349202077474"><ele>255.5</ele><time>2026-05-02T17:47:41.505Z</time></trkpt><trkpt lat="44.914245122234185" lon="7.846496957341385"><ele>255.66666666666666</ele><time>2026-05-02T17:47:43.516Z</time></trkpt><trkpt lat="44.91420738714631" lon="7.846575049651651"><ele>255.83333333333331</ele><time>2026-05-02T17:47:44.419Z</time></trkpt><trkpt lat="44.91415764248189" lon="7.846677577684405"><ele>256.0</ele><time>2026-05-02T17:47:45.505Z</time></trkpt><trkpt lat="44.91411203095806" lon="7.846772285779971"><ele>256.40000000000003</ele><time>2026-05-02T17:47:46.41Z</time></trkpt><trkpt lat="44.91405243385612" lon="7.8468955572621955"><ele>256.8</ele><time>2026-05-02T17:47:47.505Z</time></trkpt><trkpt lat="44.91399477172081" lon="7.847014826458214"><ele>257.20000000000005</ele><time>2026-05-02T17:47:48.505Z</time></trkpt><trkpt lat="44.91393513674592" lon="7.847138176301289"><ele>257.6</ele><time>2026-05-02T17:47:49.507Z</time></trkpt><trkpt lat="44.91387649604686" lon="7.847259469590859"><ele>258.0</ele><time>2026-05-02T17:47:50.515Z</time></trkpt><trkpt lat="44.913812850590794" lon="7.84739111474472"><ele>258.0</ele><time>2026-05-02T17:47:51.507Z</time></trkpt><trkpt lat="44.91375518667244" lon="7.847510387580416"><ele>258.0</ele><time>2026-05-02T17:47:52.42Z</time></trkpt><trkpt lat="44.91369549428899" lon="7.847633856193289"><ele>258.0</ele><time>2026-05-02T17:47:53.409Z</time></trkpt><trkpt lat="44.913629853416175" lon="7.847769628769791"><ele>258.0</ele><time>2026-05-02T17:47:54.507Z</time></trkpt><trkpt lat="44.91358210835267" lon="7.84786838530638"><ele>258.0</ele><time>2026-05-02T17:47:55.402Z</time></trkpt><trkpt lat="44.91353440216561" lon="7.847966886248801"><ele>257.99999999999994</ele><time>2026-05-02T17:47:56.395Z</time></trkpt><trkpt lat="44.91349438557254" lon="7.848048818021228"><ele>258.0</ele><time>2026-05-02T17:47:57.406Z</time></trkpt><trkpt lat="44.91345235821879" lon="7.84813486673322"><ele>258.0</ele><time>2026-05-02T17:47:58.508Z</time></trkpt><trkpt lat="44.91341432193465" lon="7.848212743947872"><ele>258.0</ele><time>2026-05-02T17:47:59.516Z</time></trkpt><trkpt lat="44.91337826233251" lon="7.848286573976845"><ele>258.0</ele><time>2026-05-02T17:48:00.507Z</time></trkpt><trkpt lat="44.91333823645799" lon="7.8483685243181"><ele>257.99999999999994</ele><time>2026-05-02T17:48:01.507Z</time></trkpt><trkpt lat="44.913299657585796" lon="7.848445410856177"><ele>258.0</ele><time>2026-05-02T17:48:02.505Z</time></trkpt><trkpt lat="44.913233063728924" lon="7.848578502228744"><ele>257.8333333333333</ele><time>2026-05-02T17:48:04.506Z</time></trkpt><trkpt lat="44.91323941666666" lon="7.84867675"><ele>257.6666666666667</ele><time>2026-05-02T17:48:05.506Z</time></trkpt><trkpt lat="44.9132245" lon="7.84877825"><ele>257.5</ele><time>2026-05-02T17:48:07.514Z</time></trkpt><trkpt lat="44.91315185739647" lon="7.848760727328988"><ele>257.33333333333337</ele><time>2026-05-02T17:48:09.508Z</time></trkpt><trkpt lat="44.91309406052391" lon="7.848840073571315"><ele>257.1666666666667</ele><time>2026-05-02T17:48:13.507Z</time></trkpt><trkpt lat="44.91304339747737" lon="7.848930842353504"><ele>257.0</ele><time>2026-05-02T17:48:16.506Z</time></trkpt><trkpt lat="44.91314076666666" lon="7.849096083333333"><ele>257.0</ele><time>2026-05-02T17:48:25.507Z</time></trkpt><trkpt lat="44.91313826326676" lon="7.848969817264807"><ele>257.0</ele><time>2026-05-02T17:48:48Z</time></trkpt><trkpt lat="44.91319581153989" lon="7.848901781862605"><ele>257.0</ele><time>2026-05-02T17:49:09Z</time></trkpt><trkpt lat="44.91323677467207" lon="7.848826251384196"><ele>257.0</ele><time>2026-05-02T17:49:16Z</time></trkpt><trkpt lat="44.91327437959326" lon="7.848744964686045"><ele>257.0</ele><time>2026-05-02T17:49:22Z</time></trkpt><trkpt lat="44.91332220845229" lon="7.848678314904232"><ele>257.0</ele><time>2026-05-02T17:49:29Z</time></trkpt><trkpt lat="44.913363880123214" lon="7.848607913607926"><ele>257.0</ele><time>2026-05-02T17:49:36Z</time></trkpt><trkpt lat="44.91340898917785" lon="7.848545130812363"><ele>257.25</ele><time>2026-05-02T17:49:43Z</time></trkpt><trkpt lat="44.91343102147371" lon="7.848456983980115"><ele>257.5</ele><time>2026-05-02T17:49:49Z</time></trkpt><trkpt lat="44.91352525903547" lon="7.848465641138564"><ele>257.75</ele><time>2026-05-02T17:50:08Z</time></trkpt><trkpt lat="44.91341901985141" lon="7.84857960639454"><ele>258.0</ele><time>2026-05-02T17:51:37.276Z</time></trkpt><trkpt lat="44.91342785635813" lon="7.848802186821215"><ele>257.8333333333333</ele><time>2026-05-02T19:19:25.594Z</time></trkpt><trkpt lat="44.91333640405917" lon="7.8487738955841735"><ele>257.6666666666667</ele><time>2026-05-02T19:19:28.979Z</time></trkpt><trkpt lat="44.91322376378674" lon="7.848783070454364"><ele>257.5</ele><time>2026-05-02T19:19:30.979Z</time></trkpt><trkpt lat="44.91323067802053" lon="7.8488717003566695"><ele>257.33333333333337</ele><time>2026-05-02T19:20:42Z</time></trkpt><trkpt lat="44.91318751302098" lon="7.848945956830941"><ele>257.1666666666667</ele><time>2026-05-02T19:20:51Z</time></trkpt><trkpt lat="44.91312722734129" lon="7.8489817108475455"><ele>257.0</ele><time>2026-05-02T19:21:03Z</time></trkpt><trkpt lat="44.913129366666666" lon="7.849076816666667"><ele>257.0</ele><time>2026-05-02T19:24:20.912Z</time></trkpt><trkpt lat="44.91318643333334" lon="7.8490381666666655"><ele>257.0</ele><time>2026-05-02T19:24:26.936Z</time></trkpt><trkpt lat="44.91322575000001" lon="7.848955599999999"><ele>257.0</ele><time>2026-05-02T19:24:30.944Z</time></trkpt><trkpt lat="44.91322323333334" lon="7.848860216666666"><ele>257.0</ele><time>2026-05-02T19:24:34.913Z</time></trkpt><trkpt lat="44.91323178333334" lon="7.848733733333334"><ele>257.0</ele><time>2026-05-02T19:24:38.911Z</time></trkpt><trkpt lat="44.913280400000005" lon="7.848630050000001"><ele>257.0</ele><time>2026-05-02T19:24:40.911Z</time></trkpt><trkpt lat="44.91334536666667" lon="7.848493766666667"><ele>257.2</ele><time>2026-05-02T19:24:43.083Z</time></trkpt><trkpt lat="44.91340856666667" lon="7.84836175"><ele>257.4</ele><time>2026-05-02T19:24:44.943Z</time></trkpt><trkpt lat="44.91345943333334" lon="7.848231"><ele>257.6</ele><time>2026-05-02T19:24:46.912Z</time></trkpt><trkpt lat="44.91351123333334" lon="7.848124116666666"><ele>257.8</ele><time>2026-05-02T19:24:48.918Z</time></trkpt><trkpt lat="44.9135736" lon="7.84798365"><ele>258.0</ele><time>2026-05-02T19:24:50.944Z</time></trkpt><trkpt lat="44.913608966666665" lon="7.8479021666666675"><ele>258.0</ele><time>2026-05-02T19:24:51.911Z</time></trkpt><trkpt lat="44.91365054999999" lon="7.8478155833333325"><ele>258.0</ele><time>2026-05-02T19:24:52.911Z</time></trkpt><trkpt lat="44.91369203333334" lon="7.8477219666666675"><ele>258.0</ele><time>2026-05-02T19:24:53.96Z</time></trkpt><trkpt lat="44.91373586666667" lon="7.847631600000001"><ele>258.0</ele><time>2026-05-02T19:24:54.912Z</time></trkpt><trkpt lat="44.913783816666665" lon="7.847525566666667"><ele>258.0</ele><time>2026-05-02T19:24:56.018Z</time></trkpt><trkpt lat="44.91382531666667" lon="7.847438899999999"><ele>258.0</ele><time>2026-05-02T19:24:56.912Z</time></trkpt><trkpt lat="44.913876516666676" lon="7.847324149999999"><ele>258.0</ele><time>2026-05-02T19:24:58.031Z</time></trkpt><trkpt lat="44.91392161666666" lon="7.847228933333334"><ele>258.0</ele><time>2026-05-02T19:24:58.912Z</time></trkpt><trkpt lat="44.91397081666667" lon="7.847118633333334"><ele>258.0</ele><time>2026-05-02T19:24:59.925Z</time></trkpt><trkpt lat="44.91402311666668" lon="7.8470062333333335"><ele>258.0</ele><time>2026-05-02T19:25:00.948Z</time></trkpt><trkpt lat="44.914077433333325" lon="7.846889716666667"><ele>258.0</ele><time>2026-05-02T19:25:01.91Z</time></trkpt><trkpt lat="44.914137866666664" lon="7.8467609666666664"><ele>257.6</ele><time>2026-05-02T19:25:03.01Z</time></trkpt><trkpt lat="44.914203170160604" lon="7.84666706409945"><ele>257.20000000000005</ele><time>2026-05-02T19:25:03.911Z</time></trkpt><trkpt lat="44.91426882881016" lon="7.846531254776845"><ele>256.8</ele><time>2026-05-02T19:25:05.01Z</time></trkpt><trkpt lat="44.91432254885456" lon="7.846420140011515"><ele>256.40000000000003</ele><time>2026-05-02T19:25:05.912Z</time></trkpt><trkpt lat="44.91438423516524" lon="7.846292547896744"><ele>256.0</ele><time>2026-05-02T19:25:06.921Z</time></trkpt><trkpt lat="44.91444589827528" lon="7.846165003770219"><ele>256.0</ele><time>2026-05-02T19:25:07.911Z</time></trkpt><trkpt lat="44.91450784526298" lon="7.846037697953623"><ele>256.0</ele><time>2026-05-02T19:25:08.914Z</time></trkpt><trkpt lat="44.9145716273659" lon="7.845906005665164"><ele>256.0</ele><time>2026-05-02T19:25:09.913Z</time></trkpt><trkpt lat="44.91463341104175" lon="7.845778479061356"><ele>256.0</ele><time>2026-05-02T19:25:10.915Z</time></trkpt><trkpt lat="44.91469516335541" lon="7.845651024906774"><ele>256.0</ele><time>2026-05-02T19:25:11.912Z</time></trkpt><trkpt lat="44.91475495714182" lon="7.845527613083459"><ele>255.8</ele><time>2026-05-02T19:25:12.914Z</time></trkpt><trkpt lat="44.91481474514395" lon="7.845404213207978"><ele>255.60000000000002</ele><time>2026-05-02T19:25:13.911Z</time></trkpt><trkpt lat="44.91487451783393" lon="7.845280844918184"><ele>255.4</ele><time>2026-05-02T19:25:14.912Z</time></trkpt><trkpt lat="44.91493031667925" lon="7.84516571713498"><ele>255.2</ele><time>2026-05-02T19:25:15.911Z</time></trkpt><trkpt lat="44.91498875645298" lon="7.8450451466746784"><ele>255.0</ele><time>2026-05-02T19:25:16.926Z</time></trkpt><trkpt lat="44.915032602436625" lon="7.84495468548036"><ele>255.0</ele><time>2026-05-02T19:25:17.918Z</time></trkpt><trkpt lat="44.91507242335944" lon="7.844872528893502"><ele>255.0</ele><time>2026-05-02T19:25:18.912Z</time></trkpt><trkpt lat="44.91513606365952" lon="7.844740971667443"><ele>255.0</ele><time>2026-05-02T19:25:21.067Z</time></trkpt><trkpt lat="44.915199738596854" lon="7.844609403346222"><ele>255.0</ele><time>2026-05-02T19:25:23.014Z</time></trkpt><trkpt lat="44.91527733449428" lon="7.844449070827397"><ele>255.0</ele><time>2026-05-02T19:25:25.012Z</time></trkpt><trkpt lat="44.915317111088164" lon="7.844366882415471"><ele>254.6</ele><time>2026-05-02T19:25:25.912Z</time></trkpt><trkpt lat="44.915362901370365" lon="7.8442722682650885"><ele>254.2</ele><time>2026-05-02T19:25:26.928Z</time></trkpt><trkpt lat="44.91541065784514" lon="7.844173568591191"><ele>253.8</ele><time>2026-05-02T19:25:27.913Z</time></trkpt><trkpt lat="44.91546634008645" lon="7.844058481381436"><ele>253.4</ele><time>2026-05-02T19:25:29.036Z</time></trkpt><trkpt lat="44.9155141006559" lon="7.843959767145103"><ele>253.0</ele><time>2026-05-02T19:25:29.912Z</time></trkpt><trkpt lat="44.91557178187786" lon="7.843840548382934"><ele>253.0</ele><time>2026-05-02T19:25:31.011Z</time></trkpt><trkpt lat="44.91562352841118" lon="7.843733595708201"><ele>253.0</ele><time>2026-05-02T19:25:32.021Z</time></trkpt><trkpt lat="44.91567525751303" lon="7.8436266790870715"><ele>253.0</ele><time>2026-05-02T19:25:33.011Z</time></trkpt><trkpt lat="44.915721019585014" lon="7.843532095451221"><ele>253.0</ele><time>2026-05-02T19:25:33.911Z</time></trkpt><trkpt lat="44.915780712619664" lon="7.8434087185363035"><ele>253.0</ele><time>2026-05-02T19:25:35.011Z</time></trkpt><trkpt lat="44.91583043925132" lon="7.843305941202667"><ele>253.0</ele><time>2026-05-02T19:25:35.917Z</time></trkpt><trkpt lat="44.91588802601132" lon="7.843186459593871"><ele>253.0</ele><time>2026-05-02T19:25:36.933Z</time></trkpt><trkpt lat="44.91594964188747" lon="7.8430588064397835"><ele>253.0</ele><time>2026-05-02T19:25:37.912Z</time></trkpt><trkpt lat="44.91601256168346" lon="7.842928452342523"><ele>253.0</ele><time>2026-05-02T19:25:38.912Z</time></trkpt><trkpt lat="44.91607614899318" lon="7.842796715279373"><ele>253.0</ele><time>2026-05-02T19:25:39.911Z</time></trkpt><trkpt lat="44.91613965584761" lon="7.8426647627385195"><ele>253.2</ele><time>2026-05-02T19:25:40.912Z</time></trkpt><trkpt lat="44.91621117127801" lon="7.84251647446025"><ele>253.4</ele><time>2026-05-02T19:25:42.059Z</time></trkpt><trkpt lat="44.91626878471791" lon="7.842397012148165"><ele>253.59999999999997</ele><time>2026-05-02T19:25:42.914Z</time></trkpt><trkpt lat="44.91633037664181" lon="7.842269300431081"><ele>253.79999999999998</ele><time>2026-05-02T19:25:43.912Z</time></trkpt><trkpt lat="44.91638604003355" lon="7.842153881621677"><ele>254.0</ele><time>2026-05-02T19:25:44.93Z</time></trkpt><trkpt lat="44.91643172182798" lon="7.842059159751456"><ele>254.00000000000003</ele><time>2026-05-02T19:25:45.923Z</time></trkpt><trkpt lat="44.91646747831484" lon="7.8419850181878505"><ele>254.0</ele><time>2026-05-02T19:25:47Z</time></trkpt><trkpt lat="44.91651713344265" lon="7.841881925969007"><ele>254.0</ele><time>2026-05-02T19:25:48.912Z</time></trkpt><trkpt lat="44.916574545119346" lon="7.841762249775892"><ele>254.0</ele><time>2026-05-02T19:25:50.911Z</time></trkpt><trkpt lat="44.916610150034984" lon="7.841688030352227"><ele>254.00000000000003</ele><time>2026-05-02T19:25:51.913Z</time></trkpt><trkpt lat="44.91664974875239" lon="7.841605485830192"><ele>254.0</ele><time>2026-05-02T19:25:52.915Z</time></trkpt><trkpt lat="44.916693307320955" lon="7.841514687324928"><ele>254.6</ele><time>2026-05-02T19:25:53.913Z</time></trkpt><trkpt lat="44.91673884010222" lon="7.841419773556932"><ele>255.2</ele><time>2026-05-02T19:25:54.916Z</time></trkpt><trkpt lat="44.91679141231511" lon="7.841314060575131"><ele>255.79999999999998</ele><time>2026-05-02T19:25:55.912Z</time></trkpt><trkpt lat="44.91684331967535" lon="7.841207230364835"><ele>256.4</ele><time>2026-05-02T19:25:56.918Z</time></trkpt><trkpt lat="44.91689953194666" lon="7.84109290560473"><ele>257.0</ele><time>2026-05-02T19:25:57.914Z</time></trkpt><trkpt lat="44.91695797496909" lon="7.840974118150855"><ele>256.6</ele><time>2026-05-02T19:25:58.912Z</time></trkpt><trkpt lat="44.91702237631428" lon="7.84084905333118"><ele>256.2</ele><time>2026-05-02T19:25:59.915Z</time></trkpt><trkpt lat="44.91708460596199" lon="7.840729695215563"><ele>255.8</ele><time>2026-05-02T19:26:00.917Z</time></trkpt><trkpt lat="44.91715036423463" lon="7.840611041741464"><ele>255.4</ele><time>2026-05-02T19:26:01.918Z</time></trkpt><trkpt lat="44.917225104933955" lon="7.840493643792636"><ele>255.0</ele><time>2026-05-02T19:26:02.911Z</time></trkpt><trkpt lat="44.91730346731637" lon="7.840381661797185"><ele>255.0</ele><time>2026-05-02T19:26:03.918Z</time></trkpt><trkpt lat="44.917388810094955" lon="7.840274346368613"><ele>255.0</ele><time>2026-05-02T19:26:04.911Z</time></trkpt><trkpt lat="44.91747472025692" lon="7.840174753521236"><ele>255.0</ele><time>2026-05-02T19:26:05.914Z</time></trkpt><trkpt lat="44.91756758666661" lon="7.840078032360677"><ele>255.0</ele><time>2026-05-02T19:26:06.918Z</time></trkpt><trkpt lat="44.91766780165213" lon="7.839988794783849"><ele>255.25</ele><time>2026-05-02T19:26:07.913Z</time></trkpt><trkpt lat="44.91777214996469" lon="7.839907847493609"><ele>255.5</ele><time>2026-05-02T19:26:08.915Z</time></trkpt><trkpt lat="44.91788533219014" lon="7.839828528428085"><ele>255.75</ele><time>2026-05-02T19:26:09.913Z</time></trkpt><trkpt lat="44.91800059937533" lon="7.839754213261406"><ele>256.0</ele><time>2026-05-02T19:26:10.918Z</time></trkpt><trkpt lat="44.91812423686795" lon="7.839679072954442"><ele>256.0</ele><time>2026-05-02T19:26:11.913Z</time></trkpt><trkpt lat="44.91824796910389" lon="7.839604583705539"><ele>256.0</ele><time>2026-05-02T19:26:12.915Z</time></trkpt><trkpt lat="44.91837836289676" lon="7.839526184512427"><ele>256.0</ele><time>2026-05-02T19:26:13.913Z</time></trkpt><trkpt lat="44.91851497161333" lon="7.839443235136196"><ele>256.0</ele><time>2026-05-02T19:26:14.914Z</time></trkpt><trkpt lat="44.91864842197352" lon="7.839362203434289"><ele>256.0</ele><time>2026-05-02T19:26:15.913Z</time></trkpt><trkpt lat="44.918778637612824" lon="7.839283135894522"><ele>256.0</ele><time>2026-05-02T19:26:16.912Z</time></trkpt><trkpt lat="44.91891205575179" lon="7.839202123788722"><ele>256.0</ele><time>2026-05-02T19:26:17.917Z</time></trkpt><trkpt lat="44.91904545665897" lon="7.839121122132774"><ele>256.0</ele><time>2026-05-02T19:26:18.911Z</time></trkpt><trkpt lat="44.91917889068162" lon="7.839040100378565"><ele>255.25</ele><time>2026-05-02T19:26:19.913Z</time></trkpt><trkpt lat="44.91931238048333" lon="7.838959044757073"><ele>254.5</ele><time>2026-05-02T19:26:20.915Z</time></trkpt><trkpt lat="44.91944575313924" lon="7.8388780602646815"><ele>253.75</ele><time>2026-05-02T19:26:21.912Z</time></trkpt><trkpt lat="44.91957919711661" lon="7.838797032453953"><ele>253.0</ele><time>2026-05-02T19:26:22.915Z</time></trkpt><trkpt lat="44.91970939610999" lon="7.838717939942777"><ele>253.0</ele><time>2026-05-02T19:26:23.915Z</time></trkpt><trkpt lat="44.919839492958936" lon="7.838638513406085"><ele>253.0</ele><time>2026-05-02T19:26:24.913Z</time></trkpt><trkpt lat="44.91996306555306" lon="7.838563070050339"><ele>253.0</ele><time>2026-05-02T19:26:25.928Z</time></trkpt><trkpt lat="44.92008658866228" lon="7.838487656912718"><ele>253.0</ele><time>2026-05-02T19:26:26.918Z</time></trkpt><trkpt lat="44.92021330447271" lon="7.838410294561602"><ele>250.25</ele><time>2026-05-02T19:26:27.917Z</time></trkpt><trkpt lat="44.92033682808694" lon="7.838334881109419"><ele>247.5</ele><time>2026-05-02T19:26:28.927Z</time></trkpt><trkpt lat="44.920465502850504" lon="7.838256322781695"><ele>244.75</ele><time>2026-05-02T19:26:29.914Z</time></trkpt><trkpt lat="44.920592272014986" lon="7.838178927870671"><ele>242.0</ele><time>2026-05-02T19:26:30.921Z</time></trkpt><trkpt lat="44.92071582127017" lon="7.838103499031962"><ele>242.0</ele><time>2026-05-02T19:26:31.948Z</time></trkpt><trkpt lat="44.920843413648896" lon="7.8380317020374415"><ele>242.0</ele><time>2026-05-02T19:26:32.915Z</time></trkpt><trkpt lat="44.92096418333334" lon="7.837946816666666"><ele>242.0</ele><time>2026-05-02T19:26:33.919Z</time></trkpt><trkpt lat="44.92109023333334" lon="7.837896433333333"><ele>242.0</ele><time>2026-05-02T19:26:34.914Z</time></trkpt><trkpt lat="44.92121815" lon="7.837856466666667"><ele>242.0</ele><time>2026-05-02T19:26:35.916Z</time></trkpt><trkpt lat="44.921344133333335" lon="7.837828966666666"><ele>242.0</ele><time>2026-05-02T19:26:36.916Z</time></trkpt><trkpt lat="44.921471116666666" lon="7.837813883333332"><ele>242.0</ele><time>2026-05-02T19:26:37.921Z</time></trkpt><trkpt lat="44.92159491666666" lon="7.837808266666667"><ele>242.0</ele><time>2026-05-02T19:26:38.915Z</time></trkpt><trkpt lat="44.92172936666666" lon="7.83782075"><ele>241.5</ele><time>2026-05-02T19:26:39.917Z</time></trkpt><trkpt lat="44.92184938333334" lon="7.8378328166666655"><ele>241.0</ele><time>2026-05-02T19:26:40.917Z</time></trkpt><trkpt lat="44.92197259999999" lon="7.837850683333333"><ele>240.5</ele><time>2026-05-02T19:26:41.917Z</time></trkpt><trkpt lat="44.92209581666666" lon="7.837867866666667"><ele>240.0</ele><time>2026-05-02T19:26:42.913Z</time></trkpt><trkpt lat="44.922219116666675" lon="7.837884533333333"><ele>240.0</ele><time>2026-05-02T19:26:43.913Z</time></trkpt><trkpt lat="44.922345933333325" lon="7.8379022166666665"><ele>240.0</ele><time>2026-05-02T19:26:44.912Z</time></trkpt><trkpt lat="44.922472666666664" lon="7.837920916666667"><ele>240.0</ele><time>2026-05-02T19:26:45.918Z</time></trkpt><trkpt lat="44.922602999999995" lon="7.837939349999999"><ele>240.0</ele><time>2026-05-02T19:26:46.918Z</time></trkpt><trkpt lat="44.922736866666675" lon="7.83795855"><ele>240.5</ele><time>2026-05-02T19:26:47.915Z</time></trkpt><trkpt lat="44.92287063333334" lon="7.837978333333333"><ele>241.0</ele><time>2026-05-02T19:26:48.912Z</time></trkpt><trkpt lat="44.92300793333334" lon="7.8379991166666665"><ele>241.5</ele><time>2026-05-02T19:26:49.915Z</time></trkpt><trkpt lat="44.923145149999996" lon="7.838020666666667"><ele>242.0</ele><time>2026-05-02T19:26:50.912Z</time></trkpt><trkpt lat="44.923282366666676" lon="7.838042949999999"><ele>241.0</ele><time>2026-05-02T19:26:51.912Z</time></trkpt><trkpt lat="44.92343356666667" lon="7.838067683333332"><ele>240.0</ele><time>2026-05-02T19:26:53.021Z</time></trkpt><trkpt lat="44.9235531" lon="7.838088300000001"><ele>239.0</ele><time>2026-05-02T19:26:53.914Z</time></trkpt><trkpt lat="44.9236795" lon="7.838111266666668"><ele>238.0</ele><time>2026-05-02T19:26:54.916Z</time></trkpt><trkpt lat="44.92380236666666" lon="7.838133233333333"><ele>238.0</ele><time>2026-05-02T19:26:55.932Z</time></trkpt><trkpt lat="44.92391821666667" lon="7.838154016666666"><ele>238.0</ele><time>2026-05-02T19:26:56.934Z</time></trkpt><trkpt lat="44.92403396666667" lon="7.838174883333332"><ele>238.0</ele><time>2026-05-02T19:26:58.043Z</time></trkpt><trkpt lat="44.924131866666656" lon="7.838196266666667"><ele>238.0</ele><time>2026-05-02T19:26:59.016Z</time></trkpt><trkpt lat="44.92420906666666" lon="7.838231216666666"><ele>238.0</ele><time>2026-05-02T19:26:59.912Z</time></trkpt><trkpt lat="44.92428441666666" lon="7.8382859499999995"><ele>237.99999999999997</ele><time>2026-05-02T19:27:00.918Z</time></trkpt><trkpt lat="44.92435893333333" lon="7.838331466666667"><ele>238.0</ele><time>2026-05-02T19:27:01.92Z</time></trkpt><trkpt lat="44.92443923333333" lon="7.838344116666667"><ele>238.0</ele><time>2026-05-02T19:27:03.014Z</time></trkpt><trkpt lat="44.92450058333334" lon="7.838322416666666"><ele>238.0</ele><time>2026-05-02T19:27:03.913Z</time></trkpt><trkpt lat="44.9245632" lon="7.838267"><ele>237.99999999999997</ele><time>2026-05-02T19:27:04.961Z</time></trkpt><trkpt lat="44.92461978333334" lon="7.838192066666666"><ele>238.0</ele><time>2026-05-02T19:27:05.919Z</time></trkpt><trkpt lat="44.92468054999999" lon="7.83810875"><ele>238.0</ele><time>2026-05-02T19:27:06.939Z</time></trkpt><trkpt lat="44.92474751666667" lon="7.838027783333333"><ele>238.0</ele><time>2026-05-02T19:27:07.915Z</time></trkpt><trkpt lat="44.924821949999995" lon="7.837951933333333"><ele>238.0</ele><time>2026-05-02T19:27:08.943Z</time></trkpt><trkpt lat="44.924907450000006" lon="7.8378723"><ele>238.0</ele><time>2026-05-02T19:27:09.913Z</time></trkpt><trkpt lat="44.924997133333335" lon="7.8377925"><ele>238.0</ele><time>2026-05-02T19:27:10.935Z</time></trkpt><trkpt lat="44.92509" lon="7.837710449999999"><ele>238.0</ele><time>2026-05-02T19:27:11.916Z</time></trkpt><trkpt lat="44.925188899999995" lon="7.8376231"><ele>238.0</ele><time>2026-05-02T19:27:12.943Z</time></trkpt><trkpt lat="44.92529368333334" lon="7.837530149999999"><ele>238.0</ele><time>2026-05-02T19:27:13.914Z</time></trkpt><trkpt lat="44.925407933333325" lon="7.837444066666666"><ele>238.0</ele><time>2026-05-02T19:27:14.932Z</time></trkpt><trkpt lat="44.9255189" lon="7.837346083333333"><ele>238.0</ele><time>2026-05-02T19:27:15.932Z</time></trkpt><trkpt lat="44.9256365" lon="7.837244000000001"><ele>238.0</ele><time>2026-05-02T19:27:16.924Z</time></trkpt><trkpt lat="44.92576021666667" lon="7.8371368666666665"><ele>238.0</ele><time>2026-05-02T19:27:17.917Z</time></trkpt><trkpt lat="44.925887033333325" lon="7.837027233333334"><ele>238.0</ele><time>2026-05-02T19:27:18.916Z</time></trkpt><trkpt lat="44.92601746666666" lon="7.836916349999999"><ele>238.0</ele><time>2026-05-02T19:27:19.918Z</time></trkpt><trkpt lat="44.92614805" lon="7.8368057"><ele>238.0</ele><time>2026-05-02T19:27:20.921Z</time></trkpt><trkpt lat="44.92627871666667" lon="7.836695233333335"><ele>238.0</ele><time>2026-05-02T19:27:21.92Z</time></trkpt><trkpt lat="44.92640629999999" lon="7.836587266666667"><ele>237.75</ele><time>2026-05-02T19:27:22.923Z</time></trkpt><trkpt lat="44.92653345" lon="7.8364783833333345"><ele>237.5</ele><time>2026-05-02T19:27:23.912Z</time></trkpt><trkpt lat="44.92665766666668" lon="7.8363722"><ele>237.25</ele><time>2026-05-02T19:27:24.914Z</time></trkpt><trkpt lat="44.92677845" lon="7.836267833333333"><ele>237.0</ele><time>2026-05-02T19:27:25.942Z</time></trkpt><trkpt lat="44.9268989" lon="7.836162816666666"><ele>237.0</ele><time>2026-05-02T19:27:26.914Z</time></trkpt><trkpt lat="44.927019599999994" lon="7.836058200000001"><ele>237.0</ele><time>2026-05-02T19:27:27.952Z</time></trkpt><trkpt lat="44.927134599999995" lon="7.835959716666667"><ele>237.0</ele><time>2026-05-02T19:27:28.921Z</time></trkpt><trkpt lat="44.9272525093223" lon="7.8358877783011325"><ele>237.0</ele><time>2026-05-02T19:27:29.971Z</time></trkpt><trkpt lat="44.92735332632957" lon="7.83580478935543"><ele>237.2</ele><time>2026-05-02T19:27:30.914Z</time></trkpt><trkpt lat="44.92743895" lon="7.835705083333332"><ele>237.39999999999998</ele><time>2026-05-02T19:27:31.931Z</time></trkpt><trkpt lat="44.92753256666666" lon="7.835651849999999"><ele>237.60000000000002</ele><time>2026-05-02T19:27:32.947Z</time></trkpt><trkpt lat="44.927619066666665" lon="7.8356086"><ele>237.8</ele><time>2026-05-02T19:27:33.915Z</time></trkpt><trkpt lat="44.92770298333333" lon="7.8355925"><ele>238.0</ele><time>2026-05-02T19:27:34.944Z</time></trkpt><trkpt lat="44.927783616666666" lon="7.835604916666667"><ele>238.0</ele><time>2026-05-02T19:27:35.916Z</time></trkpt><trkpt lat="44.92785125" lon="7.835646733333334"><ele>238.0</ele><time>2026-05-02T19:27:36.939Z</time></trkpt><trkpt lat="44.927909666666665" lon="7.835710949999999"><ele>238.0</ele><time>2026-05-02T19:27:37.914Z</time></trkpt><trkpt lat="44.92796181666667" lon="7.835770449999999"><ele>238.0</ele><time>2026-05-02T19:27:38.926Z</time></trkpt><trkpt lat="44.92802416666666" lon="7.835816799999999"><ele>238.0</ele><time>2026-05-02T19:27:39.914Z</time></trkpt><trkpt lat="44.92809340000001" lon="7.835834583333334"><ele>238.0</ele><time>2026-05-02T19:27:40.942Z</time></trkpt><trkpt lat="44.92816221666667" lon="7.83581505"><ele>238.0</ele><time>2026-05-02T19:27:41.933Z</time></trkpt><trkpt lat="44.928220466666666" lon="7.835759733333333"><ele>238.0</ele><time>2026-05-02T19:27:42.948Z</time></trkpt><trkpt lat="44.92825995" lon="7.835677916666667"><ele>238.0</ele><time>2026-05-02T19:27:43.918Z</time></trkpt><trkpt lat="44.92827495" lon="7.835576333333334"><ele>238.0</ele><time>2026-05-02T19:27:44.943Z</time></trkpt><trkpt lat="44.928261549999995" lon="7.835474066666666"><ele>238.0</ele><time>2026-05-02T19:27:45.919Z</time></trkpt><trkpt lat="44.928236399999996" lon="7.835381033333334"><ele>238.0</ele><time>2026-05-02T19:27:46.942Z</time></trkpt><trkpt lat="44.92821813333333" lon="7.835285066666668"><ele>238.0</ele><time>2026-05-02T19:27:47.913Z</time></trkpt><trkpt lat="44.92821838333333" lon="7.835186066666667"><ele>238.0</ele><time>2026-05-02T19:27:48.942Z</time></trkpt><trkpt lat="44.928247216666655" lon="7.8350852333333325"><ele>238.2</ele><time>2026-05-02T19:27:49.917Z</time></trkpt><trkpt lat="44.92830386666666" lon="7.835003933333333"><ele>238.4</ele><time>2026-05-02T19:27:50.942Z</time></trkpt><trkpt lat="44.92837395" lon="7.834936616666666"><ele>238.59999999999997</ele><time>2026-05-02T19:27:51.921Z</time></trkpt><trkpt lat="44.92845366666668" lon="7.8348627"><ele>238.79999999999998</ele><time>2026-05-02T19:27:52.953Z</time></trkpt><trkpt lat="44.92853101666666" lon="7.8347891"><ele>239.0</ele><time>2026-05-02T19:27:53.913Z</time></trkpt><trkpt lat="44.92861634999999" lon="7.834709133333333"><ele>239.0</ele><time>2026-05-02T19:27:54.941Z</time></trkpt><trkpt lat="44.92871156666667" lon="7.834623133333334"><ele>239.0</ele><time>2026-05-02T19:27:55.914Z</time></trkpt><trkpt lat="44.92880746666666" lon="7.8345384000000005"><ele>239.0</ele><time>2026-05-02T19:27:56.943Z</time></trkpt><trkpt lat="44.92890946666667" lon="7.83444855"><ele>239.0</ele><time>2026-05-02T19:27:57.918Z</time></trkpt><trkpt lat="44.92901440000001" lon="7.834356100000001"><ele>239.0</ele><time>2026-05-02T19:27:58.941Z</time></trkpt><trkpt lat="44.92912278333333" lon="7.834261716666666"><ele>239.0</ele><time>2026-05-02T19:27:59.914Z</time></trkpt><trkpt lat="44.92924700445681" lon="7.834184756097776"><ele>239.0</ele><time>2026-05-02T19:28:00.943Z</time></trkpt><trkpt lat="44.92936201573162" lon="7.834086325157182"><ele>239.0</ele><time>2026-05-02T19:28:01.913Z</time></trkpt><trkpt lat="44.92948002174879" lon="7.833985331259063"><ele>238.75</ele><time>2026-05-02T19:28:02.93Z</time></trkpt><trkpt lat="44.9295957" lon="7.833871116666667"><ele>238.5</ele><time>2026-05-02T19:28:03.913Z</time></trkpt><trkpt lat="44.92972226666667" lon="7.833760983333334"><ele>238.25</ele><time>2026-05-02T19:28:04.933Z</time></trkpt><trkpt lat="44.929849166666656" lon="7.833651433333333"><ele>238.0</ele><time>2026-05-02T19:28:05.914Z</time></trkpt><trkpt lat="44.92997933333333" lon="7.833539949999999"><ele>238.0</ele><time>2026-05-02T19:28:06.933Z</time></trkpt><trkpt lat="44.9301126" lon="7.8334258666666665"><ele>238.0</ele><time>2026-05-02T19:28:07.913Z</time></trkpt><trkpt lat="44.930249149999995" lon="7.833309616666665"><ele>238.0</ele><time>2026-05-02T19:28:08.942Z</time></trkpt><trkpt lat="44.93038551666667" lon="7.833192933333333"><ele>238.0</ele><time>2026-05-02T19:28:09.915Z</time></trkpt><trkpt lat="44.930524500000004" lon="7.833072650000001"><ele>238.0</ele><time>2026-05-02T19:28:10.934Z</time></trkpt><trkpt lat="44.93066648333333" lon="7.8329497"><ele>238.0</ele><time>2026-05-02T19:28:11.916Z</time></trkpt><trkpt lat="44.93081148333334" lon="7.832824049999999"><ele>237.66666666666666</ele><time>2026-05-02T19:28:12.972Z</time></trkpt><trkpt lat="44.93097174999999" lon="7.832685500000001"><ele>237.33333333333331</ele><time>2026-05-02T19:28:14.017Z</time></trkpt><trkpt lat="44.931104850000004" lon="7.8325708333333335"><ele>237.0</ele><time>2026-05-02T19:28:14.915Z</time></trkpt><trkpt lat="44.93125606666668" lon="7.83244015"><ele>237.0</ele><time>2026-05-02T19:28:15.915Z</time></trkpt><trkpt lat="44.93141028333332" lon="7.832306883333333"><ele>237.0</ele><time>2026-05-02T19:28:16.917Z</time></trkpt><trkpt lat="44.93156510000001" lon="7.8321747"><ele>237.0</ele><time>2026-05-02T19:28:17.923Z</time></trkpt><trkpt lat="44.93172318333333" lon="7.832040683333335"><ele>236.66666666666669</ele><time>2026-05-02T19:28:18.914Z</time></trkpt><trkpt lat="44.93189618333334" lon="7.83189315"><ele>236.33333333333334</ele><time>2026-05-02T19:28:20.014Z</time></trkpt><trkpt lat="44.93204178333333" lon="7.831768433333333"><ele>236.0</ele><time>2026-05-02T19:28:20.916Z</time></trkpt><trkpt lat="44.93220238333333" lon="7.831630383333334"><ele>236.66666666666669</ele><time>2026-05-02T19:28:21.933Z</time></trkpt><trkpt lat="44.932362733333335" lon="7.831491583333333"><ele>237.33333333333331</ele><time>2026-05-02T19:28:22.914Z</time></trkpt><trkpt lat="44.932520733333334" lon="7.8313573"><ele>238.0</ele><time>2026-05-02T19:28:23.93Z</time></trkpt><trkpt lat="44.93267898333333" lon="7.831223783333333"><ele>238.0</ele><time>2026-05-02T19:28:24.915Z</time></trkpt><trkpt lat="44.932852483333335" lon="7.831077516666666"><ele>238.0</ele><time>2026-05-02T19:28:26.028Z</time></trkpt><trkpt lat="44.93299531666666" lon="7.830956566666667"><ele>238.0</ele><time>2026-05-02T19:28:26.915Z</time></trkpt><trkpt lat="44.933168400000014" lon="7.83080945"><ele>238.0</ele><time>2026-05-02T19:28:28.018Z</time></trkpt><trkpt lat="44.93330803333333" lon="7.830690683333334"><ele>238.0</ele><time>2026-05-02T19:28:28.913Z</time></trkpt><trkpt lat="44.933480949999996" lon="7.830543416666666"><ele>238.0</ele><time>2026-05-02T19:28:30.017Z</time></trkpt><trkpt lat="44.933635933333335" lon="7.830412066666666"><ele>238.0</ele><time>2026-05-02T19:28:31.045Z</time></trkpt><trkpt lat="44.933793683333334" lon="7.830277883333333"><ele>238.0</ele><time>2026-05-02T19:28:32.016Z</time></trkpt><trkpt lat="44.93393291666666" lon="7.8301582666666665"><ele>238.0</ele><time>2026-05-02T19:28:32.916Z</time></trkpt><trkpt lat="44.93410155" lon="7.830010833333334"><ele>238.66666666666666</ele><time>2026-05-02T19:28:34.014Z</time></trkpt><trkpt lat="44.93423893333333" lon="7.829887366666666"><ele>239.33333333333331</ele><time>2026-05-02T19:28:34.914Z</time></trkpt><trkpt lat="44.934392983333325" lon="7.829745033333334"><ele>240.0</ele><time>2026-05-02T19:28:35.943Z</time></trkpt><trkpt lat="44.93454546666667" lon="7.8295992"><ele>240.0</ele><time>2026-05-02T19:28:36.918Z</time></trkpt><trkpt lat="44.9347022" lon="7.829459549999999"><ele>240.0</ele><time>2026-05-02T19:28:37.951Z</time></trkpt><trkpt lat="44.934851316666666" lon="7.829307249999999"><ele>240.0</ele><time>2026-05-02T19:28:38.922Z</time></trkpt><trkpt lat="44.93500201666667" lon="7.8291495"><ele>239.33333333333331</ele><time>2026-05-02T19:28:39.952Z</time></trkpt><trkpt lat="44.935151633333334" lon="7.82898975"><ele>238.66666666666666</ele><time>2026-05-02T19:28:40.915Z</time></trkpt><trkpt lat="44.93530041666666" lon="7.828828399999999"><ele>238.0</ele><time>2026-05-02T19:28:41.933Z</time></trkpt><trkpt lat="44.93545136666667" lon="7.828662933333334"><ele>238.0</ele><time>2026-05-02T19:28:42.917Z</time></trkpt><trkpt lat="44.93560141666667" lon="7.8284958"><ele>238.0</ele><time>2026-05-02T19:28:43.93Z</time></trkpt><trkpt lat="44.935753033333334" lon="7.828323383333333"><ele>238.0</ele><time>2026-05-02T19:28:44.92Z</time></trkpt><trkpt lat="44.93590089999999" lon="7.8281523166666656"><ele>238.33333333333331</ele><time>2026-05-02T19:28:45.939Z</time></trkpt><trkpt lat="44.93605386666667" lon="7.827974449999999"><ele>238.66666666666669</ele><time>2026-05-02T19:28:46.928Z</time></trkpt><trkpt lat="44.93620080000001" lon="7.8278019500000005"><ele>239.0</ele><time>2026-05-02T19:28:47.939Z</time></trkpt><trkpt lat="44.93634975" lon="7.827625"><ele>239.0</ele><time>2026-05-02T19:28:48.915Z</time></trkpt><trkpt lat="44.93649165" lon="7.827451916666667"><ele>239.0</ele><time>2026-05-02T19:28:49.938Z</time></trkpt><trkpt lat="44.93662895000001" lon="7.827279333333332"><ele>239.0</ele><time>2026-05-02T19:28:50.915Z</time></trkpt><trkpt lat="44.936763400000004" lon="7.827102316666666"><ele>239.0</ele><time>2026-05-02T19:28:51.944Z</time></trkpt><trkpt lat="44.936893899999994" lon="7.826919500000001"><ele>239.0</ele><time>2026-05-02T19:28:52.915Z</time></trkpt><trkpt lat="44.93701636666666" lon="7.826733083333333"><ele>239.0</ele><time>2026-05-02T19:28:53.933Z</time></trkpt><trkpt lat="44.937131016666676" lon="7.826543483333333"><ele>239.33333333333334</ele><time>2026-05-02T19:28:54.966Z</time></trkpt><trkpt lat="44.93724158333333" lon="7.8263492"><ele>239.66666666666669</ele><time>2026-05-02T19:28:55.95Z</time></trkpt><trkpt lat="44.93734593333334" lon="7.826154483333333"><ele>240.0</ele><time>2026-05-02T19:28:56.916Z</time></trkpt><trkpt lat="44.937445433333345" lon="7.825961033333334"><ele>240.66666666666669</ele><time>2026-05-02T19:28:57.934Z</time></trkpt><trkpt lat="44.937543999999995" lon="7.825766650000001"><ele>241.33333333333334</ele><time>2026-05-02T19:28:58.918Z</time></trkpt><trkpt lat="44.937640566666666" lon="7.825576383333334"><ele>242.0</ele><time>2026-05-02T19:28:59.919Z</time></trkpt><trkpt lat="44.937734433333326" lon="7.825389716666666"><ele>243.0</ele><time>2026-05-02T19:29:00.913Z</time></trkpt><trkpt lat="44.937825383333326" lon="7.8252149499999994"><ele>244.0</ele><time>2026-05-02T19:29:01.916Z</time></trkpt><trkpt lat="44.937919349999994" lon="7.825028466666667"><ele>245.0</ele><time>2026-05-02T19:29:02.915Z</time></trkpt><trkpt lat="44.93801103333334" lon="7.824845816666667"><ele>245.0</ele><time>2026-05-02T19:29:03.916Z</time></trkpt><trkpt lat="44.93810466666667" lon="7.824658983333334"><ele>245.0</ele><time>2026-05-02T19:29:04.905Z</time></trkpt><trkpt lat="44.938196533333326" lon="7.8244766000000014"><ele>245.0</ele><time>2026-05-02T19:29:05.916Z</time></trkpt><trkpt lat="44.93828621666667" lon="7.824298066666667"><ele>245.0</ele><time>2026-05-02T19:29:06.946Z</time></trkpt><trkpt lat="44.938377833333334" lon="7.824115333333332"><ele>245.0</ele><time>2026-05-02T19:29:07.915Z</time></trkpt><trkpt lat="44.93846743333334" lon="7.823936799999999"><ele>245.0</ele><time>2026-05-02T19:29:08.95Z</time></trkpt><trkpt lat="44.93855511666667" lon="7.823762449999999"><ele>245.33333333333334</ele><time>2026-05-02T19:29:09.925Z</time></trkpt><trkpt lat="44.938644800000006" lon="7.823583999999999"><ele>245.66666666666669</ele><time>2026-05-02T19:29:10.944Z</time></trkpt><trkpt lat="44.93873171666668" lon="7.823409000000001"><ele>246.0</ele><time>2026-05-02T19:29:11.915Z</time></trkpt><trkpt lat="44.93881838333334" lon="7.823233733333332"><ele>246.0</ele><time>2026-05-02T19:29:12.939Z</time></trkpt><trkpt lat="44.938903716666665" lon="7.82306315"><ele>246.0</ele><time>2026-05-02T19:29:13.917Z</time></trkpt><trkpt lat="44.93898963333333" lon="7.822893333333334"><ele>246.0</ele><time>2026-05-02T19:29:14.919Z</time></trkpt><trkpt lat="44.93907135" lon="7.8227313999999994"><ele>246.0</ele><time>2026-05-02T19:29:15.939Z</time></trkpt><trkpt lat="44.93915458333333" lon="7.822565016666665"><ele>246.0</ele><time>2026-05-02T19:29:16.917Z</time></trkpt><trkpt lat="44.939235716666666" lon="7.822402666666667"><ele>246.0</ele><time>2026-05-02T19:29:17.932Z</time></trkpt><trkpt lat="44.939315266666675" lon="7.8222530500000005"><ele>246.0</ele><time>2026-05-02T19:29:18.921Z</time></trkpt><trkpt lat="44.93939891666667" lon="7.822087083333334"><ele>246.0</ele><time>2026-05-02T19:29:19.94Z</time></trkpt><trkpt lat="44.939480716666665" lon="7.821925233333333"><ele>245.75</ele><time>2026-05-02T19:29:20.916Z</time></trkpt><trkpt lat="44.93956471666667" lon="7.8217596"><ele>245.5</ele><time>2026-05-02T19:29:21.944Z</time></trkpt><trkpt lat="44.939648616666666" lon="7.821593883333333"><ele>245.25</ele><time>2026-05-02T19:29:22.915Z</time></trkpt><trkpt lat="44.93973235" lon="7.821427933333333"><ele>245.0</ele><time>2026-05-02T19:29:23.933Z</time></trkpt><trkpt lat="44.939815749999994" lon="7.821261633333333"><ele>245.0</ele><time>2026-05-02T19:29:24.916Z</time></trkpt><trkpt lat="44.93989915000001" lon="7.821095333333333"><ele>245.0</ele><time>2026-05-02T19:29:25.943Z</time></trkpt><trkpt lat="44.93998061666666" lon="7.820933316666666"><ele>245.0</ele><time>2026-05-02T19:29:26.921Z</time></trkpt><trkpt lat="44.94006218333334" lon="7.8207712833333325"><ele>245.0</ele><time>2026-05-02T19:29:27.943Z</time></trkpt><trkpt lat="44.94013969999999" lon="7.8206174"><ele>245.0</ele><time>2026-05-02T19:29:28.919Z</time></trkpt><trkpt lat="44.94022536666666" lon="7.8204475"><ele>245.0</ele><time>2026-05-02T19:29:30.044Z</time></trkpt><trkpt lat="44.94029268333333" lon="7.820313883333334"><ele>245.0</ele><time>2026-05-02T19:29:30.916Z</time></trkpt><trkpt lat="44.940364100000004" lon="7.820172316666666"><ele>245.0</ele><time>2026-05-02T19:29:31.915Z</time></trkpt><trkpt lat="44.94043131666667" lon="7.820038883333332"><ele>245.00000000000003</ele><time>2026-05-02T19:29:32.914Z</time></trkpt><trkpt lat="44.940490233333335" lon="7.81992145"><ele>245.0</ele><time>2026-05-02T19:29:33.914Z</time></trkpt><trkpt lat="44.94054388333333" lon="7.819825483333333"><ele>245.0</ele><time>2026-05-02T19:29:34.919Z</time></trkpt><trkpt lat="44.94059274999999" lon="7.8197285"><ele>245.0</ele><time>2026-05-02T19:29:35.917Z</time></trkpt><trkpt lat="44.94063558333333" lon="7.81964375"><ele>245.00000000000003</ele><time>2026-05-02T19:29:36.915Z</time></trkpt><trkpt lat="44.940672383333336" lon="7.819571166666667"><ele>245.0</ele><time>2026-05-02T19:29:37.916Z</time></trkpt><trkpt lat="44.94072979999999" lon="7.819458433333334"><ele>245.00000000000003</ele><time>2026-05-02T19:29:39.931Z</time></trkpt><trkpt lat="44.94076876666666" lon="7.819381983333333"><ele>245.0</ele><time>2026-05-02T19:29:42.915Z</time></trkpt><trkpt lat="44.9408101" lon="7.819305216666667"><ele>245.0</ele><time>2026-05-02T19:30:03.023Z</time></trkpt><trkpt lat="44.94086885" lon="7.819187783333333"><ele>245.0</ele><time>2026-05-02T19:30:04.915Z</time></trkpt><trkpt lat="44.94090723333334" lon="7.819110750000001"><ele>245.00000000000003</ele><time>2026-05-02T19:30:05.916Z</time></trkpt><trkpt lat="44.940949816666674" lon="7.819025766666666"><ele>245.0</ele><time>2026-05-02T19:30:06.922Z</time></trkpt><trkpt lat="44.94099843333333" lon="7.818928616666667"><ele>245.0</ele><time>2026-05-02T19:30:07.916Z</time></trkpt><trkpt lat="44.941053333333336" lon="7.818819399999999"><ele>245.0</ele><time>2026-05-02T19:30:08.919Z</time></trkpt><trkpt lat="44.941110583333334" lon="7.818706416666667"><ele>245.0</ele><time>2026-05-02T19:30:09.916Z</time></trkpt><trkpt lat="44.94117804999999" lon="7.8185733000000015"><ele>245.0</ele><time>2026-05-02T19:30:11.042Z</time></trkpt><trkpt lat="44.94123748333333" lon="7.818456383333333"><ele>245.0</ele><time>2026-05-02T19:30:11.915Z</time></trkpt><trkpt lat="44.94130513333333" lon="7.81832335"><ele>244.75</ele><time>2026-05-02T19:30:12.962Z</time></trkpt><trkpt lat="44.941379049999995" lon="7.818178183333333"><ele>244.5</ele><time>2026-05-02T19:30:13.921Z</time></trkpt><trkpt lat="44.94145466666667" lon="7.8180286500000005"><ele>244.25</ele><time>2026-05-02T19:30:14.925Z</time></trkpt><trkpt lat="44.941531950000005" lon="7.817874666666667"><ele>244.0</ele><time>2026-05-02T19:30:15.917Z</time></trkpt><trkpt lat="44.94161316666667" lon="7.817712316666666"><ele>244.33333333333331</ele><time>2026-05-02T19:30:16.925Z</time></trkpt><trkpt lat="44.94169865" lon="7.817541999999999"><ele>244.66666666666669</ele><time>2026-05-02T19:30:17.921Z</time></trkpt><trkpt lat="44.94178481666666" lon="7.817372183333333"><ele>245.0</ele><time>2026-05-02T19:30:18.945Z</time></trkpt><trkpt lat="44.941875100000004" lon="7.817194316666666"><ele>244.66666666666669</ele><time>2026-05-02T19:30:19.915Z</time></trkpt><trkpt lat="44.94196696666666" lon="7.817011916666667"><ele>244.33333333333331</ele><time>2026-05-02T19:30:20.92Z</time></trkpt><trkpt lat="44.942060166666664" lon="7.816824666666668"><ele>244.0</ele><time>2026-05-02T19:30:21.915Z</time></trkpt><trkpt lat="44.9421533" lon="7.816637166666667"><ele>244.0</ele><time>2026-05-02T19:30:22.938Z</time></trkpt><trkpt lat="44.94224893333334" lon="7.816446066666666"><ele>244.0</ele><time>2026-05-02T19:30:23.923Z</time></trkpt><trkpt lat="44.94234531666666" lon="7.816255699999999"><ele>244.0</ele><time>2026-05-02T19:30:24.934Z</time></trkpt><trkpt lat="44.9424356" lon="7.8160776"><ele>244.33333333333331</ele><time>2026-05-02T19:30:25.916Z</time></trkpt><trkpt lat="44.94252528333333" lon="7.815898883333333"><ele>244.66666666666669</ele><time>2026-05-02T19:30:26.925Z</time></trkpt><trkpt lat="44.942612700000005" lon="7.815724133333333"><ele>245.0</ele><time>2026-05-02T19:30:27.917Z</time></trkpt><trkpt lat="44.9426961" lon="7.815557583333333"><ele>245.25</ele><time>2026-05-02T19:30:28.924Z</time></trkpt><trkpt lat="44.942777583333324" lon="7.8153952166666665"><ele>245.5</ele><time>2026-05-02T19:30:29.92Z</time></trkpt><trkpt lat="44.94285913333333" lon="7.8152330333333335"><ele>245.75</ele><time>2026-05-02T19:30:30.924Z</time></trkpt><trkpt lat="44.94295239288074" lon="7.815088814676537"><ele>246.0</ele><time>2026-05-02T19:30:31.917Z</time></trkpt><trkpt lat="44.94303417969256" lon="7.814926878694811"><ele>246.25</ele><time>2026-05-02T19:30:32.928Z</time></trkpt><trkpt lat="44.94311593046006" lon="7.814764980476015"><ele>246.5</ele><time>2026-05-02T19:30:33.918Z</time></trkpt><trkpt lat="44.94319771479171" lon="7.814603015768276"><ele>246.75</ele><time>2026-05-02T19:30:34.925Z</time></trkpt><trkpt lat="44.94327946569784" lon="7.814441117332858"><ele>247.0</ele><time>2026-05-02T19:30:35.92Z</time></trkpt><trkpt lat="44.943363274676784" lon="7.814275142970263"><ele>247.0</ele><time>2026-05-02T19:30:36.941Z</time></trkpt><trkpt lat="44.94344708947622" lon="7.814109157305702"><ele>247.0</ele><time>2026-05-02T19:30:37.916Z</time></trkpt><trkpt lat="44.9435308931153" lon="7.813943193642293"><ele>247.0</ele><time>2026-05-02T19:30:38.925Z</time></trkpt><trkpt lat="44.943616782498665" lon="7.8137730993966965"><ele>247.0</ele><time>2026-05-02T19:30:39.916Z</time></trkpt><trkpt lat="44.943712849340514" lon="7.813582849856373"><ele>247.5</ele><time>2026-05-02T19:30:41.062Z</time></trkpt><trkpt lat="44.9437926085509" lon="7.813424892534301"><ele>248.0</ele><time>2026-05-02T19:30:41.923Z</time></trkpt><trkpt lat="44.943881036050875" lon="7.8132513362342415"><ele>248.5</ele><time>2026-05-02T19:30:42.939Z</time></trkpt><trkpt lat="44.94396957995516" lon="7.813077899961219"><ele>249.0</ele><time>2026-05-02T19:30:43.917Z</time></trkpt><trkpt lat="44.94406039544476" lon="7.8129005123034645"><ele>249.0</ele><time>2026-05-02T19:30:44.928Z</time></trkpt><trkpt lat="44.94416356453582" lon="7.81269899747168"><ele>249.0</ele><time>2026-05-02T19:30:46.017Z</time></trkpt><trkpt lat="44.944247413867274" lon="7.81253270359775"><ele>249.0</ele><time>2026-05-02T19:30:46.92Z</time></trkpt><trkpt lat="44.94433804139452" lon="7.812354656417244"><ele>249.0</ele><time>2026-05-02T19:30:47.918Z</time></trkpt><trkpt lat="44.944434646714384" lon="7.81216469751195"><ele>249.0</ele><time>2026-05-02T19:30:48.917Z</time></trkpt><trkpt lat="44.94453130278211" lon="7.8119746978819045"><ele>249.0</ele><time>2026-05-02T19:30:49.944Z</time></trkpt><trkpt lat="44.94463208471395" lon="7.811776587989113"><ele>249.0</ele><time>2026-05-02T19:30:50.944Z</time></trkpt><trkpt lat="44.9447328476369" lon="7.811578448897217"><ele>249.0</ele><time>2026-05-02T19:30:51.929Z</time></trkpt><trkpt lat="44.94483366220283" lon="7.811380200106249"><ele>249.0</ele><time>2026-05-02T19:30:52.925Z</time></trkpt><trkpt lat="44.944936492882036" lon="7.811177899306996"><ele>249.0</ele><time>2026-05-02T19:30:53.917Z</time></trkpt><trkpt lat="44.94504137295387" lon="7.810971494407031"><ele>249.0</ele><time>2026-05-02T19:30:54.931Z</time></trkpt><trkpt lat="44.94514626426312" lon="7.8107650673706965"><ele>249.0</ele><time>2026-05-02T19:30:55.923Z</time></trkpt><trkpt lat="44.945251169805246" lon="7.810558418588344"><ele>249.0</ele><time>2026-05-02T19:30:56.953Z</time></trkpt><trkpt lat="44.94535540729138" lon="7.810351356952344"><ele>249.0</ele><time>2026-05-02T19:30:57.92Z</time></trkpt><trkpt lat="44.945459672968795" lon="7.810144239298311"><ele>249.0</ele><time>2026-05-02T19:30:58.976Z</time></trkpt><trkpt lat="44.94556393858904" lon="7.809937121745373"><ele>248.66666666666669</ele><time>2026-05-02T19:30:59.92Z</time></trkpt><trkpt lat="44.94566818185947" lon="7.809730048583351"><ele>248.33333333333334</ele><time>2026-05-02T19:31:00.92Z</time></trkpt><trkpt lat="44.94577244743658" lon="7.809522931145526"><ele>248.0</ele><time>2026-05-02T19:31:01.971Z</time></trkpt><trkpt lat="44.94587668502681" lon="7.809315869265467"><ele>248.33333333333334</ele><time>2026-05-02T19:31:02.921Z</time></trkpt><trkpt lat="44.94597887982804" lon="7.8091128653102855"><ele>248.66666666666669</ele><time>2026-05-02T19:31:03.957Z</time></trkpt><trkpt lat="44.9460830838783" lon="7.808905870112069"><ele>249.0</ele><time>2026-05-02T19:31:04.918Z</time></trkpt><trkpt lat="44.9461852510862" lon="7.808702920842085"><ele>249.0</ele><time>2026-05-02T19:31:05.985Z</time></trkpt><trkpt lat="44.94628953003109" lon="7.808496003319524"><ele>249.0</ele><time>2026-05-02T19:31:06.932Z</time></trkpt><trkpt lat="44.94637601666667" lon="7.808277399999999"><ele>249.0</ele><time>2026-05-02T19:31:07.916Z</time></trkpt><trkpt lat="44.946488333333335" lon="7.808054183333334"><ele>249.0</ele><time>2026-05-02T19:31:09.014Z</time></trkpt><trkpt lat="44.94658228333333" lon="7.807867433333333"><ele>249.0</ele><time>2026-05-02T19:31:09.918Z</time></trkpt><trkpt lat="44.94669486666667" lon="7.807644316666667"><ele>249.0</ele><time>2026-05-02T19:31:11.05Z</time></trkpt><trkpt lat="44.94680234346959" lon="7.807477404711747"><ele>249.0</ele><time>2026-05-02T19:31:11.916Z</time></trkpt><trkpt lat="44.94690479856307" lon="7.807274861133121"><ele>249.0</ele><time>2026-05-02T19:31:12.907Z</time></trkpt><trkpt lat="44.947007266814595" lon="7.807072297612139"><ele>249.0</ele><time>2026-05-02T19:31:13.916Z</time></trkpt><trkpt lat="44.947093166666676" lon="7.806853216666667"><ele>249.0</ele><time>2026-05-02T19:31:14.917Z</time></trkpt><trkpt lat="44.947195516666675" lon="7.8066505500000005"><ele>249.0</ele><time>2026-05-02T19:31:15.916Z</time></trkpt><trkpt lat="44.94729593333333" lon="7.806452149999999"><ele>249.0</ele><time>2026-05-02T19:31:16.924Z</time></trkpt><trkpt lat="44.94739843333333" lon="7.806249650000001"><ele>249.0</ele><time>2026-05-02T19:31:17.939Z</time></trkpt><trkpt lat="44.947516650641234" lon="7.806062901084"><ele>249.0</ele><time>2026-05-02T19:31:18.915Z</time></trkpt><trkpt lat="44.94762086749974" lon="7.80585606732791"><ele>249.0</ele><time>2026-05-02T19:31:19.927Z</time></trkpt><trkpt lat="44.94772309089703" lon="7.805653189838414"><ele>249.66666666666669</ele><time>2026-05-02T19:31:20.919Z</time></trkpt><trkpt lat="44.94782762453263" lon="7.805446772914323"><ele>250.33333333333334</ele><time>2026-05-02T19:31:21.907Z</time></trkpt><trkpt lat="44.94793220076124" lon="7.805240300470237"><ele>251.0</ele><time>2026-05-02T19:31:22.916Z</time></trkpt><trkpt lat="44.94803677779342" lon="7.805033826332011"><ele>251.0</ele><time>2026-05-02T19:31:23.917Z</time></trkpt><trkpt lat="44.94814116708443" lon="7.804827067317678"><ele>251.0</ele><time>2026-05-02T19:31:24.908Z</time></trkpt><trkpt lat="44.948245682739014" lon="7.804620643151641"><ele>251.0</ele><time>2026-05-02T19:31:25.919Z</time></trkpt><trkpt lat="44.94835032223044" lon="7.804414218229925"><ele>251.0</ele><time>2026-05-02T19:31:26.916Z</time></trkpt><trkpt lat="44.9484570075406" lon="7.804203757395896"><ele>251.0</ele><time>2026-05-02T19:31:27.912Z</time></trkpt><trkpt lat="44.94856370370828" lon="7.803993275338152"><ele>251.0</ele><time>2026-05-02T19:31:28.916Z</time></trkpt><trkpt lat="44.94867248644127" lon="7.803778676785766"><ele>251.0</ele><time>2026-05-02T19:31:29.916Z</time></trkpt><trkpt lat="44.94877917876854" lon="7.80356820240702"><ele>251.0</ele><time>2026-05-02T19:31:30.916Z</time></trkpt><trkpt lat="44.948887986010135" lon="7.8033535589641225"><ele>251.0</ele><time>2026-05-02T19:31:31.917Z</time></trkpt><trkpt lat="44.948996743326134" lon="7.803139016489671"><ele>251.0</ele><time>2026-05-02T19:31:32.916Z</time></trkpt><trkpt lat="44.94910755889903" lon="7.802920401559319"><ele>251.0</ele><time>2026-05-02T19:31:33.916Z</time></trkpt><trkpt lat="44.94920188333334" lon="7.802694549999999"><ele>251.0</ele><time>2026-05-02T19:31:34.921Z</time></trkpt><trkpt lat="44.949312616666674" lon="7.802475783333334"><ele>250.33333333333334</ele><time>2026-05-02T19:31:35.907Z</time></trkpt><trkpt lat="44.94942358333333" lon="7.8022572666666665"><ele>249.66666666666669</ele><time>2026-05-02T19:31:36.916Z</time></trkpt><trkpt lat="44.949547948403264" lon="7.802052129076023"><ele>249.0</ele><time>2026-05-02T19:31:37.917Z</time></trkpt><trkpt lat="44.94965890515121" lon="7.801833609884332"><ele>249.0</ele><time>2026-05-02T19:31:38.921Z</time></trkpt><trkpt lat="44.949769735608584" lon="7.801614858366908"><ele>249.0</ele><time>2026-05-02T19:31:39.917Z</time></trkpt><trkpt lat="44.94988268904313" lon="7.801392115829789"><ele>249.0</ele><time>2026-05-02T19:31:40.92Z</time></trkpt><trkpt lat="44.94999355082583" lon="7.801173497887988"><ele>250.33333333333331</ele><time>2026-05-02T19:31:41.94Z</time></trkpt><trkpt lat="44.950106376672856" lon="7.800950669877363"><ele>251.66666666666666</ele><time>2026-05-02T19:31:42.921Z</time></trkpt><trkpt lat="44.950219113378424" lon="7.800727857935134"><ele>253.0</ele><time>2026-05-02T19:31:43.936Z</time></trkpt><trkpt lat="44.95033186714661" lon="7.800505012330541"><ele>253.0</ele><time>2026-05-02T19:31:44.923Z</time></trkpt><trkpt lat="44.9504446273257" lon="7.800282161763154"><ele>253.0</ele><time>2026-05-02T19:31:45.917Z</time></trkpt><trkpt lat="44.95055532141083" lon="7.800063456682406"><ele>253.0</ele><time>2026-05-02T19:31:46.919Z</time></trkpt><trkpt lat="44.95066335415866" lon="7.799847971608831"><ele>253.33333333333331</ele><time>2026-05-02T19:31:47.917Z</time></trkpt><trkpt lat="44.95077106751747" lon="7.799638975357723"><ele>253.66666666666669</ele><time>2026-05-02T19:31:48.917Z</time></trkpt><trkpt lat="44.95087877522819" lon="7.799429606692021"><ele>254.0</ele><time>2026-05-02T19:31:49.919Z</time></trkpt><trkpt lat="44.9509842637357" lon="7.7992241388033205"><ele>254.0</ele><time>2026-05-02T19:31:50.923Z</time></trkpt><trkpt lat="44.95109184668133" lon="7.799014838523299"><ele>254.0</ele><time>2026-05-02T19:31:51.922Z</time></trkpt><trkpt lat="44.951197408949234" lon="7.798809470382724"><ele>254.0</ele><time>2026-05-02T19:31:52.916Z</time></trkpt><trkpt lat="44.95130382278138" lon="7.798598541904592"><ele>253.66666666666669</ele><time>2026-05-02T19:31:53.921Z</time></trkpt><trkpt lat="44.95140997826234" lon="7.798387716124196"><ele>253.33333333333331</ele><time>2026-05-02T19:31:54.917Z</time></trkpt><trkpt lat="44.95151626065939" lon="7.798176998550932"><ele>253.0</ele><time>2026-05-02T19:31:55.921Z</time></trkpt><trkpt lat="44.95162269320474" lon="7.797966465653791"><ele>253.0</ele><time>2026-05-02T19:31:56.918Z</time></trkpt><trkpt lat="44.95172899445362" lon="7.79775583704562"><ele>253.0</ele><time>2026-05-02T19:31:57.92Z</time></trkpt><trkpt lat="44.95181041666666" lon="7.7975202333333336"><ele>253.0</ele><time>2026-05-02T19:31:58.92Z</time></trkpt><trkpt lat="44.951916616666665" lon="7.7973095"><ele>253.0</ele><time>2026-05-02T19:31:59.944Z</time></trkpt><trkpt lat="44.95202248333333" lon="7.79709845"><ele>253.0</ele><time>2026-05-02T19:32:00.92Z</time></trkpt><trkpt lat="44.95214251666666" lon="7.7968786"><ele>253.0</ele><time>2026-05-02T19:32:02.018Z</time></trkpt><trkpt lat="44.952257253307074" lon="7.796706836679349"><ele>253.0</ele><time>2026-05-02T19:32:02.917Z</time></trkpt><trkpt lat="44.952361220112394" lon="7.796499860531567"><ele>253.0</ele><time>2026-05-02T19:32:03.938Z</time></trkpt><trkpt lat="44.95246775118681" lon="7.7962895835606645"><ele>253.0</ele><time>2026-05-02T19:32:04.918Z</time></trkpt><trkpt lat="44.95257206243734" lon="7.796083260890787"><ele>252.66666666666666</ele><time>2026-05-02T19:32:05.931Z</time></trkpt><trkpt lat="44.95267848383671" lon="7.7958727644464"><ele>252.33333333333331</ele><time>2026-05-02T19:32:06.91Z</time></trkpt><trkpt lat="44.95278280293484" lon="7.79566625190989"><ele>252.0</ele><time>2026-05-02T19:32:07.936Z</time></trkpt><trkpt lat="44.95288496754763" lon="7.795463816057339"><ele>252.0</ele><time>2026-05-02T19:32:08.919Z</time></trkpt><trkpt lat="44.95297038333333" lon="7.795244616666667"><ele>252.0</ele><time>2026-05-02T19:32:09.926Z</time></trkpt><trkpt lat="44.95307046666667" lon="7.795046299999999"><ele>252.0</ele><time>2026-05-02T19:32:10.921Z</time></trkpt><trkpt lat="44.95316853333334" lon="7.794852016666666"><ele>252.33333333333331</ele><time>2026-05-02T19:32:11.946Z</time></trkpt><trkpt lat="44.95326836666666" lon="7.794653533333333"><ele>252.66666666666666</ele><time>2026-05-02T19:32:12.924Z</time></trkpt><trkpt lat="44.95336593333334" lon="7.794458733333332"><ele>253.0</ele><time>2026-05-02T19:32:13.931Z</time></trkpt><trkpt lat="44.95346483333333" lon="7.794259333333334"><ele>253.33333333333331</ele><time>2026-05-02T19:32:14.921Z</time></trkpt><trkpt lat="44.953564416666666" lon="7.794060433333334"><ele>253.66666666666669</ele><time>2026-05-02T19:32:15.937Z</time></trkpt><trkpt lat="44.953662566666665" lon="7.793866216666667"><ele>254.0</ele><time>2026-05-02T19:32:16.911Z</time></trkpt><trkpt lat="44.953758199999996" lon="7.7936757000000005"><ele>253.66666666666669</ele><time>2026-05-02T19:32:17.956Z</time></trkpt><trkpt lat="44.95385191666666" lon="7.793489283333334"><ele>253.33333333333331</ele><time>2026-05-02T19:32:18.917Z</time></trkpt><trkpt lat="44.95396708898111" lon="7.793324459126616"><ele>253.0</ele><time>2026-05-02T19:32:19.926Z</time></trkpt><trkpt lat="44.95405899054332" lon="7.793142509729219"><ele>253.0</ele><time>2026-05-02T19:32:20.918Z</time></trkpt><trkpt lat="44.954129099999996" lon="7.7929448"><ele>253.0</ele><time>2026-05-02T19:32:21.96Z</time></trkpt><trkpt lat="44.95421745" lon="7.792771466666666"><ele>253.0</ele><time>2026-05-02T19:32:22.923Z</time></trkpt><trkpt lat="44.954303033333325" lon="7.792601566666668"><ele>252.5</ele><time>2026-05-02T19:32:23.93Z</time></trkpt><trkpt lat="44.95438408333333" lon="7.792439283333332"><ele>252.0</ele><time>2026-05-02T19:32:24.91Z</time></trkpt><trkpt lat="44.9544612" lon="7.792285399999999"><ele>251.5</ele><time>2026-05-02T19:32:25.929Z</time></trkpt><trkpt lat="44.95453026666667" lon="7.792147766666667"><ele>251.0</ele><time>2026-05-02T19:32:26.924Z</time></trkpt><trkpt lat="44.95459723333333" lon="7.792031833333334"><ele>251.00000000000003</ele><time>2026-05-02T19:32:27.936Z</time></trkpt><trkpt lat="44.95466018333333" lon="7.791918933333333"><ele>251.0</ele><time>2026-05-02T19:32:28.917Z</time></trkpt><trkpt lat="44.954726150000006" lon="7.791830083333334"><ele>251.0</ele><time>2026-05-02T19:32:29.932Z</time></trkpt><trkpt lat="44.95479596666667" lon="7.791773599999999"><ele>251.0</ele><time>2026-05-02T19:32:30.908Z</time></trkpt><trkpt lat="44.954867633333336" lon="7.79174995"><ele>251.00000000000003</ele><time>2026-05-02T19:32:31.959Z</time></trkpt><trkpt lat="44.95494375960646" lon="7.791766151425591"><ele>251.0</ele><time>2026-05-02T19:32:32.918Z</time></trkpt><trkpt lat="44.955016883537866" lon="7.7917322391529265"><ele>250.99999999999997</ele><time>2026-05-02T19:32:33.923Z</time></trkpt><trkpt lat="44.95506" lon="7.7916461833333335"><ele>251.0</ele><time>2026-05-02T19:32:34.917Z</time></trkpt><trkpt lat="44.955096966666666" lon="7.791568483333333"><ele>250.99999999999997</ele><time>2026-05-02T19:32:35.938Z</time></trkpt><trkpt lat="44.95511171666667" lon="7.791472349999999"><ele>250.99999999999997</ele><time>2026-05-02T19:32:36.917Z</time></trkpt><trkpt lat="44.955104666666664" lon="7.791364133333333"><ele>251.0</ele><time>2026-05-02T19:32:37.947Z</time></trkpt><trkpt lat="44.95509503333333" lon="7.791256266666666"><ele>250.99999999999997</ele><time>2026-05-02T19:32:38.911Z</time></trkpt><trkpt lat="44.95510308333334" lon="7.791143366666668"><ele>250.99999999999997</ele><time>2026-05-02T19:32:39.926Z</time></trkpt><trkpt lat="44.95513501666666" lon="7.791023083333333"><ele>250.60000000000002</ele><time>2026-05-02T19:32:40.921Z</time></trkpt><trkpt lat="44.95518053333333" lon="7.790914783333333"><ele>250.20000000000002</ele><time>2026-05-02T19:32:41.952Z</time></trkpt><trkpt lat="44.95524155" lon="7.790787633333334"><ele>249.79999999999998</ele><time>2026-05-02T19:32:42.918Z</time></trkpt><trkpt lat="44.955305166666655" lon="7.790656866666666"><ele>249.39999999999998</ele><time>2026-05-02T19:32:43.918Z</time></trkpt><trkpt lat="44.95537315" lon="7.7905184"><ele>249.0</ele><time>2026-05-02T19:32:44.911Z</time></trkpt><trkpt lat="44.95544750000001" lon="7.7903679499999985"><ele>249.0</ele><time>2026-05-02T19:32:45.936Z</time></trkpt><trkpt lat="44.95552210000001" lon="7.790217666666666"><ele>249.0</ele><time>2026-05-02T19:32:46.918Z</time></trkpt><trkpt lat="44.955598783333336" lon="7.7900633500000005"><ele>249.0</ele><time>2026-05-02T19:32:47.92Z</time></trkpt><trkpt lat="44.9556759" lon="7.789909366666667"><ele>249.0</ele><time>2026-05-02T19:32:48.922Z</time></trkpt><trkpt lat="44.95575326666667" lon="7.789755733333334"><ele>249.25</ele><time>2026-05-02T19:32:49.927Z</time></trkpt><trkpt lat="44.95582895" lon="7.789606366666667"><ele>249.5</ele><time>2026-05-02T19:32:50.922Z</time></trkpt><trkpt lat="44.955903883333335" lon="7.789456333333334"><ele>249.75</ele><time>2026-05-02T19:32:51.937Z</time></trkpt><trkpt lat="44.95597881666666" lon="7.789306300000001"><ele>250.0</ele><time>2026-05-02T19:32:52.923Z</time></trkpt><trkpt lat="44.956054099999996" lon="7.789156516666666"><ele>250.25</ele><time>2026-05-02T19:32:53.939Z</time></trkpt><trkpt lat="44.95612726666666" lon="7.789010833333333"><ele>250.5</ele><time>2026-05-02T19:32:54.921Z</time></trkpt><trkpt lat="44.95620026666667" lon="7.788864900000001"><ele>250.75</ele><time>2026-05-02T19:32:55.934Z</time></trkpt><trkpt lat="44.9562716" lon="7.788723416666667"><ele>251.0</ele><time>2026-05-02T19:32:56.92Z</time></trkpt><trkpt lat="44.956341766666675" lon="7.7885868"><ele>250.5</ele><time>2026-05-02T19:32:57.987Z</time></trkpt><trkpt lat="44.956414099999996" lon="7.788452516666666"><ele>250.0</ele><time>2026-05-02T19:32:58.91Z</time></trkpt><trkpt lat="44.956488783333334" lon="7.788327283333333"><ele>249.5</ele><time>2026-05-02T19:32:59.92Z</time></trkpt><trkpt lat="44.95656690000001" lon="7.7882130499999995"><ele>249.0</ele><time>2026-05-02T19:33:00.925Z</time></trkpt><trkpt lat="44.95664836666666" lon="7.788103583333332"><ele>249.33333333333334</ele><time>2026-05-02T19:33:01.92Z</time></trkpt><trkpt lat="44.95672146666667" lon="7.788010616666666"><ele>249.66666666666669</ele><time>2026-05-02T19:33:02.922Z</time></trkpt><trkpt lat="44.95678273333333" lon="7.787936183333334"><ele>250.0</ele><time>2026-05-02T19:33:03.908Z</time></trkpt><trkpt lat="44.95683386666666" lon="7.787875583333332"><ele>250.33333333333334</ele><time>2026-05-02T19:33:04.91Z</time></trkpt><trkpt lat="44.95688298333333" lon="7.787819433333334"><ele>250.66666666666669</ele><time>2026-05-02T19:33:05.923Z</time></trkpt><trkpt lat="44.95693670000001" lon="7.787755483333332"><ele>251.0</ele><time>2026-05-02T19:33:06.921Z</time></trkpt><trkpt lat="44.956987" lon="7.787679533333333"><ele>250.8</ele><time>2026-05-02T19:33:07.921Z</time></trkpt><trkpt lat="44.95702848333333" lon="7.78758775"><ele>250.60000000000002</ele><time>2026-05-02T19:33:08.908Z</time></trkpt><trkpt lat="44.9570642" lon="7.7874746833333335"><ele>250.4</ele><time>2026-05-02T19:33:09.917Z</time></trkpt><trkpt lat="44.95709478333333" lon="7.7873533166666675"><ele>250.2</ele><time>2026-05-02T19:33:10.922Z</time></trkpt><trkpt lat="44.95712723333333" lon="7.7872171"><ele>250.0</ele><time>2026-05-02T19:33:11.908Z</time></trkpt><trkpt lat="44.95716351666666" lon="7.787072183333333"><ele>250.0</ele><time>2026-05-02T19:33:12.924Z</time></trkpt><trkpt lat="44.95720643333334" lon="7.7869255"><ele>250.0</ele><time>2026-05-02T19:33:13.923Z</time></trkpt><trkpt lat="44.95726116666666" lon="7.786770099999999"><ele>250.0</ele><time>2026-05-02T19:33:14.92Z</time></trkpt><trkpt lat="44.95732555" lon="7.7866162999999995"><ele>250.0</ele><time>2026-05-02T19:33:15.921Z</time></trkpt><trkpt lat="44.95739805" lon="7.786457866666666"><ele>250.0</ele><time>2026-05-02T19:33:16.927Z</time></trkpt><trkpt lat="44.95748220000001" lon="7.786280433333333"><ele>250.0</ele><time>2026-05-02T19:33:18.029Z</time></trkpt><trkpt lat="44.95755571666667" lon="7.786128716666666"><ele>250.0</ele><time>2026-05-02T19:33:18.92Z</time></trkpt><trkpt lat="44.95764196666667" lon="7.785953116666668"><ele>250.0</ele><time>2026-05-02T19:33:19.918Z</time></trkpt><trkpt lat="44.957731066666675" lon="7.785774249999999"><ele>250.0</ele><time>2026-05-02T19:33:20.927Z</time></trkpt><trkpt lat="44.95782343333333" lon="7.785592366666666"><ele>250.0</ele><time>2026-05-02T19:33:21.922Z</time></trkpt><trkpt lat="44.957920316666666" lon="7.785408883333334"><ele>250.0</ele><time>2026-05-02T19:33:22.929Z</time></trkpt><trkpt lat="44.95802073333332" lon="7.785229333333333"><ele>249.0</ele><time>2026-05-02T19:33:23.92Z</time></trkpt><trkpt lat="44.958122" lon="7.785057083333333"><ele>248.0</ele><time>2026-05-02T19:33:24.931Z</time></trkpt><trkpt lat="44.95822793333333" lon="7.7848836666666665"><ele>247.0</ele><time>2026-05-02T19:33:25.919Z</time></trkpt><trkpt lat="44.95833095" lon="7.784720050000001"><ele>246.66666666666666</ele><time>2026-05-02T19:33:26.941Z</time></trkpt><trkpt lat="44.95843648333333" lon="7.784559533333334"><ele>246.33333333333331</ele><time>2026-05-02T19:33:27.919Z</time></trkpt><trkpt lat="44.95854476666666" lon="7.784402966666667"><ele>246.0</ele><time>2026-05-02T19:33:28.922Z</time></trkpt><trkpt lat="44.958653149999996" lon="7.784253433333333"><ele>245.5</ele><time>2026-05-02T19:33:29.921Z</time></trkpt><trkpt lat="44.95875984999999" lon="7.784108683333333"><ele>245.0</ele><time>2026-05-02T19:33:30.924Z</time></trkpt><trkpt lat="44.958869066666665" lon="7.783960316666666"><ele>244.5</ele><time>2026-05-02T19:33:31.919Z</time></trkpt><trkpt lat="44.9589756" lon="7.783815316666666"><ele>244.0</ele><time>2026-05-02T19:33:32.925Z</time></trkpt><trkpt lat="44.95908246666666" lon="7.783670716666667"><ele>244.0</ele><time>2026-05-02T19:33:33.919Z</time></trkpt><trkpt lat="44.959166197358485" lon="7.783512096987574"><ele>244.0</ele><time>2026-05-02T19:33:34.925Z</time></trkpt><trkpt lat="44.95925409154583" lon="7.783378749266603"><ele>244.0</ele><time>2026-05-02T19:33:35.92Z</time></trkpt><trkpt lat="44.95940233333334" lon="7.783328483333334"><ele>244.0</ele><time>2026-05-02T19:33:36.935Z</time></trkpt><trkpt lat="44.95951841666666" lon="7.7832446666666675"><ele>243.5</ele><time>2026-05-02T19:33:37.92Z</time></trkpt><trkpt lat="44.959634083333334" lon="7.783184483333335"><ele>243.0</ele><time>2026-05-02T19:33:38.938Z</time></trkpt><trkpt lat="44.959757383333326" lon="7.783142249999999"><ele>242.5</ele><time>2026-05-02T19:33:39.918Z</time></trkpt><trkpt lat="44.959876316666666" lon="7.7831218"><ele>242.0</ele><time>2026-05-02T19:33:40.917Z</time></trkpt><trkpt lat="44.9599997" lon="7.783121633333334"><ele>241.75</ele><time>2026-05-02T19:33:41.937Z</time></trkpt><trkpt lat="44.96012224999999" lon="7.783142249999999"><ele>241.5</ele><time>2026-05-02T19:33:42.92Z</time></trkpt><trkpt lat="44.96024563333333" lon="7.783183983333333"><ele>241.25</ele><time>2026-05-02T19:33:43.918Z</time></trkpt><trkpt lat="44.96037594505128" lon="7.783223510678552"><ele>241.0</ele><time>2026-05-02T19:33:44.948Z</time></trkpt><trkpt lat="44.960493493787204" lon="7.783309816398769"><ele>241.0</ele><time>2026-05-02T19:33:45.921Z</time></trkpt><trkpt lat="44.96060521115258" lon="7.78342193761783"><ele>241.0</ele><time>2026-05-02T19:33:46.919Z</time></trkpt><trkpt lat="44.96070624169863" lon="7.783550731820329"><ele>241.0</ele><time>2026-05-02T19:33:47.909Z</time></trkpt><trkpt lat="44.96079780480222" lon="7.783699715001856"><ele>241.0</ele><time>2026-05-02T19:33:48.923Z</time></trkpt><trkpt lat="44.96087546491555" lon="7.7838673055820005"><ele>240.75</ele><time>2026-05-02T19:33:49.928Z</time></trkpt><trkpt lat="44.96093392723836" lon="7.784050287278398"><ele>240.5</ele><time>2026-05-02T19:33:50.919Z</time></trkpt><trkpt lat="44.96097728185817" lon="7.784247279788595"><ele>240.25</ele><time>2026-05-02T19:33:51.913Z</time></trkpt><trkpt lat="44.960997050505185" lon="7.784443039517723"><ele>240.0</ele><time>2026-05-02T19:33:52.909Z</time></trkpt><trkpt lat="44.961005510714074" lon="7.784644972933838"><ele>240.5</ele><time>2026-05-02T19:33:53.927Z</time></trkpt><trkpt lat="44.96100578334968" lon="7.784848966328397"><ele>241.0</ele><time>2026-05-02T19:33:54.928Z</time></trkpt><trkpt lat="44.96098769596219" lon="7.7850477357812355"><ele>241.5</ele><time>2026-05-02T19:33:55.919Z</time></trkpt><trkpt lat="44.960950442385794" lon="7.785233902856444"><ele>242.0</ele><time>2026-05-02T19:33:56.942Z</time></trkpt><trkpt lat="44.960884440867645" lon="7.785404134100165"><ele>241.75</ele><time>2026-05-02T19:33:57.941Z</time></trkpt><trkpt lat="44.96079230000001" lon="7.78551935"><ele>241.5</ele><time>2026-05-02T19:33:58.918Z</time></trkpt><trkpt lat="44.96069985000001" lon="7.785626633333334"><ele>241.25</ele><time>2026-05-02T19:33:59.919Z</time></trkpt><trkpt lat="44.96059833333334" lon="7.785695966666666"><ele>241.0</ele><time>2026-05-02T19:34:00.971Z</time></trkpt><trkpt lat="44.96048845" lon="7.785731583333334"><ele>241.0</ele><time>2026-05-02T19:34:01.919Z</time></trkpt><trkpt lat="44.96037915" lon="7.785731583333334"><ele>241.00000000000003</ele><time>2026-05-02T19:34:02.925Z</time></trkpt><trkpt lat="44.96026918333333" lon="7.785696300000001"><ele>241.00000000000003</ele><time>2026-05-02T19:34:03.943Z</time></trkpt><trkpt lat="44.96017011666667" lon="7.785631166666667"><ele>241.0</ele><time>2026-05-02T19:34:04.923Z</time></trkpt><trkpt lat="44.96007623333333" lon="7.785534266666667"><ele>241.0</ele><time>2026-05-02T19:34:05.922Z</time></trkpt><trkpt lat="44.95999803333334" lon="7.785419433333334"><ele>241.5</ele><time>2026-05-02T19:34:06.92Z</time></trkpt><trkpt lat="44.959945890635446" lon="7.785267062756033"><ele>242.0</ele><time>2026-05-02T19:34:07.96Z</time></trkpt><trkpt lat="44.95988521666666" lon="7.78512305"><ele>242.5</ele><time>2026-05-02T19:34:09.054Z</time></trkpt><trkpt lat="44.95985755" lon="7.784948133333334"><ele>243.0</ele><time>2026-05-02T19:34:09.954Z</time></trkpt><trkpt lat="44.959840699999994" lon="7.784765316666666"><ele>243.0</ele><time>2026-05-02T19:34:10.919Z</time></trkpt><trkpt lat="44.95982728333334" lon="7.784571866666666"><ele>243.0</ele><time>2026-05-02T19:34:11.919Z</time></trkpt><trkpt lat="44.95981488333334" lon="7.784368100000001"><ele>243.0</ele><time>2026-05-02T19:34:12.916Z</time></trkpt><trkpt lat="44.95980306666667" lon="7.7841491666666665"><ele>243.0</ele><time>2026-05-02T19:34:13.929Z</time></trkpt><trkpt lat="44.95979233333334" lon="7.78391505"><ele>243.0</ele><time>2026-05-02T19:34:14.929Z</time></trkpt><trkpt lat="44.95979058333334" lon="7.78366385"><ele>243.0</ele><time>2026-05-02T19:34:15.923Z</time></trkpt><trkpt lat="44.95977951666667" lon="7.783404516666667"><ele>243.0</ele><time>2026-05-02T19:34:16.921Z</time></trkpt><trkpt lat="44.959768783333324" lon="7.783139983333332"><ele>243.0</ele><time>2026-05-02T19:34:17.919Z</time></trkpt><trkpt lat="44.95975838333334" lon="7.782860366666667"><ele>243.0</ele><time>2026-05-02T19:34:18.911Z</time></trkpt><trkpt lat="44.959747666666665" lon="7.782570683333334"><ele>243.0</ele><time>2026-05-02T19:34:19.919Z</time></trkpt><trkpt lat="44.959735849999994" lon="7.782277316666668"><ele>243.0</ele><time>2026-05-02T19:34:20.934Z</time></trkpt><trkpt lat="44.95972368333334" lon="7.781973799999999"><ele>243.0</ele><time>2026-05-02T19:34:21.92Z</time></trkpt><trkpt lat="44.95971966666666" lon="7.781656216666666"><ele>243.0</ele><time>2026-05-02T19:34:22.943Z</time></trkpt><trkpt lat="44.95970843333333" lon="7.781337366666666"><ele>242.5</ele><time>2026-05-02T19:34:23.943Z</time></trkpt><trkpt lat="44.95969736666666" lon="7.781013416666667"><ele>242.0</ele><time>2026-05-02T19:34:24.932Z</time></trkpt><trkpt lat="44.959685883333336" lon="7.78068425"><ele>242.0</ele><time>2026-05-02T19:34:25.925Z</time></trkpt><trkpt lat="44.95967423333333" lon="7.780350066666666"><ele>242.0</ele><time>2026-05-02T19:34:26.955Z</time></trkpt><trkpt lat="44.95966266666666" lon="7.780010850000001"><ele>241.5</ele><time>2026-05-02T19:34:27.944Z</time></trkpt><trkpt lat="44.95965856666667" lon="7.7796542"><ele>241.0</ele><time>2026-05-02T19:34:29.11Z</time></trkpt><trkpt lat="44.959646750000005" lon="7.779304766666667"><ele>241.0</ele><time>2026-05-02T19:34:29.932Z</time></trkpt><trkpt lat="44.95963751666667" lon="7.7789451833333345"><ele>241.0</ele><time>2026-05-02T19:34:30.956Z</time></trkpt><trkpt lat="44.95963106666667" lon="7.778580400000001"><ele>240.5</ele><time>2026-05-02T19:34:31.935Z</time></trkpt><trkpt lat="44.95962771666666" lon="7.778210250000001"><ele>240.0</ele><time>2026-05-02T19:34:32.962Z</time></trkpt><trkpt lat="44.95962871666667" lon="7.777800033333333"><ele>240.0</ele><time>2026-05-02T19:34:34.02Z</time></trkpt><trkpt lat="44.959633249999996" lon="7.7774650166666675"><ele>240.0</ele><time>2026-05-02T19:34:34.909Z</time></trkpt><trkpt lat="44.95964238333333" lon="7.777085066666666"><ele>239.5</ele><time>2026-05-02T19:34:35.92Z</time></trkpt><trkpt lat="44.95966308333333" lon="7.776703099999999"><ele>239.0</ele><time>2026-05-02T19:34:36.91Z</time></trkpt><trkpt lat="44.959680766666665" lon="7.7763238999999995"><ele>240.0</ele><time>2026-05-02T19:34:37.909Z</time></trkpt><trkpt lat="44.95970524999999" lon="7.7759354"><ele>241.0</ele><time>2026-05-02T19:34:38.923Z</time></trkpt><trkpt lat="44.959734250000004" lon="7.775547399999999"><ele>240.0</ele><time>2026-05-02T19:34:39.919Z</time></trkpt><trkpt lat="44.95976811666666" lon="7.775160250000001"><ele>239.0</ele><time>2026-05-02T19:34:40.909Z</time></trkpt><trkpt lat="44.95980760000001" lon="7.774763949999999"><ele>239.0</ele><time>2026-05-02T19:34:41.911Z</time></trkpt><trkpt lat="44.95985168333333" lon="7.774368483333334"><ele>239.0</ele><time>2026-05-02T19:34:42.911Z</time></trkpt><trkpt lat="44.95990063333333" lon="7.7739691666666655"><ele>239.5</ele><time>2026-05-02T19:34:43.921Z</time></trkpt><trkpt lat="44.95995318333333" lon="7.7735707833333345"><ele>240.0</ele><time>2026-05-02T19:34:44.909Z</time></trkpt><trkpt lat="44.96000993333333" lon="7.7731632500000005"><ele>239.5</ele><time>2026-05-02T19:34:45.927Z</time></trkpt><trkpt lat="44.960068183333334" lon="7.772761083333334"><ele>239.0</ele><time>2026-05-02T19:34:46.921Z</time></trkpt><trkpt lat="44.96012811666667" lon="7.7723545666666665"><ele>238.0</ele><time>2026-05-02T19:34:47.921Z</time></trkpt><trkpt lat="44.96019928333333" lon="7.771939166666668"><ele>237.0</ele><time>2026-05-02T19:34:48.911Z</time></trkpt><trkpt lat="44.96026348333333" lon="7.771528533333332"><ele>235.5</ele><time>2026-05-02T19:34:49.986Z</time></trkpt><trkpt lat="44.96032853333333" lon="7.7711184"><ele>234.0</ele><time>2026-05-02T19:34:50.921Z</time></trkpt><trkpt lat="44.960393566666674" lon="7.770708533333334"><ele>233.0</ele><time>2026-05-02T19:34:51.919Z</time></trkpt><trkpt lat="44.96045895" lon="7.770298650000001"><ele>232.0</ele><time>2026-05-02T19:34:52.91Z</time></trkpt><trkpt lat="44.96052625000001" lon="7.769879216666667"><ele>232.0</ele><time>2026-05-02T19:34:53.922Z</time></trkpt><trkpt lat="44.960593066666654" lon="7.7694700166666655"><ele>232.0</ele><time>2026-05-02T19:34:54.931Z</time></trkpt><trkpt lat="44.960661200000004" lon="7.7690510999999995"><ele>232.0</ele><time>2026-05-02T19:34:55.924Z</time></trkpt><trkpt lat="44.96072876666667" lon="7.768637200000001"><ele>232.0</ele><time>2026-05-02T19:34:56.918Z</time></trkpt><trkpt lat="44.960797166666666" lon="7.768218350000001"><ele>232.5</ele><time>2026-05-02T19:34:57.944Z</time></trkpt><trkpt lat="44.96086640000001" lon="7.7678001"><ele>233.0</ele><time>2026-05-02T19:34:58.928Z</time></trkpt><trkpt lat="44.96094418333334" lon="7.767384600000001"><ele>234.5</ele><time>2026-05-02T19:34:59.92Z</time></trkpt><trkpt lat="44.961012916666675" lon="7.766966099999999"><ele>236.0</ele><time>2026-05-02T19:35:00.959Z</time></trkpt><trkpt lat="44.96108206666666" lon="7.7665425500000005"><ele>235.0</ele><time>2026-05-02T19:35:01.933Z</time></trkpt><trkpt lat="44.96115028333334" lon="7.766123966666667"><ele>234.0</ele><time>2026-05-02T19:35:02.918Z</time></trkpt><trkpt lat="44.96121960000001" lon="7.76570085"><ele>234.0</ele><time>2026-05-02T19:35:03.939Z</time></trkpt><trkpt lat="44.9612906" lon="7.765273033333333"><ele>234.0</ele><time>2026-05-02T19:35:04.924Z</time></trkpt><trkpt lat="44.96136093333333" lon="7.764850166666667"><ele>233.5</ele><time>2026-05-02T19:35:05.937Z</time></trkpt><trkpt lat="44.96143041666666" lon="7.764427216666666"><ele>233.0</ele><time>2026-05-02T19:35:06.94Z</time></trkpt><trkpt lat="44.96150048333334" lon="7.763999150000001"><ele>233.0</ele><time>2026-05-02T19:35:07.913Z</time></trkpt><trkpt lat="44.96157046666667" lon="7.763571166666666"><ele>233.0</ele><time>2026-05-02T19:35:08.933Z</time></trkpt><trkpt lat="44.96164105" lon="7.763143366666666"><ele>234.0</ele><time>2026-05-02T19:35:09.944Z</time></trkpt><trkpt lat="44.961711966666655" lon="7.7627157166666665"><ele>235.0</ele><time>2026-05-02T19:35:10.913Z</time></trkpt><trkpt lat="44.96178328333334" lon="7.762288483333333"><ele>233.5</ele><time>2026-05-02T19:35:11.92Z</time></trkpt><trkpt lat="44.96185596666666" lon="7.76185665"><ele>232.0</ele><time>2026-05-02T19:35:12.939Z</time></trkpt><trkpt lat="44.961935499999996" lon="7.761434366666667"><ele>231.0</ele><time>2026-05-02T19:35:13.921Z</time></trkpt><trkpt lat="44.96200725" lon="7.761006983333334"><ele>230.0</ele><time>2026-05-02T19:35:14.914Z</time></trkpt><trkpt lat="44.9620801" lon="7.760575066666667"><ele>230.5</ele><time>2026-05-02T19:35:15.922Z</time></trkpt><trkpt lat="44.96215293333333" lon="7.760143133333334"><ele>231.0</ele><time>2026-05-02T19:35:16.913Z</time></trkpt><trkpt lat="44.96222568333332" lon="7.759711133333334"><ele>230.0</ele><time>2026-05-02T19:35:17.914Z</time></trkpt><trkpt lat="44.962299283333344" lon="7.75927435"><ele>229.0</ele><time>2026-05-02T19:35:18.939Z</time></trkpt><trkpt lat="44.9623727" lon="7.758837416666667"><ele>230.0</ele><time>2026-05-02T19:35:19.927Z</time></trkpt><trkpt lat="44.96244505" lon="7.758405566666666"><ele>231.0</ele><time>2026-05-02T19:35:20.912Z</time></trkpt><trkpt lat="44.96251771666666" lon="7.757968699999999"><ele>232.0</ele><time>2026-05-02T19:35:21.941Z</time></trkpt><trkpt lat="44.962588700000005" lon="7.757536283333334"><ele>233.0</ele><time>2026-05-02T19:35:22.909Z</time></trkpt><trkpt lat="44.96266179999999" lon="7.757099666666666"><ele>234.5</ele><time>2026-05-02T19:35:23.924Z</time></trkpt><trkpt lat="44.96273556666667" lon="7.756663066666666"><ele>236.0</ele><time>2026-05-02T19:35:24.944Z</time></trkpt><trkpt lat="44.96280806666667" lon="7.756226033333333"><ele>233.5</ele><time>2026-05-02T19:35:25.911Z</time></trkpt><trkpt lat="44.96287973333333" lon="7.755788833333334"><ele>231.0</ele><time>2026-05-02T19:35:26.92Z</time></trkpt><trkpt lat="44.96295165" lon="7.755351883333333"><ele>230.5</ele><time>2026-05-02T19:35:27.92Z</time></trkpt><trkpt lat="44.96302783333334" lon="7.754921633333334"><ele>230.0</ele><time>2026-05-02T19:35:28.942Z</time></trkpt><trkpt lat="44.96309983333333" lon="7.7544846000000005"><ele>229.0</ele><time>2026-05-02T19:35:29.934Z</time></trkpt><trkpt lat="44.963172" lon="7.754047900000001"><ele>228.0</ele><time>2026-05-02T19:35:30.91Z</time></trkpt><trkpt lat="44.9632456" lon="7.753606433333334"><ele>228.0</ele><time>2026-05-02T19:35:31.92Z</time></trkpt><trkpt lat="44.96332053333334" lon="7.753165633333333"><ele>228.0</ele><time>2026-05-02T19:35:32.947Z</time></trkpt><trkpt lat="44.96339646666667" lon="7.752724983333333"><ele>228.0</ele><time>2026-05-02T19:35:33.915Z</time></trkpt><trkpt lat="44.96346998333333" lon="7.752288716666667"><ele>228.0</ele><time>2026-05-02T19:35:34.914Z</time></trkpt><trkpt lat="44.963544166666665" lon="7.751847649999999"><ele>228.0</ele><time>2026-05-02T19:35:35.936Z</time></trkpt><trkpt lat="44.96361893333333" lon="7.751406850000001"><ele>228.0</ele><time>2026-05-02T19:35:36.912Z</time></trkpt><trkpt lat="44.963692933333334" lon="7.750965466666665"><ele>228.5</ele><time>2026-05-02T19:35:37.924Z</time></trkpt><trkpt lat="44.96376703333333" lon="7.7505241499999995"><ele>229.0</ele><time>2026-05-02T19:35:38.929Z</time></trkpt><trkpt lat="44.963841050000006" lon="7.750082849999999"><ele>229.0</ele><time>2026-05-02T19:35:39.922Z</time></trkpt><trkpt lat="44.96391346666666" lon="7.749646316666667"><ele>229.0</ele><time>2026-05-02T19:35:40.911Z</time></trkpt><trkpt lat="44.96398563333334" lon="7.749209700000001"><ele>229.0</ele><time>2026-05-02T19:35:41.929Z</time></trkpt><trkpt lat="44.96405646666667" lon="7.748778116666667"><ele>229.0</ele><time>2026-05-02T19:35:42.937Z</time></trkpt><trkpt lat="44.96412753333335" lon="7.74834645"><ele>228.5</ele><time>2026-05-02T19:35:43.93Z</time></trkpt><trkpt lat="44.96419853333334" lon="7.7479204"><ele>228.0</ele><time>2026-05-02T19:35:44.94Z</time></trkpt><trkpt lat="44.96426936666667" lon="7.747494266666666"><ele>228.0</ele><time>2026-05-02T19:35:45.92Z</time></trkpt><trkpt lat="44.96433943333333" lon="7.747073066666667"><ele>228.0</ele><time>2026-05-02T19:35:46.926Z</time></trkpt><trkpt lat="44.96440968333333" lon="7.746657083333334"><ele>229.0</ele><time>2026-05-02T19:35:47.941Z</time></trkpt><trkpt lat="44.964480583333334" lon="7.746241500000001"><ele>230.0</ele><time>2026-05-02T19:35:48.912Z</time></trkpt><trkpt lat="44.964558866666664" lon="7.745794833333334"><ele>230.5</ele><time>2026-05-02T19:35:50.034Z</time></trkpt><trkpt lat="44.96462258333333" lon="7.7454177333333325"><ele>231.0</ele><time>2026-05-02T19:35:50.92Z</time></trkpt><trkpt lat="44.96469306666666" lon="7.745001816666666"><ele>231.0</ele><time>2026-05-02T19:35:51.918Z</time></trkpt><trkpt lat="44.96476313333333" lon="7.7445848166666655"><ele>231.0</ele><time>2026-05-02T19:35:52.972Z</time></trkpt><trkpt lat="44.96483061666666" lon="7.744177199999999"><ele>229.5</ele><time>2026-05-02T19:35:53.922Z</time></trkpt><trkpt lat="44.964896" lon="7.743779233333334"><ele>228.0</ele><time>2026-05-02T19:35:54.926Z</time></trkpt><trkpt lat="44.96495868333333" lon="7.743395933333332"><ele>228.0</ele><time>2026-05-02T19:35:55.939Z</time></trkpt><trkpt lat="44.96501971666667" lon="7.743022683333333"><ele>228.0</ele><time>2026-05-02T19:35:56.92Z</time></trkpt><trkpt lat="44.9650773" lon="7.742668883333333"><ele>227.5</ele><time>2026-05-02T19:35:57.915Z</time></trkpt><trkpt lat="44.96513261666667" lon="7.742319866666666"><ele>227.0</ele><time>2026-05-02T19:35:58.935Z</time></trkpt><trkpt lat="44.96518148333333" lon="7.741974116666667"><ele>226.0</ele><time>2026-05-02T19:35:59.916Z</time></trkpt><trkpt lat="44.965228999999994" lon="7.741633216666666"><ele>225.0</ele><time>2026-05-02T19:36:00.917Z</time></trkpt><trkpt lat="44.965279883333345" lon="7.741288300000001"><ele>226.0</ele><time>2026-05-02T19:36:01.937Z</time></trkpt><trkpt lat="44.96533386666666" lon="7.740944216666666"><ele>227.0</ele><time>2026-05-02T19:36:02.921Z</time></trkpt><trkpt lat="44.96538868333334" lon="7.740605516666666"><ele>227.0</ele><time>2026-05-02T19:36:03.919Z</time></trkpt><trkpt lat="44.965444833333336" lon="7.740262183333334"><ele>227.0</ele><time>2026-05-02T19:36:04.985Z</time></trkpt><trkpt lat="44.96550243333333" lon="7.739936716666667"><ele>227.5</ele><time>2026-05-02T19:36:05.921Z</time></trkpt><trkpt lat="44.96556026666667" lon="7.739604216666667"><ele>228.0</ele><time>2026-05-02T19:36:06.933Z</time></trkpt><trkpt lat="44.96562045" lon="7.7392724500000005"><ele>228.0</ele><time>2026-05-02T19:36:07.926Z</time></trkpt><trkpt lat="44.96568138333333" lon="7.7389512666666675"><ele>228.0</ele><time>2026-05-02T19:36:08.926Z</time></trkpt><trkpt lat="44.96573888333334" lon="7.738649433333334"><ele>228.0</ele><time>2026-05-02T19:36:09.969Z</time></trkpt><trkpt lat="44.965791766666676" lon="7.738361599999999"><ele>228.0</ele><time>2026-05-02T19:36:10.922Z</time></trkpt><trkpt lat="44.965837449999995" lon="7.7381019166666665"><ele>228.0</ele><time>2026-05-02T19:36:11.913Z</time></trkpt><trkpt lat="44.96587901666667" lon="7.737856166666667"><ele>228.5</ele><time>2026-05-02T19:36:12.936Z</time></trkpt><trkpt lat="44.965915816666666" lon="7.7376343"><ele>229.0</ele><time>2026-05-02T19:36:13.915Z</time></trkpt><trkpt lat="44.965948" lon="7.737441516666666"><ele>229.5</ele><time>2026-05-02T19:36:14.925Z</time></trkpt><trkpt lat="44.96597558333333" lon="7.7372727"><ele>230.0</ele><time>2026-05-02T19:36:15.951Z</time></trkpt><trkpt lat="44.96599838333333" lon="7.737127783333333"><ele>230.00000000000003</ele><time>2026-05-02T19:36:16.913Z</time></trkpt><trkpt lat="44.966018166666665" lon="7.737010516666667"><ele>230.0</ele><time>2026-05-02T19:36:17.92Z</time></trkpt><trkpt lat="44.966032750000004" lon="7.736918900000001"><ele>230.0</ele><time>2026-05-02T19:36:18.962Z</time></trkpt><trkpt lat="44.966048" lon="7.736817316666666"><ele>230.0</ele><time>2026-05-02T19:36:41.933Z</time></trkpt><trkpt lat="44.96606963333333" lon="7.736687383333334"><ele>230.00000000000003</ele><time>2026-05-02T19:36:44.925Z</time></trkpt><trkpt lat="44.966095366666664" lon="7.7365335"><ele>230.0</ele><time>2026-05-02T19:36:46.922Z</time></trkpt><trkpt lat="44.96611321666666" lon="7.736427633333332"><ele>229.6</ele><time>2026-05-02T19:36:47.914Z</time></trkpt><trkpt lat="44.966134" lon="7.736310799999999"><ele>229.2</ele><time>2026-05-02T19:36:48.933Z</time></trkpt><trkpt lat="44.96615788333334" lon="7.736161349999999"><ele>228.8</ele><time>2026-05-02T19:36:49.914Z</time></trkpt><trkpt lat="44.96618361666666" lon="7.735992116666667"><ele>228.4</ele><time>2026-05-02T19:36:50.911Z</time></trkpt><trkpt lat="44.966210950000004" lon="7.735808216666667"><ele>228.0</ele><time>2026-05-02T19:36:51.922Z</time></trkpt><trkpt lat="44.96624153333334" lon="7.735599916666667"><ele>228.0</ele><time>2026-05-02T19:36:52.925Z</time></trkpt><trkpt lat="44.966273566666665" lon="7.735381916666667"><ele>228.0</ele><time>2026-05-02T19:36:53.911Z</time></trkpt><trkpt lat="44.966308266666665" lon="7.735144366666667"><ele>228.0</ele><time>2026-05-02T19:36:54.923Z</time></trkpt><trkpt lat="44.96634463333333" lon="7.734897016666667"><ele>227.66666666666669</ele><time>2026-05-02T19:36:55.921Z</time></trkpt><trkpt lat="44.96638261666667" lon="7.734634916666666"><ele>227.33333333333334</ele><time>2026-05-02T19:36:56.927Z</time></trkpt><trkpt lat="44.96642108333334" lon="7.734367699999999"><ele>227.0</ele><time>2026-05-02T19:36:57.95Z</time></trkpt><trkpt lat="44.96646718333333" lon="7.7341017333333335"><ele>227.0</ele><time>2026-05-02T19:36:58.925Z</time></trkpt><trkpt lat="44.96650943333334" lon="7.73381005"><ele>227.0</ele><time>2026-05-02T19:36:59.951Z</time></trkpt><trkpt lat="44.96655066666667" lon="7.733513166666667"><ele>227.0</ele><time>2026-05-02T19:37:00.912Z</time></trkpt><trkpt lat="44.966592999999996" lon="7.733201349999999"><ele>227.0</ele><time>2026-05-02T19:37:01.945Z</time></trkpt><trkpt lat="44.96663566666667" lon="7.732884433333333"><ele>227.0</ele><time>2026-05-02T19:37:02.922Z</time></trkpt><trkpt lat="44.96668846666667" lon="7.732565749999999"><ele>226.0</ele><time>2026-05-02T19:37:03.963Z</time></trkpt><trkpt lat="44.96673406666667" lon="7.732228883333333"><ele>225.0</ele><time>2026-05-02T19:37:04.924Z</time></trkpt><trkpt lat="44.96678426666667" lon="7.731857650000001"><ele>225.0</ele><time>2026-05-02T19:37:06.015Z</time></trkpt><trkpt lat="44.96684433946097" lon="7.731545169143101"><ele>225.0</ele><time>2026-05-02T19:37:06.922Z</time></trkpt><trkpt lat="44.966885266666665" lon="7.73118945"><ele>226.0</ele><time>2026-05-02T19:37:07.919Z</time></trkpt><trkpt lat="44.96693656666667" lon="7.730823"><ele>227.0</ele><time>2026-05-02T19:37:08.921Z</time></trkpt><trkpt lat="44.96698903333333" lon="7.7304567"><ele>227.0</ele><time>2026-05-02T19:37:09.913Z</time></trkpt><trkpt lat="44.96706095" lon="7.730042216666667"><ele>227.0</ele><time>2026-05-02T19:37:11.035Z</time></trkpt><trkpt lat="44.96711191666667" lon="7.729695283333332"><ele>228.5</ele><time>2026-05-02T19:37:11.924Z</time></trkpt><trkpt lat="44.967169250000005" lon="7.729309549999999"><ele>230.0</ele><time>2026-05-02T19:37:12.938Z</time></trkpt><trkpt lat="44.967227416666674" lon="7.728918883333334"><ele>230.0</ele><time>2026-05-02T19:37:13.923Z</time></trkpt><trkpt lat="44.967285766666656" lon="7.728522916666666"><ele>230.0</ele><time>2026-05-02T19:37:14.936Z</time></trkpt><trkpt lat="44.96735616666667" lon="7.728122766666666"><ele>227.5</ele><time>2026-05-02T19:37:15.95Z</time></trkpt><trkpt lat="44.96741610000001" lon="7.727716916666666"><ele>225.0</ele><time>2026-05-02T19:37:16.946Z</time></trkpt><trkpt lat="44.96747778333333" lon="7.727301166666666"><ele>223.5</ele><time>2026-05-02T19:37:17.925Z</time></trkpt><trkpt lat="44.96753914999999" lon="7.7268851666666665"><ele>222.0</ele><time>2026-05-02T19:37:18.941Z</time></trkpt><trkpt lat="44.96760016666667" lon="7.726458783333334"><ele>224.0</ele><time>2026-05-02T19:37:19.92Z</time></trkpt><trkpt lat="44.96766931666666" lon="7.7260262"><ele>226.0</ele><time>2026-05-02T19:37:20.941Z</time></trkpt><trkpt lat="44.96772806666666" lon="7.7255939499999995"><ele>226.0</ele><time>2026-05-02T19:37:21.917Z</time></trkpt><trkpt lat="44.967788416666664" lon="7.725151799999999"><ele>226.0</ele><time>2026-05-02T19:37:22.95Z</time></trkpt><trkpt lat="44.967851283333324" lon="7.724699683333334"><ele>225.5</ele><time>2026-05-02T19:37:23.925Z</time></trkpt><trkpt lat="44.96793166574379" lon="7.724257917445733"><ele>225.0</ele><time>2026-05-02T19:37:24.948Z</time></trkpt><trkpt lat="44.96798900000001" lon="7.7237962"><ele>225.0</ele><time>2026-05-02T19:37:25.914Z</time></trkpt><trkpt lat="44.96807297585777" lon="7.723340074043287"><ele>225.0</ele><time>2026-05-02T19:37:26.94Z</time></trkpt><trkpt lat="44.968144927560964" lon="7.722875176184482"><ele>225.0</ele><time>2026-05-02T19:37:27.912Z</time></trkpt><trkpt lat="44.96821730207568" lon="7.7224075456911825"><ele>225.0</ele><time>2026-05-02T19:37:28.951Z</time></trkpt><trkpt lat="44.96828647211183" lon="7.721938344540081"><ele>225.0</ele><time>2026-05-02T19:37:29.917Z</time></trkpt><trkpt lat="44.968353781243735" lon="7.72146886896755"><ele>225.0</ele><time>2026-05-02T19:37:30.961Z</time></trkpt><trkpt lat="44.96842351556972" lon="7.720990227768558"><ele>225.5</ele><time>2026-05-02T19:37:31.918Z</time></trkpt><trkpt lat="44.9684976062562" lon="7.720503160453696"><ele>226.0</ele><time>2026-05-02T19:37:32.969Z</time></trkpt><trkpt lat="44.96857287043914" lon="7.7200198464363385"><ele>226.0</ele><time>2026-05-02T19:37:33.92Z</time></trkpt><trkpt lat="44.968649022511514" lon="7.719526361643937"><ele>226.0</ele><time>2026-05-02T19:37:34.954Z</time></trkpt><trkpt lat="44.968722570955954" lon="7.719031870528437"><ele>225.0</ele><time>2026-05-02T19:37:35.921Z</time></trkpt><trkpt lat="44.968795409037135" lon="7.718537772600263"><ele>224.0</ele><time>2026-05-02T19:37:36.951Z</time></trkpt><trkpt lat="44.96885653333334" lon="7.7180351499999995"><ele>224.0</ele><time>2026-05-02T19:37:37.934Z</time></trkpt><trkpt lat="44.968937999999994" lon="7.717533150000001"><ele>224.0</ele><time>2026-05-02T19:37:38.945Z</time></trkpt><trkpt lat="44.96901703333334" lon="7.7170304000000005"><ele>224.0</ele><time>2026-05-02T19:37:39.924Z</time></trkpt><trkpt lat="44.96910355" lon="7.71652255"><ele>224.0</ele><time>2026-05-02T19:37:40.951Z</time></trkpt><trkpt lat="44.96918031666667" lon="7.716014016666666"><ele>224.0</ele><time>2026-05-02T19:37:41.925Z</time></trkpt><trkpt lat="44.96925768333334" lon="7.715505733333333"><ele>224.0</ele><time>2026-05-02T19:37:42.942Z</time></trkpt><trkpt lat="44.9693348" lon="7.71499235"><ele>225.0</ele><time>2026-05-02T19:37:43.924Z</time></trkpt><trkpt lat="44.96941073333333" lon="7.714483566666667"><ele>226.0</ele><time>2026-05-02T19:37:44.962Z</time></trkpt><trkpt lat="44.969486350000004" lon="7.713969666666666"><ele>225.0</ele><time>2026-05-02T19:37:45.915Z</time></trkpt><trkpt lat="44.969559433333345" lon="7.713465500000001"><ele>224.0</ele><time>2026-05-02T19:37:46.946Z</time></trkpt><trkpt lat="44.96963353333334" lon="7.712961833333332"><ele>224.0</ele><time>2026-05-02T19:37:47.941Z</time></trkpt><trkpt lat="44.969706366666664" lon="7.712462933333334"><ele>224.0</ele><time>2026-05-02T19:37:48.94Z</time></trkpt><trkpt lat="44.96978901666667" lon="7.711967483333332"><ele>224.5</ele><time>2026-05-02T19:37:49.931Z</time></trkpt><trkpt lat="44.96986201666667" lon="7.7114742"><ele>225.0</ele><time>2026-05-02T19:37:50.945Z</time></trkpt><trkpt lat="44.969936116666666" lon="7.710971033333334"><ele>225.0</ele><time>2026-05-02T19:37:51.924Z</time></trkpt><trkpt lat="44.970010716666664" lon="7.710472983333333"><ele>225.0</ele><time>2026-05-02T19:37:52.95Z</time></trkpt><trkpt lat="44.9700849" lon="7.7099751"><ele>224.5</ele><time>2026-05-02T19:37:53.936Z</time></trkpt><trkpt lat="44.97015798333334" lon="7.70947705"><ele>224.0</ele><time>2026-05-02T19:37:54.92Z</time></trkpt><trkpt lat="44.97024800568762" lon="7.708980455822464"><ele>225.0</ele><time>2026-05-02T19:37:55.924Z</time></trkpt><trkpt lat="44.970343659111684" lon="7.708482600162501"><ele>226.0</ele><time>2026-05-02T19:37:56.915Z</time></trkpt><trkpt lat="44.97042172827658" lon="7.7079803460200305"><ele>225.5</ele><time>2026-05-02T19:37:57.927Z</time></trkpt><trkpt lat="44.97049822608752" lon="7.70747891519094"><ele>225.0</ele><time>2026-05-02T19:37:58.918Z</time></trkpt><trkpt lat="44.97057855366285" lon="7.706972643325481"><ele>224.0</ele><time>2026-05-02T19:37:59.938Z</time></trkpt><trkpt lat="44.97064251734651" lon="7.706465660248934"><ele>223.0</ele><time>2026-05-02T19:38:00.915Z</time></trkpt><trkpt lat="44.97070929329196" lon="7.705958005338343"><ele>223.0</ele><time>2026-05-02T19:38:01.962Z</time></trkpt><trkpt lat="44.970783229071785" lon="7.705448991981779"><ele>223.0</ele><time>2026-05-02T19:38:02.914Z</time></trkpt><trkpt lat="44.97085265900098" lon="7.704938725013697"><ele>223.0</ele><time>2026-05-02T19:38:03.98Z</time></trkpt><trkpt lat="44.970919246082076" lon="7.704428334793027"><ele>223.0</ele><time>2026-05-02T19:38:04.922Z</time></trkpt><trkpt lat="44.97098484336233" lon="7.703919642659138"><ele>223.0</ele><time>2026-05-02T19:38:05.918Z</time></trkpt><trkpt lat="44.971052363251914" lon="7.703400576052188"><ele>223.0</ele><time>2026-05-02T19:38:06.95Z</time></trkpt><trkpt lat="44.97109994764725" lon="7.702883079226765"><ele>223.5</ele><time>2026-05-02T19:38:07.945Z</time></trkpt><trkpt lat="44.97114374651704" lon="7.702361489585224"><ele>224.0</ele><time>2026-05-02T19:38:09.022Z</time></trkpt><trkpt lat="44.97118085283964" lon="7.7018369871461205"><ele>224.0</ele><time>2026-05-02T19:38:09.914Z</time></trkpt><trkpt lat="44.97120686141032" lon="7.701313398986607"><ele>224.0</ele><time>2026-05-02T19:38:10.98Z</time></trkpt><trkpt lat="44.97123055316564" lon="7.700785176287993"><ele>222.5</ele><time>2026-05-02T19:38:11.913Z</time></trkpt><trkpt lat="44.97122603390478" lon="7.700251429627144"><ele>221.0</ele><time>2026-05-02T19:38:12.959Z</time></trkpt><trkpt lat="44.97122155045797" lon="7.699727787844306"><ele>222.5</ele><time>2026-05-02T19:38:13.93Z</time></trkpt><trkpt lat="44.97122504411848" lon="7.6992040127513235"><ele>224.0</ele><time>2026-05-02T19:38:14.948Z</time></trkpt><trkpt lat="44.971224092073534" lon="7.698673932353127"><ele>224.0</ele><time>2026-05-02T19:38:15.947Z</time></trkpt><trkpt lat="44.971204082305576" lon="7.698143975032641"><ele>224.0</ele><time>2026-05-02T19:38:16.951Z</time></trkpt><trkpt lat="44.97116548333333" lon="7.6976181666666665"><ele>224.0</ele><time>2026-05-02T19:38:17.914Z</time></trkpt><trkpt lat="44.971141100000004" lon="7.697090699999999"><ele>224.0</ele><time>2026-05-02T19:38:18.919Z</time></trkpt><trkpt lat="44.9711295242538" lon="7.6965615321569745"><ele>221.5</ele><time>2026-05-02T19:38:19.942Z</time></trkpt><trkpt lat="44.97109460247252" lon="7.6960399322216055"><ele>219.0</ele><time>2026-05-02T19:38:20.933Z</time></trkpt><trkpt lat="44.97105178420682" lon="7.695524681135842"><ele>220.0</ele><time>2026-05-02T19:38:21.951Z</time></trkpt><trkpt lat="44.971009015852665" lon="7.695014880127868"><ele>221.0</ele><time>2026-05-02T19:38:22.925Z</time></trkpt><trkpt lat="44.97096358392151" lon="7.694510799181281"><ele>221.0</ele><time>2026-05-02T19:38:23.942Z</time></trkpt><trkpt lat="44.97090606666667" lon="7.694021666666666"><ele>221.0</ele><time>2026-05-02T19:38:24.944Z</time></trkpt><trkpt lat="44.97086038333333" lon="7.6935233499999995"><ele>220.0</ele><time>2026-05-02T19:38:25.942Z</time></trkpt><trkpt lat="44.97081671666667" lon="7.693034600000001"><ele>219.0</ele><time>2026-05-02T19:38:26.926Z</time></trkpt><trkpt lat="44.970774383333335" lon="7.692551216666668"><ele>219.0</ele><time>2026-05-02T19:38:27.95Z</time></trkpt><trkpt lat="44.97073088333333" lon="7.692068"><ele>219.0</ele><time>2026-05-02T19:38:28.917Z</time></trkpt><trkpt lat="44.97068771666666" lon="7.6915948499999995"><ele>221.5</ele><time>2026-05-02T19:38:29.951Z</time></trkpt><trkpt lat="44.97064438333334" lon="7.691121933333333"><ele>224.0</ele><time>2026-05-02T19:38:30.915Z</time></trkpt><trkpt lat="44.97060113333334" lon="7.690648866666667"><ele>223.5</ele><time>2026-05-02T19:38:31.958Z</time></trkpt><trkpt lat="44.97055821666666" lon="7.6901758833333345"><ele>223.0</ele><time>2026-05-02T19:38:32.922Z</time></trkpt><trkpt lat="44.97052511666667" lon="7.689707333333333"><ele>223.0</ele><time>2026-05-02T19:38:33.946Z</time></trkpt><trkpt lat="44.97048236666666" lon="7.689229133333334"><ele>223.0</ele><time>2026-05-02T19:38:34.925Z</time></trkpt><trkpt lat="44.97043928333333" lon="7.688755899999999"><ele>222.5</ele><time>2026-05-02T19:38:35.957Z</time></trkpt><trkpt lat="44.97039545" lon="7.688277799999999"><ele>222.0</ele><time>2026-05-02T19:38:36.936Z</time></trkpt><trkpt lat="44.97035195" lon="7.687799183333334"><ele>222.0</ele><time>2026-05-02T19:38:37.946Z</time></trkpt><trkpt lat="44.97030818333333" lon="7.6873157166666655"><ele>222.0</ele><time>2026-05-02T19:38:38.926Z</time></trkpt><trkpt lat="44.970264933333326" lon="7.6868318333333345"><ele>222.0</ele><time>2026-05-02T19:38:39.947Z</time></trkpt><trkpt lat="44.97022043333333" lon="7.6863378833333345"><ele>222.0</ele><time>2026-05-02T19:38:40.922Z</time></trkpt><trkpt lat="44.97017491666667" lon="7.685838666666666"><ele>222.5</ele><time>2026-05-02T19:38:41.952Z</time></trkpt><trkpt lat="44.97012956666667" lon="7.685333983333333"><ele>223.0</ele><time>2026-05-02T19:38:42.94Z</time></trkpt><trkpt lat="44.97008313333334" lon="7.684824283333334"><ele>223.0</ele><time>2026-05-02T19:38:43.96Z</time></trkpt><trkpt lat="44.97003661666666" lon="7.684309383333334"><ele>223.0</ele><time>2026-05-02T19:38:44.913Z</time></trkpt><trkpt lat="44.970000399999996" lon="7.683792633333334"><ele>224.5</ele><time>2026-05-02T19:38:45.954Z</time></trkpt><trkpt lat="44.969958833333344" lon="7.683281766666666"><ele>226.0</ele><time>2026-05-02T19:38:46.914Z</time></trkpt><trkpt lat="44.96992681666667" lon="7.682775066666666"><ele>224.0</ele><time>2026-05-02T19:38:47.942Z</time></trkpt><trkpt lat="44.96990501666667" lon="7.6822626"><ele>222.0</ele><time>2026-05-02T19:38:48.932Z</time></trkpt><trkpt lat="44.969893783333326" lon="7.681749133333333"><ele>221.5</ele><time>2026-05-02T19:38:49.933Z</time></trkpt><trkpt lat="44.96989386666667" lon="7.681235566666667"><ele>221.0</ele><time>2026-05-02T19:38:50.921Z</time></trkpt><trkpt lat="44.96990443333334" lon="7.680712116666666"><ele>221.5</ele><time>2026-05-02T19:38:51.942Z</time></trkpt><trkpt lat="44.969928566666674" lon="7.680139050000001"><ele>222.0</ele><time>2026-05-02T19:38:53.039Z</time></trkpt><trkpt lat="44.969959249999995" lon="7.67966195"><ele>221.5</ele><time>2026-05-02T19:38:53.915Z</time></trkpt><trkpt lat="44.97000443333333" lon="7.679136400000001"><ele>221.0</ele><time>2026-05-02T19:38:54.926Z</time></trkpt><trkpt lat="44.97006116666666" lon="7.678613200000001"><ele>221.0</ele><time>2026-05-02T19:38:56.012Z</time></trkpt><trkpt lat="44.970129316666664" lon="7.678092683333333"><ele>221.0</ele><time>2026-05-02T19:38:56.916Z</time></trkpt><trkpt lat="44.970209116666666" lon="7.677570583333333"><ele>221.5</ele><time>2026-05-02T19:38:57.924Z</time></trkpt><trkpt lat="44.97029998333334" lon="7.677057266666666"><ele>222.0</ele><time>2026-05-02T19:38:58.943Z</time></trkpt><trkpt lat="44.9704019" lon="7.676548583333332"><ele>222.0</ele><time>2026-05-02T19:38:59.926Z</time></trkpt><trkpt lat="44.970515549999995" lon="7.676044816666666"><ele>222.0</ele><time>2026-05-02T19:39:00.957Z</time></trkpt><trkpt lat="44.97063541666666" lon="7.675543833333334"><ele>222.0</ele><time>2026-05-02T19:39:01.919Z</time></trkpt><trkpt lat="44.97075553333334" lon="7.6750379"><ele>222.0</ele><time>2026-05-02T19:39:02.964Z</time></trkpt><trkpt lat="44.97087656666666" lon="7.6745266999999995"><ele>222.0</ele><time>2026-05-02T19:39:03.928Z</time></trkpt><trkpt lat="44.97099978333334" lon="7.674005583333333"><ele>222.0</ele><time>2026-05-02T19:39:04.953Z</time></trkpt><trkpt lat="44.971124999999994" lon="7.673474433333333"><ele>222.0</ele><time>2026-05-02T19:39:05.924Z</time></trkpt><trkpt lat="44.971253" lon="7.672933716666668"><ele>222.0</ele><time>2026-05-02T19:39:06.962Z</time></trkpt><trkpt lat="44.97138183333333" lon="7.672387716666667"><ele>222.0</ele><time>2026-05-02T19:39:07.92Z</time></trkpt><trkpt lat="44.971513933333334" lon="7.671827216666666"><ele>222.0</ele><time>2026-05-02T19:39:08.944Z</time></trkpt><trkpt lat="44.97164711666666" lon="7.671261266666666"><ele>222.5</ele><time>2026-05-02T19:39:09.927Z</time></trkpt><trkpt lat="44.971780216666666" lon="7.670700516666667"><ele>223.0</ele><time>2026-05-02T19:39:10.962Z</time></trkpt><trkpt lat="44.97191021666666" lon="7.670149166666666"><ele>223.5</ele><time>2026-05-02T19:39:11.918Z</time></trkpt><trkpt lat="44.97203846666666" lon="7.669603416666667"><ele>224.0</ele><time>2026-05-02T19:39:12.941Z</time></trkpt><trkpt lat="44.97216445000001" lon="7.669067133333335"><ele>224.0</ele><time>2026-05-02T19:39:13.931Z</time></trkpt><trkpt lat="44.97228883333334" lon="7.66854135"><ele>224.0</ele><time>2026-05-02T19:39:14.965Z</time></trkpt><trkpt lat="44.97241138333334" lon="7.668020149999999"><ele>223.5</ele><time>2026-05-02T19:39:15.917Z</time></trkpt><trkpt lat="44.972533416666664" lon="7.66749905"><ele>223.0</ele><time>2026-05-02T19:39:16.942Z</time></trkpt><trkpt lat="44.972653949999994" lon="7.666987766666667"><ele>222.5</ele><time>2026-05-02T19:39:17.918Z</time></trkpt><trkpt lat="44.97277381666666" lon="7.666476883333334"><ele>222.0</ele><time>2026-05-02T19:39:18.951Z</time></trkpt><trkpt lat="44.97289283333333" lon="7.6659655"><ele>222.0</ele><time>2026-05-02T19:39:19.924Z</time></trkpt><trkpt lat="44.973010683333335" lon="7.665458816666667"><ele>222.0</ele><time>2026-05-02T19:39:20.971Z</time></trkpt><trkpt lat="44.97313054999999" lon="7.664947850000001"><ele>222.0</ele><time>2026-05-02T19:39:21.921Z</time></trkpt><trkpt lat="44.97325291666666" lon="7.664437816666666"><ele>222.0</ele><time>2026-05-02T19:39:22.95Z</time></trkpt><trkpt lat="44.97338066666666" lon="7.663919983333333"><ele>222.5</ele><time>2026-05-02T19:39:23.916Z</time></trkpt><trkpt lat="44.97351158333333" lon="7.663403233333334"><ele>223.0</ele><time>2026-05-02T19:39:24.949Z</time></trkpt><trkpt lat="44.973646116666664" lon="7.662888416666668"><ele>223.0</ele><time>2026-05-02T19:39:25.918Z</time></trkpt><trkpt lat="44.973789116666666" lon="7.6623617"><ele>223.0</ele><time>2026-05-02T19:39:26.954Z</time></trkpt><trkpt lat="44.973935116666674" lon="7.6618412666666655"><ele>223.0</ele><time>2026-05-02T19:39:27.923Z</time></trkpt><trkpt lat="44.974088849999994" lon="7.661314716666666"><ele>223.0</ele><time>2026-05-02T19:39:28.933Z</time></trkpt><trkpt lat="44.97424751666667" lon="7.660790433333334"><ele>226.0</ele><time>2026-05-02T19:39:29.924Z</time></trkpt><trkpt lat="44.97441381666666" lon="7.660260116666666"><ele>229.0</ele><time>2026-05-02T19:39:30.95Z</time></trkpt><trkpt lat="44.97458355" lon="7.659736833333333"><ele>227.5</ele><time>2026-05-02T19:39:31.926Z</time></trkpt><trkpt lat="44.974759150000004" lon="7.6592122"><ele>226.0</ele><time>2026-05-02T19:39:32.953Z</time></trkpt><trkpt lat="44.974940783333345" lon="7.658685316666666"><ele>226.0</ele><time>2026-05-02T19:39:33.924Z</time></trkpt><trkpt lat="44.97512601666667" lon="7.658166899999999"><ele>226.0</ele><time>2026-05-02T19:39:34.952Z</time></trkpt><trkpt lat="44.9753188" lon="7.657648566666667"><ele>226.5</ele><time>2026-05-02T19:39:35.924Z</time></trkpt><trkpt lat="44.975516783333326" lon="7.6571466500000005"><ele>227.0</ele><time>2026-05-02T19:39:36.953Z</time></trkpt><trkpt lat="44.97571896666667" lon="7.656635433333334"><ele>226.5</ele><time>2026-05-02T19:39:37.925Z</time></trkpt><trkpt lat="44.97592506666666" lon="7.656127666666666"><ele>226.0</ele><time>2026-05-02T19:39:38.944Z</time></trkpt><trkpt lat="44.97613696666667" lon="7.655618466666666"><ele>225.5</ele><time>2026-05-02T19:39:39.914Z</time></trkpt><trkpt lat="44.9763538" lon="7.655113366666666"><ele>225.0</ele><time>2026-05-02T19:39:40.963Z</time></trkpt><trkpt lat="44.97657325" lon="7.654617083333332"><ele>225.0</ele><time>2026-05-02T19:39:41.931Z</time></trkpt><trkpt lat="44.9768004" lon="7.654121450000001"><ele>225.0</ele><time>2026-05-02T19:39:42.953Z</time></trkpt><trkpt lat="44.97703450000001" lon="7.653625916666665"><ele>225.0</ele><time>2026-05-02T19:39:43.916Z</time></trkpt><trkpt lat="44.97727020000001" lon="7.65314395"><ele>225.0</ele><time>2026-05-02T19:39:44.953Z</time></trkpt><trkpt lat="44.977512266666665" lon="7.6526629999999995"><ele>225.5</ele><time>2026-05-02T19:39:45.914Z</time></trkpt><trkpt lat="44.97775576666666" lon="7.652189083333334"><ele>226.0</ele><time>2026-05-02T19:39:46.953Z</time></trkpt><trkpt lat="44.9780058" lon="7.651715766666666"><ele>226.0</ele><time>2026-05-02T19:39:47.925Z</time></trkpt><trkpt lat="44.978260433333325" lon="7.651247050000001"><ele>226.0</ele><time>2026-05-02T19:39:48.96Z</time></trkpt><trkpt lat="44.97851708333333" lon="7.650786883333335"><ele>226.0</ele><time>2026-05-02T19:39:49.919Z</time></trkpt><trkpt lat="44.97878011666667" lon="7.650327549999999"><ele>226.0</ele><time>2026-05-02T19:39:50.963Z</time></trkpt><trkpt lat="44.979046749999995" lon="7.649872083333334"><ele>226.5</ele><time>2026-05-02T19:39:51.914Z</time></trkpt><trkpt lat="44.97931144999999" lon="7.6494275"><ele>227.0</ele><time>2026-05-02T19:39:52.957Z</time></trkpt><trkpt lat="44.97957278333333" lon="7.6489934"><ele>227.0</ele><time>2026-05-02T19:39:53.925Z</time></trkpt><trkpt lat="44.97983213333334" lon="7.64856375"><ele>227.0</ele><time>2026-05-02T19:39:54.984Z</time></trkpt><trkpt lat="44.9800933" lon="7.6481442333333325"><ele>227.5</ele><time>2026-05-02T19:39:55.932Z</time></trkpt><trkpt lat="44.980351549999995" lon="7.647719783333334"><ele>228.0</ele><time>2026-05-02T19:39:56.943Z</time></trkpt><trkpt lat="44.98060988333334" lon="7.647296316666666"><ele>228.0</ele><time>2026-05-02T19:39:57.929Z</time></trkpt><trkpt lat="44.98086905" lon="7.646873200000001"><ele>228.0</ele><time>2026-05-02T19:39:58.961Z</time></trkpt><trkpt lat="44.98112630000001" lon="7.646454783333333"><ele>228.0</ele><time>2026-05-02T19:39:59.916Z</time></trkpt><trkpt lat="44.981383699999995" lon="7.64603685"><ele>228.0</ele><time>2026-05-02T19:40:00.943Z</time></trkpt><trkpt lat="44.981638933333336" lon="7.645622866666668"><ele>227.5</ele><time>2026-05-02T19:40:01.915Z</time></trkpt><trkpt lat="44.98189348333333" lon="7.6452083"><ele>227.0</ele><time>2026-05-02T19:40:02.945Z</time></trkpt><trkpt lat="44.98214838333333" lon="7.644793816666667"><ele>228.5</ele><time>2026-05-02T19:40:03.917Z</time></trkpt><trkpt lat="44.98240134999999" lon="7.6443836166666665"><ele>230.0</ele><time>2026-05-02T19:40:04.944Z</time></trkpt><trkpt lat="44.98265708333333" lon="7.643970216666665"><ele>230.0</ele><time>2026-05-02T19:40:05.936Z</time></trkpt><trkpt lat="44.982908616666656" lon="7.643564616666667"><ele>230.0</ele><time>2026-05-02T19:40:06.944Z</time></trkpt><trkpt lat="44.983162416666666" lon="7.643155916666665"><ele>230.5</ele><time>2026-05-02T19:40:07.925Z</time></trkpt><trkpt lat="44.98341455" lon="7.642751233333333"><ele>231.0</ele><time>2026-05-02T19:40:08.934Z</time></trkpt><trkpt lat="44.9836697" lon="7.642343783333333"><ele>230.0</ele><time>2026-05-02T19:40:09.925Z</time></trkpt><trkpt lat="44.9839204" lon="7.641957133333333"><ele>229.0</ele><time>2026-05-02T19:40:10.955Z</time></trkpt><trkpt lat="44.98417093333334" lon="7.6415579"><ele>229.5</ele><time>2026-05-02T19:40:11.924Z</time></trkpt><trkpt lat="44.98442013333333" lon="7.641163616666667"><ele>230.0</ele><time>2026-05-02T19:40:12.94Z</time></trkpt><trkpt lat="44.98469908333333" lon="7.640726666666666"><ele>230.0</ele><time>2026-05-02T19:40:14.035Z</time></trkpt><trkpt lat="44.984924633333335" lon="7.640375716666667"><ele>230.0</ele><time>2026-05-02T19:40:14.915Z</time></trkpt><trkpt lat="44.98517685" lon="7.639985116666666"><ele>230.0</ele><time>2026-05-02T19:40:15.916Z</time></trkpt><trkpt lat="44.98542688333334" lon="7.639598633333333"><ele>230.0</ele><time>2026-05-02T19:40:16.917Z</time></trkpt><trkpt lat="44.98567783333333" lon="7.639213316666667"><ele>230.0</ele><time>2026-05-02T19:40:17.923Z</time></trkpt><trkpt lat="44.98593055" lon="7.63883035"><ele>230.0</ele><time>2026-05-02T19:40:18.914Z</time></trkpt><trkpt lat="44.98618736666668" lon="7.638445616666667"><ele>231.5</ele><time>2026-05-02T19:40:19.921Z</time></trkpt><trkpt lat="44.986439999999995" lon="7.638069350000001"><ele>233.0</ele><time>2026-05-02T19:40:20.916Z</time></trkpt><trkpt lat="44.9866943" lon="7.637688900000001"><ele>233.0</ele><time>2026-05-02T19:40:21.928Z</time></trkpt><trkpt lat="44.98694375" lon="7.637315316666666"><ele>233.0</ele><time>2026-05-02T19:40:22.918Z</time></trkpt><trkpt lat="44.98719093333334" lon="7.636946016666667"><ele>232.5</ele><time>2026-05-02T19:40:23.926Z</time></trkpt><trkpt lat="44.987428900000005" lon="7.636591800000001"><ele>232.0</ele><time>2026-05-02T19:40:24.918Z</time></trkpt><trkpt lat="44.987661166666676" lon="7.63624495"><ele>233.0</ele><time>2026-05-02T19:40:25.926Z</time></trkpt><trkpt lat="44.98789023333333" lon="7.635900866666667"><ele>234.0</ele><time>2026-05-02T19:40:26.915Z</time></trkpt><trkpt lat="44.98811813333334" lon="7.635556800000001"><ele>234.0</ele><time>2026-05-02T19:40:27.917Z</time></trkpt><trkpt lat="44.988345716666664" lon="7.635212716666666"><ele>234.0</ele><time>2026-05-02T19:40:28.919Z</time></trkpt><trkpt lat="44.9885737" lon="7.634880299999999"><ele>234.0</ele><time>2026-05-02T19:40:29.918Z</time></trkpt><trkpt lat="44.98879725" lon="7.634538316666667"><ele>234.0</ele><time>2026-05-02T19:40:30.954Z</time></trkpt><trkpt lat="44.9890238" lon="7.634193983333334"><ele>233.5</ele><time>2026-05-02T19:40:31.924Z</time></trkpt><trkpt lat="44.98925145" lon="7.633851"><ele>233.0</ele><time>2026-05-02T19:40:32.923Z</time></trkpt><trkpt lat="44.98947895" lon="7.633507916666668"><ele>234.0</ele><time>2026-05-02T19:40:33.92Z</time></trkpt><trkpt lat="44.98970851666666" lon="7.633160666666667"><ele>235.0</ele><time>2026-05-02T19:40:34.916Z</time></trkpt><trkpt lat="44.989940866666664" lon="7.63280955"><ele>235.0</ele><time>2026-05-02T19:40:35.916Z</time></trkpt><trkpt lat="44.99017128333333" lon="7.632460433333334"><ele>235.0</ele><time>2026-05-02T19:40:36.918Z</time></trkpt><trkpt lat="44.99040446666666" lon="7.632107816666666"><ele>235.0</ele><time>2026-05-02T19:40:37.925Z</time></trkpt><trkpt lat="44.99063338333333" lon="7.631762733333333"><ele>235.0</ele><time>2026-05-02T19:40:38.949Z</time></trkpt><trkpt lat="44.99085541666666" lon="7.631432316666667"><ele>234.0</ele><time>2026-05-02T19:40:39.997Z</time></trkpt><trkpt lat="44.99107049999999" lon="7.631114299999999"><ele>233.0</ele><time>2026-05-02T19:40:40.916Z</time></trkpt><trkpt lat="44.99128256666666" lon="7.6308066"><ele>233.0</ele><time>2026-05-02T19:40:41.933Z</time></trkpt><trkpt lat="44.9914958" lon="7.630519866666667"><ele>233.0</ele><time>2026-05-02T19:40:42.92Z</time></trkpt><trkpt lat="44.991707766666664" lon="7.6302336166666676"><ele>234.0</ele><time>2026-05-02T19:40:43.936Z</time></trkpt><trkpt lat="44.99192235" lon="7.629952066666668"><ele>235.0</ele><time>2026-05-02T19:40:44.918Z</time></trkpt><trkpt lat="44.9921371" lon="7.629678233333334"><ele>235.0</ele><time>2026-05-02T19:40:45.933Z</time></trkpt><trkpt lat="44.992354183333326" lon="7.62940825"><ele>235.0</ele><time>2026-05-02T19:40:46.95Z</time></trkpt><trkpt lat="44.99257363333333" lon="7.629141783333333"><ele>235.0</ele><time>2026-05-02T19:40:47.931Z</time></trkpt><trkpt lat="44.99279591666667" lon="7.6288801"><ele>235.0</ele><time>2026-05-02T19:40:48.954Z</time></trkpt><trkpt lat="44.99302063333333" lon="7.628622699999999"><ele>235.5</ele><time>2026-05-02T19:40:49.945Z</time></trkpt><trkpt lat="44.99324911666666" lon="7.6283718333333335"><ele>236.0</ele><time>2026-05-02T19:40:50.952Z</time></trkpt><trkpt lat="44.993477950000006" lon="7.628129849999999"><ele>236.0</ele><time>2026-05-02T19:40:51.918Z</time></trkpt><trkpt lat="44.99370953333334" lon="7.6278933833333324"><ele>236.0</ele><time>2026-05-02T19:40:52.943Z</time></trkpt><trkpt lat="44.9939486" lon="7.627662966666666"><ele>234.5</ele><time>2026-05-02T19:40:53.921Z</time></trkpt><trkpt lat="44.99419083333334" lon="7.627439"><ele>233.0</ele><time>2026-05-02T19:40:54.965Z</time></trkpt><trkpt lat="44.99443818333332" lon="7.627216883333333"><ele>233.0</ele><time>2026-05-02T19:40:55.919Z</time></trkpt><trkpt lat="44.994687533333334" lon="7.626999116666667"><ele>233.0</ele><time>2026-05-02T19:40:56.939Z</time></trkpt><trkpt lat="44.99494226666667" lon="7.626784216666666"><ele>233.0</ele><time>2026-05-02T19:40:57.925Z</time></trkpt><trkpt lat="44.9952027" lon="7.626572650000001"><ele>233.0</ele><time>2026-05-02T19:40:58.941Z</time></trkpt><trkpt lat="44.99546546666667" lon="7.626366633333333"><ele>233.0</ele><time>2026-05-02T19:40:59.92Z</time></trkpt><trkpt lat="44.99573193333334" lon="7.626172083333334"><ele>233.0</ele><time>2026-05-02T19:41:00.964Z</time></trkpt><trkpt lat="44.99600961666667" lon="7.6259724166666665"><ele>233.0</ele><time>2026-05-02T19:41:01.97Z</time></trkpt><trkpt lat="44.9962874" lon="7.625784416666667"><ele>233.0</ele><time>2026-05-02T19:41:02.954Z</time></trkpt><trkpt lat="44.996573716666674" lon="7.6255982499999995"><ele>233.5</ele><time>2026-05-02T19:41:03.918Z</time></trkpt><trkpt lat="44.99685886666666" lon="7.625420050000001"><ele>234.0</ele><time>2026-05-02T19:41:04.995Z</time></trkpt><trkpt lat="44.99714561666666" lon="7.625247466666667"><ele>234.5</ele><time>2026-05-02T19:41:05.915Z</time></trkpt><trkpt lat="44.99743436666666" lon="7.6250808333333335"><ele>235.0</ele><time>2026-05-02T19:41:06.919Z</time></trkpt><trkpt lat="44.99772161666666" lon="7.6249231"><ele>233.5</ele><time>2026-05-02T19:41:07.916Z</time></trkpt><trkpt lat="44.99801080000001" lon="7.624772883333333"><ele>232.0</ele><time>2026-05-02T19:41:08.917Z</time></trkpt><trkpt lat="44.99830165" lon="7.624629316666666"><ele>233.0</ele><time>2026-05-02T19:41:09.933Z</time></trkpt><trkpt lat="44.998597450000005" lon="7.6244897499999995"><ele>234.0</ele><time>2026-05-02T19:41:10.92Z</time></trkpt><trkpt lat="44.998894166666666" lon="7.624354466666667"><ele>235.5</ele><time>2026-05-02T19:41:11.918Z</time></trkpt><trkpt lat="44.99920078333333" lon="7.624213483333333"><ele>237.0</ele><time>2026-05-02T19:41:12.918Z</time></trkpt><trkpt lat="44.99951098333333" lon="7.624070816666666"><ele>237.0</ele><time>2026-05-02T19:41:13.916Z</time></trkpt><trkpt lat="44.999824733333334" lon="7.623926233333333"><ele>237.0</ele><time>2026-05-02T19:41:14.937Z</time></trkpt><trkpt lat="45.00014508333334" lon="7.623777533333333"><ele>236.5</ele><time>2026-05-02T19:41:15.931Z</time></trkpt><trkpt lat="45.00046988333334" lon="7.623626583333333"><ele>236.0</ele><time>2026-05-02T19:41:16.919Z</time></trkpt><trkpt lat="45.000790233333326" lon="7.623463133333333"><ele>236.0</ele><time>2026-05-02T19:41:17.929Z</time></trkpt><trkpt lat="45.00112216666667" lon="7.623308983333334"><ele>236.0</ele><time>2026-05-02T19:41:18.915Z</time></trkpt><trkpt lat="45.001454333333335" lon="7.623154433333333"><ele>235.5</ele><time>2026-05-02T19:41:19.915Z</time></trkpt><trkpt lat="45.00179321666666" lon="7.622996016666667"><ele>235.0</ele><time>2026-05-02T19:41:20.917Z</time></trkpt><trkpt lat="45.00213611666666" lon="7.622836250000001"><ele>236.0</ele><time>2026-05-02T19:41:21.916Z</time></trkpt><trkpt lat="45.002482300000004" lon="7.6226747333333345"><ele>237.0</ele><time>2026-05-02T19:41:22.921Z</time></trkpt><trkpt lat="45.00282896666666" lon="7.622514966666667"><ele>237.0</ele><time>2026-05-02T19:41:23.915Z</time></trkpt><trkpt lat="45.00317933333334" lon="7.622354383333334"><ele>237.0</ele><time>2026-05-02T19:41:24.92Z</time></trkpt><trkpt lat="45.00353338333333" lon="7.622192183333334"><ele>237.0</ele><time>2026-05-02T19:41:25.919Z</time></trkpt><trkpt lat="45.00388735" lon="7.6220295"><ele>237.0</ele><time>2026-05-02T19:41:26.934Z</time></trkpt><trkpt lat="45.004241150000006" lon="7.621865716666668"><ele>237.0</ele><time>2026-05-02T19:41:27.929Z</time></trkpt><trkpt lat="45.0045983" lon="7.621698999999999"><ele>237.0</ele><time>2026-05-02T19:41:28.918Z</time></trkpt><trkpt lat="45.00498253333334" lon="7.62151995"><ele>238.0</ele><time>2026-05-02T19:41:30.037Z</time></trkpt><trkpt lat="45.00529618333333" lon="7.621376033333333"><ele>239.0</ele><time>2026-05-02T19:41:30.919Z</time></trkpt><trkpt lat="45.00563715" lon="7.621206383333334"><ele>237.0</ele><time>2026-05-02T19:41:31.939Z</time></trkpt><trkpt lat="45.0059757" lon="7.621042516666668"><ele>235.0</ele><time>2026-05-02T19:41:32.945Z</time></trkpt><trkpt lat="45.00630175" lon="7.62086055"><ele>235.0</ele><time>2026-05-02T19:41:33.945Z</time></trkpt><trkpt lat="45.0066191" lon="7.620651166666667"><ele>235.0</ele><time>2026-05-02T19:41:34.928Z</time></trkpt><trkpt lat="45.0069289" lon="7.620409683333332"><ele>235.5</ele><time>2026-05-02T19:41:35.958Z</time></trkpt><trkpt lat="45.00722091666667" lon="7.620145149999999"><ele>236.0</ele><time>2026-05-02T19:41:36.924Z</time></trkpt><trkpt lat="45.0075069" lon="7.619851199999999"><ele>236.5</ele><time>2026-05-02T19:41:37.935Z</time></trkpt><trkpt lat="45.0077773" lon="7.619536466666666"><ele>237.0</ele><time>2026-05-02T19:41:38.925Z</time></trkpt><trkpt lat="45.00803446666667" lon="7.619193483333333"><ele>238.0</ele><time>2026-05-02T19:41:39.964Z</time></trkpt><trkpt lat="45.00827603333334" lon="7.618828116666667"><ele>239.0</ele><time>2026-05-02T19:41:41.001Z</time></trkpt><trkpt lat="45.00849856666667" lon="7.618445649999999"><ele>236.5</ele><time>2026-05-02T19:41:41.928Z</time></trkpt><trkpt lat="45.008705516666666" lon="7.618039966666666"><ele>234.0</ele><time>2026-05-02T19:41:42.925Z</time></trkpt><trkpt lat="45.008890599999994" lon="7.617619433333334"><ele>234.0</ele><time>2026-05-02T19:41:43.925Z</time></trkpt><trkpt lat="45.00905530000001" lon="7.617182833333334"><ele>234.0</ele><time>2026-05-02T19:41:44.918Z</time></trkpt><trkpt lat="45.0091988" lon="7.616731716666668"><ele>235.5</ele><time>2026-05-02T19:41:45.918Z</time></trkpt><trkpt lat="45.009319166666664" lon="7.6162780833333334"><ele>237.0</ele><time>2026-05-02T19:41:46.918Z</time></trkpt><trkpt lat="45.00942166666667" lon="7.61580535"><ele>237.0</ele><time>2026-05-02T19:41:47.92Z</time></trkpt><trkpt lat="45.00950315" lon="7.615324216666666"><ele>237.0</ele><time>2026-05-02T19:41:48.917Z</time></trkpt><trkpt lat="45.00956685" lon="7.614837733333334"><ele>238.0</ele><time>2026-05-02T19:41:49.935Z</time></trkpt><trkpt lat="45.00962426666667" lon="7.614344633333333"><ele>239.0</ele><time>2026-05-02T19:41:50.919Z</time></trkpt><trkpt lat="45.00967858333333" lon="7.613850683333333"><ele>239.0</ele><time>2026-05-02T19:41:51.916Z</time></trkpt><trkpt lat="45.009730033333334" lon="7.613356316666666"><ele>239.0</ele><time>2026-05-02T19:41:52.919Z</time></trkpt><trkpt lat="45.00978041666667" lon="7.612861533333334"><ele>239.5</ele><time>2026-05-02T19:41:53.921Z</time></trkpt><trkpt lat="45.00983230000001" lon="7.612361883333333"><ele>240.0</ele><time>2026-05-02T19:41:54.945Z</time></trkpt><trkpt lat="45.00988301666666" lon="7.61186165"><ele>240.5</ele><time>2026-05-02T19:41:55.922Z</time></trkpt><trkpt lat="45.009934566666665" lon="7.611361766666666"><ele>241.0</ele><time>2026-05-02T19:41:56.916Z</time></trkpt><trkpt lat="45.00999096666666" lon="7.610862866666667"><ele>239.0</ele><time>2026-05-02T19:41:57.946Z</time></trkpt><trkpt lat="45.010057766666655" lon="7.610371949999998"><ele>237.0</ele><time>2026-05-02T19:41:58.918Z</time></trkpt><trkpt lat="45.010137066666665" lon="7.6098847833333325"><ele>237.0</ele><time>2026-05-02T19:41:59.92Z</time></trkpt><trkpt lat="45.0102301" lon="7.609407850000001"><ele>237.0</ele><time>2026-05-02T19:42:00.92Z</time></trkpt><trkpt lat="45.010338983333334" lon="7.60893805"><ele>238.0</ele><time>2026-05-02T19:42:01.916Z</time></trkpt><trkpt lat="45.01046145" lon="7.6084803999999995"><ele>239.0</ele><time>2026-05-02T19:42:02.918Z</time></trkpt><trkpt lat="45.01060016666667" lon="7.608026683333333"><ele>239.5</ele><time>2026-05-02T19:42:03.916Z</time></trkpt><trkpt lat="45.0107523" lon="7.607587133333334"><ele>240.0</ele><time>2026-05-02T19:42:04.919Z</time></trkpt><trkpt lat="45.010919349999995" lon="7.607158650000001"><ele>240.0</ele><time>2026-05-02T19:42:05.92Z</time></trkpt><trkpt lat="45.01109998333333" lon="7.606741233333334"><ele>240.0</ele><time>2026-05-02T19:42:06.917Z</time></trkpt><trkpt lat="45.01129318333333" lon="7.60633505"><ele>239.5</ele><time>2026-05-02T19:42:07.917Z</time></trkpt><trkpt lat="45.01150005" lon="7.605942183333333"><ele>239.0</ele><time>2026-05-02T19:42:08.93Z</time></trkpt><trkpt lat="45.01171898333334" lon="7.605562400000001"><ele>240.0</ele><time>2026-05-02T19:42:09.916Z</time></trkpt><trkpt lat="45.01194856666666" lon="7.60519545"><ele>241.0</ele><time>2026-05-02T19:42:10.928Z</time></trkpt><trkpt lat="45.01218803333333" lon="7.6048478500000005"><ele>241.0</ele><time>2026-05-02T19:42:11.921Z</time></trkpt><trkpt lat="45.01244066666666" lon="7.60451215"><ele>241.0</ele><time>2026-05-02T19:42:12.918Z</time></trkpt><trkpt lat="45.012704866666674" lon="7.604194566666666"><ele>240.5</ele><time>2026-05-02T19:42:13.947Z</time></trkpt><trkpt lat="45.012976933333334" lon="7.603910583333334"><ele>240.0</ele><time>2026-05-02T19:42:14.933Z</time></trkpt><trkpt lat="45.01325983333333" lon="7.6036272"><ele>242.5</ele><time>2026-05-02T19:42:15.931Z</time></trkpt><trkpt lat="45.01354933333334" lon="7.603366266666665"><ele>245.0</ele><time>2026-05-02T19:42:16.946Z</time></trkpt><trkpt lat="45.01384756666666" lon="7.603126116666666"><ele>245.0</ele><time>2026-05-02T19:42:17.93Z</time></trkpt><trkpt lat="45.014153666666665" lon="7.602906016666666"><ele>245.0</ele><time>2026-05-02T19:42:18.935Z</time></trkpt><trkpt lat="45.01446640000001" lon="7.602705266666668"><ele>245.5</ele><time>2026-05-02T19:42:19.922Z</time></trkpt><trkpt lat="45.01478483333333" lon="7.6025233"><ele>246.0</ele><time>2026-05-02T19:42:20.946Z</time></trkpt><trkpt lat="45.01510786666666" lon="7.602358333333333"><ele>247.5</ele><time>2026-05-02T19:42:21.929Z</time></trkpt><trkpt lat="45.01543374999999" lon="7.602204033333334"><ele>249.0</ele><time>2026-05-02T19:42:22.962Z</time></trkpt><trkpt lat="45.015767866666664" lon="7.602062200000001"><ele>250.0</ele><time>2026-05-02T19:42:23.92Z</time></trkpt><trkpt lat="45.01609181666666" lon="7.6019146"><ele>251.0</ele><time>2026-05-02T19:42:24.955Z</time></trkpt><trkpt lat="45.01641561666667" lon="7.601767416666666"><ele>251.0</ele><time>2026-05-02T19:42:25.925Z</time></trkpt><trkpt lat="45.01673588333333" lon="7.6016214"><ele>251.0</ele><time>2026-05-02T19:42:26.917Z</time></trkpt><trkpt lat="45.0170565" lon="7.60147195"><ele>251.0</ele><time>2026-05-02T19:42:27.925Z</time></trkpt><trkpt lat="45.017381033333336" lon="7.60132955"><ele>251.0</ele><time>2026-05-02T19:42:28.92Z</time></trkpt><trkpt lat="45.01769788333333" lon="7.601168783333333"><ele>252.5</ele><time>2026-05-02T19:42:29.922Z</time></trkpt><trkpt lat="45.01801663333334" lon="7.6009990499999995"><ele>254.0</ele><time>2026-05-02T19:42:30.917Z</time></trkpt><trkpt lat="45.01833011666666" lon="7.60082555"><ele>254.0</ele><time>2026-05-02T19:42:31.919Z</time></trkpt><trkpt lat="45.01864511666666" lon="7.6006439"><ele>254.0</ele><time>2026-05-02T19:42:32.917Z</time></trkpt><trkpt lat="45.018957933333326" lon="7.600454466666668"><ele>254.5</ele><time>2026-05-02T19:42:33.921Z</time></trkpt><trkpt lat="45.01927166666666" lon="7.600255483333332"><ele>255.0</ele><time>2026-05-02T19:42:34.917Z</time></trkpt><trkpt lat="45.01958028333333" lon="7.600064633333334"><ele>255.0</ele><time>2026-05-02T19:42:35.917Z</time></trkpt><trkpt lat="45.01988933333334" lon="7.5998523166666665"><ele>255.0</ele><time>2026-05-02T19:42:36.921Z</time></trkpt><trkpt lat="45.02019988333333" lon="7.599631966666667"><ele>255.0</ele><time>2026-05-02T19:42:37.946Z</time></trkpt><trkpt lat="45.020508500000005" lon="7.599406233333333"><ele>255.0</ele><time>2026-05-02T19:42:38.919Z</time></trkpt><trkpt lat="45.020815183333326" lon="7.5991754"><ele>255.5</ele><time>2026-05-02T19:42:39.936Z</time></trkpt><trkpt lat="45.02112255" lon="7.598935833333334"><ele>256.0</ele><time>2026-05-02T19:42:40.918Z</time></trkpt><trkpt lat="45.021427399999986" lon="7.5986899166666655"><ele>257.0</ele><time>2026-05-02T19:42:41.945Z</time></trkpt><trkpt lat="45.02172696666667" lon="7.5984414"><ele>258.0</ele><time>2026-05-02T19:42:42.92Z</time></trkpt><trkpt lat="45.022024783333336" lon="7.598189349999999"><ele>258.0</ele><time>2026-05-02T19:42:43.933Z</time></trkpt><trkpt lat="45.022315383333336" lon="7.5979399"><ele>258.0</ele><time>2026-05-02T19:42:44.958Z</time></trkpt><trkpt lat="45.02262266666666" lon="7.597672433333334"><ele>258.0</ele><time>2026-05-02T19:42:46.062Z</time></trkpt><trkpt lat="45.02287253333334" lon="7.597453"><ele>258.0</ele><time>2026-05-02T19:42:46.919Z</time></trkpt><trkpt lat="45.023142516666674" lon="7.59721345"><ele>259.5</ele><time>2026-05-02T19:42:48.099Z</time></trkpt><trkpt lat="45.023413250000004" lon="7.596975816666666"><ele>261.0</ele><time>2026-05-02T19:42:48.919Z</time></trkpt><trkpt lat="45.023678616666665" lon="7.596745066666667"><ele>261.0</ele><time>2026-05-02T19:42:49.94Z</time></trkpt><trkpt lat="45.023934516666664" lon="7.596522183333334"><ele>261.0</ele><time>2026-05-02T19:42:50.936Z</time></trkpt><trkpt lat="45.02418438333334" lon="7.596310216666665"><ele>262.5</ele><time>2026-05-02T19:42:51.918Z</time></trkpt><trkpt lat="45.02444011666667" lon="7.5960875"><ele>264.0</ele><time>2026-05-02T19:42:52.96Z</time></trkpt><trkpt lat="45.024702216666675" lon="7.595860433333333"><ele>264.0</ele><time>2026-05-02T19:42:53.933Z</time></trkpt><trkpt lat="45.02497101666666" lon="7.5956286833333335"><ele>264.0</ele><time>2026-05-02T19:42:54.955Z</time></trkpt><trkpt lat="45.02524335" lon="7.595395666666667"><ele>264.5</ele><time>2026-05-02T19:42:55.921Z</time></trkpt><trkpt lat="45.025524983333334" lon="7.595154766666667"><ele>265.0</ele><time>2026-05-02T19:42:56.937Z</time></trkpt><trkpt lat="45.02581256666667" lon="7.594907833333333"><ele>265.0</ele><time>2026-05-02T19:42:57.923Z</time></trkpt><trkpt lat="45.02610953333333" lon="7.594653016666666"><ele>265.0</ele><time>2026-05-02T19:42:58.946Z</time></trkpt><trkpt lat="45.02641806666667" lon="7.594387566666668"><ele>265.5</ele><time>2026-05-02T19:42:59.918Z</time></trkpt><trkpt lat="45.02673248333334" lon="7.594115583333333"><ele>266.0</ele><time>2026-05-02T19:43:00.945Z</time></trkpt><trkpt lat="45.02704956666667" lon="7.593845183333334"><ele>266.5</ele><time>2026-05-02T19:43:01.924Z</time></trkpt><trkpt lat="45.02737931666667" lon="7.593559016666668"><ele>267.0</ele><time>2026-05-02T19:43:02.936Z</time></trkpt><trkpt lat="45.02771516666667" lon="7.593267083333335"><ele>267.0</ele><time>2026-05-02T19:43:03.918Z</time></trkpt><trkpt lat="45.02805883333333" lon="7.592972616666666"><ele>267.0</ele><time>2026-05-02T19:43:05Z</time></trkpt><trkpt lat="45.02839946666666" lon="7.5926801"><ele>266.0</ele><time>2026-05-02T19:43:05.92Z</time></trkpt><trkpt lat="45.028734333333325" lon="7.592394683333333"><ele>265.0</ele><time>2026-05-02T19:43:06.921Z</time></trkpt><trkpt lat="45.029068683333335" lon="7.592108366666668"><ele>265.5</ele><time>2026-05-02T19:43:07.924Z</time></trkpt><trkpt lat="45.02940136666666" lon="7.5918183500000005"><ele>266.0</ele><time>2026-05-02T19:43:08.936Z</time></trkpt><trkpt lat="45.02972993333332" lon="7.5915201166666675"><ele>265.0</ele><time>2026-05-02T19:43:09.921Z</time></trkpt><trkpt lat="45.030053716666664" lon="7.591202783333333"><ele>264.0</ele><time>2026-05-02T19:43:10.92Z</time></trkpt><trkpt lat="45.030367966666674" lon="7.590866333333334"><ele>263.5</ele><time>2026-05-02T19:43:11.92Z</time></trkpt><trkpt lat="45.0306739" lon="7.590515883333334"><ele>263.0</ele><time>2026-05-02T19:43:12.918Z</time></trkpt><trkpt lat="45.030970533333324" lon="7.590133416666666"><ele>263.0</ele><time>2026-05-02T19:43:13.918Z</time></trkpt><trkpt lat="45.031256016666674" lon="7.589727483333333"><ele>263.0</ele><time>2026-05-02T19:43:14.922Z</time></trkpt><trkpt lat="45.03152558333333" lon="7.589307466666666"><ele>264.5</ele><time>2026-05-02T19:43:15.919Z</time></trkpt><trkpt lat="45.03178676666666" lon="7.588864066666667"><ele>266.0</ele><time>2026-05-02T19:43:16.922Z</time></trkpt><trkpt lat="45.03203453333334" lon="7.588404900000001"><ele>266.0</ele><time>2026-05-02T19:43:17.92Z</time></trkpt><trkpt lat="45.0322678" lon="7.587931149999999"><ele>266.0</ele><time>2026-05-02T19:43:18.922Z</time></trkpt><trkpt lat="45.032487833333334" lon="7.587438966666667"><ele>266.0</ele><time>2026-05-02T19:43:19.922Z</time></trkpt><trkpt lat="45.03269351666666" lon="7.58694235"><ele>266.0</ele><time>2026-05-02T19:43:20.92Z</time></trkpt><trkpt lat="45.03288319999999" lon="7.586419900000001"><ele>266.5</ele><time>2026-05-02T19:43:21.922Z</time></trkpt><trkpt lat="45.033056633333345" lon="7.585886816666665"><ele>267.0</ele><time>2026-05-02T19:43:22.922Z</time></trkpt><trkpt lat="45.033217216666664" lon="7.5853401499999995"><ele>266.5</ele><time>2026-05-02T19:43:23.922Z</time></trkpt><trkpt lat="45.03337295" lon="7.584790716666666"><ele>266.0</ele><time>2026-05-02T19:43:24.921Z</time></trkpt><trkpt lat="45.03352499999999" lon="7.58424455"><ele>265.5</ele><time>2026-05-02T19:43:25.918Z</time></trkpt><trkpt lat="45.03367411666666" lon="7.583702149999999"><ele>265.0</ele><time>2026-05-02T19:43:26.92Z</time></trkpt><trkpt lat="45.03382163333334" lon="7.583164866666668"><ele>266.5</ele><time>2026-05-02T19:43:27.92Z</time></trkpt><trkpt lat="45.03396731666667" lon="7.582632699999999"><ele>268.0</ele><time>2026-05-02T19:43:28.919Z</time></trkpt><trkpt lat="45.03411214999999" lon="7.582100116666667"><ele>267.5</ele><time>2026-05-02T19:43:29.922Z</time></trkpt><trkpt lat="45.0342534" lon="7.581579850000002"><ele>267.0</ele><time>2026-05-02T19:43:30.928Z</time></trkpt><trkpt lat="45.03440125" lon="7.581043583333334"><ele>267.0</ele><time>2026-05-02T19:43:31.919Z</time></trkpt><trkpt lat="45.03454651666666" lon="7.580511583333333"><ele>267.0</ele><time>2026-05-02T19:43:32.922Z</time></trkpt><trkpt lat="45.03469226666666" lon="7.579980416666666"><ele>268.5</ele><time>2026-05-02T19:43:33.919Z</time></trkpt><trkpt lat="45.03483786666667" lon="7.579449083333333"><ele>270.0</ele><time>2026-05-02T19:43:34.918Z</time></trkpt><trkpt lat="45.03498286666666" lon="7.578917083333333"><ele>270.5</ele><time>2026-05-02T19:43:35.936Z</time></trkpt><trkpt lat="45.03512855000001" lon="7.578380316666666"><ele>271.0</ele><time>2026-05-02T19:43:36.92Z</time></trkpt><trkpt lat="45.035274316666666" lon="7.57784865"><ele>273.0</ele><time>2026-05-02T19:43:37.918Z</time></trkpt><trkpt lat="45.035420916666666" lon="7.577312033333334"><ele>275.0</ele><time>2026-05-02T19:43:38.917Z</time></trkpt><trkpt lat="45.03556675" lon="7.576780033333334"><ele>275.0</ele><time>2026-05-02T19:43:39.918Z</time></trkpt><trkpt lat="45.03571100000001" lon="7.576255833333333"><ele>275.0</ele><time>2026-05-02T19:43:40.924Z</time></trkpt><trkpt lat="45.03585945" lon="7.5757144499999995"><ele>275.0</ele><time>2026-05-02T19:43:41.943Z</time></trkpt><trkpt lat="45.036006633333336" lon="7.575177833333334"><ele>275.0</ele><time>2026-05-02T19:43:42.922Z</time></trkpt><trkpt lat="45.03615433333332" lon="7.574636283333333"><ele>275.0</ele><time>2026-05-02T19:43:43.922Z</time></trkpt><trkpt lat="45.03630066666666" lon="7.5740991666666675"><ele>275.0</ele><time>2026-05-02T19:43:44.923Z</time></trkpt><trkpt lat="45.036448199999995" lon="7.57355745"><ele>275.0</ele><time>2026-05-02T19:43:45.93Z</time></trkpt><trkpt lat="45.03659605" lon="7.57301565"><ele>275.0</ele><time>2026-05-02T19:43:46.924Z</time></trkpt><trkpt lat="45.0367424" lon="7.572478616666666"><ele>276.0</ele><time>2026-05-02T19:43:47.918Z</time></trkpt><trkpt lat="45.03688933333333" lon="7.571942516666667"><ele>277.0</ele><time>2026-05-02T19:43:48.921Z</time></trkpt><trkpt lat="45.037035683333336" lon="7.571411516666666"><ele>277.5</ele><time>2026-05-02T19:43:49.946Z</time></trkpt><trkpt lat="45.03718161666667" lon="7.570880600000001"><ele>278.0</ele><time>2026-05-02T19:43:50.936Z</time></trkpt><trkpt lat="45.03732695" lon="7.570349033333334"><ele>279.5</ele><time>2026-05-02T19:43:51.974Z</time></trkpt><trkpt lat="45.03747263333333" lon="7.569818116666666"><ele>281.0</ele><time>2026-05-02T19:43:52.927Z</time></trkpt><trkpt lat="45.03761721666666" lon="7.569292149999999"><ele>280.5</ele><time>2026-05-02T19:43:53.937Z</time></trkpt><trkpt lat="45.03775963333333" lon="7.568770549999999"><ele>280.0</ele><time>2026-05-02T19:43:54.927Z</time></trkpt><trkpt lat="45.03790028333332" lon="7.568257066666666"><ele>279.0</ele><time>2026-05-02T19:43:55.965Z</time></trkpt><trkpt lat="45.038043183333336" lon="7.5677300999999995"><ele>278.0</ele><time>2026-05-02T19:43:56.928Z</time></trkpt><trkpt lat="45.0381851" lon="7.5672079"><ele>281.0</ele><time>2026-05-02T19:43:57.948Z</time></trkpt><trkpt lat="45.03832741666667" lon="7.566686383333333"><ele>284.0</ele><time>2026-05-02T19:43:58.92Z</time></trkpt><trkpt lat="45.0384694" lon="7.566170066666666"><ele>284.0</ele><time>2026-05-02T19:44:00.015Z</time></trkpt><trkpt lat="45.038613066666656" lon="7.565649550000001"><ele>284.0</ele><time>2026-05-02T19:44:00.921Z</time></trkpt><trkpt lat="45.03876981666667" lon="7.565082416666667"><ele>284.0</ele><time>2026-05-02T19:44:02.044Z</time></trkpt><trkpt lat="45.03889771666666" lon="7.5646173999999995"><ele>284.0</ele><time>2026-05-02T19:44:02.924Z</time></trkpt><trkpt lat="45.03903963333334" lon="7.5641009"><ele>285.0</ele><time>2026-05-02T19:44:03.918Z</time></trkpt><trkpt lat="45.03918061666667" lon="7.563583899999999"><ele>286.0</ele><time>2026-05-02T19:44:04.948Z</time></trkpt><trkpt lat="45.03932041666667" lon="7.563071766666668"><ele>284.5</ele><time>2026-05-02T19:44:05.936Z</time></trkpt><trkpt lat="45.03946040000001" lon="7.562559633333333"><ele>283.0</ele><time>2026-05-02T19:44:06.946Z</time></trkpt><trkpt lat="45.03959435" lon="7.562074250000001"><ele>283.5</ele><time>2026-05-02T19:44:07.923Z</time></trkpt><trkpt lat="45.03972903333334" lon="7.56158155"><ele>284.0</ele><time>2026-05-02T19:44:08.938Z</time></trkpt><trkpt lat="45.03986113333334" lon="7.561098166666667"><ele>286.0</ele><time>2026-05-02T19:44:09.921Z</time></trkpt><trkpt lat="45.03999005" lon="7.560624166666665"><ele>288.0</ele><time>2026-05-02T19:44:10.947Z</time></trkpt><trkpt lat="45.04011863333333" lon="7.560150266666667"><ele>288.0</ele><time>2026-05-02T19:44:11.92Z</time></trkpt><trkpt lat="45.04024738333333" lon="7.559676433333334"><ele>288.0</ele><time>2026-05-02T19:44:12.938Z</time></trkpt><trkpt lat="45.040378216666674" lon="7.55919825"><ele>288.0</ele><time>2026-05-02T19:44:13.922Z</time></trkpt><trkpt lat="45.04050713333333" lon="7.558729366666667"><ele>288.0</ele><time>2026-05-02T19:44:14.958Z</time></trkpt><trkpt lat="45.040635800000004" lon="7.558260566666667"><ele>289.0</ele><time>2026-05-02T19:44:15.929Z</time></trkpt><trkpt lat="45.0407622" lon="7.557800816666666"><ele>290.0</ele><time>2026-05-02T19:44:16.936Z</time></trkpt><trkpt lat="45.04088716666667" lon="7.557345933333333"><ele>290.0</ele><time>2026-05-02T19:44:17.921Z</time></trkpt><trkpt lat="45.04101096666667" lon="7.556895900000001"><ele>290.0</ele><time>2026-05-02T19:44:18.938Z</time></trkpt><trkpt lat="45.04113468333333" lon="7.556445716666667"><ele>290.0</ele><time>2026-05-02T19:44:19.92Z</time></trkpt><trkpt lat="45.04125681666666" lon="7.556005333333333"><ele>290.0</ele><time>2026-05-02T19:44:20.986Z</time></trkpt><trkpt lat="45.04138061666666" lon="7.555563266666667"><ele>289.5</ele><time>2026-05-02T19:44:21.928Z</time></trkpt><trkpt lat="45.041509183333325" lon="7.555129416666667"><ele>289.0</ele><time>2026-05-02T19:44:22.96Z</time></trkpt><trkpt lat="45.041647566666676" lon="7.554702016666666"><ele>289.5</ele><time>2026-05-02T19:44:23.921Z</time></trkpt><trkpt lat="45.041798283333335" lon="7.554277400000001"><ele>290.0</ele><time>2026-05-02T19:44:24.926Z</time></trkpt><trkpt lat="45.04196063333334" lon="7.5538612333333335"><ele>290.5</ele><time>2026-05-02T19:44:25.927Z</time></trkpt><trkpt lat="45.04213531666666" lon="7.553449433333333"><ele>291.0</ele><time>2026-05-02T19:44:26.918Z</time></trkpt><trkpt lat="45.042324166666674" lon="7.553040733333334"><ele>293.5</ele><time>2026-05-02T19:44:27.919Z</time></trkpt><trkpt lat="45.04252079999999" lon="7.552654749999999"><ele>296.0</ele><time>2026-05-02T19:44:28.922Z</time></trkpt><trkpt lat="45.042734450000005" lon="7.552264233333333"><ele>295.0</ele><time>2026-05-02T19:44:29.925Z</time></trkpt><trkpt lat="45.04295439999999" lon="7.551893166666668"><ele>294.0</ele><time>2026-05-02T19:44:30.93Z</time></trkpt><trkpt lat="45.043181966666666" lon="7.551538366666667"><ele>294.5</ele><time>2026-05-02T19:44:31.922Z</time></trkpt><trkpt lat="45.043417166666664" lon="7.551200733333333"><ele>295.0</ele><time>2026-05-02T19:44:32.919Z</time></trkpt><trkpt lat="45.0436563" lon="7.550881216666666"><ele>295.0</ele><time>2026-05-02T19:44:33.924Z</time></trkpt><trkpt lat="45.04390306666666" lon="7.5505741"><ele>295.0</ele><time>2026-05-02T19:44:34.922Z</time></trkpt><trkpt lat="45.04415401666667" lon="7.550281749999999"><ele>293.0</ele><time>2026-05-02T19:44:35.925Z</time></trkpt><trkpt lat="45.04441761666667" lon="7.549995749999999"><ele>291.0</ele><time>2026-05-02T19:44:36.919Z</time></trkpt><trkpt lat="45.04468919999999" lon="7.549723933333333"><ele>294.0</ele><time>2026-05-02T19:44:37.925Z</time></trkpt><trkpt lat="45.04496798333333" lon="7.549467616666667"><ele>297.0</ele><time>2026-05-02T19:44:38.92Z</time></trkpt><trkpt lat="45.04525019999999" lon="7.549228049999999"><ele>297.0</ele><time>2026-05-02T19:44:39.927Z</time></trkpt><trkpt lat="45.045540716666665" lon="7.548999233333333"><ele>297.0</ele><time>2026-05-02T19:44:40.921Z</time></trkpt><trkpt lat="45.04584045" lon="7.548783566666667"><ele>297.5</ele><time>2026-05-02T19:44:41.921Z</time></trkpt><trkpt lat="45.046142700000004" lon="7.548586083333333"><ele>298.0</ele><time>2026-05-02T19:44:42.923Z</time></trkpt><trkpt lat="45.04645300000001" lon="7.5484021"><ele>297.0</ele><time>2026-05-02T19:44:43.922Z</time></trkpt><trkpt lat="45.04679456666666" lon="7.548220799999999"><ele>296.0</ele><time>2026-05-02T19:44:45.04Z</time></trkpt><trkpt lat="45.04707728333333" lon="7.548090383333332"><ele>296.0</ele><time>2026-05-02T19:44:45.919Z</time></trkpt><trkpt lat="45.047393783333334" lon="7.547962883333334"><ele>296.0</ele><time>2026-05-02T19:44:46.922Z</time></trkpt><trkpt lat="45.04771255000001" lon="7.54784705"><ele>298.0</ele><time>2026-05-02T19:44:47.92Z</time></trkpt><trkpt lat="45.04806266666667" lon="7.547722750000001"><ele>300.0</ele><time>2026-05-02T19:44:49.042Z</time></trkpt><trkpt lat="45.04834446666667" lon="7.547623583333332"><ele>300.5</ele><time>2026-05-02T19:44:49.92Z</time></trkpt><trkpt lat="45.04865726666667" lon="7.547514633333333"><ele>301.0</ele><time>2026-05-02T19:44:50.951Z</time></trkpt><trkpt lat="45.04896975" lon="7.547405066666665"><ele>301.0</ele><time>2026-05-02T19:44:51.92Z</time></trkpt><trkpt lat="45.04928223333333" lon="7.547296033333333"><ele>301.0</ele><time>2026-05-02T19:44:52.983Z</time></trkpt><trkpt lat="45.049594616666674" lon="7.547185550000001"><ele>301.0</ele><time>2026-05-02T19:44:53.927Z</time></trkpt><trkpt lat="45.0499107" lon="7.547074916666666"><ele>301.0</ele><time>2026-05-02T19:44:54.938Z</time></trkpt><trkpt lat="45.05022711666667" lon="7.546965016666666"><ele>302.5</ele><time>2026-05-02T19:44:55.925Z</time></trkpt><trkpt lat="45.05054438333333" lon="7.546866533333334"><ele>304.0</ele><time>2026-05-02T19:44:56.967Z</time></trkpt><trkpt lat="45.05086105" lon="7.546757983333333"><ele>304.5</ele><time>2026-05-02T19:44:57.924Z</time></trkpt><trkpt lat="45.05118098333334" lon="7.546647683333333"><ele>305.0</ele><time>2026-05-02T19:44:58.95Z</time></trkpt><trkpt lat="45.051504599999994" lon="7.5465362"><ele>306.5</ele><time>2026-05-02T19:44:59.921Z</time></trkpt><trkpt lat="45.0518315" lon="7.546422466666666"><ele>308.0</ele><time>2026-05-02T19:45:00.955Z</time></trkpt><trkpt lat="45.05216543333332" lon="7.546306033333334"><ele>307.5</ele><time>2026-05-02T19:45:01.923Z</time></trkpt><trkpt lat="45.05250221666667" lon="7.5461887"><ele>307.0</ele><time>2026-05-02T19:45:02.935Z</time></trkpt><trkpt lat="45.05284629999999" lon="7.546069666666667"><ele>307.0</ele><time>2026-05-02T19:45:03.92Z</time></trkpt><trkpt lat="45.05323211666667" lon="7.545937149999999"><ele>307.0</ele><time>2026-05-02T19:45:05.042Z</time></trkpt><trkpt lat="45.053552733333326" lon="7.545827766666668"><ele>307.5</ele><time>2026-05-02T19:45:05.92Z</time></trkpt><trkpt lat="45.05391138333332" lon="7.545705216666667"><ele>308.0</ele><time>2026-05-02T19:45:06.922Z</time></trkpt><trkpt lat="45.05427716666666" lon="7.545580583333333"><ele>308.0</ele><time>2026-05-02T19:45:07.938Z</time></trkpt><trkpt lat="45.05465033333333" lon="7.5454538499999995"><ele>308.0</ele><time>2026-05-02T19:45:08.928Z</time></trkpt><trkpt lat="45.05502341666667" lon="7.54532595"><ele>308.0</ele><time>2026-05-02T19:45:09.942Z</time></trkpt><trkpt lat="45.05540303333334" lon="7.5451931666666665"><ele>308.0</ele><time>2026-05-02T19:45:10.93Z</time></trkpt><trkpt lat="45.05579001666667" lon="7.545058233333332"><ele>307.5</ele><time>2026-05-02T19:45:11.928Z</time></trkpt><trkpt lat="45.05617726666666" lon="7.544924116666666"><ele>307.0</ele><time>2026-05-02T19:45:12.923Z</time></trkpt><trkpt lat="45.05656786666666" lon="7.544788999999999"><ele>308.0</ele><time>2026-05-02T19:45:13.921Z</time></trkpt><trkpt lat="45.05699308333333" lon="7.544642233333334"><ele>309.0</ele><time>2026-05-02T19:45:15.04Z</time></trkpt><trkpt lat="45.0573457" lon="7.544521116666666"><ele>310.0</ele><time>2026-05-02T19:45:15.923Z</time></trkpt><trkpt lat="45.05773621666667" lon="7.544386083333334"><ele>311.0</ele><time>2026-05-02T19:45:16.938Z</time></trkpt><trkpt lat="45.05816453333334" lon="7.544236216666667"><ele>311.0</ele><time>2026-05-02T19:45:18.069Z</time></trkpt><trkpt lat="45.05850618333334" lon="7.544116016666667"><ele>311.0</ele><time>2026-05-02T19:45:18.921Z</time></trkpt><trkpt lat="45.05888151666666" lon="7.543983416666666"><ele>311.0</ele><time>2026-05-02T19:45:19.937Z</time></trkpt><trkpt lat="45.05925023333333" lon="7.5438548333333335"><ele>311.0</ele><time>2026-05-02T19:45:20.919Z</time></trkpt><trkpt lat="45.05961301666667" lon="7.543737066666667"><ele>312.5</ele><time>2026-05-02T19:45:21.924Z</time></trkpt><trkpt lat="45.05997418333333" lon="7.543635066666667"><ele>314.0</ele><time>2026-05-02T19:45:22.924Z</time></trkpt><trkpt lat="45.06034106666666" lon="7.543547966666667"><ele>314.0</ele><time>2026-05-02T19:45:23.919Z</time></trkpt><trkpt lat="45.060702899999995" lon="7.543482766666667"><ele>314.0</ele><time>2026-05-02T19:45:24.92Z</time></trkpt><trkpt lat="45.06106618333333" lon="7.5434401"><ele>314.0</ele><time>2026-05-02T19:45:25.919Z</time></trkpt><trkpt lat="45.061434150000004" lon="7.5434214"><ele>314.0</ele><time>2026-05-02T19:45:26.957Z</time></trkpt><trkpt lat="45.06180245000001" lon="7.543428616666667"><ele>314.0</ele><time>2026-05-02T19:45:27.939Z</time></trkpt><trkpt lat="45.062169916666676" lon="7.543462733333333"><ele>314.0</ele><time>2026-05-02T19:45:28.923Z</time></trkpt><trkpt lat="45.062535366666665" lon="7.543526766666667"><ele>313.0</ele><time>2026-05-02T19:45:29.925Z</time></trkpt><trkpt lat="45.06288563333333" lon="7.5436126833333335"><ele>312.0</ele><time>2026-05-02T19:45:30.922Z</time></trkpt><trkpt lat="45.06325008333333" lon="7.543717450000001"><ele>313.5</ele><time>2026-05-02T19:45:31.94Z</time></trkpt><trkpt lat="45.06361101666667" lon="7.543824233333334"><ele>315.0</ele><time>2026-05-02T19:45:32.924Z</time></trkpt><trkpt lat="45.063971433333336" lon="7.5439322833333335"><ele>316.0</ele><time>2026-05-02T19:45:33.969Z</time></trkpt><trkpt lat="45.0643249" lon="7.544040416666666"><ele>317.0</ele><time>2026-05-02T19:45:34.923Z</time></trkpt><trkpt lat="45.06467828333333" lon="7.5441482"><ele>317.5</ele><time>2026-05-02T19:45:35.929Z</time></trkpt><trkpt lat="45.065021099999996" lon="7.544253233333334"><ele>318.0</ele><time>2026-05-02T19:45:36.945Z</time></trkpt><trkpt lat="45.065363666666656" lon="7.544357833333334"><ele>318.0</ele><time>2026-05-02T19:45:37.93Z</time></trkpt><trkpt lat="45.06570263333333" lon="7.544462766666666"><ele>318.0</ele><time>2026-05-02T19:45:38.932Z</time></trkpt><trkpt lat="45.06603798333334" lon="7.544565033333333"><ele>317.5</ele><time>2026-05-02T19:45:39.955Z</time></trkpt><trkpt lat="45.066369833333326" lon="7.544666116666667"><ele>317.0</ele><time>2026-05-02T19:45:40.97Z</time></trkpt><trkpt lat="45.0667015" lon="7.5447678"><ele>318.0</ele><time>2026-05-02T19:45:41.962Z</time></trkpt><trkpt lat="45.067033499999994" lon="7.5448680333333344"><ele>319.0</ele><time>2026-05-02T19:45:42.928Z</time></trkpt><trkpt lat="45.06736526666667" lon="7.544969799999999"><ele>319.0</ele><time>2026-05-02T19:45:43.964Z</time></trkpt><trkpt lat="45.06769031666666" lon="7.54506275"><ele>319.0</ele><time>2026-05-02T19:45:44.921Z</time></trkpt><trkpt lat="45.06802214999999" lon="7.545163916666667"><ele>320.5</ele><time>2026-05-02T19:45:45.953Z</time></trkpt><trkpt lat="45.06835408333333" lon="7.545263916666666"><ele>322.0</ele><time>2026-05-02T19:45:46.928Z</time></trkpt><trkpt lat="45.06868599999999" lon="7.545364583333332"><ele>321.5</ele><time>2026-05-02T19:45:47.937Z</time></trkpt><trkpt lat="45.06901800000001" lon="7.545466083333334"><ele>321.0</ele><time>2026-05-02T19:45:48.924Z</time></trkpt><trkpt lat="45.06935311666666" lon="7.545570699999999"><ele>322.0</ele><time>2026-05-02T19:45:49.933Z</time></trkpt><trkpt lat="45.06968478333334" lon="7.545674966666667"><ele>323.0</ele><time>2026-05-02T19:45:50.923Z</time></trkpt><trkpt lat="45.07002006666667" lon="7.545778316666667"><ele>324.0</ele><time>2026-05-02T19:45:51.939Z</time></trkpt><trkpt lat="45.070359116666665" lon="7.545882333333332"><ele>325.0</ele><time>2026-05-02T19:45:52.922Z</time></trkpt><trkpt lat="45.070698583333325" lon="7.545984166666667"><ele>325.0</ele><time>2026-05-02T19:45:53.947Z</time></trkpt><trkpt lat="45.071038216666665" lon="7.546084333333333"><ele>325.0</ele><time>2026-05-02T19:45:54.921Z</time></trkpt><trkpt lat="45.07138136666668" lon="7.546186516666667"><ele>324.5</ele><time>2026-05-02T19:45:55.939Z</time></trkpt><trkpt lat="45.07172796666667" lon="7.546291116666667"><ele>324.0</ele><time>2026-05-02T19:45:56.923Z</time></trkpt><trkpt lat="45.07207446666666" lon="7.546396816666666"><ele>324.0</ele><time>2026-05-02T19:45:57.955Z</time></trkpt><trkpt lat="45.07242081666667" lon="7.546502683333333"><ele>324.0</ele><time>2026-05-02T19:45:58.921Z</time></trkpt><trkpt lat="45.072770750000004" lon="7.546609466666666"><ele>323.5</ele><time>2026-05-02T19:45:59.95Z</time></trkpt><trkpt lat="45.07311710000001" lon="7.546716999999998"><ele>323.0</ele><time>2026-05-02T19:46:00.92Z</time></trkpt><trkpt lat="45.07347005" lon="7.546827733333333"><ele>324.5</ele><time>2026-05-02T19:46:01.949Z</time></trkpt><trkpt lat="45.07381321666667" lon="7.546929399999999"><ele>326.0</ele><time>2026-05-02T19:46:02.941Z</time></trkpt><trkpt lat="45.074155783333325" lon="7.547037283333332"><ele>324.0</ele><time>2026-05-02T19:46:03.969Z</time></trkpt><trkpt lat="45.074494916666666" lon="7.547142966666667"><ele>322.0</ele><time>2026-05-02T19:46:04.92Z</time></trkpt><trkpt lat="45.07483396666666" lon="7.54724875"><ele>323.0</ele><time>2026-05-02T19:46:05.95Z</time></trkpt><trkpt lat="45.07517299999999" lon="7.54735445"><ele>324.0</ele><time>2026-05-02T19:46:06.921Z</time></trkpt><trkpt lat="45.07551196666667" lon="7.54746065"><ele>326.0</ele><time>2026-05-02T19:46:07.937Z</time></trkpt><trkpt lat="45.075854283333335" lon="7.5475691000000005"><ele>328.0</ele><time>2026-05-02T19:46:08.92Z</time></trkpt><trkpt lat="45.07619651666667" lon="7.547677900000001"><ele>328.0</ele><time>2026-05-02T19:46:09.944Z</time></trkpt><trkpt lat="45.07653858333333" lon="7.54778745"><ele>328.0</ele><time>2026-05-02T19:46:10.929Z</time></trkpt><trkpt lat="45.07688081666667" lon="7.547896333333334"><ele>326.0</ele><time>2026-05-02T19:46:11.95Z</time></trkpt><trkpt lat="45.0772233" lon="7.548004966666667"><ele>324.0</ele><time>2026-05-02T19:46:12.924Z</time></trkpt><trkpt lat="45.07755531666667" lon="7.5481101666666675"><ele>323.5</ele><time>2026-05-02T19:46:13.95Z</time></trkpt><trkpt lat="45.07789041666666" lon="7.548216449999999"><ele>323.0</ele><time>2026-05-02T19:46:14.926Z</time></trkpt><trkpt lat="45.0782153" lon="7.548318783333334"><ele>323.5</ele><time>2026-05-02T19:46:15.925Z</time></trkpt><trkpt lat="45.07853691666666" lon="7.548418116666666"><ele>324.0</ele><time>2026-05-02T19:46:16.923Z</time></trkpt><trkpt lat="45.07885861666667" lon="7.548518016666666"><ele>323.5</ele><time>2026-05-02T19:46:17.921Z</time></trkpt><trkpt lat="45.079172183333334" lon="7.5486220500000005"><ele>323.0</ele><time>2026-05-02T19:46:18.923Z</time></trkpt><trkpt lat="45.079481466666664" lon="7.548747683333334"><ele>322.0</ele><time>2026-05-02T19:46:19.92Z</time></trkpt><trkpt lat="45.07977961666667" lon="7.548918183333334"><ele>321.0</ele><time>2026-05-02T19:46:20.921Z</time></trkpt><trkpt lat="45.08005253333334" lon="7.549133083333333"><ele>320.0</ele><time>2026-05-02T19:46:21.942Z</time></trkpt><trkpt lat="45.0803148" lon="7.5494044166666665"><ele>319.0</ele><time>2026-05-02T19:46:22.921Z</time></trkpt><trkpt lat="45.080555616666665" lon="7.549720399999999"><ele>319.5</ele><time>2026-05-02T19:46:23.922Z</time></trkpt><trkpt lat="45.080768850000005" lon="7.550080416666666"><ele>320.0</ele><time>2026-05-02T19:46:24.921Z</time></trkpt><trkpt lat="45.08095148333334" lon="7.550484916666666"><ele>317.5</ele><time>2026-05-02T19:46:25.945Z</time></trkpt><trkpt lat="45.08109843333333" lon="7.550917433333333"><ele>315.0</ele><time>2026-05-02T19:46:26.92Z</time></trkpt><trkpt lat="45.08122096666666" lon="7.551375749999999"><ele>313.5</ele><time>2026-05-02T19:46:27.921Z</time></trkpt><trkpt lat="45.08134066666666" lon="7.551833483333334"><ele>312.0</ele><time>2026-05-02T19:46:28.924Z</time></trkpt><trkpt lat="45.08146178333333" lon="7.552309833333333"><ele>310.5</ele><time>2026-05-02T19:46:29.922Z</time></trkpt><trkpt lat="45.08158801666667" lon="7.552778133333334"><ele>309.0</ele><time>2026-05-02T19:46:30.921Z</time></trkpt><trkpt lat="45.0817285" lon="7.553238299999999"><ele>312.0</ele><time>2026-05-02T19:46:31.922Z</time></trkpt><trkpt lat="45.08188565000001" lon="7.55369905"><ele>315.0</ele><time>2026-05-02T19:46:32.92Z</time></trkpt><trkpt lat="45.08205748333333" lon="7.554149566666666"><ele>315.0</ele><time>2026-05-02T19:46:33.924Z</time></trkpt><trkpt lat="45.082241466666666" lon="7.554584350000001"><ele>315.0</ele><time>2026-05-02T19:46:34.921Z</time></trkpt><trkpt lat="45.082442549999996" lon="7.555021799999999"><ele>316.0</ele><time>2026-05-02T19:46:35.924Z</time></trkpt><trkpt lat="45.0826526" lon="7.555445250000001"><ele>317.0</ele><time>2026-05-02T19:46:36.937Z</time></trkpt><trkpt lat="45.082877483333334" lon="7.555859233333333"><ele>316.0</ele><time>2026-05-02T19:46:37.947Z</time></trkpt><trkpt lat="45.083116950000004" lon="7.556246383333333"><ele>315.0</ele><time>2026-05-02T19:46:38.923Z</time></trkpt><trkpt lat="45.08336548333334" lon="7.5566332166666665"><ele>315.0</ele><time>2026-05-02T19:46:39.922Z</time></trkpt><trkpt lat="45.08362113333333" lon="7.557003616666666"><ele>315.0</ele><time>2026-05-02T19:46:40.925Z</time></trkpt><trkpt lat="45.08388473333333" lon="7.557362183333334"><ele>314.0</ele><time>2026-05-02T19:46:41.924Z</time></trkpt><trkpt lat="45.084150699999995" lon="7.557709283333333"><ele>313.0</ele><time>2026-05-02T19:46:42.927Z</time></trkpt><trkpt lat="45.084421683333325" lon="7.55805605"><ele>313.0</ele><time>2026-05-02T19:46:43.926Z</time></trkpt><trkpt lat="45.08469711666667" lon="7.558390316666667"><ele>313.0</ele><time>2026-05-02T19:46:44.926Z</time></trkpt><trkpt lat="45.08496868333333" lon="7.558736733333334"><ele>314.0</ele><time>2026-05-02T19:46:45.927Z</time></trkpt><trkpt lat="45.085239666666666" lon="7.559083666666668"><ele>315.0</ele><time>2026-05-02T19:46:46.924Z</time></trkpt><trkpt lat="45.085513516666666" lon="7.559433266666667"><ele>313.0</ele><time>2026-05-02T19:46:47.922Z</time></trkpt><trkpt lat="45.08579153333333" lon="7.559784216666666"><ele>311.0</ele><time>2026-05-02T19:46:48.93Z</time></trkpt><trkpt lat="45.086079366666674" lon="7.560127883333332"><ele>312.0</ele><time>2026-05-02T19:46:49.922Z</time></trkpt><trkpt lat="45.08636116666667" lon="7.560481683333334"><ele>313.0</ele><time>2026-05-02T19:46:50.921Z</time></trkpt><trkpt lat="45.08664506666667" lon="7.560839416666667"><ele>309.5</ele><time>2026-05-02T19:46:51.924Z</time></trkpt><trkpt lat="45.08692871666667" lon="7.561197833333334"><ele>306.0</ele><time>2026-05-02T19:46:52.922Z</time></trkpt><trkpt lat="45.087209249999994" lon="7.561552966666667"><ele>302.0</ele><time>2026-05-02T19:46:53.925Z</time></trkpt><trkpt lat="45.08748778333334" lon="7.561903583333333"><ele>298.0</ele><time>2026-05-02T19:46:54.929Z</time></trkpt><trkpt lat="45.087766816666665" lon="7.562252866666667"><ele>297.5</ele><time>2026-05-02T19:46:55.923Z</time></trkpt><trkpt lat="45.088043333333324" lon="7.562599033333334"><ele>297.0</ele><time>2026-05-02T19:46:56.921Z</time></trkpt><trkpt lat="45.08832161666666" lon="7.562949316666668"><ele>295.0</ele><time>2026-05-02T19:46:57.94Z</time></trkpt><trkpt lat="45.08860258333334" lon="7.5632887"><ele>293.0</ele><time>2026-05-02T19:46:58.925Z</time></trkpt><trkpt lat="45.0888817" lon="7.563637883333333"><ele>293.5</ele><time>2026-05-02T19:46:59.924Z</time></trkpt><trkpt lat="45.089163750000004" lon="7.563989249999999"><ele>294.0</ele><time>2026-05-02T19:47:00.922Z</time></trkpt><trkpt lat="45.0894463" lon="7.5643402"><ele>293.5</ele><time>2026-05-02T19:47:01.923Z</time></trkpt><trkpt lat="45.08973103333332" lon="7.564695433333333"><ele>293.0</ele><time>2026-05-02T19:47:02.921Z</time></trkpt><trkpt lat="45.090016766666665" lon="7.5650494833333335"><ele>292.5</ele><time>2026-05-02T19:47:03.923Z</time></trkpt><trkpt lat="45.09029865000001" lon="7.565401683333333"><ele>292.0</ele><time>2026-05-02T19:47:04.925Z</time></trkpt><trkpt lat="45.09057945" lon="7.565754983333333"><ele>293.0</ele><time>2026-05-02T19:47:05.927Z</time></trkpt><trkpt lat="45.09086041666666" lon="7.566107783333332"><ele>294.0</ele><time>2026-05-02T19:47:06.925Z</time></trkpt><trkpt lat="45.09114145" lon="7.566460066666667"><ele>294.5</ele><time>2026-05-02T19:47:07.924Z</time></trkpt><trkpt lat="45.09141738333333" lon="7.5668055"><ele>295.0</ele><time>2026-05-02T19:47:08.924Z</time></trkpt><trkpt lat="45.09168913333333" lon="7.567149316666666"><ele>296.0</ele><time>2026-05-02T19:47:09.945Z</time></trkpt><trkpt lat="45.091952899999995" lon="7.56747865"><ele>297.0</ele><time>2026-05-02T19:47:10.922Z</time></trkpt><trkpt lat="45.09221685000001" lon="7.567811399999999"><ele>298.0</ele><time>2026-05-02T19:47:11.951Z</time></trkpt><trkpt lat="45.09248155" lon="7.568142566666667"><ele>299.0</ele><time>2026-05-02T19:47:12.922Z</time></trkpt><trkpt lat="45.092743649999996" lon="7.568470633333334"><ele>298.5</ele><time>2026-05-02T19:47:13.95Z</time></trkpt><trkpt lat="45.09300316666666" lon="7.568794683333334"><ele>298.0</ele><time>2026-05-02T19:47:14.923Z</time></trkpt><trkpt lat="45.093254200000004" lon="7.569109350000001"><ele>299.5</ele><time>2026-05-02T19:47:15.951Z</time></trkpt><trkpt lat="45.0935028" lon="7.5694224"><ele>301.0</ele><time>2026-05-02T19:47:16.922Z</time></trkpt><trkpt lat="45.093740350000004" lon="7.56972265"><ele>301.0</ele><time>2026-05-02T19:47:17.941Z</time></trkpt><trkpt lat="45.093977716666664" lon="7.570021966666666"><ele>301.0</ele><time>2026-05-02T19:47:18.922Z</time></trkpt><trkpt lat="45.09422138333333" lon="7.5703260666666665"><ele>300.0</ele><time>2026-05-02T19:47:19.95Z</time></trkpt><trkpt lat="45.094463116666674" lon="7.570629483333332"><ele>299.0</ele><time>2026-05-02T19:47:20.926Z</time></trkpt><trkpt lat="45.09472128333333" lon="7.570957216666667"><ele>298.0</ele><time>2026-05-02T19:47:21.938Z</time></trkpt><trkpt lat="45.094982550000005" lon="7.571285949999999"><ele>297.0</ele><time>2026-05-02T19:47:22.925Z</time></trkpt><trkpt lat="45.09525303333333" lon="7.571622816666667"><ele>297.0</ele><time>2026-05-02T19:47:23.97Z</time></trkpt><trkpt lat="45.09552335" lon="7.571960950000001"><ele>297.0</ele><time>2026-05-02T19:47:24.923Z</time></trkpt><trkpt lat="45.09579098333334" lon="7.572303099999999"><ele>297.0</ele><time>2026-05-02T19:47:25.948Z</time></trkpt><trkpt lat="45.096050899999994" lon="7.572642400000001"><ele>297.0</ele><time>2026-05-02T19:47:26.925Z</time></trkpt><trkpt lat="45.096308650000005" lon="7.572992266666667"><ele>297.0</ele><time>2026-05-02T19:47:27.944Z</time></trkpt><trkpt lat="45.09655826666667" lon="7.573353766666666"><ele>297.0</ele><time>2026-05-02T19:47:28.922Z</time></trkpt><trkpt lat="45.09681968333333" lon="7.573761133333333"><ele>296.5</ele><time>2026-05-02T19:47:30.043Z</time></trkpt><trkpt lat="45.0970232" lon="7.574100516666666"><ele>296.0</ele><time>2026-05-02T19:47:30.924Z</time></trkpt><trkpt lat="45.09723878333333" lon="7.574484066666667"><ele>296.0</ele><time>2026-05-02T19:47:31.923Z</time></trkpt><trkpt lat="45.09743861666667" lon="7.574865450000001"><ele>296.0</ele><time>2026-05-02T19:47:32.926Z</time></trkpt><trkpt lat="45.097631066666665" lon="7.575255200000001"><ele>296.0</ele><time>2026-05-02T19:47:33.923Z</time></trkpt><trkpt lat="45.097813200000004" lon="7.575647233333332"><ele>296.0</ele><time>2026-05-02T19:47:34.932Z</time></trkpt><trkpt lat="45.09798963333333" lon="7.5760512333333345"><ele>296.5</ele><time>2026-05-02T19:47:35.927Z</time></trkpt><trkpt lat="45.09815736666666" lon="7.57646865"><ele>297.0</ele><time>2026-05-02T19:47:36.922Z</time></trkpt><trkpt lat="45.09831385000001" lon="7.576893366666667"><ele>296.0</ele><time>2026-05-02T19:47:37.922Z</time></trkpt><trkpt lat="45.09846086666666" lon="7.577330483333333"><ele>295.0</ele><time>2026-05-02T19:47:38.924Z</time></trkpt><trkpt lat="45.0985985" lon="7.577779583333334"><ele>294.5</ele><time>2026-05-02T19:47:39.922Z</time></trkpt><trkpt lat="45.09873185" lon="7.5782369833333325"><ele>294.0</ele><time>2026-05-02T19:47:40.922Z</time></trkpt><trkpt lat="45.09885381666666" lon="7.578697899999999"><ele>293.0</ele><time>2026-05-02T19:47:41.924Z</time></trkpt><trkpt lat="45.09898306666667" lon="7.579157733333332"><ele>292.0</ele><time>2026-05-02T19:47:42.922Z</time></trkpt><trkpt lat="45.09911205" lon="7.579618150000001"><ele>292.0</ele><time>2026-05-02T19:47:43.928Z</time></trkpt><trkpt lat="45.09924181666667" lon="7.580083433333334"><ele>292.0</ele><time>2026-05-02T19:47:44.928Z</time></trkpt><trkpt lat="45.09937013333334" lon="7.580544266666667"><ele>291.0</ele><time>2026-05-02T19:47:45.926Z</time></trkpt><trkpt lat="45.099499550000004" lon="7.581009716666667"><ele>290.0</ele><time>2026-05-02T19:47:46.931Z</time></trkpt><trkpt lat="45.099629549999996" lon="7.58148045"><ele>289.5</ele><time>2026-05-02T19:47:47.923Z</time></trkpt><trkpt lat="45.099750083333326" lon="7.58195385"><ele>289.0</ele><time>2026-05-02T19:47:48.928Z</time></trkpt><trkpt lat="45.09987991666667" lon="7.5824245"><ele>288.5</ele><time>2026-05-02T19:47:49.926Z</time></trkpt><trkpt lat="45.10000883333334" lon="7.582890783333332"><ele>288.0</ele><time>2026-05-02T19:47:50.924Z</time></trkpt><trkpt lat="45.10013716666668" lon="7.583351533333333"><ele>287.0</ele><time>2026-05-02T19:47:51.925Z</time></trkpt><trkpt lat="45.10026750000001" lon="7.583816566666667"><ele>286.0</ele><time>2026-05-02T19:47:52.924Z</time></trkpt><trkpt lat="45.100397916666665" lon="7.584281683333334"><ele>286.5</ele><time>2026-05-02T19:47:53.966Z</time></trkpt><trkpt lat="45.10052768333333" lon="7.584746866666667"><ele>287.0</ele><time>2026-05-02T19:47:54.925Z</time></trkpt><trkpt lat="45.10065826666668" lon="7.5852171833333335"><ele>287.0</ele><time>2026-05-02T19:47:55.933Z</time></trkpt><trkpt lat="45.10078818333333" lon="7.585688166666667"><ele>287.0</ele><time>2026-05-02T19:47:56.951Z</time></trkpt><trkpt lat="45.10091903333334" lon="7.586164083333333"><ele>287.0</ele><time>2026-05-02T19:47:57.925Z</time></trkpt><trkpt lat="45.101051716666674" lon="7.586644616666666"><ele>287.0</ele><time>2026-05-02T19:47:58.951Z</time></trkpt><trkpt lat="45.101176933333335" lon="7.587129516666666"><ele>286.5</ele><time>2026-05-02T19:47:59.925Z</time></trkpt><trkpt lat="45.101312300000004" lon="7.587613983333334"><ele>286.0</ele><time>2026-05-02T19:48:00.945Z</time></trkpt><trkpt lat="45.10144566666666" lon="7.588094266666667"><ele>286.0</ele><time>2026-05-02T19:48:01.923Z</time></trkpt><trkpt lat="45.10157801666666" lon="7.588569266666667"><ele>286.0</ele><time>2026-05-02T19:48:02.949Z</time></trkpt><trkpt lat="45.1017091" lon="7.589039583333332"><ele>285.0</ele><time>2026-05-02T19:48:03.943Z</time></trkpt><trkpt lat="45.10183801666667" lon="7.589505700000001"><ele>284.0</ele><time>2026-05-02T19:48:04.952Z</time></trkpt><trkpt lat="45.10196391666667" lon="7.589962266666667"><ele>284.5</ele><time>2026-05-02T19:48:05.921Z</time></trkpt><trkpt lat="45.102089316666664" lon="7.5904132833333335"><ele>285.0</ele><time>2026-05-02T19:48:06.948Z</time></trkpt><trkpt lat="45.10221235" lon="7.590854683333333"><ele>285.5</ele><time>2026-05-02T19:48:07.926Z</time></trkpt><trkpt lat="45.10233623333333" lon="7.591296483333333"><ele>286.0</ele><time>2026-05-02T19:48:08.941Z</time></trkpt><trkpt lat="45.10245803333334" lon="7.59172875"><ele>284.5</ele><time>2026-05-02T19:48:09.925Z</time></trkpt><trkpt lat="45.10257898333333" lon="7.592160666666667"><ele>283.0</ele><time>2026-05-02T19:48:10.948Z</time></trkpt><trkpt lat="45.10270220000001" lon="7.592602216666667"><ele>282.0</ele><time>2026-05-02T19:48:11.922Z</time></trkpt><trkpt lat="45.10281593333334" lon="7.5930448666666654"><ele>281.0</ele><time>2026-05-02T19:48:12.952Z</time></trkpt><trkpt lat="45.10293981666667" lon="7.593491883333333"><ele>282.0</ele><time>2026-05-02T19:48:13.926Z</time></trkpt><trkpt lat="45.103064216666674" lon="7.593943416666668"><ele>283.0</ele><time>2026-05-02T19:48:14.955Z</time></trkpt><trkpt lat="45.10318818333333" lon="7.594395366666666"><ele>282.5</ele><time>2026-05-02T19:48:15.925Z</time></trkpt><trkpt lat="45.103315" lon="7.5948568666666665"><ele>282.0</ele><time>2026-05-02T19:48:16.952Z</time></trkpt><trkpt lat="45.103444333333336" lon="7.595322983333333"><ele>282.0</ele><time>2026-05-02T19:48:17.925Z</time></trkpt><trkpt lat="45.10357475" lon="7.59578885"><ele>282.0</ele><time>2026-05-02T19:48:18.95Z</time></trkpt><trkpt lat="45.1037066" lon="7.596259333333334"><ele>282.0</ele><time>2026-05-02T19:48:19.938Z</time></trkpt><trkpt lat="45.103839866666675" lon="7.596734416666667"><ele>282.0</ele><time>2026-05-02T19:48:20.966Z</time></trkpt><trkpt lat="45.103971550000004" lon="7.5972050666666675"><ele>282.0</ele><time>2026-05-02T19:48:21.925Z</time></trkpt><trkpt lat="45.10410498333334" lon="7.597685516666667"><ele>282.0</ele><time>2026-05-02T19:48:22.953Z</time></trkpt><trkpt lat="45.104239266666674" lon="7.598171333333333"><ele>282.0</ele><time>2026-05-02T19:48:23.925Z</time></trkpt><trkpt lat="45.10436483333333" lon="7.59866175"><ele>282.0</ele><time>2026-05-02T19:48:24.945Z</time></trkpt><trkpt lat="45.10450120000001" lon="7.599151683333334"><ele>280.0</ele><time>2026-05-02T19:48:25.926Z</time></trkpt><trkpt lat="45.1046374" lon="7.5996420166666665"><ele>278.0</ele><time>2026-05-02T19:48:26.947Z</time></trkpt><trkpt lat="45.1047758" lon="7.600136383333334"><ele>278.5</ele><time>2026-05-02T19:48:27.923Z</time></trkpt><trkpt lat="45.104913933333336" lon="7.600631083333333"><ele>279.0</ele><time>2026-05-02T19:48:28.952Z</time></trkpt><trkpt lat="45.1050513" lon="7.601125783333334"><ele>278.0</ele><time>2026-05-02T19:48:29.923Z</time></trkpt><trkpt lat="45.105188266666666" lon="7.601615283333333"><ele>277.0</ele><time>2026-05-02T19:48:30.951Z</time></trkpt><trkpt lat="45.105330249999994" lon="7.602112583333333"><ele>277.0</ele><time>2026-05-02T19:48:31.925Z</time></trkpt><trkpt lat="45.10547701666666" lon="7.602607700000001"><ele>277.0</ele><time>2026-05-02T19:48:32.924Z</time></trkpt><trkpt lat="45.10562865" lon="7.603099633333334"><ele>277.0</ele><time>2026-05-02T19:48:33.926Z</time></trkpt><trkpt lat="45.10577918333334" lon="7.603591816666667"><ele>277.0</ele><time>2026-05-02T19:48:34.926Z</time></trkpt><trkpt lat="45.10594581666666" lon="7.604078983333333"><ele>277.0</ele><time>2026-05-02T19:48:35.923Z</time></trkpt><trkpt lat="45.10611413333333" lon="7.604559766666667"><ele>277.0</ele><time>2026-05-02T19:48:36.926Z</time></trkpt><trkpt lat="45.10628553333333" lon="7.605038033333334"><ele>277.0</ele><time>2026-05-02T19:48:37.925Z</time></trkpt><trkpt lat="45.106462233333325" lon="7.605512616666666"><ele>277.0</ele><time>2026-05-02T19:48:38.928Z</time></trkpt><trkpt lat="45.106645799999995" lon="7.6059815"><ele>275.0</ele><time>2026-05-02T19:48:39.927Z</time></trkpt><trkpt lat="45.10683161666666" lon="7.60644275"><ele>273.0</ele><time>2026-05-02T19:48:40.925Z</time></trkpt><trkpt lat="45.10702323333334" lon="7.6069051000000005"><ele>275.0</ele><time>2026-05-02T19:48:41.925Z</time></trkpt><trkpt lat="45.10721626666667" lon="7.607354716666666"><ele>277.0</ele><time>2026-05-02T19:48:42.923Z</time></trkpt><trkpt lat="45.10741735" lon="7.607808583333333"><ele>276.0</ele><time>2026-05-02T19:48:43.925Z</time></trkpt><trkpt lat="45.10761013333334" lon="7.6082572666666675"><ele>275.0</ele><time>2026-05-02T19:48:44.924Z</time></trkpt><trkpt lat="45.107837033333325" lon="7.6087469500000005"><ele>275.0</ele><time>2026-05-02T19:48:46.043Z</time></trkpt><trkpt lat="45.10802436666667" lon="7.6091414833333335"><ele>275.0</ele><time>2026-05-02T19:48:46.926Z</time></trkpt><trkpt lat="45.10823701666666" lon="7.6095848833333335"><ele>274.0</ele><time>2026-05-02T19:48:47.924Z</time></trkpt><trkpt lat="45.10844916666667" lon="7.610028949999999"><ele>273.0</ele><time>2026-05-02T19:48:48.954Z</time></trkpt><trkpt lat="45.10866013333332" lon="7.610473616666667"><ele>273.0</ele><time>2026-05-02T19:48:49.937Z</time></trkpt><trkpt lat="45.10886885" lon="7.610914583333332"><ele>273.0</ele><time>2026-05-02T19:48:50.927Z</time></trkpt><trkpt lat="45.10907998333334" lon="7.61135925"><ele>273.0</ele><time>2026-05-02T19:48:52.072Z</time></trkpt><trkpt lat="45.10928793333333" lon="7.61179535"><ele>273.0</ele><time>2026-05-02T19:48:52.926Z</time></trkpt><trkpt lat="45.109486249999996" lon="7.6122289499999995"><ele>274.0</ele><time>2026-05-02T19:48:53.991Z</time></trkpt><trkpt lat="45.10969361666666" lon="7.612665066666667"><ele>275.0</ele><time>2026-05-02T19:48:54.929Z</time></trkpt><trkpt lat="45.109901750000006" lon="7.613100583333333"><ele>274.5</ele><time>2026-05-02T19:48:55.973Z</time></trkpt><trkpt lat="45.110112383333345" lon="7.613539800000001"><ele>274.0</ele><time>2026-05-02T19:48:56.923Z</time></trkpt><trkpt lat="45.110323016666676" lon="7.613979266666666"><ele>273.5</ele><time>2026-05-02T19:48:57.969Z</time></trkpt><trkpt lat="45.11053298333333" lon="7.614418983333334"><ele>273.0</ele><time>2026-05-02T19:48:58.924Z</time></trkpt><trkpt lat="45.11074043333333" lon="7.614854750000001"><ele>273.0</ele><time>2026-05-02T19:48:59.968Z</time></trkpt><trkpt lat="45.11094705000001" lon="7.6152912"><ele>273.0</ele><time>2026-05-02T19:49:00.926Z</time></trkpt><trkpt lat="45.1111551" lon="7.615732666666666"><ele>272.0</ele><time>2026-05-02T19:49:01.933Z</time></trkpt><trkpt lat="45.111353400000006" lon="7.61617415"><ele>271.0</ele><time>2026-05-02T19:49:02.983Z</time></trkpt><trkpt lat="45.11155985" lon="7.6166113499999994"><ele>272.0</ele><time>2026-05-02T19:49:03.927Z</time></trkpt><trkpt lat="45.11176914999999" lon="7.61705165"><ele>273.0</ele><time>2026-05-02T19:49:04.932Z</time></trkpt><trkpt lat="45.11197895" lon="7.617491950000001"><ele>272.5</ele><time>2026-05-02T19:49:05.946Z</time></trkpt><trkpt lat="45.11218766666666" lon="7.617933"><ele>272.0</ele><time>2026-05-02T19:49:06.939Z</time></trkpt><trkpt lat="45.112396616666665" lon="7.6183739"><ele>272.0</ele><time>2026-05-02T19:49:07.948Z</time></trkpt><trkpt lat="45.11260733333334" lon="7.61881905"><ele>272.0</ele><time>2026-05-02T19:49:08.936Z</time></trkpt><trkpt lat="45.1128168" lon="7.619259183333333"><ele>271.0</ele><time>2026-05-02T19:49:09.927Z</time></trkpt><trkpt lat="45.11302643333334" lon="7.6196988166666655"><ele>270.0</ele><time>2026-05-02T19:49:10.961Z</time></trkpt><trkpt lat="45.11323581666667" lon="7.62013895"><ele>270.0</ele><time>2026-05-02T19:49:11.926Z</time></trkpt><trkpt lat="45.1134447" lon="7.620579416666668"><ele>270.0</ele><time>2026-05-02T19:49:12.927Z</time></trkpt><trkpt lat="45.11365483333334" lon="7.621024833333333"><ele>270.0</ele><time>2026-05-02T19:49:13.926Z</time></trkpt><trkpt lat="45.113858666666665" lon="7.62146455"><ele>270.0</ele><time>2026-05-02T19:49:14.926Z</time></trkpt><trkpt lat="45.11406201666667" lon="7.62191625"><ele>269.0</ele><time>2026-05-02T19:49:15.928Z</time></trkpt><trkpt lat="45.114259833333335" lon="7.62236745"><ele>268.0</ele><time>2026-05-02T19:49:16.927Z</time></trkpt><trkpt lat="45.1144537" lon="7.622821750000001"><ele>267.5</ele><time>2026-05-02T19:49:17.934Z</time></trkpt><trkpt lat="45.11464380000001" lon="7.623279650000001"><ele>267.0</ele><time>2026-05-02T19:49:18.933Z</time></trkpt><trkpt lat="45.11482133333334" lon="7.623738316666667"><ele>267.0</ele><time>2026-05-02T19:49:19.928Z</time></trkpt><trkpt lat="45.11500683333333" lon="7.624205933333334"><ele>267.0</ele><time>2026-05-02T19:49:20.926Z</time></trkpt><trkpt lat="45.115187633333335" lon="7.624671383333333"><ele>265.0</ele><time>2026-05-02T19:49:21.924Z</time></trkpt><trkpt lat="45.115366916666666" lon="7.6251435333333335"><ele>263.0</ele><time>2026-05-02T19:49:22.928Z</time></trkpt><trkpt lat="45.1155426" lon="7.625618616666666"><ele>263.0</ele><time>2026-05-02T19:49:23.943Z</time></trkpt><trkpt lat="45.11571274999999" lon="7.626091866666667"><ele>263.0</ele><time>2026-05-02T19:49:24.937Z</time></trkpt><trkpt lat="45.11588073333334" lon="7.626571983333334"><ele>263.5</ele><time>2026-05-02T19:49:25.925Z</time></trkpt><trkpt lat="45.116042" lon="7.627051266666666"><ele>264.0</ele><time>2026-05-02T19:49:26.929Z</time></trkpt><trkpt lat="45.116199816666665" lon="7.62753825"><ele>264.0</ele><time>2026-05-02T19:49:27.925Z</time></trkpt><trkpt lat="45.116352549999995" lon="7.628028666666667"><ele>264.0</ele><time>2026-05-02T19:49:28.936Z</time></trkpt><trkpt lat="45.11650291666667" lon="7.628520516666667"><ele>264.0</ele><time>2026-05-02T19:49:29.924Z</time></trkpt><trkpt lat="45.11665261666667" lon="7.629007183333332"><ele>264.0</ele><time>2026-05-02T19:49:30.927Z</time></trkpt><trkpt lat="45.116803399999995" lon="7.629492983333334"><ele>264.0</ele><time>2026-05-02T19:49:31.926Z</time></trkpt><trkpt lat="45.116954699999994" lon="7.6299733666666665"><ele>264.0</ele><time>2026-05-02T19:49:32.928Z</time></trkpt><trkpt lat="45.117103650000004" lon="7.630443666666667"><ele>264.0</ele><time>2026-05-02T19:49:33.926Z</time></trkpt><trkpt lat="45.11725033333334" lon="7.630903750000001"><ele>264.0</ele><time>2026-05-02T19:49:34.924Z</time></trkpt><trkpt lat="45.11739701666667" lon="7.63136375"><ele>264.0</ele><time>2026-05-02T19:49:35.926Z</time></trkpt><trkpt lat="45.11754076666666" lon="7.6318145333333325"><ele>264.0</ele><time>2026-05-02T19:49:36.926Z</time></trkpt><trkpt lat="45.11767915000001" lon="7.6322571833333335"><ele>263.0</ele><time>2026-05-02T19:49:37.925Z</time></trkpt><trkpt lat="45.11781426666666" lon="7.632701666666667"><ele>262.0</ele><time>2026-05-02T19:49:38.926Z</time></trkpt><trkpt lat="45.11796497595442" lon="7.6331142206152505"><ele>261.5</ele><time>2026-05-02T19:49:39.926Z</time></trkpt><trkpt lat="45.11805843333333" lon="7.633541866666667"><ele>261.0</ele><time>2026-05-02T19:49:40.927Z</time></trkpt><trkpt lat="45.118171000000004" lon="7.633945799999999"><ele>260.5</ele><time>2026-05-02T19:49:41.963Z</time></trkpt><trkpt lat="45.118274516666666" lon="7.63432775"><ele>260.0</ele><time>2026-05-02T19:49:42.964Z</time></trkpt><trkpt lat="45.11837148333334" lon="7.634691283333333"><ele>259.0</ele><time>2026-05-02T19:49:43.924Z</time></trkpt><trkpt lat="45.118460333333324" lon="7.635026983333334"><ele>258.0</ele><time>2026-05-02T19:49:44.945Z</time></trkpt><trkpt lat="45.11854541666667" lon="7.635348333333334"><ele>257.6666666666667</ele><time>2026-05-02T19:49:45.929Z</time></trkpt><trkpt lat="45.118624033333326" lon="7.635646483333333"><ele>257.33333333333337</ele><time>2026-05-02T19:49:46.953Z</time></trkpt><trkpt lat="45.11869671666666" lon="7.635926266666666"><ele>257.0</ele><time>2026-05-02T19:49:47.933Z</time></trkpt><trkpt lat="45.11876075" lon="7.636183849999999"><ele>257.0</ele><time>2026-05-02T19:49:48.958Z</time></trkpt><trkpt lat="45.1188138" lon="7.63640655"><ele>257.0</ele><time>2026-05-02T19:49:49.932Z</time></trkpt><trkpt lat="45.11886108333333" lon="7.636620466666667"><ele>257.0</ele><time>2026-05-02T19:49:50.963Z</time></trkpt><trkpt lat="45.11889603333334" lon="7.636813416666667"><ele>256.6</ele><time>2026-05-02T19:49:51.925Z</time></trkpt><trkpt lat="45.11891715" lon="7.636979883333334"><ele>256.2</ele><time>2026-05-02T19:49:52.953Z</time></trkpt><trkpt lat="45.11892863333335" lon="7.637133183333333"><ele>255.8</ele><time>2026-05-02T19:49:53.927Z</time></trkpt><trkpt lat="45.11893258333333" lon="7.637277266666667"><ele>255.4</ele><time>2026-05-02T19:49:54.953Z</time></trkpt><trkpt lat="45.11892318333332" lon="7.637387150000001"><ele>255.0</ele><time>2026-05-02T19:49:55.924Z</time></trkpt><trkpt lat="45.11890005" lon="7.637496366666666"><ele>255.0</ele><time>2026-05-02T19:49:56.953Z</time></trkpt><trkpt lat="45.118859233333325" lon="7.6375889"><ele>255.0</ele><time>2026-05-02T19:49:57.928Z</time></trkpt><trkpt lat="45.118810450000005" lon="7.637667183333334"><ele>255.0</ele><time>2026-05-02T19:49:58.953Z</time></trkpt><trkpt lat="45.118761416666665" lon="7.637757883333333"><ele>255.0</ele><time>2026-05-02T19:49:59.924Z</time></trkpt><trkpt lat="45.118726216666666" lon="7.6378505"><ele>255.0</ele><time>2026-05-02T19:50:00.95Z</time></trkpt><trkpt lat="45.11871665" lon="7.637988383333334"><ele>255.0</ele><time>2026-05-02T19:50:02.034Z</time></trkpt><trkpt lat="45.11872738333333" lon="7.638116633333334"><ele>255.25</ele><time>2026-05-02T19:50:02.924Z</time></trkpt><trkpt lat="45.118733166666665" lon="7.638265316666667"><ele>255.5</ele><time>2026-05-02T19:50:03.927Z</time></trkpt><trkpt lat="45.11871531666667" lon="7.638422150000001"><ele>255.75</ele><time>2026-05-02T19:50:04.929Z</time></trkpt><trkpt lat="45.118680366666666" lon="7.638583833333334"><ele>256.0</ele><time>2026-05-02T19:50:05.931Z</time></trkpt><trkpt lat="45.11864206666667" lon="7.638759766666667"><ele>256.75</ele><time>2026-05-02T19:50:06.926Z</time></trkpt><trkpt lat="45.11860501666666" lon="7.638946766666667"><ele>257.5</ele><time>2026-05-02T19:50:07.943Z</time></trkpt><trkpt lat="45.11856678333334" lon="7.639128583333333"><ele>258.25</ele><time>2026-05-02T19:50:08.934Z</time></trkpt><trkpt lat="45.11854239999999" lon="7.639324716666666"><ele>259.0</ele><time>2026-05-02T19:50:09.925Z</time></trkpt><trkpt lat="45.118538633333344" lon="7.639518583333334"><ele>259.0</ele><time>2026-05-02T19:50:10.926Z</time></trkpt><trkpt lat="45.118562183333346" lon="7.639709533333333"><ele>259.0</ele><time>2026-05-02T19:50:11.925Z</time></trkpt><trkpt lat="45.11861581666667" lon="7.639893250000001"><ele>259.0</ele><time>2026-05-02T19:50:12.936Z</time></trkpt><trkpt lat="45.11869788333334" lon="7.640060983333333"><ele>259.0</ele><time>2026-05-02T19:50:13.938Z</time></trkpt><trkpt lat="45.11880651666667" lon="7.64020255"><ele>258.3333333333333</ele><time>2026-05-02T19:50:14.925Z</time></trkpt><trkpt lat="45.11893853333333" lon="7.6403074"><ele>257.6666666666667</ele><time>2026-05-02T19:50:15.93Z</time></trkpt><trkpt lat="45.11908386666667" lon="7.640367666666666"><ele>257.0</ele><time>2026-05-02T19:50:16.929Z</time></trkpt><trkpt lat="45.119238433333344" lon="7.640382933333332"><ele>256.6666666666667</ele><time>2026-05-02T19:50:17.927Z</time></trkpt><trkpt lat="45.11940263333333" lon="7.640350316666666"><ele>256.3333333333333</ele><time>2026-05-02T19:50:18.943Z</time></trkpt><trkpt lat="45.11956448333334" lon="7.640279166666666"><ele>256.0</ele><time>2026-05-02T19:50:19.954Z</time></trkpt><trkpt lat="45.11972776666667" lon="7.640183350000001"><ele>256.0</ele><time>2026-05-02T19:50:20.925Z</time></trkpt><trkpt lat="45.11989238333334" lon="7.640079083333334"><ele>256.0</ele><time>2026-05-02T19:50:21.928Z</time></trkpt><trkpt lat="45.12006346666667" lon="7.6399702833333345"><ele>256.0</ele><time>2026-05-02T19:50:22.925Z</time></trkpt><trkpt lat="45.12023813333333" lon="7.63986015"><ele>255.66666666666666</ele><time>2026-05-02T19:50:23.947Z</time></trkpt><trkpt lat="45.12041953333334" lon="7.639746733333333"><ele>255.33333333333331</ele><time>2026-05-02T19:50:24.933Z</time></trkpt><trkpt lat="45.12060711666667" lon="7.6396196666666665"><ele>255.0</ele><time>2026-05-02T19:50:25.924Z</time></trkpt><trkpt lat="45.1207906" lon="7.639511966666666"><ele>256.6666666666667</ele><time>2026-05-02T19:50:26.93Z</time></trkpt><trkpt lat="45.12097155" lon="7.6394093666666665"><ele>258.33333333333337</ele><time>2026-05-02T19:50:27.925Z</time></trkpt><trkpt lat="45.121150433333334" lon="7.6393129"><ele>260.0</ele><time>2026-05-02T19:50:28.932Z</time></trkpt><trkpt lat="45.121326616666664" lon="7.63922045"><ele>260.0</ele><time>2026-05-02T19:50:29.927Z</time></trkpt><trkpt lat="45.12149894999999" lon="7.639128149999999"><ele>260.0</ele><time>2026-05-02T19:50:30.926Z</time></trkpt><trkpt lat="45.12166473333333" lon="7.639039733333335"><ele>260.0</ele><time>2026-05-02T19:50:31.933Z</time></trkpt><trkpt lat="45.12182081666667" lon="7.638958000000001"><ele>260.33333333333337</ele><time>2026-05-02T19:50:32.93Z</time></trkpt><trkpt lat="45.12197043333334" lon="7.638880716666667"><ele>260.6666666666667</ele><time>2026-05-02T19:50:33.929Z</time></trkpt><trkpt lat="45.12211609999999" lon="7.638802933333333"><ele>261.0</ele><time>2026-05-02T19:50:34.924Z</time></trkpt><trkpt lat="45.12225415" lon="7.638725233333335"><ele>261.0</ele><time>2026-05-02T19:50:35.927Z</time></trkpt><trkpt lat="45.12238206666666" lon="7.638652066666666"><ele>261.0</ele><time>2026-05-02T19:50:36.925Z</time></trkpt><trkpt lat="45.12249664999999" lon="7.6385860999999995"><ele>261.0</ele><time>2026-05-02T19:50:37.927Z</time></trkpt><trkpt lat="45.12259873333334" lon="7.638530016666666"><ele>261.0</ele><time>2026-05-02T19:50:38.931Z</time></trkpt><trkpt lat="45.1226885" lon="7.638484516666668"><ele>260.5</ele><time>2026-05-02T19:50:39.926Z</time></trkpt><trkpt lat="45.122765949999994" lon="7.638450066666667"><ele>260.0</ele><time>2026-05-02T19:50:40.937Z</time></trkpt><trkpt lat="45.122838466666664" lon="7.638428266666667"><ele>259.5</ele><time>2026-05-02T19:50:41.926Z</time></trkpt><trkpt lat="45.122904683333346" lon="7.638413683333333"><ele>259.0</ele><time>2026-05-02T19:50:42.954Z</time></trkpt><trkpt lat="45.1229817237445" lon="7.638443822806262"><ele>258.5</ele><time>2026-05-02T19:50:43.966Z</time></trkpt><trkpt lat="45.12306643449723" lon="7.638447469288056"><ele>258.0</ele><time>2026-05-02T19:50:44.925Z</time></trkpt><trkpt lat="45.12315529999999" lon="7.6384174499999995"><ele>258.0</ele><time>2026-05-02T19:50:45.982Z</time></trkpt><trkpt lat="45.12324716666667" lon="7.638414266666667"><ele>258.0</ele><time>2026-05-02T19:50:46.937Z</time></trkpt><trkpt lat="45.123341716666665" lon="7.638430116666666"><ele>258.0</ele><time>2026-05-02T19:50:48.004Z</time></trkpt><trkpt lat="45.123439016666666" lon="7.6384747"><ele>258.0</ele><time>2026-05-02T19:50:48.929Z</time></trkpt><trkpt lat="45.123540950000006" lon="7.6385438500000005"><ele>258.0</ele><time>2026-05-02T19:50:49.927Z</time></trkpt><trkpt lat="45.12364621666668" lon="7.63862575"><ele>258.0</ele><time>2026-05-02T19:50:50.928Z</time></trkpt><trkpt lat="45.12375661666667" lon="7.638715266666666"><ele>258.0</ele><time>2026-05-02T19:50:51.93Z</time></trkpt><trkpt lat="45.12387220000001" lon="7.638812333333334"><ele>258.0</ele><time>2026-05-02T19:50:52.93Z</time></trkpt><trkpt lat="45.123989550000005" lon="7.638914916666666"><ele>258.0</ele><time>2026-05-02T19:50:53.927Z</time></trkpt><trkpt lat="45.12409984999999" lon="7.639014583333333"><ele>258.0</ele><time>2026-05-02T19:50:54.926Z</time></trkpt><trkpt lat="45.12420638333334" lon="7.639113066666666"><ele>258.0</ele><time>2026-05-02T19:50:55.924Z</time></trkpt><trkpt lat="45.124304033333324" lon="7.639203516666666"><ele>258.0</ele><time>2026-05-02T19:50:56.928Z</time></trkpt><trkpt lat="45.12439044999999" lon="7.639281466666667"><ele>258.0</ele><time>2026-05-02T19:50:57.925Z</time></trkpt><trkpt lat="45.12446856666667" lon="7.639349766666667"><ele>258.0</ele><time>2026-05-02T19:50:58.926Z</time></trkpt><trkpt lat="45.12453755" lon="7.63941055"><ele>258.0</ele><time>2026-05-02T19:50:59.926Z</time></trkpt><trkpt lat="45.12459455" lon="7.639469383333333"><ele>258.0</ele><time>2026-05-02T19:51:00.928Z</time></trkpt><trkpt lat="45.12466588333333" lon="7.639579516666667"><ele>258.0</ele><time>2026-05-02T19:51:02.954Z</time></trkpt><trkpt lat="45.12470963333333" lon="7.639657899999999"><ele>258.0</ele><time>2026-05-02T19:51:04.929Z</time></trkpt><trkpt lat="45.12474828333334" lon="7.6397296500000005"><ele>258.0</ele><time>2026-05-02T19:51:42.953Z</time></trkpt><trkpt lat="45.1248145" lon="7.6397957000000005"><ele>258.0</ele><time>2026-05-02T19:51:44.941Z</time></trkpt><trkpt lat="45.124923633333346" lon="7.639827633333335"><ele>258.0</ele><time>2026-05-02T19:51:46.945Z</time></trkpt><trkpt lat="45.124992516666666" lon="7.639806499999999"><ele>258.0</ele><time>2026-05-02T19:51:47.926Z</time></trkpt><trkpt lat="45.125060166666664" lon="7.639763833333334"><ele>258.0</ele><time>2026-05-02T19:51:48.959Z</time></trkpt><trkpt lat="45.12511644558057" lon="7.639681643093779"><ele>258.0</ele><time>2026-05-02T19:51:49.927Z</time></trkpt><trkpt lat="45.12518287080551" lon="7.639606965250534"><ele>258.0</ele><time>2026-05-02T19:51:50.964Z</time></trkpt><trkpt lat="45.125252296064424" lon="7.639530274568769"><ele>258.0</ele><time>2026-05-02T19:51:51.926Z</time></trkpt><trkpt lat="45.12531902931332" lon="7.6394565577139995"><ele>258.0</ele><time>2026-05-02T19:51:52.961Z</time></trkpt><trkpt lat="45.12538308840841" lon="7.639379715612819"><ele>258.0</ele><time>2026-05-02T19:51:53.936Z</time></trkpt><trkpt lat="45.12544893078194" lon="7.639304355558362"><ele>258.0</ele><time>2026-05-02T19:51:54.958Z</time></trkpt><trkpt lat="45.125520138672336" lon="7.63922226089816"><ele>258.0</ele><time>2026-05-02T19:51:55.927Z</time></trkpt><trkpt lat="45.1255913696817" lon="7.639140139583035"><ele>258.0</ele><time>2026-05-02T19:51:56.946Z</time></trkpt><trkpt lat="45.12566644806171" lon="7.63905550324305"><ele>258.0</ele><time>2026-05-02T19:51:57.926Z</time></trkpt><trkpt lat="45.12573842176586" lon="7.638974655411344"><ele>257.85714285714283</ele><time>2026-05-02T19:51:58.945Z</time></trkpt><trkpt lat="45.125834066666656" lon="7.638943916666667"><ele>257.7142857142857</ele><time>2026-05-02T19:51:59.926Z</time></trkpt><trkpt lat="45.1258971" lon="7.63887125"><ele>257.57142857142856</ele><time>2026-05-02T19:52:00.926Z</time></trkpt><trkpt lat="45.125950233333334" lon="7.638813166666668"><ele>257.42857142857144</ele><time>2026-05-02T19:52:01.929Z</time></trkpt><trkpt lat="45.126005400000004" lon="7.6387686499999985"><ele>257.2857142857143</ele><time>2026-05-02T19:52:02.935Z</time></trkpt><trkpt lat="45.12606716666666" lon="7.6387490499999995"><ele>257.1428571428571</ele><time>2026-05-02T19:52:03.928Z</time></trkpt><trkpt lat="45.126133716666665" lon="7.6387598500000005"><ele>257.0</ele><time>2026-05-02T19:52:04.931Z</time></trkpt><trkpt lat="45.126204466666664" lon="7.638791449999999"><ele>257.0</ele><time>2026-05-02T19:52:05.944Z</time></trkpt><trkpt lat="45.1262809" lon="7.638830849999999"><ele>257.0</ele><time>2026-05-02T19:52:06.963Z</time></trkpt><trkpt lat="45.126364216666666" lon="7.638872516666667"><ele>257.0</ele><time>2026-05-02T19:52:07.929Z</time></trkpt><trkpt lat="45.126451233333334" lon="7.638914500000001"><ele>257.0</ele><time>2026-05-02T19:52:08.927Z</time></trkpt><trkpt lat="45.126541499999995" lon="7.638958583333334"><ele>257.0</ele><time>2026-05-02T19:52:09.926Z</time></trkpt><trkpt lat="45.12663134999999" lon="7.6390041"><ele>257.1666666666667</ele><time>2026-05-02T19:52:10.945Z</time></trkpt><trkpt lat="45.12671433333333" lon="7.639047099999999"><ele>257.33333333333337</ele><time>2026-05-02T19:52:11.929Z</time></trkpt><trkpt lat="45.12679070000001" lon="7.63908675"><ele>257.5</ele><time>2026-05-02T19:52:12.929Z</time></trkpt><trkpt lat="45.126856916666675" lon="7.6391216166666664"><ele>257.6666666666667</ele><time>2026-05-02T19:52:13.927Z</time></trkpt><trkpt lat="45.12695681666668" lon="7.639184566666668"><ele>257.8333333333333</ele><time>2026-05-02T19:52:15.929Z</time></trkpt><trkpt lat="45.12702303333334" lon="7.639271816666667"><ele>258.0</ele><time>2026-05-02T19:52:17.929Z</time></trkpt><trkpt lat="45.1270455" lon="7.639397466666666"><ele>258.1666666666667</ele><time>2026-05-02T19:52:19.928Z</time></trkpt><trkpt lat="45.127071233333325" lon="7.6395347666666655"><ele>258.3333333333333</ele><time>2026-05-02T19:52:21.927Z</time></trkpt><trkpt lat="45.12709361666666" lon="7.639619000000001"><ele>258.5</ele><time>2026-05-02T19:52:22.956Z</time></trkpt><trkpt lat="45.12711791666668" lon="7.639707433333333"><ele>258.66666666666663</ele><time>2026-05-02T19:52:23.929Z</time></trkpt><trkpt lat="45.12714641666666" lon="7.639798883333333"><ele>258.8333333333333</ele><time>2026-05-02T19:52:24.957Z</time></trkpt><trkpt lat="45.127201316666664" lon="7.639932566666666"><ele>259.0</ele><time>2026-05-02T19:52:26.95Z</time></trkpt><trkpt lat="45.127246833333324" lon="7.640015383333334"><ele>259.0</ele><time>2026-05-02T19:52:28.935Z</time></trkpt><trkpt lat="45.1272589" lon="7.640131633333334"><ele>259.0</ele><time>2026-05-02T19:52:31.93Z</time></trkpt><trkpt lat="45.127182432052386" lon="7.640191752871293"><ele>259.0</ele><time>2026-05-02T19:52:33.927Z</time></trkpt><trkpt lat="45.127147933333326" lon="7.640270783333333"><ele>259.0</ele><time>2026-05-02T19:52:34.944Z</time></trkpt><trkpt lat="45.12708398333333" lon="7.640356950000001"><ele>259.0</ele><time>2026-05-02T19:52:35.931Z</time></trkpt><trkpt lat="45.12700728333333" lon="7.640460383333335"><ele>259.0</ele><time>2026-05-02T19:52:36.954Z</time></trkpt><trkpt lat="45.12692789999999" lon="7.640567166666666"><ele>259.0</ele><time>2026-05-02T19:52:37.931Z</time></trkpt><trkpt lat="45.12685338333334" lon="7.640666733333334"><ele>259.0</ele><time>2026-05-02T19:52:38.958Z</time></trkpt><trkpt lat="45.126775516666676" lon="7.640760866666667"><ele>259.0</ele><time>2026-05-02T19:52:39.924Z</time></trkpt><trkpt lat="45.12669665000001" lon="7.640845433333334"><ele>259.0</ele><time>2026-05-02T19:52:40.942Z</time></trkpt><trkpt lat="45.126618783333335" lon="7.640923316666667"><ele>259.0</ele><time>2026-05-02T19:52:41.93Z</time></trkpt><trkpt lat="45.126546700000006" lon="7.640986416666668"><ele>259.16666666666663</ele><time>2026-05-02T19:52:42.941Z</time></trkpt><trkpt lat="45.126472183333334" lon="7.641032099999999"><ele>259.3333333333333</ele><time>2026-05-02T19:52:43.928Z</time></trkpt><trkpt lat="45.12640370000001" lon="7.641056083333333"><ele>259.5</ele><time>2026-05-02T19:52:44.956Z</time></trkpt><trkpt lat="45.12634058333334" lon="7.641066983333333"><ele>259.6666666666667</ele><time>2026-05-02T19:52:45.927Z</time></trkpt><trkpt lat="45.12622785000001" lon="7.641079049999999"><ele>259.83333333333337</ele><time>2026-05-02T19:52:47.918Z</time></trkpt><trkpt lat="45.12612215000001" lon="7.6410912"><ele>260.0</ele><time>2026-05-02T19:52:49.93Z</time></trkpt><trkpt lat="45.12603053333334" lon="7.64113805"><ele>260.0</ele><time>2026-05-02T19:52:51.932Z</time></trkpt><trkpt lat="45.12599633333333" lon="7.641243583333333"><ele>260.0</ele><time>2026-05-02T19:52:53.921Z</time></trkpt><trkpt lat="45.12603255000001" lon="7.641353883333332"><ele>260.0</ele><time>2026-05-02T19:52:55.931Z</time></trkpt><trkpt lat="45.126119574166" lon="7.64142465256274"><ele>260.0</ele><time>2026-05-02T19:52:57.931Z</time></trkpt><trkpt lat="45.12618434999999" lon="7.6415407166666665"><ele>260.0</ele><time>2026-05-02T19:52:59.931Z</time></trkpt><trkpt lat="45.1262297172938" lon="7.641636002290273"><ele>260.0</ele><time>2026-05-02T19:53:01.923Z</time></trkpt><trkpt lat="45.12617168333333" lon="7.6417729"><ele>260.0</ele><time>2026-05-02T19:53:03.929Z</time></trkpt><trkpt lat="45.1261198" lon="7.641847833333332"><ele>260.0</ele><time>2026-05-02T19:53:04.932Z</time></trkpt><trkpt lat="45.12604511666667" lon="7.641954116666667"><ele>260.0</ele><time>2026-05-02T19:53:05.932Z</time></trkpt><trkpt lat="45.125951666666666" lon="7.642090233333333"><ele>260.0</ele><time>2026-05-02T19:53:06.946Z</time></trkpt><trkpt lat="45.12585335" lon="7.642254599999999"><ele>260.0</ele><time>2026-05-02T19:53:07.931Z</time></trkpt><trkpt lat="45.12575268333333" lon="7.642401883333334"><ele>260.0</ele><time>2026-05-02T19:53:08.932Z</time></trkpt><trkpt lat="45.12564781666667" lon="7.642550316666666"><ele>260.0</ele><time>2026-05-02T19:53:09.93Z</time></trkpt><trkpt lat="45.12552946666666" lon="7.642715016666666"><ele>259.33333333333337</ele><time>2026-05-02T19:53:10.929Z</time></trkpt><trkpt lat="45.125395533333325" lon="7.642900016666666"><ele>258.6666666666667</ele><time>2026-05-02T19:53:11.933Z</time></trkpt><trkpt lat="45.125257399999995" lon="7.643093383333333"><ele>258.0</ele><time>2026-05-02T19:53:12.992Z</time></trkpt><trkpt lat="45.12512261666667" lon="7.643284583333334"><ele>258.0</ele><time>2026-05-02T19:53:13.93Z</time></trkpt><trkpt lat="45.12499093333333" lon="7.643473"><ele>258.0</ele><time>2026-05-02T19:53:14.97Z</time></trkpt><trkpt lat="45.12486503333333" lon="7.643655466666667"><ele>258.0</ele><time>2026-05-02T19:53:15.938Z</time></trkpt><trkpt lat="45.124751966666665" lon="7.643834683333333"><ele>257.5</ele><time>2026-05-02T19:53:16.964Z</time></trkpt><trkpt lat="45.12465096666667" lon="7.643981283333333"><ele>257.0</ele><time>2026-05-02T19:53:17.946Z</time></trkpt><trkpt lat="45.12456480000001" lon="7.6441065"><ele>256.5</ele><time>2026-05-02T19:53:18.927Z</time></trkpt><trkpt lat="45.124493050000005" lon="7.644209599999999"><ele>256.0</ele><time>2026-05-02T19:53:19.932Z</time></trkpt><trkpt lat="45.12442775" lon="7.6443008"><ele>255.99999999999997</ele><time>2026-05-02T19:53:20.927Z</time></trkpt><trkpt lat="45.124369333333334" lon="7.644380333333334"><ele>256.0</ele><time>2026-05-02T19:53:21.928Z</time></trkpt><trkpt lat="45.1243229" lon="7.644441533333332"><ele>256.0</ele><time>2026-05-02T19:53:22.935Z</time></trkpt><trkpt lat="45.124247033333326" lon="7.644545383333334"><ele>256.0</ele><time>2026-05-02T19:53:24.928Z</time></trkpt><trkpt lat="45.12423739999999" lon="7.644687033333334"><ele>255.99999999999997</ele><time>2026-05-02T19:53:26.93Z</time></trkpt><trkpt lat="45.124266816666676" lon="7.644766416666666"><ele>256.0</ele><time>2026-05-02T19:53:27.932Z</time></trkpt><trkpt lat="45.12430965" lon="7.644881"><ele>256.0</ele><time>2026-05-02T19:53:28.93Z</time></trkpt><trkpt lat="45.12436061666667" lon="7.645023316666668"><ele>256.0</ele><time>2026-05-02T19:53:29.968Z</time></trkpt><trkpt lat="45.1244171" lon="7.645178383333333"><ele>256.0</ele><time>2026-05-02T19:53:30.933Z</time></trkpt><trkpt lat="45.12446966666667" lon="7.645319616666666"><ele>256.0</ele><time>2026-05-02T19:53:31.952Z</time></trkpt><trkpt lat="45.124514083333324" lon="7.645438633333333"><ele>256.0</ele><time>2026-05-02T19:53:32.932Z</time></trkpt><trkpt lat="45.124550799999994" lon="7.645546350000001"><ele>255.60000000000002</ele><time>2026-05-02T19:53:33.955Z</time></trkpt><trkpt lat="45.12457661666667" lon="7.6456283166666665"><ele>255.20000000000002</ele><time>2026-05-02T19:53:34.932Z</time></trkpt><trkpt lat="45.12460963333333" lon="7.645727483333333"><ele>254.79999999999998</ele><time>2026-05-02T19:53:36.945Z</time></trkpt><trkpt lat="45.1246461" lon="7.645829899999999"><ele>254.39999999999998</ele><time>2026-05-02T19:53:39.958Z</time></trkpt><trkpt lat="45.12471314999999" lon="7.646016483333333"><ele>254.0</ele><time>2026-05-02T19:53:41.957Z</time></trkpt><trkpt lat="45.12476965000001" lon="7.646171550000001"><ele>254.0</ele><time>2026-05-02T19:53:42.935Z</time></trkpt><trkpt lat="45.12483494999999" lon="7.646353783333333"><ele>254.0</ele><time>2026-05-02T19:53:43.951Z</time></trkpt><trkpt lat="45.12489546666667" lon="7.646522833333334"><ele>254.0</ele><time>2026-05-02T19:53:44.947Z</time></trkpt><trkpt lat="45.12494591666667" lon="7.646665416666667"><ele>254.0</ele><time>2026-05-02T19:53:45.946Z</time></trkpt><trkpt lat="45.12498305000001" lon="7.646772866666667"><ele>254.33333333333334</ele><time>2026-05-02T19:53:46.931Z</time></trkpt><trkpt lat="45.12500651666666" lon="7.646856100000001"><ele>254.66666666666669</ele><time>2026-05-02T19:53:47.936Z</time></trkpt><trkpt lat="45.12503620361572" lon="7.646969115081417"><ele>255.0</ele><time>2026-05-02T19:53:49.952Z</time></trkpt><trkpt lat="45.12494516666667" lon="7.647060783333334"><ele>255.33333333333331</ele><time>2026-05-02T19:53:50.928Z</time></trkpt><trkpt lat="45.124873916666665" lon="7.647115433333333"><ele>255.66666666666666</ele><time>2026-05-02T19:53:51.948Z</time></trkpt><trkpt lat="45.124778283333335" lon="7.647179316666665"><ele>256.0</ele><time>2026-05-02T19:53:52.932Z</time></trkpt><trkpt lat="45.12468741666666" lon="7.647233616666667"><ele>256.1428571428571</ele><time>2026-05-02T19:53:53.957Z</time></trkpt><trkpt lat="45.1246223" lon="7.647271933333333"><ele>256.2857142857143</ele><time>2026-05-02T19:53:54.944Z</time></trkpt><trkpt lat="45.124544516666674" lon="7.647318616666667"><ele>256.42857142857144</ele><time>2026-05-02T19:53:56.943Z</time></trkpt><trkpt lat="45.124483793452306" lon="7.647359843270578"><ele>256.57142857142856</ele><time>2026-05-02T19:54:08.93Z</time></trkpt><trkpt lat="45.124426548473956" lon="7.647399577044569"><ele>256.7142857142857</ele><time>2026-05-02T19:54:29.928Z</time></trkpt><trkpt lat="45.124362690961654" lon="7.647423500970662"><ele>256.85714285714283</ele><time>2026-05-02T19:54:33.923Z</time></trkpt><trkpt lat="45.12430408885025" lon="7.647485307439923"><ele>257.0</ele><time>2026-05-02T19:54:36.959Z</time></trkpt><trkpt lat="45.12424361156847" lon="7.647527391984898"><ele>257.0</ele><time>2026-05-02T19:54:37.93Z</time></trkpt><trkpt lat="45.1241739933029" lon="7.647575714208947"><ele>257.0</ele><time>2026-05-02T19:54:38.929Z</time></trkpt><trkpt lat="45.124101286574884" lon="7.6476261801443615"><ele>257.0</ele><time>2026-05-02T19:54:39.948Z</time></trkpt><trkpt lat="45.12403679924654" lon="7.647671565017399"><ele>257.0</ele><time>2026-05-02T19:54:40.932Z</time></trkpt><trkpt lat="45.123977266761194" lon="7.6477149103209365"><ele>257.0</ele><time>2026-05-02T19:54:41.92Z</time></trkpt><trkpt lat="45.12392093794291" lon="7.647755923049746"><ele>257.0</ele><time>2026-05-02T19:54:42.934Z</time></trkpt><trkpt lat="45.12383313320378" lon="7.647819779814974"><ele>256.75</ele><time>2026-05-02T19:54:44.93Z</time></trkpt><trkpt lat="45.123770381847095" lon="7.647865366499118"><ele>256.5</ele><time>2026-05-02T19:54:46.931Z</time></trkpt><trkpt lat="45.123710752854066" lon="7.647903772771919"><ele>256.25</ele><time>2026-05-02T19:54:49.929Z</time></trkpt><trkpt lat="45.123520996711704" lon="7.64779381334859"><ele>256.0</ele><time>2026-05-02T19:55:02.82Z</time></trkpt><trkpt lat="45.12367518502879" lon="7.647788882254776"><ele>255.99999999999997</ele><time>2026-05-02T19:55:05.834Z</time></trkpt><trkpt lat="45.12369516186104" lon="7.647913707400337"><ele>256.0</ele><time>2026-05-02T19:55:07.832Z</time></trkpt><trkpt lat="45.12364186666667" lon="7.647756816666667"><ele>256.0</ele><time>2026-05-02T19:55:52.83Z</time></trkpt><trkpt lat="45.123606833333334" lon="7.647677033333334"><ele>256.0</ele><time>2026-05-02T19:56:02.831Z</time></trkpt><trkpt lat="45.12367050607771" lon="7.6476896314457585"><ele>255.99999999999997</ele><time>2026-05-02T20:03:28.014Z</time></trkpt><trkpt lat="45.12363037339273" lon="7.6476188039842325"><ele>256.0</ele><time>2026-05-02T20:03:34.016Z</time></trkpt><trkpt lat="45.12354641455563" lon="7.647533914287991"><ele>255.99999999999997</ele><time>2026-05-02T20:03:37.015Z</time></trkpt><trkpt lat="45.12346499740399" lon="7.647534465753523"><ele>256.0</ele><time>2026-05-02T20:03:40.018Z</time></trkpt><trkpt lat="45.12338482883066" lon="7.647601713836915"><ele>256.0</ele><time>2026-05-02T20:03:41.015Z</time></trkpt><trkpt lat="45.1234552347135" lon="7.647594695083117"><ele>256.0</ele><time>2026-05-02T20:03:42.017Z</time></trkpt><trkpt lat="45.12352208644119" lon="7.647624746332337"><ele>255.99999999999997</ele><time>2026-05-02T20:03:54Z</time></trkpt><trkpt lat="45.1236417779228" lon="7.647635438435544"><ele>256.0</ele><time>2026-05-02T20:04:07Z</time></trkpt><trkpt lat="45.123574860806755" lon="7.647629213654315"><ele>255.99999999999997</ele><time>2026-05-02T20:12:03.999Z</time></trkpt><trkpt lat="45.12351125825477" lon="7.647653108251208"><ele>256.0</ele><time>2026-05-02T20:12:13.999Z</time></trkpt><trkpt lat="45.123445097467716" lon="7.647595692576121"><ele>256.0</ele><time>2026-05-02T20:12:31Z</time></trkpt><trkpt lat="45.123354916219824" lon="7.6475174705451066"><ele>256.0</ele><time>2026-05-02T20:12:36Z</time></trkpt><trkpt lat="45.12328086084854" lon="7.647477671262505"><ele>255.99999999999997</ele><time>2026-05-02T20:12:40Z</time></trkpt><trkpt lat="45.123209255147344" lon="7.647443934107874"><ele>256.0</ele><time>2026-05-02T20:12:44Z</time></trkpt><trkpt lat="45.12320074868144" lon="7.647542521939831"><ele>256.0</ele><time>2026-05-02T20:12:56Z</time></trkpt><trkpt lat="45.12341475796259" lon="7.647540578785683"><ele>256.0</ele><time>2026-05-02T20:13:26.999Z</time></trkpt><trkpt lat="45.123488660425885" lon="7.647569235947262"><ele>256.0</ele><time>2026-05-02T20:14:04.999Z</time></trkpt><trkpt lat="45.123592211903556" lon="7.647712221934465"><ele>256.0</ele><time>2026-05-02T20:14:51.999Z</time></trkpt><trkpt lat="45.12365898756119" lon="7.647596885161418"><ele>256.0</ele><time>2026-05-02T20:16:00.084Z</time></trkpt></trkseg></trk></gpx>